<?xml version='1.0' encoding='UTF-8'?><gpx version="1.1" creator="JPX - https://github.com/jenetics/jpx" xmlns="http://www.topografix.com/GPX/1/1"><trk><trkseg><trkpt lat="39.2597835" lon="16.6988988"><ele>1052.0</ele><time>2026-05-03T07:09:22.749Z</time></trkpt><trkpt lat="39.2598507" lon="16.6989342"><ele>1052.0</ele><time>2026-05-03T07:09:23.75Z</time></trkpt><trkpt lat="39.2599416" lon="16.6989565"><ele>1052.0</ele><time>2026-05-03T07:09:25.752Z</time></trkpt><trkpt lat="39.2600042" lon="16.6989438"><ele>1052.0</ele><time>2026-05-03T07:09:28.747Z</time></trkpt><trkpt lat="39.2600335" lon="16.6988682"><ele>1052.0</ele><time>2026-05-03T07:09:30.754Z</time></trkpt><trkpt lat="39.2600318" lon="16.6987655"><ele>1052.0</ele><time>2026-05-03T07:09:32.8Z</time></trkpt><trkpt lat="39.2600071" lon="16.6986887"><ele>1052.0</ele><time>2026-05-03T07:09:35.752Z</time></trkpt><trkpt lat="39.2599372" lon="16.6986221"><ele>1053.5</ele><time>2026-05-03T07:12:49.752Z</time></trkpt><trkpt lat="39.2598476" lon="16.6984854"><ele>1055.0</ele><time>2026-05-03T07:12:50.753Z</time></trkpt><trkpt lat="39.2597457" lon="16.6983606"><ele>1056.5</ele><time>2026-05-03T07:12:51.751Z</time></trkpt><trkpt lat="39.2596166" lon="16.6982814"><ele>1058.0</ele><time>2026-05-03T07:12:52.76Z</time></trkpt><trkpt lat="39.2594892" lon="16.6982026"><ele>1058.0</ele><time>2026-05-03T07:12:53.749Z</time></trkpt><trkpt lat="39.2593683" lon="16.6981169"><ele>1058.0</ele><time>2026-05-03T07:12:54.757Z</time></trkpt><trkpt lat="39.2592495" lon="16.6980535"><ele>1058.0</ele><time>2026-05-03T07:12:55.747Z</time></trkpt><trkpt lat="39.2591396" lon="16.6980167"><ele>1058.0</ele><time>2026-05-03T07:12:56.75Z</time></trkpt><trkpt lat="39.2590357" lon="16.697971"><ele>1056.75</ele><time>2026-05-03T07:12:57.748Z</time></trkpt><trkpt lat="39.2589113" lon="16.6979347"><ele>1055.5</ele><time>2026-05-03T07:12:58.756Z</time></trkpt><trkpt lat="39.2587702" lon="16.6979206"><ele>1054.25</ele><time>2026-05-03T07:12:59.756Z</time></trkpt><trkpt lat="39.2586188" lon="16.6979359"><ele>1053.0</ele><time>2026-05-03T07:13:00.747Z</time></trkpt><trkpt lat="39.2584547" lon="16.6979704"><ele>1053.0</ele><time>2026-05-03T07:13:01.767Z</time></trkpt><trkpt lat="39.2582998" lon="16.6980068"><ele>1053.0</ele><time>2026-05-03T07:13:02.751Z</time></trkpt><trkpt lat="39.2581468" lon="16.6980585"><ele>1053.0</ele><time>2026-05-03T07:13:03.752Z</time></trkpt><trkpt lat="39.2580132" lon="16.6981326"><ele>1052.75</ele><time>2026-05-03T07:13:04.75Z</time></trkpt><trkpt lat="39.2579001" lon="16.6981978"><ele>1052.5</ele><time>2026-05-03T07:13:05.758Z</time></trkpt><trkpt lat="39.2577875" lon="16.698239"><ele>1052.25</ele><time>2026-05-03T07:13:06.754Z</time></trkpt><trkpt lat="39.2576569" lon="16.6982432"><ele>1052.0</ele><time>2026-05-03T07:13:07.752Z</time></trkpt><trkpt lat="39.2575286" lon="16.6982381"><ele>1052.0</ele><time>2026-05-03T07:13:08.766Z</time></trkpt><trkpt lat="39.2574198" lon="16.6982381"><ele>1052.0</ele><time>2026-05-03T07:13:09.752Z</time></trkpt><trkpt lat="39.2573284" lon="16.6982256"><ele>1052.0</ele><time>2026-05-03T07:13:10.771Z</time></trkpt><trkpt lat="39.2572496" lon="16.6981846"><ele>1052.0</ele><time>2026-05-03T07:13:11.754Z</time></trkpt><trkpt lat="39.2571903" lon="16.69812"><ele>1052.0</ele><time>2026-05-03T07:13:12.754Z</time></trkpt><trkpt lat="39.2571474" lon="16.698039"><ele>1052.0</ele><time>2026-05-03T07:13:13.758Z</time></trkpt><trkpt lat="39.2571157" lon="16.6979644"><ele>1052.2</ele><time>2026-05-03T07:13:14.753Z</time></trkpt><trkpt lat="39.2570852" lon="16.6978914"><ele>1052.4</ele><time>2026-05-03T07:13:15.75Z</time></trkpt><trkpt lat="39.2570277" lon="16.6977587"><ele>1052.6</ele><time>2026-05-03T07:13:17.756Z</time></trkpt><trkpt lat="39.256976" lon="16.6976408"><ele>1052.8</ele><time>2026-05-03T07:13:19.755Z</time></trkpt><trkpt lat="39.2569175" lon="16.6975183"><ele>1053.0</ele><time>2026-05-03T07:13:21.758Z</time></trkpt><trkpt lat="39.2568689" lon="16.6974127"><ele>1053.0</ele><time>2026-05-03T07:13:23.762Z</time></trkpt><trkpt lat="39.2568259" lon="16.6972549"><ele>1053.0</ele><time>2026-05-03T07:13:25.76Z</time></trkpt><trkpt lat="39.2568194" lon="16.6971679"><ele>1053.0</ele><time>2026-05-03T07:13:26.759Z</time></trkpt><trkpt lat="39.2568155" lon="16.697084"><ele>1053.0</ele><time>2026-05-03T07:13:27.755Z</time></trkpt><trkpt lat="39.2568081" lon="16.6969399"><ele>1053.0</ele><time>2026-05-03T07:13:29.757Z</time></trkpt><trkpt lat="39.2568065" lon="16.6968483"><ele>1053.0</ele><time>2026-05-03T07:13:30.758Z</time></trkpt><trkpt lat="39.2567989" lon="16.6967515"><ele>1053.2</ele><time>2026-05-03T07:13:31.757Z</time></trkpt><trkpt lat="39.2568048" lon="16.6966461"><ele>1053.4</ele><time>2026-05-03T07:13:32.762Z</time></trkpt><trkpt lat="39.2568278" lon="16.6965021"><ele>1053.6000000000001</ele><time>2026-05-03T07:13:33.758Z</time></trkpt><trkpt lat="39.2568451" lon="16.6963437"><ele>1053.8</ele><time>2026-05-03T07:13:34.755Z</time></trkpt><trkpt lat="39.256884" lon="16.6961871"><ele>1054.0</ele><time>2026-05-03T07:13:35.759Z</time></trkpt><trkpt lat="39.2569162" lon="16.696014"><ele>1054.75</ele><time>2026-05-03T07:13:36.759Z</time></trkpt><trkpt lat="39.2568914" lon="16.695834"><ele>1055.5</ele><time>2026-05-03T07:13:37.757Z</time></trkpt><trkpt lat="39.2568553" lon="16.695657"><ele>1056.25</ele><time>2026-05-03T07:13:38.755Z</time></trkpt><trkpt lat="39.2568243" lon="16.6954921"><ele>1057.0</ele><time>2026-05-03T07:13:39.757Z</time></trkpt><trkpt lat="39.2568026" lon="16.695337"><ele>1058.0</ele><time>2026-05-03T07:13:40.765Z</time></trkpt><trkpt lat="39.2567827" lon="16.69516"><ele>1059.0</ele><time>2026-05-03T07:13:41.756Z</time></trkpt><trkpt lat="39.2567537" lon="16.6949606"><ele>1060.0</ele><time>2026-05-03T07:13:42.766Z</time></trkpt><trkpt lat="39.2567433" lon="16.6947726"><ele>1061.0</ele><time>2026-05-03T07:13:43.756Z</time></trkpt><trkpt lat="39.256738" lon="16.6946258"><ele>1061.0</ele><time>2026-05-03T07:13:44.759Z</time></trkpt><trkpt lat="39.2567489" lon="16.6944896"><ele>1061.0</ele><time>2026-05-03T07:13:45.759Z</time></trkpt><trkpt lat="39.2567649" lon="16.6943817"><ele>1061.0</ele><time>2026-05-03T07:13:46.751Z</time></trkpt><trkpt lat="39.2567706" lon="16.6942958"><ele>1061.0</ele><time>2026-05-03T07:13:47.766Z</time></trkpt><trkpt lat="39.2567544" lon="16.6941239"><ele>1061.0</ele><time>2026-05-03T07:14:12.768Z</time></trkpt><trkpt lat="39.2567622" lon="16.6940077"><ele>1060.25</ele><time>2026-05-03T07:14:14.757Z</time></trkpt><trkpt lat="39.2567799" lon="16.6938008"><ele>1059.5</ele><time>2026-05-03T07:14:16.753Z</time></trkpt><trkpt lat="39.25679" lon="16.6936465"><ele>1058.75</ele><time>2026-05-03T07:14:17.752Z</time></trkpt><trkpt lat="39.2568008" lon="16.6934863"><ele>1058.0</ele><time>2026-05-03T07:14:18.757Z</time></trkpt><trkpt lat="39.2568248" lon="16.6933115"><ele>1056.8</ele><time>2026-05-03T07:14:19.751Z</time></trkpt><trkpt lat="39.2568572" lon="16.6931474"><ele>1055.6</ele><time>2026-05-03T07:14:20.765Z</time></trkpt><trkpt lat="39.2568867" lon="16.6930023"><ele>1054.4</ele><time>2026-05-03T07:14:21.756Z</time></trkpt><trkpt lat="39.256925" lon="16.6929086"><ele>1053.2</ele><time>2026-05-03T07:14:22.752Z</time></trkpt><trkpt lat="39.2569624" lon="16.692841"><ele>1052.0</ele><time>2026-05-03T07:14:23.762Z</time></trkpt><trkpt lat="39.2570008" lon="16.6927736"><ele>1051.4</ele><time>2026-05-03T07:14:25.749Z</time></trkpt><trkpt lat="39.2570558" lon="16.6926809"><ele>1050.8000000000002</ele><time>2026-05-03T07:14:27.762Z</time></trkpt><trkpt lat="39.2571132" lon="16.6925732"><ele>1050.2</ele><time>2026-05-03T07:14:29.753Z</time></trkpt><trkpt lat="39.2571593" lon="16.6924673"><ele>1049.6000000000001</ele><time>2026-05-03T07:14:31.76Z</time></trkpt><trkpt lat="39.2571997" lon="16.6923401"><ele>1049.0</ele><time>2026-05-03T07:14:33.768Z</time></trkpt><trkpt lat="39.2572368" lon="16.6921992"><ele>1049.0</ele><time>2026-05-03T07:14:35.766Z</time></trkpt><trkpt lat="39.2572712" lon="16.692088"><ele>1049.0</ele><time>2026-05-03T07:14:37.765Z</time></trkpt><trkpt lat="39.2572975" lon="16.6919769"><ele>1049.0</ele><time>2026-05-03T07:14:39.76Z</time></trkpt><trkpt lat="39.2573176" lon="16.6918736"><ele>1049.0</ele><time>2026-05-03T07:14:41.765Z</time></trkpt><trkpt lat="39.2573331" lon="16.6917941"><ele>1049.0</ele><time>2026-05-03T07:14:43.772Z</time></trkpt><trkpt lat="39.2573513" lon="16.6916923"><ele>1049.0</ele><time>2026-05-03T07:14:46.758Z</time></trkpt><trkpt lat="39.2573787" lon="16.6915228"><ele>1051.5</ele><time>2026-05-03T07:14:48.758Z</time></trkpt><trkpt lat="39.2574027" lon="16.6913835"><ele>1054.0</ele><time>2026-05-03T07:14:49.758Z</time></trkpt><trkpt lat="39.2574499" lon="16.6912274"><ele>1056.5</ele><time>2026-05-03T07:14:50.765Z</time></trkpt><trkpt lat="39.2575028" lon="16.6910537"><ele>1059.0</ele><time>2026-05-03T07:14:51.767Z</time></trkpt><trkpt lat="39.2575572" lon="16.6908924"><ele>1059.0</ele><time>2026-05-03T07:14:52.768Z</time></trkpt><trkpt lat="39.2576097" lon="16.6907467"><ele>1059.0</ele><time>2026-05-03T07:14:53.755Z</time></trkpt><trkpt lat="39.257654" lon="16.6906221"><ele>1059.0</ele><time>2026-05-03T07:14:54.77Z</time></trkpt><trkpt lat="39.2576994" lon="16.6905182"><ele>1059.0</ele><time>2026-05-03T07:14:55.763Z</time></trkpt><trkpt lat="39.257731" lon="16.6904426"><ele>1059.0</ele><time>2026-05-03T07:14:56.777Z</time></trkpt><trkpt lat="39.2577858" lon="16.6903851"><ele>1059.0</ele><time>2026-05-03T07:28:20.764Z</time></trkpt><trkpt lat="39.2578543" lon="16.690365"><ele>1059.0</ele><time>2026-05-03T07:28:22.772Z</time></trkpt><trkpt lat="39.2579287" lon="16.6903673"><ele>1059.0</ele><time>2026-05-03T07:28:31.762Z</time></trkpt><trkpt lat="39.25802" lon="16.6903633"><ele>1059.0</ele><time>2026-05-03T07:28:34.759Z</time></trkpt><trkpt lat="39.2580976" lon="16.6903661"><ele>1059.0</ele><time>2026-05-03T07:28:37.763Z</time></trkpt><trkpt lat="39.2581706" lon="16.6903868"><ele>1059.0</ele><time>2026-05-03T07:28:40.78Z</time></trkpt><trkpt lat="39.2582572" lon="16.6903912"><ele>1062.4</ele><time>2026-05-03T07:28:42.756Z</time></trkpt><trkpt lat="39.2583344" lon="16.6903821"><ele>1065.8000000000002</ele><time>2026-05-03T07:28:43.759Z</time></trkpt><trkpt lat="39.2584557" lon="16.6903825"><ele>1069.1999999999998</ele><time>2026-05-03T07:28:44.756Z</time></trkpt><trkpt lat="39.2585753" lon="16.6903873"><ele>1072.6</ele><time>2026-05-03T07:28:45.763Z</time></trkpt><trkpt lat="39.2586858" lon="16.6903901"><ele>1076.0</ele><time>2026-05-03T07:28:46.759Z</time></trkpt><trkpt lat="39.2587941" lon="16.6903934"><ele>1076.0</ele><time>2026-05-03T07:28:47.755Z</time></trkpt><trkpt lat="39.2588995" lon="16.6904024"><ele>1076.0</ele><time>2026-05-03T07:28:48.767Z</time></trkpt><trkpt lat="39.2590062" lon="16.6904202"><ele>1076.0</ele><time>2026-05-03T07:28:49.764Z</time></trkpt><trkpt lat="39.2591138" lon="16.6904482"><ele>1076.0</ele><time>2026-05-03T07:28:50.77Z</time></trkpt><trkpt lat="39.2592188" lon="16.6904811"><ele>1076.0</ele><time>2026-05-03T07:28:51.761Z</time></trkpt><trkpt lat="39.2593163" lon="16.6905146"><ele>1076.8</ele><time>2026-05-03T07:28:52.766Z</time></trkpt><trkpt lat="39.2594126" lon="16.6905512"><ele>1077.6</ele><time>2026-05-03T07:28:53.757Z</time></trkpt><trkpt lat="39.2595067" lon="16.6905996"><ele>1078.4</ele><time>2026-05-03T07:28:54.758Z</time></trkpt><trkpt lat="39.25959" lon="16.6906755"><ele>1079.2</ele><time>2026-05-03T07:28:55.76Z</time></trkpt><trkpt lat="39.2596573" lon="16.6907852"><ele>1080.0</ele><time>2026-05-03T07:28:56.756Z</time></trkpt><trkpt lat="39.2596985" lon="16.6909247"><ele>1080.0</ele><time>2026-05-03T07:28:57.764Z</time></trkpt><trkpt lat="39.2597337" lon="16.6910887"><ele>1080.0</ele><time>2026-05-03T07:28:58.759Z</time></trkpt><trkpt lat="39.2597618" lon="16.6912567"><ele>1080.0</ele><time>2026-05-03T07:28:59.751Z</time></trkpt><trkpt lat="39.2597981" lon="16.691413"><ele>1080.0</ele><time>2026-05-03T07:29:00.766Z</time></trkpt><trkpt lat="39.2598602" lon="16.6915606"><ele>1080.75</ele><time>2026-05-03T07:29:01.753Z</time></trkpt><trkpt lat="39.2599312" lon="16.691678"><ele>1081.5</ele><time>2026-05-03T07:29:02.757Z</time></trkpt><trkpt lat="39.2600161" lon="16.6917772"><ele>1082.25</ele><time>2026-05-03T07:29:03.757Z</time></trkpt><trkpt lat="39.2601049" lon="16.6918671"><ele>1083.0</ele><time>2026-05-03T07:29:04.77Z</time></trkpt><trkpt lat="39.2601972" lon="16.6919589"><ele>1086.25</ele><time>2026-05-03T07:29:05.76Z</time></trkpt><trkpt lat="39.2602945" lon="16.6920602"><ele>1089.5</ele><time>2026-05-03T07:29:06.768Z</time></trkpt><trkpt lat="39.2603866" lon="16.6921531"><ele>1092.75</ele><time>2026-05-03T07:29:07.762Z</time></trkpt><trkpt lat="39.2604896" lon="16.6922446"><ele>1096.0</ele><time>2026-05-03T07:29:08.761Z</time></trkpt><trkpt lat="39.2606135" lon="16.6923294"><ele>1093.0</ele><time>2026-05-03T07:29:09.764Z</time></trkpt><trkpt lat="39.2607515" lon="16.6924211"><ele>1090.0</ele><time>2026-05-03T07:29:10.77Z</time></trkpt><trkpt lat="39.2608982" lon="16.6925205"><ele>1087.0</ele><time>2026-05-03T07:29:11.765Z</time></trkpt><trkpt lat="39.2610409" lon="16.6926187"><ele>1087.0</ele><time>2026-05-03T07:29:12.758Z</time></trkpt><trkpt lat="39.2611752" lon="16.6927115"><ele>1087.0</ele><time>2026-05-03T07:29:13.764Z</time></trkpt><trkpt lat="39.2613061" lon="16.6928068"><ele>1087.0</ele><time>2026-05-03T07:29:14.76Z</time></trkpt><trkpt lat="39.2614342" lon="16.6928916"><ele>1087.0</ele><time>2026-05-03T07:29:15.772Z</time></trkpt><trkpt lat="39.2615506" lon="16.6929448"><ele>1086.2</ele><time>2026-05-03T07:29:16.756Z</time></trkpt><trkpt lat="39.2616568" lon="16.6929628"><ele>1085.4</ele><time>2026-05-03T07:29:17.767Z</time></trkpt><trkpt lat="39.2617534" lon="16.6929444"><ele>1084.6</ele><time>2026-05-03T07:29:18.766Z</time></trkpt><trkpt lat="39.2618367" lon="16.6928916"><ele>1083.8</ele><time>2026-05-03T07:29:19.76Z</time></trkpt><trkpt lat="39.2619011" lon="16.6928041"><ele>1083.0</ele><time>2026-05-03T07:29:20.756Z</time></trkpt><trkpt lat="39.2619424" lon="16.6927143"><ele>1083.0</ele><time>2026-05-03T07:29:21.758Z</time></trkpt><trkpt lat="39.2619659" lon="16.6926292"><ele>1083.0</ele><time>2026-05-03T07:29:22.767Z</time></trkpt><trkpt lat="39.2619854" lon="16.6925491"><ele>1083.0</ele><time>2026-05-03T07:29:23.768Z</time></trkpt><trkpt lat="39.2620411" lon="16.6924102"><ele>1083.0</ele><time>2026-05-03T07:29:25.786Z</time></trkpt><trkpt lat="39.2620845" lon="16.6923484"><ele>1083.0</ele><time>2026-05-03T07:29:26.769Z</time></trkpt><trkpt lat="39.262137" lon="16.6922968"><ele>1083.0</ele><time>2026-05-03T07:29:27.76Z</time></trkpt><trkpt lat="39.2621975" lon="16.6922473"><ele>1083.0</ele><time>2026-05-03T07:29:28.764Z</time></trkpt><trkpt lat="39.2622604" lon="16.6922058"><ele>1083.0</ele><time>2026-05-03T07:29:29.761Z</time></trkpt><trkpt lat="39.2623236" lon="16.6921694"><ele>1083.0</ele><time>2026-05-03T07:29:30.772Z</time></trkpt><trkpt lat="39.2623833" lon="16.6921355"><ele>1083.0</ele><time>2026-05-03T07:29:31.767Z</time></trkpt><trkpt lat="39.2624445" lon="16.6921002"><ele>1083.0</ele><time>2026-05-03T07:29:32.766Z</time></trkpt><trkpt lat="39.2625071" lon="16.6920648"><ele>1083.0</ele><time>2026-05-03T07:29:33.767Z</time></trkpt><trkpt lat="39.2625738" lon="16.6920283"><ele>1083.0</ele><time>2026-05-03T07:29:34.763Z</time></trkpt><trkpt lat="39.2626515" lon="16.6919914"><ele>1084.8</ele><time>2026-05-03T07:29:35.775Z</time></trkpt><trkpt lat="39.2627374" lon="16.6919511"><ele>1086.6</ele><time>2026-05-03T07:29:36.76Z</time></trkpt><trkpt lat="39.262822" lon="16.6919049"><ele>1088.4</ele><time>2026-05-03T07:29:37.765Z</time></trkpt><trkpt lat="39.2629008" lon="16.6918593"><ele>1090.2</ele><time>2026-05-03T07:29:38.768Z</time></trkpt><trkpt lat="39.2629832" lon="16.6918094"><ele>1092.0</ele><time>2026-05-03T07:29:39.772Z</time></trkpt><trkpt lat="39.2630752" lon="16.6917343"><ele>1091.5</ele><time>2026-05-03T07:29:40.757Z</time></trkpt><trkpt lat="39.26318" lon="16.6916306"><ele>1091.0</ele><time>2026-05-03T07:29:41.77Z</time></trkpt><trkpt lat="39.2632655" lon="16.6914868"><ele>1090.5</ele><time>2026-05-03T07:29:42.765Z</time></trkpt><trkpt lat="39.263315" lon="16.6913262"><ele>1090.0</ele><time>2026-05-03T07:29:43.772Z</time></trkpt><trkpt lat="39.2633427" lon="16.6911741"><ele>1091.6</ele><time>2026-05-03T07:29:44.764Z</time></trkpt><trkpt lat="39.2633625" lon="16.6910213"><ele>1093.2</ele><time>2026-05-03T07:29:45.755Z</time></trkpt><trkpt lat="39.2633836" lon="16.6908904"><ele>1094.8</ele><time>2026-05-03T07:29:46.761Z</time></trkpt><trkpt lat="39.2634198" lon="16.6907796"><ele>1096.4</ele><time>2026-05-03T07:29:47.766Z</time></trkpt><trkpt lat="39.2634734" lon="16.6906851"><ele>1098.0</ele><time>2026-05-03T07:29:48.762Z</time></trkpt><trkpt lat="39.2635408" lon="16.6906077"><ele>1098.0</ele><time>2026-05-03T07:29:49.779Z</time></trkpt><trkpt lat="39.2636208" lon="16.6905426"><ele>1098.0</ele><time>2026-05-03T07:29:50.761Z</time></trkpt><trkpt lat="39.2636989" lon="16.6904835"><ele>1098.0</ele><time>2026-05-03T07:29:51.757Z</time></trkpt><trkpt lat="39.2637711" lon="16.6904281"><ele>1098.0</ele><time>2026-05-03T07:29:52.757Z</time></trkpt><trkpt lat="39.2638372" lon="16.6903781"><ele>1098.0</ele><time>2026-05-03T07:29:53.762Z</time></trkpt><trkpt lat="39.2639028" lon="16.6903279"><ele>1098.0</ele><time>2026-05-03T07:29:54.761Z</time></trkpt><trkpt lat="39.2639629" lon="16.690267"><ele>1097.8333333333333</ele><time>2026-05-03T07:29:55.767Z</time></trkpt><trkpt lat="39.2640153" lon="16.6901932"><ele>1097.6666666666667</ele><time>2026-05-03T07:29:56.763Z</time></trkpt><trkpt lat="39.2640504" lon="16.6901006"><ele>1097.5</ele><time>2026-05-03T07:29:57.774Z</time></trkpt><trkpt lat="39.2640675" lon="16.6899932"><ele>1097.3333333333335</ele><time>2026-05-03T07:29:58.764Z</time></trkpt><trkpt lat="39.2640648" lon="16.6898801"><ele>1097.1666666666667</ele><time>2026-05-03T07:29:59.763Z</time></trkpt><trkpt lat="39.2640484" lon="16.6897717"><ele>1097.0</ele><time>2026-05-03T07:30:00.778Z</time></trkpt><trkpt lat="39.2640292" lon="16.6896667"><ele>1097.0</ele><time>2026-05-03T07:30:01.768Z</time></trkpt><trkpt lat="39.2640095" lon="16.6895492"><ele>1097.0</ele><time>2026-05-03T07:30:02.784Z</time></trkpt><trkpt lat="39.2639998" lon="16.6894335"><ele>1097.0</ele><time>2026-05-03T07:30:03.76Z</time></trkpt><trkpt lat="39.2640117" lon="16.689317"><ele>1097.0</ele><time>2026-05-03T07:30:04.763Z</time></trkpt><trkpt lat="39.2640521" lon="16.6892118"><ele>1097.0</ele><time>2026-05-03T07:30:05.765Z</time></trkpt><trkpt lat="39.2641075" lon="16.6891141"><ele>1098.0</ele><time>2026-05-03T07:30:06.758Z</time></trkpt><trkpt lat="39.264172" lon="16.6890119"><ele>1099.0</ele><time>2026-05-03T07:30:07.767Z</time></trkpt><trkpt lat="39.2642373" lon="16.6889079"><ele>1100.0</ele><time>2026-05-03T07:30:08.763Z</time></trkpt><trkpt lat="39.2642884" lon="16.688785"><ele>1101.0</ele><time>2026-05-03T07:30:09.764Z</time></trkpt><trkpt lat="39.2643291" lon="16.6886242"><ele>1102.0</ele><time>2026-05-03T07:30:10.765Z</time></trkpt><trkpt lat="39.2643742" lon="16.6884368"><ele>1104.0</ele><time>2026-05-03T07:30:11.765Z</time></trkpt><trkpt lat="39.2644246" lon="16.6882335"><ele>1106.0</ele><time>2026-05-03T07:30:12.769Z</time></trkpt><trkpt lat="39.2644733" lon="16.6880392"><ele>1108.0</ele><time>2026-05-03T07:30:13.761Z</time></trkpt><trkpt lat="39.264516" lon="16.6878522"><ele>1110.0</ele><time>2026-05-03T07:30:14.766Z</time></trkpt><trkpt lat="39.2645619" lon="16.6876711"><ele>1112.0</ele><time>2026-05-03T07:30:15.766Z</time></trkpt><trkpt lat="39.2645991" lon="16.687477"><ele>1114.0</ele><time>2026-05-03T07:30:16.758Z</time></trkpt><trkpt lat="39.2646443" lon="16.6872967"><ele>1116.0</ele><time>2026-05-03T07:30:17.758Z</time></trkpt><trkpt lat="39.2646869" lon="16.6871297"><ele>1116.0</ele><time>2026-05-03T07:30:18.765Z</time></trkpt><trkpt lat="39.2647162" lon="16.6869862"><ele>1116.0</ele><time>2026-05-03T07:30:19.763Z</time></trkpt><trkpt lat="39.2647543" lon="16.6868216"><ele>1116.0</ele><time>2026-05-03T07:30:20.761Z</time></trkpt><trkpt lat="39.2647972" lon="16.6866344"><ele>1116.0</ele><time>2026-05-03T07:30:21.762Z</time></trkpt><trkpt lat="39.2648451" lon="16.686435"><ele>1111.0</ele><time>2026-05-03T07:30:22.759Z</time></trkpt><trkpt lat="39.2649046" lon="16.6862302"><ele>1106.0</ele><time>2026-05-03T07:30:23.755Z</time></trkpt><trkpt lat="39.2649566" lon="16.6860453"><ele>1101.0</ele><time>2026-05-03T07:30:24.758Z</time></trkpt><trkpt lat="39.2650188" lon="16.6858603"><ele>1101.0</ele><time>2026-05-03T07:30:25.762Z</time></trkpt><trkpt lat="39.265059" lon="16.6856861"><ele>1101.0</ele><time>2026-05-03T07:30:26.759Z</time></trkpt><trkpt lat="39.2650855" lon="16.6855191"><ele>1101.0</ele><time>2026-05-03T07:30:27.769Z</time></trkpt><trkpt lat="39.2650735" lon="16.6853584"><ele>1101.0</ele><time>2026-05-03T07:30:28.769Z</time></trkpt><trkpt lat="39.2650693" lon="16.685189"><ele>1101.3333333333333</ele><time>2026-05-03T07:30:29.766Z</time></trkpt><trkpt lat="39.2650835" lon="16.6849774"><ele>1101.6666666666665</ele><time>2026-05-03T07:30:30.773Z</time></trkpt><trkpt lat="39.2651188" lon="16.684756"><ele>1102.0</ele><time>2026-05-03T07:30:31.763Z</time></trkpt><trkpt lat="39.2651465" lon="16.6845426"><ele>1101.0</ele><time>2026-05-03T07:30:32.763Z</time></trkpt><trkpt lat="39.2651929" lon="16.6843339"><ele>1100.0</ele><time>2026-05-03T07:30:33.76Z</time></trkpt><trkpt lat="39.2652619" lon="16.6841467"><ele>1099.0</ele><time>2026-05-03T07:30:34.757Z</time></trkpt><trkpt lat="39.2653312" lon="16.6839628"><ele>1099.0</ele><time>2026-05-03T07:30:35.76Z</time></trkpt><trkpt lat="39.2653762" lon="16.6837734"><ele>1099.0</ele><time>2026-05-03T07:30:36.761Z</time></trkpt><trkpt lat="39.2654138" lon="16.6835695"><ele>1099.0</ele><time>2026-05-03T07:30:37.759Z</time></trkpt><trkpt lat="39.2654345" lon="16.6833535"><ele>1096.0</ele><time>2026-05-03T07:30:38.761Z</time></trkpt><trkpt lat="39.2654527" lon="16.6831555"><ele>1093.0</ele><time>2026-05-03T07:30:39.757Z</time></trkpt><trkpt lat="39.2654521" lon="16.6829663"><ele>1090.0</ele><time>2026-05-03T07:30:40.764Z</time></trkpt><trkpt lat="39.2654529" lon="16.6828012"><ele>1087.0</ele><time>2026-05-03T07:30:41.76Z</time></trkpt><trkpt lat="39.2654651" lon="16.6826586"><ele>1087.6</ele><time>2026-05-03T07:30:42.757Z</time></trkpt><trkpt lat="39.2655126" lon="16.6825492"><ele>1088.2</ele><time>2026-05-03T07:30:43.769Z</time></trkpt><trkpt lat="39.2655868" lon="16.6824822"><ele>1088.8</ele><time>2026-05-03T07:30:44.761Z</time></trkpt><trkpt lat="39.2656869" lon="16.6824356"><ele>1089.4</ele><time>2026-05-03T07:30:45.777Z</time></trkpt><trkpt lat="39.2657948" lon="16.6823963"><ele>1090.0</ele><time>2026-05-03T07:30:46.756Z</time></trkpt><trkpt lat="39.2659071" lon="16.682331"><ele>1090.0</ele><time>2026-05-03T07:30:47.774Z</time></trkpt><trkpt lat="39.2659743" lon="16.6822752"><ele>1090.0</ele><time>2026-05-03T07:30:48.77Z</time></trkpt><trkpt lat="39.2660643" lon="16.6821865"><ele>1090.0</ele><time>2026-05-03T07:30:50.78Z</time></trkpt><trkpt lat="39.2661064" lon="16.6821167"><ele>1090.0</ele><time>2026-05-03T07:30:51.767Z</time></trkpt><trkpt lat="39.2660996" lon="16.6819855"><ele>1090.0</ele><time>2026-05-03T07:30:52.772Z</time></trkpt><trkpt lat="39.2661231" lon="16.6818328"><ele>1087.3333333333333</ele><time>2026-05-03T07:30:53.768Z</time></trkpt><trkpt lat="39.2661868" lon="16.6816695"><ele>1084.6666666666667</ele><time>2026-05-03T07:30:54.763Z</time></trkpt><trkpt lat="39.2662727" lon="16.6814977"><ele>1082.0</ele><time>2026-05-03T07:30:55.761Z</time></trkpt><trkpt lat="39.2663431" lon="16.6813048"><ele>1079.6666666666667</ele><time>2026-05-03T07:30:56.763Z</time></trkpt><trkpt lat="39.2663764" lon="16.6810846"><ele>1077.3333333333333</ele><time>2026-05-03T07:30:57.763Z</time></trkpt><trkpt lat="39.2663855" lon="16.6808526"><ele>1075.0</ele><time>2026-05-03T07:30:58.782Z</time></trkpt><trkpt lat="39.2664011" lon="16.6806099"><ele>1075.0</ele><time>2026-05-03T07:30:59.757Z</time></trkpt><trkpt lat="39.2664253" lon="16.6803792"><ele>1075.0</ele><time>2026-05-03T07:31:00.766Z</time></trkpt><trkpt lat="39.2664651" lon="16.680184"><ele>1075.0</ele><time>2026-05-03T07:31:01.76Z</time></trkpt><trkpt lat="39.266533" lon="16.6800291"><ele>1080.0</ele><time>2026-05-03T07:31:02.76Z</time></trkpt><trkpt lat="39.2666372" lon="16.6799051"><ele>1085.0</ele><time>2026-05-03T07:31:03.761Z</time></trkpt><trkpt lat="39.2667713" lon="16.6797982"><ele>1090.0</ele><time>2026-05-03T07:31:04.762Z</time></trkpt><trkpt lat="39.2669147" lon="16.6796811"><ele>1090.0</ele><time>2026-05-03T07:31:05.766Z</time></trkpt><trkpt lat="39.2670635" lon="16.6795512"><ele>1090.0</ele><time>2026-05-03T07:31:06.758Z</time></trkpt><trkpt lat="39.2672184" lon="16.6794138"><ele>1090.0</ele><time>2026-05-03T07:31:07.764Z</time></trkpt><trkpt lat="39.2673774" lon="16.6792653"><ele>1090.3333333333333</ele><time>2026-05-03T07:31:08.764Z</time></trkpt><trkpt lat="39.26754" lon="16.679109"><ele>1090.6666666666667</ele><time>2026-05-03T07:31:09.76Z</time></trkpt><trkpt lat="39.267705" lon="16.6789457"><ele>1091.0</ele><time>2026-05-03T07:31:10.764Z</time></trkpt><trkpt lat="39.2678736" lon="16.678776"><ele>1091.0</ele><time>2026-05-03T07:31:11.763Z</time></trkpt><trkpt lat="39.2680428" lon="16.6786113"><ele>1091.0</ele><time>2026-05-03T07:31:12.766Z</time></trkpt><trkpt lat="39.2681879" lon="16.6784683"><ele>1091.0</ele><time>2026-05-03T07:31:13.758Z</time></trkpt><trkpt lat="39.2683297" lon="16.6783434"><ele>1092.0</ele><time>2026-05-03T07:31:14.763Z</time></trkpt><trkpt lat="39.2684585" lon="16.67823"><ele>1093.0</ele><time>2026-05-03T07:31:15.755Z</time></trkpt><trkpt lat="39.2685778" lon="16.67813"><ele>1094.0</ele><time>2026-05-03T07:31:16.764Z</time></trkpt><trkpt lat="39.2686803" lon="16.6780374"><ele>1095.0</ele><time>2026-05-03T07:31:17.772Z</time></trkpt><trkpt lat="39.268788" lon="16.6779333"><ele>1095.0</ele><time>2026-05-03T07:31:18.769Z</time></trkpt><trkpt lat="39.2688859" lon="16.6778383"><ele>1095.0</ele><time>2026-05-03T07:31:19.772Z</time></trkpt><trkpt lat="39.2689688" lon="16.6777405"><ele>1095.0</ele><time>2026-05-03T07:31:20.764Z</time></trkpt><trkpt lat="39.2690086" lon="16.6776101"><ele>1095.0</ele><time>2026-05-03T07:31:21.763Z</time></trkpt><trkpt lat="39.2690011" lon="16.677481"><ele>1095.0</ele><time>2026-05-03T07:31:22.769Z</time></trkpt><trkpt lat="39.2689446" lon="16.6773663"><ele>1095.25</ele><time>2026-05-03T07:31:23.768Z</time></trkpt><trkpt lat="39.2688448" lon="16.677277"><ele>1095.5</ele><time>2026-05-03T07:31:24.768Z</time></trkpt><trkpt lat="39.268718" lon="16.6772037"><ele>1095.75</ele><time>2026-05-03T07:31:25.773Z</time></trkpt><trkpt lat="39.2685973" lon="16.6771305"><ele>1096.0</ele><time>2026-05-03T07:31:26.762Z</time></trkpt><trkpt lat="39.2685162" lon="16.6770338"><ele>1096.3999999999999</ele><time>2026-05-03T07:31:27.758Z</time></trkpt><trkpt lat="39.2684889" lon="16.6769154"><ele>1096.8</ele><time>2026-05-03T07:31:28.767Z</time></trkpt><trkpt lat="39.268516" lon="16.6768035"><ele>1097.1999999999998</ele><time>2026-05-03T07:31:29.765Z</time></trkpt><trkpt lat="39.268583" lon="16.6767162"><ele>1097.6</ele><time>2026-05-03T07:31:30.772Z</time></trkpt><trkpt lat="39.2686812" lon="16.6766787"><ele>1098.0</ele><time>2026-05-03T07:31:31.766Z</time></trkpt><trkpt lat="39.2687981" lon="16.6766779"><ele>1098.0</ele><time>2026-05-03T07:31:32.768Z</time></trkpt><trkpt lat="39.2689295" lon="16.6767147"><ele>1098.0</ele><time>2026-05-03T07:31:33.762Z</time></trkpt><trkpt lat="39.2690707" lon="16.6767666"><ele>1098.0</ele><time>2026-05-03T07:31:34.765Z</time></trkpt><trkpt lat="39.2692216" lon="16.6768165"><ele>1098.0</ele><time>2026-05-03T07:31:35.777Z</time></trkpt><trkpt lat="39.2693818" lon="16.6768508"><ele>1101.3333333333333</ele><time>2026-05-03T07:31:36.765Z</time></trkpt><trkpt lat="39.2695515" lon="16.6768533"><ele>1104.6666666666665</ele><time>2026-05-03T07:31:37.77Z</time></trkpt><trkpt lat="39.2697062" lon="16.6768386"><ele>1108.0</ele><time>2026-05-03T07:31:38.77Z</time></trkpt><trkpt lat="39.269835" lon="16.6768228"><ele>1110.0</ele><time>2026-05-03T07:31:39.761Z</time></trkpt><trkpt lat="39.2699448" lon="16.6768265"><ele>1112.0</ele><time>2026-05-03T07:31:40.757Z</time></trkpt><trkpt lat="39.2700289" lon="16.6768635"><ele>1114.0</ele><time>2026-05-03T07:31:41.765Z</time></trkpt><trkpt lat="39.2700809" lon="16.6769346"><ele>1116.0</ele><time>2026-05-03T07:31:42.754Z</time></trkpt><trkpt lat="39.2700977" lon="16.6770344"><ele>1118.0</ele><time>2026-05-03T07:31:43.757Z</time></trkpt><trkpt lat="39.270081" lon="16.677148"><ele>1120.0</ele><time>2026-05-03T07:31:44.76Z</time></trkpt><trkpt lat="39.2700349" lon="16.6772813"><ele>1120.0</ele><time>2026-05-03T07:31:45.764Z</time></trkpt><trkpt lat="39.2699818" lon="16.6774349"><ele>1120.0</ele><time>2026-05-03T07:31:46.767Z</time></trkpt><trkpt lat="39.2699439" lon="16.677599"><ele>1120.0</ele><time>2026-05-03T07:31:47.764Z</time></trkpt><trkpt lat="39.2699284" lon="16.6777714"><ele>1120.0</ele><time>2026-05-03T07:31:48.763Z</time></trkpt><trkpt lat="39.2699327" lon="16.6779212"><ele>1119.5</ele><time>2026-05-03T07:31:49.788Z</time></trkpt><trkpt lat="39.2699467" lon="16.6780348"><ele>1119.0</ele><time>2026-05-03T07:31:50.767Z</time></trkpt><trkpt lat="39.2699668" lon="16.6781183"><ele>1118.5</ele><time>2026-05-03T07:31:51.764Z</time></trkpt><trkpt lat="39.2700104" lon="16.6781802"><ele>1118.0</ele><time>2026-05-03T07:31:52.764Z</time></trkpt><trkpt lat="39.270085" lon="16.6781763"><ele>1117.5</ele><time>2026-05-03T07:31:53.763Z</time></trkpt><trkpt lat="39.2701865" lon="16.6781593"><ele>1117.0</ele><time>2026-05-03T07:31:54.787Z</time></trkpt><trkpt lat="39.2703066" lon="16.6781293"><ele>1117.0</ele><time>2026-05-03T07:31:55.764Z</time></trkpt><trkpt lat="39.2704385" lon="16.6780797"><ele>1117.0</ele><time>2026-05-03T07:31:56.759Z</time></trkpt><trkpt lat="39.2705757" lon="16.6780131"><ele>1117.0</ele><time>2026-05-03T07:31:57.767Z</time></trkpt><trkpt lat="39.270709" lon="16.6779264"><ele>1117.0</ele><time>2026-05-03T07:31:58.77Z</time></trkpt><trkpt lat="39.2708307" lon="16.6778364"><ele>1122.6666666666665</ele><time>2026-05-03T07:31:59.77Z</time></trkpt><trkpt lat="39.270958" lon="16.6777252"><ele>1128.3333333333333</ele><time>2026-05-03T07:32:00.755Z</time></trkpt><trkpt lat="39.2710699" lon="16.6775769"><ele>1134.0</ele><time>2026-05-03T07:32:01.77Z</time></trkpt><trkpt lat="39.2711827" lon="16.6774038"><ele>1134.0</ele><time>2026-05-03T07:32:02.764Z</time></trkpt><trkpt lat="39.2712926" lon="16.6772413"><ele>1134.0</ele><time>2026-05-03T07:32:03.759Z</time></trkpt><trkpt lat="39.271397" lon="16.6770869"><ele>1134.0</ele><time>2026-05-03T07:32:04.766Z</time></trkpt><trkpt lat="39.2715258" lon="16.676946"><ele>1136.3333333333333</ele><time>2026-05-03T07:32:05.763Z</time></trkpt><trkpt lat="39.2716708" lon="16.6768265"><ele>1138.6666666666665</ele><time>2026-05-03T07:32:06.764Z</time></trkpt><trkpt lat="39.2718151" lon="16.6767084"><ele>1141.0</ele><time>2026-05-03T07:32:07.76Z</time></trkpt><trkpt lat="39.2719815" lon="16.676593"><ele>1141.0</ele><time>2026-05-03T07:32:08.769Z</time></trkpt><trkpt lat="39.272135" lon="16.6764698"><ele>1141.0</ele><time>2026-05-03T07:32:09.764Z</time></trkpt><trkpt lat="39.2722826" lon="16.676351"><ele>1141.0</ele><time>2026-05-03T07:32:10.763Z</time></trkpt><trkpt lat="39.2724342" lon="16.6762125"><ele>1145.6666666666665</ele><time>2026-05-03T07:32:11.762Z</time></trkpt><trkpt lat="39.2725798" lon="16.6760817"><ele>1150.3333333333333</ele><time>2026-05-03T07:32:12.765Z</time></trkpt><trkpt lat="39.2727394" lon="16.6759514"><ele>1155.0</ele><time>2026-05-03T07:32:13.762Z</time></trkpt><trkpt lat="39.2729019" lon="16.6758173"><ele>1155.0</ele><time>2026-05-03T07:32:14.777Z</time></trkpt><trkpt lat="39.2730592" lon="16.6756904"><ele>1155.0</ele><time>2026-05-03T07:32:15.758Z</time></trkpt><trkpt lat="39.2732127" lon="16.6755594"><ele>1155.0</ele><time>2026-05-03T07:32:16.751Z</time></trkpt><trkpt lat="39.2733659" lon="16.6754406"><ele>1157.0</ele><time>2026-05-03T07:32:17.761Z</time></trkpt><trkpt lat="39.2735002" lon="16.6753436"><ele>1159.0</ele><time>2026-05-03T07:32:18.765Z</time></trkpt><trkpt lat="39.2736167" lon="16.6752441"><ele>1161.0</ele><time>2026-05-03T07:32:19.758Z</time></trkpt><trkpt lat="39.2737171" lon="16.6751457"><ele>1163.0</ele><time>2026-05-03T07:32:20.762Z</time></trkpt><trkpt lat="39.2737999" lon="16.6750403"><ele>1164.0</ele><time>2026-05-03T07:32:21.759Z</time></trkpt><trkpt lat="39.2738796" lon="16.6748923"><ele>1165.0</ele><time>2026-05-03T07:32:22.764Z</time></trkpt><trkpt lat="39.2738917" lon="16.6746671"><ele>1166.0</ele><time>2026-05-03T07:32:23.764Z</time></trkpt><trkpt lat="39.273912" lon="16.6744838"><ele>1168.25</ele><time>2026-05-03T07:32:24.767Z</time></trkpt><trkpt lat="39.2739305" lon="16.6743324"><ele>1170.5</ele><time>2026-05-03T07:32:25.754Z</time></trkpt><trkpt lat="39.2739912" lon="16.6741576"><ele>1172.75</ele><time>2026-05-03T07:32:26.765Z</time></trkpt><trkpt lat="39.2740975" lon="16.6740187"><ele>1175.0</ele><time>2026-05-03T07:32:27.755Z</time></trkpt><trkpt lat="39.2742078" lon="16.6739096"><ele>1176.0</ele><time>2026-05-03T07:32:28.757Z</time></trkpt><trkpt lat="39.2743232" lon="16.6737997"><ele>1177.0</ele><time>2026-05-03T07:32:29.756Z</time></trkpt><trkpt lat="39.2744075" lon="16.6736763"><ele>1178.0</ele><time>2026-05-03T07:32:30.764Z</time></trkpt><trkpt lat="39.2744967" lon="16.6735467"><ele>1179.0</ele><time>2026-05-03T07:32:31.762Z</time></trkpt><trkpt lat="39.2745706" lon="16.6734251"><ele>1179.8</ele><time>2026-05-03T07:32:32.769Z</time></trkpt><trkpt lat="39.2745936" lon="16.6733134"><ele>1180.6000000000001</ele><time>2026-05-03T07:32:33.759Z</time></trkpt><trkpt lat="39.2746201" lon="16.6731585"><ele>1181.4</ele><time>2026-05-03T07:32:34.763Z</time></trkpt><trkpt lat="39.2746807" lon="16.6730392"><ele>1182.2</ele><time>2026-05-03T07:32:35.764Z</time></trkpt><trkpt lat="39.2747774" lon="16.6729361"><ele>1183.0</ele><time>2026-05-03T07:32:36.77Z</time></trkpt><trkpt lat="39.2749226" lon="16.6728348"><ele>1184.6666666666665</ele><time>2026-05-03T07:32:37.765Z</time></trkpt><trkpt lat="39.2750754" lon="16.6727213"><ele>1186.3333333333333</ele><time>2026-05-03T07:32:38.763Z</time></trkpt><trkpt lat="39.2752288" lon="16.6725925"><ele>1188.0</ele><time>2026-05-03T07:32:39.768Z</time></trkpt><trkpt lat="39.2753815" lon="16.6724526"><ele>1188.0</ele><time>2026-05-03T07:32:40.763Z</time></trkpt><trkpt lat="39.2755167" lon="16.6723133"><ele>1188.0</ele><time>2026-05-03T07:32:41.754Z</time></trkpt><trkpt lat="39.2756428" lon="16.6721876"><ele>1188.0</ele><time>2026-05-03T07:32:42.767Z</time></trkpt><trkpt lat="39.2757611" lon="16.6720286"><ele>1187.6666666666667</ele><time>2026-05-03T07:32:43.762Z</time></trkpt><trkpt lat="39.2758849" lon="16.6718791"><ele>1187.3333333333335</ele><time>2026-05-03T07:32:44.763Z</time></trkpt><trkpt lat="39.2760058" lon="16.6717454"><ele>1187.0</ele><time>2026-05-03T07:32:45.756Z</time></trkpt><trkpt lat="39.2761258" lon="16.6716378"><ele>1187.0</ele><time>2026-05-03T07:32:46.761Z</time></trkpt><trkpt lat="39.2762482" lon="16.6715282"><ele>1187.0</ele><time>2026-05-03T07:32:47.755Z</time></trkpt><trkpt lat="39.2763753" lon="16.67143"><ele>1187.0</ele><time>2026-05-03T07:32:48.759Z</time></trkpt><trkpt lat="39.2764991" lon="16.6713305"><ele>1187.0</ele><time>2026-05-03T07:32:49.766Z</time></trkpt><trkpt lat="39.276625" lon="16.6712284"><ele>1187.6666666666667</ele><time>2026-05-03T07:32:50.76Z</time></trkpt><trkpt lat="39.2767548" lon="16.6711226"><ele>1188.3333333333333</ele><time>2026-05-03T07:32:51.767Z</time></trkpt><trkpt lat="39.2768868" lon="16.6710146"><ele>1189.0</ele><time>2026-05-03T07:32:52.756Z</time></trkpt><trkpt lat="39.2770207" lon="16.6709064"><ele>1189.25</ele><time>2026-05-03T07:32:53.761Z</time></trkpt><trkpt lat="39.2771424" lon="16.6708075"><ele>1189.5</ele><time>2026-05-03T07:32:54.76Z</time></trkpt><trkpt lat="39.2772675" lon="16.670719"><ele>1189.75</ele><time>2026-05-03T07:32:55.758Z</time></trkpt><trkpt lat="39.2773894" lon="16.6706426"><ele>1190.0</ele><time>2026-05-03T07:32:56.763Z</time></trkpt><trkpt lat="39.2775036" lon="16.6705822"><ele>1190.0</ele><time>2026-05-03T07:32:57.763Z</time></trkpt><trkpt lat="39.2776079" lon="16.6705367"><ele>1190.0</ele><time>2026-05-03T07:32:58.768Z</time></trkpt><trkpt lat="39.2776995" lon="16.6704964"><ele>1190.0</ele><time>2026-05-03T07:32:59.762Z</time></trkpt><trkpt lat="39.2777809" lon="16.6704681"><ele>1190.0</ele><time>2026-05-03T07:33:00.757Z</time></trkpt><trkpt lat="39.2778531" lon="16.6704496"><ele>1190.0</ele><time>2026-05-03T07:33:01.766Z</time></trkpt><trkpt lat="39.277924" lon="16.6704289"><ele>1190.0</ele><time>2026-05-03T07:33:02.763Z</time></trkpt><trkpt lat="39.2779892" lon="16.6703674"><ele>1189.4</ele><time>2026-05-03T07:33:03.773Z</time></trkpt><trkpt lat="39.2780365" lon="16.6702666"><ele>1188.8</ele><time>2026-05-03T07:33:04.76Z</time></trkpt><trkpt lat="39.2780787" lon="16.6701491"><ele>1188.2</ele><time>2026-05-03T07:33:05.76Z</time></trkpt><trkpt lat="39.2780877" lon="16.6699933"><ele>1187.6</ele><time>2026-05-03T07:33:06.763Z</time></trkpt><trkpt lat="39.2781004" lon="16.6698188"><ele>1187.0</ele><time>2026-05-03T07:33:07.767Z</time></trkpt><trkpt lat="39.2781229" lon="16.6696213"><ele>1187.3333333333335</ele><time>2026-05-03T07:33:08.773Z</time></trkpt><trkpt lat="39.2781459" lon="16.6694025"><ele>1187.6666666666667</ele><time>2026-05-03T07:33:09.767Z</time></trkpt><trkpt lat="39.2781738" lon="16.6691688"><ele>1188.0</ele><time>2026-05-03T07:33:10.766Z</time></trkpt><trkpt lat="39.2782049" lon="16.6689216"><ele>1188.0</ele><time>2026-05-03T07:33:11.764Z</time></trkpt><trkpt lat="39.2782463" lon="16.6686681"><ele>1188.0</ele><time>2026-05-03T07:33:12.77Z</time></trkpt><trkpt lat="39.2782818" lon="16.6684065"><ele>1188.0</ele><time>2026-05-03T07:33:13.764Z</time></trkpt><trkpt lat="39.2783186" lon="16.668138"><ele>1187.3333333333333</ele><time>2026-05-03T07:33:14.762Z</time></trkpt><trkpt lat="39.2783569" lon="16.667862"><ele>1186.6666666666665</ele><time>2026-05-03T07:33:15.761Z</time></trkpt><trkpt lat="39.2783959" lon="16.6675974"><ele>1186.0</ele><time>2026-05-03T07:33:16.764Z</time></trkpt><trkpt lat="39.2784269" lon="16.6673564"><ele>1186.0</ele><time>2026-05-03T07:33:17.773Z</time></trkpt><trkpt lat="39.2784578" lon="16.6671327"><ele>1186.0</ele><time>2026-05-03T07:33:18.759Z</time></trkpt><trkpt lat="39.2784855" lon="16.6669172"><ele>1186.0</ele><time>2026-05-03T07:33:19.762Z</time></trkpt><trkpt lat="39.2784949" lon="16.6667"><ele>1186.0</ele><time>2026-05-03T07:33:20.761Z</time></trkpt><trkpt lat="39.2784758" lon="16.6664913"><ele>1186.0</ele><time>2026-05-03T07:33:21.758Z</time></trkpt><trkpt lat="39.2784291" lon="16.666314"><ele>1186.0</ele><time>2026-05-03T07:33:22.754Z</time></trkpt><trkpt lat="39.278357" lon="16.6661525"><ele>1187.6666666666665</ele><time>2026-05-03T07:33:23.76Z</time></trkpt><trkpt lat="39.2782551" lon="16.6660034"><ele>1189.3333333333333</ele><time>2026-05-03T07:33:24.776Z</time></trkpt><trkpt lat="39.2781248" lon="16.6658734"><ele>1191.0</ele><time>2026-05-03T07:33:25.823Z</time></trkpt><trkpt lat="39.2779719" lon="16.6657601"><ele>1191.3333333333333</ele><time>2026-05-03T07:33:26.775Z</time></trkpt><trkpt lat="39.2778048" lon="16.6656528"><ele>1191.6666666666665</ele><time>2026-05-03T07:33:27.757Z</time></trkpt><trkpt lat="39.2776265" lon="16.6655484"><ele>1192.0</ele><time>2026-05-03T07:33:28.765Z</time></trkpt><trkpt lat="39.2774473" lon="16.6654455"><ele>1192.0</ele><time>2026-05-03T07:33:29.76Z</time></trkpt><trkpt lat="39.2772781" lon="16.6653516"><ele>1192.0</ele><time>2026-05-03T07:33:30.774Z</time></trkpt><trkpt lat="39.2771187" lon="16.6652558"><ele>1192.0</ele><time>2026-05-03T07:33:31.755Z</time></trkpt><trkpt lat="39.2769705" lon="16.6651486"><ele>1193.0</ele><time>2026-05-03T07:33:32.768Z</time></trkpt><trkpt lat="39.2768208" lon="16.6650352"><ele>1194.0</ele><time>2026-05-03T07:33:33.76Z</time></trkpt><trkpt lat="39.2766916" lon="16.6648829"><ele>1195.0</ele><time>2026-05-03T07:33:34.757Z</time></trkpt><trkpt lat="39.2766135" lon="16.6646939"><ele>1195.0</ele><time>2026-05-03T07:33:35.773Z</time></trkpt><trkpt lat="39.2765685" lon="16.6644957"><ele>1195.0</ele><time>2026-05-03T07:33:36.758Z</time></trkpt><trkpt lat="39.2765314" lon="16.6642855"><ele>1195.0</ele><time>2026-05-03T07:33:37.78Z</time></trkpt><trkpt lat="39.2765456" lon="16.6640706"><ele>1195.6666666666665</ele><time>2026-05-03T07:33:38.76Z</time></trkpt><trkpt lat="39.2765922" lon="16.6638365"><ele>1196.3333333333333</ele><time>2026-05-03T07:33:39.763Z</time></trkpt><trkpt lat="39.2766596" lon="16.6636138"><ele>1197.0</ele><time>2026-05-03T07:33:40.761Z</time></trkpt><trkpt lat="39.276741" lon="16.6633932"><ele>1197.0</ele><time>2026-05-03T07:33:41.76Z</time></trkpt><trkpt lat="39.2768123" lon="16.6632121"><ele>1197.0</ele><time>2026-05-03T07:33:42.771Z</time></trkpt><trkpt lat="39.2768954" lon="16.6630503"><ele>1197.0</ele><time>2026-05-03T07:33:43.758Z</time></trkpt><trkpt lat="39.2770286" lon="16.662931"><ele>1197.0</ele><time>2026-05-03T07:33:44.761Z</time></trkpt><trkpt lat="39.277185" lon="16.6628231"><ele>1197.0</ele><time>2026-05-03T07:33:45.758Z</time></trkpt><trkpt lat="39.2773452" lon="16.6627126"><ele>1197.0</ele><time>2026-05-03T07:33:46.764Z</time></trkpt><trkpt lat="39.2775133" lon="16.6626013"><ele>1199.3333333333333</ele><time>2026-05-03T07:33:47.763Z</time></trkpt><trkpt lat="39.2776848" lon="16.6624922"><ele>1201.6666666666665</ele><time>2026-05-03T07:33:48.802Z</time></trkpt><trkpt lat="39.2778654" lon="16.6623747"><ele>1204.0</ele><time>2026-05-03T07:33:49.758Z</time></trkpt><trkpt lat="39.2780473" lon="16.6622506"><ele>1204.6666666666665</ele><time>2026-05-03T07:33:50.771Z</time></trkpt><trkpt lat="39.2782306" lon="16.6621272"><ele>1205.3333333333333</ele><time>2026-05-03T07:33:51.771Z</time></trkpt><trkpt lat="39.278416" lon="16.6619998"><ele>1206.0</ele><time>2026-05-03T07:33:52.764Z</time></trkpt><trkpt lat="39.2785867" lon="16.6618829"><ele>1206.0</ele><time>2026-05-03T07:33:53.769Z</time></trkpt><trkpt lat="39.278737" lon="16.6617846"><ele>1206.0</ele><time>2026-05-03T07:33:54.764Z</time></trkpt><trkpt lat="39.2788757" lon="16.6617"><ele>1206.0</ele><time>2026-05-03T07:33:55.765Z</time></trkpt><trkpt lat="39.2790107" lon="16.6616161"><ele>1208.25</ele><time>2026-05-03T07:33:56.77Z</time></trkpt><trkpt lat="39.2791423" lon="16.6615361"><ele>1210.5</ele><time>2026-05-03T07:33:57.768Z</time></trkpt><trkpt lat="39.2792536" lon="16.6614512"><ele>1212.75</ele><time>2026-05-03T07:33:58.775Z</time></trkpt><trkpt lat="39.2793591" lon="16.6613727"><ele>1215.0</ele><time>2026-05-03T07:33:59.768Z</time></trkpt><trkpt lat="39.2794357" lon="16.66124"><ele>1213.5</ele><time>2026-05-03T07:34:00.759Z</time></trkpt><trkpt lat="39.279495" lon="16.6610802"><ele>1212.0</ele><time>2026-05-03T07:34:01.772Z</time></trkpt><trkpt lat="39.2795462" lon="16.6609233"><ele>1210.5</ele><time>2026-05-03T07:34:02.762Z</time></trkpt><trkpt lat="39.2795851" lon="16.6607797"><ele>1209.0</ele><time>2026-05-03T07:34:03.787Z</time></trkpt><trkpt lat="39.2796138" lon="16.6606294"><ele>1209.0</ele><time>2026-05-03T07:34:04.772Z</time></trkpt><trkpt lat="39.2796225" lon="16.6604694"><ele>1209.0</ele><time>2026-05-03T07:34:05.762Z</time></trkpt><trkpt lat="39.2796157" lon="16.6602792"><ele>1209.0</ele><time>2026-05-03T07:34:06.772Z</time></trkpt><trkpt lat="39.2796168" lon="16.6600837"><ele>1209.0</ele><time>2026-05-03T07:34:07.761Z</time></trkpt><trkpt lat="39.279613" lon="16.6599283"><ele>1209.2857142857142</ele><time>2026-05-03T07:34:08.762Z</time></trkpt><trkpt lat="39.2795991" lon="16.6598058"><ele>1209.5714285714287</ele><time>2026-05-03T07:34:09.767Z</time></trkpt><trkpt lat="39.2795754" lon="16.6597196"><ele>1209.857142857143</ele><time>2026-05-03T07:34:10.755Z</time></trkpt><trkpt lat="39.2795496" lon="16.6596452"><ele>1210.142857142857</ele><time>2026-05-03T07:34:11.764Z</time></trkpt><trkpt lat="39.2795294" lon="16.6595681"><ele>1210.4285714285716</ele><time>2026-05-03T07:34:12.755Z</time></trkpt><trkpt lat="39.27951" lon="16.6594775"><ele>1210.7142857142858</ele><time>2026-05-03T07:34:13.77Z</time></trkpt><trkpt lat="39.2794939" lon="16.659377"><ele>1211.0</ele><time>2026-05-03T07:34:14.763Z</time></trkpt><trkpt lat="39.2794803" lon="16.6592901"><ele>1211.0</ele><time>2026-05-03T07:34:15.766Z</time></trkpt><trkpt lat="39.2794463" lon="16.6591658"><ele>1211.0</ele><time>2026-05-03T07:34:17.757Z</time></trkpt><trkpt lat="39.2793803" lon="16.6590521"><ele>1211.0</ele><time>2026-05-03T07:34:19.76Z</time></trkpt><trkpt lat="39.279356" lon="16.6589046"><ele>1211.0</ele><time>2026-05-03T07:34:21.758Z</time></trkpt><trkpt lat="39.2792966" lon="16.6587756"><ele>1211.0</ele><time>2026-05-03T07:34:23.758Z</time></trkpt><trkpt lat="39.2792509" lon="16.6586725"><ele>1210.8333333333335</ele><time>2026-05-03T07:34:25.762Z</time></trkpt><trkpt lat="39.2792342" lon="16.6585596"><ele>1210.6666666666667</ele><time>2026-05-03T07:34:27.764Z</time></trkpt><trkpt lat="39.2792601" lon="16.6584331"><ele>1210.5</ele><time>2026-05-03T07:34:29.763Z</time></trkpt><trkpt lat="39.2792762" lon="16.6583523"><ele>1210.3333333333333</ele><time>2026-05-03T07:34:30.766Z</time></trkpt><trkpt lat="39.2793096" lon="16.6582792"><ele>1210.1666666666665</ele><time>2026-05-03T07:34:31.765Z</time></trkpt><trkpt lat="39.2793706" lon="16.6581609"><ele>1210.0</ele><time>2026-05-03T07:34:33.756Z</time></trkpt><trkpt lat="39.2794394" lon="16.6580442"><ele>1210.0</ele><time>2026-05-03T07:34:35.756Z</time></trkpt><trkpt lat="39.2795062" lon="16.657951"><ele>1210.0</ele><time>2026-05-03T07:34:37.758Z</time></trkpt><trkpt lat="39.2795496" lon="16.657861"><ele>1210.0</ele><time>2026-05-03T07:34:40.767Z</time></trkpt><trkpt lat="39.2795782" lon="16.6577707"><ele>1210.0</ele><time>2026-05-03T07:34:42.762Z</time></trkpt><trkpt lat="39.2796039" lon="16.6576644"><ele>1210.0</ele><time>2026-05-03T07:34:44.754Z</time></trkpt><trkpt lat="39.2796416" lon="16.6574487"><ele>1210.4</ele><time>2026-05-03T07:34:52.77Z</time></trkpt><trkpt lat="39.2797006" lon="16.6574039"><ele>1210.8</ele><time>2026-05-03T07:34:54.769Z</time></trkpt><trkpt lat="39.2797967" lon="16.6573549"><ele>1211.2</ele><time>2026-05-03T07:34:56.762Z</time></trkpt><trkpt lat="39.2798983" lon="16.6573114"><ele>1211.6</ele><time>2026-05-03T07:35:02.765Z</time></trkpt><trkpt lat="39.2798536" lon="16.6574256"><ele>1212.0</ele><time>2026-05-03T07:35:41.761Z</time></trkpt><trkpt lat="39.2798041" lon="16.6574974"><ele>1212.0</ele><time>2026-05-03T07:35:42.759Z</time></trkpt><trkpt lat="39.2797226" lon="16.6575368"><ele>1212.0</ele><time>2026-05-03T07:35:46.763Z</time></trkpt><trkpt lat="39.279646" lon="16.6575421"><ele>1212.0</ele><time>2026-05-03T07:35:48.773Z</time></trkpt><trkpt lat="39.2795042" lon="16.6575292"><ele>1212.0</ele><time>2026-05-03T07:35:50.76Z</time></trkpt><trkpt lat="39.2794306" lon="16.6575189"><ele>1212.0</ele><time>2026-05-03T07:35:51.767Z</time></trkpt><trkpt lat="39.2793441" lon="16.6575097"><ele>1212.0</ele><time>2026-05-03T07:35:53.764Z</time></trkpt><trkpt lat="39.2792566" lon="16.6574955"><ele>1212.0</ele><time>2026-05-03T07:35:55.765Z</time></trkpt><trkpt lat="39.2791454" lon="16.6574427"><ele>1212.0</ele><time>2026-05-03T07:35:57.762Z</time></trkpt><trkpt lat="39.279058" lon="16.6573777"><ele>1212.0</ele><time>2026-05-03T07:35:59.758Z</time></trkpt><trkpt lat="39.278949" lon="16.6573374"><ele>1212.0</ele><time>2026-05-03T07:36:01.76Z</time></trkpt><trkpt lat="39.2788258" lon="16.6573227"><ele>1211.4285714285716</ele><time>2026-05-03T07:36:03.761Z</time></trkpt><trkpt lat="39.278764" lon="16.6572992"><ele>1210.857142857143</ele><time>2026-05-03T07:36:04.764Z</time></trkpt><trkpt lat="39.2787017" lon="16.6572667"><ele>1210.2857142857142</ele><time>2026-05-03T07:36:05.761Z</time></trkpt><trkpt lat="39.2786371" lon="16.657232"><ele>1209.7142857142858</ele><time>2026-05-03T07:36:06.758Z</time></trkpt><trkpt lat="39.2785695" lon="16.6572031"><ele>1209.142857142857</ele><time>2026-05-03T07:36:07.761Z</time></trkpt><trkpt lat="39.2784883" lon="16.6571771"><ele>1208.5714285714287</ele><time>2026-05-03T07:36:08.768Z</time></trkpt><trkpt lat="39.278404" lon="16.6571446"><ele>1208.0</ele><time>2026-05-03T07:36:09.759Z</time></trkpt><trkpt lat="39.2783197" lon="16.6571221"><ele>1208.0</ele><time>2026-05-03T07:36:10.765Z</time></trkpt><trkpt lat="39.2782435" lon="16.6570975"><ele>1208.0</ele><time>2026-05-03T07:36:11.763Z</time></trkpt><trkpt lat="39.2781728" lon="16.6570741"><ele>1208.0</ele><time>2026-05-03T07:36:12.759Z</time></trkpt><trkpt lat="39.2780604" lon="16.6570384"><ele>1208.0</ele><time>2026-05-03T07:36:14.766Z</time></trkpt><trkpt lat="39.2779878" lon="16.6570215"><ele>1208.0</ele><time>2026-05-03T07:36:16.761Z</time></trkpt><trkpt lat="39.2779177" lon="16.6570256"><ele>1208.0</ele><time>2026-05-03T07:36:19.76Z</time></trkpt><trkpt lat="39.2778549" lon="16.65716"><ele>1209.3333333333335</ele><time>2026-05-03T07:36:22.768Z</time></trkpt><trkpt lat="39.277843" lon="16.6572538"><ele>1210.6666666666667</ele><time>2026-05-03T07:36:23.758Z</time></trkpt><trkpt lat="39.2778204" lon="16.6573321"><ele>1212.0</ele><time>2026-05-03T07:36:24.778Z</time></trkpt><trkpt lat="39.2777702" lon="16.6574374"><ele>1213.3333333333333</ele><time>2026-05-03T07:36:26.762Z</time></trkpt><trkpt lat="39.2777162" lon="16.6575141"><ele>1214.6666666666665</ele><time>2026-05-03T07:36:28.759Z</time></trkpt><trkpt lat="39.2776268" lon="16.6576138"><ele>1216.0</ele><time>2026-05-03T07:36:31.761Z</time></trkpt><trkpt lat="39.2775442" lon="16.6575735"><ele>1216.0</ele><time>2026-05-03T07:36:33.764Z</time></trkpt><trkpt lat="39.2775085" lon="16.657463"><ele>1216.0</ele><time>2026-05-03T07:36:35.77Z</time></trkpt><trkpt lat="39.2774437" lon="16.6573281"><ele>1216.0</ele><time>2026-05-03T07:36:37.76Z</time></trkpt><trkpt lat="39.2774026" lon="16.6572648"><ele>1216.0</ele><time>2026-05-03T07:36:38.769Z</time></trkpt><trkpt lat="39.2773546" lon="16.6572101"><ele>1216.0</ele><time>2026-05-03T07:36:39.758Z</time></trkpt><trkpt lat="39.2773039" lon="16.6571583"><ele>1216.0</ele><time>2026-05-03T07:36:40.777Z</time></trkpt><trkpt lat="39.2772498" lon="16.6571093"><ele>1216.3333333333333</ele><time>2026-05-03T07:36:41.765Z</time></trkpt><trkpt lat="39.2771902" lon="16.6570483"><ele>1216.6666666666665</ele><time>2026-05-03T07:36:42.757Z</time></trkpt><trkpt lat="39.2771514" lon="16.6569795"><ele>1217.0</ele><time>2026-05-03T07:36:43.766Z</time></trkpt><trkpt lat="39.2771335" lon="16.6568412"><ele>1217.3333333333333</ele><time>2026-05-03T07:36:45.774Z</time></trkpt><trkpt lat="39.277169" lon="16.6567672"><ele>1217.6666666666667</ele><time>2026-05-03T07:36:46.767Z</time></trkpt><trkpt lat="39.2772205" lon="16.6567028"><ele>1218.0</ele><time>2026-05-03T07:36:47.771Z</time></trkpt><trkpt lat="39.2772957" lon="16.656599"><ele>1219.2857142857142</ele><time>2026-05-03T07:36:49.761Z</time></trkpt><trkpt lat="39.2773259" lon="16.6565174"><ele>1220.5714285714284</ele><time>2026-05-03T07:36:52.765Z</time></trkpt><trkpt lat="39.2773474" lon="16.6564338"><ele>1221.857142857143</ele><time>2026-05-03T07:37:48.769Z</time></trkpt><trkpt lat="39.2774098" lon="16.6564898"><ele>1223.142857142857</ele><time>2026-05-03T07:37:52.777Z</time></trkpt><trkpt lat="39.2774856" lon="16.6565004"><ele>1224.4285714285713</ele><time>2026-05-03T07:37:57.768Z</time></trkpt><trkpt lat="39.2775469" lon="16.6565334"><ele>1225.7142857142858</ele><time>2026-05-03T07:38:31.771Z</time></trkpt><trkpt lat="39.2774754" lon="16.656498"><ele>1227.0</ele><time>2026-05-03T07:38:45.781Z</time></trkpt><trkpt lat="39.2774127" lon="16.6564532"><ele>1227.0</ele><time>2026-05-03T07:38:47.773Z</time></trkpt><trkpt lat="39.2773512" lon="16.6564315"><ele>1227.0</ele><time>2026-05-03T07:38:51.769Z</time></trkpt><trkpt lat="39.2773186" lon="16.6565171"><ele>1227.0</ele><time>2026-05-03T07:38:54.776Z</time></trkpt><trkpt lat="39.2772856" lon="16.6565948"><ele>1227.0</ele><time>2026-05-03T07:38:56.768Z</time></trkpt><trkpt lat="39.2772275" lon="16.6566712"><ele>1227.0</ele><time>2026-05-03T07:39:01.774Z</time></trkpt><trkpt lat="39.2771803" lon="16.65674"><ele>1227.0</ele><time>2026-05-03T07:39:05.766Z</time></trkpt><trkpt lat="39.2771245" lon="16.6568083"><ele>1227.0</ele><time>2026-05-03T07:39:08.766Z</time></trkpt><trkpt lat="39.2770823" lon="16.6568766"><ele>1227.0</ele><time>2026-05-03T07:39:10.769Z</time></trkpt><trkpt lat="39.2771951" lon="16.6567554"><ele>1227.0</ele><time>2026-05-03T07:39:21.762Z</time></trkpt><trkpt lat="39.2772588" lon="16.6566706"><ele>1227.0</ele><time>2026-05-03T07:39:22.771Z</time></trkpt><trkpt lat="39.2773265" lon="16.656566"><ele>1227.0</ele><time>2026-05-03T07:39:24.762Z</time></trkpt><trkpt lat="39.2773484" lon="16.656466"><ele>1227.0</ele><time>2026-05-03T07:39:28.775Z</time></trkpt><trkpt lat="39.2773296" lon="16.6563828"><ele>1227.0</ele><time>2026-05-03T07:39:36.763Z</time></trkpt><trkpt lat="39.2773077" lon="16.6562929"><ele>1227.0</ele><time>2026-05-03T07:40:04.76Z</time></trkpt><trkpt lat="39.277261" lon="16.656207"><ele>1227.0</ele><time>2026-05-03T07:40:08.767Z</time></trkpt><trkpt lat="39.2771856" lon="16.6561823"><ele>1227.0</ele><time>2026-05-03T07:40:11.756Z</time></trkpt><trkpt lat="39.2771191" lon="16.6561426"><ele>1227.0</ele><time>2026-05-03T07:40:15.766Z</time></trkpt><trkpt lat="39.2770246" lon="16.6561136"><ele>1227.0</ele><time>2026-05-03T07:40:20.775Z</time></trkpt><trkpt lat="39.2769542" lon="16.6561046"><ele>1232.0</ele><time>2026-05-03T07:40:34.778Z</time></trkpt><trkpt lat="39.2768839" lon="16.656057"><ele>1237.0</ele><time>2026-05-03T07:41:08.761Z</time></trkpt><trkpt lat="39.2768596" lon="16.6559749"><ele>1242.0</ele><time>2026-05-03T07:41:46.766Z</time></trkpt><trkpt lat="39.2768274" lon="16.6558941"><ele>1247.0</ele><time>2026-05-03T07:43:24.779Z</time></trkpt><trkpt lat="39.2767852" lon="16.6558032"><ele>1252.0</ele><time>2026-05-03T07:43:28.768Z</time></trkpt><trkpt lat="39.2766992" lon="16.6557363"><ele>1257.0</ele><time>2026-05-03T07:44:22.777Z</time></trkpt><trkpt lat="39.2766127" lon="16.6556867"><ele>1257.0</ele><time>2026-05-03T07:47:12.762Z</time></trkpt><trkpt lat="39.2766115" lon="16.6555895"><ele>1257.0</ele><time>2026-05-03T07:47:15.771Z</time></trkpt><trkpt lat="39.2766346" lon="16.6554881"><ele>1257.0</ele><time>2026-05-03T07:47:19.774Z</time></trkpt><trkpt lat="39.2766658" lon="16.6553952"><ele>1257.0</ele><time>2026-05-03T07:47:22.772Z</time></trkpt><trkpt lat="39.2766588" lon="16.6553094"><ele>1257.0</ele><time>2026-05-03T07:47:25.765Z</time></trkpt><trkpt lat="39.2766738" lon="16.6552173"><ele>1257.0</ele><time>2026-05-03T07:47:28.768Z</time></trkpt><trkpt lat="39.2766706" lon="16.6551158"><ele>1259.0</ele><time>2026-05-03T07:47:33.769Z</time></trkpt><trkpt lat="39.2766918" lon="16.655025"><ele>1261.0</ele><time>2026-05-03T07:47:37.773Z</time></trkpt><trkpt lat="39.2767273" lon="16.6549569"><ele>1263.0</ele><time>2026-05-03T07:47:40.771Z</time></trkpt><trkpt lat="39.2767149" lon="16.6548116"><ele>1265.0</ele><time>2026-05-03T07:47:43.763Z</time></trkpt><trkpt lat="39.2766977" lon="16.6547297"><ele>1267.0</ele><time>2026-05-03T07:47:44.771Z</time></trkpt><trkpt lat="39.2766748" lon="16.6545761"><ele>1269.0</ele><time>2026-05-03T07:47:46.772Z</time></trkpt><trkpt lat="39.2766573" lon="16.6544641"><ele>1268.5</ele><time>2026-05-03T07:47:48.77Z</time></trkpt><trkpt lat="39.2766684" lon="16.654354"><ele>1268.0</ele><time>2026-05-03T07:47:50.764Z</time></trkpt><trkpt lat="39.2766901" lon="16.6542343"><ele>1267.5</ele><time>2026-05-03T07:47:52.772Z</time></trkpt><trkpt lat="39.2767089" lon="16.6541351"><ele>1267.0</ele><time>2026-05-03T07:47:54.768Z</time></trkpt><trkpt lat="39.2767228" lon="16.6540399"><ele>1266.5</ele><time>2026-05-03T07:47:56.769Z</time></trkpt><trkpt lat="39.2768014" lon="16.6539764"><ele>1266.0</ele><time>2026-05-03T07:47:59.769Z</time></trkpt><trkpt lat="39.2768605" lon="16.6539209"><ele>1266.0</ele><time>2026-05-03T07:48:03.776Z</time></trkpt><trkpt lat="39.2768832" lon="16.6538379"><ele>1266.0</ele><time>2026-05-03T07:48:07.773Z</time></trkpt><trkpt lat="39.2769062" lon="16.6537579"><ele>1266.0</ele><time>2026-05-03T07:48:16.772Z</time></trkpt><trkpt lat="39.2770144" lon="16.6537639"><ele>1266.0</ele><time>2026-05-03T07:48:20.774Z</time></trkpt><trkpt lat="39.2770886" lon="16.6537361"><ele>1266.0</ele><time>2026-05-03T07:48:22.767Z</time></trkpt><trkpt lat="39.2771653" lon="16.6537492"><ele>1266.0</ele><time>2026-05-03T07:48:25.769Z</time></trkpt><trkpt lat="39.2772355" lon="16.6537704"><ele>1265.1666666666667</ele><time>2026-05-03T07:48:27.773Z</time></trkpt><trkpt lat="39.2772983" lon="16.6537969"><ele>1264.3333333333333</ele><time>2026-05-03T07:48:30.765Z</time></trkpt><trkpt lat="39.2773687" lon="16.653784"><ele>1263.5</ele><time>2026-05-03T07:48:34.777Z</time></trkpt><trkpt lat="39.2773999" lon="16.653691"><ele>1262.6666666666665</ele><time>2026-05-03T07:48:37.766Z</time></trkpt><trkpt lat="39.2774077" lon="16.6535713"><ele>1261.8333333333333</ele><time>2026-05-03T07:48:39.77Z</time></trkpt><trkpt lat="39.2774093" lon="16.6534229"><ele>1261.0</ele><time>2026-05-03T07:48:42.765Z</time></trkpt><trkpt lat="39.2774079" lon="16.6533296"><ele>1259.5</ele><time>2026-05-03T07:48:44.781Z</time></trkpt><trkpt lat="39.2774288" lon="16.6532225"><ele>1258.0</ele><time>2026-05-03T07:48:46.777Z</time></trkpt><trkpt lat="39.2774682" lon="16.6531266"><ele>1256.5</ele><time>2026-05-03T07:48:48.776Z</time></trkpt><trkpt lat="39.2775181" lon="16.6530597"><ele>1255.0</ele><time>2026-05-03T07:48:50.768Z</time></trkpt><trkpt lat="39.2775733" lon="16.6530054"><ele>1253.5</ele><time>2026-05-03T07:48:52.775Z</time></trkpt><trkpt lat="39.2776036" lon="16.6529143"><ele>1252.0</ele><time>2026-05-03T07:48:55.767Z</time></trkpt><trkpt lat="39.2776317" lon="16.6528172"><ele>1248.5</ele><time>2026-05-03T07:49:02.768Z</time></trkpt><trkpt lat="39.2777181" lon="16.6527352"><ele>1245.0</ele><time>2026-05-03T07:49:04.767Z</time></trkpt><trkpt lat="39.2778086" lon="16.6526071"><ele>1241.5</ele><time>2026-05-03T07:49:06.759Z</time></trkpt><trkpt lat="39.2778476" lon="16.65248"><ele>1238.0</ele><time>2026-05-03T07:49:07.781Z</time></trkpt><trkpt lat="39.2779006" lon="16.6523643"><ele>1238.0</ele><time>2026-05-03T07:49:08.767Z</time></trkpt><trkpt lat="39.2779814" lon="16.6522798"><ele>1238.0</ele><time>2026-05-03T07:49:09.766Z</time></trkpt><trkpt lat="39.2780737" lon="16.6522403"><ele>1238.0</ele><time>2026-05-03T07:49:10.763Z</time></trkpt><trkpt lat="39.2781708" lon="16.6522391"><ele>1238.0</ele><time>2026-05-03T07:49:11.76Z</time></trkpt><trkpt lat="39.2782716" lon="16.6522719"><ele>1238.0</ele><time>2026-05-03T07:49:12.768Z</time></trkpt><trkpt lat="39.2783689" lon="16.6523207"><ele>1238.6</ele><time>2026-05-03T07:49:13.77Z</time></trkpt><trkpt lat="39.2784579" lon="16.6523694"><ele>1239.1999999999998</ele><time>2026-05-03T07:49:14.768Z</time></trkpt><trkpt lat="39.2785409" lon="16.6524178"><ele>1239.8</ele><time>2026-05-03T07:49:15.766Z</time></trkpt><trkpt lat="39.2786211" lon="16.652468"><ele>1240.3999999999999</ele><time>2026-05-03T07:49:16.769Z</time></trkpt><trkpt lat="39.2787016" lon="16.6525152"><ele>1241.0</ele><time>2026-05-03T07:49:17.768Z</time></trkpt><trkpt lat="39.2787802" lon="16.6525554"><ele>1241.0</ele><time>2026-05-03T07:49:18.766Z</time></trkpt><trkpt lat="39.2788723" lon="16.6525547"><ele>1241.0</ele><time>2026-05-03T07:49:19.763Z</time></trkpt><trkpt lat="39.2789686" lon="16.6525194"><ele>1241.0</ele><time>2026-05-03T07:49:20.769Z</time></trkpt><trkpt lat="39.2790571" lon="16.6524717"><ele>1241.0</ele><time>2026-05-03T07:49:21.766Z</time></trkpt><trkpt lat="39.2791445" lon="16.6524348"><ele>1241.0</ele><time>2026-05-03T07:49:22.781Z</time></trkpt><trkpt lat="39.2792354" lon="16.6524102"><ele>1241.3999999999999</ele><time>2026-05-03T07:49:23.762Z</time></trkpt><trkpt lat="39.2793336" lon="16.6524061"><ele>1241.8</ele><time>2026-05-03T07:49:24.767Z</time></trkpt><trkpt lat="39.279431" lon="16.6524323"><ele>1242.1999999999998</ele><time>2026-05-03T07:49:25.762Z</time></trkpt><trkpt lat="39.279524" lon="16.6524841"><ele>1242.6</ele><time>2026-05-03T07:49:26.768Z</time></trkpt><trkpt lat="39.2796184" lon="16.6525565"><ele>1243.0</ele><time>2026-05-03T07:49:27.76Z</time></trkpt><trkpt lat="39.2797257" lon="16.6526507"><ele>1243.5</ele><time>2026-05-03T07:49:28.767Z</time></trkpt><trkpt lat="39.2798381" lon="16.6527494"><ele>1244.0</ele><time>2026-05-03T07:49:29.765Z</time></trkpt><trkpt lat="39.2799445" lon="16.6528497"><ele>1244.5</ele><time>2026-05-03T07:49:30.765Z</time></trkpt><trkpt lat="39.2800472" lon="16.6529453"><ele>1245.0</ele><time>2026-05-03T07:49:31.767Z</time></trkpt><trkpt lat="39.2801496" lon="16.6530377"><ele>1246.75</ele><time>2026-05-03T07:49:32.766Z</time></trkpt><trkpt lat="39.2802484" lon="16.6531458"><ele>1248.5</ele><time>2026-05-03T07:49:33.765Z</time></trkpt><trkpt lat="39.2803337" lon="16.6532822"><ele>1250.25</ele><time>2026-05-03T07:49:34.764Z</time></trkpt><trkpt lat="39.2803968" lon="16.6534151"><ele>1252.0</ele><time>2026-05-03T07:49:35.763Z</time></trkpt><trkpt lat="39.2804365" lon="16.6535355"><ele>1252.2</ele><time>2026-05-03T07:49:36.764Z</time></trkpt><trkpt lat="39.280482" lon="16.653642"><ele>1252.4</ele><time>2026-05-03T07:49:37.76Z</time></trkpt><trkpt lat="39.280554" lon="16.6537272"><ele>1252.6</ele><time>2026-05-03T07:49:38.764Z</time></trkpt><trkpt lat="39.2806508" lon="16.6537862"><ele>1252.8</ele><time>2026-05-03T07:49:39.76Z</time></trkpt><trkpt lat="39.2807566" lon="16.6538347"><ele>1253.0</ele><time>2026-05-03T07:49:40.77Z</time></trkpt><trkpt lat="39.2808679" lon="16.6538748"><ele>1252.3333333333335</ele><time>2026-05-03T07:49:41.764Z</time></trkpt><trkpt lat="39.280964" lon="16.653911"><ele>1251.6666666666667</ele><time>2026-05-03T07:49:42.763Z</time></trkpt><trkpt lat="39.2810483" lon="16.6539295"><ele>1251.0</ele><time>2026-05-03T07:49:43.767Z</time></trkpt><trkpt lat="39.2811253" lon="16.653937"><ele>1250.3333333333333</ele><time>2026-05-03T07:49:44.766Z</time></trkpt><trkpt lat="39.281177" lon="16.6538835"><ele>1249.6666666666665</ele><time>2026-05-03T07:49:45.766Z</time></trkpt><trkpt lat="39.2812157" lon="16.6537918"><ele>1249.0</ele><time>2026-05-03T07:49:46.768Z</time></trkpt><trkpt lat="39.2812423" lon="16.6536341"><ele>1248.25</ele><time>2026-05-03T07:49:47.78Z</time></trkpt><trkpt lat="39.2812673" lon="16.6534834"><ele>1247.5</ele><time>2026-05-03T07:49:48.765Z</time></trkpt><trkpt lat="39.2812989" lon="16.6533294"><ele>1246.75</ele><time>2026-05-03T07:49:49.766Z</time></trkpt><trkpt lat="39.2813347" lon="16.6531727"><ele>1246.0</ele><time>2026-05-03T07:49:50.764Z</time></trkpt><trkpt lat="39.2813711" lon="16.653008"><ele>1246.0</ele><time>2026-05-03T07:49:51.759Z</time></trkpt><trkpt lat="39.2814109" lon="16.6528363"><ele>1246.0</ele><time>2026-05-03T07:49:52.761Z</time></trkpt><trkpt lat="39.2814538" lon="16.6526704"><ele>1246.0</ele><time>2026-05-03T07:49:53.77Z</time></trkpt><trkpt lat="39.2814982" lon="16.6525203"><ele>1246.0</ele><time>2026-05-03T07:49:54.771Z</time></trkpt><trkpt lat="39.2815421" lon="16.6523799"><ele>1246.3999999999999</ele><time>2026-05-03T07:49:55.787Z</time></trkpt><trkpt lat="39.2815815" lon="16.6522453"><ele>1246.8</ele><time>2026-05-03T07:49:56.759Z</time></trkpt><trkpt lat="39.2816173" lon="16.6521149"><ele>1247.1999999999998</ele><time>2026-05-03T07:49:57.764Z</time></trkpt><trkpt lat="39.2816452" lon="16.6519941"><ele>1247.6</ele><time>2026-05-03T07:49:58.769Z</time></trkpt><trkpt lat="39.2816693" lon="16.6518822"><ele>1248.0</ele><time>2026-05-03T07:49:59.769Z</time></trkpt><trkpt lat="39.2816924" lon="16.6517832"><ele>1248.0</ele><time>2026-05-03T07:50:00.78Z</time></trkpt><trkpt lat="39.2817381" lon="16.6516698"><ele>1248.0</ele><time>2026-05-03T07:50:02.775Z</time></trkpt><trkpt lat="39.2818029" lon="16.6516475"><ele>1248.0</ele><time>2026-05-03T07:50:10.773Z</time></trkpt><trkpt lat="39.2818303" lon="16.6517699"><ele>1248.0</ele><time>2026-05-03T07:50:12.771Z</time></trkpt><trkpt lat="39.2818012" lon="16.6518966"><ele>1248.0</ele><time>2026-05-03T07:50:13.769Z</time></trkpt><trkpt lat="39.2817602" lon="16.6520505"><ele>1248.0</ele><time>2026-05-03T07:50:14.769Z</time></trkpt><trkpt lat="39.2817167" lon="16.6522315"><ele>1248.0</ele><time>2026-05-03T07:50:15.772Z</time></trkpt><trkpt lat="39.2816702" lon="16.6524347"><ele>1248.0</ele><time>2026-05-03T07:50:16.783Z</time></trkpt><trkpt lat="39.2816235" lon="16.6526495"><ele>1248.6666666666667</ele><time>2026-05-03T07:50:17.776Z</time></trkpt><trkpt lat="39.2815835" lon="16.6528647"><ele>1249.3333333333335</ele><time>2026-05-03T07:50:18.78Z</time></trkpt><trkpt lat="39.28155" lon="16.6530974"><ele>1250.0</ele><time>2026-05-03T07:50:19.775Z</time></trkpt><trkpt lat="39.2814966" lon="16.6533356"><ele>1250.0</ele><time>2026-05-03T07:50:20.764Z</time></trkpt><trkpt lat="39.2814413" lon="16.6535772"><ele>1250.0</ele><time>2026-05-03T07:50:21.768Z</time></trkpt><trkpt lat="39.2814034" lon="16.653772"><ele>1250.0</ele><time>2026-05-03T07:50:22.77Z</time></trkpt><trkpt lat="39.2813795" lon="16.6539006"><ele>1250.0</ele><time>2026-05-03T07:50:23.763Z</time></trkpt><trkpt lat="39.2814314" lon="16.6539731"><ele>1250.0</ele><time>2026-05-03T07:50:25.766Z</time></trkpt><trkpt lat="39.2814839" lon="16.653884"><ele>1250.0</ele><time>2026-05-03T07:50:27.766Z</time></trkpt><trkpt lat="39.2815056" lon="16.6537556"><ele>1250.0</ele><time>2026-05-03T07:50:28.767Z</time></trkpt><trkpt lat="39.2815397" lon="16.6535834"><ele>1250.0</ele><time>2026-05-03T07:50:29.763Z</time></trkpt><trkpt lat="39.2815788" lon="16.6534067"><ele>1250.0</ele><time>2026-05-03T07:50:30.762Z</time></trkpt><trkpt lat="39.2816113" lon="16.6532507"><ele>1250.0</ele><time>2026-05-03T07:50:31.766Z</time></trkpt><trkpt lat="39.2816451" lon="16.6531136"><ele>1250.0</ele><time>2026-05-03T07:50:32.77Z</time></trkpt><trkpt lat="39.2816917" lon="16.6530112"><ele>1250.0</ele><time>2026-05-03T07:50:33.765Z</time></trkpt><trkpt lat="39.2817524" lon="16.6529515"><ele>1250.0</ele><time>2026-05-03T07:50:34.764Z</time></trkpt><trkpt lat="39.2818261" lon="16.6528407"><ele>1249.6</ele><time>2026-05-03T07:50:36.771Z</time></trkpt><trkpt lat="39.28184" lon="16.652741"><ele>1249.2</ele><time>2026-05-03T07:54:23.77Z</time></trkpt><trkpt lat="39.2818347" lon="16.6526469"><ele>1248.8</ele><time>2026-05-03T07:54:25.77Z</time></trkpt><trkpt lat="39.2818001" lon="16.6524826"><ele>1248.4</ele><time>2026-05-03T07:54:27.759Z</time></trkpt><trkpt lat="39.2817926" lon="16.6523593"><ele>1248.0</ele><time>2026-05-03T07:54:28.775Z</time></trkpt><trkpt lat="39.2818157" lon="16.6522084"><ele>1248.0</ele><time>2026-05-03T07:54:29.763Z</time></trkpt><trkpt lat="39.2818479" lon="16.6520657"><ele>1248.0</ele><time>2026-05-03T07:54:30.768Z</time></trkpt><trkpt lat="39.2818792" lon="16.6519318"><ele>1248.0</ele><time>2026-05-03T07:54:31.766Z</time></trkpt><trkpt lat="39.281912" lon="16.6517888"><ele>1248.0</ele><time>2026-05-03T07:54:32.76Z</time></trkpt><trkpt lat="39.2819434" lon="16.6516298"><ele>1247.0</ele><time>2026-05-03T07:54:33.771Z</time></trkpt><trkpt lat="39.2819716" lon="16.651446"><ele>1246.0</ele><time>2026-05-03T07:54:34.766Z</time></trkpt><trkpt lat="39.2819948" lon="16.6512671"><ele>1245.0</ele><time>2026-05-03T07:54:35.767Z</time></trkpt><trkpt lat="39.282019" lon="16.6510913"><ele>1244.0</ele><time>2026-05-03T07:54:36.771Z</time></trkpt><trkpt lat="39.2820527" lon="16.6509048"><ele>1242.6666666666667</ele><time>2026-05-03T07:54:37.763Z</time></trkpt><trkpt lat="39.2820976" lon="16.6507156"><ele>1241.3333333333333</ele><time>2026-05-03T07:54:38.778Z</time></trkpt><trkpt lat="39.2821503" lon="16.6505219"><ele>1240.0</ele><time>2026-05-03T07:54:39.763Z</time></trkpt><trkpt lat="39.2822086" lon="16.6503265"><ele>1243.0</ele><time>2026-05-03T07:54:40.762Z</time></trkpt><trkpt lat="39.282272" lon="16.6501305"><ele>1246.0</ele><time>2026-05-03T07:54:41.766Z</time></trkpt><trkpt lat="39.2823381" lon="16.6499327"><ele>1249.0</ele><time>2026-05-03T07:54:42.766Z</time></trkpt><trkpt lat="39.2824079" lon="16.6497333"><ele>1249.0</ele><time>2026-05-03T07:54:43.766Z</time></trkpt><trkpt lat="39.2824847" lon="16.6495283"><ele>1249.0</ele><time>2026-05-03T07:54:44.767Z</time></trkpt><trkpt lat="39.2825688" lon="16.6493149"><ele>1249.0</ele><time>2026-05-03T07:54:45.765Z</time></trkpt><trkpt lat="39.2826584" lon="16.6490966"><ele>1247.6666666666665</ele><time>2026-05-03T07:54:46.766Z</time></trkpt><trkpt lat="39.2827521" lon="16.6488756"><ele>1246.3333333333333</ele><time>2026-05-03T07:54:47.771Z</time></trkpt><trkpt lat="39.2828476" lon="16.6486531"><ele>1245.0</ele><time>2026-05-03T07:54:48.765Z</time></trkpt><trkpt lat="39.2829449" lon="16.6484296"><ele>1244.3333333333333</ele><time>2026-05-03T07:54:49.764Z</time></trkpt><trkpt lat="39.2830418" lon="16.6482041"><ele>1243.6666666666665</ele><time>2026-05-03T07:54:50.764Z</time></trkpt><trkpt lat="39.2831368" lon="16.6479769"><ele>1243.0</ele><time>2026-05-03T07:54:51.764Z</time></trkpt><trkpt lat="39.2832351" lon="16.6477583"><ele>1243.0</ele><time>2026-05-03T07:54:52.758Z</time></trkpt><trkpt lat="39.2833281" lon="16.6475266"><ele>1243.0</ele><time>2026-05-03T07:54:53.777Z</time></trkpt><trkpt lat="39.283431" lon="16.6472956"><ele>1243.0</ele><time>2026-05-03T07:54:54.763Z</time></trkpt><trkpt lat="39.2835406" lon="16.6470558"><ele>1242.6666666666665</ele><time>2026-05-03T07:54:55.766Z</time></trkpt><trkpt lat="39.2836547" lon="16.6468152"><ele>1242.3333333333333</ele><time>2026-05-03T07:54:56.765Z</time></trkpt><trkpt lat="39.2837578" lon="16.6465632"><ele>1242.0</ele><time>2026-05-03T07:54:57.76Z</time></trkpt><trkpt lat="39.2838649" lon="16.6463199"><ele>1244.3333333333333</ele><time>2026-05-03T07:54:58.771Z</time></trkpt><trkpt lat="39.2839738" lon="16.6460752"><ele>1246.6666666666665</ele><time>2026-05-03T07:54:59.759Z</time></trkpt><trkpt lat="39.2840794" lon="16.6458293"><ele>1249.0</ele><time>2026-05-03T07:55:00.77Z</time></trkpt><trkpt lat="39.2841849" lon="16.6455891"><ele>1249.0</ele><time>2026-05-03T07:55:01.767Z</time></trkpt><trkpt lat="39.2842919" lon="16.6453459"><ele>1249.0</ele><time>2026-05-03T07:55:02.758Z</time></trkpt><trkpt lat="39.2843969" lon="16.6451048"><ele>1249.0</ele><time>2026-05-03T07:55:03.763Z</time></trkpt><trkpt lat="39.2844998" lon="16.6448657"><ele>1248.6666666666665</ele><time>2026-05-03T07:55:04.761Z</time></trkpt><trkpt lat="39.2846034" lon="16.6446254"><ele>1248.3333333333333</ele><time>2026-05-03T07:55:05.766Z</time></trkpt><trkpt lat="39.2847043" lon="16.6443851"><ele>1248.0</ele><time>2026-05-03T07:55:06.766Z</time></trkpt><trkpt lat="39.284803" lon="16.6441402"><ele>1249.6666666666667</ele><time>2026-05-03T07:55:07.768Z</time></trkpt><trkpt lat="39.2848931" lon="16.6438859"><ele>1251.3333333333335</ele><time>2026-05-03T07:55:08.765Z</time></trkpt><trkpt lat="39.2849689" lon="16.6436257"><ele>1253.0</ele><time>2026-05-03T07:55:09.759Z</time></trkpt><trkpt lat="39.2850281" lon="16.6433589"><ele>1253.0</ele><time>2026-05-03T07:55:10.763Z</time></trkpt><trkpt lat="39.2850728" lon="16.6430839"><ele>1253.0</ele><time>2026-05-03T07:55:11.767Z</time></trkpt><trkpt lat="39.2851047" lon="16.6428062"><ele>1253.0</ele><time>2026-05-03T07:55:12.761Z</time></trkpt><trkpt lat="39.2851289" lon="16.6425285"><ele>1253.0</ele><time>2026-05-03T07:55:13.779Z</time></trkpt><trkpt lat="39.2851509" lon="16.6422498"><ele>1253.0</ele><time>2026-05-03T07:55:14.765Z</time></trkpt><trkpt lat="39.2851708" lon="16.6419708"><ele>1253.0</ele><time>2026-05-03T07:55:15.763Z</time></trkpt><trkpt lat="39.2851918" lon="16.6416923"><ele>1253.0</ele><time>2026-05-03T07:55:16.763Z</time></trkpt><trkpt lat="39.285212" lon="16.6414115"><ele>1253.0</ele><time>2026-05-03T07:55:17.765Z</time></trkpt><trkpt lat="39.2852332" lon="16.6411241"><ele>1253.0</ele><time>2026-05-03T07:55:18.764Z</time></trkpt><trkpt lat="39.2852625" lon="16.6408341"><ele>1255.0</ele><time>2026-05-03T07:55:19.766Z</time></trkpt><trkpt lat="39.2853038" lon="16.6405427"><ele>1257.0</ele><time>2026-05-03T07:55:20.764Z</time></trkpt><trkpt lat="39.2853593" lon="16.6402649"><ele>1257.0</ele><time>2026-05-03T07:55:21.772Z</time></trkpt><trkpt lat="39.2854336" lon="16.6399993"><ele>1257.0</ele><time>2026-05-03T07:55:22.76Z</time></trkpt><trkpt lat="39.2855263" lon="16.6397513"><ele>1257.0</ele><time>2026-05-03T07:55:23.756Z</time></trkpt><trkpt lat="39.2856308" lon="16.6395281"><ele>1258.0</ele><time>2026-05-03T07:55:24.758Z</time></trkpt><trkpt lat="39.2857504" lon="16.6393273"><ele>1259.0</ele><time>2026-05-03T07:55:25.772Z</time></trkpt><trkpt lat="39.2858771" lon="16.6391531"><ele>1260.0</ele><time>2026-05-03T07:55:26.762Z</time></trkpt><trkpt lat="39.2859903" lon="16.6390092"><ele>1260.0</ele><time>2026-05-03T07:55:27.764Z</time></trkpt><trkpt lat="39.2860923" lon="16.6388977"><ele>1260.0</ele><time>2026-05-03T07:55:28.762Z</time></trkpt><trkpt lat="39.2861944" lon="16.638805"><ele>1260.0</ele><time>2026-05-03T07:55:29.767Z</time></trkpt><trkpt lat="39.2862952" lon="16.6387252"><ele>1260.0</ele><time>2026-05-03T07:55:30.772Z</time></trkpt><trkpt lat="39.28639" lon="16.6386532"><ele>1260.2</ele><time>2026-05-03T07:55:31.765Z</time></trkpt><trkpt lat="39.2864881" lon="16.6385876"><ele>1260.4</ele><time>2026-05-03T07:55:32.782Z</time></trkpt><trkpt lat="39.2865865" lon="16.638539"><ele>1260.6</ele><time>2026-05-03T07:55:33.765Z</time></trkpt><trkpt lat="39.2866799" lon="16.6385337"><ele>1260.8</ele><time>2026-05-03T07:55:34.758Z</time></trkpt><trkpt lat="39.286764" lon="16.6385773"><ele>1261.0</ele><time>2026-05-03T07:55:35.77Z</time></trkpt><trkpt lat="39.2868352" lon="16.6386548"><ele>1262.2</ele><time>2026-05-03T07:55:36.76Z</time></trkpt><trkpt lat="39.2868947" lon="16.6387568"><ele>1263.3999999999999</ele><time>2026-05-03T07:55:37.756Z</time></trkpt><trkpt lat="39.2869695" lon="16.6388427"><ele>1264.6</ele><time>2026-05-03T07:55:38.76Z</time></trkpt><trkpt lat="39.2870434" lon="16.6389243"><ele>1265.8</ele><time>2026-05-03T07:55:39.764Z</time></trkpt><trkpt lat="39.2871488" lon="16.6389166"><ele>1267.0</ele><time>2026-05-03T07:55:40.803Z</time></trkpt><trkpt lat="39.2872459" lon="16.6388628"><ele>1267.2</ele><time>2026-05-03T07:55:41.768Z</time></trkpt><trkpt lat="39.2873236" lon="16.6387758"><ele>1267.4</ele><time>2026-05-03T07:55:42.761Z</time></trkpt><trkpt lat="39.2873992" lon="16.6386827"><ele>1267.6</ele><time>2026-05-03T07:55:43.767Z</time></trkpt><trkpt lat="39.2874076" lon="16.6385526"><ele>1267.8</ele><time>2026-05-03T07:55:44.763Z</time></trkpt><trkpt lat="39.2873878" lon="16.6384109"><ele>1268.0</ele><time>2026-05-03T07:55:45.767Z</time></trkpt><trkpt lat="39.2873302" lon="16.6382676"><ele>1268.0</ele><time>2026-05-03T07:55:46.759Z</time></trkpt><trkpt lat="39.2872653" lon="16.6381158"><ele>1268.0</ele><time>2026-05-03T07:55:47.768Z</time></trkpt><trkpt lat="39.2872021" lon="16.637972"><ele>1268.0</ele><time>2026-05-03T07:55:48.764Z</time></trkpt><trkpt lat="39.2871497" lon="16.6378498"><ele>1268.0</ele><time>2026-05-03T07:55:49.76Z</time></trkpt><trkpt lat="39.287078" lon="16.6377561"><ele>1266.6</ele><time>2026-05-03T07:55:50.763Z</time></trkpt><trkpt lat="39.2869931" lon="16.6376853"><ele>1265.1999999999998</ele><time>2026-05-03T07:55:51.764Z</time></trkpt><trkpt lat="39.2869002" lon="16.6376851"><ele>1263.8</ele><time>2026-05-03T07:55:52.776Z</time></trkpt><trkpt lat="39.2867957" lon="16.6377615"><ele>1262.3999999999999</ele><time>2026-05-03T07:55:53.759Z</time></trkpt><trkpt lat="39.2867268" lon="16.6378685"><ele>1261.0</ele><time>2026-05-03T07:55:54.759Z</time></trkpt><trkpt lat="39.2866687" lon="16.6380024"><ele>1261.0</ele><time>2026-05-03T07:55:55.765Z</time></trkpt><trkpt lat="39.2866073" lon="16.6381402"><ele>1261.0</ele><time>2026-05-03T07:55:56.763Z</time></trkpt><trkpt lat="39.2865344" lon="16.6382627"><ele>1261.0</ele><time>2026-05-03T07:55:57.771Z</time></trkpt><trkpt lat="39.2864404" lon="16.6383795"><ele>1261.0</ele><time>2026-05-03T07:55:58.762Z</time></trkpt><trkpt lat="39.2863095" lon="16.6384487"><ele>1259.3333333333333</ele><time>2026-05-03T07:55:59.764Z</time></trkpt><trkpt lat="39.2861561" lon="16.6384923"><ele>1257.6666666666667</ele><time>2026-05-03T07:56:00.766Z</time></trkpt><trkpt lat="39.2860063" lon="16.6385598"><ele>1256.0</ele><time>2026-05-03T07:56:01.765Z</time></trkpt><trkpt lat="39.2858491" lon="16.6386308"><ele>1257.0</ele><time>2026-05-03T07:56:02.771Z</time></trkpt><trkpt lat="39.2856981" lon="16.6386942"><ele>1258.0</ele><time>2026-05-03T07:56:03.766Z</time></trkpt><trkpt lat="39.285563" lon="16.6387471"><ele>1259.0</ele><time>2026-05-03T07:56:04.764Z</time></trkpt><trkpt lat="39.2854537" lon="16.6387929"><ele>1260.0</ele><time>2026-05-03T07:56:05.762Z</time></trkpt><trkpt lat="39.2853661" lon="16.6388028"><ele>1258.5</ele><time>2026-05-03T07:56:06.763Z</time></trkpt><trkpt lat="39.2852945" lon="16.6387635"><ele>1257.0</ele><time>2026-05-03T07:56:07.757Z</time></trkpt><trkpt lat="39.2852549" lon="16.6386964"><ele>1255.5</ele><time>2026-05-03T07:56:08.764Z</time></trkpt><trkpt lat="39.2852457" lon="16.6386066"><ele>1254.0</ele><time>2026-05-03T07:56:09.759Z</time></trkpt><trkpt lat="39.2852781" lon="16.6385072"><ele>1252.5</ele><time>2026-05-03T07:56:10.77Z</time></trkpt><trkpt lat="39.2853274" lon="16.6384119"><ele>1251.0</ele><time>2026-05-03T07:56:11.764Z</time></trkpt><trkpt lat="39.28541" lon="16.6383173"><ele>1250.75</ele><time>2026-05-03T07:56:12.771Z</time></trkpt><trkpt lat="39.2854961" lon="16.638196"><ele>1250.5</ele><time>2026-05-03T07:56:13.759Z</time></trkpt><trkpt lat="39.28558" lon="16.6380672"><ele>1250.25</ele><time>2026-05-03T07:56:14.76Z</time></trkpt><trkpt lat="39.2856449" lon="16.6379156"><ele>1250.0</ele><time>2026-05-03T07:56:15.762Z</time></trkpt><trkpt lat="39.2856805" lon="16.6377505"><ele>1250.0</ele><time>2026-05-03T07:56:16.765Z</time></trkpt><trkpt lat="39.285678" lon="16.6375778"><ele>1250.0</ele><time>2026-05-03T07:56:17.759Z</time></trkpt><trkpt lat="39.2856661" lon="16.6373963"><ele>1250.0</ele><time>2026-05-03T07:56:18.765Z</time></trkpt><trkpt lat="39.2856359" lon="16.6372145"><ele>1250.0</ele><time>2026-05-03T07:56:19.765Z</time></trkpt><trkpt lat="39.2856078" lon="16.6370377"><ele>1246.0</ele><time>2026-05-03T07:56:20.78Z</time></trkpt><trkpt lat="39.2855742" lon="16.6368511"><ele>1242.0</ele><time>2026-05-03T07:56:21.771Z</time></trkpt><trkpt lat="39.2855455" lon="16.6366592"><ele>1238.0</ele><time>2026-05-03T07:56:22.768Z</time></trkpt><trkpt lat="39.2855451" lon="16.6364567"><ele>1238.0</ele><time>2026-05-03T07:56:23.767Z</time></trkpt><trkpt lat="39.2855725" lon="16.6362527"><ele>1238.0</ele><time>2026-05-03T07:56:24.762Z</time></trkpt><trkpt lat="39.2856111" lon="16.6360481"><ele>1238.0</ele><time>2026-05-03T07:56:25.763Z</time></trkpt><trkpt lat="39.2856762" lon="16.6358462"><ele>1238.6666666666667</ele><time>2026-05-03T07:56:26.766Z</time></trkpt><trkpt lat="39.2857417" lon="16.6356407"><ele>1239.3333333333333</ele><time>2026-05-03T07:56:27.761Z</time></trkpt><trkpt lat="39.285807" lon="16.6354444"><ele>1240.0</ele><time>2026-05-03T07:56:28.759Z</time></trkpt><trkpt lat="39.2858821" lon="16.6352715"><ele>1240.0</ele><time>2026-05-03T07:56:29.761Z</time></trkpt><trkpt lat="39.2859753" lon="16.6351184"><ele>1240.0</ele><time>2026-05-03T07:56:30.764Z</time></trkpt><trkpt lat="39.2860759" lon="16.6349837"><ele>1240.0</ele><time>2026-05-03T07:56:31.764Z</time></trkpt><trkpt lat="39.2861766" lon="16.6348449"><ele>1240.0</ele><time>2026-05-03T07:56:32.766Z</time></trkpt><trkpt lat="39.2862708" lon="16.6346933"><ele>1240.0</ele><time>2026-05-03T07:56:33.756Z</time></trkpt><trkpt lat="39.2863494" lon="16.6345354"><ele>1240.0</ele><time>2026-05-03T07:56:34.758Z</time></trkpt><trkpt lat="39.286421" lon="16.6343811"><ele>1240.0</ele><time>2026-05-03T07:56:35.759Z</time></trkpt><trkpt lat="39.2864947" lon="16.6342351"><ele>1240.0</ele><time>2026-05-03T07:56:36.761Z</time></trkpt><trkpt lat="39.2865668" lon="16.6340856"><ele>1239.75</ele><time>2026-05-03T07:56:37.756Z</time></trkpt><trkpt lat="39.2866243" lon="16.6339264"><ele>1239.5</ele><time>2026-05-03T07:56:38.756Z</time></trkpt><trkpt lat="39.2866638" lon="16.6337508"><ele>1239.25</ele><time>2026-05-03T07:56:39.765Z</time></trkpt><trkpt lat="39.2866754" lon="16.6335663"><ele>1239.0</ele><time>2026-05-03T07:56:40.762Z</time></trkpt><trkpt lat="39.286664" lon="16.6333826"><ele>1239.6666666666667</ele><time>2026-05-03T07:56:41.773Z</time></trkpt><trkpt lat="39.2866314" lon="16.6331978"><ele>1240.3333333333335</ele><time>2026-05-03T07:56:42.767Z</time></trkpt><trkpt lat="39.2866031" lon="16.6330027"><ele>1241.0</ele><time>2026-05-03T07:56:43.76Z</time></trkpt><trkpt lat="39.2865654" lon="16.6327961"><ele>1242.0</ele><time>2026-05-03T07:56:44.774Z</time></trkpt><trkpt lat="39.2865238" lon="16.632575"><ele>1243.0</ele><time>2026-05-03T07:56:45.768Z</time></trkpt><trkpt lat="39.2864843" lon="16.6323453"><ele>1244.0</ele><time>2026-05-03T07:56:46.775Z</time></trkpt><trkpt lat="39.2864455" lon="16.6321051"><ele>1244.6666666666667</ele><time>2026-05-03T07:56:47.772Z</time></trkpt><trkpt lat="39.2864051" lon="16.6318572"><ele>1245.3333333333333</ele><time>2026-05-03T07:56:48.759Z</time></trkpt><trkpt lat="39.2863621" lon="16.6316016"><ele>1246.0</ele><time>2026-05-03T07:56:49.763Z</time></trkpt><trkpt lat="39.2863174" lon="16.6313405"><ele>1247.3333333333333</ele><time>2026-05-03T07:56:50.761Z</time></trkpt><trkpt lat="39.286272" lon="16.6310755"><ele>1248.6666666666667</ele><time>2026-05-03T07:56:51.778Z</time></trkpt><trkpt lat="39.2862269" lon="16.6308053"><ele>1250.0</ele><time>2026-05-03T07:56:52.761Z</time></trkpt><trkpt lat="39.2861805" lon="16.6305303"><ele>1251.3333333333335</ele><time>2026-05-03T07:56:53.762Z</time></trkpt><trkpt lat="39.2861344" lon="16.6302527"><ele>1252.6666666666667</ele><time>2026-05-03T07:56:54.761Z</time></trkpt><trkpt lat="39.2860884" lon="16.6299727"><ele>1254.0</ele><time>2026-05-03T07:56:55.764Z</time></trkpt><trkpt lat="39.2860419" lon="16.6296922"><ele>1255.6666666666667</ele><time>2026-05-03T07:56:56.755Z</time></trkpt><trkpt lat="39.2859943" lon="16.6294109"><ele>1257.3333333333335</ele><time>2026-05-03T07:56:57.771Z</time></trkpt><trkpt lat="39.2859457" lon="16.6291275"><ele>1259.0</ele><time>2026-05-03T07:56:58.763Z</time></trkpt><trkpt lat="39.2858971" lon="16.6288436"><ele>1260.0</ele><time>2026-05-03T07:56:59.767Z</time></trkpt><trkpt lat="39.2858472" lon="16.6285572"><ele>1261.0</ele><time>2026-05-03T07:57:00.763Z</time></trkpt><trkpt lat="39.2857937" lon="16.6282714"><ele>1261.0</ele><time>2026-05-03T07:57:01.761Z</time></trkpt><trkpt lat="39.2857254" lon="16.627991"><ele>1261.0</ele><time>2026-05-03T07:57:02.767Z</time></trkpt><trkpt lat="39.2856414" lon="16.6277177"><ele>1265.0</ele><time>2026-05-03T07:57:03.757Z</time></trkpt><trkpt lat="39.2855524" lon="16.6274476"><ele>1269.0</ele><time>2026-05-03T07:57:04.761Z</time></trkpt><trkpt lat="39.28546" lon="16.6271787"><ele>1269.5</ele><time>2026-05-03T07:57:05.765Z</time></trkpt><trkpt lat="39.2853667" lon="16.62691"><ele>1270.0</ele><time>2026-05-03T07:57:06.761Z</time></trkpt><trkpt lat="39.2852761" lon="16.6266405"><ele>1270.0</ele><time>2026-05-03T07:57:07.755Z</time></trkpt><trkpt lat="39.2851864" lon="16.6263705"><ele>1270.0</ele><time>2026-05-03T07:57:08.761Z</time></trkpt><trkpt lat="39.2851024" lon="16.6261112"><ele>1270.0</ele><time>2026-05-03T07:57:09.756Z</time></trkpt><trkpt lat="39.2850276" lon="16.6258746"><ele>1270.3333333333333</ele><time>2026-05-03T07:57:10.758Z</time></trkpt><trkpt lat="39.2849489" lon="16.6256644"><ele>1270.6666666666667</ele><time>2026-05-03T07:57:11.758Z</time></trkpt><trkpt lat="39.2848498" lon="16.6255036"><ele>1271.0</ele><time>2026-05-03T07:57:12.763Z</time></trkpt><trkpt lat="39.284744" lon="16.6253855"><ele>1273.8</ele><time>2026-05-03T07:57:13.766Z</time></trkpt><trkpt lat="39.2846509" lon="16.6252953"><ele>1276.6</ele><time>2026-05-03T07:57:14.753Z</time></trkpt><trkpt lat="39.284577" lon="16.6252161"><ele>1279.4</ele><time>2026-05-03T07:57:15.762Z</time></trkpt><trkpt lat="39.2845524" lon="16.6251195"><ele>1282.2</ele><time>2026-05-03T07:57:16.766Z</time></trkpt><trkpt lat="39.2845466" lon="16.6249656"><ele>1285.0</ele><time>2026-05-03T07:57:17.764Z</time></trkpt><trkpt lat="39.2845477" lon="16.6248202"><ele>1285.0</ele><time>2026-05-03T07:57:18.761Z</time></trkpt><trkpt lat="39.2845588" lon="16.6246831"><ele>1285.0</ele><time>2026-05-03T07:57:19.759Z</time></trkpt><trkpt lat="39.2845555" lon="16.6245352"><ele>1285.0</ele><time>2026-05-03T07:57:20.756Z</time></trkpt><trkpt lat="39.2845643" lon="16.6243749"><ele>1285.0</ele><time>2026-05-03T07:57:21.758Z</time></trkpt><trkpt lat="39.284553" lon="16.6242408"><ele>1287.5</ele><time>2026-05-03T07:57:22.76Z</time></trkpt><trkpt lat="39.2845403" lon="16.6241015"><ele>1290.0</ele><time>2026-05-03T07:57:23.759Z</time></trkpt><trkpt lat="39.2845202" lon="16.6239652"><ele>1292.5</ele><time>2026-05-03T07:57:24.755Z</time></trkpt><trkpt lat="39.2844742" lon="16.6238146"><ele>1295.0</ele><time>2026-05-03T07:57:25.761Z</time></trkpt><trkpt lat="39.2844273" lon="16.6236252"><ele>1297.8</ele><time>2026-05-03T07:57:26.761Z</time></trkpt><trkpt lat="39.2843951" lon="16.6234622"><ele>1300.6</ele><time>2026-05-03T07:57:27.767Z</time></trkpt><trkpt lat="39.2843732" lon="16.6233326"><ele>1303.4</ele><time>2026-05-03T07:57:28.755Z</time></trkpt><trkpt lat="39.2843405" lon="16.6231999"><ele>1306.2</ele><time>2026-05-03T07:57:29.758Z</time></trkpt><trkpt lat="39.284339" lon="16.6230835"><ele>1309.0</ele><time>2026-05-03T07:57:30.766Z</time></trkpt><trkpt lat="39.2843616" lon="16.6229672"><ele>1309.0</ele><time>2026-05-03T07:57:31.762Z</time></trkpt><trkpt lat="39.2844182" lon="16.6228487"><ele>1309.0</ele><time>2026-05-03T07:57:32.769Z</time></trkpt><trkpt lat="39.2844481" lon="16.622719"><ele>1309.0</ele><time>2026-05-03T07:57:33.762Z</time></trkpt><trkpt lat="39.2844692" lon="16.622609"><ele>1309.0</ele><time>2026-05-03T07:57:34.757Z</time></trkpt><trkpt lat="39.2845038" lon="16.6224663"><ele>1309.0</ele><time>2026-05-03T07:57:35.759Z</time></trkpt><trkpt lat="39.2845353" lon="16.622342"><ele>1310.6666666666665</ele><time>2026-05-03T07:57:36.758Z</time></trkpt><trkpt lat="39.2845547" lon="16.6222465"><ele>1312.3333333333333</ele><time>2026-05-03T07:57:37.762Z</time></trkpt><trkpt lat="39.2845666" lon="16.6221495"><ele>1314.0</ele><time>2026-05-03T07:57:38.76Z</time></trkpt><trkpt lat="39.2845587" lon="16.6220569"><ele>1315.6666666666667</ele><time>2026-05-03T07:57:39.761Z</time></trkpt><trkpt lat="39.2845521" lon="16.6219352"><ele>1317.3333333333335</ele><time>2026-05-03T07:57:40.755Z</time></trkpt><trkpt lat="39.284529" lon="16.6218176"><ele>1319.0</ele><time>2026-05-03T07:57:41.773Z</time></trkpt><trkpt lat="39.2845502" lon="16.6216762"><ele>1319.8000000000002</ele><time>2026-05-03T07:57:42.76Z</time></trkpt><trkpt lat="39.2845549" lon="16.6215518"><ele>1320.6000000000001</ele><time>2026-05-03T07:57:43.76Z</time></trkpt><trkpt lat="39.2845393" lon="16.6214149"><ele>1321.4</ele><time>2026-05-03T07:57:44.759Z</time></trkpt><trkpt lat="39.2845333" lon="16.6213055"><ele>1322.2</ele><time>2026-05-03T07:57:45.758Z</time></trkpt><trkpt lat="39.2845111" lon="16.6211806"><ele>1323.0</ele><time>2026-05-03T07:57:46.756Z</time></trkpt><trkpt lat="39.2844736" lon="16.6210846"><ele>1323.4</ele><time>2026-05-03T07:57:47.765Z</time></trkpt><trkpt lat="39.2844328" lon="16.6209578"><ele>1323.8000000000002</ele><time>2026-05-03T07:57:48.755Z</time></trkpt><trkpt lat="39.2843946" lon="16.6208134"><ele>1324.2</ele><time>2026-05-03T07:57:49.763Z</time></trkpt><trkpt lat="39.2843657" lon="16.6206805"><ele>1324.6</ele><time>2026-05-03T07:57:50.765Z</time></trkpt><trkpt lat="39.2843194" lon="16.6205582"><ele>1325.0</ele><time>2026-05-03T07:57:51.758Z</time></trkpt><trkpt lat="39.2842789" lon="16.6204778"><ele>1325.0</ele><time>2026-05-03T07:57:52.761Z</time></trkpt><trkpt lat="39.2842337" lon="16.6203697"><ele>1325.0</ele><time>2026-05-03T07:57:53.76Z</time></trkpt><trkpt lat="39.2842146" lon="16.6202508"><ele>1325.0</ele><time>2026-05-03T07:57:54.762Z</time></trkpt><trkpt lat="39.284221" lon="16.6201457"><ele>1325.0</ele><time>2026-05-03T07:57:55.761Z</time></trkpt><trkpt lat="39.2842166" lon="16.6200534"><ele>1325.0</ele><time>2026-05-03T07:57:56.772Z</time></trkpt><trkpt lat="39.284215" lon="16.6199514"><ele>1325.0</ele><time>2026-05-03T07:57:57.763Z</time></trkpt><trkpt lat="39.2842438" lon="16.619792"><ele>1326.0</ele><time>2026-05-03T07:57:59.763Z</time></trkpt><trkpt lat="39.2842742" lon="16.6196657"><ele>1327.0</ele><time>2026-05-03T07:58:00.761Z</time></trkpt><trkpt lat="39.2843074" lon="16.6195541"><ele>1328.0</ele><time>2026-05-03T07:58:01.767Z</time></trkpt><trkpt lat="39.2843098" lon="16.6194264"><ele>1329.0</ele><time>2026-05-03T07:58:02.763Z</time></trkpt><trkpt lat="39.2843031" lon="16.619307"><ele>1330.0</ele><time>2026-05-03T07:58:03.769Z</time></trkpt><trkpt lat="39.2843174" lon="16.6192039"><ele>1332.6</ele><time>2026-05-03T07:58:04.767Z</time></trkpt><trkpt lat="39.2843284" lon="16.6190951"><ele>1335.2</ele><time>2026-05-03T07:58:05.758Z</time></trkpt><trkpt lat="39.2843192" lon="16.6189814"><ele>1337.8000000000002</ele><time>2026-05-03T07:58:06.764Z</time></trkpt><trkpt lat="39.2843046" lon="16.618858"><ele>1340.4</ele><time>2026-05-03T07:58:07.76Z</time></trkpt><trkpt lat="39.2842874" lon="16.6187388"><ele>1343.0</ele><time>2026-05-03T07:58:08.762Z</time></trkpt><trkpt lat="39.2842648" lon="16.6186293"><ele>1346.75</ele><time>2026-05-03T07:58:09.772Z</time></trkpt><trkpt lat="39.2842349" lon="16.6185136"><ele>1350.5</ele><time>2026-05-03T07:58:10.765Z</time></trkpt><trkpt lat="39.2841814" lon="16.6183946"><ele>1354.25</ele><time>2026-05-03T07:58:11.754Z</time></trkpt><trkpt lat="39.2840997" lon="16.6182745"><ele>1358.0</ele><time>2026-05-03T07:58:12.759Z</time></trkpt><trkpt lat="39.2840087" lon="16.6181389"><ele>1358.0</ele><time>2026-05-03T07:58:13.755Z</time></trkpt><trkpt lat="39.2839315" lon="16.6179914"><ele>1358.0</ele><time>2026-05-03T07:58:14.765Z</time></trkpt><trkpt lat="39.2838888" lon="16.6178406"><ele>1358.0</ele><time>2026-05-03T07:58:15.76Z</time></trkpt><trkpt lat="39.2838414" lon="16.6177152"><ele>1358.0</ele><time>2026-05-03T07:58:16.763Z</time></trkpt><trkpt lat="39.2838175" lon="16.6175996"><ele>1359.2</ele><time>2026-05-03T07:58:17.765Z</time></trkpt><trkpt lat="39.2838139" lon="16.6174768"><ele>1360.4</ele><time>2026-05-03T07:58:18.761Z</time></trkpt><trkpt lat="39.2838415" lon="16.61735"><ele>1361.6000000000001</ele><time>2026-05-03T07:58:19.758Z</time></trkpt><trkpt lat="39.2838881" lon="16.6172351"><ele>1362.8000000000002</ele><time>2026-05-03T07:58:20.762Z</time></trkpt><trkpt lat="39.2839435" lon="16.6171198"><ele>1364.0</ele><time>2026-05-03T07:58:21.764Z</time></trkpt><trkpt lat="39.2840057" lon="16.6170216"><ele>1364.8000000000002</ele><time>2026-05-03T07:58:22.756Z</time></trkpt><trkpt lat="39.2840845" lon="16.6169253"><ele>1365.6000000000001</ele><time>2026-05-03T07:58:23.772Z</time></trkpt><trkpt lat="39.2841226" lon="16.6167894"><ele>1366.4</ele><time>2026-05-03T07:58:24.763Z</time></trkpt><trkpt lat="39.2841099" lon="16.6166501"><ele>1367.2</ele><time>2026-05-03T07:58:25.759Z</time></trkpt><trkpt lat="39.284116" lon="16.6164987"><ele>1368.0</ele><time>2026-05-03T07:58:26.761Z</time></trkpt><trkpt lat="39.2840998" lon="16.6162676"><ele>1368.0</ele><time>2026-05-03T07:58:27.757Z</time></trkpt><trkpt lat="39.2840885" lon="16.6160612"><ele>1368.0</ele><time>2026-05-03T07:58:28.759Z</time></trkpt><trkpt lat="39.2840701" lon="16.6159003"><ele>1368.0</ele><time>2026-05-03T07:58:29.762Z</time></trkpt><trkpt lat="39.2840426" lon="16.6157846"><ele>1368.0</ele><time>2026-05-03T07:58:30.76Z</time></trkpt><trkpt lat="39.2840384" lon="16.615676"><ele>1368.0</ele><time>2026-05-03T07:58:31.755Z</time></trkpt><trkpt lat="39.2840677" lon="16.6155995"><ele>1368.0</ele><time>2026-05-03T07:58:32.76Z</time></trkpt><trkpt lat="39.28412" lon="16.6155015"><ele>1368.0</ele><time>2026-05-03T07:58:33.762Z</time></trkpt><trkpt lat="39.2842267" lon="16.6154322"><ele>1368.0</ele><time>2026-05-03T07:58:34.762Z</time></trkpt><trkpt lat="39.2843348" lon="16.6153559"><ele>1368.0</ele><time>2026-05-03T07:58:35.756Z</time></trkpt><trkpt lat="39.2844323" lon="16.6152743"><ele>1366.8000000000002</ele><time>2026-05-03T07:58:36.763Z</time></trkpt><trkpt lat="39.2845219" lon="16.6151722"><ele>1365.6</ele><time>2026-05-03T07:58:37.764Z</time></trkpt><trkpt lat="39.2846169" lon="16.6150909"><ele>1364.4</ele><time>2026-05-03T07:58:38.756Z</time></trkpt><trkpt lat="39.2847105" lon="16.6150221"><ele>1363.1999999999998</ele><time>2026-05-03T07:58:39.76Z</time></trkpt><trkpt lat="39.2847402" lon="16.6149181"><ele>1362.0</ele><time>2026-05-03T07:58:40.759Z</time></trkpt><trkpt lat="39.2847618" lon="16.6147764"><ele>1364.25</ele><time>2026-05-03T07:58:41.761Z</time></trkpt><trkpt lat="39.2848095" lon="16.6146252"><ele>1366.5</ele><time>2026-05-03T07:58:42.769Z</time></trkpt><trkpt lat="39.2848703" lon="16.6144496"><ele>1368.75</ele><time>2026-05-03T07:58:43.756Z</time></trkpt><trkpt lat="39.2849456" lon="16.6142845"><ele>1371.0</ele><time>2026-05-03T07:58:44.756Z</time></trkpt><trkpt lat="39.2849768" lon="16.6141172"><ele>1371.0</ele><time>2026-05-03T07:58:45.757Z</time></trkpt><trkpt lat="39.2850098" lon="16.6139827"><ele>1371.0</ele><time>2026-05-03T07:58:46.759Z</time></trkpt><trkpt lat="39.2850791" lon="16.6138495"><ele>1371.0</ele><time>2026-05-03T07:58:47.768Z</time></trkpt><trkpt lat="39.2851373" lon="16.6136904"><ele>1371.0</ele><time>2026-05-03T07:58:48.758Z</time></trkpt><trkpt lat="39.2851832" lon="16.6135228"><ele>1372.5</ele><time>2026-05-03T07:58:49.767Z</time></trkpt><trkpt lat="39.285229" lon="16.6133633"><ele>1374.0</ele><time>2026-05-03T07:58:50.756Z</time></trkpt><trkpt lat="39.2853048" lon="16.6132097"><ele>1375.5</ele><time>2026-05-03T07:58:51.772Z</time></trkpt><trkpt lat="39.285392" lon="16.6131038"><ele>1377.0</ele><time>2026-05-03T07:58:52.759Z</time></trkpt><trkpt lat="39.285435" lon="16.6130027"><ele>1377.0</ele><time>2026-05-03T07:58:53.763Z</time></trkpt><trkpt lat="39.2854606" lon="16.6128788"><ele>1377.0</ele><time>2026-05-03T07:58:55.762Z</time></trkpt><trkpt lat="39.2854364" lon="16.612754"><ele>1377.0</ele><time>2026-05-03T07:58:57.769Z</time></trkpt><trkpt lat="39.2854339" lon="16.6126684"><ele>1377.0</ele><time>2026-05-03T07:58:58.765Z</time></trkpt><trkpt lat="39.2854286" lon="16.612555"><ele>1377.0</ele><time>2026-05-03T07:59:00.766Z</time></trkpt><trkpt lat="39.2854625" lon="16.6124626"><ele>1377.0</ele><time>2026-05-03T07:59:01.767Z</time></trkpt><trkpt lat="39.2855206" lon="16.6124065"><ele>1377.6</ele><time>2026-05-03T07:59:02.755Z</time></trkpt><trkpt lat="39.2855697" lon="16.612306"><ele>1378.1999999999998</ele><time>2026-05-03T07:59:03.762Z</time></trkpt><trkpt lat="39.2856079" lon="16.6122163"><ele>1378.8</ele><time>2026-05-03T07:59:04.754Z</time></trkpt><trkpt lat="39.285667" lon="16.6120659"><ele>1379.4</ele><time>2026-05-03T07:59:05.769Z</time></trkpt><trkpt lat="39.2857276" lon="16.6119766"><ele>1380.0</ele><time>2026-05-03T07:59:06.765Z</time></trkpt><trkpt lat="39.2857833" lon="16.6119008"><ele>1380.0</ele><time>2026-05-03T07:59:07.761Z</time></trkpt><trkpt lat="39.2858426" lon="16.6118011"><ele>1380.0</ele><time>2026-05-03T07:59:08.768Z</time></trkpt><trkpt lat="39.2859042" lon="16.6117241"><ele>1380.0</ele><time>2026-05-03T07:59:10.766Z</time></trkpt><trkpt lat="39.2859469" lon="16.61166"><ele>1380.0</ele><time>2026-05-03T07:59:11.765Z</time></trkpt><trkpt lat="39.2860011" lon="16.611602"><ele>1380.0</ele><time>2026-05-03T07:59:12.771Z</time></trkpt><trkpt lat="39.2860946" lon="16.6114898"><ele>1380.0</ele><time>2026-05-03T07:59:14.756Z</time></trkpt><trkpt lat="39.2861432" lon="16.6114345"><ele>1380.0</ele><time>2026-05-03T07:59:15.761Z</time></trkpt><trkpt lat="39.2862113" lon="16.6113847"><ele>1380.0</ele><time>2026-05-03T07:59:16.755Z</time></trkpt><trkpt lat="39.2862689" lon="16.6113324"><ele>1380.0</ele><time>2026-05-03T07:59:17.769Z</time></trkpt><trkpt lat="39.2863367" lon="16.6112809"><ele>1380.0</ele><time>2026-05-03T07:59:22.783Z</time></trkpt><trkpt lat="39.2863994" lon="16.6112456"><ele>1380.0</ele><time>2026-05-03T07:59:24.766Z</time></trkpt><trkpt lat="39.2864599" lon="16.611172"><ele>1380.0</ele><time>2026-05-03T07:59:26.762Z</time></trkpt><trkpt lat="39.2865054" lon="16.6111115"><ele>1380.0</ele><time>2026-05-03T07:59:28.775Z</time></trkpt><trkpt lat="39.2865696" lon="16.6110415"><ele>1381.4285714285716</ele><time>2026-05-03T07:59:33.77Z</time></trkpt><trkpt lat="39.2865981" lon="16.6109567"><ele>1382.857142857143</ele><time>2026-05-03T07:59:35.77Z</time></trkpt><trkpt lat="39.2866078" lon="16.6108692"><ele>1384.2857142857142</ele><time>2026-05-03T07:59:37.764Z</time></trkpt><trkpt lat="39.2866247" lon="16.6107842"><ele>1385.7142857142858</ele><time>2026-05-03T07:59:41.775Z</time></trkpt><trkpt lat="39.2866759" lon="16.6107063"><ele>1387.142857142857</ele><time>2026-05-03T07:59:44.765Z</time></trkpt><trkpt lat="39.2867157" lon="16.6106422"><ele>1388.5714285714287</ele><time>2026-05-03T07:59:46.764Z</time></trkpt><trkpt lat="39.2868044" lon="16.6106002"><ele>1390.0</ele><time>2026-05-03T07:59:49.77Z</time></trkpt><trkpt lat="39.2868459" lon="16.6105301"><ele>1390.0</ele><time>2026-05-03T07:59:52.762Z</time></trkpt><trkpt lat="39.286923" lon="16.610462"><ele>1390.0</ele><time>2026-05-03T07:59:55.796Z</time></trkpt><trkpt lat="39.2869886" lon="16.6104307"><ele>1390.0</ele><time>2026-05-03T07:59:57.836Z</time></trkpt><trkpt lat="39.2870598" lon="16.6103411"><ele>1390.0</ele><time>2026-05-03T08:00:00.768Z</time></trkpt><trkpt lat="39.2870921" lon="16.6102703"><ele>1390.0</ele><time>2026-05-03T08:00:02.734Z</time></trkpt><trkpt lat="39.2871159" lon="16.610168"><ele>1390.0</ele><time>2026-05-03T08:00:04.801Z</time></trkpt><trkpt lat="39.2871326" lon="16.6100781"><ele>1393.2</ele><time>2026-05-03T08:00:06.76Z</time></trkpt><trkpt lat="39.2871546" lon="16.6099856"><ele>1396.4</ele><time>2026-05-03T08:00:09.719Z</time></trkpt><trkpt lat="39.2871588" lon="16.6098603"><ele>1399.6</ele><time>2026-05-03T08:00:12.826Z</time></trkpt><trkpt lat="39.2871795" lon="16.6097436"><ele>1402.8</ele><time>2026-05-03T08:00:14.716Z</time></trkpt><trkpt lat="39.2872081" lon="16.6096275"><ele>1406.0</ele><time>2026-05-03T08:00:16.832Z</time></trkpt><trkpt lat="39.2872647" lon="16.6094949"><ele>1408.5</ele><time>2026-05-03T08:00:17.768Z</time></trkpt><trkpt lat="39.2872782" lon="16.6093986"><ele>1411.0</ele><time>2026-05-03T08:00:24.771Z</time></trkpt><trkpt lat="39.2871756" lon="16.6093062"><ele>1413.5</ele><time>2026-05-03T08:00:26.773Z</time></trkpt><trkpt lat="39.287087" lon="16.6092024"><ele>1416.0</ele><time>2026-05-03T08:00:27.767Z</time></trkpt><trkpt lat="39.2869617" lon="16.6090937"><ele>1416.0</ele><time>2026-05-03T08:00:28.762Z</time></trkpt><trkpt lat="39.2868367" lon="16.6089899"><ele>1416.0</ele><time>2026-05-03T08:00:29.766Z</time></trkpt><trkpt lat="39.2867499" lon="16.6088972"><ele>1416.0</ele><time>2026-05-03T08:00:30.754Z</time></trkpt><trkpt lat="39.2866361" lon="16.6087888"><ele>1416.0</ele><time>2026-05-03T08:00:31.758Z</time></trkpt><trkpt lat="39.2865644" lon="16.6087079"><ele>1418.0</ele><time>2026-05-03T08:00:32.757Z</time></trkpt><trkpt lat="39.2864744" lon="16.6086162"><ele>1420.0</ele><time>2026-05-03T08:00:33.754Z</time></trkpt><trkpt lat="39.2863941" lon="16.608517"><ele>1422.0</ele><time>2026-05-03T08:00:34.781Z</time></trkpt><trkpt lat="39.2863059" lon="16.6084285"><ele>1424.0</ele><time>2026-05-03T08:00:35.759Z</time></trkpt><trkpt lat="39.2862157" lon="16.6083625"><ele>1426.0</ele><time>2026-05-03T08:00:36.757Z</time></trkpt><trkpt lat="39.2861358" lon="16.6083019"><ele>1427.1666666666665</ele><time>2026-05-03T08:00:37.756Z</time></trkpt><trkpt lat="39.2860727" lon="16.6082372"><ele>1428.3333333333333</ele><time>2026-05-03T08:00:38.766Z</time></trkpt><trkpt lat="39.2860212" lon="16.6081825"><ele>1429.5</ele><time>2026-05-03T08:00:39.758Z</time></trkpt><trkpt lat="39.2859521" lon="16.6081209"><ele>1430.6666666666667</ele><time>2026-05-03T08:00:40.768Z</time></trkpt><trkpt lat="39.2858922" lon="16.6080839"><ele>1431.8333333333335</ele><time>2026-05-03T08:00:41.762Z</time></trkpt><trkpt lat="39.2857883" lon="16.6080093"><ele>1433.0</ele><time>2026-05-03T08:00:43.761Z</time></trkpt><trkpt lat="39.285723" lon="16.6079621"><ele>1433.0</ele><time>2026-05-03T08:00:44.763Z</time></trkpt><trkpt lat="39.2856607" lon="16.6079182"><ele>1433.0</ele><time>2026-05-03T08:00:45.758Z</time></trkpt><trkpt lat="39.2855989" lon="16.607872"><ele>1433.0</ele><time>2026-05-03T08:00:46.758Z</time></trkpt><trkpt lat="39.2855335" lon="16.6078271"><ele>1433.0</ele><time>2026-05-03T08:00:47.759Z</time></trkpt><trkpt lat="39.2854683" lon="16.6077998"><ele>1433.0</ele><time>2026-05-03T08:00:48.767Z</time></trkpt><trkpt lat="39.2853477" lon="16.6077942"><ele>1433.0</ele><time>2026-05-03T08:00:50.796Z</time></trkpt><trkpt lat="39.2852808" lon="16.6077985"><ele>1437.0</ele><time>2026-05-03T08:00:51.765Z</time></trkpt><trkpt lat="39.2852172" lon="16.6077971"><ele>1441.0</ele><time>2026-05-03T08:00:52.766Z</time></trkpt><trkpt lat="39.285126" lon="16.6077766"><ele>1445.0</ele><time>2026-05-03T08:00:54.76Z</time></trkpt><trkpt lat="39.2850489" lon="16.6077229"><ele>1449.0</ele><time>2026-05-03T08:00:56.767Z</time></trkpt><trkpt lat="39.2849789" lon="16.6076827"><ele>1453.0</ele><time>2026-05-03T08:00:58.775Z</time></trkpt><trkpt lat="39.2850017" lon="16.6075904"><ele>1457.0</ele><time>2026-05-03T08:01:02.772Z</time></trkpt><trkpt lat="39.2850807" lon="16.6075339"><ele>1457.0</ele><time>2026-05-03T08:01:05.769Z</time></trkpt><trkpt lat="39.2851561" lon="16.6075089"><ele>1457.0</ele><time>2026-05-03T08:01:10.765Z</time></trkpt><trkpt lat="39.2852278" lon="16.607451"><ele>1457.0</ele><time>2026-05-03T08:01:13.771Z</time></trkpt><trkpt lat="39.2851592" lon="16.6073977"><ele>1457.0</ele><time>2026-05-03T08:01:17.773Z</time></trkpt><trkpt lat="39.2850928" lon="16.6074422"><ele>1457.0</ele><time>2026-05-03T08:01:19.762Z</time></trkpt><trkpt lat="39.285034" lon="16.6074971"><ele>1457.0</ele><time>2026-05-03T08:01:21.767Z</time></trkpt><trkpt lat="39.2849669" lon="16.6075118"><ele>1457.0</ele><time>2026-05-03T08:01:24.769Z</time></trkpt><trkpt lat="39.2848488" lon="16.6074366"><ele>1457.0</ele><time>2026-05-03T08:01:26.761Z</time></trkpt><trkpt lat="39.2847621" lon="16.6073996"><ele>1457.0</ele><time>2026-05-03T08:01:27.753Z</time></trkpt><trkpt lat="39.2846656" lon="16.6073674"><ele>1457.0</ele><time>2026-05-03T08:01:28.758Z</time></trkpt><trkpt lat="39.2845759" lon="16.6073173"><ele>1457.0</ele><time>2026-05-03T08:01:29.764Z</time></trkpt><trkpt lat="39.2845011" lon="16.6072535"><ele>1457.0</ele><time>2026-05-03T08:01:30.759Z</time></trkpt><trkpt lat="39.2844594" lon="16.6071371"><ele>1457.0</ele><time>2026-05-03T08:01:32.761Z</time></trkpt><trkpt lat="39.2845335" lon="16.6070911"><ele>1457.0</ele><time>2026-05-03T08:01:34.771Z</time></trkpt><trkpt lat="39.2846062" lon="16.6070926"><ele>1457.0</ele><time>2026-05-03T08:01:35.765Z</time></trkpt><trkpt lat="39.2846994" lon="16.6070389"><ele>1457.0</ele><time>2026-05-03T08:01:36.765Z</time></trkpt><trkpt lat="39.2847896" lon="16.6069951"><ele>1461.0</ele><time>2026-05-03T08:01:37.784Z</time></trkpt><trkpt lat="39.2848976" lon="16.6069812"><ele>1465.0</ele><time>2026-05-03T08:01:38.763Z</time></trkpt><trkpt lat="39.2850095" lon="16.6069665"><ele>1469.0</ele><time>2026-05-03T08:01:39.756Z</time></trkpt><trkpt lat="39.2850991" lon="16.6069584"><ele>1473.0</ele><time>2026-05-03T08:01:40.767Z</time></trkpt><trkpt lat="39.2851855" lon="16.6069512"><ele>1477.0</ele><time>2026-05-03T08:01:41.765Z</time></trkpt><trkpt lat="39.285275" lon="16.606944"><ele>1477.0</ele><time>2026-05-03T08:01:42.763Z</time></trkpt><trkpt lat="39.2853428" lon="16.6069417"><ele>1477.0</ele><time>2026-05-03T08:01:43.784Z</time></trkpt><trkpt lat="39.285411" lon="16.6069352"><ele>1477.0</ele><time>2026-05-03T08:01:44.764Z</time></trkpt><trkpt lat="39.2854797" lon="16.6069282"><ele>1477.0</ele><time>2026-05-03T08:01:45.767Z</time></trkpt><trkpt lat="39.2855482" lon="16.6069046"><ele>1477.0</ele><time>2026-05-03T08:01:46.767Z</time></trkpt><trkpt lat="39.2856174" lon="16.6068765"><ele>1477.0</ele><time>2026-05-03T08:01:47.764Z</time></trkpt><trkpt lat="39.2856824" lon="16.606836"><ele>1477.0</ele><time>2026-05-03T08:01:48.765Z</time></trkpt><trkpt lat="39.2857451" lon="16.6067814"><ele>1475.5</ele><time>2026-05-03T08:01:49.765Z</time></trkpt><trkpt lat="39.2858051" lon="16.6067204"><ele>1474.0</ele><time>2026-05-03T08:01:50.768Z</time></trkpt><trkpt lat="39.2858621" lon="16.6066625"><ele>1472.5</ele><time>2026-05-03T08:01:51.77Z</time></trkpt><trkpt lat="39.2859254" lon="16.6065665"><ele>1471.0</ele><time>2026-05-03T08:01:53.762Z</time></trkpt><trkpt lat="39.2859764" lon="16.6064804"><ele>1469.5</ele><time>2026-05-03T08:02:04.761Z</time></trkpt><trkpt lat="39.2858929" lon="16.6065831"><ele>1468.0</ele><time>2026-05-03T08:02:23.76Z</time></trkpt><trkpt lat="39.2858383" lon="16.6066647"><ele>1468.0</ele><time>2026-05-03T08:02:24.779Z</time></trkpt><trkpt lat="39.2857383" lon="16.6067539"><ele>1468.0</ele><time>2026-05-03T08:02:25.763Z</time></trkpt><trkpt lat="39.2856315" lon="16.6068313"><ele>1468.0</ele><time>2026-05-03T08:02:26.76Z</time></trkpt><trkpt lat="39.2854923" lon="16.6068956"><ele>1468.0</ele><time>2026-05-03T08:02:27.77Z</time></trkpt><trkpt lat="39.2853935" lon="16.606918"><ele>1469.5</ele><time>2026-05-03T08:02:28.764Z</time></trkpt><trkpt lat="39.2853239" lon="16.606928"><ele>1471.0</ele><time>2026-05-03T08:02:29.77Z</time></trkpt><trkpt lat="39.2852546" lon="16.6069173"><ele>1472.5</ele><time>2026-05-03T08:02:30.766Z</time></trkpt><trkpt lat="39.2851892" lon="16.60692"><ele>1474.0</ele><time>2026-05-03T08:02:31.774Z</time></trkpt><trkpt lat="39.2850923" lon="16.6069304"><ele>1475.5</ele><time>2026-05-03T08:02:33.766Z</time></trkpt><trkpt lat="39.2850087" lon="16.6069313"><ele>1477.0</ele><time>2026-05-03T08:02:35.77Z</time></trkpt><trkpt lat="39.2849211" lon="16.6069543"><ele>1477.0</ele><time>2026-05-03T08:02:38.772Z</time></trkpt><trkpt lat="39.2848528" lon="16.6069661"><ele>1477.0</ele><time>2026-05-03T08:02:40.771Z</time></trkpt><trkpt lat="39.2847991" lon="16.6069236"><ele>1477.0</ele><time>2026-05-03T08:02:48.791Z</time></trkpt><trkpt lat="39.2848122" lon="16.6068128"><ele>1477.0</ele><time>2026-05-03T08:02:50.788Z</time></trkpt><trkpt lat="39.2848288" lon="16.6067102"><ele>1477.0</ele><time>2026-05-03T08:02:52.775Z</time></trkpt><trkpt lat="39.284816" lon="16.6066162"><ele>1477.0</ele><time>2026-05-03T08:02:58.759Z</time></trkpt><trkpt lat="39.2847676" lon="16.6065545"><ele>1477.0</ele><time>2026-05-03T08:03:01.775Z</time></trkpt><trkpt lat="39.2847334" lon="16.6064665"><ele>1477.0</ele><time>2026-05-03T08:03:04.759Z</time></trkpt><trkpt lat="39.2847347" lon="16.6063568"><ele>1477.0</ele><time>2026-05-03T08:03:07.772Z</time></trkpt><trkpt lat="39.2847759" lon="16.606275"><ele>1477.0</ele><time>2026-05-03T08:03:09.763Z</time></trkpt><trkpt lat="39.2848195" lon="16.6061883"><ele>1477.0</ele><time>2026-05-03T08:03:11.762Z</time></trkpt><trkpt lat="39.2848372" lon="16.6060701"><ele>1477.0</ele><time>2026-05-03T08:03:14.765Z</time></trkpt><trkpt lat="39.2848428" lon="16.6059717"><ele>1477.0</ele><time>2026-05-03T08:03:16.765Z</time></trkpt><trkpt lat="39.2848748" lon="16.6058741"><ele>1479.1666666666665</ele><time>2026-05-03T08:03:19.767Z</time></trkpt><trkpt lat="39.28491" lon="16.6057778"><ele>1481.3333333333333</ele><time>2026-05-03T08:03:22.771Z</time></trkpt><trkpt lat="39.2849435" lon="16.6056896"><ele>1483.5</ele><time>2026-05-03T08:03:25.762Z</time></trkpt><trkpt lat="39.2849726" lon="16.6056012"><ele>1485.6666666666667</ele><time>2026-05-03T08:03:31.776Z</time></trkpt><trkpt lat="39.2849645" lon="16.6055107"><ele>1487.8333333333335</ele><time>2026-05-03T08:03:38.755Z</time></trkpt><trkpt lat="39.2849612" lon="16.6054263"><ele>1490.0</ele><time>2026-05-03T08:03:40.756Z</time></trkpt><trkpt lat="39.2849633" lon="16.6053214"><ele>1491.2</ele><time>2026-05-03T08:03:43.756Z</time></trkpt><trkpt lat="39.2848523" lon="16.6051811"><ele>1492.4</ele><time>2026-05-03T08:03:55.75Z</time></trkpt><trkpt lat="39.2847435" lon="16.6050843"><ele>1493.6</ele><time>2026-05-03T08:03:59.764Z</time></trkpt><trkpt lat="39.2846828" lon="16.6050441"><ele>1494.8</ele><time>2026-05-03T08:04:04.756Z</time></trkpt><trkpt lat="39.2846753" lon="16.6049424"><ele>1496.0</ele><time>2026-05-03T08:04:09.759Z</time></trkpt><trkpt lat="39.2846565" lon="16.6048413"><ele>1496.6666666666667</ele><time>2026-05-03T08:04:11.759Z</time></trkpt><trkpt lat="39.2846196" lon="16.6047374"><ele>1497.3333333333335</ele><time>2026-05-03T08:04:13.758Z</time></trkpt><trkpt lat="39.2845584" lon="16.6046581"><ele>1498.0</ele><time>2026-05-03T08:04:15.759Z</time></trkpt><trkpt lat="39.2845055" lon="16.6046115"><ele>1498.6666666666667</ele><time>2026-05-03T08:04:16.755Z</time></trkpt><trkpt lat="39.2844529" lon="16.6045359"><ele>1499.3333333333333</ele><time>2026-05-03T08:04:17.756Z</time></trkpt><trkpt lat="39.2843942" lon="16.6044805"><ele>1500.0</ele><time>2026-05-03T08:04:18.76Z</time></trkpt><trkpt lat="39.2843547" lon="16.6044126"><ele>1501.6</ele><time>2026-05-03T08:04:19.756Z</time></trkpt><trkpt lat="39.284288" lon="16.6042885"><ele>1503.2</ele><time>2026-05-03T08:04:21.761Z</time></trkpt><trkpt lat="39.2842235" lon="16.6041612"><ele>1504.8000000000002</ele><time>2026-05-03T08:04:23.759Z</time></trkpt><trkpt lat="39.2841857" lon="16.6040419"><ele>1506.4</ele><time>2026-05-03T08:04:25.762Z</time></trkpt><trkpt lat="39.2841552" lon="16.6039707"><ele>1508.0</ele><time>2026-05-03T08:04:26.762Z</time></trkpt><trkpt lat="39.2841236" lon="16.6038935"><ele>1508.0</ele><time>2026-05-03T08:04:27.756Z</time></trkpt><trkpt lat="39.2840759" lon="16.6037625"><ele>1508.0</ele><time>2026-05-03T08:04:29.765Z</time></trkpt><trkpt lat="39.2840378" lon="16.6036893"><ele>1508.0</ele><time>2026-05-03T08:04:30.764Z</time></trkpt><trkpt lat="39.2839922" lon="16.6036231"><ele>1508.0</ele><time>2026-05-03T08:04:31.768Z</time></trkpt><trkpt lat="39.2839489" lon="16.6035573"><ele>1508.0</ele><time>2026-05-03T08:04:32.754Z</time></trkpt><trkpt lat="39.2839092" lon="16.6034797"><ele>1508.0</ele><time>2026-05-03T08:04:33.752Z</time></trkpt><trkpt lat="39.283874" lon="16.6034059"><ele>1507.6666666666667</ele><time>2026-05-03T08:04:34.757Z</time></trkpt><trkpt lat="39.2838113" lon="16.6032669"><ele>1507.3333333333335</ele><time>2026-05-03T08:04:36.753Z</time></trkpt><trkpt lat="39.2837969" lon="16.6031813"><ele>1507.0</ele><time>2026-05-03T08:04:37.749Z</time></trkpt><trkpt lat="39.2837852" lon="16.6030999"><ele>1506.6666666666667</ele><time>2026-05-03T08:04:38.759Z</time></trkpt><trkpt lat="39.2837648" lon="16.6030082"><ele>1506.3333333333333</ele><time>2026-05-03T08:04:39.758Z</time></trkpt><trkpt lat="39.2837407" lon="16.6029153"><ele>1506.0</ele><time>2026-05-03T08:04:40.75Z</time></trkpt><trkpt lat="39.283711" lon="16.6027943"><ele>1506.6666666666667</ele><time>2026-05-03T08:04:42.76Z</time></trkpt><trkpt lat="39.2836681" lon="16.6027"><ele>1507.3333333333333</ele><time>2026-05-03T08:04:44.79Z</time></trkpt><trkpt lat="39.2836243" lon="16.6026165"><ele>1508.0</ele><time>2026-05-03T08:04:45.758Z</time></trkpt><trkpt lat="39.2835703" lon="16.6025257"><ele>1508.6666666666665</ele><time>2026-05-03T08:04:46.761Z</time></trkpt><trkpt lat="39.2835223" lon="16.6024524"><ele>1509.3333333333333</ele><time>2026-05-03T08:04:47.755Z</time></trkpt><trkpt lat="39.283488" lon="16.6023028"><ele>1510.0</ele><time>2026-05-03T08:04:49.756Z</time></trkpt><trkpt lat="39.2834537" lon="16.6021575"><ele>1510.0</ele><time>2026-05-03T08:04:51.753Z</time></trkpt><trkpt lat="39.2833812" lon="16.6020409"><ele>1510.0</ele><time>2026-05-03T08:04:53.756Z</time></trkpt><trkpt lat="39.2832872" lon="16.6019367"><ele>1510.0</ele><time>2026-05-03T08:04:55.759Z</time></trkpt><trkpt lat="39.2832336" lon="16.6018811"><ele>1510.0</ele><time>2026-05-03T08:04:56.751Z</time></trkpt><trkpt lat="39.2831797" lon="16.6018311"><ele>1510.0</ele><time>2026-05-03T08:04:57.759Z</time></trkpt><trkpt lat="39.283128" lon="16.6017832"><ele>1510.0</ele><time>2026-05-03T08:04:58.754Z</time></trkpt><trkpt lat="39.2830428" lon="16.6016739"><ele>1509.5</ele><time>2026-05-03T08:05:00.758Z</time></trkpt><trkpt lat="39.2830045" lon="16.6015534"><ele>1509.0</ele><time>2026-05-03T08:05:02.755Z</time></trkpt><trkpt lat="39.2829711" lon="16.6014643"><ele>1508.5</ele><time>2026-05-03T08:05:06.762Z</time></trkpt><trkpt lat="39.283014" lon="16.6013984"><ele>1508.0</ele><time>2026-05-03T08:05:11.828Z</time></trkpt><trkpt lat="39.2829818" lon="16.6013173"><ele>1507.5</ele><time>2026-05-03T08:05:15.689Z</time></trkpt><trkpt lat="39.2829215" lon="16.6012418"><ele>1507.0</ele><time>2026-05-03T08:05:17.743Z</time></trkpt><trkpt lat="39.2828698" lon="16.6011309"><ele>1508.6</ele><time>2026-05-03T08:05:18.757Z</time></trkpt><trkpt lat="39.2828228" lon="16.6010279"><ele>1510.1999999999998</ele><time>2026-05-03T08:05:19.755Z</time></trkpt><trkpt lat="39.2827703" lon="16.6009264"><ele>1511.8</ele><time>2026-05-03T08:05:20.755Z</time></trkpt><trkpt lat="39.2827245" lon="16.6008406"><ele>1513.4</ele><time>2026-05-03T08:05:21.756Z</time></trkpt><trkpt lat="39.2827025" lon="16.6007092"><ele>1515.0</ele><time>2026-05-03T08:05:23.785Z</time></trkpt><trkpt lat="39.2827267" lon="16.6006121"><ele>1515.0</ele><time>2026-05-03T08:05:25.761Z</time></trkpt><trkpt lat="39.2827078" lon="16.6004902"><ele>1515.0</ele><time>2026-05-03T08:05:27.752Z</time></trkpt><trkpt lat="39.2826487" lon="16.6003692"><ele>1515.0</ele><time>2026-05-03T08:05:29.759Z</time></trkpt><trkpt lat="39.2826075" lon="16.6002866"><ele>1515.0</ele><time>2026-05-03T08:05:30.749Z</time></trkpt><trkpt lat="39.282565" lon="16.6001884"><ele>1515.0</ele><time>2026-05-03T08:05:31.749Z</time></trkpt><trkpt lat="39.2825243" lon="16.6001243"><ele>1515.0</ele><time>2026-05-03T08:05:32.747Z</time></trkpt><trkpt lat="39.2824343" lon="16.6000254"><ele>1515.3333333333333</ele><time>2026-05-03T08:05:34.753Z</time></trkpt><trkpt lat="39.2823693" lon="16.5999748"><ele>1515.6666666666667</ele><time>2026-05-03T08:05:35.76Z</time></trkpt><trkpt lat="39.2822857" lon="16.5999733"><ele>1516.0</ele><time>2026-05-03T08:05:37.752Z</time></trkpt><trkpt lat="39.2821856" lon="16.5999134"><ele>1516.3333333333335</ele><time>2026-05-03T08:05:39.753Z</time></trkpt><trkpt lat="39.2821078" lon="16.5998527"><ele>1516.6666666666667</ele><time>2026-05-03T08:05:40.754Z</time></trkpt><trkpt lat="39.282047" lon="16.5998052"><ele>1517.0</ele><time>2026-05-03T08:05:41.752Z</time></trkpt><trkpt lat="39.2819262" lon="16.599758"><ele>1512.6</ele><time>2026-05-03T08:05:43.758Z</time></trkpt><trkpt lat="39.2818175" lon="16.5997471"><ele>1508.1999999999998</ele><time>2026-05-03T08:05:45.773Z</time></trkpt><trkpt lat="39.2816908" lon="16.5996947"><ele>1503.8</ele><time>2026-05-03T08:05:47.754Z</time></trkpt><trkpt lat="39.2816099" lon="16.5996317"><ele>1499.4</ele><time>2026-05-03T08:05:48.767Z</time></trkpt><trkpt lat="39.2815274" lon="16.5995609"><ele>1495.0</ele><time>2026-05-03T08:05:49.757Z</time></trkpt><trkpt lat="39.2814382" lon="16.5994843"><ele>1492.0</ele><time>2026-05-03T08:05:50.767Z</time></trkpt><trkpt lat="39.2813179" lon="16.5993632"><ele>1489.0</ele><time>2026-05-03T08:05:51.75Z</time></trkpt><trkpt lat="39.2812471" lon="16.5992891"><ele>1486.0</ele><time>2026-05-03T08:05:52.754Z</time></trkpt><trkpt lat="39.2811667" lon="16.5992646"><ele>1483.0</ele><time>2026-05-03T08:05:53.754Z</time></trkpt><trkpt lat="39.2810622" lon="16.5992127"><ele>1480.0</ele><time>2026-05-03T08:05:54.76Z</time></trkpt><trkpt lat="39.281002" lon="16.5991814"><ele>1480.0</ele><time>2026-05-03T08:05:55.751Z</time></trkpt><trkpt lat="39.2809333" lon="16.5991409"><ele>1480.0</ele><time>2026-05-03T08:05:56.766Z</time></trkpt><trkpt lat="39.2808674" lon="16.5991366"><ele>1480.0</ele><time>2026-05-03T08:05:58.754Z</time></trkpt><trkpt lat="39.2807899" lon="16.5991216"><ele>1480.0</ele><time>2026-05-03T08:06:04.753Z</time></trkpt><trkpt lat="39.2807456" lon="16.5989842"><ele>1480.0</ele><time>2026-05-03T08:06:11.756Z</time></trkpt><trkpt lat="39.2807437" lon="16.5988381"><ele>1480.0</ele><time>2026-05-03T08:06:12.758Z</time></trkpt><trkpt lat="39.2807312" lon="16.5986981"><ele>1481.0</ele><time>2026-05-03T08:06:13.755Z</time></trkpt><trkpt lat="39.2807123" lon="16.5985376"><ele>1482.0</ele><time>2026-05-03T08:06:14.751Z</time></trkpt><trkpt lat="39.2806823" lon="16.5983901"><ele>1483.0</ele><time>2026-05-03T08:06:15.752Z</time></trkpt><trkpt lat="39.280652" lon="16.5982482"><ele>1484.0</ele><time>2026-05-03T08:06:16.752Z</time></trkpt><trkpt lat="39.2806217" lon="16.5981171"><ele>1484.5</ele><time>2026-05-03T08:06:17.769Z</time></trkpt><trkpt lat="39.2805947" lon="16.5979801"><ele>1485.0</ele><time>2026-05-03T08:06:18.758Z</time></trkpt><trkpt lat="39.2805537" lon="16.5978097"><ele>1485.5</ele><time>2026-05-03T08:06:19.754Z</time></trkpt><trkpt lat="39.2805028" lon="16.5976252"><ele>1486.0</ele><time>2026-05-03T08:06:20.751Z</time></trkpt><trkpt lat="39.2804537" lon="16.5974463"><ele>1486.5</ele><time>2026-05-03T08:06:21.753Z</time></trkpt><trkpt lat="39.2803969" lon="16.5972689"><ele>1487.0</ele><time>2026-05-03T08:06:22.756Z</time></trkpt><trkpt lat="39.2803444" lon="16.5970876"><ele>1487.5</ele><time>2026-05-03T08:06:23.751Z</time></trkpt><trkpt lat="39.2802945" lon="16.5969143"><ele>1488.0</ele><time>2026-05-03T08:06:24.759Z</time></trkpt><trkpt lat="39.280263" lon="16.5967556"><ele>1488.0</ele><time>2026-05-03T08:06:25.75Z</time></trkpt><trkpt lat="39.2802379" lon="16.596584"><ele>1488.0</ele><time>2026-05-03T08:06:26.754Z</time></trkpt><trkpt lat="39.2802249" lon="16.596442"><ele>1488.0</ele><time>2026-05-03T08:06:27.75Z</time></trkpt><trkpt lat="39.28022" lon="16.596305"><ele>1488.0</ele><time>2026-05-03T08:06:28.755Z</time></trkpt><trkpt lat="39.2801941" lon="16.5961937"><ele>1488.0</ele><time>2026-05-03T08:06:29.758Z</time></trkpt><trkpt lat="39.2801477" lon="16.596099"><ele>1488.8000000000002</ele><time>2026-05-03T08:06:30.749Z</time></trkpt><trkpt lat="39.280081" lon="16.595994"><ele>1489.6</ele><time>2026-05-03T08:06:31.79Z</time></trkpt><trkpt lat="39.280031" lon="16.5958723"><ele>1490.4</ele><time>2026-05-03T08:06:32.75Z</time></trkpt><trkpt lat="39.2800009" lon="16.595747"><ele>1491.1999999999998</ele><time>2026-05-03T08:06:33.757Z</time></trkpt><trkpt lat="39.2799837" lon="16.5956423"><ele>1492.0</ele><time>2026-05-03T08:06:34.755Z</time></trkpt><trkpt lat="39.2799584" lon="16.5955295"><ele>1492.0</ele><time>2026-05-03T08:06:35.754Z</time></trkpt><trkpt lat="39.2799328" lon="16.59543"><ele>1492.0</ele><time>2026-05-03T08:06:36.756Z</time></trkpt><trkpt lat="39.2799023" lon="16.5953139"><ele>1492.0</ele><time>2026-05-03T08:06:37.78Z</time></trkpt><trkpt lat="39.2798797" lon="16.5951944"><ele>1492.0</ele><time>2026-05-03T08:06:38.753Z</time></trkpt><trkpt lat="39.2798555" lon="16.5950652"><ele>1492.0</ele><time>2026-05-03T08:06:39.753Z</time></trkpt><trkpt lat="39.279831" lon="16.5949229"><ele>1493.5</ele><time>2026-05-03T08:06:40.757Z</time></trkpt><trkpt lat="39.279808" lon="16.5948144"><ele>1495.0</ele><time>2026-05-03T08:06:41.755Z</time></trkpt><trkpt lat="39.2797952" lon="16.5947274"><ele>1496.5</ele><time>2026-05-03T08:06:42.769Z</time></trkpt><trkpt lat="39.2797769" lon="16.5946126"><ele>1498.0</ele><time>2026-05-03T08:06:43.757Z</time></trkpt><trkpt lat="39.2797713" lon="16.5944987"><ele>1499.5</ele><time>2026-05-03T08:06:44.761Z</time></trkpt><trkpt lat="39.2797756" lon="16.5943861"><ele>1501.0</ele><time>2026-05-03T08:06:45.752Z</time></trkpt><trkpt lat="39.2797736" lon="16.5942665"><ele>1502.4</ele><time>2026-05-03T08:06:46.755Z</time></trkpt><trkpt lat="39.2797787" lon="16.5941623"><ele>1503.8</ele><time>2026-05-03T08:06:47.755Z</time></trkpt><trkpt lat="39.2797829" lon="16.5940486"><ele>1505.2</ele><time>2026-05-03T08:06:48.761Z</time></trkpt><trkpt lat="39.279767" lon="16.5939194"><ele>1506.6000000000001</ele><time>2026-05-03T08:06:49.764Z</time></trkpt><trkpt lat="39.279752" lon="16.5938048"><ele>1508.0</ele><time>2026-05-03T08:06:50.756Z</time></trkpt><trkpt lat="39.2797315" lon="16.593688"><ele>1510.4</ele><time>2026-05-03T08:06:51.749Z</time></trkpt><trkpt lat="39.2796985" lon="16.5935607"><ele>1512.8000000000002</ele><time>2026-05-03T08:06:52.757Z</time></trkpt><trkpt lat="39.2796595" lon="16.5934311"><ele>1515.2</ele><time>2026-05-03T08:06:53.758Z</time></trkpt><trkpt lat="39.2796198" lon="16.5933088"><ele>1517.6</ele><time>2026-05-03T08:06:54.756Z</time></trkpt><trkpt lat="39.27956" lon="16.5931684"><ele>1520.0</ele><time>2026-05-03T08:06:55.762Z</time></trkpt><trkpt lat="39.2795071" lon="16.5930335"><ele>1520.0</ele><time>2026-05-03T08:06:56.756Z</time></trkpt><trkpt lat="39.2794243" lon="16.5929055"><ele>1520.0</ele><time>2026-05-03T08:06:57.759Z</time></trkpt><trkpt lat="39.279331" lon="16.5927609"><ele>1520.0</ele><time>2026-05-03T08:06:58.755Z</time></trkpt><trkpt lat="39.2792424" lon="16.5926024"><ele>1520.0</ele><time>2026-05-03T08:06:59.754Z</time></trkpt><trkpt lat="39.2791418" lon="16.5924638"><ele>1520.5</ele><time>2026-05-03T08:07:00.758Z</time></trkpt><trkpt lat="39.2790354" lon="16.5923172"><ele>1521.0</ele><time>2026-05-03T08:07:01.752Z</time></trkpt><trkpt lat="39.2789394" lon="16.5921898"><ele>1521.5</ele><time>2026-05-03T08:07:02.768Z</time></trkpt><trkpt lat="39.2788518" lon="16.5920495"><ele>1522.0</ele><time>2026-05-03T08:07:03.757Z</time></trkpt><trkpt lat="39.2787697" lon="16.5919026"><ele>1522.5</ele><time>2026-05-03T08:07:04.758Z</time></trkpt><trkpt lat="39.2786894" lon="16.59177"><ele>1523.0</ele><time>2026-05-03T08:07:05.763Z</time></trkpt><trkpt lat="39.2786059" lon="16.5916333"><ele>1523.5</ele><time>2026-05-03T08:07:06.762Z</time></trkpt><trkpt lat="39.2785192" lon="16.5915125"><ele>1524.0</ele><time>2026-05-03T08:07:07.762Z</time></trkpt><trkpt lat="39.2784327" lon="16.5913957"><ele>1524.0</ele><time>2026-05-03T08:07:08.761Z</time></trkpt><trkpt lat="39.2783477" lon="16.5912796"><ele>1524.0</ele><time>2026-05-03T08:07:09.758Z</time></trkpt><trkpt lat="39.2782633" lon="16.5911652"><ele>1524.0</ele><time>2026-05-03T08:07:10.753Z</time></trkpt><trkpt lat="39.2781809" lon="16.5910498"><ele>1524.0</ele><time>2026-05-03T08:07:11.757Z</time></trkpt><trkpt lat="39.2781" lon="16.5909251"><ele>1521.25</ele><time>2026-05-03T08:07:12.757Z</time></trkpt><trkpt lat="39.2780165" lon="16.5907966"><ele>1518.5</ele><time>2026-05-03T08:07:13.756Z</time></trkpt><trkpt lat="39.2779301" lon="16.5906681"><ele>1515.75</ele><time>2026-05-03T08:07:14.773Z</time></trkpt><trkpt lat="39.2778438" lon="16.5905436"><ele>1513.0</ele><time>2026-05-03T08:07:15.749Z</time></trkpt><trkpt lat="39.2777612" lon="16.5904215"><ele>1512.0</ele><time>2026-05-03T08:07:16.754Z</time></trkpt><trkpt lat="39.2776795" lon="16.5902887"><ele>1511.0</ele><time>2026-05-03T08:07:17.754Z</time></trkpt><trkpt lat="39.2776106" lon="16.590136"><ele>1510.0</ele><time>2026-05-03T08:07:18.752Z</time></trkpt><trkpt lat="39.2775551" lon="16.5899743"><ele>1509.0</ele><time>2026-05-03T08:07:19.755Z</time></trkpt><trkpt lat="39.2775118" lon="16.5898001"><ele>1509.0</ele><time>2026-05-03T08:07:20.758Z</time></trkpt><trkpt lat="39.2774745" lon="16.5896354"><ele>1509.0</ele><time>2026-05-03T08:07:21.75Z</time></trkpt><trkpt lat="39.2774444" lon="16.5894696"><ele>1509.0</ele><time>2026-05-03T08:07:22.769Z</time></trkpt><trkpt lat="39.2774143" lon="16.5893061"><ele>1509.0</ele><time>2026-05-03T08:07:23.755Z</time></trkpt><trkpt lat="39.2773848" lon="16.5891463"><ele>1507.5</ele><time>2026-05-03T08:07:24.752Z</time></trkpt><trkpt lat="39.2773546" lon="16.5889842"><ele>1506.0</ele><time>2026-05-03T08:07:25.751Z</time></trkpt><trkpt lat="39.2773333" lon="16.5888291"><ele>1504.5</ele><time>2026-05-03T08:07:26.753Z</time></trkpt><trkpt lat="39.2773153" lon="16.5886884"><ele>1503.0</ele><time>2026-05-03T08:07:27.751Z</time></trkpt><trkpt lat="39.2772902" lon="16.5885442"><ele>1501.0</ele><time>2026-05-03T08:07:28.755Z</time></trkpt><trkpt lat="39.2772643" lon="16.5883934"><ele>1499.0</ele><time>2026-05-03T08:07:29.755Z</time></trkpt><trkpt lat="39.2772341" lon="16.5882442"><ele>1497.0</ele><time>2026-05-03T08:07:30.75Z</time></trkpt><trkpt lat="39.2772003" lon="16.5881091"><ele>1495.0</ele><time>2026-05-03T08:07:31.755Z</time></trkpt><trkpt lat="39.2771707" lon="16.5879848"><ele>1495.0</ele><time>2026-05-03T08:07:32.753Z</time></trkpt><trkpt lat="39.2771338" lon="16.5878471"><ele>1495.0</ele><time>2026-05-03T08:07:33.755Z</time></trkpt><trkpt lat="39.2770618" lon="16.587699"><ele>1495.0</ele><time>2026-05-03T08:07:34.762Z</time></trkpt><trkpt lat="39.2769733" lon="16.5875617"><ele>1495.0</ele><time>2026-05-03T08:07:35.758Z</time></trkpt><trkpt lat="39.2769037" lon="16.587434"><ele>1495.75</ele><time>2026-05-03T08:07:36.774Z</time></trkpt><trkpt lat="39.2768686" lon="16.5872954"><ele>1496.5</ele><time>2026-05-03T08:07:37.762Z</time></trkpt><trkpt lat="39.2768864" lon="16.5871518"><ele>1497.25</ele><time>2026-05-03T08:07:38.759Z</time></trkpt><trkpt lat="39.2769359" lon="16.5870138"><ele>1498.0</ele><time>2026-05-03T08:07:39.752Z</time></trkpt><trkpt lat="39.2769864" lon="16.5868748"><ele>1498.75</ele><time>2026-05-03T08:07:40.754Z</time></trkpt><trkpt lat="39.2770267" lon="16.5867361"><ele>1499.5</ele><time>2026-05-03T08:07:41.748Z</time></trkpt><trkpt lat="39.2770687" lon="16.5865965"><ele>1500.25</ele><time>2026-05-03T08:07:42.759Z</time></trkpt><trkpt lat="39.277111" lon="16.5864623"><ele>1501.0</ele><time>2026-05-03T08:07:43.76Z</time></trkpt><trkpt lat="39.2771359" lon="16.5863125"><ele>1502.25</ele><time>2026-05-03T08:07:44.753Z</time></trkpt><trkpt lat="39.2771517" lon="16.5861402"><ele>1503.5</ele><time>2026-05-03T08:07:45.772Z</time></trkpt><trkpt lat="39.2771751" lon="16.5859754"><ele>1504.75</ele><time>2026-05-03T08:07:46.751Z</time></trkpt><trkpt lat="39.2772102" lon="16.5858271"><ele>1506.0</ele><time>2026-05-03T08:07:47.751Z</time></trkpt><trkpt lat="39.2772466" lon="16.5856933"><ele>1510.25</ele><time>2026-05-03T08:07:48.753Z</time></trkpt><trkpt lat="39.2772872" lon="16.5855528"><ele>1514.5</ele><time>2026-05-03T08:07:49.754Z</time></trkpt><trkpt lat="39.2773414" lon="16.5854161"><ele>1518.75</ele><time>2026-05-03T08:07:50.748Z</time></trkpt><trkpt lat="39.277404" lon="16.585283"><ele>1523.0</ele><time>2026-05-03T08:07:51.781Z</time></trkpt><trkpt lat="39.2774617" lon="16.5851521"><ele>1523.5</ele><time>2026-05-03T08:07:52.752Z</time></trkpt><trkpt lat="39.2775046" lon="16.5850172"><ele>1524.0</ele><time>2026-05-03T08:07:53.753Z</time></trkpt><trkpt lat="39.2775371" lon="16.5848731"><ele>1524.5</ele><time>2026-05-03T08:07:54.751Z</time></trkpt><trkpt lat="39.277584" lon="16.5847477"><ele>1525.0</ele><time>2026-05-03T08:07:55.75Z</time></trkpt><trkpt lat="39.2776495" lon="16.5846286"><ele>1525.75</ele><time>2026-05-03T08:07:56.765Z</time></trkpt><trkpt lat="39.2777174" lon="16.5845049"><ele>1526.5</ele><time>2026-05-03T08:07:57.756Z</time></trkpt><trkpt lat="39.2777939" lon="16.5843831"><ele>1527.25</ele><time>2026-05-03T08:07:58.758Z</time></trkpt><trkpt lat="39.2778774" lon="16.5842694"><ele>1528.0</ele><time>2026-05-03T08:07:59.751Z</time></trkpt><trkpt lat="39.2779634" lon="16.5841557"><ele>1528.0</ele><time>2026-05-03T08:08:00.757Z</time></trkpt><trkpt lat="39.2780498" lon="16.5840253"><ele>1528.0</ele><time>2026-05-03T08:08:01.754Z</time></trkpt><trkpt lat="39.2781413" lon="16.5838929"><ele>1528.0</ele><time>2026-05-03T08:08:02.754Z</time></trkpt><trkpt lat="39.2782367" lon="16.5837577"><ele>1528.0</ele><time>2026-05-03T08:08:03.758Z</time></trkpt><trkpt lat="39.2783335" lon="16.5836223"><ele>1530.6666666666665</ele><time>2026-05-03T08:08:04.753Z</time></trkpt><trkpt lat="39.2784348" lon="16.5834788"><ele>1533.3333333333333</ele><time>2026-05-03T08:08:05.772Z</time></trkpt><trkpt lat="39.2785429" lon="16.583334"><ele>1536.0</ele><time>2026-05-03T08:08:06.749Z</time></trkpt><trkpt lat="39.2786618" lon="16.5831919"><ele>1536.0</ele><time>2026-05-03T08:08:07.75Z</time></trkpt><trkpt lat="39.2787765" lon="16.5830507"><ele>1536.0</ele><time>2026-05-03T08:08:08.757Z</time></trkpt><trkpt lat="39.2788764" lon="16.5829312"><ele>1536.0</ele><time>2026-05-03T08:08:09.754Z</time></trkpt><trkpt lat="39.2789609" lon="16.5828322"><ele>1536.0</ele><time>2026-05-03T08:08:10.775Z</time></trkpt><trkpt lat="39.2790192" lon="16.5827276"><ele>1536.6666666666667</ele><time>2026-05-03T08:08:11.758Z</time></trkpt><trkpt lat="39.2790724" lon="16.5826562"><ele>1537.3333333333335</ele><time>2026-05-03T08:08:12.758Z</time></trkpt><trkpt lat="39.2790986" lon="16.5825646"><ele>1538.0</ele><time>2026-05-03T08:08:13.761Z</time></trkpt><trkpt lat="39.2791132" lon="16.5824639"><ele>1538.6666666666667</ele><time>2026-05-03T08:08:14.751Z</time></trkpt><trkpt lat="39.2791103" lon="16.5823381"><ele>1539.3333333333335</ele><time>2026-05-03T08:08:15.756Z</time></trkpt><trkpt lat="39.2790955" lon="16.5821924"><ele>1540.0</ele><time>2026-05-03T08:08:16.776Z</time></trkpt><trkpt lat="39.2790862" lon="16.5820502"><ele>1542.0</ele><time>2026-05-03T08:08:17.757Z</time></trkpt><trkpt lat="39.2790889" lon="16.5818976"><ele>1544.0</ele><time>2026-05-03T08:08:18.759Z</time></trkpt><trkpt lat="39.2790886" lon="16.5817392"><ele>1546.0</ele><time>2026-05-03T08:08:19.756Z</time></trkpt><trkpt lat="39.2790882" lon="16.5815852"><ele>1548.0</ele><time>2026-05-03T08:08:20.749Z</time></trkpt><trkpt lat="39.2790943" lon="16.5814361"><ele>1548.0</ele><time>2026-05-03T08:08:21.749Z</time></trkpt><trkpt lat="39.2791145" lon="16.5812875"><ele>1548.0</ele><time>2026-05-03T08:08:22.752Z</time></trkpt><trkpt lat="39.2791505" lon="16.5811345"><ele>1548.0</ele><time>2026-05-03T08:08:23.771Z</time></trkpt><trkpt lat="39.2791845" lon="16.580982"><ele>1548.0</ele><time>2026-05-03T08:08:24.754Z</time></trkpt><trkpt lat="39.2792164" lon="16.580835"><ele>1549.25</ele><time>2026-05-03T08:08:25.751Z</time></trkpt><trkpt lat="39.2792532" lon="16.5806848"><ele>1550.5</ele><time>2026-05-03T08:08:26.753Z</time></trkpt><trkpt lat="39.2792999" lon="16.5805309"><ele>1551.75</ele><time>2026-05-03T08:08:27.752Z</time></trkpt><trkpt lat="39.2793506" lon="16.5803762"><ele>1553.0</ele><time>2026-05-03T08:08:28.75Z</time></trkpt><trkpt lat="39.2793973" lon="16.5802246"><ele>1553.75</ele><time>2026-05-03T08:08:29.752Z</time></trkpt><trkpt lat="39.2794351" lon="16.5800709"><ele>1554.5</ele><time>2026-05-03T08:08:30.76Z</time></trkpt><trkpt lat="39.2794694" lon="16.5799148"><ele>1555.25</ele><time>2026-05-03T08:08:31.759Z</time></trkpt><trkpt lat="39.2794968" lon="16.5797615"><ele>1556.0</ele><time>2026-05-03T08:08:32.75Z</time></trkpt><trkpt lat="39.279515" lon="16.5795937"><ele>1555.75</ele><time>2026-05-03T08:08:33.783Z</time></trkpt><trkpt lat="39.2795298" lon="16.5794306"><ele>1555.5</ele><time>2026-05-03T08:08:34.75Z</time></trkpt><trkpt lat="39.2795278" lon="16.5792662"><ele>1555.25</ele><time>2026-05-03T08:08:35.751Z</time></trkpt><trkpt lat="39.2795163" lon="16.5791029"><ele>1555.0</ele><time>2026-05-03T08:08:36.75Z</time></trkpt><trkpt lat="39.2795005" lon="16.5789438"><ele>1555.0</ele><time>2026-05-03T08:08:37.75Z</time></trkpt><trkpt lat="39.2794991" lon="16.5787931"><ele>1555.0</ele><time>2026-05-03T08:08:38.748Z</time></trkpt><trkpt lat="39.2795444" lon="16.5786582"><ele>1555.0</ele><time>2026-05-03T08:08:39.75Z</time></trkpt><trkpt lat="39.2796091" lon="16.5785183"><ele>1555.0</ele><time>2026-05-03T08:08:40.747Z</time></trkpt><trkpt lat="39.279651" lon="16.5783668"><ele>1556.25</ele><time>2026-05-03T08:08:41.779Z</time></trkpt><trkpt lat="39.2796689" lon="16.5782138"><ele>1557.5</ele><time>2026-05-03T08:08:42.747Z</time></trkpt><trkpt lat="39.2796802" lon="16.5780667"><ele>1558.75</ele><time>2026-05-03T08:08:43.753Z</time></trkpt><trkpt lat="39.2796993" lon="16.577929"><ele>1560.0</ele><time>2026-05-03T08:08:44.753Z</time></trkpt><trkpt lat="39.2797367" lon="16.5777836"><ele>1556.0</ele><time>2026-05-03T08:08:45.759Z</time></trkpt><trkpt lat="39.2797756" lon="16.5776438"><ele>1552.0</ele><time>2026-05-03T08:08:46.755Z</time></trkpt><trkpt lat="39.2798146" lon="16.5775053"><ele>1548.0</ele><time>2026-05-03T08:08:47.768Z</time></trkpt><trkpt lat="39.2798502" lon="16.577359"><ele>1544.0</ele><time>2026-05-03T08:08:48.759Z</time></trkpt><trkpt lat="39.2798786" lon="16.5772078"><ele>1544.0</ele><time>2026-05-03T08:08:49.758Z</time></trkpt><trkpt lat="39.2799063" lon="16.5770557"><ele>1544.0</ele><time>2026-05-03T08:08:50.751Z</time></trkpt><trkpt lat="39.2799355" lon="16.5769199"><ele>1544.0</ele><time>2026-05-03T08:08:51.755Z</time></trkpt><trkpt lat="39.2799817" lon="16.5768017"><ele>1544.0</ele><time>2026-05-03T08:08:52.758Z</time></trkpt><trkpt lat="39.2800209" lon="16.5766695"><ele>1544.0</ele><time>2026-05-03T08:08:53.75Z</time></trkpt><trkpt lat="39.2800656" lon="16.5765102"><ele>1544.75</ele><time>2026-05-03T08:08:54.775Z</time></trkpt><trkpt lat="39.2800991" lon="16.5763516"><ele>1545.5</ele><time>2026-05-03T08:08:55.755Z</time></trkpt><trkpt lat="39.2801194" lon="16.5761911"><ele>1546.25</ele><time>2026-05-03T08:08:56.75Z</time></trkpt><trkpt lat="39.2801358" lon="16.5760272"><ele>1547.0</ele><time>2026-05-03T08:08:57.754Z</time></trkpt><trkpt lat="39.2801615" lon="16.5758603"><ele>1549.0</ele><time>2026-05-03T08:08:58.755Z</time></trkpt><trkpt lat="39.2801864" lon="16.5756974"><ele>1551.0</ele><time>2026-05-03T08:08:59.752Z</time></trkpt><trkpt lat="39.2802091" lon="16.5755444"><ele>1553.0</ele><time>2026-05-03T08:09:00.763Z</time></trkpt><trkpt lat="39.2802297" lon="16.5754268"><ele>1555.0</ele><time>2026-05-03T08:09:01.75Z</time></trkpt><trkpt lat="39.280241" lon="16.5752973"><ele>1557.0</ele><time>2026-05-03T08:09:02.757Z</time></trkpt><trkpt lat="39.2802533" lon="16.5751615"><ele>1557.8</ele><time>2026-05-03T08:09:03.754Z</time></trkpt><trkpt lat="39.2802649" lon="16.5750266"><ele>1558.6</ele><time>2026-05-03T08:09:04.754Z</time></trkpt><trkpt lat="39.2802701" lon="16.5749039"><ele>1559.3999999999999</ele><time>2026-05-03T08:09:05.755Z</time></trkpt><trkpt lat="39.2802659" lon="16.5747903"><ele>1560.1999999999998</ele><time>2026-05-03T08:09:06.75Z</time></trkpt><trkpt lat="39.2802413" lon="16.5746928"><ele>1561.0</ele><time>2026-05-03T08:09:07.756Z</time></trkpt><trkpt lat="39.2802194" lon="16.5745856"><ele>1561.8</ele><time>2026-05-03T08:09:08.754Z</time></trkpt><trkpt lat="39.2801948" lon="16.5744686"><ele>1562.6</ele><time>2026-05-03T08:09:09.761Z</time></trkpt><trkpt lat="39.2801762" lon="16.5743567"><ele>1563.4</ele><time>2026-05-03T08:09:10.76Z</time></trkpt><trkpt lat="39.2801804" lon="16.5742402"><ele>1564.2</ele><time>2026-05-03T08:09:11.754Z</time></trkpt><trkpt lat="39.2801906" lon="16.5741155"><ele>1565.0</ele><time>2026-05-03T08:09:12.779Z</time></trkpt><trkpt lat="39.2801937" lon="16.573995"><ele>1565.0</ele><time>2026-05-03T08:09:13.759Z</time></trkpt><trkpt lat="39.2801905" lon="16.5738704"><ele>1565.0</ele><time>2026-05-03T08:09:14.753Z</time></trkpt><trkpt lat="39.2801917" lon="16.5737402"><ele>1565.0</ele><time>2026-05-03T08:09:15.757Z</time></trkpt><trkpt lat="39.2801981" lon="16.5736156"><ele>1565.0</ele><time>2026-05-03T08:09:16.753Z</time></trkpt><trkpt lat="39.280208" lon="16.5734902"><ele>1565.0</ele><time>2026-05-03T08:09:17.785Z</time></trkpt><trkpt lat="39.2802123" lon="16.573375"><ele>1565.0</ele><time>2026-05-03T08:09:18.754Z</time></trkpt><trkpt lat="39.2802137" lon="16.573244"><ele>1565.0</ele><time>2026-05-03T08:09:19.756Z</time></trkpt><trkpt lat="39.280204" lon="16.5731119"><ele>1565.0</ele><time>2026-05-03T08:09:20.756Z</time></trkpt><trkpt lat="39.2801662" lon="16.5729833"><ele>1565.0</ele><time>2026-05-03T08:09:21.75Z</time></trkpt><trkpt lat="39.2801232" lon="16.5728391"><ele>1565.0</ele><time>2026-05-03T08:09:22.759Z</time></trkpt><trkpt lat="39.2800954" lon="16.5726923"><ele>1565.0</ele><time>2026-05-03T08:09:23.754Z</time></trkpt><trkpt lat="39.2800732" lon="16.5725487"><ele>1565.0</ele><time>2026-05-03T08:09:24.769Z</time></trkpt><trkpt lat="39.2800482" lon="16.5724083"><ele>1565.0</ele><time>2026-05-03T08:09:25.758Z</time></trkpt><trkpt lat="39.2800202" lon="16.5722534"><ele>1565.0</ele><time>2026-05-03T08:09:26.753Z</time></trkpt><trkpt lat="39.2799892" lon="16.5720993"><ele>1564.25</ele><time>2026-05-03T08:09:27.749Z</time></trkpt><trkpt lat="39.2799474" lon="16.5719557"><ele>1563.5</ele><time>2026-05-03T08:09:28.756Z</time></trkpt><trkpt lat="39.2798881" lon="16.5718269"><ele>1562.75</ele><time>2026-05-03T08:09:29.758Z</time></trkpt><trkpt lat="39.2798538" lon="16.5716709"><ele>1562.0</ele><time>2026-05-03T08:09:30.758Z</time></trkpt><trkpt lat="39.2798306" lon="16.5714956"><ele>1562.0</ele><time>2026-05-03T08:09:31.754Z</time></trkpt><trkpt lat="39.2798054" lon="16.5713206"><ele>1562.0</ele><time>2026-05-03T08:09:32.751Z</time></trkpt><trkpt lat="39.2797788" lon="16.5711441"><ele>1562.0</ele><time>2026-05-03T08:09:33.758Z</time></trkpt><trkpt lat="39.2797485" lon="16.5709703"><ele>1562.0</ele><time>2026-05-03T08:09:34.75Z</time></trkpt><trkpt lat="39.2797154" lon="16.5707988"><ele>1564.75</ele><time>2026-05-03T08:09:35.775Z</time></trkpt><trkpt lat="39.2796733" lon="16.5706362"><ele>1567.5</ele><time>2026-05-03T08:09:36.76Z</time></trkpt><trkpt lat="39.2796301" lon="16.570475"><ele>1570.25</ele><time>2026-05-03T08:09:37.755Z</time></trkpt><trkpt lat="39.2795936" lon="16.57031"><ele>1573.0</ele><time>2026-05-03T08:09:38.756Z</time></trkpt><trkpt lat="39.2795567" lon="16.5701442"><ele>1573.0</ele><time>2026-05-03T08:09:39.754Z</time></trkpt><trkpt lat="39.2795043" lon="16.5699759"><ele>1573.0</ele><time>2026-05-03T08:09:40.75Z</time></trkpt><trkpt lat="39.2794546" lon="16.5698106"><ele>1573.0</ele><time>2026-05-03T08:09:41.756Z</time></trkpt><trkpt lat="39.279414" lon="16.5696401"><ele>1573.0</ele><time>2026-05-03T08:09:42.77Z</time></trkpt><trkpt lat="39.2793834" lon="16.569474"><ele>1573.0</ele><time>2026-05-03T08:09:43.758Z</time></trkpt><trkpt lat="39.2793556" lon="16.5693018"><ele>1573.0</ele><time>2026-05-03T08:09:44.759Z</time></trkpt><trkpt lat="39.2793338" lon="16.5691216"><ele>1573.0</ele><time>2026-05-03T08:09:45.757Z</time></trkpt><trkpt lat="39.2793198" lon="16.5689414"><ele>1573.0</ele><time>2026-05-03T08:09:46.753Z</time></trkpt><trkpt lat="39.279316" lon="16.5687586"><ele>1573.25</ele><time>2026-05-03T08:09:47.754Z</time></trkpt><trkpt lat="39.2793143" lon="16.5685783"><ele>1573.5</ele><time>2026-05-03T08:09:48.76Z</time></trkpt><trkpt lat="39.2793218" lon="16.5683919"><ele>1573.75</ele><time>2026-05-03T08:09:49.758Z</time></trkpt><trkpt lat="39.279334" lon="16.5682056"><ele>1574.0</ele><time>2026-05-03T08:09:50.777Z</time></trkpt><trkpt lat="39.2793376" lon="16.5680137"><ele>1572.5</ele><time>2026-05-03T08:09:51.761Z</time></trkpt><trkpt lat="39.279334" lon="16.5678173"><ele>1571.0</ele><time>2026-05-03T08:09:52.758Z</time></trkpt><trkpt lat="39.2793369" lon="16.5676399"><ele>1569.5</ele><time>2026-05-03T08:09:53.754Z</time></trkpt><trkpt lat="39.2793426" lon="16.5674918"><ele>1568.0</ele><time>2026-05-03T08:09:54.756Z</time></trkpt><trkpt lat="39.27936" lon="16.5674044"><ele>1568.0</ele><time>2026-05-03T08:09:55.756Z</time></trkpt><trkpt lat="39.2793868" lon="16.5672938"><ele>1568.0</ele><time>2026-05-03T08:09:57.776Z</time></trkpt><trkpt lat="39.2794149" lon="16.5672009"><ele>1568.0</ele><time>2026-05-03T08:10:00.756Z</time></trkpt><trkpt lat="39.2794459" lon="16.567081"><ele>1568.0</ele><time>2026-05-03T08:10:03.758Z</time></trkpt><trkpt lat="39.2794945" lon="16.5669368"><ele>1568.0</ele><time>2026-05-03T08:10:05.757Z</time></trkpt><trkpt lat="39.2795332" lon="16.5668387"><ele>1567.4</ele><time>2026-05-03T08:10:06.761Z</time></trkpt><trkpt lat="39.2795761" lon="16.5667349"><ele>1566.8000000000002</ele><time>2026-05-03T08:10:07.758Z</time></trkpt><trkpt lat="39.2796214" lon="16.5666276"><ele>1566.2</ele><time>2026-05-03T08:10:08.756Z</time></trkpt><trkpt lat="39.2796688" lon="16.566514"><ele>1565.6</ele><time>2026-05-03T08:10:09.759Z</time></trkpt><trkpt lat="39.2797149" lon="16.5663926"><ele>1565.0</ele><time>2026-05-03T08:10:10.756Z</time></trkpt><trkpt lat="39.2797603" lon="16.5662645"><ele>1564.25</ele><time>2026-05-03T08:10:11.774Z</time></trkpt><trkpt lat="39.2798048" lon="16.5661358"><ele>1563.5</ele><time>2026-05-03T08:10:12.754Z</time></trkpt><trkpt lat="39.279848" lon="16.5659995"><ele>1562.75</ele><time>2026-05-03T08:10:13.754Z</time></trkpt><trkpt lat="39.2798892" lon="16.5658598"><ele>1562.0</ele><time>2026-05-03T08:10:14.756Z</time></trkpt><trkpt lat="39.2799319" lon="16.5657195"><ele>1562.0</ele><time>2026-05-03T08:10:15.758Z</time></trkpt><trkpt lat="39.2799772" lon="16.5655769"><ele>1562.0</ele><time>2026-05-03T08:10:16.754Z</time></trkpt><trkpt lat="39.2800235" lon="16.5654331"><ele>1562.0</ele><time>2026-05-03T08:10:17.761Z</time></trkpt><trkpt lat="39.2800625" lon="16.5652985"><ele>1562.0</ele><time>2026-05-03T08:10:18.755Z</time></trkpt><trkpt lat="39.2800775" lon="16.5651737"><ele>1562.0</ele><time>2026-05-03T08:10:19.753Z</time></trkpt><trkpt lat="39.2800621" lon="16.5650519"><ele>1561.5</ele><time>2026-05-03T08:10:20.76Z</time></trkpt><trkpt lat="39.2800289" lon="16.5649216"><ele>1561.0</ele><time>2026-05-03T08:10:21.757Z</time></trkpt><trkpt lat="39.2799946" lon="16.5647743"><ele>1560.5</ele><time>2026-05-03T08:10:22.765Z</time></trkpt><trkpt lat="39.2799648" lon="16.5646114"><ele>1560.0</ele><time>2026-05-03T08:10:23.759Z</time></trkpt><trkpt lat="39.2799441" lon="16.5644367"><ele>1559.0</ele><time>2026-05-03T08:10:24.758Z</time></trkpt><trkpt lat="39.2799303" lon="16.5642708"><ele>1558.0</ele><time>2026-05-03T08:10:25.753Z</time></trkpt><trkpt lat="39.2799101" lon="16.5641305"><ele>1557.0</ele><time>2026-05-03T08:10:26.761Z</time></trkpt><trkpt lat="39.2798838" lon="16.5640131"><ele>1556.0</ele><time>2026-05-03T08:10:27.76Z</time></trkpt><trkpt lat="39.2798529" lon="16.56391"><ele>1555.0</ele><time>2026-05-03T08:10:28.759Z</time></trkpt><trkpt lat="39.279823" lon="16.5637904"><ele>1555.0</ele><time>2026-05-03T08:10:29.754Z</time></trkpt><trkpt lat="39.2797892" lon="16.563641"><ele>1555.0</ele><time>2026-05-03T08:10:30.761Z</time></trkpt><trkpt lat="39.2797434" lon="16.5634881"><ele>1555.0</ele><time>2026-05-03T08:10:31.757Z</time></trkpt><trkpt lat="39.2796849" lon="16.563329"><ele>1555.0</ele><time>2026-05-03T08:10:32.761Z</time></trkpt><trkpt lat="39.2796168" lon="16.5631541"><ele>1555.6666666666667</ele><time>2026-05-03T08:10:33.752Z</time></trkpt><trkpt lat="39.2795314" lon="16.5629735"><ele>1556.3333333333335</ele><time>2026-05-03T08:10:34.76Z</time></trkpt><trkpt lat="39.2794425" lon="16.562788"><ele>1557.0</ele><time>2026-05-03T08:10:35.754Z</time></trkpt><trkpt lat="39.2793525" lon="16.5625849"><ele>1558.6666666666665</ele><time>2026-05-03T08:10:36.758Z</time></trkpt><trkpt lat="39.2792621" lon="16.5623733"><ele>1560.3333333333333</ele><time>2026-05-03T08:10:37.759Z</time></trkpt><trkpt lat="39.2791659" lon="16.5621589"><ele>1562.0</ele><time>2026-05-03T08:10:38.768Z</time></trkpt><trkpt lat="39.279069" lon="16.5619595"><ele>1561.6666666666665</ele><time>2026-05-03T08:10:39.754Z</time></trkpt><trkpt lat="39.2789807" lon="16.5617756"><ele>1561.3333333333335</ele><time>2026-05-03T08:10:40.758Z</time></trkpt><trkpt lat="39.2789048" lon="16.5616085"><ele>1561.0</ele><time>2026-05-03T08:10:41.758Z</time></trkpt><trkpt lat="39.2788426" lon="16.5614453"><ele>1561.0</ele><time>2026-05-03T08:10:42.76Z</time></trkpt><trkpt lat="39.2788022" lon="16.5612825"><ele>1561.0</ele><time>2026-05-03T08:10:43.754Z</time></trkpt><trkpt lat="39.2787658" lon="16.5611245"><ele>1561.0</ele><time>2026-05-03T08:10:44.758Z</time></trkpt><trkpt lat="39.2787343" lon="16.5609652"><ele>1561.0</ele><time>2026-05-03T08:10:45.757Z</time></trkpt><trkpt lat="39.2787306" lon="16.5608073"><ele>1560.75</ele><time>2026-05-03T08:10:46.756Z</time></trkpt><trkpt lat="39.2787619" lon="16.5606589"><ele>1560.5</ele><time>2026-05-03T08:10:47.757Z</time></trkpt><trkpt lat="39.2788166" lon="16.5605103"><ele>1560.25</ele><time>2026-05-03T08:10:48.755Z</time></trkpt><trkpt lat="39.2788805" lon="16.5603451"><ele>1560.0</ele><time>2026-05-03T08:10:49.776Z</time></trkpt><trkpt lat="39.2789303" lon="16.560182"><ele>1559.75</ele><time>2026-05-03T08:10:50.755Z</time></trkpt><trkpt lat="39.2789564" lon="16.5600259"><ele>1559.5</ele><time>2026-05-03T08:10:51.754Z</time></trkpt><trkpt lat="39.2789519" lon="16.5598629"><ele>1559.25</ele><time>2026-05-03T08:10:52.75Z</time></trkpt><trkpt lat="39.278923" lon="16.5596874"><ele>1559.0</ele><time>2026-05-03T08:10:53.761Z</time></trkpt><trkpt lat="39.2788717" lon="16.5594955"><ele>1559.0</ele><time>2026-05-03T08:10:54.751Z</time></trkpt><trkpt lat="39.2788168" lon="16.5593015"><ele>1559.0</ele><time>2026-05-03T08:10:55.751Z</time></trkpt><trkpt lat="39.2787593" lon="16.5591129"><ele>1559.0</ele><time>2026-05-03T08:10:56.761Z</time></trkpt><trkpt lat="39.2787094" lon="16.5589517"><ele>1559.0</ele><time>2026-05-03T08:10:57.752Z</time></trkpt><trkpt lat="39.2786642" lon="16.5587985"><ele>1559.0</ele><time>2026-05-03T08:10:58.785Z</time></trkpt><trkpt lat="39.2786174" lon="16.5586289"><ele>1559.0</ele><time>2026-05-03T08:10:59.752Z</time></trkpt><trkpt lat="39.278562" lon="16.5584464"><ele>1559.0</ele><time>2026-05-03T08:11:00.756Z</time></trkpt><trkpt lat="39.2785162" lon="16.5582739"><ele>1559.0</ele><time>2026-05-03T08:11:01.755Z</time></trkpt><trkpt lat="39.2784883" lon="16.5581186"><ele>1559.0</ele><time>2026-05-03T08:11:02.756Z</time></trkpt><trkpt lat="39.2784702" lon="16.5579625"><ele>1559.0</ele><time>2026-05-03T08:11:03.756Z</time></trkpt><trkpt lat="39.2784494" lon="16.5577956"><ele>1559.0</ele><time>2026-05-03T08:11:04.757Z</time></trkpt><trkpt lat="39.2784042" lon="16.5576121"><ele>1559.25</ele><time>2026-05-03T08:11:05.757Z</time></trkpt><trkpt lat="39.2783382" lon="16.5574442"><ele>1559.5</ele><time>2026-05-03T08:11:06.766Z</time></trkpt><trkpt lat="39.2782794" lon="16.5573046"><ele>1559.75</ele><time>2026-05-03T08:11:07.762Z</time></trkpt><trkpt lat="39.2782184" lon="16.5571797"><ele>1560.0</ele><time>2026-05-03T08:11:08.756Z</time></trkpt><trkpt lat="39.2781668" lon="16.5570347"><ele>1560.3333333333335</ele><time>2026-05-03T08:11:09.756Z</time></trkpt><trkpt lat="39.2781052" lon="16.5568627"><ele>1560.6666666666667</ele><time>2026-05-03T08:11:10.754Z</time></trkpt><trkpt lat="39.2780545" lon="16.5566646"><ele>1561.0</ele><time>2026-05-03T08:11:11.769Z</time></trkpt><trkpt lat="39.2780225" lon="16.5564485"><ele>1561.3333333333335</ele><time>2026-05-03T08:11:12.759Z</time></trkpt><trkpt lat="39.2780153" lon="16.5562196"><ele>1561.6666666666665</ele><time>2026-05-03T08:11:13.753Z</time></trkpt><trkpt lat="39.2780203" lon="16.5559835"><ele>1562.0</ele><time>2026-05-03T08:11:14.754Z</time></trkpt><trkpt lat="39.2780217" lon="16.5557474"><ele>1562.6666666666665</ele><time>2026-05-03T08:11:15.751Z</time></trkpt><trkpt lat="39.2780208" lon="16.5555297"><ele>1563.3333333333335</ele><time>2026-05-03T08:11:16.763Z</time></trkpt><trkpt lat="39.2780122" lon="16.5553266"><ele>1564.0</ele><time>2026-05-03T08:11:17.757Z</time></trkpt><trkpt lat="39.2779918" lon="16.5551154"><ele>1566.0</ele><time>2026-05-03T08:11:18.79Z</time></trkpt><trkpt lat="39.2779658" lon="16.5548979"><ele>1568.0</ele><time>2026-05-03T08:11:19.754Z</time></trkpt><trkpt lat="39.2779432" lon="16.5546745"><ele>1570.0</ele><time>2026-05-03T08:11:20.757Z</time></trkpt><trkpt lat="39.2779262" lon="16.5544668"><ele>1570.3333333333335</ele><time>2026-05-03T08:11:21.755Z</time></trkpt><trkpt lat="39.2779132" lon="16.5542686"><ele>1570.6666666666665</ele><time>2026-05-03T08:11:22.759Z</time></trkpt><trkpt lat="39.277909" lon="16.5540681"><ele>1571.0</ele><time>2026-05-03T08:11:23.754Z</time></trkpt><trkpt lat="39.2779051" lon="16.5538642"><ele>1571.75</ele><time>2026-05-03T08:11:24.765Z</time></trkpt><trkpt lat="39.2779078" lon="16.5536724"><ele>1572.5</ele><time>2026-05-03T08:11:25.76Z</time></trkpt><trkpt lat="39.2779197" lon="16.5534893"><ele>1573.25</ele><time>2026-05-03T08:11:26.759Z</time></trkpt><trkpt lat="39.2779556" lon="16.5532934"><ele>1574.0</ele><time>2026-05-03T08:11:27.752Z</time></trkpt><trkpt lat="39.277989" lon="16.5530985"><ele>1574.0</ele><time>2026-05-03T08:11:28.753Z</time></trkpt><trkpt lat="39.2780018" lon="16.5529084"><ele>1574.0</ele><time>2026-05-03T08:11:29.754Z</time></trkpt><trkpt lat="39.2779803" lon="16.5527223"><ele>1574.0</ele><time>2026-05-03T08:11:30.753Z</time></trkpt><trkpt lat="39.277939" lon="16.5525521"><ele>1574.0</ele><time>2026-05-03T08:11:31.792Z</time></trkpt><trkpt lat="39.277896" lon="16.5524166"><ele>1575.0</ele><time>2026-05-03T08:11:32.757Z</time></trkpt><trkpt lat="39.2778796" lon="16.5522996"><ele>1576.0</ele><time>2026-05-03T08:11:33.758Z</time></trkpt><trkpt lat="39.2778769" lon="16.5521679"><ele>1577.0</ele><time>2026-05-03T08:11:34.756Z</time></trkpt><trkpt lat="39.2778924" lon="16.5520363"><ele>1578.0</ele><time>2026-05-03T08:11:35.756Z</time></trkpt><trkpt lat="39.2779141" lon="16.5518924"><ele>1579.0</ele><time>2026-05-03T08:11:36.748Z</time></trkpt><trkpt lat="39.2779246" lon="16.5517283"><ele>1579.0</ele><time>2026-05-03T08:11:37.755Z</time></trkpt><trkpt lat="39.2779285" lon="16.5515438"><ele>1579.0</ele><time>2026-05-03T08:11:38.752Z</time></trkpt><trkpt lat="39.277933" lon="16.551356"><ele>1579.0</ele><time>2026-05-03T08:11:39.753Z</time></trkpt><trkpt lat="39.2779363" lon="16.551176"><ele>1579.0</ele><time>2026-05-03T08:11:40.747Z</time></trkpt><trkpt lat="39.2779378" lon="16.5509947"><ele>1579.0</ele><time>2026-05-03T08:11:41.755Z</time></trkpt><trkpt lat="39.2779362" lon="16.550823"><ele>1579.0</ele><time>2026-05-03T08:11:42.751Z</time></trkpt><trkpt lat="39.2779406" lon="16.5506536"><ele>1579.0</ele><time>2026-05-03T08:11:43.749Z</time></trkpt><trkpt lat="39.2779442" lon="16.5504932"><ele>1579.0</ele><time>2026-05-03T08:11:44.755Z</time></trkpt><trkpt lat="39.2779293" lon="16.5503328"><ele>1576.6666666666667</ele><time>2026-05-03T08:11:45.754Z</time></trkpt><trkpt lat="39.2779039" lon="16.5501506"><ele>1574.3333333333335</ele><time>2026-05-03T08:11:46.749Z</time></trkpt><trkpt lat="39.2778408" lon="16.5499628"><ele>1572.0</ele><time>2026-05-03T08:11:47.758Z</time></trkpt><trkpt lat="39.2777773" lon="16.549788"><ele>1572.0</ele><time>2026-05-03T08:11:48.75Z</time></trkpt><trkpt lat="39.2776944" lon="16.5496127"><ele>1572.0</ele><time>2026-05-03T08:11:49.753Z</time></trkpt><trkpt lat="39.2776197" lon="16.5494433"><ele>1572.0</ele><time>2026-05-03T08:11:50.758Z</time></trkpt><trkpt lat="39.2775651" lon="16.5492878"><ele>1572.0</ele><time>2026-05-03T08:11:51.752Z</time></trkpt><trkpt lat="39.2775159" lon="16.5491218"><ele>1569.5</ele><time>2026-05-03T08:11:52.773Z</time></trkpt><trkpt lat="39.2774595" lon="16.5489587"><ele>1567.0</ele><time>2026-05-03T08:11:53.756Z</time></trkpt><trkpt lat="39.2773999" lon="16.5488064"><ele>1564.5</ele><time>2026-05-03T08:11:54.757Z</time></trkpt><trkpt lat="39.2773518" lon="16.5486679"><ele>1562.0</ele><time>2026-05-03T08:11:55.753Z</time></trkpt><trkpt lat="39.2773379" lon="16.5485358"><ele>1561.1666666666665</ele><time>2026-05-03T08:11:56.762Z</time></trkpt><trkpt lat="39.2773371" lon="16.5484171"><ele>1560.3333333333333</ele><time>2026-05-03T08:11:57.754Z</time></trkpt><trkpt lat="39.2773478" lon="16.5483074"><ele>1559.5</ele><time>2026-05-03T08:11:58.761Z</time></trkpt><trkpt lat="39.2773649" lon="16.548207"><ele>1558.6666666666665</ele><time>2026-05-03T08:11:59.763Z</time></trkpt><trkpt lat="39.2773856" lon="16.5481104"><ele>1557.8333333333333</ele><time>2026-05-03T08:12:00.754Z</time></trkpt><trkpt lat="39.2774089" lon="16.5480151"><ele>1557.0</ele><time>2026-05-03T08:12:01.754Z</time></trkpt><trkpt lat="39.2774391" lon="16.5479226"><ele>1557.0</ele><time>2026-05-03T08:12:02.754Z</time></trkpt><trkpt lat="39.2774694" lon="16.5478231"><ele>1557.0</ele><time>2026-05-03T08:12:03.777Z</time></trkpt><trkpt lat="39.2774952" lon="16.5477244"><ele>1557.0</ele><time>2026-05-03T08:12:04.759Z</time></trkpt><trkpt lat="39.2775233" lon="16.5476259"><ele>1557.0</ele><time>2026-05-03T08:12:05.753Z</time></trkpt><trkpt lat="39.2775522" lon="16.5475275"><ele>1557.0</ele><time>2026-05-03T08:12:06.75Z</time></trkpt><trkpt lat="39.2775808" lon="16.5474255"><ele>1557.0</ele><time>2026-05-03T08:12:07.755Z</time></trkpt><trkpt lat="39.2776101" lon="16.5473215"><ele>1557.0</ele><time>2026-05-03T08:12:08.752Z</time></trkpt><trkpt lat="39.2776413" lon="16.5472132"><ele>1557.0</ele><time>2026-05-03T08:12:09.752Z</time></trkpt><trkpt lat="39.2776738" lon="16.547101"><ele>1557.0</ele><time>2026-05-03T08:12:10.75Z</time></trkpt><trkpt lat="39.2777085" lon="16.5469864"><ele>1557.0</ele><time>2026-05-03T08:12:11.755Z</time></trkpt><trkpt lat="39.2777471" lon="16.5468669"><ele>1557.0</ele><time>2026-05-03T08:12:12.758Z</time></trkpt><trkpt lat="39.277785" lon="16.5467413"><ele>1556.5</ele><time>2026-05-03T08:12:13.754Z</time></trkpt><trkpt lat="39.2778285" lon="16.5466088"><ele>1556.0</ele><time>2026-05-03T08:12:14.755Z</time></trkpt><trkpt lat="39.277884" lon="16.546475"><ele>1555.5</ele><time>2026-05-03T08:12:15.758Z</time></trkpt><trkpt lat="39.2779458" lon="16.5463219"><ele>1555.0</ele><time>2026-05-03T08:12:16.754Z</time></trkpt><trkpt lat="39.278006" lon="16.5461373"><ele>1554.3333333333335</ele><time>2026-05-03T08:12:17.756Z</time></trkpt><trkpt lat="39.2780651" lon="16.5459395"><ele>1553.6666666666665</ele><time>2026-05-03T08:12:18.756Z</time></trkpt><trkpt lat="39.278124" lon="16.5457283"><ele>1553.0</ele><time>2026-05-03T08:12:19.754Z</time></trkpt><trkpt lat="39.2781805" lon="16.5455125"><ele>1553.6666666666665</ele><time>2026-05-03T08:12:20.749Z</time></trkpt><trkpt lat="39.2782378" lon="16.5453032"><ele>1554.3333333333335</ele><time>2026-05-03T08:12:21.77Z</time></trkpt><trkpt lat="39.2782938" lon="16.5450896"><ele>1555.0</ele><time>2026-05-03T08:12:22.756Z</time></trkpt><trkpt lat="39.2783534" lon="16.5448582"><ele>1555.0</ele><time>2026-05-03T08:12:23.751Z</time></trkpt><trkpt lat="39.2784211" lon="16.5446163"><ele>1555.0</ele><time>2026-05-03T08:12:24.753Z</time></trkpt><trkpt lat="39.2784905" lon="16.5443649"><ele>1555.0</ele><time>2026-05-03T08:12:25.754Z</time></trkpt><trkpt lat="39.2785574" lon="16.544106"><ele>1555.3333333333335</ele><time>2026-05-03T08:12:26.749Z</time></trkpt><trkpt lat="39.2786218" lon="16.5438415"><ele>1555.6666666666665</ele><time>2026-05-03T08:12:27.751Z</time></trkpt><trkpt lat="39.2786811" lon="16.5435893"><ele>1556.0</ele><time>2026-05-03T08:12:28.754Z</time></trkpt><trkpt lat="39.2787395" lon="16.5433594"><ele>1556.0</ele><time>2026-05-03T08:12:29.754Z</time></trkpt><trkpt lat="39.2788097" lon="16.5431524"><ele>1556.0</ele><time>2026-05-03T08:12:30.753Z</time></trkpt><trkpt lat="39.2788979" lon="16.5429688"><ele>1556.0</ele><time>2026-05-03T08:12:31.754Z</time></trkpt><trkpt lat="39.2789886" lon="16.5428052"><ele>1557.3333333333333</ele><time>2026-05-03T08:12:32.771Z</time></trkpt><trkpt lat="39.2790705" lon="16.5426482"><ele>1558.6666666666665</ele><time>2026-05-03T08:12:33.756Z</time></trkpt><trkpt lat="39.2791379" lon="16.5424745"><ele>1560.0</ele><time>2026-05-03T08:12:34.753Z</time></trkpt><trkpt lat="39.2791896" lon="16.542287"><ele>1560.0</ele><time>2026-05-03T08:12:35.751Z</time></trkpt><trkpt lat="39.2792348" lon="16.5420861"><ele>1560.0</ele><time>2026-05-03T08:12:36.757Z</time></trkpt><trkpt lat="39.2792755" lon="16.5418744"><ele>1560.0</ele><time>2026-05-03T08:12:37.751Z</time></trkpt><trkpt lat="39.2793124" lon="16.5416595"><ele>1561.6666666666665</ele><time>2026-05-03T08:12:38.757Z</time></trkpt><trkpt lat="39.27935" lon="16.5414546"><ele>1563.3333333333333</ele><time>2026-05-03T08:12:39.758Z</time></trkpt><trkpt lat="39.2793901" lon="16.541268"><ele>1565.0</ele><time>2026-05-03T08:12:40.754Z</time></trkpt><trkpt lat="39.2794315" lon="16.5410971"><ele>1565.5</ele><time>2026-05-03T08:12:41.773Z</time></trkpt><trkpt lat="39.2794734" lon="16.5409365"><ele>1566.0</ele><time>2026-05-03T08:12:42.763Z</time></trkpt><trkpt lat="39.2795206" lon="16.5407762"><ele>1566.5</ele><time>2026-05-03T08:12:43.76Z</time></trkpt><trkpt lat="39.2795839" lon="16.5406378"><ele>1567.0</ele><time>2026-05-03T08:12:44.755Z</time></trkpt><trkpt lat="39.2796629" lon="16.5405307"><ele>1567.0</ele><time>2026-05-03T08:12:45.755Z</time></trkpt><trkpt lat="39.2797546" lon="16.5404182"><ele>1567.0</ele><time>2026-05-03T08:12:46.759Z</time></trkpt><trkpt lat="39.2798483" lon="16.540297"><ele>1567.0</ele><time>2026-05-03T08:12:47.76Z</time></trkpt><trkpt lat="39.2799335" lon="16.5401822"><ele>1567.0</ele><time>2026-05-03T08:12:48.766Z</time></trkpt><trkpt lat="39.2799984" lon="16.5400709"><ele>1567.3333333333335</ele><time>2026-05-03T08:12:49.758Z</time></trkpt><trkpt lat="39.2800404" lon="16.5399595"><ele>1567.6666666666667</ele><time>2026-05-03T08:12:50.778Z</time></trkpt><trkpt lat="39.2800703" lon="16.5398596"><ele>1568.0</ele><time>2026-05-03T08:12:51.759Z</time></trkpt><trkpt lat="39.2800955" lon="16.5397711"><ele>1568.3333333333335</ele><time>2026-05-03T08:12:52.756Z</time></trkpt><trkpt lat="39.280124" lon="16.5396802"><ele>1568.6666666666667</ele><time>2026-05-03T08:12:53.765Z</time></trkpt><trkpt lat="39.2801649" lon="16.5395703"><ele>1569.0</ele><time>2026-05-03T08:12:54.754Z</time></trkpt><trkpt lat="39.2802169" lon="16.539429"><ele>1569.0</ele><time>2026-05-03T08:12:55.771Z</time></trkpt><trkpt lat="39.2802733" lon="16.539276"><ele>1569.0</ele><time>2026-05-03T08:12:56.754Z</time></trkpt><trkpt lat="39.2803274" lon="16.5391322"><ele>1569.0</ele><time>2026-05-03T08:12:57.764Z</time></trkpt><trkpt lat="39.2803583" lon="16.539002"><ele>1569.0</ele><time>2026-05-03T08:12:58.754Z</time></trkpt><trkpt lat="39.2803787" lon="16.5388753"><ele>1569.0</ele><time>2026-05-03T08:12:59.759Z</time></trkpt><trkpt lat="39.2804049" lon="16.5387316"><ele>1569.0</ele><time>2026-05-03T08:13:00.758Z</time></trkpt><trkpt lat="39.2804255" lon="16.5385638"><ele>1569.0</ele><time>2026-05-03T08:13:01.759Z</time></trkpt><trkpt lat="39.2804208" lon="16.5383861"><ele>1569.0</ele><time>2026-05-03T08:13:02.762Z</time></trkpt><trkpt lat="39.2803883" lon="16.5382192"><ele>1568.0</ele><time>2026-05-03T08:13:03.758Z</time></trkpt><trkpt lat="39.2803489" lon="16.5380844"><ele>1567.0</ele><time>2026-05-03T08:13:04.761Z</time></trkpt><trkpt lat="39.2803163" lon="16.5379872"><ele>1566.0</ele><time>2026-05-03T08:13:05.755Z</time></trkpt><trkpt lat="39.2803003" lon="16.5378756"><ele>1565.0</ele><time>2026-05-03T08:13:07.762Z</time></trkpt><trkpt lat="39.2803335" lon="16.5377729"><ele>1564.0</ele><time>2026-05-03T08:13:10.76Z</time></trkpt><trkpt lat="39.2804416" lon="16.5377104"><ele>1564.1666666666667</ele><time>2026-05-03T08:13:12.763Z</time></trkpt><trkpt lat="39.280504" lon="16.5376799"><ele>1564.3333333333335</ele><time>2026-05-03T08:13:13.769Z</time></trkpt><trkpt lat="39.2805743" lon="16.5376475"><ele>1564.5</ele><time>2026-05-03T08:13:14.761Z</time></trkpt><trkpt lat="39.2806321" lon="16.5376067"><ele>1564.6666666666665</ele><time>2026-05-03T08:13:15.756Z</time></trkpt><trkpt lat="39.2807173" lon="16.5374695"><ele>1564.8333333333333</ele><time>2026-05-03T08:13:17.757Z</time></trkpt><trkpt lat="39.2807565" lon="16.5373973"><ele>1565.0</ele><time>2026-05-03T08:13:18.775Z</time></trkpt><trkpt lat="39.2808333" lon="16.5373151"><ele>1565.0</ele><time>2026-05-03T08:13:20.759Z</time></trkpt><trkpt lat="39.2808787" lon="16.5372099"><ele>1565.0</ele><time>2026-05-03T08:13:22.76Z</time></trkpt><trkpt lat="39.280929" lon="16.5370606"><ele>1565.0</ele><time>2026-05-03T08:13:24.761Z</time></trkpt><trkpt lat="39.2809445" lon="16.5369694"><ele>1565.0</ele><time>2026-05-03T08:13:25.762Z</time></trkpt><trkpt lat="39.2809518" lon="16.5368658"><ele>1565.0</ele><time>2026-05-03T08:13:26.775Z</time></trkpt><trkpt lat="39.280958" lon="16.5367501"><ele>1564.9999999999998</ele><time>2026-05-03T08:13:27.758Z</time></trkpt><trkpt lat="39.2809655" lon="16.5366328"><ele>1565.0</ele><time>2026-05-03T08:13:28.759Z</time></trkpt><trkpt lat="39.2809733" lon="16.536519"><ele>1565.0</ele><time>2026-05-03T08:13:29.758Z</time></trkpt><trkpt lat="39.2809645" lon="16.5364017"><ele>1565.0</ele><time>2026-05-03T08:13:30.757Z</time></trkpt><trkpt lat="39.2809537" lon="16.5362822"><ele>1564.9999999999998</ele><time>2026-05-03T08:13:31.793Z</time></trkpt><trkpt lat="39.2809506" lon="16.5361779"><ele>1565.0</ele><time>2026-05-03T08:13:32.758Z</time></trkpt><trkpt lat="39.2809604" lon="16.5360851"><ele>1565.8</ele><time>2026-05-03T08:13:33.755Z</time></trkpt><trkpt lat="39.2809675" lon="16.535973"><ele>1566.6</ele><time>2026-05-03T08:13:34.762Z</time></trkpt><trkpt lat="39.2809763" lon="16.5358479"><ele>1567.4</ele><time>2026-05-03T08:13:35.759Z</time></trkpt><trkpt lat="39.2809955" lon="16.5357245"><ele>1568.2</ele><time>2026-05-03T08:13:36.776Z</time></trkpt><trkpt lat="39.2810151" lon="16.5356037"><ele>1569.0</ele><time>2026-05-03T08:13:37.762Z</time></trkpt><trkpt lat="39.2810264" lon="16.5354839"><ele>1568.5</ele><time>2026-05-03T08:13:38.759Z</time></trkpt><trkpt lat="39.281039" lon="16.5353585"><ele>1568.0</ele><time>2026-05-03T08:13:39.752Z</time></trkpt><trkpt lat="39.2810541" lon="16.5352429"><ele>1567.5</ele><time>2026-05-03T08:13:40.752Z</time></trkpt><trkpt lat="39.2810477" lon="16.5351393"><ele>1567.0</ele><time>2026-05-03T08:13:42.755Z</time></trkpt><trkpt lat="39.2810102" lon="16.5350294"><ele>1566.5</ele><time>2026-05-03T08:13:44.768Z</time></trkpt><trkpt lat="39.2810025" lon="16.534942"><ele>1566.0</ele><time>2026-05-03T08:13:45.757Z</time></trkpt><trkpt lat="39.2810164" lon="16.534862"><ele>1566.0</ele><time>2026-05-03T08:13:46.761Z</time></trkpt><trkpt lat="39.2810309" lon="16.534779"><ele>1566.0</ele><time>2026-05-03T08:13:47.756Z</time></trkpt><trkpt lat="39.2810501" lon="16.5346946"><ele>1566.0</ele><time>2026-05-03T08:13:48.763Z</time></trkpt><trkpt lat="39.2810778" lon="16.5346169"><ele>1566.0</ele><time>2026-05-03T08:13:49.762Z</time></trkpt><trkpt lat="39.2811455" lon="16.5345407"><ele>1566.0</ele><time>2026-05-03T08:13:52.76Z</time></trkpt><trkpt lat="39.2812057" lon="16.5344787"><ele>1566.0</ele><time>2026-05-03T08:13:54.755Z</time></trkpt><trkpt lat="39.28123" lon="16.5344008"><ele>1566.0</ele><time>2026-05-03T08:13:55.753Z</time></trkpt><trkpt lat="39.2812455" lon="16.5343188"><ele>1566.0</ele><time>2026-05-03T08:13:59.756Z</time></trkpt><trkpt lat="39.2812836" lon="16.5341899"><ele>1566.0</ele><time>2026-05-03T08:14:11.765Z</time></trkpt><trkpt lat="39.2812905" lon="16.5340403"><ele>1566.0</ele><time>2026-05-03T08:14:13.762Z</time></trkpt><trkpt lat="39.2812968" lon="16.5338935"><ele>1566.0</ele><time>2026-05-03T08:14:15.772Z</time></trkpt><trkpt lat="39.2812896" lon="16.5337517"><ele>1566.0</ele><time>2026-05-03T08:14:17.764Z</time></trkpt><trkpt lat="39.2812388" lon="16.5336028"><ele>1567.6</ele><time>2026-05-03T08:14:19.761Z</time></trkpt><trkpt lat="39.2812188" lon="16.5334558"><ele>1569.1999999999998</ele><time>2026-05-03T08:14:21.758Z</time></trkpt><trkpt lat="39.281254" lon="16.53333"><ele>1570.8000000000002</ele><time>2026-05-03T08:14:23.759Z</time></trkpt><trkpt lat="39.2813495" lon="16.53325"><ele>1572.4</ele><time>2026-05-03T08:14:25.761Z</time></trkpt><trkpt lat="39.2814226" lon="16.5332173"><ele>1574.0</ele><time>2026-05-03T08:14:26.757Z</time></trkpt><trkpt lat="39.2815435" lon="16.5331831"><ele>1575.8333333333333</ele><time>2026-05-03T08:14:28.765Z</time></trkpt><trkpt lat="39.28162" lon="16.5331739"><ele>1577.6666666666665</ele><time>2026-05-03T08:14:29.76Z</time></trkpt><trkpt lat="39.2817025" lon="16.5331868"><ele>1579.5</ele><time>2026-05-03T08:14:30.779Z</time></trkpt><trkpt lat="39.2817809" lon="16.5332097"><ele>1581.3333333333335</ele><time>2026-05-03T08:14:31.763Z</time></trkpt><trkpt lat="39.2818673" lon="16.5332456"><ele>1583.1666666666667</ele><time>2026-05-03T08:14:32.755Z</time></trkpt><trkpt lat="39.28195" lon="16.5332932"><ele>1585.0</ele><time>2026-05-03T08:14:33.758Z</time></trkpt><trkpt lat="39.2820277" lon="16.5333667"><ele>1585.0</ele><time>2026-05-03T08:14:34.762Z</time></trkpt><trkpt lat="39.282116" lon="16.5334037"><ele>1585.0</ele><time>2026-05-03T08:14:35.757Z</time></trkpt><trkpt lat="39.2822143" lon="16.5333833"><ele>1585.0</ele><time>2026-05-03T08:14:36.756Z</time></trkpt><trkpt lat="39.2822845" lon="16.5333138"><ele>1585.0</ele><time>2026-05-03T08:14:37.762Z</time></trkpt><trkpt lat="39.2823471" lon="16.5332493"><ele>1585.0</ele><time>2026-05-03T08:14:38.761Z</time></trkpt><trkpt lat="39.2824336" lon="16.5331682"><ele>1583.8333333333335</ele><time>2026-05-03T08:14:39.761Z</time></trkpt><trkpt lat="39.2825081" lon="16.5330887"><ele>1582.6666666666667</ele><time>2026-05-03T08:14:40.781Z</time></trkpt><trkpt lat="39.2825605" lon="16.5330359"><ele>1581.5</ele><time>2026-05-03T08:14:41.762Z</time></trkpt><trkpt lat="39.2826018" lon="16.5329541"><ele>1580.3333333333335</ele><time>2026-05-03T08:14:42.752Z</time></trkpt><trkpt lat="39.2826466" lon="16.5328433"><ele>1579.1666666666667</ele><time>2026-05-03T08:14:43.763Z</time></trkpt><trkpt lat="39.2826617" lon="16.532714"><ele>1578.0</ele><time>2026-05-03T08:14:44.76Z</time></trkpt><trkpt lat="39.2826491" lon="16.532583"><ele>1580.4285714285713</ele><time>2026-05-03T08:14:45.778Z</time></trkpt><trkpt lat="39.2826318" lon="16.5324807"><ele>1582.857142857143</ele><time>2026-05-03T08:14:46.757Z</time></trkpt><trkpt lat="39.2826255" lon="16.5323925"><ele>1585.2857142857142</ele><time>2026-05-03T08:14:47.757Z</time></trkpt><trkpt lat="39.2826291" lon="16.5323076"><ele>1587.7142857142858</ele><time>2026-05-03T08:14:48.758Z</time></trkpt><trkpt lat="39.2826306" lon="16.5322094"><ele>1590.142857142857</ele><time>2026-05-03T08:14:49.758Z</time></trkpt><trkpt lat="39.2826399" lon="16.532124"><ele>1592.5714285714284</ele><time>2026-05-03T08:14:50.765Z</time></trkpt><trkpt lat="39.2826594" lon="16.5320435"><ele>1595.0</ele><time>2026-05-03T08:14:51.761Z</time></trkpt><trkpt lat="39.2826943" lon="16.5319653"><ele>1597.4</ele><time>2026-05-03T08:14:52.781Z</time></trkpt><trkpt lat="39.2827896" lon="16.5318548"><ele>1599.8</ele><time>2026-05-03T08:14:54.763Z</time></trkpt><trkpt lat="39.2828448" lon="16.5318098"><ele>1602.1999999999998</ele><time>2026-05-03T08:14:55.753Z</time></trkpt><trkpt lat="39.2829411" lon="16.5317155"><ele>1604.6</ele><time>2026-05-03T08:14:57.761Z</time></trkpt><trkpt lat="39.2829907" lon="16.5316346"><ele>1607.0</ele><time>2026-05-03T08:14:58.758Z</time></trkpt><trkpt lat="39.2830027" lon="16.5315331"><ele>1607.0</ele><time>2026-05-03T08:14:59.787Z</time></trkpt><trkpt lat="39.2830189" lon="16.5314234"><ele>1607.0</ele><time>2026-05-03T08:15:00.761Z</time></trkpt><trkpt lat="39.2830223" lon="16.5312974"><ele>1607.0</ele><time>2026-05-03T08:15:01.759Z</time></trkpt><trkpt lat="39.2830209" lon="16.5311805"><ele>1607.0</ele><time>2026-05-03T08:15:02.759Z</time></trkpt><trkpt lat="39.2830203" lon="16.5310687"><ele>1607.0</ele><time>2026-05-03T08:15:03.761Z</time></trkpt><trkpt lat="39.2830114" lon="16.5309434"><ele>1607.4999999999998</ele><time>2026-05-03T08:15:04.754Z</time></trkpt><trkpt lat="39.2829953" lon="16.5308361"><ele>1608.0</ele><time>2026-05-03T08:15:05.755Z</time></trkpt><trkpt lat="39.2829713" lon="16.5307409"><ele>1608.5</ele><time>2026-05-03T08:15:06.759Z</time></trkpt><trkpt lat="39.2829488" lon="16.5306598"><ele>1609.0</ele><time>2026-05-03T08:15:07.761Z</time></trkpt><trkpt lat="39.2829321" lon="16.5305751"><ele>1609.4999999999998</ele><time>2026-05-03T08:15:08.758Z</time></trkpt><trkpt lat="39.2829553" lon="16.5304314"><ele>1610.0</ele><time>2026-05-03T08:15:10.754Z</time></trkpt><trkpt lat="39.2830042" lon="16.5303608"><ele>1609.9999999999998</ele><time>2026-05-03T08:15:11.757Z</time></trkpt><trkpt lat="39.283078" lon="16.5303143"><ele>1610.0</ele><time>2026-05-03T08:15:12.765Z</time></trkpt><trkpt lat="39.283151" lon="16.5302879"><ele>1610.0</ele><time>2026-05-03T08:15:13.757Z</time></trkpt><trkpt lat="39.2832186" lon="16.5301845"><ele>1610.0</ele><time>2026-05-03T08:15:15.754Z</time></trkpt><trkpt lat="39.2831625" lon="16.5301071"><ele>1609.9999999999998</ele><time>2026-05-03T08:15:17.764Z</time></trkpt><trkpt lat="39.2830847" lon="16.5300984"><ele>1610.0</ele><time>2026-05-03T08:15:18.762Z</time></trkpt><trkpt lat="39.282992" lon="16.5300892"><ele>1610.0</ele><time>2026-05-03T08:15:19.761Z</time></trkpt><trkpt lat="39.2829037" lon="16.5300698"><ele>1610.0</ele><time>2026-05-03T08:15:20.762Z</time></trkpt><trkpt lat="39.2828291" lon="16.5300311"><ele>1610.0</ele><time>2026-05-03T08:15:21.767Z</time></trkpt><trkpt lat="39.2827861" lon="16.5299622"><ele>1610.0</ele><time>2026-05-03T08:15:22.756Z</time></trkpt><trkpt lat="39.2827604" lon="16.529882"><ele>1610.0</ele><time>2026-05-03T08:15:23.791Z</time></trkpt><trkpt lat="39.2827454" lon="16.5297947"><ele>1610.0</ele><time>2026-05-03T08:15:24.754Z</time></trkpt><trkpt lat="39.2827379" lon="16.5296997"><ele>1610.0</ele><time>2026-05-03T08:15:25.762Z</time></trkpt><trkpt lat="39.2827328" lon="16.5296124"><ele>1610.7142857142858</ele><time>2026-05-03T08:15:26.757Z</time></trkpt><trkpt lat="39.282774" lon="16.5295344"><ele>1611.4285714285716</ele><time>2026-05-03T08:15:27.755Z</time></trkpt><trkpt lat="39.2828124" lon="16.5294587"><ele>1612.142857142857</ele><time>2026-05-03T08:15:28.761Z</time></trkpt><trkpt lat="39.2828649" lon="16.5294021"><ele>1612.857142857143</ele><time>2026-05-03T08:15:29.755Z</time></trkpt><trkpt lat="39.2829291" lon="16.5293481"><ele>1613.5714285714287</ele><time>2026-05-03T08:15:30.756Z</time></trkpt><trkpt lat="39.2829817" lon="16.5292885"><ele>1614.2857142857142</ele><time>2026-05-03T08:15:31.794Z</time></trkpt><trkpt lat="39.2830122" lon="16.5292172"><ele>1615.0</ele><time>2026-05-03T08:15:32.762Z</time></trkpt><trkpt lat="39.2830055" lon="16.529063"><ele>1615.0000000000002</ele><time>2026-05-03T08:15:34.76Z</time></trkpt><trkpt lat="39.2829981" lon="16.5289682"><ele>1615.0</ele><time>2026-05-03T08:15:35.761Z</time></trkpt><trkpt lat="39.2829691" lon="16.528882"><ele>1615.0</ele><time>2026-05-03T08:15:36.759Z</time></trkpt><trkpt lat="39.2829604" lon="16.5287873"><ele>1615.0</ele><time>2026-05-03T08:15:37.757Z</time></trkpt><trkpt lat="39.2829794" lon="16.5286717"><ele>1615.0000000000002</ele><time>2026-05-03T08:15:38.755Z</time></trkpt><trkpt lat="39.2829904" lon="16.5285462"><ele>1615.0</ele><time>2026-05-03T08:15:39.753Z</time></trkpt><trkpt lat="39.2829753" lon="16.5284322"><ele>1616.5000000000002</ele><time>2026-05-03T08:15:40.78Z</time></trkpt><trkpt lat="39.282925" lon="16.5283341"><ele>1618.0</ele><time>2026-05-03T08:15:41.758Z</time></trkpt><trkpt lat="39.282886" lon="16.5282584"><ele>1619.5</ele><time>2026-05-03T08:15:43.766Z</time></trkpt><trkpt lat="39.2828648" lon="16.528168"><ele>1621.0</ele><time>2026-05-03T08:15:46.767Z</time></trkpt><trkpt lat="39.2828391" lon="16.5280604"><ele>1622.5000000000002</ele><time>2026-05-03T08:15:48.764Z</time></trkpt><trkpt lat="39.2828206" lon="16.5279195"><ele>1624.0</ele><time>2026-05-03T08:15:50.766Z</time></trkpt><trkpt lat="39.2827905" lon="16.5277548"><ele>1624.0000000000002</ele><time>2026-05-03T08:15:52.777Z</time></trkpt><trkpt lat="39.2827809" lon="16.5276612"><ele>1624.0</ele><time>2026-05-03T08:15:53.759Z</time></trkpt><trkpt lat="39.2827871" lon="16.5275601"><ele>1624.0</ele><time>2026-05-03T08:15:54.758Z</time></trkpt><trkpt lat="39.282795" lon="16.5274694"><ele>1624.0</ele><time>2026-05-03T08:15:55.759Z</time></trkpt><trkpt lat="39.2828095" lon="16.5273889"><ele>1624.0000000000002</ele><time>2026-05-03T08:15:56.758Z</time></trkpt><trkpt lat="39.2828423" lon="16.5272609"><ele>1624.0</ele><time>2026-05-03T08:15:58.758Z</time></trkpt><trkpt lat="39.2829069" lon="16.5271556"><ele>1624.0000000000002</ele><time>2026-05-03T08:16:00.758Z</time></trkpt><trkpt lat="39.2829278" lon="16.5270718"><ele>1624.0</ele><time>2026-05-03T08:16:01.768Z</time></trkpt><trkpt lat="39.282948" lon="16.5269764"><ele>1624.0</ele><time>2026-05-03T08:16:02.771Z</time></trkpt><trkpt lat="39.282986" lon="16.5268998"><ele>1624.0</ele><time>2026-05-03T08:16:03.762Z</time></trkpt><trkpt lat="39.2830239" lon="16.5268198"><ele>1624.0000000000002</ele><time>2026-05-03T08:16:04.758Z</time></trkpt><trkpt lat="39.2830632" lon="16.5267463"><ele>1624.0</ele><time>2026-05-03T08:16:05.757Z</time></trkpt><trkpt lat="39.283165" lon="16.5266535"><ele>1623.0000000000002</ele><time>2026-05-03T08:16:07.765Z</time></trkpt><trkpt lat="39.2832166" lon="16.5266034"><ele>1622.0</ele><time>2026-05-03T08:16:08.762Z</time></trkpt><trkpt lat="39.2832819" lon="16.5265539"><ele>1621.0</ele><time>2026-05-03T08:16:09.793Z</time></trkpt><trkpt lat="39.2833427" lon="16.526516"><ele>1620.0</ele><time>2026-05-03T08:16:10.765Z</time></trkpt><trkpt lat="39.2834328" lon="16.5264632"><ele>1619.0000000000002</ele><time>2026-05-03T08:16:12.762Z</time></trkpt><trkpt lat="39.2835021" lon="16.5264366"><ele>1618.0</ele><time>2026-05-03T08:16:14.767Z</time></trkpt><trkpt lat="39.2835804" lon="16.526394"><ele>1618.0000000000002</ele><time>2026-05-03T08:16:16.758Z</time></trkpt><trkpt lat="39.2836339" lon="16.5263498"><ele>1618.0</ele><time>2026-05-03T08:16:20.763Z</time></trkpt><trkpt lat="39.283667" lon="16.5262445"><ele>1618.0</ele><time>2026-05-03T08:16:25.759Z</time></trkpt><trkpt lat="39.2836988" lon="16.5261587"><ele>1618.0</ele><time>2026-05-03T08:16:28.761Z</time></trkpt><trkpt lat="39.2837316" lon="16.5260737"><ele>1618.0000000000002</ele><time>2026-05-03T08:16:37.762Z</time></trkpt><trkpt lat="39.2837651" lon="16.5259639"><ele>1618.0</ele><time>2026-05-03T08:16:40.763Z</time></trkpt><trkpt lat="39.2837521" lon="16.5258342"><ele>1617.8333333333335</ele><time>2026-05-03T08:16:43.759Z</time></trkpt><trkpt lat="39.2837962" lon="16.5257089"><ele>1617.6666666666667</ele><time>2026-05-03T08:16:48.759Z</time></trkpt><trkpt lat="39.2838385" lon="16.5256482"><ele>1617.5</ele><time>2026-05-03T08:16:49.765Z</time></trkpt><trkpt lat="39.2838825" lon="16.52558"><ele>1617.3333333333335</ele><time>2026-05-03T08:16:50.768Z</time></trkpt><trkpt lat="39.2839265" lon="16.5255035"><ele>1617.1666666666667</ele><time>2026-05-03T08:16:51.783Z</time></trkpt><trkpt lat="39.2839736" lon="16.5254213"><ele>1617.0</ele><time>2026-05-03T08:16:52.761Z</time></trkpt><trkpt lat="39.28402" lon="16.5253426"><ele>1616.5</ele><time>2026-05-03T08:16:53.755Z</time></trkpt><trkpt lat="39.2840538" lon="16.525256"><ele>1616.0</ele><time>2026-05-03T08:16:54.755Z</time></trkpt><trkpt lat="39.284084" lon="16.5251742"><ele>1615.5</ele><time>2026-05-03T08:16:55.762Z</time></trkpt><trkpt lat="39.2841402" lon="16.5250238"><ele>1615.0</ele><time>2026-05-03T08:16:57.755Z</time></trkpt><trkpt lat="39.2841712" lon="16.5249418"><ele>1614.5</ele><time>2026-05-03T08:16:58.757Z</time></trkpt><trkpt lat="39.2841997" lon="16.5248622"><ele>1614.0</ele><time>2026-05-03T08:16:59.763Z</time></trkpt><trkpt lat="39.2842264" lon="16.5247799"><ele>1614.0</ele><time>2026-05-03T08:17:00.763Z</time></trkpt><trkpt lat="39.2842584" lon="16.5246988"><ele>1614.0</ele><time>2026-05-03T08:17:01.76Z</time></trkpt><trkpt lat="39.2842953" lon="16.5246222"><ele>1614.0</ele><time>2026-05-03T08:17:02.769Z</time></trkpt><trkpt lat="39.2843318" lon="16.5245478"><ele>1614.0</ele><time>2026-05-03T08:17:03.756Z</time></trkpt><trkpt lat="39.2844015" lon="16.5244154"><ele>1614.0</ele><time>2026-05-03T08:17:05.766Z</time></trkpt><trkpt lat="39.2844701" lon="16.5242934"><ele>1614.0</ele><time>2026-05-03T08:17:07.816Z</time></trkpt><trkpt lat="39.2845373" lon="16.5241675"><ele>1614.6666666666667</ele><time>2026-05-03T08:17:09.757Z</time></trkpt><trkpt lat="39.2846048" lon="16.5240481"><ele>1615.3333333333335</ele><time>2026-05-03T08:17:11.758Z</time></trkpt><trkpt lat="39.2846814" lon="16.5239591"><ele>1616.0</ele><time>2026-05-03T08:17:13.76Z</time></trkpt><trkpt lat="39.2847408" lon="16.5239051"><ele>1616.6666666666667</ele><time>2026-05-03T08:17:15.755Z</time></trkpt><trkpt lat="39.2848092" lon="16.5238659"><ele>1617.3333333333335</ele><time>2026-05-03T08:17:17.75Z</time></trkpt><trkpt lat="39.2848833" lon="16.5238989"><ele>1618.0</ele><time>2026-05-03T08:17:19.758Z</time></trkpt><trkpt lat="39.2849097" lon="16.5240034"><ele>1618.0</ele><time>2026-05-03T08:17:21.759Z</time></trkpt><trkpt lat="39.2849221" lon="16.5241237"><ele>1618.0</ele><time>2026-05-03T08:17:23.753Z</time></trkpt><trkpt lat="39.2849558" lon="16.5242239"><ele>1618.0</ele><time>2026-05-03T08:17:25.755Z</time></trkpt><trkpt lat="39.284998" lon="16.5243306"><ele>1618.0</ele><time>2026-05-03T08:17:27.761Z</time></trkpt><trkpt lat="39.2850571" lon="16.524465"><ele>1618.0</ele><time>2026-05-03T08:17:29.781Z</time></trkpt><trkpt lat="39.2851208" lon="16.5246048"><ele>1618.0</ele><time>2026-05-03T08:17:31.757Z</time></trkpt><trkpt lat="39.2851946" lon="16.5246944"><ele>1618.0</ele><time>2026-05-03T08:17:33.763Z</time></trkpt><trkpt lat="39.2852761" lon="16.5246839"><ele>1618.0</ele><time>2026-05-03T08:17:35.758Z</time></trkpt><trkpt lat="39.2853406" lon="16.5246013"><ele>1618.0</ele><time>2026-05-03T08:17:37.758Z</time></trkpt><trkpt lat="39.285385" lon="16.5244735"><ele>1618.0</ele><time>2026-05-03T08:17:39.781Z</time></trkpt><trkpt lat="39.285435" lon="16.5243759"><ele>1618.0000000000002</ele><time>2026-05-03T08:17:41.757Z</time></trkpt><trkpt lat="39.2854913" lon="16.5243002"><ele>1618.0</ele><time>2026-05-03T08:17:44.758Z</time></trkpt><trkpt lat="39.2855435" lon="16.5242457"><ele>1618.0</ele><time>2026-05-03T08:17:46.76Z</time></trkpt><trkpt lat="39.2856257" lon="16.5241842"><ele>1618.0</ele><time>2026-05-03T08:17:48.766Z</time></trkpt><trkpt lat="39.2857316" lon="16.524128"><ele>1618.0000000000002</ele><time>2026-05-03T08:17:50.767Z</time></trkpt><trkpt lat="39.2857923" lon="16.5240802"><ele>1618.0</ele><time>2026-05-03T08:17:51.76Z</time></trkpt><trkpt lat="39.2858547" lon="16.5240115"><ele>1617.6666666666667</ele><time>2026-05-03T08:17:52.757Z</time></trkpt><trkpt lat="39.2859184" lon="16.5239402"><ele>1617.3333333333335</ele><time>2026-05-03T08:17:53.758Z</time></trkpt><trkpt lat="39.2859812" lon="16.5238647"><ele>1617.0</ele><time>2026-05-03T08:17:54.757Z</time></trkpt><trkpt lat="39.2860412" lon="16.5237859"><ele>1616.6666666666665</ele><time>2026-05-03T08:17:55.763Z</time></trkpt><trkpt lat="39.2860946" lon="16.5237151"><ele>1616.3333333333333</ele><time>2026-05-03T08:17:56.757Z</time></trkpt><trkpt lat="39.2861345" lon="16.5236515"><ele>1616.0</ele><time>2026-05-03T08:17:57.755Z</time></trkpt><trkpt lat="39.2862012" lon="16.523511"><ele>1618.4</ele><time>2026-05-03T08:17:59.755Z</time></trkpt><trkpt lat="39.286214" lon="16.5234154"><ele>1620.8</ele><time>2026-05-03T08:18:00.773Z</time></trkpt><trkpt lat="39.2862218" lon="16.5233212"><ele>1623.2</ele><time>2026-05-03T08:18:01.755Z</time></trkpt><trkpt lat="39.2862387" lon="16.5231829"><ele>1625.6000000000001</ele><time>2026-05-03T08:18:03.753Z</time></trkpt><trkpt lat="39.2862304" lon="16.5230675"><ele>1628.0</ele><time>2026-05-03T08:18:05.754Z</time></trkpt><trkpt lat="39.2861907" lon="16.5229431"><ele>1628.8000000000002</ele><time>2026-05-03T08:18:07.758Z</time></trkpt><trkpt lat="39.2861839" lon="16.5227932"><ele>1629.6</ele><time>2026-05-03T08:18:09.752Z</time></trkpt><trkpt lat="39.2862044" lon="16.5227105"><ele>1630.4</ele><time>2026-05-03T08:18:10.757Z</time></trkpt><trkpt lat="39.2862728" lon="16.5225691"><ele>1631.1999999999998</ele><time>2026-05-03T08:18:12.76Z</time></trkpt><trkpt lat="39.2863561" lon="16.5224765"><ele>1632.0</ele><time>2026-05-03T08:18:14.757Z</time></trkpt><trkpt lat="39.2864703" lon="16.5224942"><ele>1632.0</ele><time>2026-05-03T08:18:16.761Z</time></trkpt><trkpt lat="39.2865381" lon="16.5225257"><ele>1632.0</ele><time>2026-05-03T08:18:17.76Z</time></trkpt><trkpt lat="39.2866085" lon="16.5225702"><ele>1632.0</ele><time>2026-05-03T08:18:18.762Z</time></trkpt><trkpt lat="39.2866758" lon="16.5226175"><ele>1632.0</ele><time>2026-05-03T08:18:19.756Z</time></trkpt><trkpt lat="39.2867435" lon="16.5226612"><ele>1632.0</ele><time>2026-05-03T08:18:20.758Z</time></trkpt><trkpt lat="39.2868112" lon="16.5226822"><ele>1632.0</ele><time>2026-05-03T08:18:21.754Z</time></trkpt><trkpt lat="39.2868765" lon="16.522678"><ele>1632.0</ele><time>2026-05-03T08:18:22.76Z</time></trkpt><trkpt lat="39.2869396" lon="16.5226399"><ele>1632.0</ele><time>2026-05-03T08:18:23.757Z</time></trkpt><trkpt lat="39.2869992" lon="16.5225834"><ele>1632.0</ele><time>2026-05-03T08:18:24.759Z</time></trkpt><trkpt lat="39.2870662" lon="16.5224636"><ele>1632.0</ele><time>2026-05-03T08:18:26.759Z</time></trkpt><trkpt lat="39.2871188" lon="16.5223331"><ele>1632.0</ele><time>2026-05-03T08:18:28.757Z</time></trkpt><trkpt lat="39.2871734" lon="16.5221966"><ele>1632.0</ele><time>2026-05-03T08:18:30.762Z</time></trkpt><trkpt lat="39.287259" lon="16.5220869"><ele>1631.25</ele><time>2026-05-03T08:18:32.758Z</time></trkpt><trkpt lat="39.2873255" lon="16.5219556"><ele>1630.5</ele><time>2026-05-03T08:18:34.76Z</time></trkpt><trkpt lat="39.2873956" lon="16.521827"><ele>1629.75</ele><time>2026-05-03T08:18:36.766Z</time></trkpt><trkpt lat="39.2874725" lon="16.5217361"><ele>1629.0</ele><time>2026-05-03T08:18:38.765Z</time></trkpt><trkpt lat="39.2875732" lon="16.5216478"><ele>1629.0</ele><time>2026-05-03T08:18:40.757Z</time></trkpt><trkpt lat="39.2876518" lon="16.5215361"><ele>1629.0</ele><time>2026-05-03T08:18:42.756Z</time></trkpt><trkpt lat="39.2877137" lon="16.5213996"><ele>1629.0</ele><time>2026-05-03T08:18:44.763Z</time></trkpt><trkpt lat="39.2877529" lon="16.5212684"><ele>1629.0</ele><time>2026-05-03T08:18:46.761Z</time></trkpt><trkpt lat="39.2878585" lon="16.521165"><ele>1629.7142857142856</ele><time>2026-05-03T08:18:48.775Z</time></trkpt><trkpt lat="39.2879115" lon="16.5211082"><ele>1630.4285714285716</ele><time>2026-05-03T08:18:49.758Z</time></trkpt><trkpt lat="39.2879635" lon="16.5210449"><ele>1631.142857142857</ele><time>2026-05-03T08:18:50.761Z</time></trkpt><trkpt lat="39.2880141" lon="16.5209776"><ele>1631.8571428571427</ele><time>2026-05-03T08:18:51.759Z</time></trkpt><trkpt lat="39.2880544" lon="16.5209144"><ele>1632.5714285714284</ele><time>2026-05-03T08:18:52.761Z</time></trkpt><trkpt lat="39.2880863" lon="16.5207984"><ele>1633.2857142857142</ele><time>2026-05-03T08:18:54.781Z</time></trkpt><trkpt lat="39.2881169" lon="16.5207193"><ele>1634.0</ele><time>2026-05-03T08:18:56.758Z</time></trkpt><trkpt lat="39.2881679" lon="16.5206587"><ele>1634.8000000000002</ele><time>2026-05-03T08:18:58.759Z</time></trkpt><trkpt lat="39.2882172" lon="16.5206074"><ele>1635.6000000000001</ele><time>2026-05-03T08:19:01.779Z</time></trkpt><trkpt lat="39.2881557" lon="16.520536"><ele>1636.4</ele><time>2026-05-03T08:19:03.758Z</time></trkpt><trkpt lat="39.2881004" lon="16.5204089"><ele>1637.2</ele><time>2026-05-03T08:19:05.763Z</time></trkpt><trkpt lat="39.288071" lon="16.5202555"><ele>1638.0</ele><time>2026-05-03T08:19:07.774Z</time></trkpt><trkpt lat="39.2881228" lon="16.5201159"><ele>1634.8000000000002</ele><time>2026-05-03T08:19:09.76Z</time></trkpt><trkpt lat="39.2881874" lon="16.5200474"><ele>1631.6</ele><time>2026-05-03T08:19:10.764Z</time></trkpt><trkpt lat="39.2882524" lon="16.5199878"><ele>1628.4</ele><time>2026-05-03T08:19:11.759Z</time></trkpt><trkpt lat="39.2883112" lon="16.519938"><ele>1625.1999999999998</ele><time>2026-05-03T08:19:12.777Z</time></trkpt><trkpt lat="39.2883883" lon="16.5198384"><ele>1622.0</ele><time>2026-05-03T08:19:14.764Z</time></trkpt><trkpt lat="39.2883791" lon="16.5196813"><ele>1622.0</ele><time>2026-05-03T08:19:16.763Z</time></trkpt><trkpt lat="39.2883461" lon="16.5196064"><ele>1622.0</ele><time>2026-05-03T08:19:17.763Z</time></trkpt><trkpt lat="39.2883079" lon="16.5195295"><ele>1622.0</ele><time>2026-05-03T08:19:18.762Z</time></trkpt><trkpt lat="39.288238" lon="16.5194088"><ele>1622.0</ele><time>2026-05-03T08:19:20.769Z</time></trkpt><trkpt lat="39.2881783" lon="16.5193002"><ele>1622.0</ele><time>2026-05-03T08:19:22.782Z</time></trkpt><trkpt lat="39.2880682" lon="16.5192466"><ele>1626.1999999999998</ele><time>2026-05-03T08:19:24.774Z</time></trkpt><trkpt lat="39.2880119" lon="16.5191433"><ele>1630.4</ele><time>2026-05-03T08:19:26.774Z</time></trkpt><trkpt lat="39.288035" lon="16.5190299"><ele>1634.6</ele><time>2026-05-03T08:19:28.774Z</time></trkpt><trkpt lat="39.2880645" lon="16.5189283"><ele>1638.8000000000002</ele><time>2026-05-03T08:19:31.763Z</time></trkpt><trkpt lat="39.2880162" lon="16.5187911"><ele>1643.0</ele><time>2026-05-03T08:19:34.765Z</time></trkpt><trkpt lat="39.2879895" lon="16.5187167"><ele>1643.3333333333333</ele><time>2026-05-03T08:19:35.772Z</time></trkpt><trkpt lat="39.2879522" lon="16.5185988"><ele>1643.6666666666665</ele><time>2026-05-03T08:19:37.765Z</time></trkpt><trkpt lat="39.2879408" lon="16.5184955"><ele>1644.0</ele><time>2026-05-03T08:19:39.784Z</time></trkpt><trkpt lat="39.2879251" lon="16.5183891"><ele>1644.3333333333335</ele><time>2026-05-03T08:19:41.777Z</time></trkpt><trkpt lat="39.2879003" lon="16.5182505"><ele>1644.6666666666667</ele><time>2026-05-03T08:19:43.77Z</time></trkpt><trkpt lat="39.2879059" lon="16.5181691"><ele>1645.0</ele><time>2026-05-03T08:19:44.773Z</time></trkpt><trkpt lat="39.2879248" lon="16.5180795"><ele>1645.0</ele><time>2026-05-03T08:19:45.77Z</time></trkpt><trkpt lat="39.2879346" lon="16.5179964"><ele>1645.0</ele><time>2026-05-03T08:19:46.774Z</time></trkpt><trkpt lat="39.2879224" lon="16.5178519"><ele>1645.0</ele><time>2026-05-03T08:19:48.765Z</time></trkpt><trkpt lat="39.2879376" lon="16.5177088"><ele>1645.0</ele><time>2026-05-03T08:19:50.769Z</time></trkpt><trkpt lat="39.2879142" lon="16.5175785"><ele>1645.0</ele><time>2026-05-03T08:19:52.778Z</time></trkpt><trkpt lat="39.2878593" lon="16.5174743"><ele>1644.8</ele><time>2026-05-03T08:19:54.768Z</time></trkpt><trkpt lat="39.2878432" lon="16.5173598"><ele>1644.6</ele><time>2026-05-03T08:19:56.773Z</time></trkpt><trkpt lat="39.2878335" lon="16.5172032"><ele>1644.4</ele><time>2026-05-03T08:19:58.766Z</time></trkpt><trkpt lat="39.2878446" lon="16.5170569"><ele>1644.2</ele><time>2026-05-03T08:20:00.768Z</time></trkpt><trkpt lat="39.2878623" lon="16.516934"><ele>1644.0</ele><time>2026-05-03T08:20:02.78Z</time></trkpt><trkpt lat="39.2878428" lon="16.5168017"><ele>1643.1666666666667</ele><time>2026-05-03T08:20:04.762Z</time></trkpt><trkpt lat="39.2878155" lon="16.5167233"><ele>1642.3333333333335</ele><time>2026-05-03T08:20:05.764Z</time></trkpt><trkpt lat="39.2877778" lon="16.5166368"><ele>1641.5</ele><time>2026-05-03T08:20:06.77Z</time></trkpt><trkpt lat="39.2877469" lon="16.5165442"><ele>1640.6666666666667</ele><time>2026-05-03T08:20:07.765Z</time></trkpt><trkpt lat="39.2877266" lon="16.5164605"><ele>1639.8333333333335</ele><time>2026-05-03T08:20:08.762Z</time></trkpt><trkpt lat="39.2877104" lon="16.516381"><ele>1639.0</ele><time>2026-05-03T08:20:11.774Z</time></trkpt><trkpt lat="39.2876972" lon="16.5162508"><ele>1637.6</ele><time>2026-05-03T08:20:13.764Z</time></trkpt><trkpt lat="39.2876896" lon="16.5161606"><ele>1636.2</ele><time>2026-05-03T08:20:14.768Z</time></trkpt><trkpt lat="39.287681" lon="16.5160772"><ele>1634.8</ele><time>2026-05-03T08:20:15.765Z</time></trkpt><trkpt lat="39.287655" lon="16.5159396"><ele>1633.3999999999999</ele><time>2026-05-03T08:20:17.778Z</time></trkpt><trkpt lat="39.287633" lon="16.5158117"><ele>1632.0</ele><time>2026-05-03T08:20:19.764Z</time></trkpt><trkpt lat="39.2876003" lon="16.5156815"><ele>1632.0</ele><time>2026-05-03T08:20:21.762Z</time></trkpt><trkpt lat="39.2875272" lon="16.5155697"><ele>1632.0</ele><time>2026-05-03T08:20:23.767Z</time></trkpt><trkpt lat="39.2874141" lon="16.5154968"><ele>1632.0</ele><time>2026-05-03T08:20:25.768Z</time></trkpt><trkpt lat="39.287352" lon="16.5154079"><ele>1632.0</ele><time>2026-05-03T08:20:27.767Z</time></trkpt><trkpt lat="39.2872991" lon="16.51533"><ele>1632.0</ele><time>2026-05-03T08:20:29.768Z</time></trkpt><trkpt lat="39.2872335" lon="16.515257"><ele>1634.6666666666667</ele><time>2026-05-03T08:20:31.769Z</time></trkpt><trkpt lat="39.2871427" lon="16.5151526"><ele>1637.3333333333335</ele><time>2026-05-03T08:20:33.767Z</time></trkpt><trkpt lat="39.2870764" lon="16.5150722"><ele>1640.0</ele><time>2026-05-03T08:20:35.77Z</time></trkpt><trkpt lat="39.2870121" lon="16.5149864"><ele>1642.6666666666667</ele><time>2026-05-03T08:20:38.771Z</time></trkpt><trkpt lat="39.2869989" lon="16.5149057"><ele>1645.3333333333335</ele><time>2026-05-03T08:20:40.769Z</time></trkpt><trkpt lat="39.2870013" lon="16.5148128"><ele>1648.0</ele><time>2026-05-03T08:20:42.774Z</time></trkpt><trkpt lat="39.2869896" lon="16.5146981"><ele>1647.8000000000002</ele><time>2026-05-03T08:20:44.765Z</time></trkpt><trkpt lat="39.2869506" lon="16.5145696"><ele>1647.6</ele><time>2026-05-03T08:20:46.762Z</time></trkpt><trkpt lat="39.2869423" lon="16.5144388"><ele>1647.4</ele><time>2026-05-03T08:20:48.775Z</time></trkpt><trkpt lat="39.2869648" lon="16.5143025"><ele>1647.1999999999998</ele><time>2026-05-03T08:20:50.777Z</time></trkpt><trkpt lat="39.2869854" lon="16.5141926"><ele>1647.0</ele><time>2026-05-03T08:20:52.765Z</time></trkpt><trkpt lat="39.2870004" lon="16.5140566"><ele>1647.0</ele><time>2026-05-03T08:20:54.77Z</time></trkpt><trkpt lat="39.2869956" lon="16.5139337"><ele>1647.0</ele><time>2026-05-03T08:20:56.767Z</time></trkpt><trkpt lat="39.2870243" lon="16.5138378"><ele>1647.0</ele><time>2026-05-03T08:20:59.772Z</time></trkpt><trkpt lat="39.2870517" lon="16.5137334"><ele>1647.0</ele><time>2026-05-03T08:21:02.773Z</time></trkpt><trkpt lat="39.2870703" lon="16.5136358"><ele>1647.0</ele><time>2026-05-03T08:21:04.769Z</time></trkpt><trkpt lat="39.2871226" lon="16.5135671"><ele>1647.0</ele><time>2026-05-03T08:21:06.768Z</time></trkpt><trkpt lat="39.2872101" lon="16.513544"><ele>1644.0</ele><time>2026-05-03T08:21:08.769Z</time></trkpt><trkpt lat="39.2873115" lon="16.5134801"><ele>1641.0</ele><time>2026-05-03T08:21:10.77Z</time></trkpt><trkpt lat="39.2873683" lon="16.5134442"><ele>1638.0</ele><time>2026-05-03T08:21:11.77Z</time></trkpt><trkpt lat="39.287454" lon="16.5133488"><ele>1635.0</ele><time>2026-05-03T08:21:13.769Z</time></trkpt><trkpt lat="39.2874973" lon="16.5132333"><ele>1632.0</ele><time>2026-05-03T08:21:15.77Z</time></trkpt><trkpt lat="39.2875274" lon="16.5131533"><ele>1632.0</ele><time>2026-05-03T08:21:16.761Z</time></trkpt><trkpt lat="39.2875637" lon="16.5130662"><ele>1632.0</ele><time>2026-05-03T08:21:17.782Z</time></trkpt><trkpt lat="39.2876036" lon="16.5129766"><ele>1632.0</ele><time>2026-05-03T08:21:18.765Z</time></trkpt><trkpt lat="39.2876444" lon="16.512897"><ele>1632.0</ele><time>2026-05-03T08:21:19.762Z</time></trkpt><trkpt lat="39.2876802" lon="16.5128263"><ele>1632.0</ele><time>2026-05-03T08:21:20.779Z</time></trkpt><trkpt lat="39.2876967" lon="16.5127421"><ele>1632.0</ele><time>2026-05-03T08:21:21.768Z</time></trkpt><trkpt lat="39.2876826" lon="16.5126534"><ele>1632.0</ele><time>2026-05-03T08:21:22.763Z</time></trkpt><trkpt lat="39.2876459" lon="16.5125786"><ele>1631.7142857142858</ele><time>2026-05-03T08:21:23.762Z</time></trkpt><trkpt lat="39.287591" lon="16.5125264"><ele>1631.4285714285716</ele><time>2026-05-03T08:21:24.767Z</time></trkpt><trkpt lat="39.2875227" lon="16.51249"><ele>1631.142857142857</ele><time>2026-05-03T08:21:25.779Z</time></trkpt><trkpt lat="39.2874491" lon="16.5124585"><ele>1630.857142857143</ele><time>2026-05-03T08:21:26.764Z</time></trkpt><trkpt lat="39.2873783" lon="16.5124276"><ele>1630.5714285714284</ele><time>2026-05-03T08:21:27.774Z</time></trkpt><trkpt lat="39.287308" lon="16.5123903"><ele>1630.2857142857142</ele><time>2026-05-03T08:21:28.763Z</time></trkpt><trkpt lat="39.2872486" lon="16.5123355"><ele>1630.0</ele><time>2026-05-03T08:21:29.776Z</time></trkpt><trkpt lat="39.287197" lon="16.5122805"><ele>1632.2</ele><time>2026-05-03T08:21:31.768Z</time></trkpt><trkpt lat="39.287141" lon="16.5122027"><ele>1634.4</ele><time>2026-05-03T08:21:34.773Z</time></trkpt><trkpt lat="39.2870902" lon="16.5121322"><ele>1636.6</ele><time>2026-05-03T08:21:36.762Z</time></trkpt><trkpt lat="39.287002" lon="16.5120232"><ele>1638.8</ele><time>2026-05-03T08:21:38.773Z</time></trkpt><trkpt lat="39.2869187" lon="16.5119462"><ele>1641.0</ele><time>2026-05-03T08:21:40.766Z</time></trkpt><trkpt lat="39.2868305" lon="16.5118991"><ele>1641.0</ele><time>2026-05-03T08:21:42.77Z</time></trkpt><trkpt lat="39.286812" lon="16.5118123"><ele>1641.0</ele><time>2026-05-03T08:21:46.762Z</time></trkpt><trkpt lat="39.28686" lon="16.5117411"><ele>1641.0</ele><time>2026-05-03T08:21:48.767Z</time></trkpt><trkpt lat="39.2869529" lon="16.5116622"><ele>1641.0</ele><time>2026-05-03T08:21:50.767Z</time></trkpt><trkpt lat="39.2870535" lon="16.5116089"><ele>1641.0</ele><time>2026-05-03T08:21:52.771Z</time></trkpt><trkpt lat="39.2871272" lon="16.5115756"><ele>1641.0</ele><time>2026-05-03T08:21:55.783Z</time></trkpt><trkpt lat="39.287175" lon="16.5115158"><ele>1641.0</ele><time>2026-05-03T08:21:58.77Z</time></trkpt><trkpt lat="39.2872028" lon="16.5114207"><ele>1641.0</ele><time>2026-05-03T08:22:02.765Z</time></trkpt><trkpt lat="39.28723" lon="16.5113449"><ele>1641.0</ele><time>2026-05-03T08:22:05.771Z</time></trkpt><trkpt lat="39.2872734" lon="16.5112555"><ele>1641.0</ele><time>2026-05-03T08:22:17.765Z</time></trkpt><trkpt lat="39.2873619" lon="16.5112247"><ele>1641.0</ele><time>2026-05-03T08:22:20.772Z</time></trkpt><trkpt lat="39.2874508" lon="16.5112605"><ele>1641.0</ele><time>2026-05-03T08:22:22.764Z</time></trkpt><trkpt lat="39.2875293" lon="16.5112706"><ele>1641.25</ele><time>2026-05-03T08:22:24.765Z</time></trkpt><trkpt lat="39.2876473" lon="16.5112152"><ele>1641.5</ele><time>2026-05-03T08:22:26.764Z</time></trkpt><trkpt lat="39.2877283" lon="16.5111324"><ele>1641.75</ele><time>2026-05-03T08:22:28.773Z</time></trkpt><trkpt lat="39.2877556" lon="16.510991"><ele>1642.0</ele><time>2026-05-03T08:22:30.773Z</time></trkpt><trkpt lat="39.2877805" lon="16.5108361"><ele>1642.0000000000002</ele><time>2026-05-03T08:22:32.763Z</time></trkpt><trkpt lat="39.2877997" lon="16.5107539"><ele>1642.0</ele><time>2026-05-03T08:22:33.766Z</time></trkpt><trkpt lat="39.2878078" lon="16.5106685"><ele>1642.0</ele><time>2026-05-03T08:22:34.773Z</time></trkpt><trkpt lat="39.2878218" lon="16.5105842"><ele>1642.0</ele><time>2026-05-03T08:22:35.771Z</time></trkpt><trkpt lat="39.2878366" lon="16.5105012"><ele>1642.0</ele><time>2026-05-03T08:22:36.768Z</time></trkpt><trkpt lat="39.2878529" lon="16.5104189"><ele>1642.0000000000002</ele><time>2026-05-03T08:22:37.769Z</time></trkpt><trkpt lat="39.2878712" lon="16.5103404"><ele>1642.0</ele><time>2026-05-03T08:22:38.77Z</time></trkpt><trkpt lat="39.2879058" lon="16.5102008"><ele>1642.3333333333335</ele><time>2026-05-03T08:22:40.792Z</time></trkpt><trkpt lat="39.2879441" lon="16.5100839"><ele>1642.6666666666667</ele><time>2026-05-03T08:22:42.764Z</time></trkpt><trkpt lat="39.2879935" lon="16.5099778"><ele>1643.0</ele><time>2026-05-03T08:22:44.771Z</time></trkpt><trkpt lat="39.288012" lon="16.5098684"><ele>1643.3333333333335</ele><time>2026-05-03T08:22:46.763Z</time></trkpt><trkpt lat="39.2880601" lon="16.5098095"><ele>1643.6666666666667</ele><time>2026-05-03T08:23:14.768Z</time></trkpt><trkpt lat="39.2881493" lon="16.5098199"><ele>1644.0</ele><time>2026-05-03T08:23:16.771Z</time></trkpt><trkpt lat="39.2882107" lon="16.5098386"><ele>1644.0</ele><time>2026-05-03T08:23:17.771Z</time></trkpt><trkpt lat="39.2882809" lon="16.5098668"><ele>1644.0</ele><time>2026-05-03T08:23:18.77Z</time></trkpt><trkpt lat="39.2883567" lon="16.509894"><ele>1644.0</ele><time>2026-05-03T08:23:19.771Z</time></trkpt><trkpt lat="39.2884232" lon="16.509935"><ele>1644.0</ele><time>2026-05-03T08:23:20.776Z</time></trkpt><trkpt lat="39.2884928" lon="16.509997"><ele>1644.0</ele><time>2026-05-03T08:23:22.773Z</time></trkpt><trkpt lat="39.2885768" lon="16.5100822"><ele>1644.0</ele><time>2026-05-03T08:23:24.783Z</time></trkpt><trkpt lat="39.2886291" lon="16.5101392"><ele>1644.0</ele><time>2026-05-03T08:23:25.762Z</time></trkpt><trkpt lat="39.2886842" lon="16.5101989"><ele>1644.0</ele><time>2026-05-03T08:23:26.776Z</time></trkpt><trkpt lat="39.2887413" lon="16.5102633"><ele>1644.0</ele><time>2026-05-03T08:23:27.763Z</time></trkpt><trkpt lat="39.2887961" lon="16.5103302"><ele>1644.0</ele><time>2026-05-03T08:23:28.763Z</time></trkpt><trkpt lat="39.2888483" lon="16.5103885"><ele>1644.0</ele><time>2026-05-03T08:23:29.768Z</time></trkpt><trkpt lat="39.2888985" lon="16.5104426"><ele>1644.0</ele><time>2026-05-03T08:23:30.776Z</time></trkpt><trkpt lat="39.2890151" lon="16.5105227"><ele>1643.2857142857142</ele><time>2026-05-03T08:23:32.758Z</time></trkpt><trkpt lat="39.2890741" lon="16.5105588"><ele>1642.5714285714284</ele><time>2026-05-03T08:23:33.763Z</time></trkpt><trkpt lat="39.2891778" lon="16.51063"><ele>1641.857142857143</ele><time>2026-05-03T08:23:35.763Z</time></trkpt><trkpt lat="39.2892351" lon="16.5106863"><ele>1641.142857142857</ele><time>2026-05-03T08:23:36.761Z</time></trkpt><trkpt lat="39.2892915" lon="16.5107237"><ele>1640.4285714285716</ele><time>2026-05-03T08:23:37.764Z</time></trkpt><trkpt lat="39.2893522" lon="16.5107468"><ele>1639.7142857142858</ele><time>2026-05-03T08:23:38.763Z</time></trkpt><trkpt lat="39.2894162" lon="16.5107585"><ele>1639.0</ele><time>2026-05-03T08:23:39.77Z</time></trkpt><trkpt lat="39.2894808" lon="16.5107629"><ele>1639.0000000000002</ele><time>2026-05-03T08:23:40.767Z</time></trkpt><trkpt lat="39.289554" lon="16.5107664"><ele>1639.0</ele><time>2026-05-03T08:23:41.759Z</time></trkpt><trkpt lat="39.2896233" lon="16.5107621"><ele>1639.0</ele><time>2026-05-03T08:23:42.776Z</time></trkpt><trkpt lat="39.2897311" lon="16.510779"><ele>1639.0</ele><time>2026-05-03T08:23:44.768Z</time></trkpt><trkpt lat="39.2897655" lon="16.5108794"><ele>1639.0000000000002</ele><time>2026-05-03T08:23:46.766Z</time></trkpt><trkpt lat="39.2897266" lon="16.5109469"><ele>1639.0</ele><time>2026-05-03T08:23:47.766Z</time></trkpt><trkpt lat="39.2896809" lon="16.5110106"><ele>1639.0000000000002</ele><time>2026-05-03T08:23:48.768Z</time></trkpt><trkpt lat="39.2896296" lon="16.5111091"><ele>1639.0</ele><time>2026-05-03T08:23:49.762Z</time></trkpt><trkpt lat="39.2895869" lon="16.5111821"><ele>1639.0</ele><time>2026-05-03T08:23:50.774Z</time></trkpt><trkpt lat="39.2895166" lon="16.511303"><ele>1639.0</ele><time>2026-05-03T08:23:52.774Z</time></trkpt><trkpt lat="39.2894606" lon="16.5113912"><ele>1639.0000000000002</ele><time>2026-05-03T08:23:54.765Z</time></trkpt><trkpt lat="39.2894217" lon="16.5114625"><ele>1639.0</ele><time>2026-05-03T08:23:57.772Z</time></trkpt><trkpt lat="39.2893545" lon="16.511572"><ele>1636.5000000000002</ele><time>2026-05-03T08:24:00.774Z</time></trkpt><trkpt lat="39.2892684" lon="16.5116119"><ele>1634.0</ele><time>2026-05-03T08:24:02.771Z</time></trkpt><trkpt lat="39.2891922" lon="16.5116075"><ele>1631.5</ele><time>2026-05-03T08:24:04.762Z</time></trkpt><trkpt lat="39.2890968" lon="16.5116208"><ele>1629.0</ele><time>2026-05-03T08:24:06.787Z</time></trkpt><trkpt lat="39.289" lon="16.511614"><ele>1626.5000000000002</ele><time>2026-05-03T08:24:08.763Z</time></trkpt><trkpt lat="39.288922" lon="16.5115697"><ele>1624.0</ele><time>2026-05-03T08:24:10.766Z</time></trkpt><trkpt lat="39.2888358" lon="16.5115201"><ele>1624.0</ele><time>2026-05-03T08:24:12.774Z</time></trkpt><trkpt lat="39.2887612" lon="16.5115213"><ele>1624.0</ele><time>2026-05-03T08:24:14.767Z</time></trkpt><trkpt lat="39.2887255" lon="16.5116472"><ele>1624.0</ele><time>2026-05-03T08:24:16.778Z</time></trkpt><trkpt lat="39.2887314" lon="16.5117364"><ele>1624.0</ele><time>2026-05-03T08:24:17.774Z</time></trkpt><trkpt lat="39.288729" lon="16.5118801"><ele>1624.0</ele><time>2026-05-03T08:24:19.763Z</time></trkpt><trkpt lat="39.2887211" lon="16.5120015"><ele>1621.8000000000002</ele><time>2026-05-03T08:24:21.783Z</time></trkpt><trkpt lat="39.288691" lon="16.5121158"><ele>1619.6000000000001</ele><time>2026-05-03T08:24:23.77Z</time></trkpt><trkpt lat="39.2886413" lon="16.5122345"><ele>1617.4</ele><time>2026-05-03T08:24:25.763Z</time></trkpt><trkpt lat="39.2886199" lon="16.51235"><ele>1615.2</ele><time>2026-05-03T08:24:27.765Z</time></trkpt><trkpt lat="39.2886408" lon="16.5124534"><ele>1613.0</ele><time>2026-05-03T08:24:29.768Z</time></trkpt><trkpt lat="39.288673" lon="16.5125545"><ele>1613.0</ele><time>2026-05-03T08:24:38.771Z</time></trkpt><trkpt lat="39.2886987" lon="16.5126615"><ele>1613.0</ele><time>2026-05-03T08:24:40.772Z</time></trkpt><trkpt lat="39.288758" lon="16.5127469"><ele>1613.0</ele><time>2026-05-03T08:24:42.773Z</time></trkpt><trkpt lat="39.2888408" lon="16.5128516"><ele>1613.0</ele><time>2026-05-03T08:24:44.782Z</time></trkpt><trkpt lat="39.2889096" lon="16.5129489"><ele>1613.0</ele><time>2026-05-03T08:24:46.768Z</time></trkpt><trkpt lat="39.2889632" lon="16.513055"><ele>1611.3333333333333</ele><time>2026-05-03T08:24:48.774Z</time></trkpt><trkpt lat="39.2890071" lon="16.5131612"><ele>1609.6666666666665</ele><time>2026-05-03T08:24:50.776Z</time></trkpt><trkpt lat="39.2890569" lon="16.5132608"><ele>1608.0</ele><time>2026-05-03T08:24:53.766Z</time></trkpt><trkpt lat="39.289092" lon="16.5133429"><ele>1606.3333333333335</ele><time>2026-05-03T08:24:55.762Z</time></trkpt><trkpt lat="39.2891394" lon="16.5134368"><ele>1604.6666666666667</ele><time>2026-05-03T08:24:57.766Z</time></trkpt><trkpt lat="39.2891829" lon="16.5135361"><ele>1603.0</ele><time>2026-05-03T08:24:59.763Z</time></trkpt><trkpt lat="39.2892238" lon="16.5136614"><ele>1600.8333333333335</ele><time>2026-05-03T08:25:01.76Z</time></trkpt><trkpt lat="39.2892547" lon="16.513782"><ele>1598.6666666666667</ele><time>2026-05-03T08:25:03.769Z</time></trkpt><trkpt lat="39.2892811" lon="16.5138793"><ele>1596.5</ele><time>2026-05-03T08:25:05.768Z</time></trkpt><trkpt lat="39.2893147" lon="16.5139497"><ele>1594.3333333333335</ele><time>2026-05-03T08:25:07.769Z</time></trkpt><trkpt lat="39.2893857" lon="16.5140291"><ele>1592.1666666666667</ele><time>2026-05-03T08:25:09.775Z</time></trkpt><trkpt lat="39.2894745" lon="16.5141046"><ele>1590.0</ele><time>2026-05-03T08:25:11.767Z</time></trkpt><trkpt lat="39.2895304" lon="16.5141563"><ele>1590.0</ele><time>2026-05-03T08:25:12.764Z</time></trkpt><trkpt lat="39.2895854" lon="16.5142064"><ele>1590.0</ele><time>2026-05-03T08:25:13.769Z</time></trkpt><trkpt lat="39.2896453" lon="16.5142519"><ele>1590.0</ele><time>2026-05-03T08:25:14.775Z</time></trkpt><trkpt lat="39.2897096" lon="16.5142956"><ele>1590.0</ele><time>2026-05-03T08:25:15.767Z</time></trkpt><trkpt lat="39.2897752" lon="16.5143365"><ele>1590.0</ele><time>2026-05-03T08:25:16.76Z</time></trkpt><trkpt lat="39.2898306" lon="16.5143839"><ele>1590.0</ele><time>2026-05-03T08:25:17.769Z</time></trkpt><trkpt lat="39.2899226" lon="16.5144782"><ele>1589.1666666666667</ele><time>2026-05-03T08:25:19.771Z</time></trkpt><trkpt lat="39.2900259" lon="16.5145564"><ele>1588.3333333333335</ele><time>2026-05-03T08:25:21.77Z</time></trkpt><trkpt lat="39.2901245" lon="16.5146032"><ele>1587.5</ele><time>2026-05-03T08:25:23.775Z</time></trkpt><trkpt lat="39.2901949" lon="16.5146189"><ele>1586.6666666666667</ele><time>2026-05-03T08:25:25.775Z</time></trkpt><trkpt lat="39.2902664" lon="16.5146028"><ele>1585.8333333333335</ele><time>2026-05-03T08:25:28.775Z</time></trkpt><trkpt lat="39.2903397" lon="16.5145968"><ele>1585.0</ele><time>2026-05-03T08:25:30.773Z</time></trkpt><trkpt lat="39.2904239" lon="16.5146009"><ele>1585.0</ele><time>2026-05-03T08:25:32.767Z</time></trkpt><trkpt lat="39.2905273" lon="16.5146188"><ele>1585.0</ele><time>2026-05-03T08:25:34.766Z</time></trkpt><trkpt lat="39.2906438" lon="16.5146483"><ele>1585.0</ele><time>2026-05-03T08:25:36.761Z</time></trkpt><trkpt lat="39.2907545" lon="16.5147095"><ele>1585.0</ele><time>2026-05-03T08:25:38.766Z</time></trkpt><trkpt lat="39.2908684" lon="16.5147342"><ele>1586.1666666666667</ele><time>2026-05-03T08:25:40.767Z</time></trkpt><trkpt lat="39.2909579" lon="16.5147566"><ele>1587.3333333333335</ele><time>2026-05-03T08:25:42.767Z</time></trkpt><trkpt lat="39.2910335" lon="16.5147633"><ele>1588.5</ele><time>2026-05-03T08:25:44.769Z</time></trkpt><trkpt lat="39.291114" lon="16.5147879"><ele>1589.6666666666665</ele><time>2026-05-03T08:25:47.768Z</time></trkpt><trkpt lat="39.2911815" lon="16.5148143"><ele>1590.8333333333333</ele><time>2026-05-03T08:25:49.771Z</time></trkpt><trkpt lat="39.291265" lon="16.5148115"><ele>1592.0</ele><time>2026-05-03T08:25:51.766Z</time></trkpt><trkpt lat="39.2913487" lon="16.5148059"><ele>1590.1666666666665</ele><time>2026-05-03T08:25:53.762Z</time></trkpt><trkpt lat="39.2914395" lon="16.5148145"><ele>1588.3333333333333</ele><time>2026-05-03T08:25:55.765Z</time></trkpt><trkpt lat="39.2915147" lon="16.5147788"><ele>1586.5</ele><time>2026-05-03T08:25:57.759Z</time></trkpt><trkpt lat="39.2915906" lon="16.5147608"><ele>1584.6666666666665</ele><time>2026-05-03T08:25:59.764Z</time></trkpt><trkpt lat="39.2916611" lon="16.5147713"><ele>1582.8333333333333</ele><time>2026-05-03T08:26:01.766Z</time></trkpt><trkpt lat="39.2917386" lon="16.5147862"><ele>1581.0</ele><time>2026-05-03T08:26:04.772Z</time></trkpt><trkpt lat="39.2918012" lon="16.5148059"><ele>1581.0</ele><time>2026-05-03T08:26:14.775Z</time></trkpt><trkpt lat="39.2918637" lon="16.5148872"><ele>1581.0</ele><time>2026-05-03T08:26:29.763Z</time></trkpt><trkpt lat="39.2918866" lon="16.514984"><ele>1581.0</ele><time>2026-05-03T08:26:32.769Z</time></trkpt><trkpt lat="39.2919184" lon="16.5150764"><ele>1581.0</ele><time>2026-05-03T08:26:36.763Z</time></trkpt><trkpt lat="39.2919662" lon="16.5151387"><ele>1581.0</ele><time>2026-05-03T08:26:40.771Z</time></trkpt><trkpt lat="39.2920006" lon="16.515218"><ele>1581.0</ele><time>2026-05-03T08:26:45.77Z</time></trkpt><trkpt lat="39.29204" lon="16.5153056"><ele>1581.0</ele><time>2026-05-03T08:26:49.771Z</time></trkpt><trkpt lat="39.2920728" lon="16.515398"><ele>1581.0</ele><time>2026-05-03T08:26:59.763Z</time></trkpt><trkpt lat="39.2921128" lon="16.5155185"><ele>1581.0</ele><time>2026-05-03T08:27:03.775Z</time></trkpt><trkpt lat="39.292161" lon="16.5156473"><ele>1581.0</ele><time>2026-05-03T08:27:05.773Z</time></trkpt><trkpt lat="39.2921907" lon="16.5157682"><ele>1581.0</ele><time>2026-05-03T08:27:07.771Z</time></trkpt><trkpt lat="39.2922138" lon="16.5158458"><ele>1579.1666666666667</ele><time>2026-05-03T08:27:08.768Z</time></trkpt><trkpt lat="39.2922462" lon="16.5159539"><ele>1577.3333333333335</ele><time>2026-05-03T08:27:10.764Z</time></trkpt><trkpt lat="39.2922647" lon="16.516058"><ele>1575.5</ele><time>2026-05-03T08:27:12.763Z</time></trkpt><trkpt lat="39.2922944" lon="16.5161442"><ele>1573.6666666666667</ele><time>2026-05-03T08:27:14.767Z</time></trkpt><trkpt lat="39.2923664" lon="16.5162262"><ele>1571.8333333333335</ele><time>2026-05-03T08:27:16.764Z</time></trkpt><trkpt lat="39.2924489" lon="16.5163018"><ele>1570.0</ele><time>2026-05-03T08:27:18.759Z</time></trkpt><trkpt lat="39.2925215" lon="16.5163668"><ele>1561.2</ele><time>2026-05-03T08:27:20.766Z</time></trkpt><trkpt lat="39.2925795" lon="16.5164623"><ele>1552.4</ele><time>2026-05-03T08:27:22.783Z</time></trkpt><trkpt lat="39.2926458" lon="16.5165503"><ele>1543.6</ele><time>2026-05-03T08:27:24.766Z</time></trkpt><trkpt lat="39.2927118" lon="16.5166302"><ele>1534.8</ele><time>2026-05-03T08:27:26.762Z</time></trkpt><trkpt lat="39.292769" lon="16.516714"><ele>1526.0</ele><time>2026-05-03T08:27:28.764Z</time></trkpt><trkpt lat="39.2928114" lon="16.5168138"><ele>1526.0</ele><time>2026-05-03T08:27:30.783Z</time></trkpt><trkpt lat="39.2928632" lon="16.5169341"><ele>1526.0</ele><time>2026-05-03T08:27:32.763Z</time></trkpt><trkpt lat="39.292893" lon="16.5170687"><ele>1526.0</ele><time>2026-05-03T08:27:34.767Z</time></trkpt><trkpt lat="39.2928953" lon="16.5171676"><ele>1526.0</ele><time>2026-05-03T08:27:35.767Z</time></trkpt><trkpt lat="39.2929217" lon="16.5173142"><ele>1526.0</ele><time>2026-05-03T08:27:36.761Z</time></trkpt><trkpt lat="39.2929596" lon="16.5174182"><ele>1523.4</ele><time>2026-05-03T08:27:37.767Z</time></trkpt><trkpt lat="39.2930099" lon="16.5175193"><ele>1520.8</ele><time>2026-05-03T08:27:38.762Z</time></trkpt><trkpt lat="39.2930576" lon="16.5176192"><ele>1518.2</ele><time>2026-05-03T08:27:39.763Z</time></trkpt><trkpt lat="39.2930986" lon="16.5176962"><ele>1515.6000000000001</ele><time>2026-05-03T08:27:40.764Z</time></trkpt><trkpt lat="39.293204" lon="16.5178027"><ele>1513.0</ele><time>2026-05-03T08:27:42.752Z</time></trkpt><trkpt lat="39.2932541" lon="16.5178574"><ele>1511.6000000000001</ele><time>2026-05-03T08:27:43.761Z</time></trkpt><trkpt lat="39.2933324" lon="16.5179578"><ele>1510.2</ele><time>2026-05-03T08:27:45.777Z</time></trkpt><trkpt lat="39.2933831" lon="16.5180454"><ele>1508.8</ele><time>2026-05-03T08:27:47.767Z</time></trkpt><trkpt lat="39.2934445" lon="16.518181"><ele>1507.4</ele><time>2026-05-03T08:27:49.77Z</time></trkpt><trkpt lat="39.2934558" lon="16.5182612"><ele>1506.0</ele><time>2026-05-03T08:27:50.768Z</time></trkpt><trkpt lat="39.2934705" lon="16.5183652"><ele>1506.0</ele><time>2026-05-03T08:27:51.762Z</time></trkpt><trkpt lat="39.2934794" lon="16.5184849"><ele>1506.0</ele><time>2026-05-03T08:27:52.768Z</time></trkpt><trkpt lat="39.2934761" lon="16.5185871"><ele>1506.0</ele><time>2026-05-03T08:27:53.772Z</time></trkpt><trkpt lat="39.2934856" lon="16.5187037"><ele>1506.0</ele><time>2026-05-03T08:27:54.768Z</time></trkpt><trkpt lat="39.2935063" lon="16.5188163"><ele>1506.0</ele><time>2026-05-03T08:27:55.769Z</time></trkpt><trkpt lat="39.2935526" lon="16.5189192"><ele>1506.0</ele><time>2026-05-03T08:27:56.766Z</time></trkpt><trkpt lat="39.2935903" lon="16.5190193"><ele>1505.0</ele><time>2026-05-03T08:27:57.777Z</time></trkpt><trkpt lat="39.2936237" lon="16.5190984"><ele>1504.0</ele><time>2026-05-03T08:27:58.764Z</time></trkpt><trkpt lat="39.2936584" lon="16.5191806"><ele>1503.0</ele><time>2026-05-03T08:27:59.767Z</time></trkpt><trkpt lat="39.2936945" lon="16.5192518"><ele>1502.0</ele><time>2026-05-03T08:28:00.773Z</time></trkpt><trkpt lat="39.2937307" lon="16.5193286"><ele>1501.0</ele><time>2026-05-03T08:28:01.762Z</time></trkpt><trkpt lat="39.293797" lon="16.5194637"><ele>1500.0</ele><time>2026-05-03T08:28:03.758Z</time></trkpt><trkpt lat="39.2938712" lon="16.5195403"><ele>1501.3333333333333</ele><time>2026-05-03T08:28:05.763Z</time></trkpt><trkpt lat="39.2939468" lon="16.5196198"><ele>1502.6666666666667</ele><time>2026-05-03T08:28:08.764Z</time></trkpt><trkpt lat="39.2940269" lon="16.519694"><ele>1504.0</ele><time>2026-05-03T08:28:10.767Z</time></trkpt><trkpt lat="39.2940818" lon="16.519747"><ele>1505.3333333333335</ele><time>2026-05-03T08:28:11.767Z</time></trkpt><trkpt lat="39.2941432" lon="16.5198078"><ele>1506.6666666666667</ele><time>2026-05-03T08:28:12.771Z</time></trkpt><trkpt lat="39.2942041" lon="16.519872"><ele>1508.0</ele><time>2026-05-03T08:28:13.767Z</time></trkpt><trkpt lat="39.294258" lon="16.5199385"><ele>1508.0</ele><time>2026-05-03T08:28:14.763Z</time></trkpt><trkpt lat="39.2943125" lon="16.5200033"><ele>1508.0</ele><time>2026-05-03T08:28:15.76Z</time></trkpt><trkpt lat="39.2943677" lon="16.5200662"><ele>1508.0</ele><time>2026-05-03T08:28:16.767Z</time></trkpt><trkpt lat="39.2944198" lon="16.5201388"><ele>1508.0</ele><time>2026-05-03T08:28:17.755Z</time></trkpt><trkpt lat="39.2944663" lon="16.5202133"><ele>1508.0</ele><time>2026-05-03T08:28:18.769Z</time></trkpt><trkpt lat="39.2945341" lon="16.5203358"><ele>1508.0</ele><time>2026-05-03T08:28:20.761Z</time></trkpt><trkpt lat="39.2945827" lon="16.5204911"><ele>1508.6666666666667</ele><time>2026-05-03T08:28:22.774Z</time></trkpt><trkpt lat="39.2946104" lon="16.5205698"><ele>1509.3333333333335</ele><time>2026-05-03T08:28:23.768Z</time></trkpt><trkpt lat="39.2946376" lon="16.5206551"><ele>1510.0</ele><time>2026-05-03T08:28:24.762Z</time></trkpt><trkpt lat="39.2946625" lon="16.520733"><ele>1510.6666666666667</ele><time>2026-05-03T08:28:25.785Z</time></trkpt><trkpt lat="39.2947032" lon="16.520876"><ele>1511.3333333333333</ele><time>2026-05-03T08:28:27.766Z</time></trkpt><trkpt lat="39.2947195" lon="16.52096"><ele>1512.0</ele><time>2026-05-03T08:28:28.763Z</time></trkpt><trkpt lat="39.2947328" lon="16.5210553"><ele>1512.0</ele><time>2026-05-03T08:28:29.769Z</time></trkpt><trkpt lat="39.2947262" lon="16.5211611"><ele>1512.0</ele><time>2026-05-03T08:28:30.762Z</time></trkpt><trkpt lat="39.2947134" lon="16.5212664"><ele>1512.0</ele><time>2026-05-03T08:28:31.763Z</time></trkpt><trkpt lat="39.2946889" lon="16.5213761"><ele>1512.0</ele><time>2026-05-03T08:28:32.761Z</time></trkpt><trkpt lat="39.2946626" lon="16.5214754"><ele>1512.0</ele><time>2026-05-03T08:28:33.766Z</time></trkpt><trkpt lat="39.2946399" lon="16.5215794"><ele>1512.0</ele><time>2026-05-03T08:28:34.764Z</time></trkpt><trkpt lat="39.2946169" lon="16.5216785"><ele>1510.8333333333333</ele><time>2026-05-03T08:28:35.766Z</time></trkpt><trkpt lat="39.2945971" lon="16.5217804"><ele>1509.6666666666667</ele><time>2026-05-03T08:28:36.763Z</time></trkpt><trkpt lat="39.2945822" lon="16.5218777"><ele>1508.5</ele><time>2026-05-03T08:28:37.762Z</time></trkpt><trkpt lat="39.2945779" lon="16.5219788"><ele>1507.3333333333335</ele><time>2026-05-03T08:28:38.769Z</time></trkpt><trkpt lat="39.2945878" lon="16.5220927"><ele>1506.1666666666667</ele><time>2026-05-03T08:28:39.77Z</time></trkpt><trkpt lat="39.2946113" lon="16.5222002"><ele>1505.0</ele><time>2026-05-03T08:28:40.763Z</time></trkpt><trkpt lat="39.2946332" lon="16.5223087"><ele>1501.75</ele><time>2026-05-03T08:28:41.768Z</time></trkpt><trkpt lat="39.2946533" lon="16.5224385"><ele>1498.5</ele><time>2026-05-03T08:28:42.769Z</time></trkpt><trkpt lat="39.2946787" lon="16.5225935"><ele>1495.25</ele><time>2026-05-03T08:28:43.759Z</time></trkpt><trkpt lat="39.2947208" lon="16.5227606"><ele>1492.0</ele><time>2026-05-03T08:28:44.769Z</time></trkpt><trkpt lat="39.2947755" lon="16.5229093"><ele>1491.3999999999999</ele><time>2026-05-03T08:28:45.767Z</time></trkpt><trkpt lat="39.2948475" lon="16.5230208"><ele>1490.8</ele><time>2026-05-03T08:28:46.776Z</time></trkpt><trkpt lat="39.2949251" lon="16.5231379"><ele>1490.2</ele><time>2026-05-03T08:28:47.762Z</time></trkpt><trkpt lat="39.2949921" lon="16.5232599"><ele>1489.6</ele><time>2026-05-03T08:28:48.763Z</time></trkpt><trkpt lat="39.2950337" lon="16.5233771"><ele>1489.0</ele><time>2026-05-03T08:28:49.763Z</time></trkpt><trkpt lat="39.2950764" lon="16.5234876"><ele>1489.0</ele><time>2026-05-03T08:28:50.762Z</time></trkpt><trkpt lat="39.2951332" lon="16.5235894"><ele>1489.0</ele><time>2026-05-03T08:28:51.764Z</time></trkpt><trkpt lat="39.2951737" lon="16.5237016"><ele>1489.0</ele><time>2026-05-03T08:28:52.769Z</time></trkpt><trkpt lat="39.2952453" lon="16.5237943"><ele>1489.0</ele><time>2026-05-03T08:28:53.767Z</time></trkpt><trkpt lat="39.2953101" lon="16.523886"><ele>1489.0</ele><time>2026-05-03T08:28:54.768Z</time></trkpt><trkpt lat="39.2953989" lon="16.523979"><ele>1487.6666666666665</ele><time>2026-05-03T08:28:55.763Z</time></trkpt><trkpt lat="39.2955104" lon="16.5240797"><ele>1486.3333333333333</ele><time>2026-05-03T08:28:56.78Z</time></trkpt><trkpt lat="39.2956527" lon="16.5241772"><ele>1485.0</ele><time>2026-05-03T08:28:57.764Z</time></trkpt><trkpt lat="39.2957955" lon="16.5242687"><ele>1485.0</ele><time>2026-05-03T08:28:58.77Z</time></trkpt><trkpt lat="39.2959281" lon="16.5243728"><ele>1485.0</ele><time>2026-05-03T08:28:59.763Z</time></trkpt><trkpt lat="39.2960525" lon="16.5244501"><ele>1485.0</ele><time>2026-05-03T08:29:00.767Z</time></trkpt><trkpt lat="39.2961622" lon="16.5245159"><ele>1485.0</ele><time>2026-05-03T08:29:01.762Z</time></trkpt><trkpt lat="39.2962657" lon="16.5245803"><ele>1485.0</ele><time>2026-05-03T08:29:02.76Z</time></trkpt><trkpt lat="39.2963755" lon="16.5246315"><ele>1485.0</ele><time>2026-05-03T08:29:03.764Z</time></trkpt><trkpt lat="39.2965263" lon="16.5246572"><ele>1485.0</ele><time>2026-05-03T08:29:04.767Z</time></trkpt><trkpt lat="39.2966357" lon="16.5247654"><ele>1485.0</ele><time>2026-05-03T08:29:05.763Z</time></trkpt><trkpt lat="39.296723" lon="16.5248246"><ele>1484.0</ele><time>2026-05-03T08:29:06.77Z</time></trkpt><trkpt lat="39.2967968" lon="16.5248921"><ele>1483.0</ele><time>2026-05-03T08:29:07.759Z</time></trkpt><trkpt lat="39.2968675" lon="16.5249887"><ele>1482.0</ele><time>2026-05-03T08:29:08.784Z</time></trkpt><trkpt lat="39.2969463" lon="16.5250953"><ele>1481.0</ele><time>2026-05-03T08:29:09.763Z</time></trkpt><trkpt lat="39.2970125" lon="16.5252147"><ele>1480.0</ele><time>2026-05-03T08:29:10.766Z</time></trkpt><trkpt lat="39.2970639" lon="16.525337"><ele>1478.8333333333333</ele><time>2026-05-03T08:29:11.759Z</time></trkpt><trkpt lat="39.2971135" lon="16.5254546"><ele>1477.6666666666665</ele><time>2026-05-03T08:29:12.771Z</time></trkpt><trkpt lat="39.2971574" lon="16.5255599"><ele>1476.5</ele><time>2026-05-03T08:29:13.765Z</time></trkpt><trkpt lat="39.2971954" lon="16.5256499"><ele>1475.3333333333333</ele><time>2026-05-03T08:29:14.762Z</time></trkpt><trkpt lat="39.2972313" lon="16.5257341"><ele>1474.1666666666667</ele><time>2026-05-03T08:29:16.764Z</time></trkpt><trkpt lat="39.297295" lon="16.5257469"><ele>1473.0</ele><time>2026-05-03T08:29:19.768Z</time></trkpt><trkpt lat="39.2973726" lon="16.5257029"><ele>1472.9999999999998</ele><time>2026-05-03T08:35:41.759Z</time></trkpt><trkpt lat="39.2974245" lon="16.5256267"><ele>1473.0</ele><time>2026-05-03T08:35:45.768Z</time></trkpt><trkpt lat="39.2974825" lon="16.5255918"><ele>1473.0</ele><time>2026-05-03T08:37:01.762Z</time></trkpt><trkpt lat="39.2975536" lon="16.5256393"><ele>1473.0</ele><time>2026-05-03T08:37:05.765Z</time></trkpt><trkpt lat="39.2976015" lon="16.5256931"><ele>1473.0</ele><time>2026-05-03T08:37:09.764Z</time></trkpt><trkpt lat="39.2976226" lon="16.5257757"><ele>1472.9999999999998</ele><time>2026-05-03T08:37:14.763Z</time></trkpt><trkpt lat="39.2976769" lon="16.5258554"><ele>1473.0</ele><time>2026-05-03T08:37:19.765Z</time></trkpt><trkpt lat="39.2977471" lon="16.5259042"><ele>1473.0</ele><time>2026-05-03T08:37:22.76Z</time></trkpt><trkpt lat="39.2978156" lon="16.5259511"><ele>1473.0</ele><time>2026-05-03T08:37:25.759Z</time></trkpt><trkpt lat="39.2978684" lon="16.5259985"><ele>1473.0</ele><time>2026-05-03T08:37:28.772Z</time></trkpt><trkpt lat="39.2979221" lon="16.5260497"><ele>1473.0</ele><time>2026-05-03T08:37:33.769Z</time></trkpt><trkpt lat="39.2980061" lon="16.5260923"><ele>1473.0</ele><time>2026-05-03T08:37:39.767Z</time></trkpt><trkpt lat="39.2980732" lon="16.5261622"><ele>1473.0</ele><time>2026-05-03T08:37:42.764Z</time></trkpt><trkpt lat="39.2981302" lon="16.5262316"><ele>1471.2857142857142</ele><time>2026-05-03T08:37:45.771Z</time></trkpt><trkpt lat="39.2981977" lon="16.5262618"><ele>1469.5714285714284</ele><time>2026-05-03T08:37:48.762Z</time></trkpt><trkpt lat="39.2982501" lon="16.5261888"><ele>1467.8571428571427</ele><time>2026-05-03T08:37:51.763Z</time></trkpt><trkpt lat="39.298266" lon="16.5261082"><ele>1466.142857142857</ele><time>2026-05-03T08:37:54.763Z</time></trkpt><trkpt lat="39.2982558" lon="16.5260138"><ele>1464.4285714285716</ele><time>2026-05-03T08:38:02.77Z</time></trkpt><trkpt lat="39.2982761" lon="16.5259325"><ele>1462.7142857142856</ele><time>2026-05-03T08:38:09.759Z</time></trkpt><trkpt lat="39.2982759" lon="16.5258335"><ele>1461.0</ele><time>2026-05-03T08:38:15.767Z</time></trkpt><trkpt lat="39.2983026" lon="16.5257461"><ele>1460.857142857143</ele><time>2026-05-03T08:38:21.761Z</time></trkpt><trkpt lat="39.2983453" lon="16.525686"><ele>1460.7142857142858</ele><time>2026-05-03T08:38:26.764Z</time></trkpt><trkpt lat="39.2983832" lon="16.5256132"><ele>1460.5714285714287</ele><time>2026-05-03T08:38:32.78Z</time></trkpt><trkpt lat="39.2984539" lon="16.5255694"><ele>1460.4285714285716</ele><time>2026-05-03T08:38:37.762Z</time></trkpt><trkpt lat="39.298445" lon="16.5254652"><ele>1460.2857142857142</ele><time>2026-05-03T08:38:41.761Z</time></trkpt><trkpt lat="39.2984515" lon="16.5253728"><ele>1460.1428571428573</ele><time>2026-05-03T08:38:44.77Z</time></trkpt><trkpt lat="39.2984656" lon="16.5252816"><ele>1460.0</ele><time>2026-05-03T08:38:47.771Z</time></trkpt><trkpt lat="39.2985135" lon="16.5251974"><ele>1460.857142857143</ele><time>2026-05-03T08:38:50.779Z</time></trkpt><trkpt lat="39.2985714" lon="16.5251345"><ele>1461.7142857142858</ele><time>2026-05-03T08:38:54.765Z</time></trkpt><trkpt lat="39.2986204" lon="16.5250754"><ele>1462.5714285714284</ele><time>2026-05-03T08:38:57.763Z</time></trkpt><trkpt lat="39.298672" lon="16.5250031"><ele>1463.4285714285716</ele><time>2026-05-03T08:38:59.766Z</time></trkpt><trkpt lat="39.2987055" lon="16.5249304"><ele>1464.2857142857142</ele><time>2026-05-03T08:39:01.764Z</time></trkpt><trkpt lat="39.2987396" lon="16.5248587"><ele>1465.142857142857</ele><time>2026-05-03T08:39:04.773Z</time></trkpt><trkpt lat="39.2987898" lon="16.5247726"><ele>1466.0</ele><time>2026-05-03T08:39:07.762Z</time></trkpt><trkpt lat="39.2987886" lon="16.524652"><ele>1465.9999999999998</ele><time>2026-05-03T08:39:10.759Z</time></trkpt><trkpt lat="39.2987814" lon="16.52457"><ele>1466.0</ele><time>2026-05-03T08:39:12.763Z</time></trkpt><trkpt lat="39.2987851" lon="16.5244806"><ele>1466.0</ele><time>2026-05-03T08:39:14.766Z</time></trkpt><trkpt lat="39.2988127" lon="16.5244031"><ele>1466.0</ele><time>2026-05-03T08:39:17.766Z</time></trkpt><trkpt lat="39.2988546" lon="16.524342"><ele>1466.0</ele><time>2026-05-03T08:39:19.809Z</time></trkpt><trkpt lat="39.2989034" lon="16.5242877"><ele>1465.9999999999998</ele><time>2026-05-03T08:39:21.766Z</time></trkpt><trkpt lat="39.298939" lon="16.5242033"><ele>1466.0</ele><time>2026-05-03T08:39:24.766Z</time></trkpt><trkpt lat="39.2988996" lon="16.5241278"><ele>1467.1666666666667</ele><time>2026-05-03T08:39:35.764Z</time></trkpt><trkpt lat="39.2988556" lon="16.5240691"><ele>1468.3333333333335</ele><time>2026-05-03T08:39:38.763Z</time></trkpt><trkpt lat="39.2987731" lon="16.5240446"><ele>1469.5</ele><time>2026-05-03T08:40:09.774Z</time></trkpt><trkpt lat="39.2987617" lon="16.5239621"><ele>1470.6666666666667</ele><time>2026-05-03T08:40:21.776Z</time></trkpt><trkpt lat="39.2988088" lon="16.5238941"><ele>1471.8333333333333</ele><time>2026-05-03T08:40:36.774Z</time></trkpt><trkpt lat="39.2987788" lon="16.5237461"><ele>1473.0</ele><time>2026-05-03T08:40:38.776Z</time></trkpt><trkpt lat="39.2987745" lon="16.5236452"><ele>1473.5</ele><time>2026-05-03T08:40:39.762Z</time></trkpt><trkpt lat="39.2988115" lon="16.5235487"><ele>1474.0</ele><time>2026-05-03T08:40:40.766Z</time></trkpt><trkpt lat="39.298867" lon="16.5234548"><ele>1474.5</ele><time>2026-05-03T08:40:41.778Z</time></trkpt><trkpt lat="39.2989287" lon="16.5233752"><ele>1475.0</ele><time>2026-05-03T08:40:42.761Z</time></trkpt><trkpt lat="39.2989847" lon="16.5233081"><ele>1475.5</ele><time>2026-05-03T08:40:43.761Z</time></trkpt><trkpt lat="39.2990172" lon="16.5232023"><ele>1476.0</ele><time>2026-05-03T08:40:44.767Z</time></trkpt><trkpt lat="39.2990172" lon="16.523091"><ele>1474.3333333333333</ele><time>2026-05-03T08:40:45.757Z</time></trkpt><trkpt lat="39.298999" lon="16.5229834"><ele>1472.6666666666667</ele><time>2026-05-03T08:40:46.773Z</time></trkpt><trkpt lat="39.2989821" lon="16.5228644"><ele>1471.0</ele><time>2026-05-03T08:40:47.768Z</time></trkpt><trkpt lat="39.2989825" lon="16.5227609"><ele>1469.3333333333335</ele><time>2026-05-03T08:40:48.761Z</time></trkpt><trkpt lat="39.2990137" lon="16.5226717"><ele>1467.6666666666667</ele><time>2026-05-03T08:40:49.771Z</time></trkpt><trkpt lat="39.2990526" lon="16.522606"><ele>1466.0</ele><time>2026-05-03T08:40:50.755Z</time></trkpt><trkpt lat="39.2990991" lon="16.5225453"><ele>1466.0</ele><time>2026-05-03T08:40:53.769Z</time></trkpt><trkpt lat="39.2991874" lon="16.5225105"><ele>1466.0</ele><time>2026-05-03T08:40:58.76Z</time></trkpt><trkpt lat="39.2991952" lon="16.5223281"><ele>1466.0</ele><time>2026-05-03T08:41:13.777Z</time></trkpt><trkpt lat="39.2991638" lon="16.5222532"><ele>1466.0</ele><time>2026-05-03T08:41:16.772Z</time></trkpt><trkpt lat="39.2991085" lon="16.5221273"><ele>1466.0</ele><time>2026-05-03T08:41:40.765Z</time></trkpt><trkpt lat="39.299079" lon="16.5220344"><ele>1466.8333333333335</ele><time>2026-05-03T08:41:46.768Z</time></trkpt><trkpt lat="39.2990388" lon="16.5219637"><ele>1467.6666666666667</ele><time>2026-05-03T08:41:49.767Z</time></trkpt><trkpt lat="39.2990071" lon="16.5218722"><ele>1468.5</ele><time>2026-05-03T08:41:52.768Z</time></trkpt><trkpt lat="39.2989563" lon="16.5217859"><ele>1469.3333333333333</ele><time>2026-05-03T08:41:55.771Z</time></trkpt><trkpt lat="39.2988731" lon="16.5217596"><ele>1470.1666666666665</ele><time>2026-05-03T08:42:44.768Z</time></trkpt><trkpt lat="39.2988392" lon="16.5216698"><ele>1471.0</ele><time>2026-05-03T08:43:00.762Z</time></trkpt><trkpt lat="39.2988533" lon="16.5215876"><ele>1471.1666666666665</ele><time>2026-05-03T08:43:15.773Z</time></trkpt><trkpt lat="39.2988076" lon="16.5214813"><ele>1471.3333333333333</ele><time>2026-05-03T08:43:17.769Z</time></trkpt><trkpt lat="39.2987783" lon="16.5214033"><ele>1471.5</ele><time>2026-05-03T08:43:18.771Z</time></trkpt><trkpt lat="39.2987441" lon="16.5213041"><ele>1471.6666666666667</ele><time>2026-05-03T08:43:19.77Z</time></trkpt><trkpt lat="39.2987199" lon="16.5212177"><ele>1471.8333333333335</ele><time>2026-05-03T08:43:20.767Z</time></trkpt><trkpt lat="39.2986972" lon="16.5211392"><ele>1472.0</ele><time>2026-05-03T08:43:21.768Z</time></trkpt><trkpt lat="39.2986431" lon="16.5209922"><ele>1472.0</ele><time>2026-05-03T08:43:23.78Z</time></trkpt><trkpt lat="39.2985522" lon="16.5208679"><ele>1472.0</ele><time>2026-05-03T08:43:25.769Z</time></trkpt><trkpt lat="39.2985002" lon="16.5208151"><ele>1472.0</ele><time>2026-05-03T08:43:26.772Z</time></trkpt><trkpt lat="39.2984444" lon="16.5207625"><ele>1472.0</ele><time>2026-05-03T08:43:27.767Z</time></trkpt><trkpt lat="39.2983574" lon="16.5206796"><ele>1472.0</ele><time>2026-05-03T08:43:29.776Z</time></trkpt><trkpt lat="39.2982845" lon="16.5205918"><ele>1472.0</ele><time>2026-05-03T08:43:31.76Z</time></trkpt><trkpt lat="39.2982466" lon="16.5205232"><ele>1472.0</ele><time>2026-05-03T08:43:32.763Z</time></trkpt><trkpt lat="39.2982068" lon="16.5204594"><ele>1472.0</ele><time>2026-05-03T08:43:33.77Z</time></trkpt><trkpt lat="39.2981587" lon="16.520397"><ele>1472.0</ele><time>2026-05-03T08:43:34.775Z</time></trkpt><trkpt lat="39.2981089" lon="16.5203458"><ele>1472.0</ele><time>2026-05-03T08:43:35.763Z</time></trkpt><trkpt lat="39.2980481" lon="16.5203197"><ele>1472.0</ele><time>2026-05-03T08:43:36.764Z</time></trkpt><trkpt lat="39.2979802" lon="16.5203126"><ele>1472.0</ele><time>2026-05-03T08:43:37.774Z</time></trkpt><trkpt lat="39.2978823" lon="16.5203226"><ele>1472.3999999999999</ele><time>2026-05-03T08:43:39.777Z</time></trkpt><trkpt lat="39.2977569" lon="16.5204222"><ele>1472.8</ele><time>2026-05-03T08:43:41.759Z</time></trkpt><trkpt lat="39.2976693" lon="16.5204842"><ele>1473.2</ele><time>2026-05-03T08:43:42.758Z</time></trkpt><trkpt lat="39.2975794" lon="16.5205376"><ele>1473.6</ele><time>2026-05-03T08:43:43.763Z</time></trkpt><trkpt lat="39.297496" lon="16.5205684"><ele>1474.0</ele><time>2026-05-03T08:43:44.758Z</time></trkpt><trkpt lat="39.2974192" lon="16.5205993"><ele>1474.0</ele><time>2026-05-03T08:43:45.765Z</time></trkpt><trkpt lat="39.2973302" lon="16.5206335"><ele>1474.0</ele><time>2026-05-03T08:43:46.761Z</time></trkpt><trkpt lat="39.2972465" lon="16.5206615"><ele>1474.0</ele><time>2026-05-03T08:43:47.763Z</time></trkpt><trkpt lat="39.2971405" lon="16.5206574"><ele>1474.0</ele><time>2026-05-03T08:43:49.766Z</time></trkpt><trkpt lat="39.2971121" lon="16.5205655"><ele>1474.0</ele><time>2026-05-03T08:43:52.772Z</time></trkpt><trkpt lat="39.2971368" lon="16.5204489"><ele>1476.0</ele><time>2026-05-03T08:43:54.764Z</time></trkpt><trkpt lat="39.2971469" lon="16.5203115"><ele>1478.0</ele><time>2026-05-03T08:43:56.765Z</time></trkpt><trkpt lat="39.2971407" lon="16.520176"><ele>1480.0</ele><time>2026-05-03T08:43:58.771Z</time></trkpt><trkpt lat="39.2971238" lon="16.5200432"><ele>1482.0</ele><time>2026-05-03T08:44:00.779Z</time></trkpt><trkpt lat="39.2971062" lon="16.5199399"><ele>1484.0</ele><time>2026-05-03T08:44:04.766Z</time></trkpt><trkpt lat="39.2970837" lon="16.5197822"><ele>1484.0</ele><time>2026-05-03T08:44:06.766Z</time></trkpt><trkpt lat="39.2970655" lon="16.5196551"><ele>1484.0</ele><time>2026-05-03T08:44:07.762Z</time></trkpt><trkpt lat="39.2970431" lon="16.5195252"><ele>1484.0</ele><time>2026-05-03T08:44:08.776Z</time></trkpt><trkpt lat="39.2970206" lon="16.5193892"><ele>1484.0</ele><time>2026-05-03T08:44:09.772Z</time></trkpt><trkpt lat="39.2969928" lon="16.5192472"><ele>1484.0</ele><time>2026-05-03T08:44:10.768Z</time></trkpt><trkpt lat="39.2969583" lon="16.5191015"><ele>1484.3333333333335</ele><time>2026-05-03T08:44:11.771Z</time></trkpt><trkpt lat="39.296934" lon="16.518969"><ele>1484.6666666666667</ele><time>2026-05-03T08:44:12.775Z</time></trkpt><trkpt lat="39.2969156" lon="16.5188529"><ele>1485.0</ele><time>2026-05-03T08:44:13.761Z</time></trkpt><trkpt lat="39.2968981" lon="16.5187533"><ele>1485.3333333333333</ele><time>2026-05-03T08:44:14.776Z</time></trkpt><trkpt lat="39.2968817" lon="16.5186528"><ele>1485.6666666666665</ele><time>2026-05-03T08:44:15.765Z</time></trkpt><trkpt lat="39.2968622" lon="16.5185577"><ele>1486.0</ele><time>2026-05-03T08:44:16.762Z</time></trkpt><trkpt lat="39.2968351" lon="16.51846"><ele>1486.0</ele><time>2026-05-03T08:44:17.764Z</time></trkpt><trkpt lat="39.296796" lon="16.5183942"><ele>1486.0</ele><time>2026-05-03T08:44:18.764Z</time></trkpt><trkpt lat="39.2967529" lon="16.5183297"><ele>1486.0</ele><time>2026-05-03T08:44:19.766Z</time></trkpt><trkpt lat="39.2967094" lon="16.5182651"><ele>1486.0</ele><time>2026-05-03T08:44:20.77Z</time></trkpt><trkpt lat="39.296657" lon="16.5181985"><ele>1486.0</ele><time>2026-05-03T08:44:21.762Z</time></trkpt><trkpt lat="39.2965867" lon="16.5181498"><ele>1486.0</ele><time>2026-05-03T08:44:22.76Z</time></trkpt><trkpt lat="39.296513" lon="16.5181292"><ele>1486.0</ele><time>2026-05-03T08:44:23.762Z</time></trkpt><trkpt lat="39.296386" lon="16.5181788"><ele>1485.4</ele><time>2026-05-03T08:44:25.79Z</time></trkpt><trkpt lat="39.29629" lon="16.5182132"><ele>1484.8</ele><time>2026-05-03T08:44:27.78Z</time></trkpt><trkpt lat="39.2961771" lon="16.518261"><ele>1484.2</ele><time>2026-05-03T08:44:29.767Z</time></trkpt><trkpt lat="39.2961031" lon="16.5182817"><ele>1483.6000000000001</ele><time>2026-05-03T08:44:30.765Z</time></trkpt><trkpt lat="39.2960096" lon="16.5182992"><ele>1483.0</ele><time>2026-05-03T08:44:31.771Z</time></trkpt><trkpt lat="39.2959155" lon="16.51831"><ele>1483.0</ele><time>2026-05-03T08:44:32.764Z</time></trkpt><trkpt lat="39.2958331" lon="16.5183038"><ele>1483.0</ele><time>2026-05-03T08:44:33.768Z</time></trkpt><trkpt lat="39.2957573" lon="16.5182977"><ele>1483.0</ele><time>2026-05-03T08:44:34.767Z</time></trkpt><trkpt lat="39.2956145" lon="16.5182683"><ele>1483.0</ele><time>2026-05-03T08:44:36.76Z</time></trkpt><trkpt lat="39.295533" lon="16.5182295"><ele>1483.0</ele><time>2026-05-03T08:44:37.753Z</time></trkpt><trkpt lat="39.2954673" lon="16.5181745"><ele>1484.5</ele><time>2026-05-03T08:44:38.767Z</time></trkpt><trkpt lat="39.2954086" lon="16.5181153"><ele>1486.0</ele><time>2026-05-03T08:44:39.764Z</time></trkpt><trkpt lat="39.2953474" lon="16.5180367"><ele>1487.5</ele><time>2026-05-03T08:44:40.774Z</time></trkpt><trkpt lat="39.2953018" lon="16.5179539"><ele>1489.0</ele><time>2026-05-03T08:44:41.764Z</time></trkpt><trkpt lat="39.2952747" lon="16.5178646"><ele>1490.5</ele><time>2026-05-03T08:44:42.764Z</time></trkpt><trkpt lat="39.2952752" lon="16.5177658"><ele>1492.0</ele><time>2026-05-03T08:44:43.752Z</time></trkpt><trkpt lat="39.295288" lon="16.5176619"><ele>1492.2857142857142</ele><time>2026-05-03T08:44:44.765Z</time></trkpt><trkpt lat="39.2953136" lon="16.5175825"><ele>1492.5714285714287</ele><time>2026-05-03T08:44:45.767Z</time></trkpt><trkpt lat="39.2953631" lon="16.5175233"><ele>1492.8571428571427</ele><time>2026-05-03T08:44:46.765Z</time></trkpt><trkpt lat="39.2954291" lon="16.5175047"><ele>1493.142857142857</ele><time>2026-05-03T08:44:47.767Z</time></trkpt><trkpt lat="39.2955015" lon="16.517511"><ele>1493.4285714285713</ele><time>2026-05-03T08:44:48.769Z</time></trkpt><trkpt lat="39.2955708" lon="16.5175197"><ele>1493.7142857142856</ele><time>2026-05-03T08:44:49.769Z</time></trkpt><trkpt lat="39.2956349" lon="16.5175299"><ele>1494.0</ele><time>2026-05-03T08:44:50.776Z</time></trkpt><trkpt lat="39.2957" lon="16.5175365"><ele>1492.3333333333333</ele><time>2026-05-03T08:44:51.762Z</time></trkpt><trkpt lat="39.2957693" lon="16.5175378"><ele>1490.6666666666667</ele><time>2026-05-03T08:44:52.763Z</time></trkpt><trkpt lat="39.2958379" lon="16.5175245"><ele>1489.0</ele><time>2026-05-03T08:44:53.763Z</time></trkpt><trkpt lat="39.2959202" lon="16.5174972"><ele>1487.3333333333335</ele><time>2026-05-03T08:44:54.767Z</time></trkpt><trkpt lat="39.2959918" lon="16.5174699"><ele>1485.6666666666667</ele><time>2026-05-03T08:44:55.766Z</time></trkpt><trkpt lat="39.2960731" lon="16.5174409"><ele>1484.0</ele><time>2026-05-03T08:44:56.785Z</time></trkpt><trkpt lat="39.29615" lon="16.51741"><ele>1484.0</ele><time>2026-05-03T08:44:57.752Z</time></trkpt><trkpt lat="39.2962146" lon="16.5173616"><ele>1484.0</ele><time>2026-05-03T08:44:58.765Z</time></trkpt><trkpt lat="39.2962795" lon="16.5173149"><ele>1484.0</ele><time>2026-05-03T08:44:59.764Z</time></trkpt><trkpt lat="39.2963414" lon="16.5172702"><ele>1484.0</ele><time>2026-05-03T08:45:00.761Z</time></trkpt><trkpt lat="39.2964036" lon="16.5172191"><ele>1484.0</ele><time>2026-05-03T08:45:01.763Z</time></trkpt><trkpt lat="39.2964754" lon="16.5171524"><ele>1484.0</ele><time>2026-05-03T08:45:02.764Z</time></trkpt><trkpt lat="39.2965476" lon="16.5170868"><ele>1484.1666666666667</ele><time>2026-05-03T08:45:03.769Z</time></trkpt><trkpt lat="39.2966071" lon="16.5170213"><ele>1484.3333333333335</ele><time>2026-05-03T08:45:04.756Z</time></trkpt><trkpt lat="39.296682" lon="16.5169519"><ele>1484.5</ele><time>2026-05-03T08:45:05.763Z</time></trkpt><trkpt lat="39.296758" lon="16.5168822"><ele>1484.6666666666667</ele><time>2026-05-03T08:45:06.757Z</time></trkpt><trkpt lat="39.2968284" lon="16.5168189"><ele>1484.8333333333333</ele><time>2026-05-03T08:45:07.763Z</time></trkpt><trkpt lat="39.2968994" lon="16.5167607"><ele>1485.0</ele><time>2026-05-03T08:45:08.76Z</time></trkpt><trkpt lat="39.2969712" lon="16.5167276"><ele>1485.0</ele><time>2026-05-03T08:45:09.766Z</time></trkpt><trkpt lat="39.297045" lon="16.5166998"><ele>1485.0</ele><time>2026-05-03T08:45:10.76Z</time></trkpt><trkpt lat="39.297118" lon="16.516666"><ele>1485.0</ele><time>2026-05-03T08:45:11.764Z</time></trkpt><trkpt lat="39.2971874" lon="16.5166284"><ele>1485.0</ele><time>2026-05-03T08:45:12.768Z</time></trkpt><trkpt lat="39.2972492" lon="16.5165953"><ele>1485.0</ele><time>2026-05-03T08:45:13.761Z</time></trkpt><trkpt lat="39.2973131" lon="16.5165633"><ele>1485.0</ele><time>2026-05-03T08:45:14.769Z</time></trkpt><trkpt lat="39.2973911" lon="16.5165222"><ele>1485.0</ele><time>2026-05-03T08:45:15.763Z</time></trkpt><trkpt lat="39.2974719" lon="16.5164662"><ele>1483.8333333333333</ele><time>2026-05-03T08:45:16.762Z</time></trkpt><trkpt lat="39.2975389" lon="16.5163906"><ele>1482.6666666666667</ele><time>2026-05-03T08:45:17.765Z</time></trkpt><trkpt lat="39.2975793" lon="16.5163186"><ele>1481.5</ele><time>2026-05-03T08:45:18.767Z</time></trkpt><trkpt lat="39.2976196" lon="16.5162362"><ele>1480.3333333333335</ele><time>2026-05-03T08:45:19.769Z</time></trkpt><trkpt lat="39.297666" lon="16.5161554"><ele>1479.1666666666667</ele><time>2026-05-03T08:45:20.765Z</time></trkpt><trkpt lat="39.2977094" lon="16.5160918"><ele>1478.0</ele><time>2026-05-03T08:45:21.769Z</time></trkpt><trkpt lat="39.2977879" lon="16.5159708"><ele>1478.0</ele><time>2026-05-03T08:45:23.77Z</time></trkpt><trkpt lat="39.2978176" lon="16.515885"><ele>1478.0</ele><time>2026-05-03T08:45:24.77Z</time></trkpt><trkpt lat="39.297836" lon="16.5158038"><ele>1478.0</ele><time>2026-05-03T08:45:25.761Z</time></trkpt><trkpt lat="39.2978559" lon="16.5157169"><ele>1478.0</ele><time>2026-05-03T08:45:26.758Z</time></trkpt><trkpt lat="39.2978841" lon="16.5156225"><ele>1478.0</ele><time>2026-05-03T08:45:27.768Z</time></trkpt><trkpt lat="39.297913" lon="16.5155225"><ele>1478.0</ele><time>2026-05-03T08:45:28.762Z</time></trkpt><trkpt lat="39.2979471" lon="16.5154416"><ele>1478.0</ele><time>2026-05-03T08:45:29.769Z</time></trkpt><trkpt lat="39.2980179" lon="16.515316"><ele>1478.5</ele><time>2026-05-03T08:45:31.768Z</time></trkpt><trkpt lat="39.2980705" lon="16.5152448"><ele>1479.0</ele><time>2026-05-03T08:45:32.756Z</time></trkpt><trkpt lat="39.2981178" lon="16.5151846"><ele>1479.5</ele><time>2026-05-03T08:45:33.758Z</time></trkpt><trkpt lat="39.2981635" lon="16.5151261"><ele>1480.0</ele><time>2026-05-03T08:45:34.763Z</time></trkpt><trkpt lat="39.2982142" lon="16.5150591"><ele>1480.5</ele><time>2026-05-03T08:45:35.765Z</time></trkpt><trkpt lat="39.2982806" lon="16.5149325"><ele>1481.0</ele><time>2026-05-03T08:45:37.763Z</time></trkpt><trkpt lat="39.2982839" lon="16.514834"><ele>1478.3333333333335</ele><time>2026-05-03T08:45:38.765Z</time></trkpt><trkpt lat="39.2982478" lon="16.5147411"><ele>1475.6666666666667</ele><time>2026-05-03T08:45:39.764Z</time></trkpt><trkpt lat="39.2982051" lon="16.5146503"><ele>1473.0</ele><time>2026-05-03T08:45:40.764Z</time></trkpt><trkpt lat="39.2981819" lon="16.5145651"><ele>1470.3333333333333</ele><time>2026-05-03T08:45:41.761Z</time></trkpt><trkpt lat="39.298175" lon="16.5144807"><ele>1467.6666666666665</ele><time>2026-05-03T08:45:42.765Z</time></trkpt><trkpt lat="39.2981692" lon="16.5143697"><ele>1465.0</ele><time>2026-05-03T08:45:44.765Z</time></trkpt><trkpt lat="39.2982244" lon="16.5143088"><ele>1465.0</ele><time>2026-05-03T08:45:46.768Z</time></trkpt><trkpt lat="39.2983139" lon="16.5143314"><ele>1465.0</ele><time>2026-05-03T08:45:48.766Z</time></trkpt><trkpt lat="39.2983669" lon="16.5143992"><ele>1465.0</ele><time>2026-05-03T08:45:49.762Z</time></trkpt><trkpt lat="39.2984164" lon="16.5144967"><ele>1465.0</ele><time>2026-05-03T08:45:50.763Z</time></trkpt><trkpt lat="39.2984657" lon="16.5145831"><ele>1465.0</ele><time>2026-05-03T08:45:51.763Z</time></trkpt><trkpt lat="39.298527" lon="16.5146672"><ele>1465.0</ele><time>2026-05-03T08:45:52.761Z</time></trkpt><trkpt lat="39.2985941" lon="16.5147607"><ele>1464.6666666666665</ele><time>2026-05-03T08:45:53.759Z</time></trkpt><trkpt lat="39.2986546" lon="16.5148495"><ele>1464.3333333333333</ele><time>2026-05-03T08:45:54.762Z</time></trkpt><trkpt lat="39.2987133" lon="16.5149338"><ele>1464.0</ele><time>2026-05-03T08:45:55.763Z</time></trkpt><trkpt lat="39.2987687" lon="16.5150133"><ele>1463.6666666666667</ele><time>2026-05-03T08:45:56.765Z</time></trkpt><trkpt lat="39.2988134" lon="16.515088"><ele>1463.3333333333335</ele><time>2026-05-03T08:45:57.767Z</time></trkpt><trkpt lat="39.2988574" lon="16.5151708"><ele>1463.0</ele><time>2026-05-03T08:45:58.763Z</time></trkpt><trkpt lat="39.2988856" lon="16.5152581"><ele>1463.0</ele><time>2026-05-03T08:45:59.766Z</time></trkpt><trkpt lat="39.2989027" lon="16.5153512"><ele>1463.0</ele><time>2026-05-03T08:46:00.768Z</time></trkpt><trkpt lat="39.2989642" lon="16.5154201"><ele>1463.0</ele><time>2026-05-03T08:46:02.764Z</time></trkpt><trkpt lat="39.2989942" lon="16.5153317"><ele>1463.0</ele><time>2026-05-03T08:46:04.778Z</time></trkpt><trkpt lat="39.2989851" lon="16.5151886"><ele>1463.0</ele><time>2026-05-03T08:46:06.769Z</time></trkpt><trkpt lat="39.2989543" lon="16.5150344"><ele>1463.0</ele><time>2026-05-03T08:46:08.764Z</time></trkpt><trkpt lat="39.2989204" lon="16.5149603"><ele>1463.0</ele><time>2026-05-03T08:46:09.765Z</time></trkpt><trkpt lat="39.2988752" lon="16.5148796"><ele>1463.0</ele><time>2026-05-03T08:46:10.769Z</time></trkpt><trkpt lat="39.2988262" lon="16.5147851"><ele>1463.0</ele><time>2026-05-03T08:46:11.765Z</time></trkpt><trkpt lat="39.29878" lon="16.5146844"><ele>1463.0</ele><time>2026-05-03T08:46:12.759Z</time></trkpt><trkpt lat="39.298744" lon="16.5145763"><ele>1463.0</ele><time>2026-05-03T08:46:13.773Z</time></trkpt><trkpt lat="39.2987105" lon="16.514459"><ele>1463.3333333333335</ele><time>2026-05-03T08:46:14.758Z</time></trkpt><trkpt lat="39.2986892" lon="16.5143554"><ele>1463.6666666666667</ele><time>2026-05-03T08:46:15.767Z</time></trkpt><trkpt lat="39.298681" lon="16.5142541"><ele>1464.0</ele><time>2026-05-03T08:46:16.759Z</time></trkpt><trkpt lat="39.2986872" lon="16.5141477"><ele>1464.3333333333333</ele><time>2026-05-03T08:46:17.763Z</time></trkpt><trkpt lat="39.2987002" lon="16.5140295"><ele>1464.6666666666665</ele><time>2026-05-03T08:46:18.768Z</time></trkpt><trkpt lat="39.2987193" lon="16.5139161"><ele>1465.0</ele><time>2026-05-03T08:46:19.759Z</time></trkpt><trkpt lat="39.2987309" lon="16.5138067"><ele>1465.0</ele><time>2026-05-03T08:46:20.76Z</time></trkpt><trkpt lat="39.298746" lon="16.5137155"><ele>1465.0</ele><time>2026-05-03T08:46:21.761Z</time></trkpt><trkpt lat="39.2987807" lon="16.5136401"><ele>1465.0</ele><time>2026-05-03T08:46:23.768Z</time></trkpt><trkpt lat="39.2988364" lon="16.5135851"><ele>1465.0</ele><time>2026-05-03T08:46:26.771Z</time></trkpt><trkpt lat="39.2988938" lon="16.5136378"><ele>1465.0</ele><time>2026-05-03T08:46:28.768Z</time></trkpt><trkpt lat="39.2989479" lon="16.5137059"><ele>1465.0</ele><time>2026-05-03T08:46:30.77Z</time></trkpt><trkpt lat="39.2990288" lon="16.5137888"><ele>1465.0</ele><time>2026-05-03T08:46:32.762Z</time></trkpt><trkpt lat="39.299074" lon="16.5138518"><ele>1465.0</ele><time>2026-05-03T08:46:34.767Z</time></trkpt><trkpt lat="39.2991279" lon="16.5139"><ele>1465.0</ele><time>2026-05-03T08:46:36.778Z</time></trkpt><trkpt lat="39.2992039" lon="16.5139211"><ele>1465.0</ele><time>2026-05-03T08:46:38.771Z</time></trkpt><trkpt lat="39.2993049" lon="16.5139018"><ele>1465.0</ele><time>2026-05-03T08:46:40.772Z</time></trkpt><trkpt lat="39.2993791" lon="16.5139004"><ele>1465.0</ele><time>2026-05-03T08:46:42.766Z</time></trkpt><trkpt lat="39.2994527" lon="16.5139489"><ele>1465.0</ele><time>2026-05-03T08:46:45.764Z</time></trkpt><trkpt lat="39.2995277" lon="16.5139898"><ele>1465.0</ele><time>2026-05-03T08:46:48.771Z</time></trkpt><trkpt lat="39.2995796" lon="16.5140712"><ele>1465.0</ele><time>2026-05-03T08:46:53.767Z</time></trkpt><trkpt lat="39.2996422" lon="16.5140893"><ele>1465.0</ele><time>2026-05-03T08:46:59.776Z</time></trkpt><trkpt lat="39.299694" lon="16.5140185"><ele>1465.0</ele><time>2026-05-03T08:47:02.769Z</time></trkpt><trkpt lat="39.2997988" lon="16.5139879"><ele>1465.0</ele><time>2026-05-03T08:47:04.766Z</time></trkpt><trkpt lat="39.2998749" lon="16.5139756"><ele>1464.0</ele><time>2026-05-03T08:47:05.771Z</time></trkpt><trkpt lat="39.2999658" lon="16.5139515"><ele>1463.0</ele><time>2026-05-03T08:47:06.766Z</time></trkpt><trkpt lat="39.3000456" lon="16.5139138"><ele>1462.0</ele><time>2026-05-03T08:47:07.772Z</time></trkpt><trkpt lat="39.3001241" lon="16.5138742"><ele>1461.0</ele><time>2026-05-03T08:47:08.763Z</time></trkpt><trkpt lat="39.3002048" lon="16.5138373"><ele>1460.0</ele><time>2026-05-03T08:47:09.762Z</time></trkpt><trkpt lat="39.3002678" lon="16.5138164"><ele>1459.0</ele><time>2026-05-03T08:47:10.763Z</time></trkpt><trkpt lat="39.3003792" lon="16.5137896"><ele>1459.0</ele><time>2026-05-03T08:47:12.765Z</time></trkpt><trkpt lat="39.3004916" lon="16.513794"><ele>1459.0</ele><time>2026-05-03T08:47:14.775Z</time></trkpt><trkpt lat="39.3005718" lon="16.513813"><ele>1459.0</ele><time>2026-05-03T08:47:15.778Z</time></trkpt><trkpt lat="39.3006707" lon="16.5138371"><ele>1459.0</ele><time>2026-05-03T08:47:16.78Z</time></trkpt><trkpt lat="39.3007741" lon="16.5138613"><ele>1459.0</ele><time>2026-05-03T08:47:17.764Z</time></trkpt><trkpt lat="39.3008778" lon="16.5139042"><ele>1457.0</ele><time>2026-05-03T08:47:18.771Z</time></trkpt><trkpt lat="39.300976" lon="16.5139752"><ele>1455.0</ele><time>2026-05-03T08:47:19.768Z</time></trkpt><trkpt lat="39.3010384" lon="16.5140927"><ele>1453.0</ele><time>2026-05-03T08:47:20.762Z</time></trkpt><trkpt lat="39.3010861" lon="16.5142259"><ele>1451.0</ele><time>2026-05-03T08:47:21.76Z</time></trkpt><trkpt lat="39.3011131" lon="16.514357"><ele>1449.0</ele><time>2026-05-03T08:47:22.769Z</time></trkpt><trkpt lat="39.3011368" lon="16.5144823"><ele>1447.6</ele><time>2026-05-03T08:47:23.762Z</time></trkpt><trkpt lat="39.3011514" lon="16.5146093"><ele>1446.2</ele><time>2026-05-03T08:47:24.768Z</time></trkpt><trkpt lat="39.3011523" lon="16.51474"><ele>1444.8</ele><time>2026-05-03T08:47:25.762Z</time></trkpt><trkpt lat="39.301145" lon="16.5148677"><ele>1443.3999999999999</ele><time>2026-05-03T08:47:26.767Z</time></trkpt><trkpt lat="39.3011322" lon="16.5149955"><ele>1442.0</ele><time>2026-05-03T08:47:27.767Z</time></trkpt><trkpt lat="39.3011146" lon="16.5151215"><ele>1442.0</ele><time>2026-05-03T08:47:28.78Z</time></trkpt><trkpt lat="39.3010927" lon="16.5152388"><ele>1442.0</ele><time>2026-05-03T08:47:29.766Z</time></trkpt><trkpt lat="39.3010633" lon="16.5153534"><ele>1442.0</ele><time>2026-05-03T08:47:30.773Z</time></trkpt><trkpt lat="39.3010276" lon="16.5154591"><ele>1442.0</ele><time>2026-05-03T08:47:31.767Z</time></trkpt><trkpt lat="39.300993" lon="16.5155589"><ele>1442.0</ele><time>2026-05-03T08:47:32.77Z</time></trkpt><trkpt lat="39.3009593" lon="16.5156573"><ele>1442.0</ele><time>2026-05-03T08:47:33.769Z</time></trkpt><trkpt lat="39.300918" lon="16.5157531"><ele>1441.3333333333335</ele><time>2026-05-03T08:47:34.774Z</time></trkpt><trkpt lat="39.3008699" lon="16.5158548"><ele>1440.6666666666667</ele><time>2026-05-03T08:47:35.764Z</time></trkpt><trkpt lat="39.3008257" lon="16.5159623"><ele>1440.0</ele><time>2026-05-03T08:47:36.767Z</time></trkpt><trkpt lat="39.3007878" lon="16.5160511"><ele>1439.3333333333333</ele><time>2026-05-03T08:47:37.772Z</time></trkpt><trkpt lat="39.3007513" lon="16.5161294"><ele>1438.6666666666665</ele><time>2026-05-03T08:47:38.767Z</time></trkpt><trkpt lat="39.300715" lon="16.5162035"><ele>1438.0</ele><time>2026-05-03T08:47:39.781Z</time></trkpt><trkpt lat="39.3006801" lon="16.5162726"><ele>1436.9999999999998</ele><time>2026-05-03T08:47:40.766Z</time></trkpt><trkpt lat="39.3006492" lon="16.5163445"><ele>1436.0</ele><time>2026-05-03T08:47:41.772Z</time></trkpt><trkpt lat="39.3006262" lon="16.5164229"><ele>1435.0</ele><time>2026-05-03T08:47:42.765Z</time></trkpt><trkpt lat="39.3006462" lon="16.5165035"><ele>1434.0</ele><time>2026-05-03T08:47:43.775Z</time></trkpt><trkpt lat="39.3007018" lon="16.5165672"><ele>1433.0</ele><time>2026-05-03T08:47:44.763Z</time></trkpt><trkpt lat="39.3007702" lon="16.5166229"><ele>1431.9999999999998</ele><time>2026-05-03T08:47:45.764Z</time></trkpt><trkpt lat="39.3008419" lon="16.516679"><ele>1431.0</ele><time>2026-05-03T08:47:46.768Z</time></trkpt><trkpt lat="39.30091" lon="16.5167479"><ele>1431.0</ele><time>2026-05-03T08:47:47.76Z</time></trkpt><trkpt lat="39.3009619" lon="16.5168434"><ele>1431.0</ele><time>2026-05-03T08:47:48.768Z</time></trkpt><trkpt lat="39.3009941" lon="16.5169463"><ele>1431.0</ele><time>2026-05-03T08:47:49.763Z</time></trkpt><trkpt lat="39.3010076" lon="16.5170574"><ele>1431.0</ele><time>2026-05-03T08:47:50.756Z</time></trkpt><trkpt lat="39.3010312" lon="16.5171689"><ele>1431.0</ele><time>2026-05-03T08:47:51.761Z</time></trkpt><trkpt lat="39.3010786" lon="16.5172672"><ele>1431.0</ele><time>2026-05-03T08:47:52.763Z</time></trkpt><trkpt lat="39.3011419" lon="16.5173468"><ele>1429.8</ele><time>2026-05-03T08:47:53.768Z</time></trkpt><trkpt lat="39.3012195" lon="16.5174126"><ele>1428.6</ele><time>2026-05-03T08:47:54.765Z</time></trkpt><trkpt lat="39.3013068" lon="16.5174746"><ele>1427.4</ele><time>2026-05-03T08:47:55.785Z</time></trkpt><trkpt lat="39.3013923" lon="16.517532"><ele>1426.2</ele><time>2026-05-03T08:47:56.773Z</time></trkpt><trkpt lat="39.3014806" lon="16.5175673"><ele>1425.0</ele><time>2026-05-03T08:47:57.764Z</time></trkpt><trkpt lat="39.301564" lon="16.517592"><ele>1423.4</ele><time>2026-05-03T08:47:58.766Z</time></trkpt><trkpt lat="39.3016453" lon="16.5175763"><ele>1421.8</ele><time>2026-05-03T08:47:59.776Z</time></trkpt><trkpt lat="39.3017241" lon="16.5175518"><ele>1420.1999999999998</ele><time>2026-05-03T08:48:00.768Z</time></trkpt><trkpt lat="39.301814" lon="16.5175245"><ele>1418.6</ele><time>2026-05-03T08:48:01.769Z</time></trkpt><trkpt lat="39.3019131" lon="16.5174993"><ele>1417.0</ele><time>2026-05-03T08:48:02.764Z</time></trkpt><trkpt lat="39.302008" lon="16.5174899"><ele>1417.0</ele><time>2026-05-03T08:48:03.769Z</time></trkpt><trkpt lat="39.3020964" lon="16.5174855"><ele>1417.0</ele><time>2026-05-03T08:48:04.767Z</time></trkpt><trkpt lat="39.3021798" lon="16.5174744"><ele>1417.0</ele><time>2026-05-03T08:48:05.761Z</time></trkpt><trkpt lat="39.3022616" lon="16.5174576"><ele>1417.0</ele><time>2026-05-03T08:48:06.765Z</time></trkpt><trkpt lat="39.3023508" lon="16.5174315"><ele>1417.0</ele><time>2026-05-03T08:48:07.759Z</time></trkpt><trkpt lat="39.3024395" lon="16.5173909"><ele>1417.0</ele><time>2026-05-03T08:48:08.77Z</time></trkpt><trkpt lat="39.302534" lon="16.5173318"><ele>1415.6666666666665</ele><time>2026-05-03T08:48:09.76Z</time></trkpt><trkpt lat="39.3026224" lon="16.5172832"><ele>1414.3333333333333</ele><time>2026-05-03T08:48:10.766Z</time></trkpt><trkpt lat="39.3027035" lon="16.517264"><ele>1413.0</ele><time>2026-05-03T08:48:11.763Z</time></trkpt><trkpt lat="39.3027946" lon="16.5172662"><ele>1411.6666666666667</ele><time>2026-05-03T08:48:12.764Z</time></trkpt><trkpt lat="39.3028707" lon="16.51728"><ele>1410.3333333333335</ele><time>2026-05-03T08:48:13.783Z</time></trkpt><trkpt lat="39.302957" lon="16.517343"><ele>1409.0</ele><time>2026-05-03T08:48:15.761Z</time></trkpt><trkpt lat="39.3030384" lon="16.517426"><ele>1406.6666666666667</ele><time>2026-05-03T08:48:17.765Z</time></trkpt><trkpt lat="39.3031305" lon="16.5175443"><ele>1404.3333333333335</ele><time>2026-05-03T08:48:19.766Z</time></trkpt><trkpt lat="39.3031836" lon="16.5176095"><ele>1402.0</ele><time>2026-05-03T08:48:20.775Z</time></trkpt><trkpt lat="39.3032347" lon="16.5176775"><ele>1399.6666666666667</ele><time>2026-05-03T08:48:21.764Z</time></trkpt><trkpt lat="39.3032884" lon="16.5177513"><ele>1397.3333333333333</ele><time>2026-05-03T08:48:22.76Z</time></trkpt><trkpt lat="39.3033439" lon="16.5178232"><ele>1395.0</ele><time>2026-05-03T08:48:23.772Z</time></trkpt><trkpt lat="39.3034025" lon="16.5178971"><ele>1395.0</ele><time>2026-05-03T08:48:24.766Z</time></trkpt><trkpt lat="39.3034628" lon="16.5179735"><ele>1395.0</ele><time>2026-05-03T08:48:25.786Z</time></trkpt><trkpt lat="39.3035212" lon="16.5180516"><ele>1395.0</ele><time>2026-05-03T08:48:26.767Z</time></trkpt><trkpt lat="39.3035807" lon="16.5181322"><ele>1395.0</ele><time>2026-05-03T08:48:27.769Z</time></trkpt><trkpt lat="39.303645" lon="16.5182147"><ele>1395.0</ele><time>2026-05-03T08:48:28.766Z</time></trkpt><trkpt lat="39.3037104" lon="16.5183034"><ele>1395.0</ele><time>2026-05-03T08:48:29.764Z</time></trkpt><trkpt lat="39.3037798" lon="16.5183933"><ele>1395.0</ele><time>2026-05-03T08:48:30.77Z</time></trkpt><trkpt lat="39.3038509" lon="16.5184869"><ele>1395.0</ele><time>2026-05-03T08:48:31.773Z</time></trkpt><trkpt lat="39.3039252" lon="16.5185777"><ele>1395.0</ele><time>2026-05-03T08:48:32.779Z</time></trkpt><trkpt lat="39.3040021" lon="16.5186676"><ele>1395.0</ele><time>2026-05-03T08:48:33.768Z</time></trkpt><trkpt lat="39.304077" lon="16.5187646"><ele>1395.0</ele><time>2026-05-03T08:48:34.768Z</time></trkpt><trkpt lat="39.3041479" lon="16.5188483"><ele>1394.5</ele><time>2026-05-03T08:48:35.764Z</time></trkpt><trkpt lat="39.3042055" lon="16.5189248"><ele>1394.0</ele><time>2026-05-03T08:48:36.762Z</time></trkpt><trkpt lat="39.3042625" lon="16.5189998"><ele>1393.5</ele><time>2026-05-03T08:48:37.768Z</time></trkpt><trkpt lat="39.3043239" lon="16.5190758"><ele>1393.0</ele><time>2026-05-03T08:48:38.765Z</time></trkpt><trkpt lat="39.3043917" lon="16.5191524"><ele>1392.5</ele><time>2026-05-03T08:48:39.765Z</time></trkpt><trkpt lat="39.3044585" lon="16.5192248"><ele>1392.0</ele><time>2026-05-03T08:48:40.77Z</time></trkpt><trkpt lat="39.3045201" lon="16.5192914"><ele>1392.0</ele><time>2026-05-03T08:48:41.782Z</time></trkpt><trkpt lat="39.3045803" lon="16.5193558"><ele>1392.0</ele><time>2026-05-03T08:48:42.77Z</time></trkpt><trkpt lat="39.3046442" lon="16.5194222"><ele>1392.0</ele><time>2026-05-03T08:48:43.764Z</time></trkpt><trkpt lat="39.3047097" lon="16.519492"><ele>1392.0</ele><time>2026-05-03T08:48:44.769Z</time></trkpt><trkpt lat="39.3047772" lon="16.5195626"><ele>1392.0</ele><time>2026-05-03T08:48:45.763Z</time></trkpt><trkpt lat="39.3048463" lon="16.5196348"><ele>1392.0</ele><time>2026-05-03T08:48:46.776Z</time></trkpt><trkpt lat="39.3049166" lon="16.5197071"><ele>1390.5</ele><time>2026-05-03T08:48:47.768Z</time></trkpt><trkpt lat="39.3049856" lon="16.5197832"><ele>1389.0</ele><time>2026-05-03T08:48:48.773Z</time></trkpt><trkpt lat="39.3050489" lon="16.519864"><ele>1387.5</ele><time>2026-05-03T08:48:49.763Z</time></trkpt><trkpt lat="39.3051077" lon="16.5199496"><ele>1386.0</ele><time>2026-05-03T08:48:50.765Z</time></trkpt><trkpt lat="39.305163" lon="16.5200364"><ele>1384.5</ele><time>2026-05-03T08:48:51.769Z</time></trkpt><trkpt lat="39.3052226" lon="16.520116"><ele>1383.0</ele><time>2026-05-03T08:48:52.768Z</time></trkpt><trkpt lat="39.3052825" lon="16.5201943"><ele>1383.0</ele><time>2026-05-03T08:48:53.771Z</time></trkpt><trkpt lat="39.3053457" lon="16.5202724"><ele>1383.0</ele><time>2026-05-03T08:48:54.773Z</time></trkpt><trkpt lat="39.3054101" lon="16.5203452"><ele>1383.0</ele><time>2026-05-03T08:48:55.766Z</time></trkpt><trkpt lat="39.3054791" lon="16.5204103"><ele>1383.0</ele><time>2026-05-03T08:48:56.765Z</time></trkpt><trkpt lat="39.3055487" lon="16.5204701"><ele>1383.0</ele><time>2026-05-03T08:48:57.768Z</time></trkpt><trkpt lat="39.3056176" lon="16.5205288"><ele>1383.0</ele><time>2026-05-03T08:48:58.766Z</time></trkpt><trkpt lat="39.3056854" lon="16.520587"><ele>1382.3333333333333</ele><time>2026-05-03T08:48:59.767Z</time></trkpt><trkpt lat="39.3057523" lon="16.5206555"><ele>1381.6666666666667</ele><time>2026-05-03T08:49:00.773Z</time></trkpt><trkpt lat="39.3058183" lon="16.5207225"><ele>1381.0</ele><time>2026-05-03T08:49:01.773Z</time></trkpt><trkpt lat="39.3058905" lon="16.5207693"><ele>1380.3333333333335</ele><time>2026-05-03T08:49:02.759Z</time></trkpt><trkpt lat="39.3059724" lon="16.5207627"><ele>1379.6666666666667</ele><time>2026-05-03T08:49:03.77Z</time></trkpt><trkpt lat="39.3060517" lon="16.520735"><ele>1379.0</ele><time>2026-05-03T08:49:04.766Z</time></trkpt><trkpt lat="39.3061249" lon="16.5207086"><ele>1379.0</ele><time>2026-05-03T08:49:05.766Z</time></trkpt><trkpt lat="39.3062018" lon="16.5206826"><ele>1379.0</ele><time>2026-05-03T08:49:06.768Z</time></trkpt><trkpt lat="39.3062859" lon="16.52065"><ele>1379.0</ele><time>2026-05-03T08:49:07.773Z</time></trkpt><trkpt lat="39.3063707" lon="16.5206144"><ele>1379.0</ele><time>2026-05-03T08:49:08.775Z</time></trkpt><trkpt lat="39.3064578" lon="16.5205807"><ele>1379.0</ele><time>2026-05-03T08:49:09.775Z</time></trkpt><trkpt lat="39.3065465" lon="16.5205489"><ele>1379.0</ele><time>2026-05-03T08:49:10.759Z</time></trkpt><trkpt lat="39.3066329" lon="16.5205177"><ele>1378.6</ele><time>2026-05-03T08:49:11.762Z</time></trkpt><trkpt lat="39.3067241" lon="16.5204794"><ele>1378.2</ele><time>2026-05-03T08:49:12.767Z</time></trkpt><trkpt lat="39.3068164" lon="16.5204377"><ele>1377.8</ele><time>2026-05-03T08:49:13.765Z</time></trkpt><trkpt lat="39.3069057" lon="16.5204006"><ele>1377.3999999999999</ele><time>2026-05-03T08:49:14.763Z</time></trkpt><trkpt lat="39.3069885" lon="16.5203702"><ele>1377.0</ele><time>2026-05-03T08:49:15.773Z</time></trkpt><trkpt lat="39.3070727" lon="16.5203483"><ele>1376.1666666666667</ele><time>2026-05-03T08:49:16.769Z</time></trkpt><trkpt lat="39.3071615" lon="16.5203302"><ele>1375.3333333333333</ele><time>2026-05-03T08:49:17.786Z</time></trkpt><trkpt lat="39.3072423" lon="16.5203087"><ele>1374.5</ele><time>2026-05-03T08:49:18.773Z</time></trkpt><trkpt lat="39.3073246" lon="16.5202869"><ele>1373.6666666666665</ele><time>2026-05-03T08:49:19.776Z</time></trkpt><trkpt lat="39.3074012" lon="16.5202598"><ele>1372.8333333333333</ele><time>2026-05-03T08:49:20.768Z</time></trkpt><trkpt lat="39.3074826" lon="16.5202329"><ele>1372.0</ele><time>2026-05-03T08:49:21.762Z</time></trkpt><trkpt lat="39.3075615" lon="16.5202069"><ele>1370.8333333333333</ele><time>2026-05-03T08:49:22.772Z</time></trkpt><trkpt lat="39.3076442" lon="16.5201899"><ele>1369.6666666666665</ele><time>2026-05-03T08:49:23.763Z</time></trkpt><trkpt lat="39.3077252" lon="16.5201758"><ele>1368.5</ele><time>2026-05-03T08:49:24.793Z</time></trkpt><trkpt lat="39.3078108" lon="16.52019"><ele>1367.3333333333333</ele><time>2026-05-03T08:49:25.764Z</time></trkpt><trkpt lat="39.3079023" lon="16.5202259"><ele>1366.1666666666667</ele><time>2026-05-03T08:49:26.761Z</time></trkpt><trkpt lat="39.307987" lon="16.5202668"><ele>1365.0</ele><time>2026-05-03T08:49:27.763Z</time></trkpt><trkpt lat="39.3080661" lon="16.5203014"><ele>1365.0</ele><time>2026-05-03T08:49:28.764Z</time></trkpt><trkpt lat="39.3081401" lon="16.5203133"><ele>1365.0</ele><time>2026-05-03T08:49:29.767Z</time></trkpt><trkpt lat="39.3082076" lon="16.5203099"><ele>1365.0</ele><time>2026-05-03T08:49:30.777Z</time></trkpt><trkpt lat="39.3082962" lon="16.5203257"><ele>1365.0</ele><time>2026-05-03T08:49:32.773Z</time></trkpt><trkpt lat="39.308357" lon="16.5203745"><ele>1365.0</ele><time>2026-05-03T08:49:35.771Z</time></trkpt><trkpt lat="39.3084249" lon="16.5204748"><ele>1365.0</ele><time>2026-05-03T08:49:38.775Z</time></trkpt><trkpt lat="39.3084646" lon="16.5205388"><ele>1365.0</ele><time>2026-05-03T08:49:39.771Z</time></trkpt><trkpt lat="39.3085062" lon="16.5206033"><ele>1365.0</ele><time>2026-05-03T08:49:40.774Z</time></trkpt><trkpt lat="39.3085473" lon="16.5206706"><ele>1365.0</ele><time>2026-05-03T08:49:41.78Z</time></trkpt><trkpt lat="39.3085959" lon="16.5207338"><ele>1365.0</ele><time>2026-05-03T08:49:42.765Z</time></trkpt><trkpt lat="39.3086589" lon="16.5207872"><ele>1365.0</ele><time>2026-05-03T08:49:43.764Z</time></trkpt><trkpt lat="39.3087264" lon="16.520837"><ele>1365.0</ele><time>2026-05-03T08:49:44.765Z</time></trkpt><trkpt lat="39.3087931" lon="16.5208921"><ele>1365.0</ele><time>2026-05-03T08:49:45.769Z</time></trkpt><trkpt lat="39.3088505" lon="16.5209537"><ele>1365.0</ele><time>2026-05-03T08:49:46.764Z</time></trkpt><trkpt lat="39.3088982" lon="16.5210208"><ele>1365.0</ele><time>2026-05-03T08:49:47.768Z</time></trkpt><trkpt lat="39.3089442" lon="16.5210954"><ele>1365.0</ele><time>2026-05-03T08:49:48.767Z</time></trkpt><trkpt lat="39.3090004" lon="16.521173"><ele>1365.0</ele><time>2026-05-03T08:49:49.77Z</time></trkpt><trkpt lat="39.3090717" lon="16.5212507"><ele>1365.0</ele><time>2026-05-03T08:49:50.763Z</time></trkpt><trkpt lat="39.3091453" lon="16.5213281"><ele>1365.0</ele><time>2026-05-03T08:49:51.766Z</time></trkpt><trkpt lat="39.3092215" lon="16.5214101"><ele>1364.4</ele><time>2026-05-03T08:49:52.767Z</time></trkpt><trkpt lat="39.3092956" lon="16.5214994"><ele>1363.8</ele><time>2026-05-03T08:49:53.766Z</time></trkpt><trkpt lat="39.3093662" lon="16.5216003"><ele>1363.1999999999998</ele><time>2026-05-03T08:49:54.769Z</time></trkpt><trkpt lat="39.3094372" lon="16.5217023"><ele>1362.6</ele><time>2026-05-03T08:49:55.76Z</time></trkpt><trkpt lat="39.3094975" lon="16.5218203"><ele>1362.0</ele><time>2026-05-03T08:49:56.764Z</time></trkpt><trkpt lat="39.3095503" lon="16.5219344"><ele>1362.0</ele><time>2026-05-03T08:49:57.765Z</time></trkpt><trkpt lat="39.3095945" lon="16.5220376"><ele>1362.0</ele><time>2026-05-03T08:49:58.766Z</time></trkpt><trkpt lat="39.3096343" lon="16.5221317"><ele>1362.0</ele><time>2026-05-03T08:49:59.762Z</time></trkpt><trkpt lat="39.309703" lon="16.5222085"><ele>1362.0</ele><time>2026-05-03T08:50:00.771Z</time></trkpt><trkpt lat="39.3097794" lon="16.5222795"><ele>1362.0</ele><time>2026-05-03T08:50:01.767Z</time></trkpt><trkpt lat="39.309869" lon="16.5223609"><ele>1362.6</ele><time>2026-05-03T08:50:02.77Z</time></trkpt><trkpt lat="39.3099579" lon="16.5224537"><ele>1363.1999999999998</ele><time>2026-05-03T08:50:03.763Z</time></trkpt><trkpt lat="39.3100429" lon="16.5225432"><ele>1363.8</ele><time>2026-05-03T08:50:04.764Z</time></trkpt><trkpt lat="39.3101281" lon="16.5226351"><ele>1364.4</ele><time>2026-05-03T08:50:05.766Z</time></trkpt><trkpt lat="39.3102095" lon="16.5227231"><ele>1365.0</ele><time>2026-05-03T08:50:06.769Z</time></trkpt><trkpt lat="39.310287" lon="16.522804"><ele>1365.0</ele><time>2026-05-03T08:50:07.771Z</time></trkpt><trkpt lat="39.3103603" lon="16.5228666"><ele>1365.0</ele><time>2026-05-03T08:50:08.781Z</time></trkpt><trkpt lat="39.3104315" lon="16.522922"><ele>1365.0</ele><time>2026-05-03T08:50:09.766Z</time></trkpt><trkpt lat="39.3105227" lon="16.5229354"><ele>1365.0</ele><time>2026-05-03T08:50:10.771Z</time></trkpt><trkpt lat="39.3106181" lon="16.5229464"><ele>1365.0</ele><time>2026-05-03T08:50:11.762Z</time></trkpt><trkpt lat="39.3107162" lon="16.5229598"><ele>1364.0</ele><time>2026-05-03T08:50:12.769Z</time></trkpt><trkpt lat="39.3108168" lon="16.5229706"><ele>1363.0</ele><time>2026-05-03T08:50:13.771Z</time></trkpt><trkpt lat="39.3109114" lon="16.5229519"><ele>1362.0</ele><time>2026-05-03T08:50:14.767Z</time></trkpt><trkpt lat="39.3109897" lon="16.5229066"><ele>1361.0</ele><time>2026-05-03T08:50:15.783Z</time></trkpt><trkpt lat="39.3110586" lon="16.5228601"><ele>1360.0</ele><time>2026-05-03T08:50:16.765Z</time></trkpt><trkpt lat="39.3111208" lon="16.5228231"><ele>1359.0</ele><time>2026-05-03T08:50:17.768Z</time></trkpt><trkpt lat="39.3111879" lon="16.5228326"><ele>1359.0</ele><time>2026-05-03T08:50:18.76Z</time></trkpt><trkpt lat="39.3112663" lon="16.522876"><ele>1359.0</ele><time>2026-05-03T08:50:19.772Z</time></trkpt><trkpt lat="39.3113565" lon="16.5229168"><ele>1359.0</ele><time>2026-05-03T08:50:20.764Z</time></trkpt><trkpt lat="39.3114513" lon="16.5229398"><ele>1359.0</ele><time>2026-05-03T08:50:21.765Z</time></trkpt><trkpt lat="39.3115432" lon="16.522948"><ele>1359.0</ele><time>2026-05-03T08:50:22.768Z</time></trkpt><trkpt lat="39.3116294" lon="16.5229538"><ele>1359.0</ele><time>2026-05-03T08:50:23.768Z</time></trkpt><trkpt lat="39.3116989" lon="16.5229585"><ele>1359.0</ele><time>2026-05-03T08:50:24.764Z</time></trkpt><trkpt lat="39.3117835" lon="16.5228738"><ele>1359.0</ele><time>2026-05-03T08:50:26.758Z</time></trkpt><trkpt lat="39.3118257" lon="16.5227564"><ele>1359.0</ele><time>2026-05-03T08:50:28.771Z</time></trkpt><trkpt lat="39.3118937" lon="16.5226527"><ele>1359.0</ele><time>2026-05-03T08:50:30.775Z</time></trkpt><trkpt lat="39.3119744" lon="16.5225343"><ele>1360.6</ele><time>2026-05-03T08:50:32.762Z</time></trkpt><trkpt lat="39.3120025" lon="16.5224353"><ele>1362.2</ele><time>2026-05-03T08:50:33.767Z</time></trkpt><trkpt lat="39.3120207" lon="16.5223283"><ele>1363.8</ele><time>2026-05-03T08:50:34.766Z</time></trkpt><trkpt lat="39.3120041" lon="16.5222029"><ele>1365.3999999999999</ele><time>2026-05-03T08:50:35.791Z</time></trkpt><trkpt lat="39.3119727" lon="16.5220603"><ele>1367.0</ele><time>2026-05-03T08:50:36.766Z</time></trkpt><trkpt lat="39.3119187" lon="16.5219456"><ele>1369.1999999999998</ele><time>2026-05-03T08:50:37.767Z</time></trkpt><trkpt lat="39.3118604" lon="16.5218512"><ele>1371.4</ele><time>2026-05-03T08:50:38.762Z</time></trkpt><trkpt lat="39.3117778" lon="16.5218022"><ele>1373.6</ele><time>2026-05-03T08:50:39.761Z</time></trkpt><trkpt lat="39.3116901" lon="16.5217539"><ele>1375.8000000000002</ele><time>2026-05-03T08:50:40.771Z</time></trkpt><trkpt lat="39.3115953" lon="16.5217039"><ele>1378.0</ele><time>2026-05-03T08:50:41.773Z</time></trkpt><trkpt lat="39.3114982" lon="16.5216646"><ele>1378.0</ele><time>2026-05-03T08:50:42.765Z</time></trkpt><trkpt lat="39.3113975" lon="16.5216355"><ele>1378.0</ele><time>2026-05-03T08:50:43.759Z</time></trkpt><trkpt lat="39.3113005" lon="16.5215968"><ele>1378.0</ele><time>2026-05-03T08:50:44.779Z</time></trkpt><trkpt lat="39.3112179" lon="16.5215202"><ele>1378.0</ele><time>2026-05-03T08:50:45.77Z</time></trkpt><trkpt lat="39.3111702" lon="16.5214559"><ele>1378.0</ele><time>2026-05-03T08:50:46.781Z</time></trkpt><trkpt lat="39.3111142" lon="16.5213701"><ele>1378.0</ele><time>2026-05-03T08:50:48.766Z</time></trkpt><trkpt lat="39.3110391" lon="16.5212926"><ele>1378.0</ele><time>2026-05-03T08:50:50.772Z</time></trkpt><trkpt lat="39.3110303" lon="16.5211453"><ele>1378.0</ele><time>2026-05-03T08:50:52.768Z</time></trkpt><trkpt lat="39.311035" lon="16.5210541"><ele>1378.0</ele><time>2026-05-03T08:50:53.769Z</time></trkpt><trkpt lat="39.3110246" lon="16.5209543"><ele>1378.0</ele><time>2026-05-03T08:50:54.766Z</time></trkpt><trkpt lat="39.3109733" lon="16.5208436"><ele>1379.2</ele><time>2026-05-03T08:50:55.768Z</time></trkpt><trkpt lat="39.3109242" lon="16.5207373"><ele>1380.4</ele><time>2026-05-03T08:50:56.769Z</time></trkpt><trkpt lat="39.3108682" lon="16.5206356"><ele>1381.6000000000001</ele><time>2026-05-03T08:50:57.773Z</time></trkpt><trkpt lat="39.3108231" lon="16.5205272"><ele>1382.8000000000002</ele><time>2026-05-03T08:50:58.783Z</time></trkpt><trkpt lat="39.3107778" lon="16.5204174"><ele>1384.0</ele><time>2026-05-03T08:50:59.767Z</time></trkpt><trkpt lat="39.3107294" lon="16.5203012"><ele>1384.8000000000002</ele><time>2026-05-03T08:51:00.769Z</time></trkpt><trkpt lat="39.3106893" lon="16.5201761"><ele>1385.6000000000001</ele><time>2026-05-03T08:51:01.769Z</time></trkpt><trkpt lat="39.3106508" lon="16.5200426"><ele>1386.4</ele><time>2026-05-03T08:51:02.766Z</time></trkpt><trkpt lat="39.3106139" lon="16.5199027"><ele>1387.2</ele><time>2026-05-03T08:51:03.764Z</time></trkpt><trkpt lat="39.3105815" lon="16.5197614"><ele>1388.0</ele><time>2026-05-03T08:51:04.764Z</time></trkpt><trkpt lat="39.3105457" lon="16.5196209"><ele>1385.5</ele><time>2026-05-03T08:51:05.767Z</time></trkpt><trkpt lat="39.3105111" lon="16.5194786"><ele>1383.0</ele><time>2026-05-03T08:51:06.772Z</time></trkpt><trkpt lat="39.3104758" lon="16.5193324"><ele>1380.5</ele><time>2026-05-03T08:51:07.763Z</time></trkpt><trkpt lat="39.3104326" lon="16.5191856"><ele>1378.0</ele><time>2026-05-03T08:51:08.765Z</time></trkpt><trkpt lat="39.3103891" lon="16.5190471"><ele>1378.0</ele><time>2026-05-03T08:51:09.766Z</time></trkpt><trkpt lat="39.310343" lon="16.5189184"><ele>1378.0</ele><time>2026-05-03T08:51:10.761Z</time></trkpt><trkpt lat="39.3102944" lon="16.5187802"><ele>1378.0</ele><time>2026-05-03T08:51:11.763Z</time></trkpt><trkpt lat="39.310245" lon="16.5186457"><ele>1378.0</ele><time>2026-05-03T08:51:12.767Z</time></trkpt><trkpt lat="39.310198" lon="16.5185214"><ele>1378.0</ele><time>2026-05-03T08:51:13.77Z</time></trkpt><trkpt lat="39.3101632" lon="16.5183861"><ele>1379.2</ele><time>2026-05-03T08:51:14.774Z</time></trkpt><trkpt lat="39.3101472" lon="16.5182495"><ele>1380.4</ele><time>2026-05-03T08:51:15.764Z</time></trkpt><trkpt lat="39.3101429" lon="16.5181081"><ele>1381.6000000000001</ele><time>2026-05-03T08:51:16.775Z</time></trkpt><trkpt lat="39.3101344" lon="16.5179671"><ele>1382.8000000000002</ele><time>2026-05-03T08:51:17.764Z</time></trkpt><trkpt lat="39.3101309" lon="16.5178248"><ele>1384.0</ele><time>2026-05-03T08:51:18.762Z</time></trkpt><trkpt lat="39.310129" lon="16.5176826"><ele>1385.4</ele><time>2026-05-03T08:51:19.765Z</time></trkpt><trkpt lat="39.3101295" lon="16.5175412"><ele>1386.8000000000002</ele><time>2026-05-03T08:51:20.768Z</time></trkpt><trkpt lat="39.3101378" lon="16.5174158"><ele>1388.1999999999998</ele><time>2026-05-03T08:51:21.766Z</time></trkpt><trkpt lat="39.3101531" lon="16.5172904"><ele>1389.6</ele><time>2026-05-03T08:51:22.77Z</time></trkpt><trkpt lat="39.3101643" lon="16.5171626"><ele>1391.0</ele><time>2026-05-03T08:51:23.771Z</time></trkpt><trkpt lat="39.310174" lon="16.5170378"><ele>1391.1999999999998</ele><time>2026-05-03T08:51:24.768Z</time></trkpt><trkpt lat="39.3101864" lon="16.516916"><ele>1391.3999999999999</ele><time>2026-05-03T08:51:25.763Z</time></trkpt><trkpt lat="39.3101985" lon="16.5167956"><ele>1391.6</ele><time>2026-05-03T08:51:26.764Z</time></trkpt><trkpt lat="39.3102136" lon="16.5166788"><ele>1391.8</ele><time>2026-05-03T08:51:27.787Z</time></trkpt><trkpt lat="39.3102386" lon="16.5165661"><ele>1392.0</ele><time>2026-05-03T08:51:28.77Z</time></trkpt><trkpt lat="39.3102473" lon="16.5164473"><ele>1392.0</ele><time>2026-05-03T08:51:29.763Z</time></trkpt><trkpt lat="39.3102509" lon="16.5163404"><ele>1392.0</ele><time>2026-05-03T08:51:30.77Z</time></trkpt><trkpt lat="39.3102543" lon="16.51623"><ele>1392.0</ele><time>2026-05-03T08:51:31.766Z</time></trkpt><trkpt lat="39.3102492" lon="16.5161206"><ele>1392.0</ele><time>2026-05-03T08:51:32.772Z</time></trkpt><trkpt lat="39.3102488" lon="16.5160165"><ele>1392.0</ele><time>2026-05-03T08:51:33.772Z</time></trkpt><trkpt lat="39.3102498" lon="16.5159139"><ele>1392.0</ele><time>2026-05-03T08:51:34.771Z</time></trkpt><trkpt lat="39.310242" lon="16.515805"><ele>1392.1999999999998</ele><time>2026-05-03T08:51:35.762Z</time></trkpt><trkpt lat="39.3102349" lon="16.5156923"><ele>1392.4</ele><time>2026-05-03T08:51:36.764Z</time></trkpt><trkpt lat="39.3102185" lon="16.5155696"><ele>1392.6</ele><time>2026-05-03T08:51:37.762Z</time></trkpt><trkpt lat="39.3101926" lon="16.51545"><ele>1392.8000000000002</ele><time>2026-05-03T08:51:38.765Z</time></trkpt><trkpt lat="39.3101753" lon="16.515335"><ele>1393.0</ele><time>2026-05-03T08:51:39.769Z</time></trkpt><trkpt lat="39.3101408" lon="16.5152143"><ele>1393.8000000000002</ele><time>2026-05-03T08:51:40.771Z</time></trkpt><trkpt lat="39.3101081" lon="16.5150996"><ele>1394.6</ele><time>2026-05-03T08:51:41.756Z</time></trkpt><trkpt lat="39.3100765" lon="16.5149838"><ele>1395.4</ele><time>2026-05-03T08:51:42.759Z</time></trkpt><trkpt lat="39.3100458" lon="16.5148631"><ele>1396.1999999999998</ele><time>2026-05-03T08:51:43.761Z</time></trkpt><trkpt lat="39.3100167" lon="16.5147364"><ele>1397.0</ele><time>2026-05-03T08:51:44.765Z</time></trkpt><trkpt lat="39.3099822" lon="16.5146081"><ele>1397.6</ele><time>2026-05-03T08:51:45.764Z</time></trkpt><trkpt lat="39.3099461" lon="16.5144842"><ele>1398.1999999999998</ele><time>2026-05-03T08:51:46.781Z</time></trkpt><trkpt lat="39.3099101" lon="16.5143475"><ele>1398.8</ele><time>2026-05-03T08:51:47.76Z</time></trkpt><trkpt lat="39.3098717" lon="16.5142305"><ele>1399.4</ele><time>2026-05-03T08:51:48.766Z</time></trkpt><trkpt lat="39.309836" lon="16.5141213"><ele>1400.0</ele><time>2026-05-03T08:51:49.759Z</time></trkpt><trkpt lat="39.3098036" lon="16.5140134"><ele>1400.0</ele><time>2026-05-03T08:51:50.762Z</time></trkpt><trkpt lat="39.3097731" lon="16.5138879"><ele>1400.0</ele><time>2026-05-03T08:51:51.76Z</time></trkpt><trkpt lat="39.3097415" lon="16.5137595"><ele>1400.0</ele><time>2026-05-03T08:51:52.761Z</time></trkpt><trkpt lat="39.3097077" lon="16.5136349"><ele>1400.0</ele><time>2026-05-03T08:51:53.759Z</time></trkpt><trkpt lat="39.3096645" lon="16.5134995"><ele>1400.0</ele><time>2026-05-03T08:51:54.764Z</time></trkpt><trkpt lat="39.3096256" lon="16.5133592"><ele>1398.75</ele><time>2026-05-03T08:51:55.759Z</time></trkpt><trkpt lat="39.3095841" lon="16.5132116"><ele>1397.5</ele><time>2026-05-03T08:51:56.764Z</time></trkpt><trkpt lat="39.3095461" lon="16.5130563"><ele>1396.25</ele><time>2026-05-03T08:51:57.779Z</time></trkpt><trkpt lat="39.3095262" lon="16.5129143"><ele>1395.0</ele><time>2026-05-03T08:51:58.761Z</time></trkpt><trkpt lat="39.3095088" lon="16.5127819"><ele>1395.0</ele><time>2026-05-03T08:51:59.768Z</time></trkpt><trkpt lat="39.3094976" lon="16.5126524"><ele>1395.0</ele><time>2026-05-03T08:52:00.763Z</time></trkpt><trkpt lat="39.3094813" lon="16.5125224"><ele>1395.0</ele><time>2026-05-03T08:52:01.765Z</time></trkpt><trkpt lat="39.3094649" lon="16.5123957"><ele>1395.0</ele><time>2026-05-03T08:52:02.763Z</time></trkpt><trkpt lat="39.3094515" lon="16.51227"><ele>1395.0</ele><time>2026-05-03T08:52:03.762Z</time></trkpt><trkpt lat="39.3094504" lon="16.5121438"><ele>1395.4</ele><time>2026-05-03T08:52:04.781Z</time></trkpt><trkpt lat="39.3094542" lon="16.5120147"><ele>1395.8</ele><time>2026-05-03T08:52:05.771Z</time></trkpt><trkpt lat="39.3094674" lon="16.5118837"><ele>1396.1999999999998</ele><time>2026-05-03T08:52:06.763Z</time></trkpt><trkpt lat="39.309485" lon="16.5117541"><ele>1396.6</ele><time>2026-05-03T08:52:07.764Z</time></trkpt><trkpt lat="39.3095031" lon="16.5116321"><ele>1397.0</ele><time>2026-05-03T08:52:08.767Z</time></trkpt><trkpt lat="39.3095196" lon="16.511512"><ele>1397.0</ele><time>2026-05-03T08:52:09.772Z</time></trkpt><trkpt lat="39.3095338" lon="16.5113947"><ele>1397.0</ele><time>2026-05-03T08:52:10.767Z</time></trkpt><trkpt lat="39.3095221" lon="16.5112777"><ele>1397.0</ele><time>2026-05-03T08:52:11.766Z</time></trkpt><trkpt lat="39.309485" lon="16.5111634"><ele>1397.0</ele><time>2026-05-03T08:52:12.758Z</time></trkpt><trkpt lat="39.3094184" lon="16.511071"><ele>1397.0</ele><time>2026-05-03T08:52:13.765Z</time></trkpt><trkpt lat="39.309353" lon="16.5109795"><ele>1397.1999999999998</ele><time>2026-05-03T08:52:14.769Z</time></trkpt><trkpt lat="39.3092798" lon="16.5109018"><ele>1397.4</ele><time>2026-05-03T08:52:15.767Z</time></trkpt><trkpt lat="39.309209" lon="16.5108257"><ele>1397.6</ele><time>2026-05-03T08:52:16.787Z</time></trkpt><trkpt lat="39.3091467" lon="16.5107545"><ele>1397.8000000000002</ele><time>2026-05-03T08:52:17.764Z</time></trkpt><trkpt lat="39.309094" lon="16.5106642"><ele>1398.0</ele><time>2026-05-03T08:52:18.765Z</time></trkpt><trkpt lat="39.3090319" lon="16.5105711"><ele>1398.0</ele><time>2026-05-03T08:52:19.765Z</time></trkpt><trkpt lat="39.3089704" lon="16.510475"><ele>1398.0</ele><time>2026-05-03T08:52:20.764Z</time></trkpt><trkpt lat="39.3089087" lon="16.5103764"><ele>1398.0</ele><time>2026-05-03T08:52:21.778Z</time></trkpt><trkpt lat="39.3088476" lon="16.5102746"><ele>1398.0</ele><time>2026-05-03T08:52:22.764Z</time></trkpt><trkpt lat="39.3087914" lon="16.5101826"><ele>1398.0</ele><time>2026-05-03T08:52:23.767Z</time></trkpt><trkpt lat="39.3087426" lon="16.5100969"><ele>1397.6666666666667</ele><time>2026-05-03T08:52:24.769Z</time></trkpt><trkpt lat="39.3087036" lon="16.5100026"><ele>1397.3333333333333</ele><time>2026-05-03T08:52:25.76Z</time></trkpt><trkpt lat="39.3086797" lon="16.509905"><ele>1397.0</ele><time>2026-05-03T08:52:26.781Z</time></trkpt><trkpt lat="39.3086648" lon="16.5098161"><ele>1396.6666666666665</ele><time>2026-05-03T08:52:27.765Z</time></trkpt><trkpt lat="39.3086531" lon="16.5097306"><ele>1396.3333333333333</ele><time>2026-05-03T08:52:28.763Z</time></trkpt><trkpt lat="39.3086379" lon="16.5095939"><ele>1396.0</ele><time>2026-05-03T08:52:30.759Z</time></trkpt><trkpt lat="39.3086231" lon="16.5094925"><ele>1395.6666666666665</ele><time>2026-05-03T08:52:33.781Z</time></trkpt><trkpt lat="39.3085865" lon="16.5094007"><ele>1395.3333333333333</ele><time>2026-05-03T08:52:38.766Z</time></trkpt><trkpt lat="39.3085265" lon="16.5093474"><ele>1395.0</ele><time>2026-05-03T08:52:41.77Z</time></trkpt><trkpt lat="39.3084541" lon="16.5093225"><ele>1394.6666666666667</ele><time>2026-05-03T08:52:47.77Z</time></trkpt><trkpt lat="39.308351" lon="16.5093067"><ele>1394.3333333333335</ele><time>2026-05-03T08:52:50.769Z</time></trkpt><trkpt lat="39.308284" lon="16.5092998"><ele>1394.0</ele><time>2026-05-03T08:52:52.769Z</time></trkpt><trkpt lat="39.3082143" lon="16.5092931"><ele>1394.0</ele><time>2026-05-03T08:52:54.766Z</time></trkpt><trkpt lat="39.3081494" lon="16.5092851"><ele>1394.0</ele><time>2026-05-03T08:52:56.769Z</time></trkpt><trkpt lat="39.3080845" lon="16.509274"><ele>1394.0</ele><time>2026-05-03T08:52:58.771Z</time></trkpt><trkpt lat="39.3080175" lon="16.509251"><ele>1394.0</ele><time>2026-05-03T08:53:00.77Z</time></trkpt><trkpt lat="39.3079477" lon="16.5092136"><ele>1394.0</ele><time>2026-05-03T08:53:02.768Z</time></trkpt><trkpt lat="39.3078799" lon="16.5091544"><ele>1394.0</ele><time>2026-05-03T08:53:04.763Z</time></trkpt><trkpt lat="39.3078151" lon="16.5090843"><ele>1394.0</ele><time>2026-05-03T08:53:06.78Z</time></trkpt><trkpt lat="39.3077341" lon="16.5090062"><ele>1395.1666666666667</ele><time>2026-05-03T08:53:09.767Z</time></trkpt><trkpt lat="39.3076752" lon="16.5089428"><ele>1396.3333333333335</ele><time>2026-05-03T08:53:11.772Z</time></trkpt><trkpt lat="39.3076276" lon="16.5088632"><ele>1397.5</ele><time>2026-05-03T08:53:14.766Z</time></trkpt><trkpt lat="39.3076039" lon="16.5087747"><ele>1398.6666666666667</ele><time>2026-05-03T08:53:17.765Z</time></trkpt><trkpt lat="39.3075762" lon="16.5086763"><ele>1399.8333333333333</ele><time>2026-05-03T08:53:20.767Z</time></trkpt><trkpt lat="39.3075871" lon="16.5085951"><ele>1401.0</ele><time>2026-05-03T08:53:22.772Z</time></trkpt><trkpt lat="39.3076311" lon="16.5085122"><ele>1401.6666666666667</ele><time>2026-05-03T08:53:24.776Z</time></trkpt><trkpt lat="39.3076893" lon="16.5084418"><ele>1402.3333333333333</ele><time>2026-05-03T08:53:26.769Z</time></trkpt><trkpt lat="39.3077482" lon="16.5083858"><ele>1403.0</ele><time>2026-05-03T08:53:28.773Z</time></trkpt><trkpt lat="39.3078108" lon="16.5083199"><ele>1403.6666666666665</ele><time>2026-05-03T08:53:30.769Z</time></trkpt><trkpt lat="39.3078272" lon="16.5082252"><ele>1404.3333333333333</ele><time>2026-05-03T08:53:33.771Z</time></trkpt><trkpt lat="39.3078277" lon="16.5081326"><ele>1405.0</ele><time>2026-05-03T08:53:36.771Z</time></trkpt><trkpt lat="39.3077624" lon="16.5080141"><ele>1405.0</ele><time>2026-05-03T08:53:39.764Z</time></trkpt><trkpt lat="39.3077307" lon="16.5079416"><ele>1405.0</ele><time>2026-05-03T08:53:40.77Z</time></trkpt><trkpt lat="39.3076964" lon="16.5077716"><ele>1405.0</ele><time>2026-05-03T08:53:42.763Z</time></trkpt><trkpt lat="39.3076924" lon="16.5076608"><ele>1405.0</ele><time>2026-05-03T08:53:43.778Z</time></trkpt><trkpt lat="39.3076934" lon="16.5075524"><ele>1405.0</ele><time>2026-05-03T08:53:44.767Z</time></trkpt><trkpt lat="39.3077222" lon="16.5074324"><ele>1405.6</ele><time>2026-05-03T08:53:45.765Z</time></trkpt><trkpt lat="39.307746" lon="16.5073105"><ele>1406.2</ele><time>2026-05-03T08:53:46.762Z</time></trkpt><trkpt lat="39.3077702" lon="16.5071846"><ele>1406.8000000000002</ele><time>2026-05-03T08:53:47.763Z</time></trkpt><trkpt lat="39.3077951" lon="16.5070294"><ele>1407.4</ele><time>2026-05-03T08:53:48.765Z</time></trkpt><trkpt lat="39.3078074" lon="16.5068821"><ele>1408.0</ele><time>2026-05-03T08:53:49.766Z</time></trkpt><trkpt lat="39.3077988" lon="16.506738"><ele>1408.4</ele><time>2026-05-03T08:53:50.767Z</time></trkpt><trkpt lat="39.3077854" lon="16.5065991"><ele>1408.8000000000002</ele><time>2026-05-03T08:53:51.762Z</time></trkpt><trkpt lat="39.3077725" lon="16.5064572"><ele>1409.2</ele><time>2026-05-03T08:53:52.756Z</time></trkpt><trkpt lat="39.3077686" lon="16.5063193"><ele>1409.6</ele><time>2026-05-03T08:53:53.755Z</time></trkpt><trkpt lat="39.3077745" lon="16.5061909"><ele>1410.0</ele><time>2026-05-03T08:53:54.761Z</time></trkpt><trkpt lat="39.3077764" lon="16.5060612"><ele>1410.1666666666667</ele><time>2026-05-03T08:53:55.765Z</time></trkpt><trkpt lat="39.3077708" lon="16.505932"><ele>1410.3333333333333</ele><time>2026-05-03T08:53:56.763Z</time></trkpt><trkpt lat="39.3077602" lon="16.5058113"><ele>1410.5</ele><time>2026-05-03T08:53:57.772Z</time></trkpt><trkpt lat="39.3077461" lon="16.5057028"><ele>1410.6666666666665</ele><time>2026-05-03T08:53:58.762Z</time></trkpt><trkpt lat="39.3077366" lon="16.5056026"><ele>1410.8333333333333</ele><time>2026-05-03T08:53:59.764Z</time></trkpt><trkpt lat="39.3077285" lon="16.505489"><ele>1411.0</ele><time>2026-05-03T08:54:00.778Z</time></trkpt><trkpt lat="39.3077396" lon="16.5053867"><ele>1411.0</ele><time>2026-05-03T08:54:01.77Z</time></trkpt><trkpt lat="39.3077441" lon="16.5052346"><ele>1411.0</ele><time>2026-05-03T08:54:03.764Z</time></trkpt><trkpt lat="39.3077147" lon="16.5051069"><ele>1411.0</ele><time>2026-05-03T08:54:04.758Z</time></trkpt><trkpt lat="39.3076859" lon="16.5049518"><ele>1411.0</ele><time>2026-05-03T08:54:05.759Z</time></trkpt><trkpt lat="39.3076513" lon="16.5047947"><ele>1411.0</ele><time>2026-05-03T08:54:06.755Z</time></trkpt><trkpt lat="39.3076128" lon="16.5046435"><ele>1411.0</ele><time>2026-05-03T08:54:07.786Z</time></trkpt><trkpt lat="39.3075776" lon="16.504495"><ele>1411.0</ele><time>2026-05-03T08:54:08.762Z</time></trkpt><trkpt lat="39.3075442" lon="16.5043412"><ele>1411.0</ele><time>2026-05-03T08:54:09.767Z</time></trkpt><trkpt lat="39.3075114" lon="16.5042005"><ele>1410.8</ele><time>2026-05-03T08:54:10.76Z</time></trkpt><trkpt lat="39.3074758" lon="16.5040663"><ele>1410.6</ele><time>2026-05-03T08:54:11.767Z</time></trkpt><trkpt lat="39.3074366" lon="16.5039325"><ele>1410.4</ele><time>2026-05-03T08:54:12.768Z</time></trkpt><trkpt lat="39.3073953" lon="16.5037929"><ele>1410.2</ele><time>2026-05-03T08:54:13.763Z</time></trkpt><trkpt lat="39.3073346" lon="16.5036709"><ele>1410.0</ele><time>2026-05-03T08:54:14.773Z</time></trkpt><trkpt lat="39.307292" lon="16.5035484"><ele>1409.4</ele><time>2026-05-03T08:54:15.763Z</time></trkpt><trkpt lat="39.3072475" lon="16.5034318"><ele>1408.8</ele><time>2026-05-03T08:54:16.765Z</time></trkpt><trkpt lat="39.307203" lon="16.5033035"><ele>1408.1999999999998</ele><time>2026-05-03T08:54:17.762Z</time></trkpt><trkpt lat="39.3071533" lon="16.5031852"><ele>1407.6</ele><time>2026-05-03T08:54:18.769Z</time></trkpt><trkpt lat="39.3071049" lon="16.50308"><ele>1407.0</ele><time>2026-05-03T08:54:19.787Z</time></trkpt><trkpt lat="39.307058" lon="16.5029629"><ele>1408.3999999999999</ele><time>2026-05-03T08:54:20.766Z</time></trkpt><trkpt lat="39.3070071" lon="16.5028579"><ele>1409.8</ele><time>2026-05-03T08:54:21.765Z</time></trkpt><trkpt lat="39.3069585" lon="16.5027507"><ele>1411.2</ele><time>2026-05-03T08:54:22.77Z</time></trkpt><trkpt lat="39.3069119" lon="16.5026472"><ele>1412.6</ele><time>2026-05-03T08:54:23.765Z</time></trkpt><trkpt lat="39.3068761" lon="16.5025296"><ele>1414.0</ele><time>2026-05-03T08:54:24.77Z</time></trkpt><trkpt lat="39.3068448" lon="16.5023986"><ele>1414.0</ele><time>2026-05-03T08:54:25.758Z</time></trkpt><trkpt lat="39.3068427" lon="16.5022632"><ele>1414.0</ele><time>2026-05-03T08:54:26.766Z</time></trkpt><trkpt lat="39.3068416" lon="16.502132"><ele>1414.0</ele><time>2026-05-03T08:54:27.768Z</time></trkpt><trkpt lat="39.3068266" lon="16.5020011"><ele>1414.0</ele><time>2026-05-03T08:54:28.767Z</time></trkpt><trkpt lat="39.3068218" lon="16.5018708"><ele>1414.0</ele><time>2026-05-03T08:54:29.769Z</time></trkpt><trkpt lat="39.3068223" lon="16.5017215"><ele>1413.8000000000002</ele><time>2026-05-03T08:54:30.763Z</time></trkpt><trkpt lat="39.3068281" lon="16.5015834"><ele>1413.6000000000001</ele><time>2026-05-03T08:54:31.775Z</time></trkpt><trkpt lat="39.306818" lon="16.5014552"><ele>1413.4</ele><time>2026-05-03T08:54:32.763Z</time></trkpt><trkpt lat="39.3067919" lon="16.5013284"><ele>1413.2</ele><time>2026-05-03T08:54:33.76Z</time></trkpt><trkpt lat="39.3067403" lon="16.5012147"><ele>1413.0</ele><time>2026-05-03T08:54:34.765Z</time></trkpt><trkpt lat="39.30667" lon="16.5011148"><ele>1412.4</ele><time>2026-05-03T08:54:35.773Z</time></trkpt><trkpt lat="39.3065843" lon="16.5010282"><ele>1411.8000000000002</ele><time>2026-05-03T08:54:36.765Z</time></trkpt><trkpt lat="39.3065072" lon="16.5009535"><ele>1411.2</ele><time>2026-05-03T08:54:37.775Z</time></trkpt><trkpt lat="39.3064254" lon="16.500873"><ele>1410.6</ele><time>2026-05-03T08:54:38.768Z</time></trkpt><trkpt lat="39.3063474" lon="16.5007962"><ele>1410.0</ele><time>2026-05-03T08:54:39.77Z</time></trkpt><trkpt lat="39.3062874" lon="16.5007353"><ele>1410.0</ele><time>2026-05-03T08:54:40.768Z</time></trkpt><trkpt lat="39.3062523" lon="16.50064"><ele>1410.0</ele><time>2026-05-03T08:54:41.772Z</time></trkpt><trkpt lat="39.3062236" lon="16.5005316"><ele>1410.0</ele><time>2026-05-03T08:54:42.774Z</time></trkpt><trkpt lat="39.3061931" lon="16.500419"><ele>1410.0</ele><time>2026-05-03T08:54:43.766Z</time></trkpt><trkpt lat="39.3061589" lon="16.5002992"><ele>1410.0</ele><time>2026-05-03T08:54:44.764Z</time></trkpt><trkpt lat="39.306123" lon="16.5001824"><ele>1410.6</ele><time>2026-05-03T08:54:45.769Z</time></trkpt><trkpt lat="39.3060878" lon="16.5000587"><ele>1411.2</ele><time>2026-05-03T08:54:46.769Z</time></trkpt><trkpt lat="39.3060503" lon="16.4999357"><ele>1411.8000000000002</ele><time>2026-05-03T08:54:47.772Z</time></trkpt><trkpt lat="39.3060149" lon="16.4998092"><ele>1412.4</ele><time>2026-05-03T08:54:48.769Z</time></trkpt><trkpt lat="39.3059795" lon="16.4996832"><ele>1413.0</ele><time>2026-05-03T08:54:49.759Z</time></trkpt><trkpt lat="39.3059424" lon="16.4995578"><ele>1413.75</ele><time>2026-05-03T08:54:50.767Z</time></trkpt><trkpt lat="39.3059056" lon="16.4994273"><ele>1414.5</ele><time>2026-05-03T08:54:51.771Z</time></trkpt><trkpt lat="39.3058618" lon="16.4992832"><ele>1415.25</ele><time>2026-05-03T08:54:52.788Z</time></trkpt><trkpt lat="39.3058253" lon="16.4991275"><ele>1416.0</ele><time>2026-05-03T08:54:53.763Z</time></trkpt><trkpt lat="39.3057977" lon="16.4989843"><ele>1416.0</ele><time>2026-05-03T08:54:54.766Z</time></trkpt><trkpt lat="39.3057689" lon="16.4988521"><ele>1416.0</ele><time>2026-05-03T08:54:55.767Z</time></trkpt><trkpt lat="39.3057421" lon="16.4987225"><ele>1416.0</ele><time>2026-05-03T08:54:56.768Z</time></trkpt><trkpt lat="39.3057106" lon="16.4986197"><ele>1416.0</ele><time>2026-05-03T08:54:57.801Z</time></trkpt><trkpt lat="39.3056773" lon="16.4984782"><ele>1416.0</ele><time>2026-05-03T08:54:59.763Z</time></trkpt><trkpt lat="39.3056284" lon="16.4983233"><ele>1416.6</ele><time>2026-05-03T08:55:01.764Z</time></trkpt><trkpt lat="39.3055964" lon="16.498245"><ele>1417.1999999999998</ele><time>2026-05-03T08:55:02.761Z</time></trkpt><trkpt lat="39.3055686" lon="16.498152"><ele>1417.8000000000002</ele><time>2026-05-03T08:55:03.768Z</time></trkpt><trkpt lat="39.3055368" lon="16.4980248"><ele>1418.4</ele><time>2026-05-03T08:55:04.758Z</time></trkpt><trkpt lat="39.3055149" lon="16.4978913"><ele>1419.0</ele><time>2026-05-03T08:55:05.765Z</time></trkpt><trkpt lat="39.3055075" lon="16.4977491"><ele>1420.2</ele><time>2026-05-03T08:55:06.774Z</time></trkpt><trkpt lat="39.3055073" lon="16.4976123"><ele>1421.4</ele><time>2026-05-03T08:55:07.764Z</time></trkpt><trkpt lat="39.3055036" lon="16.4974709"><ele>1422.6</ele><time>2026-05-03T08:55:08.769Z</time></trkpt><trkpt lat="39.3055018" lon="16.4973333"><ele>1423.8</ele><time>2026-05-03T08:55:09.773Z</time></trkpt><trkpt lat="39.3054872" lon="16.4971981"><ele>1425.0</ele><time>2026-05-03T08:55:10.77Z</time></trkpt><trkpt lat="39.3054868" lon="16.4970665"><ele>1425.0</ele><time>2026-05-03T08:55:11.762Z</time></trkpt><trkpt lat="39.3055035" lon="16.4969448"><ele>1425.0</ele><time>2026-05-03T08:55:12.771Z</time></trkpt><trkpt lat="39.3055108" lon="16.496821"><ele>1425.0</ele><time>2026-05-03T08:55:13.762Z</time></trkpt><trkpt lat="39.3055155" lon="16.4966925"><ele>1425.0</ele><time>2026-05-03T08:55:14.78Z</time></trkpt><trkpt lat="39.3055313" lon="16.4965663"><ele>1425.0</ele><time>2026-05-03T08:55:15.765Z</time></trkpt><trkpt lat="39.3055421" lon="16.4964314"><ele>1425.0</ele><time>2026-05-03T08:55:16.769Z</time></trkpt><trkpt lat="39.3055412" lon="16.4962807"><ele>1425.0</ele><time>2026-05-03T08:55:17.766Z</time></trkpt><trkpt lat="39.3055468" lon="16.4961251"><ele>1425.0</ele><time>2026-05-03T08:55:18.771Z</time></trkpt><trkpt lat="39.3055825" lon="16.4959996"><ele>1425.0</ele><time>2026-05-03T08:55:19.765Z</time></trkpt><trkpt lat="39.3056201" lon="16.4959091"><ele>1425.0</ele><time>2026-05-03T08:55:20.768Z</time></trkpt><trkpt lat="39.3056954" lon="16.4958077"><ele>1426.0</ele><time>2026-05-03T08:55:22.769Z</time></trkpt><trkpt lat="39.3057252" lon="16.4957351"><ele>1427.0</ele><time>2026-05-03T08:55:23.764Z</time></trkpt><trkpt lat="39.3057456" lon="16.4956429"><ele>1428.0</ele><time>2026-05-03T08:55:24.768Z</time></trkpt><trkpt lat="39.3057641" lon="16.4955375"><ele>1429.0</ele><time>2026-05-03T08:55:25.762Z</time></trkpt><trkpt lat="39.3057913" lon="16.4954283"><ele>1430.0</ele><time>2026-05-03T08:55:26.772Z</time></trkpt><trkpt lat="39.3058338" lon="16.495301"><ele>1431.0</ele><time>2026-05-03T08:55:27.769Z</time></trkpt><trkpt lat="39.3058703" lon="16.4951809"><ele>1431.8333333333333</ele><time>2026-05-03T08:55:28.765Z</time></trkpt><trkpt lat="39.3058879" lon="16.4950518"><ele>1432.6666666666667</ele><time>2026-05-03T08:55:29.775Z</time></trkpt><trkpt lat="39.3059039" lon="16.4949463"><ele>1433.5</ele><time>2026-05-03T08:55:30.759Z</time></trkpt><trkpt lat="39.3059338" lon="16.494849"><ele>1434.3333333333335</ele><time>2026-05-03T08:55:31.781Z</time></trkpt><trkpt lat="39.3059809" lon="16.4947536"><ele>1435.1666666666667</ele><time>2026-05-03T08:55:32.772Z</time></trkpt><trkpt lat="39.3060515" lon="16.4946745"><ele>1436.0</ele><time>2026-05-03T08:55:33.77Z</time></trkpt><trkpt lat="39.306121" lon="16.4945921"><ele>1437.8</ele><time>2026-05-03T08:55:34.767Z</time></trkpt><trkpt lat="39.3061995" lon="16.494507"><ele>1439.6</ele><time>2026-05-03T08:55:35.772Z</time></trkpt><trkpt lat="39.3062744" lon="16.4944181"><ele>1441.4</ele><time>2026-05-03T08:55:36.76Z</time></trkpt><trkpt lat="39.3063379" lon="16.4943101"><ele>1443.2</ele><time>2026-05-03T08:55:37.763Z</time></trkpt><trkpt lat="39.3063948" lon="16.4942068"><ele>1445.0</ele><time>2026-05-03T08:55:38.772Z</time></trkpt><trkpt lat="39.3064417" lon="16.4941158"><ele>1442.6666666666667</ele><time>2026-05-03T08:55:39.766Z</time></trkpt><trkpt lat="39.3064804" lon="16.4940414"><ele>1440.3333333333335</ele><time>2026-05-03T08:55:40.769Z</time></trkpt><trkpt lat="39.3065363" lon="16.4939519"><ele>1438.0</ele><time>2026-05-03T08:55:42.771Z</time></trkpt><trkpt lat="39.3065784" lon="16.4938493"><ele>1435.6666666666667</ele><time>2026-05-03T08:55:44.764Z</time></trkpt><trkpt lat="39.306612" lon="16.4937341"><ele>1433.3333333333333</ele><time>2026-05-03T08:55:47.764Z</time></trkpt><trkpt lat="39.3066374" lon="16.4936356"><ele>1431.0</ele><time>2026-05-03T08:55:51.773Z</time></trkpt><trkpt lat="39.306657" lon="16.4935538"><ele>1431.0</ele><time>2026-05-03T08:55:54.771Z</time></trkpt><trkpt lat="39.3066843" lon="16.4934473"><ele>1431.0</ele><time>2026-05-03T08:55:57.765Z</time></trkpt><trkpt lat="39.3067385" lon="16.49339"><ele>1431.0</ele><time>2026-05-03T08:56:23.777Z</time></trkpt><trkpt lat="39.3067812" lon="16.4933265"><ele>1431.0</ele><time>2026-05-03T08:56:27.764Z</time></trkpt><trkpt lat="39.3068538" lon="16.4932351"><ele>1431.0</ele><time>2026-05-03T08:56:33.773Z</time></trkpt><trkpt lat="39.3068665" lon="16.4931146"><ele>1431.0</ele><time>2026-05-03T08:57:05.775Z</time></trkpt><trkpt lat="39.3069007" lon="16.493031"><ele>1431.6666666666667</ele><time>2026-05-03T08:57:06.784Z</time></trkpt><trkpt lat="39.3069284" lon="16.4929216"><ele>1432.3333333333333</ele><time>2026-05-03T08:57:11.762Z</time></trkpt><trkpt lat="39.306963" lon="16.4928277"><ele>1433.0</ele><time>2026-05-03T08:57:13.773Z</time></trkpt><trkpt lat="39.3070263" lon="16.4927163"><ele>1433.6666666666665</ele><time>2026-05-03T08:57:15.774Z</time></trkpt><trkpt lat="39.3070801" lon="16.4926291"><ele>1434.3333333333333</ele><time>2026-05-03T08:57:16.784Z</time></trkpt><trkpt lat="39.3071224" lon="16.4925636"><ele>1435.0</ele><time>2026-05-03T08:57:17.802Z</time></trkpt><trkpt lat="39.3071889" lon="16.492445"><ele>1435.8</ele><time>2026-05-03T08:57:19.769Z</time></trkpt><trkpt lat="39.3072547" lon="16.4923438"><ele>1436.6</ele><time>2026-05-03T08:57:21.767Z</time></trkpt><trkpt lat="39.3073407" lon="16.4922412"><ele>1437.4</ele><time>2026-05-03T08:57:47.767Z</time></trkpt><trkpt lat="39.3073621" lon="16.4921169"><ele>1438.2</ele><time>2026-05-03T08:57:50.761Z</time></trkpt><trkpt lat="39.3073729" lon="16.4920352"><ele>1439.0</ele><time>2026-05-03T08:57:52.761Z</time></trkpt><trkpt lat="39.3073544" lon="16.4919432"><ele>1439.3333333333335</ele><time>2026-05-03T08:57:54.771Z</time></trkpt><trkpt lat="39.307337" lon="16.4918588"><ele>1439.6666666666667</ele><time>2026-05-03T08:57:58.78Z</time></trkpt><trkpt lat="39.3073419" lon="16.4917606"><ele>1440.0</ele><time>2026-05-03T08:58:02.762Z</time></trkpt><trkpt lat="39.3073093" lon="16.491672"><ele>1440.3333333333333</ele><time>2026-05-03T08:58:04.764Z</time></trkpt><trkpt lat="39.3072797" lon="16.4915862"><ele>1440.6666666666665</ele><time>2026-05-03T08:58:06.766Z</time></trkpt><trkpt lat="39.3072632" lon="16.4914684"><ele>1441.0</ele><time>2026-05-03T08:58:08.76Z</time></trkpt><trkpt lat="39.3072762" lon="16.4913313"><ele>1441.8333333333333</ele><time>2026-05-03T08:58:10.77Z</time></trkpt><trkpt lat="39.3073138" lon="16.4912162"><ele>1442.6666666666665</ele><time>2026-05-03T08:58:12.77Z</time></trkpt><trkpt lat="39.3073478" lon="16.4911279"><ele>1443.5</ele><time>2026-05-03T08:58:13.766Z</time></trkpt><trkpt lat="39.3073774" lon="16.4910493"><ele>1444.3333333333333</ele><time>2026-05-03T08:58:14.775Z</time></trkpt><trkpt lat="39.3074225" lon="16.4909204"><ele>1445.1666666666667</ele><time>2026-05-03T08:58:16.759Z</time></trkpt><trkpt lat="39.3074274" lon="16.4908149"><ele>1446.0</ele><time>2026-05-03T08:58:18.776Z</time></trkpt><trkpt lat="39.3074204" lon="16.4906615"><ele>1446.0</ele><time>2026-05-03T08:58:31.779Z</time></trkpt><trkpt lat="39.3074492" lon="16.4905487"><ele>1446.0</ele><time>2026-05-03T08:58:34.774Z</time></trkpt><trkpt lat="39.3074265" lon="16.4904611"><ele>1446.0</ele><time>2026-05-03T08:58:36.778Z</time></trkpt><trkpt lat="39.3074414" lon="16.4903321"><ele>1446.0</ele><time>2026-05-03T08:58:38.768Z</time></trkpt><trkpt lat="39.3074675" lon="16.4901866"><ele>1446.0</ele><time>2026-05-03T08:58:40.769Z</time></trkpt><trkpt lat="39.3074756" lon="16.4900374"><ele>1446.8333333333333</ele><time>2026-05-03T08:58:42.763Z</time></trkpt><trkpt lat="39.307476" lon="16.4899518"><ele>1447.6666666666667</ele><time>2026-05-03T08:58:43.766Z</time></trkpt><trkpt lat="39.3074443" lon="16.4897975"><ele>1448.5</ele><time>2026-05-03T08:58:45.775Z</time></trkpt><trkpt lat="39.3074227" lon="16.4896714"><ele>1449.3333333333335</ele><time>2026-05-03T08:58:47.765Z</time></trkpt><trkpt lat="39.3073729" lon="16.489574"><ele>1450.1666666666667</ele><time>2026-05-03T08:58:49.771Z</time></trkpt><trkpt lat="39.3073135" lon="16.4895369"><ele>1451.0</ele><time>2026-05-03T08:58:50.784Z</time></trkpt><trkpt lat="39.3072341" lon="16.489553"><ele>1451.1666666666667</ele><time>2026-05-03T08:58:51.763Z</time></trkpt><trkpt lat="39.3071353" lon="16.4895843"><ele>1451.3333333333335</ele><time>2026-05-03T08:58:52.766Z</time></trkpt><trkpt lat="39.3070622" lon="16.4896317"><ele>1451.5</ele><time>2026-05-03T08:58:53.766Z</time></trkpt><trkpt lat="39.3069873" lon="16.4896784"><ele>1451.6666666666667</ele><time>2026-05-03T08:58:54.767Z</time></trkpt><trkpt lat="39.306906" lon="16.4897263"><ele>1451.8333333333333</ele><time>2026-05-03T08:58:55.757Z</time></trkpt><trkpt lat="39.3068453" lon="16.4897727"><ele>1452.0</ele><time>2026-05-03T08:58:56.766Z</time></trkpt><trkpt lat="39.3067717" lon="16.4897598"><ele>1452.0</ele><time>2026-05-03T08:58:59.779Z</time></trkpt><trkpt lat="39.3067089" lon="16.4898417"><ele>1452.0</ele><time>2026-05-03T08:59:05.775Z</time></trkpt><trkpt lat="39.3066369" lon="16.4898579"><ele>1452.0</ele><time>2026-05-03T08:59:11.773Z</time></trkpt><trkpt lat="39.306627" lon="16.4897469"><ele>1452.0</ele><time>2026-05-03T08:59:15.768Z</time></trkpt><trkpt lat="39.3066182" lon="16.4896539"><ele>1452.0</ele><time>2026-05-03T08:59:18.768Z</time></trkpt><trkpt lat="39.3066303" lon="16.4895537"><ele>1452.0</ele><time>2026-05-03T08:59:20.772Z</time></trkpt><trkpt lat="39.30666" lon="16.4894684"><ele>1453.0</ele><time>2026-05-03T08:59:21.778Z</time></trkpt><trkpt lat="39.3066789" lon="16.4893853"><ele>1454.0</ele><time>2026-05-03T08:59:22.763Z</time></trkpt><trkpt lat="39.3066856" lon="16.489252"><ele>1455.0</ele><time>2026-05-03T08:59:23.766Z</time></trkpt><trkpt lat="39.3066651" lon="16.4891177"><ele>1456.0</ele><time>2026-05-03T08:59:24.767Z</time></trkpt><trkpt lat="39.3066618" lon="16.4889809"><ele>1457.0</ele><time>2026-05-03T08:59:25.766Z</time></trkpt><trkpt lat="39.30666" lon="16.488848"><ele>1458.1999999999998</ele><time>2026-05-03T08:59:26.767Z</time></trkpt><trkpt lat="39.3066732" lon="16.4887226"><ele>1459.4</ele><time>2026-05-03T08:59:27.761Z</time></trkpt><trkpt lat="39.3066849" lon="16.4886117"><ele>1460.6</ele><time>2026-05-03T08:59:28.766Z</time></trkpt><trkpt lat="39.3067015" lon="16.4885009"><ele>1461.8000000000002</ele><time>2026-05-03T08:59:29.773Z</time></trkpt><trkpt lat="39.3067352" lon="16.4883866"><ele>1463.0</ele><time>2026-05-03T08:59:30.763Z</time></trkpt><trkpt lat="39.3067736" lon="16.4882699"><ele>1463.0</ele><time>2026-05-03T08:59:31.762Z</time></trkpt><trkpt lat="39.3068323" lon="16.4881554"><ele>1463.0</ele><time>2026-05-03T08:59:32.769Z</time></trkpt><trkpt lat="39.306897" lon="16.488058"><ele>1463.0</ele><time>2026-05-03T08:59:33.761Z</time></trkpt><trkpt lat="39.3069387" lon="16.4879872"><ele>1463.0</ele><time>2026-05-03T08:59:34.761Z</time></trkpt><trkpt lat="39.3069743" lon="16.4878724"><ele>1463.0</ele><time>2026-05-03T08:59:36.757Z</time></trkpt><trkpt lat="39.3069937" lon="16.4877508"><ele>1463.8000000000002</ele><time>2026-05-03T08:59:39.765Z</time></trkpt><trkpt lat="39.3070624" lon="16.4876071"><ele>1464.6</ele><time>2026-05-03T08:59:41.764Z</time></trkpt><trkpt lat="39.3071054" lon="16.4875068"><ele>1465.4</ele><time>2026-05-03T08:59:42.762Z</time></trkpt><trkpt lat="39.307161" lon="16.4873845"><ele>1466.1999999999998</ele><time>2026-05-03T08:59:43.771Z</time></trkpt><trkpt lat="39.3072041" lon="16.4872884"><ele>1467.0</ele><time>2026-05-03T08:59:44.766Z</time></trkpt><trkpt lat="39.3072429" lon="16.4871584"><ele>1468.6666666666667</ele><time>2026-05-03T08:59:46.767Z</time></trkpt><trkpt lat="39.307302" lon="16.4870241"><ele>1470.3333333333333</ele><time>2026-05-03T08:59:48.769Z</time></trkpt><trkpt lat="39.3073459" lon="16.4869559"><ele>1472.0</ele><time>2026-05-03T08:59:49.763Z</time></trkpt><trkpt lat="39.307396" lon="16.4868878"><ele>1473.6666666666665</ele><time>2026-05-03T08:59:50.779Z</time></trkpt><trkpt lat="39.3074452" lon="16.4868035"><ele>1475.3333333333333</ele><time>2026-05-03T08:59:51.765Z</time></trkpt><trkpt lat="39.3074959" lon="16.4867146"><ele>1477.0</ele><time>2026-05-03T08:59:52.767Z</time></trkpt><trkpt lat="39.3075484" lon="16.4866306"><ele>1477.0</ele><time>2026-05-03T08:59:53.763Z</time></trkpt><trkpt lat="39.3075973" lon="16.48657"><ele>1477.0</ele><time>2026-05-03T08:59:54.761Z</time></trkpt><trkpt lat="39.3076506" lon="16.4865107"><ele>1477.0</ele><time>2026-05-03T08:59:56.763Z</time></trkpt><trkpt lat="39.3076982" lon="16.4864475"><ele>1477.0</ele><time>2026-05-03T09:00:00.771Z</time></trkpt><trkpt lat="39.3077962" lon="16.4863402"><ele>1477.0</ele><time>2026-05-03T09:00:04.768Z</time></trkpt><trkpt lat="39.3078713" lon="16.4862893"><ele>1477.0</ele><time>2026-05-03T09:00:05.77Z</time></trkpt><trkpt lat="39.3079383" lon="16.4862411"><ele>1478.1999999999998</ele><time>2026-05-03T09:00:06.768Z</time></trkpt><trkpt lat="39.308007" lon="16.4861902"><ele>1479.4</ele><time>2026-05-03T09:00:07.769Z</time></trkpt><trkpt lat="39.3080904" lon="16.4861304"><ele>1480.6</ele><time>2026-05-03T09:00:08.764Z</time></trkpt><trkpt lat="39.3081823" lon="16.4860695"><ele>1481.8000000000002</ele><time>2026-05-03T09:00:09.782Z</time></trkpt><trkpt lat="39.3082776" lon="16.4859941"><ele>1483.0</ele><time>2026-05-03T09:00:10.759Z</time></trkpt><trkpt lat="39.3083718" lon="16.4859132"><ele>1484.4</ele><time>2026-05-03T09:00:11.758Z</time></trkpt><trkpt lat="39.3084662" lon="16.4858434"><ele>1485.8000000000002</ele><time>2026-05-03T09:00:12.764Z</time></trkpt><trkpt lat="39.3085617" lon="16.4857894"><ele>1487.2</ele><time>2026-05-03T09:00:13.764Z</time></trkpt><trkpt lat="39.3086541" lon="16.4857447"><ele>1488.6</ele><time>2026-05-03T09:00:14.765Z</time></trkpt><trkpt lat="39.3087384" lon="16.4857083"><ele>1490.0</ele><time>2026-05-03T09:00:15.763Z</time></trkpt><trkpt lat="39.3088107" lon="16.4856736"><ele>1490.0</ele><time>2026-05-03T09:00:16.765Z</time></trkpt><trkpt lat="39.3088655" lon="16.4856306"><ele>1490.0</ele><time>2026-05-03T09:00:17.764Z</time></trkpt><trkpt lat="39.3089682" lon="16.4855443"><ele>1490.0</ele><time>2026-05-03T09:00:19.769Z</time></trkpt><trkpt lat="39.3090616" lon="16.485483"><ele>1490.0</ele><time>2026-05-03T09:00:21.769Z</time></trkpt><trkpt lat="39.3091825" lon="16.4854156"><ele>1490.0</ele><time>2026-05-03T09:00:23.766Z</time></trkpt><trkpt lat="39.3092592" lon="16.4853736"><ele>1491.6666666666667</ele><time>2026-05-03T09:00:24.794Z</time></trkpt><trkpt lat="39.3093361" lon="16.4853381"><ele>1493.3333333333335</ele><time>2026-05-03T09:00:25.77Z</time></trkpt><trkpt lat="39.3094172" lon="16.4853071"><ele>1495.0</ele><time>2026-05-03T09:00:26.771Z</time></trkpt><trkpt lat="39.3094906" lon="16.4852825"><ele>1496.6666666666667</ele><time>2026-05-03T09:00:27.765Z</time></trkpt><trkpt lat="39.3095619" lon="16.4852484"><ele>1498.3333333333333</ele><time>2026-05-03T09:00:28.764Z</time></trkpt><trkpt lat="39.3096353" lon="16.4851975"><ele>1500.0</ele><time>2026-05-03T09:00:29.774Z</time></trkpt><trkpt lat="39.3097101" lon="16.4851427"><ele>1500.3333333333333</ele><time>2026-05-03T09:00:30.764Z</time></trkpt><trkpt lat="39.3097864" lon="16.4850908"><ele>1500.6666666666667</ele><time>2026-05-03T09:00:31.764Z</time></trkpt><trkpt lat="39.3098555" lon="16.4850356"><ele>1501.0</ele><time>2026-05-03T09:00:32.767Z</time></trkpt><trkpt lat="39.3099264" lon="16.4849836"><ele>1501.3333333333335</ele><time>2026-05-03T09:00:33.765Z</time></trkpt><trkpt lat="39.3099913" lon="16.4849471"><ele>1501.6666666666667</ele><time>2026-05-03T09:00:34.779Z</time></trkpt><trkpt lat="39.3100957" lon="16.4849385"><ele>1502.0</ele><time>2026-05-03T09:00:36.759Z</time></trkpt><trkpt lat="39.310173" lon="16.4850019"><ele>1502.0</ele><time>2026-05-03T09:00:38.763Z</time></trkpt><trkpt lat="39.3102152" lon="16.4850946"><ele>1502.0</ele><time>2026-05-03T09:00:40.769Z</time></trkpt><trkpt lat="39.3102486" lon="16.4851761"><ele>1502.0</ele><time>2026-05-03T09:00:42.764Z</time></trkpt><trkpt lat="39.3102921" lon="16.4852922"><ele>1502.0</ele><time>2026-05-03T09:00:44.767Z</time></trkpt><trkpt lat="39.310342" lon="16.4853452"><ele>1502.0</ele><time>2026-05-03T09:00:48.768Z</time></trkpt><trkpt lat="39.310442" lon="16.4853663"><ele>1502.0</ele><time>2026-05-03T09:01:04.78Z</time></trkpt><trkpt lat="39.3105111" lon="16.4853828"><ele>1502.6</ele><time>2026-05-03T09:01:05.764Z</time></trkpt><trkpt lat="39.3105964" lon="16.4854097"><ele>1503.1999999999998</ele><time>2026-05-03T09:01:06.78Z</time></trkpt><trkpt lat="39.3106803" lon="16.4854369"><ele>1503.8</ele><time>2026-05-03T09:01:07.768Z</time></trkpt><trkpt lat="39.3107684" lon="16.4854559"><ele>1504.4</ele><time>2026-05-03T09:01:09.774Z</time></trkpt><trkpt lat="39.3108601" lon="16.4854463"><ele>1505.0</ele><time>2026-05-03T09:01:12.77Z</time></trkpt><trkpt lat="39.3109643" lon="16.4853781"><ele>1505.0</ele><time>2026-05-03T09:01:14.762Z</time></trkpt><trkpt lat="39.311028" lon="16.4853791"><ele>1505.0</ele><time>2026-05-03T09:01:15.765Z</time></trkpt><trkpt lat="39.3110843" lon="16.4854213"><ele>1505.0</ele><time>2026-05-03T09:01:16.772Z</time></trkpt><trkpt lat="39.3111394" lon="16.4854835"><ele>1505.0</ele><time>2026-05-03T09:01:17.768Z</time></trkpt><trkpt lat="39.3111932" lon="16.4855677"><ele>1505.0</ele><time>2026-05-03T09:01:18.767Z</time></trkpt><trkpt lat="39.3112369" lon="16.4856563"><ele>1505.0</ele><time>2026-05-03T09:01:19.767Z</time></trkpt><trkpt lat="39.3112856" lon="16.4857844"><ele>1505.0</ele><time>2026-05-03T09:01:21.773Z</time></trkpt><trkpt lat="39.3113507" lon="16.485923"><ele>1505.0</ele><time>2026-05-03T09:01:23.769Z</time></trkpt><trkpt lat="39.3114166" lon="16.4860356"><ele>1505.0</ele><time>2026-05-03T09:01:25.769Z</time></trkpt><trkpt lat="39.3114603" lon="16.4861148"><ele>1505.0</ele><time>2026-05-03T09:01:27.77Z</time></trkpt><trkpt lat="39.3114968" lon="16.486193"><ele>1505.0</ele><time>2026-05-03T09:01:33.779Z</time></trkpt><trkpt lat="39.3115298" lon="16.4862666"><ele>1505.0</ele><time>2026-05-03T09:01:45.768Z</time></trkpt><trkpt lat="39.3115317" lon="16.4863957"><ele>1508.4</ele><time>2026-05-03T09:02:39.774Z</time></trkpt><trkpt lat="39.3115915" lon="16.4864356"><ele>1511.8</ele><time>2026-05-03T09:02:55.785Z</time></trkpt><trkpt lat="39.3116281" lon="16.48655"><ele>1515.1999999999998</ele><time>2026-05-03T09:02:58.787Z</time></trkpt><trkpt lat="39.3116404" lon="16.4866556"><ele>1518.6</ele><time>2026-05-03T09:03:00.778Z</time></trkpt><trkpt lat="39.3116518" lon="16.4867697"><ele>1522.0</ele><time>2026-05-03T09:03:02.771Z</time></trkpt><trkpt lat="39.3116858" lon="16.4869188"><ele>1522.0</ele><time>2026-05-03T09:03:04.77Z</time></trkpt><trkpt lat="39.3117513" lon="16.4870732"><ele>1522.0</ele><time>2026-05-03T09:03:06.772Z</time></trkpt><trkpt lat="39.3118071" lon="16.4871528"><ele>1522.0</ele><time>2026-05-03T09:03:07.782Z</time></trkpt><trkpt lat="39.3118657" lon="16.4872218"><ele>1522.0</ele><time>2026-05-03T09:03:08.771Z</time></trkpt><trkpt lat="39.3119181" lon="16.4872959"><ele>1522.0</ele><time>2026-05-03T09:03:09.764Z</time></trkpt><trkpt lat="39.3119703" lon="16.4873521"><ele>1522.0</ele><time>2026-05-03T09:03:10.766Z</time></trkpt><trkpt lat="39.3120638" lon="16.4874471"><ele>1522.0</ele><time>2026-05-03T09:03:12.779Z</time></trkpt><trkpt lat="39.3121428" lon="16.4875208"><ele>1522.0</ele><time>2026-05-03T09:03:14.783Z</time></trkpt><trkpt lat="39.3122105" lon="16.4875635"><ele>1522.0</ele><time>2026-05-03T09:03:16.769Z</time></trkpt><trkpt lat="39.31228" lon="16.4876846"><ele>1522.0</ele><time>2026-05-03T09:03:18.767Z</time></trkpt><trkpt lat="39.3123368" lon="16.4878182"><ele>1522.0</ele><time>2026-05-03T09:03:20.774Z</time></trkpt><trkpt lat="39.3123964" lon="16.4879408"><ele>1522.6666666666665</ele><time>2026-05-03T09:03:22.771Z</time></trkpt><trkpt lat="39.3124243" lon="16.4880521"><ele>1523.3333333333333</ele><time>2026-05-03T09:03:24.77Z</time></trkpt><trkpt lat="39.3124892" lon="16.4881597"><ele>1524.0</ele><time>2026-05-03T09:03:26.774Z</time></trkpt><trkpt lat="39.3125227" lon="16.4882356"><ele>1524.6666666666667</ele><time>2026-05-03T09:03:30.771Z</time></trkpt><trkpt lat="39.3125666" lon="16.4883112"><ele>1525.3333333333335</ele><time>2026-05-03T09:03:32.776Z</time></trkpt><trkpt lat="39.3126257" lon="16.4883909"><ele>1526.0</ele><time>2026-05-03T09:03:34.769Z</time></trkpt><trkpt lat="39.3126965" lon="16.4884709"><ele>1526.0</ele><time>2026-05-03T09:03:36.775Z</time></trkpt><trkpt lat="39.312764" lon="16.4885615"><ele>1526.0</ele><time>2026-05-03T09:03:38.771Z</time></trkpt><trkpt lat="39.3128468" lon="16.4886806"><ele>1526.0</ele><time>2026-05-03T09:03:40.771Z</time></trkpt><trkpt lat="39.3128902" lon="16.4887602"><ele>1526.0</ele><time>2026-05-03T09:03:41.767Z</time></trkpt><trkpt lat="39.3129308" lon="16.4888313"><ele>1526.0</ele><time>2026-05-03T09:03:42.775Z</time></trkpt><trkpt lat="39.3129909" lon="16.4888744"><ele>1526.0</ele><time>2026-05-03T09:03:43.767Z</time></trkpt><trkpt lat="39.3130738" lon="16.4888558"><ele>1525.1666666666667</ele><time>2026-05-03T09:03:44.774Z</time></trkpt><trkpt lat="39.3131572" lon="16.4888257"><ele>1524.3333333333335</ele><time>2026-05-03T09:03:45.775Z</time></trkpt><trkpt lat="39.3132432" lon="16.4888144"><ele>1523.5</ele><time>2026-05-03T09:03:46.773Z</time></trkpt><trkpt lat="39.3133098" lon="16.4888338"><ele>1522.6666666666667</ele><time>2026-05-03T09:03:47.766Z</time></trkpt><trkpt lat="39.3134079" lon="16.4889019"><ele>1521.8333333333333</ele><time>2026-05-03T09:03:49.766Z</time></trkpt><trkpt lat="39.313489" lon="16.4889058"><ele>1521.0</ele><time>2026-05-03T09:03:53.77Z</time></trkpt><trkpt lat="39.3135406" lon="16.488827"><ele>1522.5</ele><time>2026-05-03T09:03:57.779Z</time></trkpt><trkpt lat="39.3135927" lon="16.4887165"><ele>1524.0</ele><time>2026-05-03T09:03:59.772Z</time></trkpt><trkpt lat="39.3136423" lon="16.4886362"><ele>1525.5</ele><time>2026-05-03T09:04:00.772Z</time></trkpt><trkpt lat="39.3137013" lon="16.4885611"><ele>1527.0</ele><time>2026-05-03T09:04:01.77Z</time></trkpt><trkpt lat="39.3137593" lon="16.4884921"><ele>1528.5</ele><time>2026-05-03T09:04:02.781Z</time></trkpt><trkpt lat="39.3138235" lon="16.4884192"><ele>1530.0</ele><time>2026-05-03T09:04:03.77Z</time></trkpt><trkpt lat="39.313894" lon="16.4883754"><ele>1529.1666666666667</ele><time>2026-05-03T09:04:04.769Z</time></trkpt><trkpt lat="39.3139669" lon="16.4883666"><ele>1528.3333333333333</ele><time>2026-05-03T09:04:05.773Z</time></trkpt><trkpt lat="39.3140293" lon="16.4884078"><ele>1527.5</ele><time>2026-05-03T09:04:06.763Z</time></trkpt><trkpt lat="39.3140616" lon="16.4885466"><ele>1526.6666666666665</ele><time>2026-05-03T09:04:08.767Z</time></trkpt><trkpt lat="39.3140975" lon="16.4886734"><ele>1525.8333333333333</ele><time>2026-05-03T09:04:10.771Z</time></trkpt><trkpt lat="39.3141196" lon="16.4887519"><ele>1525.0</ele><time>2026-05-03T09:04:11.78Z</time></trkpt><trkpt lat="39.314116" lon="16.4888545"><ele>1521.8</ele><time>2026-05-03T09:04:12.771Z</time></trkpt><trkpt lat="39.3140962" lon="16.4889463"><ele>1518.6</ele><time>2026-05-03T09:04:13.772Z</time></trkpt><trkpt lat="39.3141229" lon="16.4890988"><ele>1515.4</ele><time>2026-05-03T09:04:15.774Z</time></trkpt><trkpt lat="39.3141183" lon="16.4892581"><ele>1512.2</ele><time>2026-05-03T09:04:17.77Z</time></trkpt><trkpt lat="39.3141271" lon="16.4893441"><ele>1509.0</ele><time>2026-05-03T09:04:18.761Z</time></trkpt><trkpt lat="39.3141441" lon="16.4894351"><ele>1509.0</ele><time>2026-05-03T09:04:19.773Z</time></trkpt><trkpt lat="39.3141622" lon="16.489538"><ele>1509.0</ele><time>2026-05-03T09:04:20.772Z</time></trkpt><trkpt lat="39.3141752" lon="16.4896449"><ele>1509.0</ele><time>2026-05-03T09:04:21.771Z</time></trkpt><trkpt lat="39.3141878" lon="16.4897541"><ele>1509.0</ele><time>2026-05-03T09:04:22.81Z</time></trkpt><trkpt lat="39.3142016" lon="16.4898384"><ele>1509.0</ele><time>2026-05-03T09:04:23.768Z</time></trkpt><trkpt lat="39.3142571" lon="16.4899767"><ele>1509.0</ele><time>2026-05-03T09:04:25.767Z</time></trkpt><trkpt lat="39.3143133" lon="16.4900322"><ele>1508.8333333333333</ele><time>2026-05-03T09:04:26.769Z</time></trkpt><trkpt lat="39.314379" lon="16.4900871"><ele>1508.6666666666667</ele><time>2026-05-03T09:04:27.767Z</time></trkpt><trkpt lat="39.3144446" lon="16.4901302"><ele>1508.5</ele><time>2026-05-03T09:04:28.78Z</time></trkpt><trkpt lat="39.3145058" lon="16.4901586"><ele>1508.3333333333335</ele><time>2026-05-03T09:04:29.768Z</time></trkpt><trkpt lat="39.314626" lon="16.4900916"><ele>1508.1666666666667</ele><time>2026-05-03T09:04:31.767Z</time></trkpt><trkpt lat="39.3146996" lon="16.4900466"><ele>1508.0</ele><time>2026-05-03T09:04:32.765Z</time></trkpt><trkpt lat="39.3147736" lon="16.4900813"><ele>1505.1666666666667</ele><time>2026-05-03T09:04:33.774Z</time></trkpt><trkpt lat="39.3148377" lon="16.490145"><ele>1502.3333333333335</ele><time>2026-05-03T09:04:34.768Z</time></trkpt><trkpt lat="39.3149017" lon="16.4901975"><ele>1499.5</ele><time>2026-05-03T09:04:35.773Z</time></trkpt><trkpt lat="39.3149791" lon="16.4902428"><ele>1496.6666666666667</ele><time>2026-05-03T09:04:36.767Z</time></trkpt><trkpt lat="39.3150399" lon="16.490291"><ele>1493.8333333333333</ele><time>2026-05-03T09:04:37.767Z</time></trkpt><trkpt lat="39.315158" lon="16.4903393"><ele>1491.0</ele><time>2026-05-03T09:04:39.767Z</time></trkpt><trkpt lat="39.3152284" lon="16.4903332"><ele>1491.0</ele><time>2026-05-03T09:04:40.767Z</time></trkpt><trkpt lat="39.3153053" lon="16.4903265"><ele>1491.0</ele><time>2026-05-03T09:04:41.775Z</time></trkpt><trkpt lat="39.3153794" lon="16.4903092"><ele>1491.0</ele><time>2026-05-03T09:04:42.763Z</time></trkpt><trkpt lat="39.3154603" lon="16.4902928"><ele>1491.0</ele><time>2026-05-03T09:04:43.779Z</time></trkpt><trkpt lat="39.3155495" lon="16.4902706"><ele>1491.0</ele><time>2026-05-03T09:04:44.767Z</time></trkpt><trkpt lat="39.3156413" lon="16.4902168"><ele>1491.0</ele><time>2026-05-03T09:04:45.768Z</time></trkpt><trkpt lat="39.3157232" lon="16.4901441"><ele>1489.0</ele><time>2026-05-03T09:04:46.764Z</time></trkpt><trkpt lat="39.31581" lon="16.4900694"><ele>1487.0</ele><time>2026-05-03T09:04:47.764Z</time></trkpt><trkpt lat="39.3158952" lon="16.4900065"><ele>1485.0</ele><time>2026-05-03T09:04:48.777Z</time></trkpt><trkpt lat="39.3159819" lon="16.4899384"><ele>1483.0</ele><time>2026-05-03T09:04:49.774Z</time></trkpt><trkpt lat="39.316058" lon="16.4898992"><ele>1481.0</ele><time>2026-05-03T09:04:50.765Z</time></trkpt><trkpt lat="39.3161314" lon="16.4898397"><ele>1481.0</ele><time>2026-05-03T09:04:51.758Z</time></trkpt><trkpt lat="39.3161921" lon="16.4897254"><ele>1481.0</ele><time>2026-05-03T09:04:52.757Z</time></trkpt><trkpt lat="39.3162511" lon="16.489628"><ele>1481.0</ele><time>2026-05-03T09:04:53.764Z</time></trkpt><trkpt lat="39.316305" lon="16.4895681"><ele>1481.0</ele><time>2026-05-03T09:04:54.764Z</time></trkpt><trkpt lat="39.3163732" lon="16.4895525"><ele>1481.0</ele><time>2026-05-03T09:04:55.769Z</time></trkpt><trkpt lat="39.3164377" lon="16.4895461"><ele>1481.0</ele><time>2026-05-03T09:04:56.77Z</time></trkpt><trkpt lat="39.316519" lon="16.489529"><ele>1479.8</ele><time>2026-05-03T09:04:58.765Z</time></trkpt><trkpt lat="39.3165939" lon="16.489493"><ele>1478.6</ele><time>2026-05-03T09:05:00.765Z</time></trkpt><trkpt lat="39.3166953" lon="16.4893978"><ele>1477.4</ele><time>2026-05-03T09:05:02.761Z</time></trkpt><trkpt lat="39.3167368" lon="16.4893247"><ele>1476.2</ele><time>2026-05-03T09:05:03.774Z</time></trkpt><trkpt lat="39.3167613" lon="16.4892222"><ele>1475.0</ele><time>2026-05-03T09:05:04.757Z</time></trkpt><trkpt lat="39.3167653" lon="16.4891041"><ele>1475.0</ele><time>2026-05-03T09:05:05.76Z</time></trkpt><trkpt lat="39.3167638" lon="16.488971"><ele>1475.0</ele><time>2026-05-03T09:05:06.759Z</time></trkpt><trkpt lat="39.3167522" lon="16.4888323"><ele>1475.0</ele><time>2026-05-03T09:05:07.759Z</time></trkpt><trkpt lat="39.3167393" lon="16.4886876"><ele>1475.0</ele><time>2026-05-03T09:05:08.76Z</time></trkpt><trkpt lat="39.3167358" lon="16.4885609"><ele>1475.0</ele><time>2026-05-03T09:05:09.769Z</time></trkpt><trkpt lat="39.3167329" lon="16.4884565"><ele>1476.0</ele><time>2026-05-03T09:05:10.757Z</time></trkpt><trkpt lat="39.3167498" lon="16.4883489"><ele>1477.0</ele><time>2026-05-03T09:05:11.78Z</time></trkpt><trkpt lat="39.3168048" lon="16.4882521"><ele>1478.0</ele><time>2026-05-03T09:05:12.762Z</time></trkpt><trkpt lat="39.316866" lon="16.4881588"><ele>1479.0</ele><time>2026-05-03T09:05:13.764Z</time></trkpt><trkpt lat="39.3169104" lon="16.488074"><ele>1480.0</ele><time>2026-05-03T09:05:14.756Z</time></trkpt><trkpt lat="39.3170295" lon="16.4880134"><ele>1478.0</ele><time>2026-05-03T09:11:43.77Z</time></trkpt><trkpt lat="39.3170536" lon="16.4879187"><ele>1476.0</ele><time>2026-05-03T09:12:20.769Z</time></trkpt><trkpt lat="39.3170937" lon="16.4877532"><ele>1474.0</ele><time>2026-05-03T09:12:22.774Z</time></trkpt><trkpt lat="39.3171424" lon="16.4876736"><ele>1472.0</ele><time>2026-05-03T09:12:23.775Z</time></trkpt><trkpt lat="39.3172198" lon="16.4876055"><ele>1470.0</ele><time>2026-05-03T09:12:24.773Z</time></trkpt><trkpt lat="39.3172974" lon="16.4875617"><ele>1470.0</ele><time>2026-05-03T09:12:25.767Z</time></trkpt><trkpt lat="39.3173686" lon="16.4875149"><ele>1470.0</ele><time>2026-05-03T09:12:26.77Z</time></trkpt><trkpt lat="39.3174402" lon="16.4874766"><ele>1470.0</ele><time>2026-05-03T09:12:27.785Z</time></trkpt><trkpt lat="39.3175121" lon="16.4874403"><ele>1470.0</ele><time>2026-05-03T09:12:28.771Z</time></trkpt><trkpt lat="39.3175922" lon="16.4873908"><ele>1470.0</ele><time>2026-05-03T09:12:29.773Z</time></trkpt><trkpt lat="39.3176756" lon="16.4873292"><ele>1470.0</ele><time>2026-05-03T09:12:30.781Z</time></trkpt><trkpt lat="39.3177387" lon="16.4872613"><ele>1470.0</ele><time>2026-05-03T09:12:31.773Z</time></trkpt><trkpt lat="39.317792" lon="16.4871975"><ele>1470.0</ele><time>2026-05-03T09:12:32.77Z</time></trkpt><trkpt lat="39.3178528" lon="16.4871339"><ele>1470.0</ele><time>2026-05-03T09:12:33.768Z</time></trkpt><trkpt lat="39.3179054" lon="16.4870714"><ele>1470.0</ele><time>2026-05-03T09:12:34.771Z</time></trkpt><trkpt lat="39.3180137" lon="16.4869748"><ele>1470.0</ele><time>2026-05-03T09:12:36.76Z</time></trkpt><trkpt lat="39.3180779" lon="16.4869123"><ele>1470.0</ele><time>2026-05-03T09:12:37.776Z</time></trkpt><trkpt lat="39.3181387" lon="16.4868574"><ele>1468.857142857143</ele><time>2026-05-03T09:12:38.764Z</time></trkpt><trkpt lat="39.3181904" lon="16.486802"><ele>1467.7142857142858</ele><time>2026-05-03T09:12:39.769Z</time></trkpt><trkpt lat="39.3182419" lon="16.4867319"><ele>1466.5714285714284</ele><time>2026-05-03T09:12:40.769Z</time></trkpt><trkpt lat="39.318283" lon="16.4866694"><ele>1465.4285714285716</ele><time>2026-05-03T09:12:41.765Z</time></trkpt><trkpt lat="39.318321" lon="16.4865941"><ele>1464.2857142857142</ele><time>2026-05-03T09:12:42.772Z</time></trkpt><trkpt lat="39.3183497" lon="16.4865083"><ele>1463.142857142857</ele><time>2026-05-03T09:12:43.766Z</time></trkpt><trkpt lat="39.3183723" lon="16.4864255"><ele>1462.0</ele><time>2026-05-03T09:12:44.769Z</time></trkpt><trkpt lat="39.318402" lon="16.4863341"><ele>1462.6</ele><time>2026-05-03T09:12:45.774Z</time></trkpt><trkpt lat="39.318469" lon="16.4862359"><ele>1463.1999999999998</ele><time>2026-05-03T09:12:47.807Z</time></trkpt><trkpt lat="39.3185469" lon="16.4862476"><ele>1463.8</ele><time>2026-05-03T09:12:49.774Z</time></trkpt><trkpt lat="39.3186538" lon="16.4862268"><ele>1464.4</ele><time>2026-05-03T09:12:51.772Z</time></trkpt><trkpt lat="39.3187052" lon="16.4861734"><ele>1465.0</ele><time>2026-05-03T09:12:52.803Z</time></trkpt><trkpt lat="39.3187879" lon="16.4861066"><ele>1462.0</ele><time>2026-05-03T09:12:54.769Z</time></trkpt><trkpt lat="39.3189208" lon="16.4861097"><ele>1459.0</ele><time>2026-05-03T09:12:56.768Z</time></trkpt><trkpt lat="39.3189938" lon="16.4861354"><ele>1456.0</ele><time>2026-05-03T09:12:57.779Z</time></trkpt><trkpt lat="39.3190803" lon="16.4861186"><ele>1453.0</ele><time>2026-05-03T09:12:58.767Z</time></trkpt><trkpt lat="39.3191566" lon="16.4860597"><ele>1450.0</ele><time>2026-05-03T09:12:59.765Z</time></trkpt><trkpt lat="39.3192302" lon="16.4860005"><ele>1450.0</ele><time>2026-05-03T09:13:00.773Z</time></trkpt><trkpt lat="39.3192988" lon="16.4859376"><ele>1450.0</ele><time>2026-05-03T09:13:01.766Z</time></trkpt><trkpt lat="39.319368" lon="16.4858777"><ele>1450.0</ele><time>2026-05-03T09:13:02.767Z</time></trkpt><trkpt lat="39.3193831" lon="16.4857892"><ele>1450.0</ele><time>2026-05-03T09:13:03.767Z</time></trkpt><trkpt lat="39.319367" lon="16.4856981"><ele>1450.0</ele><time>2026-05-03T09:13:04.765Z</time></trkpt><trkpt lat="39.319353" lon="16.4856085"><ele>1450.0</ele><time>2026-05-03T09:13:05.766Z</time></trkpt><trkpt lat="39.3193211" lon="16.4855235"><ele>1450.0</ele><time>2026-05-03T09:13:06.764Z</time></trkpt><trkpt lat="39.3192895" lon="16.4854247"><ele>1450.0</ele><time>2026-05-03T09:13:07.767Z</time></trkpt><trkpt lat="39.3192582" lon="16.4853059"><ele>1450.0</ele><time>2026-05-03T09:13:08.761Z</time></trkpt><trkpt lat="39.3192193" lon="16.4852035"><ele>1450.0</ele><time>2026-05-03T09:13:09.775Z</time></trkpt><trkpt lat="39.3191847" lon="16.4851107"><ele>1450.0</ele><time>2026-05-03T09:13:10.768Z</time></trkpt><trkpt lat="39.3191612" lon="16.4850307"><ele>1450.0</ele><time>2026-05-03T09:13:11.762Z</time></trkpt><trkpt lat="39.3191334" lon="16.4849546"><ele>1450.0</ele><time>2026-05-03T09:13:12.765Z</time></trkpt><trkpt lat="39.3190998" lon="16.4848698"><ele>1450.0</ele><time>2026-05-03T09:13:13.771Z</time></trkpt><trkpt lat="39.3190753" lon="16.4847702"><ele>1450.0</ele><time>2026-05-03T09:13:14.76Z</time></trkpt><trkpt lat="39.3190586" lon="16.4846689"><ele>1450.0</ele><time>2026-05-03T09:13:15.78Z</time></trkpt><trkpt lat="39.3190268" lon="16.4845707"><ele>1450.0</ele><time>2026-05-03T09:13:16.763Z</time></trkpt><trkpt lat="39.319002" lon="16.4844931"><ele>1450.0</ele><time>2026-05-03T09:13:17.769Z</time></trkpt><trkpt lat="39.3189779" lon="16.4843962"><ele>1449.6666666666665</ele><time>2026-05-03T09:13:19.769Z</time></trkpt><trkpt lat="39.3189486" lon="16.4842777"><ele>1449.3333333333333</ele><time>2026-05-03T09:13:21.772Z</time></trkpt><trkpt lat="39.3189217" lon="16.4841595"><ele>1449.0</ele><time>2026-05-03T09:14:01.761Z</time></trkpt><trkpt lat="39.3189244" lon="16.484075"><ele>1448.6666666666667</ele><time>2026-05-03T09:14:02.768Z</time></trkpt><trkpt lat="39.3189263" lon="16.483988"><ele>1448.3333333333335</ele><time>2026-05-03T09:14:03.773Z</time></trkpt><trkpt lat="39.3189316" lon="16.4838936"><ele>1448.0</ele><time>2026-05-03T09:14:04.77Z</time></trkpt><trkpt lat="39.3189208" lon="16.4837732"><ele>1447.2</ele><time>2026-05-03T09:14:05.767Z</time></trkpt><trkpt lat="39.3188995" lon="16.4836435"><ele>1446.4</ele><time>2026-05-03T09:14:06.76Z</time></trkpt><trkpt lat="39.3188696" lon="16.4835275"><ele>1445.6000000000001</ele><time>2026-05-03T09:14:07.776Z</time></trkpt><trkpt lat="39.3188443" lon="16.4834198"><ele>1444.8000000000002</ele><time>2026-05-03T09:14:08.766Z</time></trkpt><trkpt lat="39.3188194" lon="16.483308"><ele>1444.0</ele><time>2026-05-03T09:14:09.78Z</time></trkpt><trkpt lat="39.3187975" lon="16.4832058"><ele>1444.0</ele><time>2026-05-03T09:14:10.765Z</time></trkpt><trkpt lat="39.318774" lon="16.4831133"><ele>1444.0</ele><time>2026-05-03T09:14:11.766Z</time></trkpt><trkpt lat="39.318736" lon="16.4829641"><ele>1444.0</ele><time>2026-05-03T09:14:13.761Z</time></trkpt><trkpt lat="39.3187053" lon="16.4828236"><ele>1444.0</ele><time>2026-05-03T09:14:15.763Z</time></trkpt><trkpt lat="39.3186906" lon="16.4827389"><ele>1444.0</ele><time>2026-05-03T09:14:16.774Z</time></trkpt><trkpt lat="39.318679" lon="16.4826475"><ele>1444.0</ele><time>2026-05-03T09:14:17.766Z</time></trkpt><trkpt lat="39.3186735" lon="16.4825488"><ele>1443.5</ele><time>2026-05-03T09:14:18.764Z</time></trkpt><trkpt lat="39.3186698" lon="16.4824472"><ele>1443.0</ele><time>2026-05-03T09:14:19.762Z</time></trkpt><trkpt lat="39.3186658" lon="16.482352"><ele>1442.5</ele><time>2026-05-03T09:14:20.768Z</time></trkpt><trkpt lat="39.3186559" lon="16.4822527"><ele>1442.0</ele><time>2026-05-03T09:14:21.765Z</time></trkpt><trkpt lat="39.318642" lon="16.4821567"><ele>1441.5</ele><time>2026-05-03T09:14:22.763Z</time></trkpt><trkpt lat="39.3186287" lon="16.4820668"><ele>1441.0</ele><time>2026-05-03T09:14:23.781Z</time></trkpt><trkpt lat="39.318614" lon="16.4819089"><ele>1441.0</ele><time>2026-05-03T09:14:25.779Z</time></trkpt><trkpt lat="39.3186128" lon="16.4818201"><ele>1441.0</ele><time>2026-05-03T09:14:26.764Z</time></trkpt><trkpt lat="39.3186085" lon="16.4816775"><ele>1441.0</ele><time>2026-05-03T09:14:28.764Z</time></trkpt><trkpt lat="39.3185944" lon="16.481575"><ele>1441.0</ele><time>2026-05-03T09:14:30.77Z</time></trkpt><trkpt lat="39.3185672" lon="16.4814956"><ele>1441.0</ele><time>2026-05-03T09:14:36.762Z</time></trkpt><trkpt lat="39.3185789" lon="16.4813602"><ele>1441.0</ele><time>2026-05-03T09:14:39.774Z</time></trkpt><trkpt lat="39.3185668" lon="16.4812508"><ele>1440.4</ele><time>2026-05-03T09:14:41.775Z</time></trkpt><trkpt lat="39.3185431" lon="16.4810902"><ele>1439.8</ele><time>2026-05-03T09:14:43.771Z</time></trkpt><trkpt lat="39.3185229" lon="16.4810074"><ele>1439.2</ele><time>2026-05-03T09:14:44.772Z</time></trkpt><trkpt lat="39.3184886" lon="16.4809194"><ele>1438.6000000000001</ele><time>2026-05-03T09:14:45.766Z</time></trkpt><trkpt lat="39.3184315" lon="16.4808484"><ele>1438.0</ele><time>2026-05-03T09:14:46.766Z</time></trkpt><trkpt lat="39.3183734" lon="16.4807414"><ele>1438.0</ele><time>2026-05-03T09:14:47.768Z</time></trkpt><trkpt lat="39.3183371" lon="16.4806282"><ele>1438.0</ele><time>2026-05-03T09:14:49.769Z</time></trkpt><trkpt lat="39.3183256" lon="16.4804839"><ele>1438.0</ele><time>2026-05-03T09:14:51.765Z</time></trkpt><trkpt lat="39.3183311" lon="16.4803852"><ele>1438.0</ele><time>2026-05-03T09:14:52.767Z</time></trkpt><trkpt lat="39.3183534" lon="16.4802779"><ele>1438.0</ele><time>2026-05-03T09:14:53.766Z</time></trkpt><trkpt lat="39.3183706" lon="16.4801808"><ele>1438.0</ele><time>2026-05-03T09:14:54.765Z</time></trkpt><trkpt lat="39.3183898" lon="16.4800654"><ele>1437.1666666666665</ele><time>2026-05-03T09:14:55.784Z</time></trkpt><trkpt lat="39.3184103" lon="16.4799452"><ele>1436.3333333333333</ele><time>2026-05-03T09:14:56.769Z</time></trkpt><trkpt lat="39.3184335" lon="16.4798169"><ele>1435.5</ele><time>2026-05-03T09:14:57.769Z</time></trkpt><trkpt lat="39.3184588" lon="16.4797086"><ele>1434.6666666666667</ele><time>2026-05-03T09:14:58.766Z</time></trkpt><trkpt lat="39.3184844" lon="16.4795999"><ele>1433.8333333333335</ele><time>2026-05-03T09:14:59.766Z</time></trkpt><trkpt lat="39.3185213" lon="16.4795278"><ele>1433.0</ele><time>2026-05-03T09:15:00.771Z</time></trkpt><trkpt lat="39.3185566" lon="16.4794084"><ele>1432.8000000000002</ele><time>2026-05-03T09:15:02.774Z</time></trkpt><trkpt lat="39.318631" lon="16.4793192"><ele>1432.6</ele><time>2026-05-03T09:15:04.761Z</time></trkpt><trkpt lat="39.3187019" lon="16.4792539"><ele>1432.4</ele><time>2026-05-03T09:15:05.764Z</time></trkpt><trkpt lat="39.3187864" lon="16.4791774"><ele>1432.1999999999998</ele><time>2026-05-03T09:15:06.764Z</time></trkpt><trkpt lat="39.3188723" lon="16.4791048"><ele>1432.0</ele><time>2026-05-03T09:15:07.762Z</time></trkpt><trkpt lat="39.3189512" lon="16.4790407"><ele>1431.5</ele><time>2026-05-03T09:15:08.767Z</time></trkpt><trkpt lat="39.3190294" lon="16.478976"><ele>1431.0</ele><time>2026-05-03T09:15:09.768Z</time></trkpt><trkpt lat="39.3191053" lon="16.4789173"><ele>1430.5</ele><time>2026-05-03T09:15:10.793Z</time></trkpt><trkpt lat="39.3191745" lon="16.4788672"><ele>1430.0</ele><time>2026-05-03T09:15:11.763Z</time></trkpt><trkpt lat="39.3192436" lon="16.4788158"><ele>1429.5</ele><time>2026-05-03T09:15:12.766Z</time></trkpt><trkpt lat="39.3193232" lon="16.4787472"><ele>1429.0</ele><time>2026-05-03T09:15:13.763Z</time></trkpt><trkpt lat="39.3193861" lon="16.478676"><ele>1427.2857142857142</ele><time>2026-05-03T09:15:14.769Z</time></trkpt><trkpt lat="39.3194379" lon="16.4785927"><ele>1425.5714285714284</ele><time>2026-05-03T09:15:15.767Z</time></trkpt><trkpt lat="39.3194846" lon="16.4785087"><ele>1423.8571428571427</ele><time>2026-05-03T09:15:16.758Z</time></trkpt><trkpt lat="39.3195272" lon="16.4784275"><ele>1422.142857142857</ele><time>2026-05-03T09:15:17.768Z</time></trkpt><trkpt lat="39.3195632" lon="16.4783564"><ele>1420.4285714285713</ele><time>2026-05-03T09:15:18.761Z</time></trkpt><trkpt lat="39.3195983" lon="16.4782846"><ele>1418.7142857142856</ele><time>2026-05-03T09:15:19.784Z</time></trkpt><trkpt lat="39.3196348" lon="16.4782064"><ele>1417.0</ele><time>2026-05-03T09:15:20.759Z</time></trkpt><trkpt lat="39.3196686" lon="16.4781191"><ele>1417.0</ele><time>2026-05-03T09:15:21.762Z</time></trkpt><trkpt lat="39.3196947" lon="16.4780353"><ele>1417.0</ele><time>2026-05-03T09:15:22.761Z</time></trkpt><trkpt lat="39.3197141" lon="16.4779557"><ele>1417.0</ele><time>2026-05-03T09:15:23.765Z</time></trkpt><trkpt lat="39.3197284" lon="16.4778053"><ele>1417.0</ele><time>2026-05-03T09:15:25.764Z</time></trkpt><trkpt lat="39.3197467" lon="16.47764"><ele>1417.0</ele><time>2026-05-03T09:15:27.762Z</time></trkpt><trkpt lat="39.3197716" lon="16.4775503"><ele>1416.0</ele><time>2026-05-03T09:15:28.76Z</time></trkpt><trkpt lat="39.3197911" lon="16.4774673"><ele>1415.0</ele><time>2026-05-03T09:15:29.76Z</time></trkpt><trkpt lat="39.3198118" lon="16.4773818"><ele>1414.0</ele><time>2026-05-03T09:15:30.764Z</time></trkpt><trkpt lat="39.3198247" lon="16.4772969"><ele>1413.0</ele><time>2026-05-03T09:15:31.761Z</time></trkpt><trkpt lat="39.3198368" lon="16.4772144"><ele>1412.0</ele><time>2026-05-03T09:15:32.772Z</time></trkpt><trkpt lat="39.3198701" lon="16.4770809"><ele>1411.0</ele><time>2026-05-03T09:15:34.763Z</time></trkpt><trkpt lat="39.3199331" lon="16.4769349"><ele>1408.75</ele><time>2026-05-03T09:15:36.762Z</time></trkpt><trkpt lat="39.3199785" lon="16.4768516"><ele>1406.5</ele><time>2026-05-03T09:15:37.764Z</time></trkpt><trkpt lat="39.3200687" lon="16.4767385"><ele>1404.25</ele><time>2026-05-03T09:15:39.781Z</time></trkpt><trkpt lat="39.3201717" lon="16.4766196"><ele>1402.0</ele><time>2026-05-03T09:15:41.764Z</time></trkpt><trkpt lat="39.3202634" lon="16.4765398"><ele>1402.0</ele><time>2026-05-03T09:15:42.767Z</time></trkpt><trkpt lat="39.3203512" lon="16.4764582"><ele>1402.0</ele><time>2026-05-03T09:15:43.766Z</time></trkpt><trkpt lat="39.3204631" lon="16.4763827"><ele>1402.0</ele><time>2026-05-03T09:15:44.764Z</time></trkpt><trkpt lat="39.3205143" lon="16.47633"><ele>1402.0</ele><time>2026-05-03T09:15:45.764Z</time></trkpt><trkpt lat="39.320622" lon="16.4762693"><ele>1402.0</ele><time>2026-05-03T09:15:46.769Z</time></trkpt><trkpt lat="39.3206845" lon="16.4762256"><ele>1402.0</ele><time>2026-05-03T09:15:47.765Z</time></trkpt><trkpt lat="39.3207675" lon="16.4761347"><ele>1402.0</ele><time>2026-05-03T09:15:49.78Z</time></trkpt><trkpt lat="39.3208542" lon="16.4760531"><ele>1402.0</ele><time>2026-05-03T09:15:51.778Z</time></trkpt><trkpt lat="39.3209486" lon="16.4759875"><ele>1402.0</ele><time>2026-05-03T09:15:53.764Z</time></trkpt><trkpt lat="39.3210677" lon="16.4759202"><ele>1402.0</ele><time>2026-05-03T09:15:55.764Z</time></trkpt><trkpt lat="39.3211314" lon="16.475888"><ele>1402.0</ele><time>2026-05-03T09:15:56.784Z</time></trkpt><trkpt lat="39.321245" lon="16.4758273"><ele>1402.0</ele><time>2026-05-03T09:15:58.761Z</time></trkpt><trkpt lat="39.3213529" lon="16.4757737"><ele>1402.0</ele><time>2026-05-03T09:16:00.765Z</time></trkpt><trkpt lat="39.3214187" lon="16.475718"><ele>1402.0</ele><time>2026-05-03T09:16:02.763Z</time></trkpt><trkpt lat="39.3214896" lon="16.4756663"><ele>1401.3999999999999</ele><time>2026-05-03T09:16:03.772Z</time></trkpt><trkpt lat="39.3215593" lon="16.4756083"><ele>1400.8</ele><time>2026-05-03T09:16:04.772Z</time></trkpt><trkpt lat="39.321639" lon="16.4755349"><ele>1400.2</ele><time>2026-05-03T09:16:05.768Z</time></trkpt><trkpt lat="39.3217145" lon="16.4754885"><ele>1399.6</ele><time>2026-05-03T09:16:06.767Z</time></trkpt><trkpt lat="39.3218071" lon="16.4754776"><ele>1399.0</ele><time>2026-05-03T09:16:08.765Z</time></trkpt><trkpt lat="39.3219238" lon="16.4754789"><ele>1399.0</ele><time>2026-05-03T09:16:10.772Z</time></trkpt><trkpt lat="39.3219996" lon="16.4754819"><ele>1399.0</ele><time>2026-05-03T09:16:11.766Z</time></trkpt><trkpt lat="39.322107" lon="16.4754665"><ele>1399.0</ele><time>2026-05-03T09:16:12.769Z</time></trkpt><trkpt lat="39.3221762" lon="16.4754066"><ele>1399.0</ele><time>2026-05-03T09:16:14.77Z</time></trkpt><trkpt lat="39.3222643" lon="16.4752862"><ele>1399.0</ele><time>2026-05-03T09:16:18.786Z</time></trkpt><trkpt lat="39.3223537" lon="16.4752238"><ele>1397.0</ele><time>2026-05-03T09:16:19.768Z</time></trkpt><trkpt lat="39.3224243" lon="16.4751848"><ele>1395.0</ele><time>2026-05-03T09:16:20.766Z</time></trkpt><trkpt lat="39.3225152" lon="16.4751447"><ele>1393.0</ele><time>2026-05-03T09:16:22.77Z</time></trkpt><trkpt lat="39.3226042" lon="16.4751035"><ele>1391.0</ele><time>2026-05-03T09:16:25.766Z</time></trkpt><trkpt lat="39.3226847" lon="16.4750813"><ele>1389.0</ele><time>2026-05-03T09:16:27.774Z</time></trkpt><trkpt lat="39.3227762" lon="16.4750521"><ele>1387.0</ele><time>2026-05-03T09:16:29.767Z</time></trkpt><trkpt lat="39.3228337" lon="16.4750166"><ele>1387.0</ele><time>2026-05-03T09:16:31.765Z</time></trkpt><trkpt lat="39.3228999" lon="16.474961"><ele>1387.0</ele><time>2026-05-03T09:16:33.765Z</time></trkpt><trkpt lat="39.3229998" lon="16.474868"><ele>1387.0</ele><time>2026-05-03T09:16:35.774Z</time></trkpt><trkpt lat="39.3230921" lon="16.4747711"><ele>1387.0</ele><time>2026-05-03T09:16:37.779Z</time></trkpt><trkpt lat="39.3231726" lon="16.474682"><ele>1387.0</ele><time>2026-05-03T09:16:39.763Z</time></trkpt><trkpt lat="39.3232594" lon="16.4746014"><ele>1385.3999999999999</ele><time>2026-05-03T09:16:41.77Z</time></trkpt><trkpt lat="39.3233622" lon="16.4745178"><ele>1383.8</ele><time>2026-05-03T09:16:43.77Z</time></trkpt><trkpt lat="39.3234657" lon="16.4744889"><ele>1382.2</ele><time>2026-05-03T09:16:45.772Z</time></trkpt><trkpt lat="39.3235218" lon="16.4744228"><ele>1380.6</ele><time>2026-05-03T09:16:48.773Z</time></trkpt><trkpt lat="39.3235029" lon="16.4743327"><ele>1379.0</ele><time>2026-05-03T09:16:50.763Z</time></trkpt><trkpt lat="39.3234534" lon="16.474261"><ele>1379.0</ele><time>2026-05-03T09:16:52.768Z</time></trkpt><trkpt lat="39.3233972" lon="16.4741611"><ele>1379.0</ele><time>2026-05-03T09:16:54.771Z</time></trkpt><trkpt lat="39.3233263" lon="16.4740217"><ele>1379.0</ele><time>2026-05-03T09:16:56.77Z</time></trkpt><trkpt lat="39.3232825" lon="16.473949"><ele>1379.0</ele><time>2026-05-03T09:16:57.768Z</time></trkpt><trkpt lat="39.3232377" lon="16.4738753"><ele>1379.0</ele><time>2026-05-03T09:16:58.767Z</time></trkpt><trkpt lat="39.3231924" lon="16.4738002"><ele>1379.0</ele><time>2026-05-03T09:16:59.776Z</time></trkpt><trkpt lat="39.3231392" lon="16.4737126"><ele>1380.0</ele><time>2026-05-03T09:17:00.766Z</time></trkpt><trkpt lat="39.3230831" lon="16.4736209"><ele>1381.0</ele><time>2026-05-03T09:17:01.767Z</time></trkpt><trkpt lat="39.3230293" lon="16.4735332"><ele>1382.0</ele><time>2026-05-03T09:17:02.773Z</time></trkpt><trkpt lat="39.322979" lon="16.4734491"><ele>1383.0</ele><time>2026-05-03T09:17:03.768Z</time></trkpt><trkpt lat="39.3229144" lon="16.4733374"><ele>1384.0</ele><time>2026-05-03T09:17:04.764Z</time></trkpt><trkpt lat="39.3228435" lon="16.4732005"><ele>1384.3333333333333</ele><time>2026-05-03T09:17:05.775Z</time></trkpt><trkpt lat="39.3227678" lon="16.4730409"><ele>1384.6666666666667</ele><time>2026-05-03T09:17:06.771Z</time></trkpt><trkpt lat="39.3226829" lon="16.4728678"><ele>1385.0</ele><time>2026-05-03T09:17:07.77Z</time></trkpt><trkpt lat="39.3225875" lon="16.4726849"><ele>1385.6666666666667</ele><time>2026-05-03T09:17:08.768Z</time></trkpt><trkpt lat="39.3224923" lon="16.4725117"><ele>1386.3333333333333</ele><time>2026-05-03T09:17:09.777Z</time></trkpt><trkpt lat="39.3224057" lon="16.4723499"><ele>1387.0</ele><time>2026-05-03T09:17:10.779Z</time></trkpt><trkpt lat="39.3223243" lon="16.4721996"><ele>1387.5</ele><time>2026-05-03T09:17:11.778Z</time></trkpt><trkpt lat="39.3222454" lon="16.4720439"><ele>1388.0</ele><time>2026-05-03T09:17:12.768Z</time></trkpt><trkpt lat="39.3221728" lon="16.4719107"><ele>1388.5</ele><time>2026-05-03T09:17:13.771Z</time></trkpt><trkpt lat="39.3221056" lon="16.4717953"><ele>1389.0</ele><time>2026-05-03T09:17:14.764Z</time></trkpt><trkpt lat="39.3220406" lon="16.4716814"><ele>1389.4</ele><time>2026-05-03T09:17:15.774Z</time></trkpt><trkpt lat="39.3219798" lon="16.4715723"><ele>1389.8000000000002</ele><time>2026-05-03T09:17:16.771Z</time></trkpt><trkpt lat="39.3219217" lon="16.4714666"><ele>1390.1999999999998</ele><time>2026-05-03T09:17:17.767Z</time></trkpt><trkpt lat="39.3218635" lon="16.4713633"><ele>1390.6</ele><time>2026-05-03T09:17:18.78Z</time></trkpt><trkpt lat="39.3218073" lon="16.4712634"><ele>1391.0</ele><time>2026-05-03T09:17:19.77Z</time></trkpt><trkpt lat="39.3217517" lon="16.4711645"><ele>1391.6</ele><time>2026-05-03T09:17:20.771Z</time></trkpt><trkpt lat="39.321696" lon="16.4710659"><ele>1392.1999999999998</ele><time>2026-05-03T09:17:21.766Z</time></trkpt><trkpt lat="39.3216404" lon="16.4709705"><ele>1392.8000000000002</ele><time>2026-05-03T09:17:22.775Z</time></trkpt><trkpt lat="39.3215841" lon="16.470877"><ele>1393.4</ele><time>2026-05-03T09:17:23.773Z</time></trkpt><trkpt lat="39.3215306" lon="16.4707806"><ele>1394.0</ele><time>2026-05-03T09:17:24.763Z</time></trkpt><trkpt lat="39.3214783" lon="16.470689"><ele>1394.0</ele><time>2026-05-03T09:17:25.776Z</time></trkpt><trkpt lat="39.3214188" lon="16.4705839"><ele>1394.0</ele><time>2026-05-03T09:17:26.771Z</time></trkpt><trkpt lat="39.3213613" lon="16.4704711"><ele>1394.0</ele><time>2026-05-03T09:17:27.776Z</time></trkpt><trkpt lat="39.3212899" lon="16.470355"><ele>1394.0</ele><time>2026-05-03T09:17:28.771Z</time></trkpt><trkpt lat="39.3212236" lon="16.4702526"><ele>1394.0</ele><time>2026-05-03T09:17:29.775Z</time></trkpt><trkpt lat="39.321155" lon="16.4701361"><ele>1395.2</ele><time>2026-05-03T09:17:30.766Z</time></trkpt><trkpt lat="39.3210937" lon="16.470026"><ele>1396.4</ele><time>2026-05-03T09:17:31.786Z</time></trkpt><trkpt lat="39.3210441" lon="16.469935"><ele>1397.6</ele><time>2026-05-03T09:17:32.778Z</time></trkpt><trkpt lat="39.3210085" lon="16.4698676"><ele>1398.8</ele><time>2026-05-03T09:17:33.766Z</time></trkpt><trkpt lat="39.3209578" lon="16.4697407"><ele>1400.0</ele><time>2026-05-03T09:17:43.774Z</time></trkpt><trkpt lat="39.3208833" lon="16.4696083"><ele>1400.0</ele><time>2026-05-03T09:17:45.77Z</time></trkpt><trkpt lat="39.3208407" lon="16.4695422"><ele>1400.0</ele><time>2026-05-03T09:17:46.78Z</time></trkpt><trkpt lat="39.3207584" lon="16.4694245"><ele>1400.0</ele><time>2026-05-03T09:17:48.772Z</time></trkpt><trkpt lat="39.3206837" lon="16.4693209"><ele>1400.0</ele><time>2026-05-03T09:17:50.775Z</time></trkpt><trkpt lat="39.3206206" lon="16.4692466"><ele>1400.0</ele><time>2026-05-03T09:17:52.777Z</time></trkpt><trkpt lat="39.3205565" lon="16.4691672"><ele>1400.0</ele><time>2026-05-03T09:17:54.769Z</time></trkpt><trkpt lat="39.3204717" lon="16.4690715"><ele>1400.0</ele><time>2026-05-03T09:17:56.764Z</time></trkpt><trkpt lat="39.3204177" lon="16.469011"><ele>1400.0</ele><time>2026-05-03T09:17:57.77Z</time></trkpt><trkpt lat="39.3203627" lon="16.468942"><ele>1400.0</ele><time>2026-05-03T09:17:58.785Z</time></trkpt><trkpt lat="39.3203016" lon="16.4688603"><ele>1400.0</ele><time>2026-05-03T09:17:59.769Z</time></trkpt><trkpt lat="39.3202403" lon="16.4687728"><ele>1400.0</ele><time>2026-05-03T09:18:00.765Z</time></trkpt><trkpt lat="39.3201738" lon="16.4686818"><ele>1399.75</ele><time>2026-05-03T09:18:01.765Z</time></trkpt><trkpt lat="39.3201033" lon="16.4685721"><ele>1399.5</ele><time>2026-05-03T09:18:02.768Z</time></trkpt><trkpt lat="39.3200227" lon="16.4684622"><ele>1399.25</ele><time>2026-05-03T09:18:03.766Z</time></trkpt><trkpt lat="39.3199258" lon="16.4683413"><ele>1399.0</ele><time>2026-05-03T09:18:04.765Z</time></trkpt><trkpt lat="39.3198257" lon="16.4682189"><ele>1399.75</ele><time>2026-05-03T09:18:05.775Z</time></trkpt><trkpt lat="39.3197281" lon="16.4681002"><ele>1400.5</ele><time>2026-05-03T09:18:06.769Z</time></trkpt><trkpt lat="39.3196384" lon="16.4679764"><ele>1401.25</ele><time>2026-05-03T09:18:07.77Z</time></trkpt><trkpt lat="39.3195548" lon="16.4678509"><ele>1402.0</ele><time>2026-05-03T09:18:08.762Z</time></trkpt><trkpt lat="39.319471" lon="16.4677226"><ele>1402.0</ele><time>2026-05-03T09:18:09.779Z</time></trkpt><trkpt lat="39.3193882" lon="16.4675905"><ele>1402.0</ele><time>2026-05-03T09:18:10.777Z</time></trkpt><trkpt lat="39.3193069" lon="16.4674674"><ele>1402.0</ele><time>2026-05-03T09:18:11.764Z</time></trkpt><trkpt lat="39.3192163" lon="16.4673511"><ele>1402.0</ele><time>2026-05-03T09:18:12.774Z</time></trkpt><trkpt lat="39.3191278" lon="16.46724"><ele>1402.0</ele><time>2026-05-03T09:18:13.771Z</time></trkpt><trkpt lat="39.3190391" lon="16.4671165"><ele>1402.0</ele><time>2026-05-03T09:18:14.767Z</time></trkpt><trkpt lat="39.3189652" lon="16.4669596"><ele>1402.0</ele><time>2026-05-03T09:18:15.769Z</time></trkpt><trkpt lat="39.3189192" lon="16.4667892"><ele>1402.0</ele><time>2026-05-03T09:18:16.769Z</time></trkpt><trkpt lat="39.3188821" lon="16.4666153"><ele>1403.5</ele><time>2026-05-03T09:18:17.771Z</time></trkpt><trkpt lat="39.3188421" lon="16.4664402"><ele>1405.0</ele><time>2026-05-03T09:18:18.767Z</time></trkpt><trkpt lat="39.3187963" lon="16.4662765"><ele>1406.5</ele><time>2026-05-03T09:18:19.767Z</time></trkpt><trkpt lat="39.3187578" lon="16.4661328"><ele>1408.0</ele><time>2026-05-03T09:18:20.764Z</time></trkpt><trkpt lat="39.3187253" lon="16.4659909"><ele>1408.4</ele><time>2026-05-03T09:18:21.761Z</time></trkpt><trkpt lat="39.3186928" lon="16.4658537"><ele>1408.8000000000002</ele><time>2026-05-03T09:18:22.773Z</time></trkpt><trkpt lat="39.3186602" lon="16.4657228"><ele>1409.2</ele><time>2026-05-03T09:18:23.762Z</time></trkpt><trkpt lat="39.3186471" lon="16.4656012"><ele>1409.6</ele><time>2026-05-03T09:18:24.772Z</time></trkpt><trkpt lat="39.3186257" lon="16.465499"><ele>1410.0</ele><time>2026-05-03T09:18:25.767Z</time></trkpt><trkpt lat="39.3185966" lon="16.4653945"><ele>1410.8</ele><time>2026-05-03T09:18:26.772Z</time></trkpt><trkpt lat="39.3185556" lon="16.4652931"><ele>1411.6</ele><time>2026-05-03T09:18:27.771Z</time></trkpt><trkpt lat="39.3185092" lon="16.4651865"><ele>1412.4</ele><time>2026-05-03T09:18:28.766Z</time></trkpt><trkpt lat="39.318452" lon="16.4650578"><ele>1413.2</ele><time>2026-05-03T09:18:29.777Z</time></trkpt><trkpt lat="39.3184339" lon="16.4649471"><ele>1414.0</ele><time>2026-05-03T09:18:30.775Z</time></trkpt><trkpt lat="39.3184486" lon="16.4648288"><ele>1414.0</ele><time>2026-05-03T09:18:32.778Z</time></trkpt><trkpt lat="39.3184332" lon="16.4646689"><ele>1414.0</ele><time>2026-05-03T09:18:34.768Z</time></trkpt><trkpt lat="39.3184201" lon="16.4645785"><ele>1414.0</ele><time>2026-05-03T09:18:35.769Z</time></trkpt><trkpt lat="39.318414" lon="16.4644396"><ele>1414.0</ele><time>2026-05-03T09:18:37.768Z</time></trkpt><trkpt lat="39.3184355" lon="16.4643302"><ele>1414.0</ele><time>2026-05-03T09:18:39.775Z</time></trkpt><trkpt lat="39.3184502" lon="16.4642177"><ele>1414.8333333333333</ele><time>2026-05-03T09:18:42.769Z</time></trkpt><trkpt lat="39.3183951" lon="16.4641636"><ele>1415.6666666666665</ele><time>2026-05-03T09:18:45.771Z</time></trkpt><trkpt lat="39.3183793" lon="16.4640725"><ele>1416.5</ele><time>2026-05-03T09:18:47.77Z</time></trkpt><trkpt lat="39.3183807" lon="16.4639756"><ele>1417.3333333333333</ele><time>2026-05-03T09:18:48.768Z</time></trkpt><trkpt lat="39.3183869" lon="16.4638625"><ele>1418.1666666666667</ele><time>2026-05-03T09:18:49.771Z</time></trkpt><trkpt lat="39.3183909" lon="16.4637581"><ele>1419.0</ele><time>2026-05-03T09:18:50.765Z</time></trkpt><trkpt lat="39.3183859" lon="16.4636552"><ele>1420.0</ele><time>2026-05-03T09:18:51.789Z</time></trkpt><trkpt lat="39.3183712" lon="16.4635684"><ele>1421.0</ele><time>2026-05-03T09:18:52.763Z</time></trkpt><trkpt lat="39.3183373" lon="16.463479"><ele>1422.0</ele><time>2026-05-03T09:18:53.766Z</time></trkpt><trkpt lat="39.3183295" lon="16.4633908"><ele>1423.0</ele><time>2026-05-03T09:18:54.769Z</time></trkpt><trkpt lat="39.318359" lon="16.4632958"><ele>1424.0</ele><time>2026-05-03T09:18:55.771Z</time></trkpt><trkpt lat="39.3183898" lon="16.4631957"><ele>1425.0</ele><time>2026-05-03T09:18:56.767Z</time></trkpt><trkpt lat="39.318413" lon="16.4630925"><ele>1425.0</ele><time>2026-05-03T09:18:57.783Z</time></trkpt><trkpt lat="39.3184249" lon="16.4630006"><ele>1425.0</ele><time>2026-05-03T09:18:58.774Z</time></trkpt><trkpt lat="39.3184464" lon="16.4629005"><ele>1425.0</ele><time>2026-05-03T09:18:59.765Z</time></trkpt><trkpt lat="39.318465" lon="16.4627931"><ele>1425.0</ele><time>2026-05-03T09:19:00.765Z</time></trkpt><trkpt lat="39.3184695" lon="16.4626967"><ele>1425.0</ele><time>2026-05-03T09:19:01.767Z</time></trkpt><trkpt lat="39.3184654" lon="16.462558"><ele>1425.0</ele><time>2026-05-03T09:19:03.774Z</time></trkpt><trkpt lat="39.3184996" lon="16.462424"><ele>1426.1666666666667</ele><time>2026-05-03T09:19:05.778Z</time></trkpt><trkpt lat="39.3185298" lon="16.4623463"><ele>1427.3333333333333</ele><time>2026-05-03T09:19:06.771Z</time></trkpt><trkpt lat="39.318571" lon="16.4622842"><ele>1428.5</ele><time>2026-05-03T09:19:07.77Z</time></trkpt><trkpt lat="39.3186006" lon="16.4621868"><ele>1429.6666666666665</ele><time>2026-05-03T09:19:09.769Z</time></trkpt><trkpt lat="39.3186051" lon="16.462088"><ele>1430.8333333333333</ele><time>2026-05-03T09:19:12.767Z</time></trkpt><trkpt lat="39.3186187" lon="16.4620003"><ele>1432.0</ele><time>2026-05-03T09:19:14.767Z</time></trkpt><trkpt lat="39.3186494" lon="16.4618816"><ele>1434.5</ele><time>2026-05-03T09:19:16.777Z</time></trkpt><trkpt lat="39.3186884" lon="16.4617252"><ele>1437.0</ele><time>2026-05-03T09:19:18.775Z</time></trkpt><trkpt lat="39.3187018" lon="16.4616384"><ele>1439.5</ele><time>2026-05-03T09:19:19.768Z</time></trkpt><trkpt lat="39.318701" lon="16.4615471"><ele>1442.0</ele><time>2026-05-03T09:19:20.77Z</time></trkpt><trkpt lat="39.3186932" lon="16.4614541"><ele>1444.5</ele><time>2026-05-03T09:19:21.77Z</time></trkpt><trkpt lat="39.3186848" lon="16.4613485"><ele>1447.0</ele><time>2026-05-03T09:19:22.774Z</time></trkpt><trkpt lat="39.3186705" lon="16.4612329"><ele>1447.1999999999998</ele><time>2026-05-03T09:19:23.765Z</time></trkpt><trkpt lat="39.3186481" lon="16.4611212"><ele>1447.4</ele><time>2026-05-03T09:19:24.773Z</time></trkpt><trkpt lat="39.3186093" lon="16.4610156"><ele>1447.6</ele><time>2026-05-03T09:19:25.762Z</time></trkpt><trkpt lat="39.3185552" lon="16.4609145"><ele>1447.8000000000002</ele><time>2026-05-03T09:19:26.761Z</time></trkpt><trkpt lat="39.3185023" lon="16.4608129"><ele>1448.0</ele><time>2026-05-03T09:19:27.766Z</time></trkpt><trkpt lat="39.3184673" lon="16.4607058"><ele>1448.0</ele><time>2026-05-03T09:19:28.763Z</time></trkpt><trkpt lat="39.318475" lon="16.460582"><ele>1448.0</ele><time>2026-05-03T09:19:29.767Z</time></trkpt><trkpt lat="39.3184985" lon="16.4604731"><ele>1448.0</ele><time>2026-05-03T09:19:30.767Z</time></trkpt><trkpt lat="39.318506" lon="16.4603662"><ele>1448.0</ele><time>2026-05-03T09:19:31.774Z</time></trkpt><trkpt lat="39.3184828" lon="16.4602602"><ele>1448.0</ele><time>2026-05-03T09:19:32.763Z</time></trkpt><trkpt lat="39.318443" lon="16.4601681"><ele>1448.0</ele><time>2026-05-03T09:19:33.767Z</time></trkpt><trkpt lat="39.3183786" lon="16.4600901"><ele>1449.75</ele><time>2026-05-03T09:19:34.768Z</time></trkpt><trkpt lat="39.3182793" lon="16.4600259"><ele>1451.5</ele><time>2026-05-03T09:19:35.764Z</time></trkpt><trkpt lat="39.3181664" lon="16.4599665"><ele>1453.25</ele><time>2026-05-03T09:19:36.766Z</time></trkpt><trkpt lat="39.318062" lon="16.4598976"><ele>1455.0</ele><time>2026-05-03T09:19:37.766Z</time></trkpt><trkpt lat="39.3179668" lon="16.459824"><ele>1455.0</ele><time>2026-05-03T09:19:38.766Z</time></trkpt><trkpt lat="39.3178845" lon="16.4597573"><ele>1455.0</ele><time>2026-05-03T09:19:39.764Z</time></trkpt><trkpt lat="39.3178167" lon="16.4597001"><ele>1455.0</ele><time>2026-05-03T09:19:40.771Z</time></trkpt><trkpt lat="39.3177634" lon="16.459638"><ele>1455.0</ele><time>2026-05-03T09:19:41.764Z</time></trkpt><trkpt lat="39.3177237" lon="16.4595058"><ele>1455.0</ele><time>2026-05-03T09:19:43.767Z</time></trkpt><trkpt lat="39.3177263" lon="16.4593976"><ele>1455.0</ele><time>2026-05-03T09:19:45.77Z</time></trkpt><trkpt lat="39.3177484" lon="16.4592651"><ele>1456.5714285714284</ele><time>2026-05-03T09:19:47.768Z</time></trkpt><trkpt lat="39.317781" lon="16.4591856"><ele>1458.142857142857</ele><time>2026-05-03T09:19:48.767Z</time></trkpt><trkpt lat="39.317817" lon="16.4591018"><ele>1459.7142857142858</ele><time>2026-05-03T09:19:49.764Z</time></trkpt><trkpt lat="39.3178567" lon="16.4590151"><ele>1461.2857142857142</ele><time>2026-05-03T09:19:50.761Z</time></trkpt><trkpt lat="39.3178931" lon="16.458938"><ele>1462.857142857143</ele><time>2026-05-03T09:19:51.765Z</time></trkpt><trkpt lat="39.3179234" lon="16.4588648"><ele>1464.4285714285713</ele><time>2026-05-03T09:19:52.764Z</time></trkpt><trkpt lat="39.3179486" lon="16.4587902"><ele>1466.0</ele><time>2026-05-03T09:19:53.772Z</time></trkpt><trkpt lat="39.3179666" lon="16.4587109"><ele>1468.5</ele><time>2026-05-03T09:19:54.767Z</time></trkpt><trkpt lat="39.3179697" lon="16.4586179"><ele>1471.0</ele><time>2026-05-03T09:19:55.764Z</time></trkpt><trkpt lat="39.3179427" lon="16.4585155"><ele>1473.5</ele><time>2026-05-03T09:19:56.765Z</time></trkpt><trkpt lat="39.3179006" lon="16.4584054"><ele>1476.0</ele><time>2026-05-03T09:19:57.775Z</time></trkpt><trkpt lat="39.3178606" lon="16.4582892"><ele>1478.5</ele><time>2026-05-03T09:19:58.763Z</time></trkpt><trkpt lat="39.3178221" lon="16.4581788"><ele>1481.0</ele><time>2026-05-03T09:19:59.762Z</time></trkpt><trkpt lat="39.3177685" lon="16.4580762"><ele>1481.0</ele><time>2026-05-03T09:20:00.763Z</time></trkpt><trkpt lat="39.3176809" lon="16.4579939"><ele>1481.0</ele><time>2026-05-03T09:20:01.766Z</time></trkpt><trkpt lat="39.3175791" lon="16.4579295"><ele>1481.0</ele><time>2026-05-03T09:20:02.778Z</time></trkpt><trkpt lat="39.317485" lon="16.4578761"><ele>1481.0</ele><time>2026-05-03T09:20:03.762Z</time></trkpt><trkpt lat="39.3173949" lon="16.4578209"><ele>1481.0</ele><time>2026-05-03T09:20:04.765Z</time></trkpt><trkpt lat="39.3173253" lon="16.4577773"><ele>1481.6666666666667</ele><time>2026-05-03T09:20:05.768Z</time></trkpt><trkpt lat="39.3172234" lon="16.4577069"><ele>1482.3333333333335</ele><time>2026-05-03T09:20:07.768Z</time></trkpt><trkpt lat="39.3171839" lon="16.4576428"><ele>1483.0</ele><time>2026-05-03T09:20:08.767Z</time></trkpt><trkpt lat="39.3171565" lon="16.457553"><ele>1483.6666666666667</ele><time>2026-05-03T09:20:09.783Z</time></trkpt><trkpt lat="39.3171388" lon="16.4574502"><ele>1484.3333333333333</ele><time>2026-05-03T09:20:10.766Z</time></trkpt><trkpt lat="39.3171228" lon="16.4573496"><ele>1485.0</ele><time>2026-05-03T09:20:11.765Z</time></trkpt><trkpt lat="39.3171114" lon="16.4572684"><ele>1485.4</ele><time>2026-05-03T09:20:12.771Z</time></trkpt><trkpt lat="39.3171048" lon="16.4571176"><ele>1485.8</ele><time>2026-05-03T09:20:14.773Z</time></trkpt><trkpt lat="39.3171474" lon="16.4569576"><ele>1486.1999999999998</ele><time>2026-05-03T09:20:16.768Z</time></trkpt><trkpt lat="39.3171785" lon="16.4568786"><ele>1486.6</ele><time>2026-05-03T09:20:17.761Z</time></trkpt><trkpt lat="39.3172049" lon="16.4567951"><ele>1487.0</ele><time>2026-05-03T09:20:18.766Z</time></trkpt><trkpt lat="39.3172319" lon="16.4567064"><ele>1490.1999999999998</ele><time>2026-05-03T09:20:19.771Z</time></trkpt><trkpt lat="39.3172579" lon="16.4566231"><ele>1493.4</ele><time>2026-05-03T09:20:20.767Z</time></trkpt><trkpt lat="39.3173153" lon="16.456502"><ele>1496.6</ele><time>2026-05-03T09:20:22.763Z</time></trkpt><trkpt lat="39.3174025" lon="16.4564032"><ele>1499.8000000000002</ele><time>2026-05-03T09:20:24.768Z</time></trkpt><trkpt lat="39.3174965" lon="16.4563305"><ele>1503.0</ele><time>2026-05-03T09:20:26.771Z</time></trkpt><trkpt lat="39.3175755" lon="16.4562756"><ele>1503.3333333333333</ele><time>2026-05-03T09:20:28.767Z</time></trkpt><trkpt lat="39.3176475" lon="16.4562274"><ele>1503.6666666666667</ele><time>2026-05-03T09:20:30.764Z</time></trkpt><trkpt lat="39.3177312" lon="16.4561638"><ele>1504.0</ele><time>2026-05-03T09:20:32.769Z</time></trkpt><trkpt lat="39.3177582" lon="16.4560868"><ele>1504.3333333333335</ele><time>2026-05-03T09:20:33.765Z</time></trkpt><trkpt lat="39.3177736" lon="16.4559918"><ele>1504.6666666666667</ele><time>2026-05-03T09:20:34.783Z</time></trkpt><trkpt lat="39.3177827" lon="16.4558945"><ele>1505.0</ele><time>2026-05-03T09:20:35.769Z</time></trkpt><trkpt lat="39.3177931" lon="16.4557904"><ele>1505.0</ele><time>2026-05-03T09:20:36.769Z</time></trkpt><trkpt lat="39.3177997" lon="16.4556855"><ele>1505.0</ele><time>2026-05-03T09:20:37.766Z</time></trkpt><trkpt lat="39.3177969" lon="16.455587"><ele>1505.0</ele><time>2026-05-03T09:20:38.765Z</time></trkpt><trkpt lat="39.3178036" lon="16.4554896"><ele>1505.0</ele><time>2026-05-03T09:20:39.769Z</time></trkpt><trkpt lat="39.3178207" lon="16.4553904"><ele>1505.0</ele><time>2026-05-03T09:20:40.78Z</time></trkpt><trkpt lat="39.3178399" lon="16.4552971"><ele>1505.0</ele><time>2026-05-03T09:20:41.768Z</time></trkpt><trkpt lat="39.317864" lon="16.4552032"><ele>1505.0</ele><time>2026-05-03T09:20:42.771Z</time></trkpt><trkpt lat="39.317895" lon="16.4551077"><ele>1505.0</ele><time>2026-05-03T09:20:43.767Z</time></trkpt><trkpt lat="39.3179282" lon="16.4550052"><ele>1505.0</ele><time>2026-05-03T09:20:44.771Z</time></trkpt><trkpt lat="39.3179597" lon="16.4549065"><ele>1505.0</ele><time>2026-05-03T09:20:45.761Z</time></trkpt><trkpt lat="39.3179902" lon="16.4548081"><ele>1505.0</ele><time>2026-05-03T09:20:46.769Z</time></trkpt><trkpt lat="39.3180245" lon="16.4547084"><ele>1505.0</ele><time>2026-05-03T09:20:47.768Z</time></trkpt><trkpt lat="39.3180667" lon="16.4546167"><ele>1506.5</ele><time>2026-05-03T09:20:48.763Z</time></trkpt><trkpt lat="39.3181061" lon="16.4545267"><ele>1508.0</ele><time>2026-05-03T09:20:49.766Z</time></trkpt><trkpt lat="39.3181454" lon="16.4544424"><ele>1509.5</ele><time>2026-05-03T09:20:50.774Z</time></trkpt><trkpt lat="39.3181876" lon="16.4543608"><ele>1511.0</ele><time>2026-05-03T09:20:51.772Z</time></trkpt><trkpt lat="39.3182409" lon="16.4542812"><ele>1512.5</ele><time>2026-05-03T09:20:52.775Z</time></trkpt><trkpt lat="39.3182848" lon="16.4542063"><ele>1514.0</ele><time>2026-05-03T09:20:53.778Z</time></trkpt><trkpt lat="39.3183348" lon="16.4541433"><ele>1514.0</ele><time>2026-05-03T09:20:54.763Z</time></trkpt><trkpt lat="39.3183924" lon="16.45408"><ele>1514.0</ele><time>2026-05-03T09:20:55.762Z</time></trkpt><trkpt lat="39.3184453" lon="16.4540206"><ele>1514.0</ele><time>2026-05-03T09:20:56.766Z</time></trkpt><trkpt lat="39.3185237" lon="16.4539358"><ele>1514.0</ele><time>2026-05-03T09:20:58.769Z</time></trkpt><trkpt lat="39.3186185" lon="16.4538963"><ele>1514.0</ele><time>2026-05-03T09:21:00.766Z</time></trkpt><trkpt lat="39.3187437" lon="16.4538718"><ele>1514.0</ele><time>2026-05-03T09:21:02.763Z</time></trkpt><trkpt lat="39.3188131" lon="16.4538509"><ele>1514.0</ele><time>2026-05-03T09:21:03.767Z</time></trkpt><trkpt lat="39.3188827" lon="16.4538172"><ele>1514.0</ele><time>2026-05-03T09:21:04.767Z</time></trkpt><trkpt lat="39.3189436" lon="16.4537663"><ele>1514.0</ele><time>2026-05-03T09:21:05.768Z</time></trkpt><trkpt lat="39.3190037" lon="16.4537096"><ele>1514.0</ele><time>2026-05-03T09:21:06.769Z</time></trkpt><trkpt lat="39.3190667" lon="16.4536548"><ele>1514.0</ele><time>2026-05-03T09:21:07.782Z</time></trkpt><trkpt lat="39.3191331" lon="16.4535926"><ele>1515.5</ele><time>2026-05-03T09:21:08.764Z</time></trkpt><trkpt lat="39.3191951" lon="16.4534932"><ele>1517.0</ele><time>2026-05-03T09:21:09.767Z</time></trkpt><trkpt lat="39.3192543" lon="16.4533934"><ele>1518.5</ele><time>2026-05-03T09:21:10.761Z</time></trkpt><trkpt lat="39.3193089" lon="16.4532998"><ele>1520.0</ele><time>2026-05-03T09:21:11.771Z</time></trkpt><trkpt lat="39.3193608" lon="16.4532148"><ele>1521.5</ele><time>2026-05-03T09:21:12.766Z</time></trkpt><trkpt lat="39.319411" lon="16.453136"><ele>1523.0</ele><time>2026-05-03T09:21:13.774Z</time></trkpt><trkpt lat="39.3194559" lon="16.4530648"><ele>1523.1666666666667</ele><time>2026-05-03T09:21:14.774Z</time></trkpt><trkpt lat="39.3195236" lon="16.4529488"><ele>1523.3333333333335</ele><time>2026-05-03T09:21:16.768Z</time></trkpt><trkpt lat="39.3195636" lon="16.4528849"><ele>1523.5</ele><time>2026-05-03T09:21:17.773Z</time></trkpt><trkpt lat="39.3196085" lon="16.452817"><ele>1523.6666666666667</ele><time>2026-05-03T09:21:18.777Z</time></trkpt><trkpt lat="39.3196561" lon="16.4527458"><ele>1523.8333333333333</ele><time>2026-05-03T09:21:19.762Z</time></trkpt><trkpt lat="39.3197085" lon="16.4526696"><ele>1524.0</ele><time>2026-05-03T09:21:20.802Z</time></trkpt><trkpt lat="39.3197532" lon="16.4525872"><ele>1526.2</ele><time>2026-05-03T09:21:21.773Z</time></trkpt><trkpt lat="39.3197936" lon="16.4524978"><ele>1528.4</ele><time>2026-05-03T09:21:22.768Z</time></trkpt><trkpt lat="39.3198351" lon="16.4523974"><ele>1530.6</ele><time>2026-05-03T09:21:23.773Z</time></trkpt><trkpt lat="39.3198788" lon="16.4522919"><ele>1532.8</ele><time>2026-05-03T09:21:24.766Z</time></trkpt><trkpt lat="39.3199198" lon="16.4521778"><ele>1535.0</ele><time>2026-05-03T09:21:25.781Z</time></trkpt><trkpt lat="39.3199605" lon="16.4520655"><ele>1535.0</ele><time>2026-05-03T09:21:26.766Z</time></trkpt><trkpt lat="39.320005" lon="16.4519599"><ele>1535.0</ele><time>2026-05-03T09:21:27.769Z</time></trkpt><trkpt lat="39.3200522" lon="16.4518607"><ele>1535.0</ele><time>2026-05-03T09:21:28.767Z</time></trkpt><trkpt lat="39.3201028" lon="16.4517712"><ele>1535.0</ele><time>2026-05-03T09:21:29.77Z</time></trkpt><trkpt lat="39.3201582" lon="16.451677"><ele>1535.0</ele><time>2026-05-03T09:21:30.778Z</time></trkpt><trkpt lat="39.3201946" lon="16.4515785"><ele>1535.0</ele><time>2026-05-03T09:21:31.773Z</time></trkpt><trkpt lat="39.3202241" lon="16.4514917"><ele>1535.0</ele><time>2026-05-03T09:21:32.772Z</time></trkpt><trkpt lat="39.3202522" lon="16.4513466"><ele>1535.0</ele><time>2026-05-03T09:21:34.771Z</time></trkpt><trkpt lat="39.3202292" lon="16.4512564"><ele>1535.0</ele><time>2026-05-03T09:21:35.767Z</time></trkpt><trkpt lat="39.3201934" lon="16.4511604"><ele>1535.0</ele><time>2026-05-03T09:21:36.763Z</time></trkpt><trkpt lat="39.3201599" lon="16.451081"><ele>1535.0</ele><time>2026-05-03T09:21:37.767Z</time></trkpt><trkpt lat="39.3201303" lon="16.4510033"><ele>1535.0</ele><time>2026-05-03T09:21:38.769Z</time></trkpt><trkpt lat="39.3200822" lon="16.4508613"><ele>1536.3333333333335</ele><time>2026-05-03T09:21:40.768Z</time></trkpt><trkpt lat="39.3200281" lon="16.4507435"><ele>1537.6666666666667</ele><time>2026-05-03T09:21:42.77Z</time></trkpt><trkpt lat="39.3199855" lon="16.4506515"><ele>1539.0</ele><time>2026-05-03T09:21:44.774Z</time></trkpt><trkpt lat="39.3199602" lon="16.4505527"><ele>1540.3333333333335</ele><time>2026-05-03T09:21:47.778Z</time></trkpt><trkpt lat="39.3199333" lon="16.4504635"><ele>1541.6666666666667</ele><time>2026-05-03T09:21:50.773Z</time></trkpt><trkpt lat="39.3199107" lon="16.4503494"><ele>1543.0</ele><time>2026-05-03T09:21:52.772Z</time></trkpt><trkpt lat="39.3199289" lon="16.4502068"><ele>1543.6666666666667</ele><time>2026-05-03T09:21:54.787Z</time></trkpt><trkpt lat="39.3199471" lon="16.45012"><ele>1544.3333333333335</ele><time>2026-05-03T09:21:55.775Z</time></trkpt><trkpt lat="39.3199774" lon="16.4499856"><ele>1545.0</ele><time>2026-05-03T09:21:57.766Z</time></trkpt><trkpt lat="39.3200197" lon="16.4498469"><ele>1545.6666666666665</ele><time>2026-05-03T09:21:59.768Z</time></trkpt><trkpt lat="39.3200519" lon="16.4497687"><ele>1546.3333333333333</ele><time>2026-05-03T09:22:00.763Z</time></trkpt><trkpt lat="39.3200881" lon="16.4496856"><ele>1547.0</ele><time>2026-05-03T09:22:01.777Z</time></trkpt><trkpt lat="39.3201243" lon="16.4496154"><ele>1547.0</ele><time>2026-05-03T09:22:02.763Z</time></trkpt><trkpt lat="39.3201971" lon="16.4495156"><ele>1547.0</ele><time>2026-05-03T09:22:04.761Z</time></trkpt><trkpt lat="39.320258" lon="16.4494093"><ele>1547.0</ele><time>2026-05-03T09:22:06.761Z</time></trkpt><trkpt lat="39.3203091" lon="16.4492791"><ele>1547.0</ele><time>2026-05-03T09:22:08.767Z</time></trkpt><trkpt lat="39.3203297" lon="16.4491513"><ele>1547.0</ele><time>2026-05-03T09:22:10.765Z</time></trkpt><trkpt lat="39.320328" lon="16.449018"><ele>1547.0</ele><time>2026-05-03T09:22:12.776Z</time></trkpt><trkpt lat="39.3203327" lon="16.4488975"><ele>1547.0</ele><time>2026-05-03T09:22:14.779Z</time></trkpt><trkpt lat="39.3203461" lon="16.4487306"><ele>1547.0</ele><time>2026-05-03T09:22:16.768Z</time></trkpt><trkpt lat="39.320353" lon="16.4486461"><ele>1547.0</ele><time>2026-05-03T09:22:17.762Z</time></trkpt><trkpt lat="39.3203847" lon="16.4484861"><ele>1547.0</ele><time>2026-05-03T09:22:19.77Z</time></trkpt><trkpt lat="39.3204124" lon="16.4484091"><ele>1548.8</ele><time>2026-05-03T09:22:20.768Z</time></trkpt><trkpt lat="39.3204778" lon="16.4482852"><ele>1550.6</ele><time>2026-05-03T09:22:22.763Z</time></trkpt><trkpt lat="39.3205316" lon="16.4481489"><ele>1552.3999999999999</ele><time>2026-05-03T09:22:24.774Z</time></trkpt><trkpt lat="39.3205611" lon="16.4480725"><ele>1554.1999999999998</ele><time>2026-05-03T09:22:25.764Z</time></trkpt><trkpt lat="39.320586" lon="16.4479892"><ele>1556.0</ele><time>2026-05-03T09:22:26.784Z</time></trkpt><trkpt lat="39.3206137" lon="16.4478876"><ele>1559.0</ele><time>2026-05-03T09:22:27.763Z</time></trkpt><trkpt lat="39.3206363" lon="16.4477986"><ele>1562.0</ele><time>2026-05-03T09:22:28.768Z</time></trkpt><trkpt lat="39.3206746" lon="16.4476615"><ele>1565.0</ele><time>2026-05-03T09:22:30.761Z</time></trkpt><trkpt lat="39.3207003" lon="16.4475453"><ele>1568.0</ele><time>2026-05-03T09:22:32.769Z</time></trkpt><trkpt lat="39.3207333" lon="16.4474274"><ele>1571.0</ele><time>2026-05-03T09:22:34.774Z</time></trkpt><trkpt lat="39.3207563" lon="16.4473087"><ele>1571.0</ele><time>2026-05-03T09:22:36.768Z</time></trkpt><trkpt lat="39.320808" lon="16.4472145"><ele>1571.0</ele><time>2026-05-03T09:22:39.764Z</time></trkpt><trkpt lat="39.3208916" lon="16.4471626"><ele>1571.0</ele><time>2026-05-03T09:22:41.764Z</time></trkpt><trkpt lat="39.3209867" lon="16.4471184"><ele>1571.0</ele><time>2026-05-03T09:22:43.766Z</time></trkpt><trkpt lat="39.3210423" lon="16.4470338"><ele>1571.0</ele><time>2026-05-03T09:22:45.779Z</time></trkpt><trkpt lat="39.3210464" lon="16.4469161"><ele>1571.6666666666665</ele><time>2026-05-03T09:22:47.765Z</time></trkpt><trkpt lat="39.3210111" lon="16.4468451"><ele>1572.3333333333333</ele><time>2026-05-03T09:22:51.771Z</time></trkpt><trkpt lat="39.3210032" lon="16.4467444"><ele>1573.0</ele><time>2026-05-03T09:23:08.77Z</time></trkpt><trkpt lat="39.3210479" lon="16.4466627"><ele>1573.6666666666665</ele><time>2026-05-03T09:23:10.767Z</time></trkpt><trkpt lat="39.3210002" lon="16.4465623"><ele>1574.3333333333333</ele><time>2026-05-03T09:23:12.763Z</time></trkpt><trkpt lat="39.3209363" lon="16.4464923"><ele>1575.0</ele><time>2026-05-03T09:23:13.772Z</time></trkpt><trkpt lat="39.320869" lon="16.446423"><ele>1575.0</ele><time>2026-05-03T09:23:14.767Z</time></trkpt><trkpt lat="39.3208152" lon="16.4463572"><ele>1575.0</ele><time>2026-05-03T09:23:15.761Z</time></trkpt><trkpt lat="39.3207794" lon="16.4462515"><ele>1575.0</ele><time>2026-05-03T09:23:16.768Z</time></trkpt><trkpt lat="39.3207537" lon="16.4461693"><ele>1575.0</ele><time>2026-05-03T09:23:17.763Z</time></trkpt><trkpt lat="39.3206971" lon="16.446123"><ele>1575.0</ele><time>2026-05-03T09:23:18.774Z</time></trkpt><trkpt lat="39.3206337" lon="16.4460729"><ele>1575.0</ele><time>2026-05-03T09:23:19.768Z</time></trkpt><trkpt lat="39.3205693" lon="16.4459866"><ele>1576.2</ele><time>2026-05-03T09:23:20.789Z</time></trkpt><trkpt lat="39.320511" lon="16.4458786"><ele>1577.4</ele><time>2026-05-03T09:23:21.769Z</time></trkpt><trkpt lat="39.3204642" lon="16.4457856"><ele>1578.6</ele><time>2026-05-03T09:23:22.772Z</time></trkpt><trkpt lat="39.3203871" lon="16.4457191"><ele>1579.8</ele><time>2026-05-03T09:23:23.773Z</time></trkpt><trkpt lat="39.3202956" lon="16.4457064"><ele>1581.0</ele><time>2026-05-03T09:23:24.774Z</time></trkpt><trkpt lat="39.320202" lon="16.4457171"><ele>1581.0</ele><time>2026-05-03T09:23:25.77Z</time></trkpt><trkpt lat="39.3201253" lon="16.4457727"><ele>1581.0</ele><time>2026-05-03T09:23:26.783Z</time></trkpt><trkpt lat="39.3200926" lon="16.4458477"><ele>1581.0</ele><time>2026-05-03T09:23:27.772Z</time></trkpt><trkpt lat="39.3200127" lon="16.4458635"><ele>1581.0</ele><time>2026-05-03T09:23:29.767Z</time></trkpt><trkpt lat="39.3199366" lon="16.4457972"><ele>1581.0</ele><time>2026-05-03T09:23:30.771Z</time></trkpt><trkpt lat="39.3198672" lon="16.4457265"><ele>1581.0</ele><time>2026-05-03T09:23:31.768Z</time></trkpt><trkpt lat="39.3197986" lon="16.4456675"><ele>1581.0</ele><time>2026-05-03T09:23:32.769Z</time></trkpt><trkpt lat="39.3197336" lon="16.4456096"><ele>1581.0</ele><time>2026-05-03T09:23:33.773Z</time></trkpt><trkpt lat="39.3196524" lon="16.445533"><ele>1581.0</ele><time>2026-05-03T09:23:35.774Z</time></trkpt><trkpt lat="39.3195939" lon="16.4454815"><ele>1581.0</ele><time>2026-05-03T09:23:37.779Z</time></trkpt><trkpt lat="39.3195378" lon="16.4454155"><ele>1581.0</ele><time>2026-05-03T09:23:44.774Z</time></trkpt><trkpt lat="39.3194765" lon="16.4453856"><ele>1581.0</ele><time>2026-05-03T09:23:49.777Z</time></trkpt><trkpt lat="39.31942" lon="16.4453393"><ele>1582.0</ele><time>2026-05-03T09:23:52.776Z</time></trkpt><trkpt lat="39.3193552" lon="16.4452847"><ele>1583.0</ele><time>2026-05-03T09:23:56.783Z</time></trkpt><trkpt lat="39.3193051" lon="16.4452353"><ele>1584.0</ele><time>2026-05-03T09:24:00.777Z</time></trkpt><trkpt lat="39.3192358" lon="16.4452074"><ele>1585.0</ele><time>2026-05-03T09:24:03.772Z</time></trkpt><trkpt lat="39.3191594" lon="16.4451679"><ele>1586.0</ele><time>2026-05-03T09:24:06.776Z</time></trkpt><trkpt lat="39.3190962" lon="16.4451319"><ele>1587.0</ele><time>2026-05-03T09:24:08.773Z</time></trkpt><trkpt lat="39.3190331" lon="16.4451015"><ele>1588.0</ele><time>2026-05-03T09:24:10.769Z</time></trkpt><trkpt lat="39.3189538" lon="16.4450779"><ele>1590.857142857143</ele><time>2026-05-03T09:24:13.776Z</time></trkpt><trkpt lat="39.3188677" lon="16.44506"><ele>1593.7142857142858</ele><time>2026-05-03T09:24:16.772Z</time></trkpt><trkpt lat="39.31879" lon="16.4450494"><ele>1596.5714285714284</ele><time>2026-05-03T09:24:19.773Z</time></trkpt><trkpt lat="39.3187316" lon="16.4450143"><ele>1599.4285714285716</ele><time>2026-05-03T09:24:25.775Z</time></trkpt><trkpt lat="39.3186677" lon="16.4449919"><ele>1602.2857142857144</ele><time>2026-05-03T09:24:30.774Z</time></trkpt><trkpt lat="39.3185903" lon="16.4449524"><ele>1605.142857142857</ele><time>2026-05-03T09:24:37.77Z</time></trkpt><trkpt lat="39.318533" lon="16.444915"><ele>1608.0</ele><time>2026-05-03T09:24:42.779Z</time></trkpt><trkpt lat="39.3184684" lon="16.4448828"><ele>1608.0</ele><time>2026-05-03T09:24:47.767Z</time></trkpt><trkpt lat="39.3183697" lon="16.4448723"><ele>1608.0</ele><time>2026-05-03T09:24:55.78Z</time></trkpt><trkpt lat="39.3182679" lon="16.4448303"><ele>1608.0</ele><time>2026-05-03T09:25:01.778Z</time></trkpt><trkpt lat="39.3182009" lon="16.4447971"><ele>1608.0</ele><time>2026-05-03T09:25:04.763Z</time></trkpt><trkpt lat="39.3181408" lon="16.4447565"><ele>1608.0</ele><time>2026-05-03T09:25:07.783Z</time></trkpt><trkpt lat="39.3180775" lon="16.4447015"><ele>1608.0</ele><time>2026-05-03T09:25:31.769Z</time></trkpt><trkpt lat="39.3180166" lon="16.4446689"><ele>1610.5</ele><time>2026-05-03T09:25:49.772Z</time></trkpt><trkpt lat="39.31793" lon="16.4446513"><ele>1613.0</ele><time>2026-05-03T09:25:56.77Z</time></trkpt><trkpt lat="39.3178438" lon="16.4445798"><ele>1615.5</ele><time>2026-05-03T09:25:59.769Z</time></trkpt><trkpt lat="39.3177803" lon="16.4445606"><ele>1618.0</ele><time>2026-05-03T09:26:01.768Z</time></trkpt><trkpt lat="39.3177888" lon="16.4446576"><ele>1620.5</ele><time>2026-05-03T09:26:03.768Z</time></trkpt><trkpt lat="39.3178459" lon="16.4447227"><ele>1623.0</ele><time>2026-05-03T09:26:05.768Z</time></trkpt><trkpt lat="39.3179135" lon="16.4447143"><ele>1623.3333333333333</ele><time>2026-05-03T09:26:07.769Z</time></trkpt><trkpt lat="39.3179922" lon="16.4447936"><ele>1623.6666666666665</ele><time>2026-05-03T09:26:09.767Z</time></trkpt><trkpt lat="39.3180721" lon="16.444823"><ele>1624.0</ele><time>2026-05-03T09:26:12.772Z</time></trkpt><trkpt lat="39.3181343" lon="16.4447931"><ele>1624.3333333333333</ele><time>2026-05-03T09:26:15.78Z</time></trkpt><trkpt lat="39.3180607" lon="16.44469"><ele>1624.6666666666665</ele><time>2026-05-03T09:29:20.773Z</time></trkpt><trkpt lat="39.3179912" lon="16.4446339"><ele>1625.0</ele><time>2026-05-03T09:30:23.77Z</time></trkpt><trkpt lat="39.3179158" lon="16.4446439"><ele>1625.0</ele><time>2026-05-03T09:31:16.78Z</time></trkpt><trkpt lat="39.3179184" lon="16.4447355"><ele>1625.0</ele><time>2026-05-03T09:34:41.75Z</time></trkpt><trkpt lat="39.3179715" lon="16.4448009"><ele>1625.0</ele><time>2026-05-03T09:34:43.765Z</time></trkpt><trkpt lat="39.3180519" lon="16.4447921"><ele>1625.0</ele><time>2026-05-03T09:34:46.764Z</time></trkpt><trkpt lat="39.3181199" lon="16.4447815"><ele>1625.0</ele><time>2026-05-03T09:34:58.766Z</time></trkpt><trkpt lat="39.3181157" lon="16.4446958"><ele>1625.0</ele><time>2026-05-03T09:35:14.766Z</time></trkpt><trkpt lat="39.3180527" lon="16.4446766"><ele>1625.0</ele><time>2026-05-03T09:35:20.768Z</time></trkpt><trkpt lat="39.3179704" lon="16.4446324"><ele>1625.0</ele><time>2026-05-03T10:13:04.771Z</time></trkpt><trkpt lat="39.317894" lon="16.4446445"><ele>1625.0</ele><time>2026-05-03T10:13:07.771Z</time></trkpt><trkpt lat="39.3178337" lon="16.444668"><ele>1625.0</ele><time>2026-05-03T10:13:42.752Z</time></trkpt><trkpt lat="39.3178741" lon="16.4445916"><ele>1625.0</ele><time>2026-05-03T10:29:25.776Z</time></trkpt><trkpt lat="39.3178008" lon="16.4446181"><ele>1625.0</ele><time>2026-05-03T10:29:33.771Z</time></trkpt><trkpt lat="39.3177588" lon="16.4445409"><ele>1625.0</ele><time>2026-05-03T10:29:36.765Z</time></trkpt><trkpt lat="39.3177711" lon="16.4444607"><ele>1625.0</ele><time>2026-05-03T10:30:01.779Z</time></trkpt><trkpt lat="39.3177699" lon="16.4443663"><ele>1624.7142857142858</ele><time>2026-05-03T10:30:06.771Z</time></trkpt><trkpt lat="39.3177158" lon="16.4443108"><ele>1624.4285714285716</ele><time>2026-05-03T10:30:26.779Z</time></trkpt><trkpt lat="39.3176512" lon="16.4442516"><ele>1624.142857142857</ele><time>2026-05-03T10:30:29.771Z</time></trkpt><trkpt lat="39.3176082" lon="16.4441839"><ele>1623.857142857143</ele><time>2026-05-03T10:30:32.771Z</time></trkpt><trkpt lat="39.3175759" lon="16.4441"><ele>1623.5714285714284</ele><time>2026-05-03T10:30:37.773Z</time></trkpt><trkpt lat="39.3175213" lon="16.4440379"><ele>1623.2857142857142</ele><time>2026-05-03T10:30:43.767Z</time></trkpt><trkpt lat="39.3174661" lon="16.4439828"><ele>1623.0</ele><time>2026-05-03T10:30:47.776Z</time></trkpt><trkpt lat="39.3173874" lon="16.4439641"><ele>1623.0</ele><time>2026-05-03T10:30:51.775Z</time></trkpt><trkpt lat="39.3173443" lon="16.4438983"><ele>1623.0</ele><time>2026-05-03T10:30:58.771Z</time></trkpt><trkpt lat="39.3172942" lon="16.4438326"><ele>1623.0</ele><time>2026-05-03T10:31:01.854Z</time></trkpt><trkpt lat="39.3172242" lon="16.4437863"><ele>1623.0</ele><time>2026-05-03T10:31:06.743Z</time></trkpt><trkpt lat="39.3171584" lon="16.4437356"><ele>1623.0</ele><time>2026-05-03T10:31:10.784Z</time></trkpt><trkpt lat="39.3171365" lon="16.4436329"><ele>1623.0</ele><time>2026-05-03T10:31:13.738Z</time></trkpt><trkpt lat="39.3170545" lon="16.4434575"><ele>1625.1666666666667</ele><time>2026-05-03T10:31:15.764Z</time></trkpt><trkpt lat="39.3169952" lon="16.4434136"><ele>1627.3333333333335</ele><time>2026-05-03T10:31:17.77Z</time></trkpt><trkpt lat="39.3169378" lon="16.4433669"><ele>1629.5</ele><time>2026-05-03T10:31:19.768Z</time></trkpt><trkpt lat="39.3168744" lon="16.4432901"><ele>1631.6666666666667</ele><time>2026-05-03T10:31:22.765Z</time></trkpt><trkpt lat="39.3168022" lon="16.4432257"><ele>1633.8333333333335</ele><time>2026-05-03T10:31:25.762Z</time></trkpt><trkpt lat="39.3167158" lon="16.4431771"><ele>1636.0</ele><time>2026-05-03T10:31:28.759Z</time></trkpt><trkpt lat="39.3166541" lon="16.4431502"><ele>1636.0</ele><time>2026-05-03T10:31:33.842Z</time></trkpt><trkpt lat="39.3165949" lon="16.4430993"><ele>1636.0</ele><time>2026-05-03T10:31:35.761Z</time></trkpt><trkpt lat="39.3164501" lon="16.4429933"><ele>1636.0</ele><time>2026-05-03T10:31:36.768Z</time></trkpt><trkpt lat="39.3163961" lon="16.4429443"><ele>1636.0</ele><time>2026-05-03T10:31:38.767Z</time></trkpt><trkpt lat="39.3163272" lon="16.442887"><ele>1636.0</ele><time>2026-05-03T10:31:41.768Z</time></trkpt><trkpt lat="39.3162886" lon="16.4428062"><ele>1640.0</ele><time>2026-05-03T10:31:43.765Z</time></trkpt><trkpt lat="39.3162312" lon="16.4426834"><ele>1644.0</ele><time>2026-05-03T10:31:45.767Z</time></trkpt><trkpt lat="39.3161887" lon="16.4426229"><ele>1648.0</ele><time>2026-05-03T10:31:46.77Z</time></trkpt><trkpt lat="39.3161379" lon="16.4425395"><ele>1652.0</ele><time>2026-05-03T10:31:47.782Z</time></trkpt><trkpt lat="39.3160539" lon="16.4424521"><ele>1656.0</ele><time>2026-05-03T10:31:49.776Z</time></trkpt><trkpt lat="39.3159875" lon="16.4423717"><ele>1656.0</ele><time>2026-05-03T10:31:51.775Z</time></trkpt><trkpt lat="39.315918" lon="16.4422804"><ele>1656.0</ele><time>2026-05-03T10:31:53.772Z</time></trkpt><trkpt lat="39.3158317" lon="16.4421917"><ele>1656.0</ele><time>2026-05-03T10:31:55.77Z</time></trkpt><trkpt lat="39.315769" lon="16.4421125"><ele>1656.0</ele><time>2026-05-03T10:31:57.768Z</time></trkpt><trkpt lat="39.3157042" lon="16.442028"><ele>1656.0</ele><time>2026-05-03T10:31:59.77Z</time></trkpt><trkpt lat="39.3156529" lon="16.4419545"><ele>1654.8</ele><time>2026-05-03T10:32:01.777Z</time></trkpt><trkpt lat="39.3155889" lon="16.4418896"><ele>1653.6</ele><time>2026-05-03T10:32:05.819Z</time></trkpt><trkpt lat="39.3154851" lon="16.4416991"><ele>1652.4</ele><time>2026-05-03T10:32:07.777Z</time></trkpt><trkpt lat="39.3154332" lon="16.4416422"><ele>1651.2</ele><time>2026-05-03T10:32:09.771Z</time></trkpt><trkpt lat="39.3153677" lon="16.441584"><ele>1650.0</ele><time>2026-05-03T10:32:12.77Z</time></trkpt><trkpt lat="39.3152973" lon="16.4415498"><ele>1652.5</ele><time>2026-05-03T10:32:15.773Z</time></trkpt><trkpt lat="39.3152418" lon="16.4414876"><ele>1655.0</ele><time>2026-05-03T10:32:17.781Z</time></trkpt><trkpt lat="39.3151781" lon="16.4414186"><ele>1657.5</ele><time>2026-05-03T10:32:19.774Z</time></trkpt><trkpt lat="39.315118" lon="16.4413581"><ele>1660.0</ele><time>2026-05-03T10:32:21.771Z</time></trkpt><trkpt lat="39.3150728" lon="16.4412494"><ele>1662.5</ele><time>2026-05-03T10:32:23.767Z</time></trkpt><trkpt lat="39.3150381" lon="16.4411396"><ele>1665.0</ele><time>2026-05-03T10:32:25.781Z</time></trkpt><trkpt lat="39.3150032" lon="16.441046"><ele>1665.0</ele><time>2026-05-03T10:32:27.784Z</time></trkpt><trkpt lat="39.3149318" lon="16.4409371"><ele>1665.0</ele><time>2026-05-03T10:32:29.77Z</time></trkpt><trkpt lat="39.3148411" lon="16.4408408"><ele>1665.0</ele><time>2026-05-03T10:32:31.769Z</time></trkpt><trkpt lat="39.3147723" lon="16.4407909"><ele>1665.0</ele><time>2026-05-03T10:32:32.767Z</time></trkpt><trkpt lat="39.3146618" lon="16.4407387"><ele>1665.0</ele><time>2026-05-03T10:32:34.768Z</time></trkpt><trkpt lat="39.314558" lon="16.4406762"><ele>1664.8333333333333</ele><time>2026-05-03T10:32:36.774Z</time></trkpt><trkpt lat="39.3144892" lon="16.4406423"><ele>1664.6666666666665</ele><time>2026-05-03T10:32:38.786Z</time></trkpt><trkpt lat="39.3144176" lon="16.4406044"><ele>1664.5</ele><time>2026-05-03T10:32:40.772Z</time></trkpt><trkpt lat="39.3143513" lon="16.4405451"><ele>1664.3333333333333</ele><time>2026-05-03T10:32:42.769Z</time></trkpt><trkpt lat="39.3143024" lon="16.4404618"><ele>1664.1666666666665</ele><time>2026-05-03T10:32:44.764Z</time></trkpt><trkpt lat="39.3142783" lon="16.4403671"><ele>1664.0</ele><time>2026-05-03T10:32:46.772Z</time></trkpt><trkpt lat="39.3142445" lon="16.4402973"><ele>1664.0</ele><time>2026-05-03T10:32:48.768Z</time></trkpt><trkpt lat="39.3141833" lon="16.440236"><ele>1664.0</ele><time>2026-05-03T10:32:50.766Z</time></trkpt><trkpt lat="39.3141044" lon="16.4401585"><ele>1664.0</ele><time>2026-05-03T10:32:52.769Z</time></trkpt><trkpt lat="39.3140497" lon="16.4400847"><ele>1664.0</ele><time>2026-05-03T10:32:53.773Z</time></trkpt><trkpt lat="39.3139745" lon="16.4399899"><ele>1664.0</ele><time>2026-05-03T10:32:55.774Z</time></trkpt><trkpt lat="39.3138903" lon="16.4398828"><ele>1663.4</ele><time>2026-05-03T10:32:57.773Z</time></trkpt><trkpt lat="39.3138383" lon="16.4398248"><ele>1662.8000000000002</ele><time>2026-05-03T10:32:58.774Z</time></trkpt><trkpt lat="39.3137608" lon="16.4397248"><ele>1662.1999999999998</ele><time>2026-05-03T10:33:00.76Z</time></trkpt><trkpt lat="39.3136787" lon="16.4396076"><ele>1661.6</ele><time>2026-05-03T10:33:02.763Z</time></trkpt><trkpt lat="39.3136334" lon="16.4395411"><ele>1661.0</ele><time>2026-05-03T10:33:03.77Z</time></trkpt><trkpt lat="39.3135728" lon="16.4394268"><ele>1661.0</ele><time>2026-05-03T10:33:05.768Z</time></trkpt><trkpt lat="39.3135251" lon="16.4393573"><ele>1661.0</ele><time>2026-05-03T10:33:06.762Z</time></trkpt><trkpt lat="39.3134533" lon="16.4392741"><ele>1661.0</ele><time>2026-05-03T10:33:08.766Z</time></trkpt><trkpt lat="39.3133617" lon="16.4391368"><ele>1661.0</ele><time>2026-05-03T10:33:10.76Z</time></trkpt><trkpt lat="39.3133159" lon="16.4390777"><ele>1661.0</ele><time>2026-05-03T10:33:11.763Z</time></trkpt><trkpt lat="39.3132266" lon="16.4389575"><ele>1661.0</ele><time>2026-05-03T10:33:13.767Z</time></trkpt><trkpt lat="39.3131548" lon="16.4388549"><ele>1661.0</ele><time>2026-05-03T10:33:15.774Z</time></trkpt><trkpt lat="39.3130823" lon="16.4387432"><ele>1661.0</ele><time>2026-05-03T10:33:17.77Z</time></trkpt><trkpt lat="39.3130282" lon="16.4386097"><ele>1661.0</ele><time>2026-05-03T10:33:19.772Z</time></trkpt><trkpt lat="39.3129654" lon="16.4384637"><ele>1658.0</ele><time>2026-05-03T10:33:20.763Z</time></trkpt><trkpt lat="39.3129223" lon="16.438348"><ele>1655.0</ele><time>2026-05-03T10:33:21.769Z</time></trkpt><trkpt lat="39.3128961" lon="16.4382715"><ele>1652.0</ele><time>2026-05-03T10:33:22.77Z</time></trkpt><trkpt lat="39.3128574" lon="16.4381336"><ele>1649.0</ele><time>2026-05-03T10:33:24.762Z</time></trkpt><trkpt lat="39.3128405" lon="16.4379881"><ele>1646.0</ele><time>2026-05-03T10:33:26.766Z</time></trkpt><trkpt lat="39.3128403" lon="16.4379027"><ele>1645.0</ele><time>2026-05-03T10:33:27.77Z</time></trkpt><trkpt lat="39.3128837" lon="16.4377686"><ele>1644.0</ele><time>2026-05-03T10:33:29.765Z</time></trkpt><trkpt lat="39.312902" lon="16.4376344"><ele>1643.0</ele><time>2026-05-03T10:33:31.764Z</time></trkpt><trkpt lat="39.3129098" lon="16.4374964"><ele>1642.0</ele><time>2026-05-03T10:33:33.766Z</time></trkpt><trkpt lat="39.3128998" lon="16.4373534"><ele>1641.0</ele><time>2026-05-03T10:33:35.767Z</time></trkpt><trkpt lat="39.3128897" lon="16.4372583"><ele>1641.0</ele><time>2026-05-03T10:33:36.772Z</time></trkpt><trkpt lat="39.3128998" lon="16.4371551"><ele>1641.0</ele><time>2026-05-03T10:33:37.782Z</time></trkpt><trkpt lat="39.312914" lon="16.4370161"><ele>1641.0</ele><time>2026-05-03T10:33:38.774Z</time></trkpt><trkpt lat="39.3129278" lon="16.4369091"><ele>1641.0</ele><time>2026-05-03T10:33:39.778Z</time></trkpt><trkpt lat="39.3129391" lon="16.4368169"><ele>1641.0</ele><time>2026-05-03T10:33:40.768Z</time></trkpt><trkpt lat="39.3129676" lon="16.4367301"><ele>1641.0</ele><time>2026-05-03T10:33:41.767Z</time></trkpt><trkpt lat="39.3129927" lon="16.436634"><ele>1641.3333333333333</ele><time>2026-05-03T10:33:42.772Z</time></trkpt><trkpt lat="39.3130273" lon="16.4365377"><ele>1641.6666666666665</ele><time>2026-05-03T10:33:43.768Z</time></trkpt><trkpt lat="39.3130547" lon="16.4364388"><ele>1642.0</ele><time>2026-05-03T10:33:44.777Z</time></trkpt><trkpt lat="39.3130817" lon="16.4363445"><ele>1642.3333333333333</ele><time>2026-05-03T10:33:45.766Z</time></trkpt><trkpt lat="39.3131063" lon="16.4362451"><ele>1642.6666666666665</ele><time>2026-05-03T10:33:46.772Z</time></trkpt><trkpt lat="39.3131206" lon="16.4361557"><ele>1643.0</ele><time>2026-05-03T10:33:47.767Z</time></trkpt><trkpt lat="39.3131315" lon="16.4360699"><ele>1643.6000000000001</ele><time>2026-05-03T10:33:48.764Z</time></trkpt><trkpt lat="39.3131206" lon="16.435907"><ele>1644.2</ele><time>2026-05-03T10:33:50.771Z</time></trkpt><trkpt lat="39.3131151" lon="16.4357422"><ele>1644.8</ele><time>2026-05-03T10:33:52.768Z</time></trkpt><trkpt lat="39.3131064" lon="16.4356546"><ele>1645.4</ele><time>2026-05-03T10:33:53.766Z</time></trkpt><trkpt lat="39.3131113" lon="16.435552"><ele>1646.0</ele><time>2026-05-03T10:33:54.775Z</time></trkpt><trkpt lat="39.3130992" lon="16.435452"><ele>1645.8</ele><time>2026-05-03T10:33:55.773Z</time></trkpt><trkpt lat="39.3130829" lon="16.4353478"><ele>1645.6</ele><time>2026-05-03T10:33:56.769Z</time></trkpt><trkpt lat="39.3130527" lon="16.4352049"><ele>1645.4</ele><time>2026-05-03T10:33:57.769Z</time></trkpt><trkpt lat="39.3130453" lon="16.4351133"><ele>1645.2</ele><time>2026-05-03T10:33:58.766Z</time></trkpt><trkpt lat="39.3130421" lon="16.4349484"><ele>1645.0</ele><time>2026-05-03T10:33:59.77Z</time></trkpt><trkpt lat="39.3130173" lon="16.4348066"><ele>1645.0</ele><time>2026-05-03T10:34:01.777Z</time></trkpt><trkpt lat="39.3130002" lon="16.4347226"><ele>1645.0</ele><time>2026-05-03T10:34:02.774Z</time></trkpt><trkpt lat="39.3129784" lon="16.4346356"><ele>1645.0</ele><time>2026-05-03T10:34:03.792Z</time></trkpt><trkpt lat="39.3129531" lon="16.434511"><ele>1645.0</ele><time>2026-05-03T10:34:04.774Z</time></trkpt><trkpt lat="39.3129284" lon="16.4343701"><ele>1645.0</ele><time>2026-05-03T10:34:06.775Z</time></trkpt><trkpt lat="39.3129262" lon="16.4342361"><ele>1645.6</ele><time>2026-05-03T10:34:08.768Z</time></trkpt><trkpt lat="39.312928" lon="16.4341497"><ele>1646.2</ele><time>2026-05-03T10:34:09.772Z</time></trkpt><trkpt lat="39.3129184" lon="16.4339915"><ele>1646.8000000000002</ele><time>2026-05-03T10:34:11.772Z</time></trkpt><trkpt lat="39.3128894" lon="16.4338696"><ele>1647.4</ele><time>2026-05-03T10:34:12.769Z</time></trkpt><trkpt lat="39.312824" lon="16.4337325"><ele>1648.0</ele><time>2026-05-03T10:34:14.766Z</time></trkpt><trkpt lat="39.3127943" lon="16.4336465"><ele>1649.1666666666667</ele><time>2026-05-03T10:34:15.772Z</time></trkpt><trkpt lat="39.3127668" lon="16.4335579"><ele>1650.3333333333335</ele><time>2026-05-03T10:34:16.766Z</time></trkpt><trkpt lat="39.3127399" lon="16.4334748"><ele>1651.5</ele><time>2026-05-03T10:34:17.773Z</time></trkpt><trkpt lat="39.3127072" lon="16.4333886"><ele>1652.6666666666665</ele><time>2026-05-03T10:34:18.769Z</time></trkpt><trkpt lat="39.3126682" lon="16.4333067"><ele>1653.8333333333333</ele><time>2026-05-03T10:34:19.763Z</time></trkpt><trkpt lat="39.3126296" lon="16.4332319"><ele>1655.0</ele><time>2026-05-03T10:34:20.776Z</time></trkpt><trkpt lat="39.3125799" lon="16.4331175"><ele>1654.9999999999998</ele><time>2026-05-03T10:34:21.771Z</time></trkpt><trkpt lat="39.3125278" lon="16.4330321"><ele>1655.0</ele><time>2026-05-03T10:34:22.788Z</time></trkpt><trkpt lat="39.3124861" lon="16.432967"><ele>1655.0</ele><time>2026-05-03T10:34:23.767Z</time></trkpt><trkpt lat="39.3124299" lon="16.4328896"><ele>1655.0</ele><time>2026-05-03T10:34:24.772Z</time></trkpt><trkpt lat="39.3123735" lon="16.4328107"><ele>1654.9999999999998</ele><time>2026-05-03T10:34:25.761Z</time></trkpt><trkpt lat="39.3123166" lon="16.4327403"><ele>1655.0</ele><time>2026-05-03T10:34:26.766Z</time></trkpt><trkpt lat="39.312261" lon="16.4326637"><ele>1657.2</ele><time>2026-05-03T10:34:27.774Z</time></trkpt><trkpt lat="39.312207" lon="16.4325863"><ele>1659.4</ele><time>2026-05-03T10:34:28.767Z</time></trkpt><trkpt lat="39.3121326" lon="16.432453"><ele>1661.6</ele><time>2026-05-03T10:34:30.766Z</time></trkpt><trkpt lat="39.312092" lon="16.4323829"><ele>1663.8</ele><time>2026-05-03T10:34:31.764Z</time></trkpt><trkpt lat="39.3120065" lon="16.4322752"><ele>1666.0</ele><time>2026-05-03T10:34:33.771Z</time></trkpt><trkpt lat="39.3119494" lon="16.43221"><ele>1667.8333333333335</ele><time>2026-05-03T10:34:34.767Z</time></trkpt><trkpt lat="39.3119081" lon="16.4321343"><ele>1669.6666666666667</ele><time>2026-05-03T10:34:36.775Z</time></trkpt><trkpt lat="39.3118749" lon="16.4320525"><ele>1671.5</ele><time>2026-05-03T10:34:38.777Z</time></trkpt><trkpt lat="39.3118322" lon="16.4319696"><ele>1673.3333333333335</ele><time>2026-05-03T10:34:40.778Z</time></trkpt><trkpt lat="39.311778" lon="16.4318932"><ele>1675.1666666666667</ele><time>2026-05-03T10:34:42.777Z</time></trkpt><trkpt lat="39.3117151" lon="16.4318118"><ele>1677.0</ele><time>2026-05-03T10:34:50.778Z</time></trkpt><trkpt lat="39.311647" lon="16.431755"><ele>1677.0</ele><time>2026-05-03T10:34:54.77Z</time></trkpt><trkpt lat="39.3115784" lon="16.4316674"><ele>1677.0</ele><time>2026-05-03T10:34:56.771Z</time></trkpt><trkpt lat="39.3115316" lon="16.4315813"><ele>1677.0</ele><time>2026-05-03T10:34:58.773Z</time></trkpt><trkpt lat="39.3114751" lon="16.4314583"><ele>1677.0</ele><time>2026-05-03T10:35:00.774Z</time></trkpt><trkpt lat="39.3114468" lon="16.4313781"><ele>1677.0</ele><time>2026-05-03T10:35:01.779Z</time></trkpt><trkpt lat="39.3113999" lon="16.4312366"><ele>1680.3999999999999</ele><time>2026-05-03T10:35:03.771Z</time></trkpt><trkpt lat="39.3113902" lon="16.43115"><ele>1683.8</ele><time>2026-05-03T10:35:04.768Z</time></trkpt><trkpt lat="39.3113874" lon="16.431066"><ele>1687.2</ele><time>2026-05-03T10:35:05.779Z</time></trkpt><trkpt lat="39.3113946" lon="16.4309428"><ele>1690.6</ele><time>2026-05-03T10:35:07.773Z</time></trkpt><trkpt lat="39.3113938" lon="16.4307868"><ele>1694.0</ele><time>2026-05-03T10:35:09.77Z</time></trkpt><trkpt lat="39.3113961" lon="16.430632"><ele>1693.9999999999998</ele><time>2026-05-03T10:35:11.775Z</time></trkpt><trkpt lat="39.3113898" lon="16.4305083"><ele>1694.0</ele><time>2026-05-03T10:35:13.77Z</time></trkpt><trkpt lat="39.3113845" lon="16.4303766"><ele>1694.0</ele><time>2026-05-03T10:35:15.773Z</time></trkpt><trkpt lat="39.3113754" lon="16.4302484"><ele>1694.0</ele><time>2026-05-03T10:35:17.78Z</time></trkpt><trkpt lat="39.3113691" lon="16.4301441"><ele>1693.9999999999998</ele><time>2026-05-03T10:35:20.768Z</time></trkpt><trkpt lat="39.3113474" lon="16.4300607"><ele>1694.0</ele><time>2026-05-03T10:35:22.776Z</time></trkpt><trkpt lat="39.3113199" lon="16.4299026"><ele>1696.2</ele><time>2026-05-03T10:35:24.772Z</time></trkpt><trkpt lat="39.3112936" lon="16.4297477"><ele>1698.4</ele><time>2026-05-03T10:35:26.775Z</time></trkpt><trkpt lat="39.3112632" lon="16.4296219"><ele>1700.6</ele><time>2026-05-03T10:35:28.77Z</time></trkpt><trkpt lat="39.3112495" lon="16.4295223"><ele>1702.8</ele><time>2026-05-03T10:35:30.779Z</time></trkpt><trkpt lat="39.3112344" lon="16.429414"><ele>1705.0</ele><time>2026-05-03T10:35:32.768Z</time></trkpt><trkpt lat="39.3112003" lon="16.4293013"><ele>1705.1666666666667</ele><time>2026-05-03T10:35:34.772Z</time></trkpt><trkpt lat="39.3111557" lon="16.4292046"><ele>1705.3333333333335</ele><time>2026-05-03T10:35:36.77Z</time></trkpt><trkpt lat="39.3111059" lon="16.4291064"><ele>1705.5</ele><time>2026-05-03T10:35:38.773Z</time></trkpt><trkpt lat="39.3110426" lon="16.4290111"><ele>1705.6666666666665</ele><time>2026-05-03T10:35:40.772Z</time></trkpt><trkpt lat="39.3109926" lon="16.428949"><ele>1705.8333333333333</ele><time>2026-05-03T10:35:42.766Z</time></trkpt><trkpt lat="39.3109216" lon="16.4288813"><ele>1706.0</ele><time>2026-05-03T10:35:44.77Z</time></trkpt><trkpt lat="39.3108282" lon="16.4287869"><ele>1705.9999999999998</ele><time>2026-05-03T10:35:46.768Z</time></trkpt><trkpt lat="39.3107693" lon="16.4287023"><ele>1706.0</ele><time>2026-05-03T10:35:48.766Z</time></trkpt><trkpt lat="39.3106995" lon="16.428609"><ele>1706.0</ele><time>2026-05-03T10:35:50.768Z</time></trkpt><trkpt lat="39.3106204" lon="16.4285463"><ele>1706.0</ele><time>2026-05-03T10:35:52.773Z</time></trkpt><trkpt lat="39.3105535" lon="16.4284853"><ele>1705.9999999999998</ele><time>2026-05-03T10:35:55.828Z</time></trkpt><trkpt lat="39.3105273" lon="16.4284087"><ele>1706.0</ele><time>2026-05-03T10:35:57.79Z</time></trkpt><trkpt lat="39.3104936" lon="16.4283272"><ele>1706.1999999999998</ele><time>2026-05-03T10:36:00.77Z</time></trkpt><trkpt lat="39.3104479" lon="16.428245"><ele>1706.3999999999999</ele><time>2026-05-03T10:36:04.811Z</time></trkpt><trkpt lat="39.3103663" lon="16.4282127"><ele>1706.6</ele><time>2026-05-03T10:36:08.815Z</time></trkpt><trkpt lat="39.3102988" lon="16.428212"><ele>1706.8</ele><time>2026-05-03T10:36:11.835Z</time></trkpt><trkpt lat="39.3102361" lon="16.4281684"><ele>1707.0</ele><time>2026-05-03T10:36:14.839Z</time></trkpt><trkpt lat="39.3100312" lon="16.4279727"><ele>1707.0</ele><time>2026-05-03T10:36:17.772Z</time></trkpt><trkpt lat="39.3101131" lon="16.4280324"><ele>1707.0</ele><time>2026-05-03T10:36:19.728Z</time></trkpt><trkpt lat="39.3099433" lon="16.427868"><ele>1707.0</ele><time>2026-05-03T10:36:20.778Z</time></trkpt><trkpt lat="39.3098753" lon="16.4278089"><ele>1707.0</ele><time>2026-05-03T10:36:22.785Z</time></trkpt><trkpt lat="39.3098062" lon="16.42772"><ele>1707.0</ele><time>2026-05-03T10:36:24.771Z</time></trkpt><trkpt lat="39.3097712" lon="16.4276309"><ele>1707.0</ele><time>2026-05-03T10:36:26.77Z</time></trkpt><trkpt lat="39.309781" lon="16.4275202"><ele>1707.0</ele><time>2026-05-03T10:36:29.769Z</time></trkpt><trkpt lat="39.3098417" lon="16.4275467"><ele>1707.0</ele><time>2026-05-03T10:36:49.768Z</time></trkpt><trkpt lat="39.3098742" lon="16.4276692"><ele>1707.0</ele><time>2026-05-03T10:36:51.766Z</time></trkpt><trkpt lat="39.309942" lon="16.4277834"><ele>1707.0</ele><time>2026-05-03T10:36:53.767Z</time></trkpt><trkpt lat="39.3099837" lon="16.4278458"><ele>1707.0</ele><time>2026-05-03T10:36:54.777Z</time></trkpt><trkpt lat="39.3100535" lon="16.4279409"><ele>1707.0</ele><time>2026-05-03T10:36:56.771Z</time></trkpt><trkpt lat="39.3101098" lon="16.4279912"><ele>1707.0</ele><time>2026-05-03T10:36:58.766Z</time></trkpt><trkpt lat="39.3101726" lon="16.4280409"><ele>1707.0</ele><time>2026-05-03T10:37:00.773Z</time></trkpt><trkpt lat="39.3102509" lon="16.4280804"><ele>1707.0</ele><time>2026-05-03T10:37:03.768Z</time></trkpt><trkpt lat="39.3103115" lon="16.4281094"><ele>1707.0</ele><time>2026-05-03T10:37:06.766Z</time></trkpt><trkpt lat="39.3103706" lon="16.4281392"><ele>1706.857142857143</ele><time>2026-05-03T10:37:10.78Z</time></trkpt><trkpt lat="39.3104388" lon="16.4281778"><ele>1706.7142857142858</ele><time>2026-05-03T10:37:14.77Z</time></trkpt><trkpt lat="39.3104959" lon="16.4282137"><ele>1706.5714285714284</ele><time>2026-05-03T10:37:17.77Z</time></trkpt><trkpt lat="39.3105627" lon="16.4282516"><ele>1706.4285714285716</ele><time>2026-05-03T10:37:22.776Z</time></trkpt><trkpt lat="39.3106225" lon="16.4283154"><ele>1706.2857142857144</ele><time>2026-05-03T10:37:26.785Z</time></trkpt><trkpt lat="39.3106813" lon="16.4283662"><ele>1706.142857142857</ele><time>2026-05-03T10:37:29.778Z</time></trkpt><trkpt lat="39.3107426" lon="16.4284406"><ele>1706.0</ele><time>2026-05-03T10:37:33.781Z</time></trkpt><trkpt lat="39.3107939" lon="16.4285074"><ele>1706.0</ele><time>2026-05-03T10:37:36.773Z</time></trkpt><trkpt lat="39.3108533" lon="16.4285732"><ele>1706.0</ele><time>2026-05-03T10:37:39.77Z</time></trkpt><trkpt lat="39.3109465" lon="16.4286421"><ele>1706.0</ele><time>2026-05-03T10:38:13.772Z</time></trkpt><trkpt lat="39.3108259" lon="16.4286254"><ele>1706.0</ele><time>2026-05-03T10:38:50.762Z</time></trkpt><trkpt lat="39.3107136" lon="16.4285949"><ele>1706.0</ele><time>2026-05-03T10:38:52.774Z</time></trkpt><trkpt lat="39.3106223" lon="16.4286367"><ele>1706.0</ele><time>2026-05-03T10:38:59.771Z</time></trkpt><trkpt lat="39.3107512" lon="16.4285906"><ele>1706.0</ele><time>2026-05-03T10:39:30.773Z</time></trkpt><trkpt lat="39.3108322" lon="16.428577"><ele>1706.0</ele><time>2026-05-03T10:39:33.777Z</time></trkpt><trkpt lat="39.3109964" lon="16.4286188"><ele>1706.0</ele><time>2026-05-03T10:40:04.775Z</time></trkpt><trkpt lat="39.311044" lon="16.4285357"><ele>1705.9999999999998</ele><time>2026-05-03T10:41:38.768Z</time></trkpt><trkpt lat="39.3111273" lon="16.428473"><ele>1706.0</ele><time>2026-05-03T10:41:40.768Z</time></trkpt><trkpt lat="39.3111852" lon="16.4284268"><ele>1706.0</ele><time>2026-05-03T10:41:42.772Z</time></trkpt><trkpt lat="39.3112323" lon="16.4283416"><ele>1706.0</ele><time>2026-05-03T10:41:45.766Z</time></trkpt><trkpt lat="39.3112447" lon="16.4282279"><ele>1705.9999999999998</ele><time>2026-05-03T10:41:48.769Z</time></trkpt><trkpt lat="39.3112424" lon="16.4281112"><ele>1706.0</ele><time>2026-05-03T10:41:50.768Z</time></trkpt><trkpt lat="39.3112567" lon="16.4279774"><ele>1705.6</ele><time>2026-05-03T10:41:52.768Z</time></trkpt><trkpt lat="39.3112639" lon="16.4278647"><ele>1705.1999999999998</ele><time>2026-05-03T10:41:53.77Z</time></trkpt><trkpt lat="39.3112571" lon="16.4277569"><ele>1704.8000000000002</ele><time>2026-05-03T10:41:54.766Z</time></trkpt><trkpt lat="39.3112586" lon="16.4275737"><ele>1704.4</ele><time>2026-05-03T10:41:56.762Z</time></trkpt><trkpt lat="39.3112591" lon="16.4274911"><ele>1704.0</ele><time>2026-05-03T10:41:57.771Z</time></trkpt><trkpt lat="39.3112538" lon="16.4273821"><ele>1704.0</ele><time>2026-05-03T10:41:58.77Z</time></trkpt><trkpt lat="39.31124" lon="16.4272516"><ele>1704.0</ele><time>2026-05-03T10:42:00.783Z</time></trkpt><trkpt lat="39.31122" lon="16.4270491"><ele>1704.0</ele><time>2026-05-03T10:42:07.767Z</time></trkpt><trkpt lat="39.3112064" lon="16.4269475"><ele>1704.0</ele><time>2026-05-03T10:42:08.761Z</time></trkpt><trkpt lat="39.3111905" lon="16.4268493"><ele>1704.0</ele><time>2026-05-03T10:42:09.768Z</time></trkpt><trkpt lat="39.3111737" lon="16.4267559"><ele>1702.8000000000002</ele><time>2026-05-03T10:42:10.764Z</time></trkpt><trkpt lat="39.3111506" lon="16.4265912"><ele>1701.6000000000001</ele><time>2026-05-03T10:42:12.769Z</time></trkpt><trkpt lat="39.311146" lon="16.4264541"><ele>1700.4</ele><time>2026-05-03T10:42:14.765Z</time></trkpt><trkpt lat="39.311123" lon="16.4263621"><ele>1699.2</ele><time>2026-05-03T10:42:16.775Z</time></trkpt><trkpt lat="39.3110849" lon="16.4262528"><ele>1698.0</ele><time>2026-05-03T10:42:18.776Z</time></trkpt><trkpt lat="39.3110493" lon="16.4261343"><ele>1697.3333333333333</ele><time>2026-05-03T10:42:20.768Z</time></trkpt><trkpt lat="39.3110116" lon="16.4260367"><ele>1696.6666666666665</ele><time>2026-05-03T10:42:22.769Z</time></trkpt><trkpt lat="39.3109761" lon="16.4259495"><ele>1696.0</ele><time>2026-05-03T10:42:24.763Z</time></trkpt><trkpt lat="39.3109577" lon="16.425864"><ele>1695.3333333333333</ele><time>2026-05-03T10:42:31.766Z</time></trkpt><trkpt lat="39.310928" lon="16.4257617"><ele>1694.6666666666665</ele><time>2026-05-03T10:42:36.777Z</time></trkpt><trkpt lat="39.3108952" lon="16.4256832"><ele>1694.0</ele><time>2026-05-03T10:42:38.766Z</time></trkpt><trkpt lat="39.3108346" lon="16.4255921"><ele>1694.0</ele><time>2026-05-03T10:42:40.766Z</time></trkpt><trkpt lat="39.3107462" lon="16.4254884"><ele>1694.0</ele><time>2026-05-03T10:42:42.775Z</time></trkpt><trkpt lat="39.3106612" lon="16.4254135"><ele>1694.0</ele><time>2026-05-03T10:42:44.758Z</time></trkpt><trkpt lat="39.3105877" lon="16.4253626"><ele>1694.0</ele><time>2026-05-03T10:42:46.765Z</time></trkpt><trkpt lat="39.3104892" lon="16.4253159"><ele>1694.0</ele><time>2026-05-03T10:42:48.776Z</time></trkpt><trkpt lat="39.3104285" lon="16.4252901"><ele>1694.8333333333333</ele><time>2026-05-03T10:42:49.767Z</time></trkpt><trkpt lat="39.3103322" lon="16.4252624"><ele>1695.6666666666665</ele><time>2026-05-03T10:42:51.769Z</time></trkpt><trkpt lat="39.3103358" lon="16.4253618"><ele>1696.5</ele><time>2026-05-03T10:42:53.776Z</time></trkpt><trkpt lat="39.31037" lon="16.4254506"><ele>1697.3333333333335</ele><time>2026-05-03T10:42:55.772Z</time></trkpt><trkpt lat="39.310395" lon="16.4255444"><ele>1698.1666666666667</ele><time>2026-05-03T10:42:57.766Z</time></trkpt><trkpt lat="39.3103306" lon="16.4255928"><ele>1699.0</ele><time>2026-05-03T10:43:00.768Z</time></trkpt><trkpt lat="39.3102967" lon="16.4255238"><ele>1699.0</ele><time>2026-05-03T10:43:01.774Z</time></trkpt><trkpt lat="39.3101944" lon="16.425424"><ele>1699.0</ele><time>2026-05-03T10:43:03.763Z</time></trkpt><trkpt lat="39.3101199" lon="16.4254007"><ele>1699.0</ele><time>2026-05-03T10:43:05.769Z</time></trkpt><trkpt lat="39.3100738" lon="16.4254764"><ele>1699.0</ele><time>2026-05-03T10:43:07.786Z</time></trkpt><trkpt lat="39.3100424" lon="16.4256153"><ele>1699.0</ele><time>2026-05-03T10:43:09.764Z</time></trkpt><trkpt lat="39.3100549" lon="16.425759"><ele>1699.0000000000002</ele><time>2026-05-03T10:43:11.763Z</time></trkpt><trkpt lat="39.310063" lon="16.4258444"><ele>1699.0</ele><time>2026-05-03T10:43:14.768Z</time></trkpt><trkpt lat="39.3099693" lon="16.4259089"><ele>1699.0</ele><time>2026-05-03T10:43:17.773Z</time></trkpt><trkpt lat="39.3098977" lon="16.4258865"><ele>1699.0</ele><time>2026-05-03T10:43:25.786Z</time></trkpt><trkpt lat="39.3098435" lon="16.4258449"><ele>1699.0000000000002</ele><time>2026-05-03T10:43:30.854Z</time></trkpt><trkpt lat="39.3099045" lon="16.4258783"><ele>1699.0</ele><time>2026-05-03T10:43:40.825Z</time></trkpt><trkpt lat="39.3099895" lon="16.4258741"><ele>1699.0000000000002</ele><time>2026-05-03T10:43:51.774Z</time></trkpt><trkpt lat="39.3100295" lon="16.4257847"><ele>1699.0</ele><time>2026-05-03T10:44:01.765Z</time></trkpt><trkpt lat="39.3100782" lon="16.4257268"><ele>1699.0</ele><time>2026-05-03T10:44:06.778Z</time></trkpt><trkpt lat="39.3101038" lon="16.4258054"><ele>1699.0</ele><time>2026-05-03T10:44:11.769Z</time></trkpt><trkpt lat="39.3100545" lon="16.4258854"><ele>1699.0000000000002</ele><time>2026-05-03T10:44:32.768Z</time></trkpt><trkpt lat="39.3099736" lon="16.4259145"><ele>1699.0</ele><time>2026-05-03T10:44:34.779Z</time></trkpt><trkpt lat="39.3099233" lon="16.426015"><ele>1699.0</ele><time>2026-05-03T10:45:45.771Z</time></trkpt><trkpt lat="39.3098436" lon="16.4261417"><ele>1699.0</ele><time>2026-05-03T10:45:47.774Z</time></trkpt><trkpt lat="39.3097375" lon="16.4262051"><ele>1699.0</ele><time>2026-05-03T10:45:49.776Z</time></trkpt><trkpt lat="39.3096672" lon="16.4262366"><ele>1699.0</ele><time>2026-05-03T10:45:50.765Z</time></trkpt><trkpt lat="39.3095799" lon="16.4262606"><ele>1699.0</ele><time>2026-05-03T10:45:51.764Z</time></trkpt><trkpt lat="39.3094838" lon="16.4262875"><ele>1698.3333333333335</ele><time>2026-05-03T10:45:52.762Z</time></trkpt><trkpt lat="39.3093875" lon="16.426308"><ele>1697.6666666666667</ele><time>2026-05-03T10:45:53.774Z</time></trkpt><trkpt lat="39.3093075" lon="16.4263312"><ele>1697.0</ele><time>2026-05-03T10:45:54.771Z</time></trkpt><trkpt lat="39.3092279" lon="16.4263545"><ele>1696.3333333333335</ele><time>2026-05-03T10:45:55.776Z</time></trkpt><trkpt lat="39.309145" lon="16.4263869"><ele>1695.6666666666667</ele><time>2026-05-03T10:45:56.779Z</time></trkpt><trkpt lat="39.3090595" lon="16.4264202"><ele>1695.0</ele><time>2026-05-03T10:45:57.771Z</time></trkpt><trkpt lat="39.3089831" lon="16.4264593"><ele>1695.0</ele><time>2026-05-03T10:45:58.771Z</time></trkpt><trkpt lat="39.3089112" lon="16.4265123"><ele>1695.0</ele><time>2026-05-03T10:45:59.766Z</time></trkpt><trkpt lat="39.3088382" lon="16.4265883"><ele>1695.0</ele><time>2026-05-03T10:46:00.763Z</time></trkpt><trkpt lat="39.3087533" lon="16.4266681"><ele>1695.0</ele><time>2026-05-03T10:46:01.771Z</time></trkpt><trkpt lat="39.3086627" lon="16.4267521"><ele>1695.0</ele><time>2026-05-03T10:46:02.763Z</time></trkpt><trkpt lat="39.3085673" lon="16.4268413"><ele>1696.25</ele><time>2026-05-03T10:46:03.765Z</time></trkpt><trkpt lat="39.3084595" lon="16.4269398"><ele>1697.5</ele><time>2026-05-03T10:46:04.764Z</time></trkpt><trkpt lat="39.3083507" lon="16.4270517"><ele>1698.75</ele><time>2026-05-03T10:46:05.763Z</time></trkpt><trkpt lat="39.3082568" lon="16.427144"><ele>1700.0</ele><time>2026-05-03T10:46:06.762Z</time></trkpt><trkpt lat="39.308165" lon="16.4272298"><ele>1698.5</ele><time>2026-05-03T10:46:07.777Z</time></trkpt><trkpt lat="39.3080655" lon="16.4273209"><ele>1697.0</ele><time>2026-05-03T10:46:08.769Z</time></trkpt><trkpt lat="39.3079521" lon="16.4274227"><ele>1695.5</ele><time>2026-05-03T10:46:09.765Z</time></trkpt><trkpt lat="39.3078303" lon="16.4275265"><ele>1694.0</ele><time>2026-05-03T10:46:10.761Z</time></trkpt><trkpt lat="39.3077065" lon="16.4276325"><ele>1694.0</ele><time>2026-05-03T10:46:11.766Z</time></trkpt><trkpt lat="39.30759" lon="16.4277323"><ele>1694.0</ele><time>2026-05-03T10:46:12.768Z</time></trkpt><trkpt lat="39.3074731" lon="16.4278298"><ele>1694.0</ele><time>2026-05-03T10:46:13.767Z</time></trkpt><trkpt lat="39.3073661" lon="16.427924"><ele>1694.0</ele><time>2026-05-03T10:46:14.771Z</time></trkpt><trkpt lat="39.3072631" lon="16.4280143"><ele>1691.75</ele><time>2026-05-03T10:46:15.769Z</time></trkpt><trkpt lat="39.3071667" lon="16.4281005"><ele>1689.5</ele><time>2026-05-03T10:46:16.78Z</time></trkpt><trkpt lat="39.3070694" lon="16.4281871"><ele>1687.25</ele><time>2026-05-03T10:46:17.77Z</time></trkpt><trkpt lat="39.3069733" lon="16.4282763"><ele>1685.0</ele><time>2026-05-03T10:46:18.774Z</time></trkpt><trkpt lat="39.3068781" lon="16.4283648"><ele>1685.0</ele><time>2026-05-03T10:46:19.766Z</time></trkpt><trkpt lat="39.3067818" lon="16.4284515"><ele>1685.0</ele><time>2026-05-03T10:46:20.765Z</time></trkpt><trkpt lat="39.306685" lon="16.4285337"><ele>1685.0</ele><time>2026-05-03T10:46:21.765Z</time></trkpt><trkpt lat="39.3065939" lon="16.4286103"><ele>1685.0</ele><time>2026-05-03T10:46:22.771Z</time></trkpt><trkpt lat="39.3065087" lon="16.4286827"><ele>1685.0</ele><time>2026-05-03T10:46:23.773Z</time></trkpt><trkpt lat="39.3064119" lon="16.4287511"><ele>1684.6</ele><time>2026-05-03T10:46:24.765Z</time></trkpt><trkpt lat="39.3063097" lon="16.4288025"><ele>1684.2</ele><time>2026-05-03T10:46:25.775Z</time></trkpt><trkpt lat="39.3062136" lon="16.4288476"><ele>1683.8000000000002</ele><time>2026-05-03T10:46:26.763Z</time></trkpt><trkpt lat="39.3061107" lon="16.4288625"><ele>1683.4</ele><time>2026-05-03T10:46:27.763Z</time></trkpt><trkpt lat="39.3060004" lon="16.428861"><ele>1683.0</ele><time>2026-05-03T10:46:28.768Z</time></trkpt><trkpt lat="39.3058859" lon="16.428843"><ele>1683.0</ele><time>2026-05-03T10:46:29.768Z</time></trkpt><trkpt lat="39.3057746" lon="16.4288213"><ele>1683.0</ele><time>2026-05-03T10:46:30.771Z</time></trkpt><trkpt lat="39.3056699" lon="16.4287964"><ele>1683.0</ele><time>2026-05-03T10:46:31.765Z</time></trkpt><trkpt lat="39.305566" lon="16.4287699"><ele>1683.0</ele><time>2026-05-03T10:46:32.763Z</time></trkpt><trkpt lat="39.305465" lon="16.4287349"><ele>1683.0</ele><time>2026-05-03T10:46:33.765Z</time></trkpt><trkpt lat="39.3053697" lon="16.4286805"><ele>1679.2</ele><time>2026-05-03T10:46:34.764Z</time></trkpt><trkpt lat="39.3052887" lon="16.4286101"><ele>1675.4</ele><time>2026-05-03T10:46:35.764Z</time></trkpt><trkpt lat="39.3052142" lon="16.4285192"><ele>1671.6000000000001</ele><time>2026-05-03T10:46:36.771Z</time></trkpt><trkpt lat="39.3051509" lon="16.4284149"><ele>1667.8000000000002</ele><time>2026-05-03T10:46:37.764Z</time></trkpt><trkpt lat="39.3050886" lon="16.4283104"><ele>1664.0</ele><time>2026-05-03T10:46:38.771Z</time></trkpt><trkpt lat="39.3050238" lon="16.428205"><ele>1664.0</ele><time>2026-05-03T10:46:39.763Z</time></trkpt><trkpt lat="39.3049565" lon="16.4280967"><ele>1664.0</ele><time>2026-05-03T10:46:40.784Z</time></trkpt><trkpt lat="39.3048867" lon="16.4279797"><ele>1664.0</ele><time>2026-05-03T10:46:41.773Z</time></trkpt><trkpt lat="39.3048145" lon="16.4278575"><ele>1664.0</ele><time>2026-05-03T10:46:42.769Z</time></trkpt><trkpt lat="39.3047416" lon="16.4277287"><ele>1664.75</ele><time>2026-05-03T10:46:43.765Z</time></trkpt><trkpt lat="39.3046739" lon="16.4275981"><ele>1665.5</ele><time>2026-05-03T10:46:44.771Z</time></trkpt><trkpt lat="39.3046131" lon="16.4274634"><ele>1666.25</ele><time>2026-05-03T10:46:45.759Z</time></trkpt><trkpt lat="39.3045513" lon="16.4273252"><ele>1667.0</ele><time>2026-05-03T10:46:46.769Z</time></trkpt><trkpt lat="39.3044891" lon="16.4271817"><ele>1666.6</ele><time>2026-05-03T10:46:47.767Z</time></trkpt><trkpt lat="39.3044261" lon="16.4270372"><ele>1666.1999999999998</ele><time>2026-05-03T10:46:48.763Z</time></trkpt><trkpt lat="39.3043678" lon="16.4269031"><ele>1665.8</ele><time>2026-05-03T10:46:49.759Z</time></trkpt><trkpt lat="39.3043081" lon="16.4267955"><ele>1665.4</ele><time>2026-05-03T10:46:50.773Z</time></trkpt><trkpt lat="39.3042291" lon="16.4267181"><ele>1665.0</ele><time>2026-05-03T10:46:51.767Z</time></trkpt><trkpt lat="39.3041327" lon="16.426678"><ele>1665.0</ele><time>2026-05-03T10:46:52.776Z</time></trkpt><trkpt lat="39.3040352" lon="16.4266382"><ele>1665.0</ele><time>2026-05-03T10:46:53.766Z</time></trkpt><trkpt lat="39.3039409" lon="16.4266584"><ele>1665.0</ele><time>2026-05-03T10:46:54.761Z</time></trkpt><trkpt lat="39.3038428" lon="16.4267113"><ele>1665.0</ele><time>2026-05-03T10:46:55.764Z</time></trkpt><trkpt lat="39.3037467" lon="16.4267944"><ele>1665.0</ele><time>2026-05-03T10:46:56.763Z</time></trkpt><trkpt lat="39.3036524" lon="16.4268841"><ele>1667.5</ele><time>2026-05-03T10:46:57.765Z</time></trkpt><trkpt lat="39.3035688" lon="16.4269718"><ele>1670.0</ele><time>2026-05-03T10:46:58.774Z</time></trkpt><trkpt lat="39.3034815" lon="16.4270577"><ele>1672.5</ele><time>2026-05-03T10:46:59.769Z</time></trkpt><trkpt lat="39.3033878" lon="16.4271535"><ele>1675.0</ele><time>2026-05-03T10:47:00.768Z</time></trkpt><trkpt lat="39.3032909" lon="16.4272525"><ele>1675.25</ele><time>2026-05-03T10:47:01.768Z</time></trkpt><trkpt lat="39.3032019" lon="16.4273498"><ele>1675.5</ele><time>2026-05-03T10:47:02.765Z</time></trkpt><trkpt lat="39.303113" lon="16.4274505"><ele>1675.75</ele><time>2026-05-03T10:47:03.781Z</time></trkpt><trkpt lat="39.3030227" lon="16.4275499"><ele>1676.0</ele><time>2026-05-03T10:47:04.77Z</time></trkpt><trkpt lat="39.3029316" lon="16.4276472"><ele>1675.1999999999998</ele><time>2026-05-03T10:47:05.768Z</time></trkpt><trkpt lat="39.3028427" lon="16.4277454"><ele>1674.3999999999999</ele><time>2026-05-03T10:47:06.765Z</time></trkpt><trkpt lat="39.302754" lon="16.4278392"><ele>1673.6</ele><time>2026-05-03T10:47:07.765Z</time></trkpt><trkpt lat="39.3026734" lon="16.4279242"><ele>1672.8</ele><time>2026-05-03T10:47:08.772Z</time></trkpt><trkpt lat="39.3026067" lon="16.4279982"><ele>1672.0</ele><time>2026-05-03T10:47:09.767Z</time></trkpt><trkpt lat="39.3025532" lon="16.4280598"><ele>1672.0000000000002</ele><time>2026-05-03T10:47:10.763Z</time></trkpt><trkpt lat="39.3025006" lon="16.4281278"><ele>1672.0</ele><time>2026-05-03T10:47:11.764Z</time></trkpt><trkpt lat="39.3024482" lon="16.4282053"><ele>1672.0</ele><time>2026-05-03T10:47:12.766Z</time></trkpt><trkpt lat="39.3023974" lon="16.4282896"><ele>1672.0</ele><time>2026-05-03T10:47:13.764Z</time></trkpt><trkpt lat="39.3023564" lon="16.4283875"><ele>1672.0000000000002</ele><time>2026-05-03T10:47:14.769Z</time></trkpt><trkpt lat="39.3023277" lon="16.4284987"><ele>1672.0</ele><time>2026-05-03T10:47:15.763Z</time></trkpt><trkpt lat="39.3023179" lon="16.4286243"><ele>1672.0</ele><time>2026-05-03T10:47:16.778Z</time></trkpt><trkpt lat="39.3023316" lon="16.4287508"><ele>1672.0</ele><time>2026-05-03T10:47:17.761Z</time></trkpt><trkpt lat="39.3023581" lon="16.4288748"><ele>1672.0</ele><time>2026-05-03T10:47:18.766Z</time></trkpt><trkpt lat="39.3024047" lon="16.4290085"><ele>1672.0</ele><time>2026-05-03T10:47:19.768Z</time></trkpt><trkpt lat="39.3024602" lon="16.4291583"><ele>1672.0</ele><time>2026-05-03T10:47:20.765Z</time></trkpt><trkpt lat="39.3025173" lon="16.4293017"><ele>1673.6</ele><time>2026-05-03T10:47:21.761Z</time></trkpt><trkpt lat="39.3025743" lon="16.4294327"><ele>1675.1999999999998</ele><time>2026-05-03T10:47:22.764Z</time></trkpt><trkpt lat="39.3026249" lon="16.4295616"><ele>1676.8</ele><time>2026-05-03T10:47:23.765Z</time></trkpt><trkpt lat="39.3026725" lon="16.4296904"><ele>1678.4</ele><time>2026-05-03T10:47:24.764Z</time></trkpt><trkpt lat="39.3027118" lon="16.429818"><ele>1680.0</ele><time>2026-05-03T10:47:25.763Z</time></trkpt><trkpt lat="39.3027502" lon="16.4299356"><ele>1682.1666666666667</ele><time>2026-05-03T10:47:26.77Z</time></trkpt><trkpt lat="39.3027664" lon="16.4300571"><ele>1684.3333333333335</ele><time>2026-05-03T10:47:27.769Z</time></trkpt><trkpt lat="39.3027852" lon="16.4301714"><ele>1686.5</ele><time>2026-05-03T10:47:28.766Z</time></trkpt><trkpt lat="39.3027812" lon="16.4302717"><ele>1688.6666666666667</ele><time>2026-05-03T10:47:29.76Z</time></trkpt><trkpt lat="39.3027641" lon="16.4303537"><ele>1690.8333333333335</ele><time>2026-05-03T10:47:30.761Z</time></trkpt><trkpt lat="39.3027399" lon="16.4304297"><ele>1693.0</ele><time>2026-05-03T10:47:31.759Z</time></trkpt><trkpt lat="39.3027003" lon="16.4304941"><ele>1694.1666666666667</ele><time>2026-05-03T10:47:32.777Z</time></trkpt><trkpt lat="39.3026613" lon="16.4305675"><ele>1695.3333333333335</ele><time>2026-05-03T10:47:33.762Z</time></trkpt><trkpt lat="39.3026226" lon="16.4306485"><ele>1696.5</ele><time>2026-05-03T10:47:34.76Z</time></trkpt><trkpt lat="39.3025864" lon="16.4307371"><ele>1697.6666666666665</ele><time>2026-05-03T10:47:35.762Z</time></trkpt><trkpt lat="39.302546" lon="16.4308381"><ele>1698.8333333333333</ele><time>2026-05-03T10:47:36.768Z</time></trkpt><trkpt lat="39.3025046" lon="16.4309441"><ele>1700.0</ele><time>2026-05-03T10:47:37.756Z</time></trkpt><trkpt lat="39.3024675" lon="16.431064"><ele>1700.0</ele><time>2026-05-03T10:47:38.767Z</time></trkpt><trkpt lat="39.3024349" lon="16.4312035"><ele>1700.0</ele><time>2026-05-03T10:47:39.759Z</time></trkpt><trkpt lat="39.3024062" lon="16.4313428"><ele>1700.0</ele><time>2026-05-03T10:47:40.768Z</time></trkpt><trkpt lat="39.3023822" lon="16.4314813"><ele>1700.0</ele><time>2026-05-03T10:47:41.764Z</time></trkpt><trkpt lat="39.3023742" lon="16.4316201"><ele>1700.0</ele><time>2026-05-03T10:47:42.768Z</time></trkpt><trkpt lat="39.3023934" lon="16.4317736"><ele>1699.5</ele><time>2026-05-03T10:47:43.779Z</time></trkpt><trkpt lat="39.3024298" lon="16.4319141"><ele>1699.0</ele><time>2026-05-03T10:47:44.765Z</time></trkpt><trkpt lat="39.3024636" lon="16.4320682"><ele>1698.5</ele><time>2026-05-03T10:47:45.767Z</time></trkpt><trkpt lat="39.3024843" lon="16.4322185"><ele>1698.0</ele><time>2026-05-03T10:47:46.759Z</time></trkpt><trkpt lat="39.3024879" lon="16.4323698"><ele>1697.2</ele><time>2026-05-03T10:47:47.768Z</time></trkpt><trkpt lat="39.3024832" lon="16.4325238"><ele>1696.4</ele><time>2026-05-03T10:47:48.759Z</time></trkpt><trkpt lat="39.3024727" lon="16.4326652"><ele>1695.6000000000001</ele><time>2026-05-03T10:47:49.78Z</time></trkpt><trkpt lat="39.3024591" lon="16.4327965"><ele>1694.8000000000002</ele><time>2026-05-03T10:47:50.765Z</time></trkpt><trkpt lat="39.3024464" lon="16.4329306"><ele>1694.0</ele><time>2026-05-03T10:47:51.763Z</time></trkpt><trkpt lat="39.302439" lon="16.4330697"><ele>1693.8000000000002</ele><time>2026-05-03T10:47:52.763Z</time></trkpt><trkpt lat="39.3024354" lon="16.4332108"><ele>1693.6000000000001</ele><time>2026-05-03T10:47:53.766Z</time></trkpt><trkpt lat="39.3024303" lon="16.4333512"><ele>1693.4</ele><time>2026-05-03T10:47:54.777Z</time></trkpt><trkpt lat="39.3024233" lon="16.4334843"><ele>1693.2</ele><time>2026-05-03T10:47:55.771Z</time></trkpt><trkpt lat="39.3023988" lon="16.4335933"><ele>1693.0</ele><time>2026-05-03T10:47:56.77Z</time></trkpt><trkpt lat="39.3023365" lon="16.4337273"><ele>1691.2</ele><time>2026-05-03T10:47:58.764Z</time></trkpt><trkpt lat="39.3022328" lon="16.4338196"><ele>1689.4</ele><time>2026-05-03T10:48:00.762Z</time></trkpt><trkpt lat="39.3021664" lon="16.4338738"><ele>1687.6000000000001</ele><time>2026-05-03T10:48:01.766Z</time></trkpt><trkpt lat="39.3021061" lon="16.4339296"><ele>1685.8000000000002</ele><time>2026-05-03T10:48:02.77Z</time></trkpt><trkpt lat="39.3020659" lon="16.4339959"><ele>1684.0</ele><time>2026-05-03T10:48:03.768Z</time></trkpt><trkpt lat="39.3020032" lon="16.4341134"><ele>1684.0</ele><time>2026-05-03T10:48:05.761Z</time></trkpt><trkpt lat="39.3019361" lon="16.4341686"><ele>1684.0</ele><time>2026-05-03T10:48:07.775Z</time></trkpt><trkpt lat="39.3018093" lon="16.4341946"><ele>1684.0</ele><time>2026-05-03T10:48:09.768Z</time></trkpt><trkpt lat="39.3017435" lon="16.4342396"><ele>1684.0</ele><time>2026-05-03T10:48:10.767Z</time></trkpt><trkpt lat="39.3016405" lon="16.434285"><ele>1684.0</ele><time>2026-05-03T10:48:12.774Z</time></trkpt><trkpt lat="39.3015639" lon="16.4343382"><ele>1684.0000000000002</ele><time>2026-05-03T10:48:14.793Z</time></trkpt><trkpt lat="39.3015005" lon="16.4344191"><ele>1684.0</ele><time>2026-05-03T10:48:17.771Z</time></trkpt><trkpt lat="39.3014051" lon="16.4345358"><ele>1684.0</ele><time>2026-05-03T10:48:19.772Z</time></trkpt><trkpt lat="39.3013518" lon="16.4346051"><ele>1684.0</ele><time>2026-05-03T10:48:20.767Z</time></trkpt><trkpt lat="39.3013061" lon="16.4346801"><ele>1684.0000000000002</ele><time>2026-05-03T10:48:21.773Z</time></trkpt><trkpt lat="39.3012647" lon="16.4347615"><ele>1684.0</ele><time>2026-05-03T10:48:22.765Z</time></trkpt><trkpt lat="39.3012289" lon="16.4348385"><ele>1681.0</ele><time>2026-05-03T10:48:23.766Z</time></trkpt><trkpt lat="39.3011856" lon="16.4349223"><ele>1678.0</ele><time>2026-05-03T10:48:24.762Z</time></trkpt><trkpt lat="39.3011381" lon="16.4350175"><ele>1675.0</ele><time>2026-05-03T10:48:25.77Z</time></trkpt><trkpt lat="39.3010818" lon="16.4351198"><ele>1672.0</ele><time>2026-05-03T10:48:26.766Z</time></trkpt><trkpt lat="39.3010201" lon="16.4352213"><ele>1669.0</ele><time>2026-05-03T10:48:27.766Z</time></trkpt><trkpt lat="39.3009294" lon="16.4353684"><ele>1669.25</ele><time>2026-05-03T10:48:28.765Z</time></trkpt><trkpt lat="39.3008424" lon="16.4354956"><ele>1669.5</ele><time>2026-05-03T10:48:29.762Z</time></trkpt><trkpt lat="39.3007528" lon="16.4356038"><ele>1669.75</ele><time>2026-05-03T10:48:30.765Z</time></trkpt><trkpt lat="39.3006714" lon="16.4356927"><ele>1670.0</ele><time>2026-05-03T10:48:31.766Z</time></trkpt><trkpt lat="39.3005884" lon="16.4357644"><ele>1669.5</ele><time>2026-05-03T10:48:32.764Z</time></trkpt><trkpt lat="39.3004886" lon="16.4358245"><ele>1669.0</ele><time>2026-05-03T10:48:33.768Z</time></trkpt><trkpt lat="39.3003816" lon="16.4358756"><ele>1668.5</ele><time>2026-05-03T10:48:34.763Z</time></trkpt><trkpt lat="39.3002691" lon="16.4359083"><ele>1668.0</ele><time>2026-05-03T10:48:35.767Z</time></trkpt><trkpt lat="39.3001576" lon="16.4359407"><ele>1668.0</ele><time>2026-05-03T10:48:36.78Z</time></trkpt><trkpt lat="39.3000491" lon="16.4359769"><ele>1668.0</ele><time>2026-05-03T10:48:37.764Z</time></trkpt><trkpt lat="39.2999406" lon="16.4360059"><ele>1668.0</ele><time>2026-05-03T10:48:38.768Z</time></trkpt><trkpt lat="39.2998372" lon="16.4360358"><ele>1668.0</ele><time>2026-05-03T10:48:39.77Z</time></trkpt><trkpt lat="39.2997353" lon="16.4360653"><ele>1668.0</ele><time>2026-05-03T10:48:40.763Z</time></trkpt><trkpt lat="39.2996372" lon="16.436095"><ele>1668.6000000000001</ele><time>2026-05-03T10:48:41.76Z</time></trkpt><trkpt lat="39.2995394" lon="16.4361099"><ele>1669.2</ele><time>2026-05-03T10:48:42.765Z</time></trkpt><trkpt lat="39.2994428" lon="16.4361115"><ele>1669.8</ele><time>2026-05-03T10:48:43.775Z</time></trkpt><trkpt lat="39.2993478" lon="16.4361042"><ele>1670.4</ele><time>2026-05-03T10:48:44.76Z</time></trkpt><trkpt lat="39.2992465" lon="16.436089"><ele>1671.0</ele><time>2026-05-03T10:48:45.759Z</time></trkpt><trkpt lat="39.2991221" lon="16.4360698"><ele>1671.0</ele><time>2026-05-03T10:48:46.767Z</time></trkpt><trkpt lat="39.2990003" lon="16.4360459"><ele>1671.0</ele><time>2026-05-03T10:48:47.766Z</time></trkpt><trkpt lat="39.2988816" lon="16.4360245"><ele>1671.0</ele><time>2026-05-03T10:48:48.781Z</time></trkpt><trkpt lat="39.2987793" lon="16.4360085"><ele>1671.0</ele><time>2026-05-03T10:48:49.761Z</time></trkpt><trkpt lat="39.298685" lon="16.4360098"><ele>1671.0</ele><time>2026-05-03T10:48:50.763Z</time></trkpt><trkpt lat="39.2986055" lon="16.4360475"><ele>1672.0</ele><time>2026-05-03T10:48:51.764Z</time></trkpt><trkpt lat="39.2985295" lon="16.4361103"><ele>1673.0</ele><time>2026-05-03T10:48:52.767Z</time></trkpt><trkpt lat="39.2984625" lon="16.4361888"><ele>1674.0</ele><time>2026-05-03T10:48:53.773Z</time></trkpt><trkpt lat="39.2983969" lon="16.4362769"><ele>1675.0</ele><time>2026-05-03T10:48:54.773Z</time></trkpt><trkpt lat="39.2983459" lon="16.4363881"><ele>1676.0</ele><time>2026-05-03T10:48:55.769Z</time></trkpt><trkpt lat="39.2982995" lon="16.4365197"><ele>1676.0</ele><time>2026-05-03T10:48:56.764Z</time></trkpt><trkpt lat="39.2982539" lon="16.4366611"><ele>1676.0</ele><time>2026-05-03T10:48:57.768Z</time></trkpt><trkpt lat="39.2982072" lon="16.4368079"><ele>1676.0</ele><time>2026-05-03T10:48:58.767Z</time></trkpt><trkpt lat="39.2981569" lon="16.4369594"><ele>1676.0</ele><time>2026-05-03T10:48:59.764Z</time></trkpt><trkpt lat="39.298108" lon="16.437127"><ele>1673.5</ele><time>2026-05-03T10:49:00.781Z</time></trkpt><trkpt lat="39.2980565" lon="16.437275"><ele>1671.0</ele><time>2026-05-03T10:49:01.77Z</time></trkpt><trkpt lat="39.2979993" lon="16.4374238"><ele>1668.5</ele><time>2026-05-03T10:49:02.772Z</time></trkpt><trkpt lat="39.2979377" lon="16.4375667"><ele>1666.0</ele><time>2026-05-03T10:49:03.77Z</time></trkpt><trkpt lat="39.2978758" lon="16.4377031"><ele>1666.0</ele><time>2026-05-03T10:49:04.765Z</time></trkpt><trkpt lat="39.2978195" lon="16.4378315"><ele>1666.0</ele><time>2026-05-03T10:49:05.78Z</time></trkpt><trkpt lat="39.2977674" lon="16.4379502"><ele>1666.0</ele><time>2026-05-03T10:49:06.766Z</time></trkpt><trkpt lat="39.2977199" lon="16.4380625"><ele>1666.0</ele><time>2026-05-03T10:49:07.761Z</time></trkpt><trkpt lat="39.2976754" lon="16.4381643"><ele>1666.0</ele><time>2026-05-03T10:49:08.77Z</time></trkpt><trkpt lat="39.2976355" lon="16.438247"><ele>1667.3333333333335</ele><time>2026-05-03T10:49:09.767Z</time></trkpt><trkpt lat="39.2975897" lon="16.4383247"><ele>1668.6666666666667</ele><time>2026-05-03T10:49:10.783Z</time></trkpt><trkpt lat="39.2975364" lon="16.4384185"><ele>1670.0</ele><time>2026-05-03T10:49:11.775Z</time></trkpt><trkpt lat="39.2974844" lon="16.4385124"><ele>1671.3333333333335</ele><time>2026-05-03T10:49:12.766Z</time></trkpt><trkpt lat="39.2974289" lon="16.4385943"><ele>1672.6666666666667</ele><time>2026-05-03T10:49:13.768Z</time></trkpt><trkpt lat="39.2973653" lon="16.4386622"><ele>1674.0</ele><time>2026-05-03T10:49:14.769Z</time></trkpt><trkpt lat="39.2973018" lon="16.4387058"><ele>1674.3333333333333</ele><time>2026-05-03T10:49:15.763Z</time></trkpt><trkpt lat="39.2972437" lon="16.4387413"><ele>1674.6666666666665</ele><time>2026-05-03T10:49:16.768Z</time></trkpt><trkpt lat="39.2971141" lon="16.4388125"><ele>1675.0</ele><time>2026-05-03T10:49:18.773Z</time></trkpt><trkpt lat="39.2970486" lon="16.4388503"><ele>1675.3333333333333</ele><time>2026-05-03T10:49:19.768Z</time></trkpt><trkpt lat="39.2969838" lon="16.4388859"><ele>1675.6666666666665</ele><time>2026-05-03T10:49:20.768Z</time></trkpt><trkpt lat="39.2969224" lon="16.4389294"><ele>1676.0</ele><time>2026-05-03T10:49:21.767Z</time></trkpt><trkpt lat="39.2968444" lon="16.4389816"><ele>1676.0</ele><time>2026-05-03T10:49:22.764Z</time></trkpt><trkpt lat="39.2967537" lon="16.4390527"><ele>1676.0</ele><time>2026-05-03T10:49:23.766Z</time></trkpt><trkpt lat="39.2966518" lon="16.4391379"><ele>1676.0</ele><time>2026-05-03T10:49:24.769Z</time></trkpt><trkpt lat="39.2965452" lon="16.4392222"><ele>1676.0</ele><time>2026-05-03T10:49:25.766Z</time></trkpt><trkpt lat="39.2964352" lon="16.4392907"><ele>1675.75</ele><time>2026-05-03T10:49:26.764Z</time></trkpt><trkpt lat="39.2963192" lon="16.4393305"><ele>1675.5</ele><time>2026-05-03T10:49:27.773Z</time></trkpt><trkpt lat="39.2962013" lon="16.4393597"><ele>1675.25</ele><time>2026-05-03T10:49:28.769Z</time></trkpt><trkpt lat="39.296078" lon="16.4393753"><ele>1675.0</ele><time>2026-05-03T10:49:29.766Z</time></trkpt><trkpt lat="39.2959531" lon="16.4393901"><ele>1675.0</ele><time>2026-05-03T10:49:30.767Z</time></trkpt><trkpt lat="39.2958289" lon="16.4394025"><ele>1675.0</ele><time>2026-05-03T10:49:31.761Z</time></trkpt><trkpt lat="39.2957022" lon="16.4394086"><ele>1675.0</ele><time>2026-05-03T10:49:32.759Z</time></trkpt><trkpt lat="39.2955739" lon="16.439415"><ele>1675.0</ele><time>2026-05-03T10:49:33.765Z</time></trkpt><trkpt lat="39.2954516" lon="16.4394102"><ele>1676.75</ele><time>2026-05-03T10:49:34.765Z</time></trkpt><trkpt lat="39.2953369" lon="16.4393906"><ele>1678.5</ele><time>2026-05-03T10:49:35.773Z</time></trkpt><trkpt lat="39.2952283" lon="16.4393595"><ele>1680.25</ele><time>2026-05-03T10:49:36.76Z</time></trkpt><trkpt lat="39.2951176" lon="16.4393222"><ele>1682.0</ele><time>2026-05-03T10:49:37.772Z</time></trkpt><trkpt lat="39.2950102" lon="16.4392892"><ele>1682.0</ele><time>2026-05-03T10:49:38.765Z</time></trkpt><trkpt lat="39.2949022" lon="16.4392556"><ele>1682.0</ele><time>2026-05-03T10:49:39.755Z</time></trkpt><trkpt lat="39.2947955" lon="16.4392278"><ele>1682.0</ele><time>2026-05-03T10:49:40.761Z</time></trkpt><trkpt lat="39.2946961" lon="16.4391921"><ele>1682.0</ele><time>2026-05-03T10:49:41.761Z</time></trkpt><trkpt lat="39.2945947" lon="16.4391634"><ele>1682.0</ele><time>2026-05-03T10:49:42.761Z</time></trkpt><trkpt lat="39.2944926" lon="16.4391351"><ele>1683.6</ele><time>2026-05-03T10:49:43.763Z</time></trkpt><trkpt lat="39.2943953" lon="16.4391185"><ele>1685.1999999999998</ele><time>2026-05-03T10:49:44.764Z</time></trkpt><trkpt lat="39.294298" lon="16.4390988"><ele>1686.8</ele><time>2026-05-03T10:49:45.768Z</time></trkpt><trkpt lat="39.2942019" lon="16.4390801"><ele>1688.4</ele><time>2026-05-03T10:49:46.759Z</time></trkpt><trkpt lat="39.2941116" lon="16.439061"><ele>1690.0</ele><time>2026-05-03T10:49:47.777Z</time></trkpt><trkpt lat="39.2940297" lon="16.4390293"><ele>1690.0000000000002</ele><time>2026-05-03T10:49:48.764Z</time></trkpt><trkpt lat="39.2939587" lon="16.4389873"><ele>1690.0</ele><time>2026-05-03T10:49:49.762Z</time></trkpt><trkpt lat="39.293877" lon="16.4389446"><ele>1690.0</ele><time>2026-05-03T10:49:50.765Z</time></trkpt><trkpt lat="39.2937787" lon="16.4389313"><ele>1690.0</ele><time>2026-05-03T10:49:51.767Z</time></trkpt><trkpt lat="39.2936888" lon="16.438934"><ele>1690.0000000000002</ele><time>2026-05-03T10:49:52.766Z</time></trkpt><trkpt lat="39.2936066" lon="16.4389638"><ele>1690.0</ele><time>2026-05-03T10:49:53.758Z</time></trkpt><trkpt lat="39.2935294" lon="16.4390018"><ele>1690.4</ele><time>2026-05-03T10:49:54.762Z</time></trkpt><trkpt lat="39.293445" lon="16.4390492"><ele>1690.8</ele><time>2026-05-03T10:49:55.763Z</time></trkpt><trkpt lat="39.2933681" lon="16.4391012"><ele>1691.1999999999998</ele><time>2026-05-03T10:49:56.765Z</time></trkpt><trkpt lat="39.2932829" lon="16.4391524"><ele>1691.6</ele><time>2026-05-03T10:49:57.764Z</time></trkpt><trkpt lat="39.2931935" lon="16.4391986"><ele>1692.0</ele><time>2026-05-03T10:49:58.778Z</time></trkpt><trkpt lat="39.2930947" lon="16.4392352"><ele>1693.8</ele><time>2026-05-03T10:49:59.768Z</time></trkpt><trkpt lat="39.2929996" lon="16.4392713"><ele>1695.6</ele><time>2026-05-03T10:50:00.77Z</time></trkpt><trkpt lat="39.2929088" lon="16.4393091"><ele>1697.3999999999999</ele><time>2026-05-03T10:50:01.766Z</time></trkpt><trkpt lat="39.2928181" lon="16.4393427"><ele>1699.1999999999998</ele><time>2026-05-03T10:50:02.771Z</time></trkpt><trkpt lat="39.2927297" lon="16.4393529"><ele>1701.0</ele><time>2026-05-03T10:50:03.763Z</time></trkpt><trkpt lat="39.2926502" lon="16.4393372"><ele>1701.0</ele><time>2026-05-03T10:50:04.782Z</time></trkpt><trkpt lat="39.2925757" lon="16.4393053"><ele>1701.0</ele><time>2026-05-03T10:50:05.764Z</time></trkpt><trkpt lat="39.2924894" lon="16.4392539"><ele>1701.0</ele><time>2026-05-03T10:50:06.762Z</time></trkpt><trkpt lat="39.2924043" lon="16.4392208"><ele>1701.0</ele><time>2026-05-03T10:50:07.761Z</time></trkpt><trkpt lat="39.2923221" lon="16.4392006"><ele>1701.0</ele><time>2026-05-03T10:50:08.758Z</time></trkpt><trkpt lat="39.2922504" lon="16.4391849"><ele>1701.0</ele><time>2026-05-03T10:50:09.777Z</time></trkpt><trkpt lat="39.2921858" lon="16.4391764"><ele>1703.1999999999998</ele><time>2026-05-03T10:50:10.765Z</time></trkpt><trkpt lat="39.2920672" lon="16.4391794"><ele>1705.3999999999999</ele><time>2026-05-03T10:50:12.763Z</time></trkpt><trkpt lat="39.2919966" lon="16.4391755"><ele>1707.6</ele><time>2026-05-03T10:50:13.76Z</time></trkpt><trkpt lat="39.2919146" lon="16.4391868"><ele>1709.8</ele><time>2026-05-03T10:50:14.759Z</time></trkpt><trkpt lat="39.2918371" lon="16.4391972"><ele>1712.0</ele><time>2026-05-03T10:50:15.768Z</time></trkpt><trkpt lat="39.2917324" lon="16.4392054"><ele>1711.9999999999998</ele><time>2026-05-03T10:50:17.772Z</time></trkpt><trkpt lat="39.2916485" lon="16.439191"><ele>1712.0</ele><time>2026-05-03T10:50:20.764Z</time></trkpt><trkpt lat="39.2916077" lon="16.4392586"><ele>1712.0</ele><time>2026-05-03T10:55:23.782Z</time></trkpt><trkpt lat="39.2915665" lon="16.4393431"><ele>1712.0</ele><time>2026-05-03T10:55:26.77Z</time></trkpt><trkpt lat="39.2916585" lon="16.4392696"><ele>1711.9999999999998</ele><time>2026-05-03T10:55:45.77Z</time></trkpt><trkpt lat="39.2917273" lon="16.4392547"><ele>1712.0</ele><time>2026-05-03T10:55:49.767Z</time></trkpt><trkpt lat="39.2918271" lon="16.4392684"><ele>1711.9999999999998</ele><time>2026-05-03T10:55:52.765Z</time></trkpt><trkpt lat="39.2918823" lon="16.439317"><ele>1712.0</ele><time>2026-05-03T10:55:55.779Z</time></trkpt><trkpt lat="39.2919522" lon="16.4392777"><ele>1712.0</ele><time>2026-05-03T10:55:58.772Z</time></trkpt><trkpt lat="39.2919765" lon="16.4391754"><ele>1712.0</ele><time>2026-05-03T10:56:24.778Z</time></trkpt><trkpt lat="39.2918988" lon="16.4392054"><ele>1711.9999999999998</ele><time>2026-05-03T10:56:45.772Z</time></trkpt><trkpt lat="39.2918358" lon="16.4391823"><ele>1712.0</ele><time>2026-05-03T10:56:48.879Z</time></trkpt><trkpt lat="39.2917662" lon="16.4391162"><ele>1712.0</ele><time>2026-05-03T10:56:51.76Z</time></trkpt><trkpt lat="39.2917601" lon="16.4390023"><ele>1711.9999999999998</ele><time>2026-05-03T10:56:54.641Z</time></trkpt><trkpt lat="39.2918189" lon="16.4388936"><ele>1711.9999999999998</ele><time>2026-05-03T10:56:56.766Z</time></trkpt><trkpt lat="39.2919292" lon="16.4388576"><ele>1712.0</ele><time>2026-05-03T10:56:58.774Z</time></trkpt><trkpt lat="39.2920453" lon="16.4388272"><ele>1712.0</ele><time>2026-05-03T10:57:00.77Z</time></trkpt><trkpt lat="39.2921743" lon="16.4387713"><ele>1712.6666666666665</ele><time>2026-05-03T10:57:02.769Z</time></trkpt><trkpt lat="39.2922446" lon="16.4387395"><ele>1713.3333333333333</ele><time>2026-05-03T10:57:03.767Z</time></trkpt><trkpt lat="39.2923261" lon="16.4386883"><ele>1714.0</ele><time>2026-05-03T10:57:04.762Z</time></trkpt><trkpt lat="39.2923981" lon="16.4386313"><ele>1714.6666666666665</ele><time>2026-05-03T10:57:05.764Z</time></trkpt><trkpt lat="39.2924692" lon="16.4385789"><ele>1715.3333333333333</ele><time>2026-05-03T10:57:06.762Z</time></trkpt><trkpt lat="39.2925554" lon="16.4385078"><ele>1716.0</ele><time>2026-05-03T10:57:07.768Z</time></trkpt><trkpt lat="39.2926465" lon="16.4384257"><ele>1716.0</ele><time>2026-05-03T10:57:08.765Z</time></trkpt><trkpt lat="39.2927167" lon="16.4383426"><ele>1716.0</ele><time>2026-05-03T10:57:09.766Z</time></trkpt><trkpt lat="39.2927631" lon="16.4382609"><ele>1716.0</ele><time>2026-05-03T10:57:10.766Z</time></trkpt><trkpt lat="39.2928145" lon="16.4381272"><ele>1716.0</ele><time>2026-05-03T10:57:12.786Z</time></trkpt><trkpt lat="39.2928164" lon="16.4380299"><ele>1716.0</ele><time>2026-05-03T10:57:16.767Z</time></trkpt><trkpt lat="39.2927297" lon="16.4379814"><ele>1715.5</ele><time>2026-05-03T10:57:18.772Z</time></trkpt><trkpt lat="39.2926675" lon="16.4379554"><ele>1715.0</ele><time>2026-05-03T10:57:19.779Z</time></trkpt><trkpt lat="39.2925931" lon="16.4379205"><ele>1714.5</ele><time>2026-05-03T10:57:20.771Z</time></trkpt><trkpt lat="39.2925184" lon="16.4379022"><ele>1714.0</ele><time>2026-05-03T10:57:21.775Z</time></trkpt><trkpt lat="39.2924431" lon="16.4378935"><ele>1713.5</ele><time>2026-05-03T10:57:22.768Z</time></trkpt><trkpt lat="39.2923558" lon="16.4379034"><ele>1713.0</ele><time>2026-05-03T10:57:23.774Z</time></trkpt><trkpt lat="39.2922674" lon="16.4379225"><ele>1716.8000000000002</ele><time>2026-05-03T10:57:24.768Z</time></trkpt><trkpt lat="39.2921776" lon="16.4379412"><ele>1720.6000000000001</ele><time>2026-05-03T10:57:25.767Z</time></trkpt><trkpt lat="39.292078" lon="16.4379446"><ele>1724.3999999999999</ele><time>2026-05-03T10:57:26.769Z</time></trkpt><trkpt lat="39.2919802" lon="16.4379228"><ele>1728.1999999999998</ele><time>2026-05-03T10:57:27.779Z</time></trkpt><trkpt lat="39.2918931" lon="16.4378842"><ele>1732.0</ele><time>2026-05-03T10:57:28.77Z</time></trkpt><trkpt lat="39.2918301" lon="16.4378236"><ele>1732.0000000000002</ele><time>2026-05-03T10:57:29.77Z</time></trkpt><trkpt lat="39.2917803" lon="16.4377502"><ele>1732.0</ele><time>2026-05-03T10:57:30.766Z</time></trkpt><trkpt lat="39.2917583" lon="16.4376462"><ele>1732.0</ele><time>2026-05-03T10:57:31.768Z</time></trkpt><trkpt lat="39.2917485" lon="16.4375466"><ele>1732.0</ele><time>2026-05-03T10:57:32.767Z</time></trkpt><trkpt lat="39.2917577" lon="16.4374184"><ele>1732.0000000000002</ele><time>2026-05-03T10:57:33.771Z</time></trkpt><trkpt lat="39.291763" lon="16.4373032"><ele>1732.0</ele><time>2026-05-03T10:57:34.768Z</time></trkpt><trkpt lat="39.2917316" lon="16.43721"><ele>1732.0</ele><time>2026-05-03T10:57:35.765Z</time></trkpt><trkpt lat="39.2916897" lon="16.4371368"><ele>1731.9999999999998</ele><time>2026-05-03T10:57:36.779Z</time></trkpt><trkpt lat="39.2916021" lon="16.4370755"><ele>1731.9999999999998</ele><time>2026-05-03T10:57:38.768Z</time></trkpt><trkpt lat="39.2915392" lon="16.4370247"><ele>1732.0</ele><time>2026-05-03T10:57:40.775Z</time></trkpt><trkpt lat="39.2914485" lon="16.4369901"><ele>1732.0</ele><time>2026-05-03T10:57:42.771Z</time></trkpt><trkpt lat="39.2913286" lon="16.4369528"><ele>1732.7142857142856</ele><time>2026-05-03T10:57:44.767Z</time></trkpt><trkpt lat="39.2912474" lon="16.4369127"><ele>1733.4285714285713</ele><time>2026-05-03T10:57:45.771Z</time></trkpt><trkpt lat="39.291171" lon="16.4368784"><ele>1734.142857142857</ele><time>2026-05-03T10:57:46.768Z</time></trkpt><trkpt lat="39.291096" lon="16.4368621"><ele>1734.8571428571427</ele><time>2026-05-03T10:57:47.771Z</time></trkpt><trkpt lat="39.291033" lon="16.4368601"><ele>1735.5714285714287</ele><time>2026-05-03T10:57:48.76Z</time></trkpt><trkpt lat="39.2909615" lon="16.4368701"><ele>1736.2857142857142</ele><time>2026-05-03T10:57:49.761Z</time></trkpt><trkpt lat="39.2908941" lon="16.4368916"><ele>1737.0</ele><time>2026-05-03T10:57:50.767Z</time></trkpt><trkpt lat="39.2908148" lon="16.4369108"><ele>1737.0</ele><time>2026-05-03T10:57:51.771Z</time></trkpt><trkpt lat="39.2907269" lon="16.436917"><ele>1737.0</ele><time>2026-05-03T10:57:52.763Z</time></trkpt><trkpt lat="39.2906427" lon="16.4369342"><ele>1737.0</ele><time>2026-05-03T10:57:53.77Z</time></trkpt><trkpt lat="39.2905589" lon="16.4369253"><ele>1737.0</ele><time>2026-05-03T10:57:54.767Z</time></trkpt><trkpt lat="39.2904696" lon="16.4369119"><ele>1737.0</ele><time>2026-05-03T10:57:55.768Z</time></trkpt><trkpt lat="39.2903816" lon="16.4369073"><ele>1737.0</ele><time>2026-05-03T10:57:56.763Z</time></trkpt><trkpt lat="39.2903065" lon="16.4368821"><ele>1740.8</ele><time>2026-05-03T10:57:57.774Z</time></trkpt><trkpt lat="39.2902337" lon="16.436855"><ele>1744.6</ele><time>2026-05-03T10:57:58.776Z</time></trkpt><trkpt lat="39.2901044" lon="16.4368107"><ele>1748.3999999999999</ele><time>2026-05-03T10:58:00.769Z</time></trkpt><trkpt lat="39.2900406" lon="16.4367926"><ele>1752.1999999999998</ele><time>2026-05-03T10:58:01.766Z</time></trkpt><trkpt lat="39.2899764" lon="16.4367685"><ele>1756.0</ele><time>2026-05-03T10:58:02.77Z</time></trkpt><trkpt lat="39.2898536" lon="16.4367278"><ele>1756.0000000000002</ele><time>2026-05-03T10:58:04.768Z</time></trkpt><trkpt lat="39.289789" lon="16.4367162"><ele>1756.0</ele><time>2026-05-03T10:58:05.767Z</time></trkpt><trkpt lat="39.289713" lon="16.4366829"><ele>1756.0</ele><time>2026-05-03T10:58:06.77Z</time></trkpt><trkpt lat="39.2896395" lon="16.4366431"><ele>1756.0</ele><time>2026-05-03T10:58:07.769Z</time></trkpt><trkpt lat="39.2895613" lon="16.4365799"><ele>1756.0000000000002</ele><time>2026-05-03T10:58:08.772Z</time></trkpt><trkpt lat="39.2894875" lon="16.4365368"><ele>1756.0</ele><time>2026-05-03T10:58:09.766Z</time></trkpt><trkpt lat="39.2894114" lon="16.436494"><ele>1755.5000000000002</ele><time>2026-05-03T10:58:10.768Z</time></trkpt><trkpt lat="39.28934" lon="16.4364293"><ele>1755.0</ele><time>2026-05-03T10:58:11.765Z</time></trkpt><trkpt lat="39.2892734" lon="16.4363611"><ele>1754.5</ele><time>2026-05-03T10:58:12.774Z</time></trkpt><trkpt lat="39.2892054" lon="16.4362784"><ele>1754.0</ele><time>2026-05-03T10:58:13.768Z</time></trkpt><trkpt lat="39.2891453" lon="16.4362094"><ele>1753.5000000000002</ele><time>2026-05-03T10:58:14.771Z</time></trkpt><trkpt lat="39.2890922" lon="16.436161"><ele>1753.0</ele><time>2026-05-03T10:58:15.767Z</time></trkpt><trkpt lat="39.2890382" lon="16.4361127"><ele>1753.0000000000002</ele><time>2026-05-03T10:58:16.763Z</time></trkpt><trkpt lat="39.2889732" lon="16.4360502"><ele>1753.0</ele><time>2026-05-03T10:58:17.775Z</time></trkpt><trkpt lat="39.2889129" lon="16.4359973"><ele>1753.0</ele><time>2026-05-03T10:58:18.769Z</time></trkpt><trkpt lat="39.2888526" lon="16.4359608"><ele>1753.0</ele><time>2026-05-03T10:58:19.766Z</time></trkpt><trkpt lat="39.2887905" lon="16.4359182"><ele>1753.0000000000002</ele><time>2026-05-03T10:58:20.768Z</time></trkpt><trkpt lat="39.2887316" lon="16.4358629"><ele>1753.0</ele><time>2026-05-03T10:58:21.77Z</time></trkpt><trkpt lat="39.2886709" lon="16.4357839"><ele>1755.0000000000002</ele><time>2026-05-03T10:58:22.777Z</time></trkpt><trkpt lat="39.2886202" lon="16.4357054"><ele>1757.0</ele><time>2026-05-03T10:58:23.764Z</time></trkpt><trkpt lat="39.2885701" lon="16.4356079"><ele>1759.0</ele><time>2026-05-03T10:58:24.775Z</time></trkpt><trkpt lat="39.2885167" lon="16.4355185"><ele>1761.0</ele><time>2026-05-03T10:58:25.765Z</time></trkpt><trkpt lat="39.2884632" lon="16.4354388"><ele>1763.0000000000002</ele><time>2026-05-03T10:58:26.774Z</time></trkpt><trkpt lat="39.2884104" lon="16.4353683"><ele>1765.0</ele><time>2026-05-03T10:58:27.771Z</time></trkpt><trkpt lat="39.2883473" lon="16.4352977"><ele>1765.0</ele><time>2026-05-03T10:58:29.778Z</time></trkpt><trkpt lat="39.2882772" lon="16.4352334"><ele>1765.0</ele><time>2026-05-03T10:58:31.768Z</time></trkpt><trkpt lat="39.2882252" lon="16.4351784"><ele>1765.0</ele><time>2026-05-03T10:58:33.767Z</time></trkpt><trkpt lat="39.2881718" lon="16.4351053"><ele>1765.0</ele><time>2026-05-03T10:58:46.764Z</time></trkpt><trkpt lat="39.2880527" lon="16.4350841"><ele>1765.0</ele><time>2026-05-03T10:58:48.777Z</time></trkpt><trkpt lat="39.2879313" lon="16.4350244"><ele>1769.3333333333335</ele><time>2026-05-03T10:58:50.775Z</time></trkpt><trkpt lat="39.2878729" lon="16.4349764"><ele>1773.6666666666667</ele><time>2026-05-03T10:58:51.765Z</time></trkpt><trkpt lat="39.2878098" lon="16.4348557"><ele>1778.0</ele><time>2026-05-03T10:58:53.763Z</time></trkpt><trkpt lat="39.2878953" lon="16.434765"><ele>1782.3333333333335</ele><time>2026-05-03T11:00:32.768Z</time></trkpt><trkpt lat="39.2878508" lon="16.4348245"><ele>1786.6666666666667</ele><time>2026-05-03T11:03:55.769Z</time></trkpt><trkpt lat="39.2878518" lon="16.4347428"><ele>1791.0</ele><time>2026-05-03T11:07:03.751Z</time></trkpt><trkpt lat="39.287846" lon="16.434824"><ele>1791.0</ele><time>2026-05-03T11:11:52.76Z</time></trkpt><trkpt lat="39.2879099" lon="16.4348316"><ele>1791.0</ele><time>2026-05-03T11:12:37.774Z</time></trkpt><trkpt lat="39.2879689" lon="16.4348697"><ele>1791.0</ele><time>2026-05-03T11:12:53.773Z</time></trkpt><trkpt lat="39.2880387" lon="16.434897"><ele>1791.0</ele><time>2026-05-03T11:14:19.769Z</time></trkpt><trkpt lat="39.2881093" lon="16.4349752"><ele>1791.0</ele><time>2026-05-03T11:14:24.773Z</time></trkpt><trkpt lat="39.2881756" lon="16.4350199"><ele>1791.0</ele><time>2026-05-03T11:14:27.775Z</time></trkpt><trkpt lat="39.2882352" lon="16.4350593"><ele>1791.0</ele><time>2026-05-03T11:14:30.772Z</time></trkpt><trkpt lat="39.2882975" lon="16.4350136"><ele>1786.6666666666667</ele><time>2026-05-03T11:14:42.767Z</time></trkpt><trkpt lat="39.288356" lon="16.4350756"><ele>1782.3333333333335</ele><time>2026-05-03T11:14:47.783Z</time></trkpt><trkpt lat="39.2884212" lon="16.4351193"><ele>1778.0</ele><time>2026-05-03T11:14:49.773Z</time></trkpt><trkpt lat="39.2884871" lon="16.4352033"><ele>1773.6666666666667</ele><time>2026-05-03T11:14:51.77Z</time></trkpt><trkpt lat="39.2885352" lon="16.4353121"><ele>1769.3333333333335</ele><time>2026-05-03T11:14:53.775Z</time></trkpt><trkpt lat="39.2885715" lon="16.4353859"><ele>1765.0</ele><time>2026-05-03T11:14:55.772Z</time></trkpt><trkpt lat="39.2886126" lon="16.4354593"><ele>1762.6</ele><time>2026-05-03T11:14:59.78Z</time></trkpt><trkpt lat="39.2886837" lon="16.4355747"><ele>1760.2</ele><time>2026-05-03T11:15:01.779Z</time></trkpt><trkpt lat="39.2887517" lon="16.4357008"><ele>1757.8000000000002</ele><time>2026-05-03T11:15:03.775Z</time></trkpt><trkpt lat="39.2888249" lon="16.4358163"><ele>1755.4</ele><time>2026-05-03T11:15:05.769Z</time></trkpt><trkpt lat="39.288909" lon="16.4358849"><ele>1753.0</ele><time>2026-05-03T11:15:07.774Z</time></trkpt><trkpt lat="39.2889923" lon="16.4359201"><ele>1753.0</ele><time>2026-05-03T11:15:09.762Z</time></trkpt><trkpt lat="39.2890952" lon="16.4359522"><ele>1753.0000000000002</ele><time>2026-05-03T11:15:11.76Z</time></trkpt><trkpt lat="39.2891498" lon="16.4359987"><ele>1753.0000000000002</ele><time>2026-05-03T11:15:12.769Z</time></trkpt><trkpt lat="39.2892317" lon="16.4360901"><ele>1753.0</ele><time>2026-05-03T11:15:14.767Z</time></trkpt><trkpt lat="39.2893119" lon="16.4361798"><ele>1753.0</ele><time>2026-05-03T11:15:16.76Z</time></trkpt><trkpt lat="39.2893924" lon="16.4362183"><ele>1753.0</ele><time>2026-05-03T11:15:18.764Z</time></trkpt><trkpt lat="39.2894876" lon="16.4362876"><ele>1753.0000000000002</ele><time>2026-05-03T11:15:20.772Z</time></trkpt><trkpt lat="39.2895876" lon="16.4363603"><ele>1753.0000000000002</ele><time>2026-05-03T11:15:22.761Z</time></trkpt><trkpt lat="39.2896494" lon="16.4363883"><ele>1753.0</ele><time>2026-05-03T11:15:23.763Z</time></trkpt><trkpt lat="39.2897097" lon="16.4364197"><ele>1753.0</ele><time>2026-05-03T11:15:24.767Z</time></trkpt><trkpt lat="39.28981" lon="16.4364727"><ele>1753.6000000000001</ele><time>2026-05-03T11:15:26.759Z</time></trkpt><trkpt lat="39.2898846" lon="16.4365053"><ele>1754.2000000000003</ele><time>2026-05-03T11:15:28.767Z</time></trkpt><trkpt lat="39.2899524" lon="16.4365281"><ele>1754.8</ele><time>2026-05-03T11:15:30.768Z</time></trkpt><trkpt lat="39.2900454" lon="16.4365543"><ele>1755.4</ele><time>2026-05-03T11:15:32.768Z</time></trkpt><trkpt lat="39.2901389" lon="16.4365988"><ele>1756.0</ele><time>2026-05-03T11:15:34.773Z</time></trkpt><trkpt lat="39.2902566" lon="16.4366546"><ele>1756.0</ele><time>2026-05-03T11:15:36.764Z</time></trkpt><trkpt lat="39.2903221" lon="16.4366775"><ele>1756.0</ele><time>2026-05-03T11:15:37.764Z</time></trkpt><trkpt lat="39.2904448" lon="16.4367006"><ele>1756.0</ele><time>2026-05-03T11:15:39.762Z</time></trkpt><trkpt lat="39.290566" lon="16.4367139"><ele>1756.0</ele><time>2026-05-03T11:15:41.772Z</time></trkpt><trkpt lat="39.2906337" lon="16.4367088"><ele>1756.0</ele><time>2026-05-03T11:15:42.773Z</time></trkpt><trkpt lat="39.2907484" lon="16.4366939"><ele>1752.1999999999998</ele><time>2026-05-03T11:15:44.77Z</time></trkpt><trkpt lat="39.2908871" lon="16.4367019"><ele>1748.3999999999999</ele><time>2026-05-03T11:15:46.772Z</time></trkpt><trkpt lat="39.2909705" lon="16.4367033"><ele>1744.6</ele><time>2026-05-03T11:15:47.77Z</time></trkpt><trkpt lat="39.2910352" lon="16.4367259"><ele>1740.8</ele><time>2026-05-03T11:15:48.775Z</time></trkpt><trkpt lat="39.2910983" lon="16.4367503"><ele>1737.0</ele><time>2026-05-03T11:15:49.771Z</time></trkpt><trkpt lat="39.2911991" lon="16.4368149"><ele>1737.0</ele><time>2026-05-03T11:15:51.769Z</time></trkpt><trkpt lat="39.2912898" lon="16.4368618"><ele>1736.9999999999998</ele><time>2026-05-03T11:15:53.763Z</time></trkpt><trkpt lat="39.2913958" lon="16.4369231"><ele>1736.9999999999998</ele><time>2026-05-03T11:15:55.77Z</time></trkpt><trkpt lat="39.2914863" lon="16.4369757"><ele>1737.0</ele><time>2026-05-03T11:15:57.773Z</time></trkpt><trkpt lat="39.2915676" lon="16.4370555"><ele>1737.0</ele><time>2026-05-03T11:15:59.777Z</time></trkpt><trkpt lat="39.2916383" lon="16.437161"><ele>1736.0</ele><time>2026-05-03T11:16:01.767Z</time></trkpt><trkpt lat="39.2916786" lon="16.4373031"><ele>1734.9999999999998</ele><time>2026-05-03T11:16:03.777Z</time></trkpt><trkpt lat="39.2916911" lon="16.4374571"><ele>1733.9999999999998</ele><time>2026-05-03T11:16:05.772Z</time></trkpt><trkpt lat="39.2916958" lon="16.4375416"><ele>1733.0</ele><time>2026-05-03T11:16:06.772Z</time></trkpt><trkpt lat="39.2917228" lon="16.4376956"><ele>1732.0</ele><time>2026-05-03T11:16:08.781Z</time></trkpt><trkpt lat="39.2917918" lon="16.4378271"><ele>1731.9999999999998</ele><time>2026-05-03T11:16:10.771Z</time></trkpt><trkpt lat="39.2918429" lon="16.4378845"><ele>1732.0</ele><time>2026-05-03T11:16:11.775Z</time></trkpt><trkpt lat="39.2918998" lon="16.437924"><ele>1732.0</ele><time>2026-05-03T11:16:12.772Z</time></trkpt><trkpt lat="39.2919635" lon="16.4379489"><ele>1732.0</ele><time>2026-05-03T11:16:13.765Z</time></trkpt><trkpt lat="39.2920592" lon="16.4379539"><ele>1732.0</ele><time>2026-05-03T11:16:15.769Z</time></trkpt><trkpt lat="39.2921273" lon="16.4379122"><ele>1731.9999999999998</ele><time>2026-05-03T11:16:21.787Z</time></trkpt><trkpt lat="39.2921906" lon="16.4378966"><ele>1732.0</ele><time>2026-05-03T11:16:25.788Z</time></trkpt><trkpt lat="39.2922879" lon="16.4378926"><ele>1731.6</ele><time>2026-05-03T11:16:28.774Z</time></trkpt><trkpt lat="39.2923548" lon="16.4379003"><ele>1731.1999999999998</ele><time>2026-05-03T11:16:30.774Z</time></trkpt><trkpt lat="39.292443" lon="16.4379144"><ele>1730.8</ele><time>2026-05-03T11:16:55.777Z</time></trkpt><trkpt lat="39.2924924" lon="16.4379881"><ele>1730.4</ele><time>2026-05-03T11:16:58.784Z</time></trkpt><trkpt lat="39.2924148" lon="16.4379694"><ele>1730.0</ele><time>2026-05-03T11:17:22.853Z</time></trkpt><trkpt lat="39.2920802" lon="16.4380083"><ele>1729.9999999999998</ele><time>2026-05-03T11:17:23.782Z</time></trkpt><trkpt lat="39.2919959" lon="16.4379794"><ele>1730.0</ele><time>2026-05-03T11:17:38.782Z</time></trkpt><trkpt lat="39.2919689" lon="16.4378794"><ele>1730.0</ele><time>2026-05-03T11:18:12.776Z</time></trkpt><trkpt lat="39.2920387" lon="16.4379012"><ele>1730.0</ele><time>2026-05-03T11:18:30.781Z</time></trkpt><trkpt lat="39.292131" lon="16.4379209"><ele>1729.9999999999998</ele><time>2026-05-03T11:18:33.779Z</time></trkpt><trkpt lat="39.2921979" lon="16.437932"><ele>1730.0</ele><time>2026-05-03T11:18:36.772Z</time></trkpt><trkpt lat="39.2922789" lon="16.4379259"><ele>1727.2</ele><time>2026-05-03T11:18:38.777Z</time></trkpt><trkpt lat="39.292369" lon="16.4379022"><ele>1724.4</ele><time>2026-05-03T11:18:41.78Z</time></trkpt><trkpt lat="39.2925178" lon="16.4379321"><ele>1721.6</ele><time>2026-05-03T11:18:50.782Z</time></trkpt><trkpt lat="39.2925922" lon="16.4379625"><ele>1718.8</ele><time>2026-05-03T11:18:51.78Z</time></trkpt><trkpt lat="39.2926615" lon="16.4379827"><ele>1716.0</ele><time>2026-05-03T11:18:53.773Z</time></trkpt><trkpt lat="39.2927234" lon="16.4380153"><ele>1716.0</ele><time>2026-05-03T11:19:01.776Z</time></trkpt><trkpt lat="39.292727" lon="16.4381092"><ele>1716.0</ele><time>2026-05-03T11:19:04.777Z</time></trkpt><trkpt lat="39.2927385" lon="16.4381927"><ele>1716.0</ele><time>2026-05-03T11:19:05.785Z</time></trkpt><trkpt lat="39.2927417" lon="16.4381085"><ele>1716.0</ele><time>2026-05-03T11:19:18.79Z</time></trkpt><trkpt lat="39.2926545" lon="16.4379976"><ele>1716.0</ele><time>2026-05-03T11:19:20.777Z</time></trkpt><trkpt lat="39.292592" lon="16.4379516"><ele>1716.0</ele><time>2026-05-03T11:19:21.777Z</time></trkpt><trkpt lat="39.292518" lon="16.4379176"><ele>1715.5</ele><time>2026-05-03T11:19:22.774Z</time></trkpt><trkpt lat="39.2924422" lon="16.4379062"><ele>1715.0</ele><time>2026-05-03T11:19:23.776Z</time></trkpt><trkpt lat="39.2923446" lon="16.4378992"><ele>1714.5</ele><time>2026-05-03T11:19:24.769Z</time></trkpt><trkpt lat="39.2922592" lon="16.4379034"><ele>1714.0</ele><time>2026-05-03T11:19:25.773Z</time></trkpt><trkpt lat="39.2921838" lon="16.4378997"><ele>1713.5</ele><time>2026-05-03T11:19:26.767Z</time></trkpt><trkpt lat="39.2921041" lon="16.4379023"><ele>1713.0</ele><time>2026-05-03T11:19:27.771Z</time></trkpt><trkpt lat="39.2920201" lon="16.4378968"><ele>1716.1666666666667</ele><time>2026-05-03T11:19:28.78Z</time></trkpt><trkpt lat="39.2919546" lon="16.4378877"><ele>1719.3333333333335</ele><time>2026-05-03T11:19:29.773Z</time></trkpt><trkpt lat="39.2918837" lon="16.4378515"><ele>1722.5</ele><time>2026-05-03T11:19:31.775Z</time></trkpt><trkpt lat="39.2919453" lon="16.4378891"><ele>1725.6666666666667</ele><time>2026-05-03T11:19:54.779Z</time></trkpt><trkpt lat="39.292038" lon="16.4379407"><ele>1728.8333333333335</ele><time>2026-05-03T11:26:25.77Z</time></trkpt><trkpt lat="39.2921239" lon="16.4379453"><ele>1732.0</ele><time>2026-05-03T11:26:26.777Z</time></trkpt><trkpt lat="39.2921965" lon="16.4379365"><ele>1729.7142857142856</ele><time>2026-05-03T11:26:27.775Z</time></trkpt><trkpt lat="39.2922685" lon="16.4379286"><ele>1727.4285714285713</ele><time>2026-05-03T11:26:28.77Z</time></trkpt><trkpt lat="39.2923329" lon="16.4379071"><ele>1725.142857142857</ele><time>2026-05-03T11:26:29.773Z</time></trkpt><trkpt lat="39.2924009" lon="16.4379019"><ele>1722.8571428571427</ele><time>2026-05-03T11:26:30.776Z</time></trkpt><trkpt lat="39.2924688" lon="16.4379113"><ele>1720.5714285714287</ele><time>2026-05-03T11:26:31.786Z</time></trkpt><trkpt lat="39.2925346" lon="16.4379207"><ele>1718.2857142857142</ele><time>2026-05-03T11:26:32.774Z</time></trkpt><trkpt lat="39.2926077" lon="16.4379494"><ele>1716.0</ele><time>2026-05-03T11:26:33.77Z</time></trkpt><trkpt lat="39.2926663" lon="16.4379886"><ele>1716.0</ele><time>2026-05-03T11:26:34.77Z</time></trkpt><trkpt lat="39.2927271" lon="16.4380714"><ele>1716.0</ele><time>2026-05-03T11:26:36.775Z</time></trkpt><trkpt lat="39.2927127" lon="16.4382181"><ele>1716.0</ele><time>2026-05-03T11:26:38.777Z</time></trkpt><trkpt lat="39.292675" lon="16.4383242"><ele>1716.0</ele><time>2026-05-03T11:26:40.782Z</time></trkpt><trkpt lat="39.2925756" lon="16.4384051"><ele>1716.0</ele><time>2026-05-03T11:26:42.771Z</time></trkpt><trkpt lat="39.2925133" lon="16.4384439"><ele>1716.0</ele><time>2026-05-03T11:26:43.771Z</time></trkpt><trkpt lat="39.2924531" lon="16.4384842"><ele>1716.0</ele><time>2026-05-03T11:26:44.773Z</time></trkpt><trkpt lat="39.2923905" lon="16.4385236"><ele>1716.0</ele><time>2026-05-03T11:26:45.774Z</time></trkpt><trkpt lat="39.292287" lon="16.4386004"><ele>1716.0</ele><time>2026-05-03T11:26:47.779Z</time></trkpt><trkpt lat="39.2921856" lon="16.4386652"><ele>1716.0</ele><time>2026-05-03T11:26:49.78Z</time></trkpt><trkpt lat="39.2920919" lon="16.4386999"><ele>1715.1999999999998</ele><time>2026-05-03T11:26:51.766Z</time></trkpt><trkpt lat="39.2919667" lon="16.4387648"><ele>1714.3999999999999</ele><time>2026-05-03T11:26:53.782Z</time></trkpt><trkpt lat="39.2918872" lon="16.4387975"><ele>1713.6</ele><time>2026-05-03T11:26:54.777Z</time></trkpt><trkpt lat="39.2917815" lon="16.4388484"><ele>1712.8</ele><time>2026-05-03T11:26:56.775Z</time></trkpt><trkpt lat="39.291692" lon="16.4389217"><ele>1712.0</ele><time>2026-05-03T11:26:58.776Z</time></trkpt><trkpt lat="39.2916261" lon="16.4390321"><ele>1712.0000000000002</ele><time>2026-05-03T11:27:00.772Z</time></trkpt><trkpt lat="39.2916192" lon="16.4391159"><ele>1712.0</ele><time>2026-05-03T11:27:01.774Z</time></trkpt><trkpt lat="39.2916523" lon="16.4391894"><ele>1712.0</ele><time>2026-05-03T11:27:02.775Z</time></trkpt><trkpt lat="39.2917094" lon="16.4392427"><ele>1712.0</ele><time>2026-05-03T11:27:03.777Z</time></trkpt><trkpt lat="39.2917914" lon="16.4392839"><ele>1712.0</ele><time>2026-05-03T11:27:05.781Z</time></trkpt><trkpt lat="39.2918708" lon="16.4392778"><ele>1712.0000000000002</ele><time>2026-05-03T11:27:07.78Z</time></trkpt><trkpt lat="39.2919372" lon="16.4393252"><ele>1712.0</ele><time>2026-05-03T11:27:11.771Z</time></trkpt><trkpt lat="39.2919399" lon="16.439422"><ele>1712.0000000000002</ele><time>2026-05-03T11:27:13.852Z</time></trkpt><trkpt lat="39.2920066" lon="16.4394395"><ele>1712.0</ele><time>2026-05-03T11:27:16.827Z</time></trkpt><trkpt lat="39.2919996" lon="16.4395323"><ele>1712.0</ele><time>2026-05-03T11:27:22.755Z</time></trkpt><trkpt lat="39.2919464" lon="16.4395812"><ele>1712.0</ele><time>2026-05-03T11:27:26.794Z</time></trkpt><trkpt lat="39.2919084" lon="16.4396688"><ele>1712.0</ele><time>2026-05-03T11:27:31.778Z</time></trkpt><trkpt lat="39.2918517" lon="16.4397449"><ele>1712.0000000000002</ele><time>2026-05-03T11:27:35.792Z</time></trkpt><trkpt lat="39.291801" lon="16.4398086"><ele>1712.0</ele><time>2026-05-03T11:27:38.798Z</time></trkpt><trkpt lat="39.2917713" lon="16.4399076"><ele>1709.9999999999998</ele><time>2026-05-03T11:27:41.81Z</time></trkpt><trkpt lat="39.2917512" lon="16.4399918"><ele>1708.0</ele><time>2026-05-03T11:27:43.837Z</time></trkpt><trkpt lat="39.2917027" lon="16.4400989"><ele>1706.0</ele><time>2026-05-03T11:27:45.775Z</time></trkpt><trkpt lat="39.2916605" lon="16.4401949"><ele>1704.0</ele><time>2026-05-03T11:27:47.839Z</time></trkpt><trkpt lat="39.2916336" lon="16.440314"><ele>1701.9999999999998</ele><time>2026-05-03T11:27:49.775Z</time></trkpt><trkpt lat="39.2916162" lon="16.4404243"><ele>1700.0</ele><time>2026-05-03T11:27:51.772Z</time></trkpt><trkpt lat="39.2916021" lon="16.4405238"><ele>1700.4999999999998</ele><time>2026-05-03T11:27:54.799Z</time></trkpt><trkpt lat="39.2915377" lon="16.4406084"><ele>1701.0</ele><time>2026-05-03T11:28:41.776Z</time></trkpt><trkpt lat="39.2914927" lon="16.4406836"><ele>1701.5</ele><time>2026-05-03T11:28:47.777Z</time></trkpt><trkpt lat="39.2914235" lon="16.4407444"><ele>1702.0</ele><time>2026-05-03T11:29:02.776Z</time></trkpt><trkpt lat="39.2913593" lon="16.4407722"><ele>1702.4999999999998</ele><time>2026-05-03T11:29:06.78Z</time></trkpt><trkpt lat="39.2912899" lon="16.4408579"><ele>1703.0</ele><time>2026-05-03T11:29:09.777Z</time></trkpt><trkpt lat="39.2912171" lon="16.4408714"><ele>1703.0</ele><time>2026-05-03T11:29:11.772Z</time></trkpt><trkpt lat="39.2911244" lon="16.4408901"><ele>1703.0</ele><time>2026-05-03T11:29:16.783Z</time></trkpt><trkpt lat="39.2910735" lon="16.440994"><ele>1703.0</ele><time>2026-05-03T11:29:21.776Z</time></trkpt><trkpt lat="39.2910433" lon="16.4411044"><ele>1703.0</ele><time>2026-05-03T11:29:23.767Z</time></trkpt><trkpt lat="39.2910115" lon="16.4412386"><ele>1703.0</ele><time>2026-05-03T11:29:25.77Z</time></trkpt><trkpt lat="39.2909596" lon="16.4413208"><ele>1703.1666666666665</ele><time>2026-05-03T11:29:28.77Z</time></trkpt><trkpt lat="39.2909625" lon="16.4414104"><ele>1703.3333333333333</ele><time>2026-05-03T11:29:30.771Z</time></trkpt><trkpt lat="39.2910294" lon="16.4414624"><ele>1703.5</ele><time>2026-05-03T11:29:33.772Z</time></trkpt><trkpt lat="39.2910789" lon="16.4415499"><ele>1703.6666666666665</ele><time>2026-05-03T11:29:36.782Z</time></trkpt><trkpt lat="39.2910663" lon="16.4416517"><ele>1703.8333333333333</ele><time>2026-05-03T11:29:39.771Z</time></trkpt><trkpt lat="39.291045" lon="16.4417602"><ele>1704.0</ele><time>2026-05-03T11:29:42.776Z</time></trkpt><trkpt lat="39.2910283" lon="16.4418528"><ele>1704.0</ele><time>2026-05-03T11:29:46.775Z</time></trkpt><trkpt lat="39.2910199" lon="16.4419425"><ele>1704.0</ele><time>2026-05-03T11:29:48.784Z</time></trkpt><trkpt lat="39.2910292" lon="16.4420729"><ele>1704.0</ele><time>2026-05-03T11:29:50.77Z</time></trkpt><trkpt lat="39.2910357" lon="16.4421963"><ele>1704.0</ele><time>2026-05-03T11:29:52.776Z</time></trkpt><trkpt lat="39.2910097" lon="16.4423079"><ele>1704.0</ele><time>2026-05-03T11:29:55.776Z</time></trkpt><trkpt lat="39.2909878" lon="16.4423877"><ele>1704.0</ele><time>2026-05-03T11:30:00.829Z</time></trkpt><trkpt lat="39.2909692" lon="16.4424746"><ele>1705.7142857142856</ele><time>2026-05-03T11:30:28.773Z</time></trkpt><trkpt lat="39.2910122" lon="16.442557"><ele>1707.4285714285713</ele><time>2026-05-03T11:30:32.776Z</time></trkpt><trkpt lat="39.2910274" lon="16.4426436"><ele>1709.142857142857</ele><time>2026-05-03T11:30:34.77Z</time></trkpt><trkpt lat="39.2910026" lon="16.4427304"><ele>1710.8571428571427</ele><time>2026-05-03T11:30:36.77Z</time></trkpt><trkpt lat="39.2909708" lon="16.4428109"><ele>1712.5714285714287</ele><time>2026-05-03T11:30:38.766Z</time></trkpt><trkpt lat="39.2909336" lon="16.4428869"><ele>1714.2857142857142</ele><time>2026-05-03T11:30:40.766Z</time></trkpt><trkpt lat="39.2909103" lon="16.4429769"><ele>1716.0</ele><time>2026-05-03T11:30:57.771Z</time></trkpt><trkpt lat="39.2909418" lon="16.4428659"><ele>1716.0</ele><time>2026-05-03T11:31:08.782Z</time></trkpt><trkpt lat="39.2909486" lon="16.4427767"><ele>1716.0</ele><time>2026-05-03T11:31:13.766Z</time></trkpt><trkpt lat="39.2909447" lon="16.4426857"><ele>1716.0</ele><time>2026-05-03T11:31:20.77Z</time></trkpt><trkpt lat="39.2909333" lon="16.4425903"><ele>1716.0</ele><time>2026-05-03T11:31:28.771Z</time></trkpt><trkpt lat="39.2909813" lon="16.4424207"><ele>1716.0</ele><time>2026-05-03T11:31:41.772Z</time></trkpt><trkpt lat="39.2910153" lon="16.4423425"><ele>1716.0</ele><time>2026-05-03T11:31:45.768Z</time></trkpt><trkpt lat="39.29104" lon="16.4422479"><ele>1716.0</ele><time>2026-05-03T11:31:49.783Z</time></trkpt><trkpt lat="39.2909729" lon="16.4420728"><ele>1716.0</ele><time>2026-05-03T11:32:14.78Z</time></trkpt><trkpt lat="39.2908832" lon="16.4421132"><ele>1716.0</ele><time>2026-05-03T11:32:17.77Z</time></trkpt><trkpt lat="39.2908119" lon="16.4421384"><ele>1716.0</ele><time>2026-05-03T11:32:19.78Z</time></trkpt><trkpt lat="39.2907441" lon="16.4421524"><ele>1716.0</ele><time>2026-05-03T11:32:22.778Z</time></trkpt><trkpt lat="39.2906806" lon="16.442213"><ele>1716.0</ele><time>2026-05-03T11:32:25.783Z</time></trkpt><trkpt lat="39.2906171" lon="16.4421359"><ele>1716.0</ele><time>2026-05-03T11:32:29.771Z</time></trkpt><trkpt lat="39.2905938" lon="16.4420353"><ele>1716.0</ele><time>2026-05-03T11:32:31.777Z</time></trkpt><trkpt lat="39.2905845" lon="16.4419371"><ele>1716.0</ele><time>2026-05-03T11:32:34.768Z</time></trkpt><trkpt lat="39.2905803" lon="16.441842"><ele>1716.0</ele><time>2026-05-03T11:32:36.768Z</time></trkpt><trkpt lat="39.290579" lon="16.4417355"><ele>1716.0</ele><time>2026-05-03T11:32:38.77Z</time></trkpt><trkpt lat="39.2905569" lon="16.4416488"><ele>1717.3333333333333</ele><time>2026-05-03T11:32:40.767Z</time></trkpt><trkpt lat="39.2905217" lon="16.4415513"><ele>1718.6666666666665</ele><time>2026-05-03T11:33:12.773Z</time></trkpt><trkpt lat="39.2904593" lon="16.4414459"><ele>1720.0</ele><time>2026-05-03T11:33:32.773Z</time></trkpt><trkpt lat="39.2904418" lon="16.441358"><ele>1721.3333333333333</ele><time>2026-05-03T11:33:56.779Z</time></trkpt><trkpt lat="39.2903841" lon="16.4412732"><ele>1722.6666666666665</ele><time>2026-05-03T11:34:00.775Z</time></trkpt><trkpt lat="39.2903528" lon="16.4411937"><ele>1724.0</ele><time>2026-05-03T11:34:02.77Z</time></trkpt><trkpt lat="39.2903142" lon="16.4411224"><ele>1724.0</ele><time>2026-05-03T11:34:12.774Z</time></trkpt><trkpt lat="39.2903182" lon="16.441041"><ele>1724.0</ele><time>2026-05-03T11:34:15.776Z</time></trkpt><trkpt lat="39.2902572" lon="16.4409754"><ele>1724.0</ele><time>2026-05-03T11:34:34.78Z</time></trkpt><trkpt lat="39.2901768" lon="16.4409447"><ele>1724.0</ele><time>2026-05-03T11:34:39.77Z</time></trkpt><trkpt lat="39.2900911" lon="16.4409269"><ele>1724.0</ele><time>2026-05-03T11:34:43.769Z</time></trkpt><trkpt lat="39.2900245" lon="16.4409134"><ele>1724.0</ele><time>2026-05-03T11:34:46.773Z</time></trkpt><trkpt lat="39.289959" lon="16.4408876"><ele>1724.0</ele><time>2026-05-03T11:34:51.793Z</time></trkpt><trkpt lat="39.2898829" lon="16.4408648"><ele>1723.9999999999998</ele><time>2026-05-03T11:34:55.774Z</time></trkpt><trkpt lat="39.2897912" lon="16.4408154"><ele>1724.0</ele><time>2026-05-03T11:35:18.781Z</time></trkpt><trkpt lat="39.289789" lon="16.4407051"><ele>1724.0</ele><time>2026-05-03T11:35:21.774Z</time></trkpt><trkpt lat="39.2898091" lon="16.4405871"><ele>1724.0</ele><time>2026-05-03T11:35:24.776Z</time></trkpt><trkpt lat="39.2898499" lon="16.4405201"><ele>1723.9999999999998</ele><time>2026-05-03T11:35:26.777Z</time></trkpt><trkpt lat="39.2899099" lon="16.4404646"><ele>1724.0</ele><time>2026-05-03T11:35:29.771Z</time></trkpt><trkpt lat="39.2897872" lon="16.4404794"><ele>1723.9999999999998</ele><time>2026-05-03T11:35:33.82Z</time></trkpt><trkpt lat="39.2898704" lon="16.4404071"><ele>1724.0</ele><time>2026-05-03T11:35:39.77Z</time></trkpt><trkpt lat="39.2899437" lon="16.4404063"><ele>1724.0</ele><time>2026-05-03T11:36:54.781Z</time></trkpt><trkpt lat="39.2898774" lon="16.4403916"><ele>1724.0</ele><time>2026-05-03T11:37:25.776Z</time></trkpt><trkpt lat="39.2898706" lon="16.4404788"><ele>1723.9999999999998</ele><time>2026-05-03T11:39:37.769Z</time></trkpt><trkpt lat="39.2898233" lon="16.4405393"><ele>1724.0</ele><time>2026-05-03T11:39:41.782Z</time></trkpt><trkpt lat="39.2898316" lon="16.4406424"><ele>1724.0</ele><time>2026-05-03T11:39:47.78Z</time></trkpt><trkpt lat="39.2898822" lon="16.44072"><ele>1724.0</ele><time>2026-05-03T11:39:51.768Z</time></trkpt><trkpt lat="39.2899428" lon="16.4407792"><ele>1724.0</ele><time>2026-05-03T11:39:55.779Z</time></trkpt><trkpt lat="39.2899994" lon="16.4408273"><ele>1724.0</ele><time>2026-05-03T11:40:00.766Z</time></trkpt><trkpt lat="39.2900682" lon="16.4408573"><ele>1724.0</ele><time>2026-05-03T11:40:08.778Z</time></trkpt><trkpt lat="39.2901259" lon="16.4408979"><ele>1724.0</ele><time>2026-05-03T11:40:13.777Z</time></trkpt><trkpt lat="39.29018" lon="16.4409424"><ele>1724.0</ele><time>2026-05-03T11:40:17.773Z</time></trkpt><trkpt lat="39.2902327" lon="16.4410012"><ele>1723.9999999999998</ele><time>2026-05-03T11:40:22.766Z</time></trkpt><trkpt lat="39.290285" lon="16.441047"><ele>1724.0</ele><time>2026-05-03T11:40:28.765Z</time></trkpt><trkpt lat="39.2903489" lon="16.4410566"><ele>1724.0</ele><time>2026-05-03T11:40:35.779Z</time></trkpt><trkpt lat="39.2904176" lon="16.4410627"><ele>1724.0</ele><time>2026-05-03T11:41:17.796Z</time></trkpt><trkpt lat="39.2904755" lon="16.4410117"><ele>1723.9999999999998</ele><time>2026-05-03T11:41:25.771Z</time></trkpt><trkpt lat="39.2905337" lon="16.4409002"><ele>1724.0</ele><time>2026-05-03T11:41:28.777Z</time></trkpt><trkpt lat="39.2905809" lon="16.4408155"><ele>1720.4999999999998</ele><time>2026-05-03T11:41:30.773Z</time></trkpt><trkpt lat="39.290652" lon="16.440737"><ele>1717.0</ele><time>2026-05-03T11:41:32.77Z</time></trkpt><trkpt lat="39.2907101" lon="16.440679"><ele>1713.5</ele><time>2026-05-03T11:41:34.781Z</time></trkpt><trkpt lat="39.2908066" lon="16.4406485"><ele>1710.0</ele><time>2026-05-03T11:41:36.774Z</time></trkpt><trkpt lat="39.2908827" lon="16.440618"><ele>1706.4999999999998</ele><time>2026-05-03T11:41:38.771Z</time></trkpt><trkpt lat="39.2909629" lon="16.4406019"><ele>1703.0</ele><time>2026-05-03T11:41:41.765Z</time></trkpt><trkpt lat="39.2910373" lon="16.4405415"><ele>1706.0</ele><time>2026-05-03T11:41:44.77Z</time></trkpt><trkpt lat="39.2910821" lon="16.4404263"><ele>1709.0</ele><time>2026-05-03T11:41:46.774Z</time></trkpt><trkpt lat="39.2911116" lon="16.4403058"><ele>1712.0000000000002</ele><time>2026-05-03T11:41:48.771Z</time></trkpt><trkpt lat="39.2911384" lon="16.4402236"><ele>1715.0</ele><time>2026-05-03T11:41:52.778Z</time></trkpt><trkpt lat="39.2911682" lon="16.4400945"><ele>1718.0</ele><time>2026-05-03T11:41:54.776Z</time></trkpt><trkpt lat="39.2912044" lon="16.4399487"><ele>1717.9999999999998</ele><time>2026-05-03T11:41:56.782Z</time></trkpt><trkpt lat="39.2912396" lon="16.4397904"><ele>1718.0</ele><time>2026-05-03T11:41:58.771Z</time></trkpt><trkpt lat="39.2912771" lon="16.439708"><ele>1718.0</ele><time>2026-05-03T11:41:59.774Z</time></trkpt><trkpt lat="39.291309" lon="16.4396319"><ele>1718.0</ele><time>2026-05-03T11:42:00.771Z</time></trkpt><trkpt lat="39.2913795" lon="16.4395318"><ele>1717.9999999999998</ele><time>2026-05-03T11:42:02.77Z</time></trkpt><trkpt lat="39.2914253" lon="16.4394687"><ele>1718.0</ele><time>2026-05-03T11:42:05.775Z</time></trkpt><trkpt lat="39.2914775" lon="16.4394107"><ele>1717.9999999999998</ele><time>2026-05-03T11:42:14.782Z</time></trkpt><trkpt lat="39.2915133" lon="16.4393238"><ele>1718.0</ele><time>2026-05-03T11:42:17.775Z</time></trkpt><trkpt lat="39.2914444" lon="16.439371"><ele>1718.0</ele><time>2026-05-03T11:45:16.781Z</time></trkpt><trkpt lat="39.2913939" lon="16.4394221"><ele>1718.0</ele><time>2026-05-03T11:45:25.776Z</time></trkpt><trkpt lat="39.2913567" lon="16.4395282"><ele>1717.9999999999998</ele><time>2026-05-03T11:45:27.769Z</time></trkpt><trkpt lat="39.2913312" lon="16.4396584"><ele>1718.0</ele><time>2026-05-03T11:45:29.768Z</time></trkpt><trkpt lat="39.2913179" lon="16.4397482"><ele>1717.9999999999998</ele><time>2026-05-03T11:45:30.782Z</time></trkpt><trkpt lat="39.2913686" lon="16.4398348"><ele>1718.0</ele><time>2026-05-03T11:45:45.771Z</time></trkpt><trkpt lat="39.2914534" lon="16.4398249"><ele>1718.0</ele><time>2026-05-03T11:45:50.772Z</time></trkpt><trkpt lat="39.2915262" lon="16.4398427"><ele>1718.0</ele><time>2026-05-03T11:45:52.782Z</time></trkpt><trkpt lat="39.2915838" lon="16.439876"><ele>1718.0</ele><time>2026-05-03T11:45:54.782Z</time></trkpt><trkpt lat="39.2916469" lon="16.4398665"><ele>1717.9999999999998</ele><time>2026-05-03T11:45:58.767Z</time></trkpt><trkpt lat="39.2917118" lon="16.4398421"><ele>1718.0</ele><time>2026-05-03T11:46:00.773Z</time></trkpt><trkpt lat="39.2917745" lon="16.4398179"><ele>1716.9999999999998</ele><time>2026-05-03T11:46:02.771Z</time></trkpt><trkpt lat="39.2918537" lon="16.4397856"><ele>1716.0</ele><time>2026-05-03T11:46:05.773Z</time></trkpt><trkpt lat="39.2919502" lon="16.4397616"><ele>1715.0</ele><time>2026-05-03T11:46:08.767Z</time></trkpt><trkpt lat="39.2920104" lon="16.4396935"><ele>1714.0</ele><time>2026-05-03T11:46:11.777Z</time></trkpt><trkpt lat="39.2920496" lon="16.4396025"><ele>1712.9999999999998</ele><time>2026-05-03T11:46:13.78Z</time></trkpt><trkpt lat="39.2920723" lon="16.4395055"><ele>1712.0</ele><time>2026-05-03T11:46:16.764Z</time></trkpt><trkpt lat="39.2921208" lon="16.4394375"><ele>1711.9999999999998</ele><time>2026-05-03T11:46:19.77Z</time></trkpt><trkpt lat="39.2922018" lon="16.4394158"><ele>1712.0</ele><time>2026-05-03T11:46:27.776Z</time></trkpt><trkpt lat="39.2922857" lon="16.4394397"><ele>1712.0</ele><time>2026-05-03T11:46:30.776Z</time></trkpt><trkpt lat="39.2923414" lon="16.4394871"><ele>1712.0</ele><time>2026-05-03T11:46:33.771Z</time></trkpt><trkpt lat="39.2924029" lon="16.4395128"><ele>1711.9999999999998</ele><time>2026-05-03T11:46:35.773Z</time></trkpt><trkpt lat="39.2924777" lon="16.439485"><ele>1712.0</ele><time>2026-05-03T11:46:40.772Z</time></trkpt><trkpt lat="39.2925308" lon="16.4393898"><ele>1710.1666666666665</ele><time>2026-05-03T11:46:43.779Z</time></trkpt><trkpt lat="39.2926185" lon="16.4393685"><ele>1708.3333333333333</ele><time>2026-05-03T11:46:46.77Z</time></trkpt><trkpt lat="39.2926917" lon="16.439412"><ele>1706.5</ele><time>2026-05-03T11:46:51.775Z</time></trkpt><trkpt lat="39.2927622" lon="16.4394525"><ele>1704.6666666666665</ele><time>2026-05-03T11:46:55.771Z</time></trkpt><trkpt lat="39.2928383" lon="16.4394459"><ele>1702.8333333333333</ele><time>2026-05-03T11:46:57.786Z</time></trkpt><trkpt lat="39.2929262" lon="16.4394103"><ele>1701.0</ele><time>2026-05-03T11:46:59.777Z</time></trkpt><trkpt lat="39.2930026" lon="16.4393714"><ele>1701.0</ele><time>2026-05-03T11:47:01.779Z</time></trkpt><trkpt lat="39.2930717" lon="16.4393159"><ele>1701.0</ele><time>2026-05-03T11:47:03.776Z</time></trkpt><trkpt lat="39.2931335" lon="16.4392424"><ele>1701.0</ele><time>2026-05-03T11:47:26.78Z</time></trkpt><trkpt lat="39.2932022" lon="16.4392171"><ele>1701.0</ele><time>2026-05-03T11:47:38.779Z</time></trkpt><trkpt lat="39.2932559" lon="16.4391626"><ele>1701.0</ele><time>2026-05-03T11:47:39.779Z</time></trkpt><trkpt lat="39.2933301" lon="16.4391259"><ele>1701.0</ele><time>2026-05-03T11:47:44.777Z</time></trkpt><trkpt lat="39.2934201" lon="16.4390628"><ele>1699.5</ele><time>2026-05-03T11:47:46.769Z</time></trkpt><trkpt lat="39.2935275" lon="16.4390048"><ele>1698.0</ele><time>2026-05-03T11:47:48.774Z</time></trkpt><trkpt lat="39.2936029" lon="16.4389643"><ele>1696.5</ele><time>2026-05-03T11:47:49.77Z</time></trkpt><trkpt lat="39.2936675" lon="16.4389267"><ele>1695.0</ele><time>2026-05-03T11:47:50.78Z</time></trkpt><trkpt lat="39.2937366" lon="16.4389065"><ele>1693.5</ele><time>2026-05-03T11:47:51.771Z</time></trkpt><trkpt lat="39.2938265" lon="16.438911"><ele>1692.0</ele><time>2026-05-03T11:47:53.776Z</time></trkpt><trkpt lat="39.2937936" lon="16.4390175"><ele>1692.0</ele><time>2026-05-03T11:48:01.775Z</time></trkpt><trkpt lat="39.2937073" lon="16.4390567"><ele>1692.0</ele><time>2026-05-03T11:48:04.778Z</time></trkpt><trkpt lat="39.2936289" lon="16.439136"><ele>1692.0</ele><time>2026-05-03T11:48:06.776Z</time></trkpt><trkpt lat="39.2935418" lon="16.4392192"><ele>1692.0</ele><time>2026-05-03T11:48:08.775Z</time></trkpt><trkpt lat="39.2934586" lon="16.4393142"><ele>1692.0</ele><time>2026-05-03T11:48:10.774Z</time></trkpt><trkpt lat="39.2934631" lon="16.4394668"><ele>1692.0</ele><time>2026-05-03T11:48:12.788Z</time></trkpt><trkpt lat="39.2934876" lon="16.4395477"><ele>1692.0</ele><time>2026-05-03T11:48:13.776Z</time></trkpt><trkpt lat="39.2935241" lon="16.4396366"><ele>1692.0</ele><time>2026-05-03T11:48:14.775Z</time></trkpt><trkpt lat="39.293571" lon="16.4397392"><ele>1692.0</ele><time>2026-05-03T11:48:16.776Z</time></trkpt><trkpt lat="39.2935942" lon="16.4398597"><ele>1692.0</ele><time>2026-05-03T11:48:18.77Z</time></trkpt><trkpt lat="39.2936471" lon="16.4399877"><ele>1692.0</ele><time>2026-05-03T11:48:20.772Z</time></trkpt><trkpt lat="39.2936583" lon="16.440128"><ele>1690.3999999999999</ele><time>2026-05-03T11:48:22.777Z</time></trkpt><trkpt lat="39.2936444" lon="16.4402432"><ele>1688.8</ele><time>2026-05-03T11:48:24.775Z</time></trkpt><trkpt lat="39.2936799" lon="16.4403885"><ele>1687.2</ele><time>2026-05-03T11:48:26.78Z</time></trkpt><trkpt lat="39.2937148" lon="16.4405332"><ele>1685.6</ele><time>2026-05-03T11:48:28.773Z</time></trkpt><trkpt lat="39.2937009" lon="16.4406483"><ele>1684.0</ele><time>2026-05-03T11:48:30.769Z</time></trkpt><trkpt lat="39.2936966" lon="16.4407425"><ele>1682.2</ele><time>2026-05-03T11:48:31.781Z</time></trkpt><trkpt lat="39.2937015" lon="16.440888"><ele>1680.4</ele><time>2026-05-03T11:48:33.766Z</time></trkpt><trkpt lat="39.2937337" lon="16.4410079"><ele>1678.6</ele><time>2026-05-03T11:48:35.772Z</time></trkpt><trkpt lat="39.2937776" lon="16.4411069"><ele>1676.8</ele><time>2026-05-03T11:48:37.77Z</time></trkpt><trkpt lat="39.2938231" lon="16.4411891"><ele>1675.0</ele><time>2026-05-03T11:48:39.773Z</time></trkpt><trkpt lat="39.2939146" lon="16.4412246"><ele>1675.8</ele><time>2026-05-03T11:49:12.771Z</time></trkpt><trkpt lat="39.2940169" lon="16.441243"><ele>1676.6</ele><time>2026-05-03T11:49:15.773Z</time></trkpt><trkpt lat="39.2940991" lon="16.4412972"><ele>1677.4</ele><time>2026-05-03T11:49:17.775Z</time></trkpt><trkpt lat="39.2939762" lon="16.4412354"><ele>1678.2</ele><time>2026-05-03T11:49:18.807Z</time></trkpt><trkpt lat="39.2940474" lon="16.4412061"><ele>1679.0</ele><time>2026-05-03T11:49:21.807Z</time></trkpt><trkpt lat="39.2942094" lon="16.4412273"><ele>1678.9999999999998</ele><time>2026-05-03T11:49:24.776Z</time></trkpt><trkpt lat="39.2942976" lon="16.4412612"><ele>1679.0</ele><time>2026-05-03T11:49:25.83Z</time></trkpt><trkpt lat="39.294385" lon="16.4412938"><ele>1679.0</ele><time>2026-05-03T11:49:26.85Z</time></trkpt><trkpt lat="39.294453" lon="16.4413102"><ele>1679.0</ele><time>2026-05-03T11:49:28.811Z</time></trkpt><trkpt lat="39.2945156" lon="16.4413477"><ele>1678.9999999999998</ele><time>2026-05-03T11:49:29.783Z</time></trkpt><trkpt lat="39.2945728" lon="16.441385"><ele>1679.0</ele><time>2026-05-03T11:49:31.771Z</time></trkpt><trkpt lat="39.2946365" lon="16.4414615"><ele>1676.9999999999998</ele><time>2026-05-03T11:49:33.771Z</time></trkpt><trkpt lat="39.2946789" lon="16.4415271"><ele>1675.0</ele><time>2026-05-03T11:49:35.77Z</time></trkpt><trkpt lat="39.2947441" lon="16.441597"><ele>1673.0</ele><time>2026-05-03T11:49:51.79Z</time></trkpt><trkpt lat="39.294733" lon="16.441712"><ele>1671.0</ele><time>2026-05-03T11:50:24.767Z</time></trkpt><trkpt lat="39.2946732" lon="16.4418017"><ele>1668.9999999999998</ele><time>2026-05-03T11:50:41.775Z</time></trkpt><trkpt lat="39.2946501" lon="16.4418925"><ele>1667.0</ele><time>2026-05-03T11:50:47.771Z</time></trkpt><trkpt lat="39.2945987" lon="16.4419609"><ele>1666.9999999999998</ele><time>2026-05-03T11:50:50.769Z</time></trkpt><trkpt lat="39.2945353" lon="16.4420525"><ele>1667.0</ele><time>2026-05-03T11:50:55.78Z</time></trkpt><trkpt lat="39.2944768" lon="16.4421001"><ele>1667.0</ele><time>2026-05-03T11:50:58.77Z</time></trkpt><trkpt lat="39.2944096" lon="16.4421358"><ele>1667.0</ele><time>2026-05-03T11:51:00.774Z</time></trkpt><trkpt lat="39.2943476" lon="16.4422046"><ele>1666.9999999999998</ele><time>2026-05-03T11:51:02.785Z</time></trkpt><trkpt lat="39.2942772" lon="16.4422588"><ele>1667.0</ele><time>2026-05-03T11:51:09.772Z</time></trkpt><trkpt lat="39.2942068" lon="16.4422111"><ele>1667.1666666666665</ele><time>2026-05-03T11:51:12.77Z</time></trkpt><trkpt lat="39.2941388" lon="16.4421643"><ele>1667.3333333333333</ele><time>2026-05-03T11:51:15.775Z</time></trkpt><trkpt lat="39.294098" lon="16.4422279"><ele>1667.5</ele><time>2026-05-03T11:51:17.778Z</time></trkpt><trkpt lat="39.2940263" lon="16.4422954"><ele>1667.6666666666665</ele><time>2026-05-03T11:51:19.775Z</time></trkpt><trkpt lat="39.2939611" lon="16.4423773"><ele>1667.8333333333333</ele><time>2026-05-03T11:51:21.766Z</time></trkpt><trkpt lat="39.2938976" lon="16.4424502"><ele>1668.0</ele><time>2026-05-03T11:51:23.774Z</time></trkpt><trkpt lat="39.2938552" lon="16.442512"><ele>1669.6666666666667</ele><time>2026-05-03T11:51:24.77Z</time></trkpt><trkpt lat="39.2939205" lon="16.4424556"><ele>1671.3333333333335</ele><time>2026-05-03T11:51:25.799Z</time></trkpt><trkpt lat="39.2938569" lon="16.4425366"><ele>1673.0</ele><time>2026-05-03T11:51:28.863Z</time></trkpt><trkpt lat="39.2937931" lon="16.4425622"><ele>1674.6666666666667</ele><time>2026-05-03T11:51:30.839Z</time></trkpt><trkpt lat="39.2937432" lon="16.4426219"><ele>1676.3333333333335</ele><time>2026-05-03T11:51:34.797Z</time></trkpt><trkpt lat="39.2936919" lon="16.4426881"><ele>1678.0</ele><time>2026-05-03T11:51:36.782Z</time></trkpt><trkpt lat="39.2936157" lon="16.442736"><ele>1678.0</ele><time>2026-05-03T11:51:39.798Z</time></trkpt><trkpt lat="39.2935544" lon="16.4427709"><ele>1678.0</ele><time>2026-05-03T11:51:43.808Z</time></trkpt><trkpt lat="39.2934768" lon="16.4427851"><ele>1678.0</ele><time>2026-05-03T11:51:46.728Z</time></trkpt><trkpt lat="39.2934037" lon="16.442815"><ele>1678.0</ele><time>2026-05-03T11:51:48.748Z</time></trkpt><trkpt lat="39.2933385" lon="16.442882"><ele>1678.0</ele><time>2026-05-03T11:51:51.768Z</time></trkpt><trkpt lat="39.2932049" lon="16.4430225"><ele>1677.5000000000002</ele><time>2026-05-03T11:51:53.767Z</time></trkpt><trkpt lat="39.2931414" lon="16.4430884"><ele>1677.0</ele><time>2026-05-03T11:51:55.823Z</time></trkpt><trkpt lat="39.2930776" lon="16.4431101"><ele>1676.5</ele><time>2026-05-03T11:51:58.823Z</time></trkpt><trkpt lat="39.2930142" lon="16.4431676"><ele>1676.0</ele><time>2026-05-03T11:52:01.824Z</time></trkpt><trkpt lat="39.2929932" lon="16.4432603"><ele>1675.5000000000002</ele><time>2026-05-03T11:52:06.809Z</time></trkpt><trkpt lat="39.2929731" lon="16.4433568"><ele>1675.0</ele><time>2026-05-03T11:52:09.784Z</time></trkpt><trkpt lat="39.2929857" lon="16.4434613"><ele>1677.3333333333335</ele><time>2026-05-03T11:52:13.831Z</time></trkpt><trkpt lat="39.293023" lon="16.443535"><ele>1679.6666666666667</ele><time>2026-05-03T11:52:16.768Z</time></trkpt><trkpt lat="39.2930625" lon="16.4436447"><ele>1682.0</ele><time>2026-05-03T11:52:19.771Z</time></trkpt><trkpt lat="39.2930811" lon="16.4437265"><ele>1684.3333333333335</ele><time>2026-05-03T11:52:21.793Z</time></trkpt><trkpt lat="39.2930749" lon="16.4438193"><ele>1686.6666666666667</ele><time>2026-05-03T11:52:23.815Z</time></trkpt><trkpt lat="39.2930629" lon="16.4439128"><ele>1689.0</ele><time>2026-05-03T11:52:26.773Z</time></trkpt><trkpt lat="39.2930099" lon="16.4440422"><ele>1689.0</ele><time>2026-05-03T11:53:01.776Z</time></trkpt><trkpt lat="39.2929302" lon="16.4441576"><ele>1689.0</ele><time>2026-05-03T11:53:24.784Z</time></trkpt><trkpt lat="39.292916" lon="16.4442573"><ele>1689.0</ele><time>2026-05-03T11:53:28.775Z</time></trkpt><trkpt lat="39.29288" lon="16.4443376"><ele>1689.0</ele><time>2026-05-03T11:53:46.774Z</time></trkpt><trkpt lat="39.2928256" lon="16.4443914"><ele>1689.0</ele><time>2026-05-03T11:53:49.773Z</time></trkpt><trkpt lat="39.2927523" lon="16.4444266"><ele>1689.0</ele><time>2026-05-03T11:53:52.774Z</time></trkpt><trkpt lat="39.2926909" lon="16.4444734"><ele>1689.0</ele><time>2026-05-03T11:53:55.776Z</time></trkpt><trkpt lat="39.2926229" lon="16.4445227"><ele>1689.0</ele><time>2026-05-03T11:54:00.768Z</time></trkpt><trkpt lat="39.2925593" lon="16.4445891"><ele>1689.0</ele><time>2026-05-03T11:54:07.775Z</time></trkpt><trkpt lat="39.292494" lon="16.4446389"><ele>1689.0</ele><time>2026-05-03T11:54:11.774Z</time></trkpt><trkpt lat="39.2924592" lon="16.4447386"><ele>1689.0</ele><time>2026-05-03T11:54:14.774Z</time></trkpt><trkpt lat="39.2924106" lon="16.4448269"><ele>1689.0</ele><time>2026-05-03T11:54:18.779Z</time></trkpt><trkpt lat="39.2923685" lon="16.4448881"><ele>1690.7142857142858</ele><time>2026-05-03T11:54:25.776Z</time></trkpt><trkpt lat="39.2923045" lon="16.4449213"><ele>1692.4285714285713</ele><time>2026-05-03T11:54:48.784Z</time></trkpt><trkpt lat="39.2923206" lon="16.4448411"><ele>1694.142857142857</ele><time>2026-05-03T11:55:06.77Z</time></trkpt><trkpt lat="39.2922789" lon="16.4449298"><ele>1695.857142857143</ele><time>2026-05-03T11:55:51.783Z</time></trkpt><trkpt lat="39.2923263" lon="16.444857"><ele>1697.5714285714284</ele><time>2026-05-03T11:56:14.77Z</time></trkpt><trkpt lat="39.2923654" lon="16.4449247"><ele>1699.2857142857142</ele><time>2026-05-03T11:56:32.782Z</time></trkpt><trkpt lat="39.2924207" lon="16.4449644"><ele>1701.0</ele><time>2026-05-03T11:56:36.775Z</time></trkpt><trkpt lat="39.2924709" lon="16.4450281"><ele>1701.0</ele><time>2026-05-03T11:56:41.769Z</time></trkpt><trkpt lat="39.2925067" lon="16.4451017"><ele>1701.0</ele><time>2026-05-03T11:56:47.774Z</time></trkpt><trkpt lat="39.2925325" lon="16.4450104"><ele>1701.0</ele><time>2026-05-03T11:57:12.772Z</time></trkpt><trkpt lat="39.2925629" lon="16.4449205"><ele>1701.0</ele><time>2026-05-03T11:57:17.777Z</time></trkpt><trkpt lat="39.2925531" lon="16.4448254"><ele>1701.0</ele><time>2026-05-03T11:57:23.776Z</time></trkpt><trkpt lat="39.2924966" lon="16.4447537"><ele>1701.0</ele><time>2026-05-03T11:57:29.77Z</time></trkpt><trkpt lat="39.2924492" lon="16.4446998"><ele>1701.0</ele><time>2026-05-03T11:57:32.77Z</time></trkpt><trkpt lat="39.2924087" lon="16.4447743"><ele>1701.0</ele><time>2026-05-03T11:57:37.776Z</time></trkpt><trkpt lat="39.2923403" lon="16.4448387"><ele>1701.0</ele><time>2026-05-03T11:57:47.769Z</time></trkpt><trkpt lat="39.2923323" lon="16.4447579"><ele>1701.0</ele><time>2026-05-03T11:58:06.774Z</time></trkpt><trkpt lat="39.2923746" lon="16.4446875"><ele>1701.0</ele><time>2026-05-03T11:58:19.747Z</time></trkpt><trkpt lat="39.2924707" lon="16.4446409"><ele>1701.0</ele><time>2026-05-03T11:58:22.78Z</time></trkpt><trkpt lat="39.2925343" lon="16.4445992"><ele>1701.0</ele><time>2026-05-03T11:58:24.767Z</time></trkpt><trkpt lat="39.2925976" lon="16.4445368"><ele>1699.0</ele><time>2026-05-03T11:58:27.775Z</time></trkpt><trkpt lat="39.2926903" lon="16.4444921"><ele>1697.0</ele><time>2026-05-03T11:58:30.775Z</time></trkpt><trkpt lat="39.2927402" lon="16.4444248"><ele>1695.0</ele><time>2026-05-03T11:58:34.778Z</time></trkpt><trkpt lat="39.2926893" lon="16.4444736"><ele>1693.0</ele><time>2026-05-03T11:58:52.774Z</time></trkpt><trkpt lat="39.2926256" lon="16.4444713"><ele>1691.0</ele><time>2026-05-03T11:58:54.776Z</time></trkpt><trkpt lat="39.292547" lon="16.4445018"><ele>1689.0</ele><time>2026-05-03T11:58:57.773Z</time></trkpt><trkpt lat="39.2925183" lon="16.4446022"><ele>1689.0</ele><time>2026-05-03T11:59:03.775Z</time></trkpt><trkpt lat="39.2924511" lon="16.4446483"><ele>1689.0</ele><time>2026-05-03T11:59:06.785Z</time></trkpt><trkpt lat="39.2924018" lon="16.4447001"><ele>1689.0</ele><time>2026-05-03T11:59:09.771Z</time></trkpt><trkpt lat="39.2923886" lon="16.444786"><ele>1689.0</ele><time>2026-05-03T11:59:12.777Z</time></trkpt><trkpt lat="39.2923709" lon="16.4447011"><ele>1689.0</ele><time>2026-05-03T11:59:51.773Z</time></trkpt><trkpt lat="39.292418" lon="16.4446257"><ele>1689.0</ele><time>2026-05-03T12:00:00.787Z</time></trkpt><trkpt lat="39.2924989" lon="16.4446175"><ele>1689.0</ele><time>2026-05-03T12:00:03.772Z</time></trkpt><trkpt lat="39.2925586" lon="16.4445797"><ele>1689.0</ele><time>2026-05-03T12:00:07.767Z</time></trkpt><trkpt lat="39.2926137" lon="16.444528"><ele>1689.0</ele><time>2026-05-03T12:00:11.787Z</time></trkpt><trkpt lat="39.2926104" lon="16.4444384"><ele>1689.0</ele><time>2026-05-03T12:00:16.795Z</time></trkpt><trkpt lat="39.2926289" lon="16.4443461"><ele>1689.0</ele><time>2026-05-03T12:01:58.753Z</time></trkpt><trkpt lat="39.2926656" lon="16.4442545"><ele>1689.0</ele><time>2026-05-03T12:02:00.773Z</time></trkpt><trkpt lat="39.2927058" lon="16.4441879"><ele>1689.0</ele><time>2026-05-03T12:02:02.777Z</time></trkpt><trkpt lat="39.2927692" lon="16.4440916"><ele>1689.0</ele><time>2026-05-03T12:02:04.773Z</time></trkpt><trkpt lat="39.292805" lon="16.4440059"><ele>1689.0</ele><time>2026-05-03T12:02:06.775Z</time></trkpt><trkpt lat="39.2928453" lon="16.4439016"><ele>1689.0</ele><time>2026-05-03T12:02:09.771Z</time></trkpt><trkpt lat="39.2928725" lon="16.4437947"><ele>1689.0</ele><time>2026-05-03T12:02:11.769Z</time></trkpt><trkpt lat="39.2928769" lon="16.4436996"><ele>1689.0</ele><time>2026-05-03T12:02:14.78Z</time></trkpt><trkpt lat="39.2928969" lon="16.443622"><ele>1689.0</ele><time>2026-05-03T12:02:16.79Z</time></trkpt><trkpt lat="39.2929223" lon="16.4435204"><ele>1689.0</ele><time>2026-05-03T12:02:19.782Z</time></trkpt><trkpt lat="39.2929367" lon="16.4434286"><ele>1689.0</ele><time>2026-05-03T12:02:23.772Z</time></trkpt><trkpt lat="39.2929717" lon="16.4433503"><ele>1689.0</ele><time>2026-05-03T12:02:29.775Z</time></trkpt><trkpt lat="39.2930438" lon="16.4433532"><ele>1689.0</ele><time>2026-05-03T12:02:33.776Z</time></trkpt><trkpt lat="39.2931069" lon="16.4433554"><ele>1689.0</ele><time>2026-05-03T12:02:37.778Z</time></trkpt><trkpt lat="39.2931743" lon="16.4433175"><ele>1689.0</ele><time>2026-05-03T12:02:43.78Z</time></trkpt><trkpt lat="39.2932279" lon="16.4432524"><ele>1689.0</ele><time>2026-05-03T12:02:47.778Z</time></trkpt><trkpt lat="39.2932895" lon="16.4432065"><ele>1687.4285714285716</ele><time>2026-05-03T12:02:50.771Z</time></trkpt><trkpt lat="39.293328" lon="16.4431392"><ele>1685.8571428571427</ele><time>2026-05-03T12:02:52.772Z</time></trkpt><trkpt lat="39.2933622" lon="16.4430335"><ele>1684.2857142857142</ele><time>2026-05-03T12:02:54.779Z</time></trkpt><trkpt lat="39.2933351" lon="16.4429363"><ele>1682.7142857142858</ele><time>2026-05-03T12:02:56.775Z</time></trkpt><trkpt lat="39.2933788" lon="16.4428607"><ele>1681.1428571428573</ele><time>2026-05-03T12:02:59.773Z</time></trkpt><trkpt lat="39.2934425" lon="16.4428522"><ele>1679.5714285714284</ele><time>2026-05-03T12:03:01.775Z</time></trkpt><trkpt lat="39.2934958" lon="16.4428063"><ele>1678.0</ele><time>2026-05-03T12:03:03.78Z</time></trkpt><trkpt lat="39.2935623" lon="16.4427409"><ele>1678.0000000000002</ele><time>2026-05-03T12:03:06.773Z</time></trkpt><trkpt lat="39.2936184" lon="16.4426578"><ele>1678.0</ele><time>2026-05-03T12:03:08.778Z</time></trkpt><trkpt lat="39.2937054" lon="16.4425296"><ele>1678.0</ele><time>2026-05-03T12:03:10.78Z</time></trkpt><trkpt lat="39.2937614" lon="16.44248"><ele>1678.0</ele><time>2026-05-03T12:03:11.782Z</time></trkpt><trkpt lat="39.2938149" lon="16.442426"><ele>1678.0000000000002</ele><time>2026-05-03T12:03:13.773Z</time></trkpt><trkpt lat="39.2938633" lon="16.4423548"><ele>1678.0</ele><time>2026-05-03T12:03:15.773Z</time></trkpt><trkpt lat="39.2939118" lon="16.4422974"><ele>1676.3333333333335</ele><time>2026-05-03T12:03:16.771Z</time></trkpt><trkpt lat="39.2939628" lon="16.442234"><ele>1674.6666666666667</ele><time>2026-05-03T12:03:17.772Z</time></trkpt><trkpt lat="39.2939989" lon="16.4421503"><ele>1673.0</ele><time>2026-05-03T12:03:18.764Z</time></trkpt><trkpt lat="39.2940332" lon="16.4420722"><ele>1671.3333333333335</ele><time>2026-05-03T12:03:19.775Z</time></trkpt><trkpt lat="39.2940905" lon="16.4420303"><ele>1669.6666666666667</ele><time>2026-05-03T12:03:20.766Z</time></trkpt><trkpt lat="39.2941606" lon="16.4419819"><ele>1668.0</ele><time>2026-05-03T12:03:22.77Z</time></trkpt><trkpt lat="39.2942461" lon="16.4419251"><ele>1667.8333333333333</ele><time>2026-05-03T12:03:24.773Z</time></trkpt><trkpt lat="39.2943117" lon="16.4418957"><ele>1667.6666666666665</ele><time>2026-05-03T12:03:26.788Z</time></trkpt><trkpt lat="39.2943802" lon="16.4418453"><ele>1667.5</ele><time>2026-05-03T12:03:29.778Z</time></trkpt><trkpt lat="39.2944553" lon="16.4417741"><ele>1667.3333333333333</ele><time>2026-05-03T12:03:38.805Z</time></trkpt><trkpt lat="39.2945265" lon="16.441726"><ele>1667.1666666666665</ele><time>2026-05-03T12:03:45.77Z</time></trkpt><trkpt lat="39.2945848" lon="16.4416411"><ele>1667.0</ele><time>2026-05-03T12:03:47.778Z</time></trkpt><trkpt lat="39.2946747" lon="16.441602"><ele>1666.9999999999998</ele><time>2026-05-03T12:03:49.777Z</time></trkpt><trkpt lat="39.2947332" lon="16.441639"><ele>1667.0</ele><time>2026-05-03T12:03:50.78Z</time></trkpt><trkpt lat="39.2947953" lon="16.4416888"><ele>1667.0</ele><time>2026-05-03T12:03:51.771Z</time></trkpt><trkpt lat="39.2948934" lon="16.4417535"><ele>1667.0</ele><time>2026-05-03T12:03:53.767Z</time></trkpt><trkpt lat="39.2949591" lon="16.4417682"><ele>1666.9999999999998</ele><time>2026-05-03T12:03:54.765Z</time></trkpt><trkpt lat="39.2950659" lon="16.4417975"><ele>1667.0</ele><time>2026-05-03T12:03:59.776Z</time></trkpt><trkpt lat="39.2951354" lon="16.4418266"><ele>1666.5714285714287</ele><time>2026-05-03T12:04:01.779Z</time></trkpt><trkpt lat="39.2952045" lon="16.4418529"><ele>1666.1428571428573</ele><time>2026-05-03T12:04:02.775Z</time></trkpt><trkpt lat="39.2952778" lon="16.4418934"><ele>1665.7142857142858</ele><time>2026-05-03T12:04:03.785Z</time></trkpt><trkpt lat="39.29535" lon="16.4419075"><ele>1665.2857142857142</ele><time>2026-05-03T12:04:04.782Z</time></trkpt><trkpt lat="39.2954148" lon="16.4419195"><ele>1664.857142857143</ele><time>2026-05-03T12:04:05.772Z</time></trkpt><trkpt lat="39.2954909" lon="16.4419284"><ele>1664.4285714285713</ele><time>2026-05-03T12:04:06.772Z</time></trkpt><trkpt lat="39.2955637" lon="16.4419094"><ele>1664.0</ele><time>2026-05-03T12:04:07.771Z</time></trkpt><trkpt lat="39.295635" lon="16.441899"><ele>1663.4</ele><time>2026-05-03T12:04:08.766Z</time></trkpt><trkpt lat="39.2957075" lon="16.4418984"><ele>1662.8000000000002</ele><time>2026-05-03T12:04:09.786Z</time></trkpt><trkpt lat="39.2957777" lon="16.4419016"><ele>1662.1999999999998</ele><time>2026-05-03T12:04:10.77Z</time></trkpt><trkpt lat="39.2958511" lon="16.4419039"><ele>1661.6</ele><time>2026-05-03T12:04:11.772Z</time></trkpt><trkpt lat="39.2959732" lon="16.4419058"><ele>1661.0</ele><time>2026-05-03T12:04:13.771Z</time></trkpt><trkpt lat="39.2960893" lon="16.44192"><ele>1660.9999999999998</ele><time>2026-05-03T12:04:15.773Z</time></trkpt><trkpt lat="39.2961894" lon="16.4419585"><ele>1661.0</ele><time>2026-05-03T12:04:17.772Z</time></trkpt><trkpt lat="39.2962606" lon="16.4419246"><ele>1661.0</ele><time>2026-05-03T12:04:19.77Z</time></trkpt><trkpt lat="39.2963584" lon="16.4418947"><ele>1661.0</ele><time>2026-05-03T12:04:21.774Z</time></trkpt><trkpt lat="39.2964225" lon="16.4418987"><ele>1660.9999999999998</ele><time>2026-05-03T12:04:22.767Z</time></trkpt><trkpt lat="39.2965016" lon="16.4419114"><ele>1661.0</ele><time>2026-05-03T12:04:23.769Z</time></trkpt><trkpt lat="39.2965764" lon="16.4419339"><ele>1659.0</ele><time>2026-05-03T12:04:24.781Z</time></trkpt><trkpt lat="39.2966395" lon="16.4419706"><ele>1657.0</ele><time>2026-05-03T12:04:25.766Z</time></trkpt><trkpt lat="39.2967294" lon="16.4420446"><ele>1655.0</ele><time>2026-05-03T12:04:27.766Z</time></trkpt><trkpt lat="39.2968069" lon="16.4421049"><ele>1653.0</ele><time>2026-05-03T12:04:29.774Z</time></trkpt><trkpt lat="39.2969086" lon="16.4421569"><ele>1651.0</ele><time>2026-05-03T12:04:31.787Z</time></trkpt><trkpt lat="39.296988" lon="16.442199"><ele>1650.4</ele><time>2026-05-03T12:04:33.768Z</time></trkpt><trkpt lat="39.2970763" lon="16.4422273"><ele>1649.8</ele><time>2026-05-03T12:04:35.78Z</time></trkpt><trkpt lat="39.2971995" lon="16.4422318"><ele>1649.2</ele><time>2026-05-03T12:04:37.774Z</time></trkpt><trkpt lat="39.297311" lon="16.4422482"><ele>1648.6000000000001</ele><time>2026-05-03T12:04:39.772Z</time></trkpt><trkpt lat="39.2973925" lon="16.4422702"><ele>1648.0</ele><time>2026-05-03T12:04:41.771Z</time></trkpt><trkpt lat="39.2974602" lon="16.4422871"><ele>1646.3333333333335</ele><time>2026-05-03T12:04:45.785Z</time></trkpt><trkpt lat="39.2975666" lon="16.4422714"><ele>1644.6666666666667</ele><time>2026-05-03T12:04:52.778Z</time></trkpt><trkpt lat="39.2976864" lon="16.4422154"><ele>1643.0</ele><time>2026-05-03T12:04:54.766Z</time></trkpt><trkpt lat="39.2977501" lon="16.4421897"><ele>1641.3333333333335</ele><time>2026-05-03T12:04:55.779Z</time></trkpt><trkpt lat="39.2978154" lon="16.4421725"><ele>1639.6666666666667</ele><time>2026-05-03T12:04:56.771Z</time></trkpt><trkpt lat="39.2978807" lon="16.4421592"><ele>1638.0</ele><time>2026-05-03T12:04:57.771Z</time></trkpt><trkpt lat="39.2979475" lon="16.4421447"><ele>1638.4</ele><time>2026-05-03T12:04:58.772Z</time></trkpt><trkpt lat="39.2980099" lon="16.4421311"><ele>1638.8000000000002</ele><time>2026-05-03T12:04:59.769Z</time></trkpt><trkpt lat="39.298122" lon="16.4421008"><ele>1639.2</ele><time>2026-05-03T12:05:01.772Z</time></trkpt><trkpt lat="39.2982008" lon="16.4420939"><ele>1639.6</ele><time>2026-05-03T12:05:03.772Z</time></trkpt><trkpt lat="39.2982883" lon="16.4421256"><ele>1640.0</ele><time>2026-05-03T12:05:05.785Z</time></trkpt><trkpt lat="39.2984082" lon="16.4421428"><ele>1639.9999999999998</ele><time>2026-05-03T12:05:07.77Z</time></trkpt><trkpt lat="39.2985048" lon="16.4421651"><ele>1640.0</ele><time>2026-05-03T12:05:09.77Z</time></trkpt><trkpt lat="39.2985715" lon="16.4421943"><ele>1640.0</ele><time>2026-05-03T12:05:11.775Z</time></trkpt><trkpt lat="39.2986654" lon="16.4421912"><ele>1640.0</ele><time>2026-05-03T12:05:13.784Z</time></trkpt><trkpt lat="39.2987443" lon="16.4421769"><ele>1639.9999999999998</ele><time>2026-05-03T12:05:15.778Z</time></trkpt><trkpt lat="39.2988287" lon="16.442177"><ele>1640.0</ele><time>2026-05-03T12:05:17.776Z</time></trkpt><trkpt lat="39.2989141" lon="16.4422158"><ele>1639.4</ele><time>2026-05-03T12:05:19.77Z</time></trkpt><trkpt lat="39.2990077" lon="16.4422832"><ele>1638.8</ele><time>2026-05-03T12:05:21.768Z</time></trkpt><trkpt lat="39.2990785" lon="16.4423405"><ele>1638.1999999999998</ele><time>2026-05-03T12:05:23.77Z</time></trkpt><trkpt lat="39.2991714" lon="16.4424182"><ele>1637.6</ele><time>2026-05-03T12:05:25.766Z</time></trkpt><trkpt lat="39.2992766" lon="16.4425149"><ele>1637.0</ele><time>2026-05-03T12:05:27.782Z</time></trkpt><trkpt lat="39.2993418" lon="16.4425647"><ele>1637.0</ele><time>2026-05-03T12:05:28.769Z</time></trkpt><trkpt lat="39.2994068" lon="16.4426222"><ele>1637.0</ele><time>2026-05-03T12:05:29.764Z</time></trkpt><trkpt lat="39.2994661" lon="16.4426746"><ele>1637.0</ele><time>2026-05-03T12:05:30.771Z</time></trkpt><trkpt lat="39.2995249" lon="16.442725"><ele>1637.0</ele><time>2026-05-03T12:05:31.77Z</time></trkpt><trkpt lat="39.2995838" lon="16.4427701"><ele>1637.0</ele><time>2026-05-03T12:05:32.775Z</time></trkpt><trkpt lat="39.2996481" lon="16.4428098"><ele>1637.0</ele><time>2026-05-03T12:05:33.77Z</time></trkpt><trkpt lat="39.2997172" lon="16.4428477"><ele>1637.0</ele><time>2026-05-03T12:05:34.779Z</time></trkpt><trkpt lat="39.2997782" lon="16.4428814"><ele>1636.8</ele><time>2026-05-03T12:05:35.767Z</time></trkpt><trkpt lat="39.2998997" lon="16.4429258"><ele>1636.6</ele><time>2026-05-03T12:05:37.77Z</time></trkpt><trkpt lat="39.2999601" lon="16.4429551"><ele>1636.3999999999999</ele><time>2026-05-03T12:05:38.766Z</time></trkpt><trkpt lat="39.3000747" lon="16.4430046"><ele>1636.1999999999998</ele><time>2026-05-03T12:05:40.762Z</time></trkpt><trkpt lat="39.30016" lon="16.4430458"><ele>1636.0</ele><time>2026-05-03T12:05:42.767Z</time></trkpt><trkpt lat="39.3002369" lon="16.4430446"><ele>1634.1666666666667</ele><time>2026-05-03T12:05:46.77Z</time></trkpt><trkpt lat="39.300323" lon="16.4430451"><ele>1632.3333333333335</ele><time>2026-05-03T12:05:48.77Z</time></trkpt><trkpt lat="39.3004006" lon="16.4430539"><ele>1630.5</ele><time>2026-05-03T12:05:50.771Z</time></trkpt><trkpt lat="39.3004887" lon="16.4430262"><ele>1628.6666666666665</ele><time>2026-05-03T12:05:52.769Z</time></trkpt><trkpt lat="39.3005554" lon="16.4429978"><ele>1626.8333333333333</ele><time>2026-05-03T12:05:54.763Z</time></trkpt><trkpt lat="39.3006252" lon="16.4429757"><ele>1625.0</ele><time>2026-05-03T12:05:57.767Z</time></trkpt><trkpt lat="39.3006839" lon="16.4430125"><ele>1624.3333333333333</ele><time>2026-05-03T12:06:00.765Z</time></trkpt><trkpt lat="39.300761" lon="16.4430387"><ele>1623.6666666666665</ele><time>2026-05-03T12:06:02.775Z</time></trkpt><trkpt lat="39.3008259" lon="16.4430631"><ele>1623.0</ele><time>2026-05-03T12:06:04.776Z</time></trkpt><trkpt lat="39.3009128" lon="16.4431118"><ele>1622.3333333333335</ele><time>2026-05-03T12:06:07.777Z</time></trkpt><trkpt lat="39.3009777" lon="16.4431369"><ele>1621.6666666666667</ele><time>2026-05-03T12:06:09.776Z</time></trkpt><trkpt lat="39.3010597" lon="16.4431422"><ele>1621.0</ele><time>2026-05-03T12:06:11.777Z</time></trkpt><trkpt lat="39.301147" lon="16.4431828"><ele>1621.0</ele><time>2026-05-03T12:06:13.768Z</time></trkpt><trkpt lat="39.3012468" lon="16.4432363"><ele>1621.0</ele><time>2026-05-03T12:06:15.778Z</time></trkpt><trkpt lat="39.3013592" lon="16.4432674"><ele>1621.0</ele><time>2026-05-03T12:06:17.777Z</time></trkpt><trkpt lat="39.301447" lon="16.4432776"><ele>1621.0</ele><time>2026-05-03T12:06:19.775Z</time></trkpt><trkpt lat="39.3015407" lon="16.443273"><ele>1621.0</ele><time>2026-05-03T12:06:21.771Z</time></trkpt><trkpt lat="39.3016331" lon="16.4432382"><ele>1621.5000000000002</ele><time>2026-05-03T12:06:23.778Z</time></trkpt><trkpt lat="39.3016962" lon="16.4432448"><ele>1622.0</ele><time>2026-05-03T12:06:25.776Z</time></trkpt><trkpt lat="39.3017674" lon="16.4432326"><ele>1622.5</ele><time>2026-05-03T12:06:27.774Z</time></trkpt><trkpt lat="39.3018638" lon="16.443182"><ele>1623.0</ele><time>2026-05-03T12:06:29.775Z</time></trkpt><trkpt lat="39.3019411" lon="16.4431191"><ele>1623.5000000000002</ele><time>2026-05-03T12:06:31.774Z</time></trkpt><trkpt lat="39.3020039" lon="16.4430926"><ele>1624.0</ele><time>2026-05-03T12:06:38.805Z</time></trkpt><trkpt lat="39.3019555" lon="16.4430236"><ele>1624.0</ele><time>2026-05-03T12:06:52.769Z</time></trkpt><trkpt lat="39.3018964" lon="16.4430634"><ele>1624.0</ele><time>2026-05-03T12:06:53.772Z</time></trkpt><trkpt lat="39.3018214" lon="16.4431545"><ele>1624.0</ele><time>2026-05-03T12:06:55.783Z</time></trkpt><trkpt lat="39.3017986" lon="16.4432355"><ele>1624.0</ele><time>2026-05-03T12:06:57.771Z</time></trkpt><trkpt lat="39.3018331" lon="16.4433151"><ele>1624.0</ele><time>2026-05-03T12:07:00.772Z</time></trkpt><trkpt lat="39.3018735" lon="16.4433898"><ele>1624.0</ele><time>2026-05-03T12:07:05.786Z</time></trkpt><trkpt lat="39.3019201" lon="16.4434547"><ele>1624.0</ele><time>2026-05-03T12:07:09.766Z</time></trkpt><trkpt lat="39.3019513" lon="16.4435473"><ele>1624.0000000000002</ele><time>2026-05-03T12:07:11.772Z</time></trkpt><trkpt lat="39.3019513" lon="16.4436885"><ele>1624.0</ele><time>2026-05-03T12:07:13.772Z</time></trkpt><trkpt lat="39.3019406" lon="16.4437806"><ele>1624.0</ele><time>2026-05-03T12:07:15.774Z</time></trkpt><trkpt lat="39.3019321" lon="16.443868"><ele>1624.0</ele><time>2026-05-03T12:07:17.774Z</time></trkpt><trkpt lat="39.3019344" lon="16.4439707"><ele>1624.0000000000002</ele><time>2026-05-03T12:07:19.773Z</time></trkpt><trkpt lat="39.301945" lon="16.4440679"><ele>1624.0</ele><time>2026-05-03T12:07:22.817Z</time></trkpt><trkpt lat="39.3019931" lon="16.444139"><ele>1623.5000000000002</ele><time>2026-05-03T12:07:25.797Z</time></trkpt><trkpt lat="39.3020541" lon="16.4441821"><ele>1623.0</ele><time>2026-05-03T12:07:28.798Z</time></trkpt><trkpt lat="39.3020752" lon="16.444283"><ele>1622.5</ele><time>2026-05-03T12:07:31.857Z</time></trkpt><trkpt lat="39.3021415" lon="16.4443424"><ele>1622.0</ele><time>2026-05-03T12:07:47.842Z</time></trkpt><trkpt lat="39.3021948" lon="16.4444633"><ele>1621.5000000000002</ele><time>2026-05-03T12:07:51.769Z</time></trkpt><trkpt lat="39.302231" lon="16.4445504"><ele>1621.0</ele><time>2026-05-03T12:07:53.776Z</time></trkpt><trkpt lat="39.3022491" lon="16.4446351"><ele>1620.8</ele><time>2026-05-03T12:07:54.766Z</time></trkpt><trkpt lat="39.3023125" lon="16.4447582"><ele>1620.6</ele><time>2026-05-03T12:07:56.768Z</time></trkpt><trkpt lat="39.3023916" lon="16.4448574"><ele>1620.4</ele><time>2026-05-03T12:07:58.767Z</time></trkpt><trkpt lat="39.302465" lon="16.4449053"><ele>1620.2</ele><time>2026-05-03T12:08:00.769Z</time></trkpt><trkpt lat="39.3025447" lon="16.4449388"><ele>1620.0</ele><time>2026-05-03T12:08:02.776Z</time></trkpt><trkpt lat="39.3026002" lon="16.4449838"><ele>1620.0</ele><time>2026-05-03T12:08:03.77Z</time></trkpt><trkpt lat="39.3026652" lon="16.4450321"><ele>1620.0</ele><time>2026-05-03T12:08:04.769Z</time></trkpt><trkpt lat="39.3027238" lon="16.4450838"><ele>1620.0</ele><time>2026-05-03T12:08:05.763Z</time></trkpt><trkpt lat="39.3028069" lon="16.4451607"><ele>1620.0</ele><time>2026-05-03T12:08:07.764Z</time></trkpt><trkpt lat="39.3028624" lon="16.4451999"><ele>1620.0</ele><time>2026-05-03T12:08:12.764Z</time></trkpt><trkpt lat="39.3029177" lon="16.4452689"><ele>1620.0</ele><time>2026-05-03T12:08:14.77Z</time></trkpt><trkpt lat="39.3029894" lon="16.445347"><ele>1619.9999999999998</ele><time>2026-05-03T12:08:17.765Z</time></trkpt><trkpt lat="39.3030016" lon="16.445428"><ele>1620.0</ele><time>2026-05-03T12:08:24.773Z</time></trkpt><trkpt lat="39.3029756" lon="16.4455246"><ele>1620.0</ele><time>2026-05-03T12:08:26.768Z</time></trkpt><trkpt lat="39.3029936" lon="16.4456106"><ele>1620.0</ele><time>2026-05-03T12:08:34.769Z</time></trkpt><trkpt lat="39.3030633" lon="16.4456454"><ele>1620.0</ele><time>2026-05-03T12:08:56.769Z</time></trkpt><trkpt lat="39.3031388" lon="16.4456884"><ele>1619.9999999999998</ele><time>2026-05-03T12:09:00.772Z</time></trkpt><trkpt lat="39.3032042" lon="16.4457279"><ele>1620.0</ele><time>2026-05-03T12:09:02.785Z</time></trkpt><trkpt lat="39.303267" lon="16.4457549"><ele>1620.1666666666667</ele><time>2026-05-03T12:09:04.771Z</time></trkpt><trkpt lat="39.3033412" lon="16.445728"><ele>1620.3333333333335</ele><time>2026-05-03T12:09:08.767Z</time></trkpt><trkpt lat="39.3033363" lon="16.4456431"><ele>1620.5</ele><time>2026-05-03T12:09:14.777Z</time></trkpt><trkpt lat="39.3032725" lon="16.4455245"><ele>1620.6666666666667</ele><time>2026-05-03T12:09:16.769Z</time></trkpt><trkpt lat="39.3032359" lon="16.4454482"><ele>1620.8333333333335</ele><time>2026-05-03T12:09:17.771Z</time></trkpt><trkpt lat="39.3031869" lon="16.4453382"><ele>1621.0</ele><time>2026-05-03T12:09:19.759Z</time></trkpt><trkpt lat="39.3031574" lon="16.4452278"><ele>1620.8333333333335</ele><time>2026-05-03T12:09:22.776Z</time></trkpt><trkpt lat="39.3031056" lon="16.4451259"><ele>1620.6666666666667</ele><time>2026-05-03T12:09:25.766Z</time></trkpt><trkpt lat="39.303079" lon="16.4450439"><ele>1620.5</ele><time>2026-05-03T12:09:27.772Z</time></trkpt><trkpt lat="39.3030216" lon="16.4449305"><ele>1620.3333333333335</ele><time>2026-05-03T12:09:30.768Z</time></trkpt><trkpt lat="39.3029535" lon="16.4448663"><ele>1620.1666666666667</ele><time>2026-05-03T12:09:32.782Z</time></trkpt><trkpt lat="39.3028795" lon="16.444837"><ele>1620.0</ele><time>2026-05-03T12:09:34.771Z</time></trkpt><trkpt lat="39.3027747" lon="16.4447948"><ele>1620.0</ele><time>2026-05-03T12:09:36.77Z</time></trkpt><trkpt lat="39.3027268" lon="16.4447107"><ele>1620.0</ele><time>2026-05-03T12:09:38.77Z</time></trkpt><trkpt lat="39.30269" lon="16.4446259"><ele>1620.0</ele><time>2026-05-03T12:09:40.771Z</time></trkpt><trkpt lat="39.3026417" lon="16.4445287"><ele>1620.0</ele><time>2026-05-03T12:09:42.779Z</time></trkpt><trkpt lat="39.3026085" lon="16.4444579"><ele>1620.0</ele><time>2026-05-03T12:09:45.745Z</time></trkpt><trkpt lat="39.302584" lon="16.4443394"><ele>1620.0</ele><time>2026-05-03T12:09:47.778Z</time></trkpt><trkpt lat="39.3025557" lon="16.4442479"><ele>1619.7142857142856</ele><time>2026-05-03T12:09:49.776Z</time></trkpt><trkpt lat="39.3025958" lon="16.4441822"><ele>1619.4285714285713</ele><time>2026-05-03T12:10:05.78Z</time></trkpt><trkpt lat="39.3026641" lon="16.4441934"><ele>1619.142857142857</ele><time>2026-05-03T12:10:09.771Z</time></trkpt><trkpt lat="39.3027324" lon="16.4442466"><ele>1618.8571428571427</ele><time>2026-05-03T12:10:12.771Z</time></trkpt><trkpt lat="39.3027709" lon="16.4443212"><ele>1618.5714285714287</ele><time>2026-05-03T12:18:14.769Z</time></trkpt><trkpt lat="39.3027943" lon="16.4444013"><ele>1618.2857142857142</ele><time>2026-05-03T12:18:16.779Z</time></trkpt><trkpt lat="39.3028137" lon="16.4444967"><ele>1618.0</ele><time>2026-05-03T12:18:19.773Z</time></trkpt><trkpt lat="39.3028484" lon="16.4445804"><ele>1618.3333333333335</ele><time>2026-05-03T12:18:22.774Z</time></trkpt><trkpt lat="39.3028273" lon="16.4446851"><ele>1618.6666666666667</ele><time>2026-05-03T12:18:26.774Z</time></trkpt><trkpt lat="39.3028659" lon="16.4447953"><ele>1619.0</ele><time>2026-05-03T12:18:29.773Z</time></trkpt><trkpt lat="39.3029543" lon="16.4448561"><ele>1619.3333333333335</ele><time>2026-05-03T12:18:31.779Z</time></trkpt><trkpt lat="39.3030196" lon="16.4448782"><ele>1619.6666666666667</ele><time>2026-05-03T12:18:32.763Z</time></trkpt><trkpt lat="39.3030781" lon="16.4449487"><ele>1620.0</ele><time>2026-05-03T12:18:34.773Z</time></trkpt><trkpt lat="39.3031121" lon="16.4450271"><ele>1620.2</ele><time>2026-05-03T12:18:37.772Z</time></trkpt><trkpt lat="39.3030864" lon="16.4451077"><ele>1620.4</ele><time>2026-05-03T12:18:54.776Z</time></trkpt><trkpt lat="39.3031313" lon="16.4452235"><ele>1620.6</ele><time>2026-05-03T12:18:57.772Z</time></trkpt><trkpt lat="39.3031915" lon="16.4453388"><ele>1620.8</ele><time>2026-05-03T12:18:59.772Z</time></trkpt><trkpt lat="39.3032325" lon="16.4454394"><ele>1621.0</ele><time>2026-05-03T12:19:01.769Z</time></trkpt><trkpt lat="39.3032828" lon="16.4455364"><ele>1621.0000000000002</ele><time>2026-05-03T12:19:11.775Z</time></trkpt><trkpt lat="39.3033345" lon="16.4455893"><ele>1621.0</ele><time>2026-05-03T12:19:15.782Z</time></trkpt><trkpt lat="39.3033895" lon="16.4456468"><ele>1621.0</ele><time>2026-05-03T12:19:19.775Z</time></trkpt><trkpt lat="39.3033868" lon="16.4457451"><ele>1621.0</ele><time>2026-05-03T12:19:30.776Z</time></trkpt><trkpt lat="39.3034029" lon="16.4458349"><ele>1621.0</ele><time>2026-05-03T12:19:32.785Z</time></trkpt><trkpt lat="39.3034644" lon="16.4458084"><ele>1621.0000000000002</ele><time>2026-05-03T12:19:50.781Z</time></trkpt><trkpt lat="39.3033892" lon="16.4458702"><ele>1621.0</ele><time>2026-05-03T12:20:25.779Z</time></trkpt><trkpt lat="39.3033245" lon="16.4458173"><ele>1621.0000000000002</ele><time>2026-05-03T12:20:28.783Z</time></trkpt><trkpt lat="39.3032557" lon="16.4457588"><ele>1621.0</ele><time>2026-05-03T12:20:32.774Z</time></trkpt><trkpt lat="39.3032255" lon="16.4456714"><ele>1621.0</ele><time>2026-05-03T12:20:56.784Z</time></trkpt><trkpt lat="39.3031793" lon="16.445603"><ele>1621.0</ele><time>2026-05-03T12:20:59.775Z</time></trkpt><trkpt lat="39.3031279" lon="16.4455251"><ele>1621.0000000000002</ele><time>2026-05-03T12:21:01.773Z</time></trkpt><trkpt lat="39.3031008" lon="16.4454187"><ele>1621.0</ele><time>2026-05-03T12:21:03.773Z</time></trkpt><trkpt lat="39.3030915" lon="16.445313"><ele>1620.8333333333335</ele><time>2026-05-03T12:21:05.778Z</time></trkpt><trkpt lat="39.3030607" lon="16.4452318"><ele>1620.6666666666667</ele><time>2026-05-03T12:21:07.769Z</time></trkpt><trkpt lat="39.3029366" lon="16.4451765"><ele>1620.5</ele><time>2026-05-03T12:21:09.763Z</time></trkpt><trkpt lat="39.3028571" lon="16.4451384"><ele>1620.3333333333335</ele><time>2026-05-03T12:21:10.784Z</time></trkpt><trkpt lat="39.3027875" lon="16.4450921"><ele>1620.1666666666667</ele><time>2026-05-03T12:21:11.762Z</time></trkpt><trkpt lat="39.3027188" lon="16.4450545"><ele>1620.0</ele><time>2026-05-03T12:21:12.772Z</time></trkpt><trkpt lat="39.3026615" lon="16.4450198"><ele>1620.0</ele><time>2026-05-03T12:21:13.771Z</time></trkpt><trkpt lat="39.3025739" lon="16.4449032"><ele>1620.0</ele><time>2026-05-03T12:21:15.783Z</time></trkpt><trkpt lat="39.3025301" lon="16.4447931"><ele>1620.0</ele><time>2026-05-03T12:21:17.774Z</time></trkpt><trkpt lat="39.3024475" lon="16.4447371"><ele>1620.0</ele><time>2026-05-03T12:21:19.778Z</time></trkpt><trkpt lat="39.3023465" lon="16.4447136"><ele>1620.0</ele><time>2026-05-03T12:21:21.77Z</time></trkpt><trkpt lat="39.302243" lon="16.4446104"><ele>1620.2</ele><time>2026-05-03T12:21:23.767Z</time></trkpt><trkpt lat="39.302144" lon="16.4445527"><ele>1620.4</ele><time>2026-05-03T12:21:25.773Z</time></trkpt><trkpt lat="39.3020675" lon="16.4445065"><ele>1620.6</ele><time>2026-05-03T12:21:27.771Z</time></trkpt><trkpt lat="39.3019595" lon="16.4444522"><ele>1620.8</ele><time>2026-05-03T12:21:29.776Z</time></trkpt><trkpt lat="39.3018483" lon="16.4444187"><ele>1621.0</ele><time>2026-05-03T12:21:31.767Z</time></trkpt><trkpt lat="39.3017538" lon="16.4444238"><ele>1621.0000000000002</ele><time>2026-05-03T12:21:33.777Z</time></trkpt><trkpt lat="39.3016904" lon="16.4444531"><ele>1621.0</ele><time>2026-05-03T12:21:42.693Z</time></trkpt><trkpt lat="39.3016806" lon="16.4445453"><ele>1621.0</ele><time>2026-05-03T12:21:46.819Z</time></trkpt><trkpt lat="39.3017124" lon="16.444632"><ele>1621.0</ele><time>2026-05-03T12:21:50.778Z</time></trkpt><trkpt lat="39.3017828" lon="16.4446485"><ele>1621.0</ele><time>2026-05-03T12:21:53.778Z</time></trkpt><trkpt lat="39.3018458" lon="16.4446629"><ele>1621.0000000000002</ele><time>2026-05-03T12:21:56.777Z</time></trkpt><trkpt lat="39.3018914" lon="16.4447493"><ele>1621.0</ele><time>2026-05-03T12:22:10.778Z</time></trkpt><trkpt lat="39.3019997" lon="16.4448764"><ele>1620.8333333333335</ele><time>2026-05-03T12:22:12.776Z</time></trkpt><trkpt lat="39.3020846" lon="16.4449575"><ele>1620.6666666666667</ele><time>2026-05-03T12:22:13.777Z</time></trkpt><trkpt lat="39.3021659" lon="16.4450159"><ele>1620.5</ele><time>2026-05-03T12:22:14.779Z</time></trkpt><trkpt lat="39.3022436" lon="16.445065"><ele>1620.3333333333335</ele><time>2026-05-03T12:22:15.773Z</time></trkpt><trkpt lat="39.302313" lon="16.4451098"><ele>1620.1666666666667</ele><time>2026-05-03T12:22:16.766Z</time></trkpt><trkpt lat="39.3023792" lon="16.4451575"><ele>1620.0</ele><time>2026-05-03T12:22:17.77Z</time></trkpt><trkpt lat="39.3024457" lon="16.4452115"><ele>1619.9999999999998</ele><time>2026-05-03T12:22:18.773Z</time></trkpt><trkpt lat="39.3025029" lon="16.4452645"><ele>1620.0</ele><time>2026-05-03T12:22:19.77Z</time></trkpt><trkpt lat="39.3025564" lon="16.4453178"><ele>1620.0</ele><time>2026-05-03T12:22:20.78Z</time></trkpt><trkpt lat="39.302607" lon="16.445384"><ele>1620.0</ele><time>2026-05-03T12:22:21.775Z</time></trkpt><trkpt lat="39.3026534" lon="16.4454644"><ele>1620.0</ele><time>2026-05-03T12:22:22.768Z</time></trkpt><trkpt lat="39.3027128" lon="16.445531"><ele>1619.9999999999998</ele><time>2026-05-03T12:22:23.764Z</time></trkpt><trkpt lat="39.30277" lon="16.4455871"><ele>1620.0</ele><time>2026-05-03T12:22:24.767Z</time></trkpt><trkpt lat="39.3028227" lon="16.4456465"><ele>1620.1666666666667</ele><time>2026-05-03T12:22:25.785Z</time></trkpt><trkpt lat="39.302873" lon="16.445711"><ele>1620.3333333333335</ele><time>2026-05-03T12:22:26.767Z</time></trkpt><trkpt lat="39.3029221" lon="16.4457677"><ele>1620.5</ele><time>2026-05-03T12:22:27.769Z</time></trkpt><trkpt lat="39.3029741" lon="16.4458164"><ele>1620.6666666666667</ele><time>2026-05-03T12:22:28.769Z</time></trkpt><trkpt lat="39.303032" lon="16.4458676"><ele>1620.8333333333335</ele><time>2026-05-03T12:22:29.774Z</time></trkpt><trkpt lat="39.3031381" lon="16.4459279"><ele>1621.0</ele><time>2026-05-03T12:22:31.785Z</time></trkpt><trkpt lat="39.3032362" lon="16.4459667"><ele>1621.0000000000002</ele><time>2026-05-03T12:22:33.771Z</time></trkpt><trkpt lat="39.3033184" lon="16.4460032"><ele>1621.0</ele><time>2026-05-03T12:22:35.772Z</time></trkpt><trkpt lat="39.3034071" lon="16.4460395"><ele>1621.0</ele><time>2026-05-03T12:22:37.773Z</time></trkpt><trkpt lat="39.3034828" lon="16.4460713"><ele>1621.0</ele><time>2026-05-03T12:22:39.77Z</time></trkpt><trkpt lat="39.3035596" lon="16.4461311"><ele>1621.0000000000002</ele><time>2026-05-03T12:22:41.766Z</time></trkpt><trkpt lat="39.3036323" lon="16.4461945"><ele>1621.0</ele><time>2026-05-03T12:22:43.771Z</time></trkpt><trkpt lat="39.3037233" lon="16.4462747"><ele>1619.8333333333335</ele><time>2026-05-03T12:22:45.778Z</time></trkpt><trkpt lat="39.303807" lon="16.4463822"><ele>1618.6666666666667</ele><time>2026-05-03T12:22:47.774Z</time></trkpt><trkpt lat="39.3038496" lon="16.4464526"><ele>1617.5</ele><time>2026-05-03T12:22:48.772Z</time></trkpt><trkpt lat="39.3038962" lon="16.4465326"><ele>1616.3333333333335</ele><time>2026-05-03T12:22:49.774Z</time></trkpt><trkpt lat="39.3039511" lon="16.4466578"><ele>1615.1666666666667</ele><time>2026-05-03T12:22:51.777Z</time></trkpt><trkpt lat="39.3039722" lon="16.4467393"><ele>1614.0</ele><time>2026-05-03T12:22:52.781Z</time></trkpt><trkpt lat="39.3040215" lon="16.4468757"><ele>1614.0</ele><time>2026-05-03T12:22:54.775Z</time></trkpt><trkpt lat="39.3040493" lon="16.4470368"><ele>1614.0</ele><time>2026-05-03T12:22:56.769Z</time></trkpt><trkpt lat="39.3040687" lon="16.4471268"><ele>1614.0</ele><time>2026-05-03T12:22:57.772Z</time></trkpt><trkpt lat="39.3040938" lon="16.4472063"><ele>1614.0</ele><time>2026-05-03T12:22:58.771Z</time></trkpt><trkpt lat="39.3041527" lon="16.4473453"><ele>1614.0</ele><time>2026-05-03T12:23:00.771Z</time></trkpt><trkpt lat="39.3041989" lon="16.4474627"><ele>1614.3333333333333</ele><time>2026-05-03T12:23:02.77Z</time></trkpt><trkpt lat="39.3042455" lon="16.4475628"><ele>1614.6666666666665</ele><time>2026-05-03T12:23:04.768Z</time></trkpt><trkpt lat="39.3042781" lon="16.4476559"><ele>1615.0</ele><time>2026-05-03T12:23:06.773Z</time></trkpt><trkpt lat="39.3043044" lon="16.4477515"><ele>1615.3333333333333</ele><time>2026-05-03T12:23:08.777Z</time></trkpt><trkpt lat="39.3043335" lon="16.4478295"><ele>1615.6666666666665</ele><time>2026-05-03T12:23:10.774Z</time></trkpt><trkpt lat="39.3043724" lon="16.4479099"><ele>1616.0</ele><time>2026-05-03T12:23:12.777Z</time></trkpt><trkpt lat="39.3044084" lon="16.4480037"><ele>1616.8333333333333</ele><time>2026-05-03T12:23:14.773Z</time></trkpt><trkpt lat="39.3044328" lon="16.448092"><ele>1617.6666666666665</ele><time>2026-05-03T12:23:16.774Z</time></trkpt><trkpt lat="39.3044538" lon="16.4481722"><ele>1618.5</ele><time>2026-05-03T12:23:18.776Z</time></trkpt><trkpt lat="39.304475" lon="16.4482684"><ele>1619.3333333333335</ele><time>2026-05-03T12:23:21.777Z</time></trkpt><trkpt lat="39.3044993" lon="16.4483453"><ele>1620.1666666666667</ele><time>2026-05-03T12:23:25.798Z</time></trkpt><trkpt lat="39.3045124" lon="16.448446"><ele>1621.0</ele><time>2026-05-03T12:23:29.78Z</time></trkpt><trkpt lat="39.3045323" lon="16.4485677"><ele>1621.0000000000002</ele><time>2026-05-03T12:23:34.796Z</time></trkpt><trkpt lat="39.3045339" lon="16.4486639"><ele>1621.0</ele><time>2026-05-03T12:23:36.822Z</time></trkpt><trkpt lat="39.3045503" lon="16.4487465"><ele>1621.0</ele><time>2026-05-03T12:23:38.819Z</time></trkpt><trkpt lat="39.3045738" lon="16.4488359"><ele>1621.0</ele><time>2026-05-03T12:23:42.774Z</time></trkpt><trkpt lat="39.3046095" lon="16.4489063"><ele>1621.0</ele><time>2026-05-03T12:23:43.777Z</time></trkpt><trkpt lat="39.3046025" lon="16.4489896"><ele>1621.0000000000002</ele><time>2026-05-03T12:23:51.772Z</time></trkpt><trkpt lat="39.3046295" lon="16.4491016"><ele>1621.0</ele><time>2026-05-03T12:24:07.774Z</time></trkpt><trkpt lat="39.3046392" lon="16.4491972"><ele>1621.5000000000002</ele><time>2026-05-03T12:24:13.771Z</time></trkpt><trkpt lat="39.3046677" lon="16.4493278"><ele>1622.0</ele><time>2026-05-03T12:24:43.78Z</time></trkpt><trkpt lat="39.3047032" lon="16.4494193"><ele>1622.5</ele><time>2026-05-03T12:24:47.77Z</time></trkpt><trkpt lat="39.3047469" lon="16.4494965"><ele>1623.0</ele><time>2026-05-03T12:24:51.776Z</time></trkpt><trkpt lat="39.3048219" lon="16.4495356"><ele>1623.5000000000002</ele><time>2026-05-03T12:24:55.773Z</time></trkpt><trkpt lat="39.3048594" lon="16.4496258"><ele>1624.0</ele><time>2026-05-03T12:24:59.774Z</time></trkpt><trkpt lat="39.3048319" lon="16.4497017"><ele>1618.6</ele><time>2026-05-03T12:25:07.77Z</time></trkpt><trkpt lat="39.3048604" lon="16.4498337"><ele>1613.2</ele><time>2026-05-03T12:25:33.776Z</time></trkpt><trkpt lat="39.3049046" lon="16.4499135"><ele>1607.8</ele><time>2026-05-03T12:27:02.77Z</time></trkpt><trkpt lat="39.3049343" lon="16.4500127"><ele>1602.3999999999999</ele><time>2026-05-03T12:27:04.789Z</time></trkpt><trkpt lat="39.3049866" lon="16.4501323"><ele>1597.0</ele><time>2026-05-03T12:27:06.779Z</time></trkpt><trkpt lat="39.305027" lon="16.4502511"><ele>1597.0000000000002</ele><time>2026-05-03T12:27:08.765Z</time></trkpt><trkpt lat="39.3050493" lon="16.4503385"><ele>1597.0</ele><time>2026-05-03T12:27:10.774Z</time></trkpt><trkpt lat="39.3050635" lon="16.4504289"><ele>1597.0</ele><time>2026-05-03T12:27:13.79Z</time></trkpt><trkpt lat="39.3050887" lon="16.4505186"><ele>1597.0</ele><time>2026-05-03T12:27:15.78Z</time></trkpt><trkpt lat="39.3051262" lon="16.4506328"><ele>1597.0000000000002</ele><time>2026-05-03T12:27:17.783Z</time></trkpt><trkpt lat="39.3051379" lon="16.4507339"><ele>1597.0</ele><time>2026-05-03T12:27:20.781Z</time></trkpt><trkpt lat="39.3051233" lon="16.4508153"><ele>1596.0000000000002</ele><time>2026-05-03T12:27:22.784Z</time></trkpt><trkpt lat="39.3050435" lon="16.450882"><ele>1595.0</ele><time>2026-05-03T12:27:25.847Z</time></trkpt><trkpt lat="39.3049763" lon="16.4509379"><ele>1594.0</ele><time>2026-05-03T12:27:27.774Z</time></trkpt><trkpt lat="39.30494" lon="16.4510262"><ele>1593.0</ele><time>2026-05-03T12:27:29.783Z</time></trkpt><trkpt lat="39.3049288" lon="16.4511313"><ele>1592.0000000000002</ele><time>2026-05-03T12:27:31.824Z</time></trkpt><trkpt lat="39.3049168" lon="16.4512261"><ele>1591.0</ele><time>2026-05-03T12:27:33.848Z</time></trkpt><trkpt lat="39.3048673" lon="16.4513205"><ele>1590.3333333333335</ele><time>2026-05-03T12:27:35.803Z</time></trkpt><trkpt lat="39.3047867" lon="16.4513834"><ele>1589.6666666666667</ele><time>2026-05-03T12:27:37.772Z</time></trkpt><trkpt lat="39.3047034" lon="16.4514112"><ele>1589.0</ele><time>2026-05-03T12:27:39.813Z</time></trkpt><trkpt lat="39.3046073" lon="16.4514248"><ele>1588.3333333333335</ele><time>2026-05-03T12:27:41.777Z</time></trkpt><trkpt lat="39.3045276" lon="16.4514066"><ele>1587.6666666666667</ele><time>2026-05-03T12:27:43.796Z</time></trkpt><trkpt lat="39.3044632" lon="16.4514213"><ele>1587.0</ele><time>2026-05-03T12:27:45.799Z</time></trkpt><trkpt lat="39.3044756" lon="16.4515294"><ele>1587.0</ele><time>2026-05-03T12:27:48.781Z</time></trkpt><trkpt lat="39.3045461" lon="16.4516007"><ele>1587.0</ele><time>2026-05-03T12:27:50.772Z</time></trkpt><trkpt lat="39.3045971" lon="16.4516759"><ele>1587.0</ele><time>2026-05-03T12:27:52.773Z</time></trkpt><trkpt lat="39.3046375" lon="16.4517897"><ele>1587.0</ele><time>2026-05-03T12:27:54.778Z</time></trkpt><trkpt lat="39.3046975" lon="16.4519187"><ele>1587.0</ele><time>2026-05-03T12:27:56.79Z</time></trkpt><trkpt lat="39.3047625" lon="16.4520124"><ele>1585.1666666666667</ele><time>2026-05-03T12:27:58.774Z</time></trkpt><trkpt lat="39.3048303" lon="16.4520777"><ele>1583.3333333333335</ele><time>2026-05-03T12:28:00.774Z</time></trkpt><trkpt lat="39.30489" lon="16.4521712"><ele>1581.5</ele><time>2026-05-03T12:28:02.773Z</time></trkpt><trkpt lat="39.3049269" lon="16.4522863"><ele>1579.6666666666667</ele><time>2026-05-03T12:28:04.776Z</time></trkpt><trkpt lat="39.3049496" lon="16.4523823"><ele>1577.8333333333335</ele><time>2026-05-03T12:28:06.774Z</time></trkpt><trkpt lat="39.304994" lon="16.452464"><ele>1576.0</ele><time>2026-05-03T12:28:19.777Z</time></trkpt><trkpt lat="39.3050508" lon="16.4524992"><ele>1573.8</ele><time>2026-05-03T12:28:22.779Z</time></trkpt><trkpt lat="39.3051345" lon="16.4525321"><ele>1571.6</ele><time>2026-05-03T12:28:24.774Z</time></trkpt><trkpt lat="39.3052501" lon="16.4525821"><ele>1569.4</ele><time>2026-05-03T12:28:26.778Z</time></trkpt><trkpt lat="39.3053562" lon="16.4525423"><ele>1567.2</ele><time>2026-05-03T12:28:28.776Z</time></trkpt><trkpt lat="39.305435" lon="16.4524861"><ele>1565.0</ele><time>2026-05-03T12:28:30.766Z</time></trkpt><trkpt lat="39.3055099" lon="16.4524431"><ele>1565.2</ele><time>2026-05-03T12:28:32.774Z</time></trkpt><trkpt lat="39.3055834" lon="16.4523514"><ele>1565.4</ele><time>2026-05-03T12:28:34.768Z</time></trkpt><trkpt lat="39.3056246" lon="16.4522882"><ele>1565.6</ele><time>2026-05-03T12:28:36.769Z</time></trkpt><trkpt lat="39.3056371" lon="16.4521847"><ele>1565.8</ele><time>2026-05-03T12:28:40.774Z</time></trkpt><trkpt lat="39.3056453" lon="16.4521001"><ele>1566.0</ele><time>2026-05-03T12:28:59.779Z</time></trkpt><trkpt lat="39.3057167" lon="16.4519368"><ele>1566.0</ele><time>2026-05-03T12:29:39.77Z</time></trkpt><trkpt lat="39.3056936" lon="16.4518109"><ele>1566.0</ele><time>2026-05-03T12:30:20.778Z</time></trkpt><trkpt lat="39.3057269" lon="16.4518819"><ele>1566.0</ele><time>2026-05-03T12:30:54.778Z</time></trkpt><trkpt lat="39.3057122" lon="16.4517811"><ele>1566.0</ele><time>2026-05-03T12:32:46.768Z</time></trkpt><trkpt lat="39.3057134" lon="16.4516652"><ele>1566.0</ele><time>2026-05-03T12:32:59.773Z</time></trkpt><trkpt lat="39.3057506" lon="16.4515845"><ele>1566.0</ele><time>2026-05-03T12:33:05.768Z</time></trkpt><trkpt lat="39.3058516" lon="16.4516295"><ele>1566.0</ele><time>2026-05-03T12:33:11.788Z</time></trkpt><trkpt lat="39.3059514" lon="16.4517395"><ele>1566.0</ele><time>2026-05-03T12:33:13.774Z</time></trkpt><trkpt lat="39.3060098" lon="16.4518256"><ele>1566.0</ele><time>2026-05-03T12:33:14.782Z</time></trkpt><trkpt lat="39.3060682" lon="16.4518751"><ele>1566.0</ele><time>2026-05-03T12:33:15.768Z</time></trkpt><trkpt lat="39.3061356" lon="16.4519012"><ele>1566.0</ele><time>2026-05-03T12:33:16.776Z</time></trkpt><trkpt lat="39.3062305" lon="16.4519363"><ele>1566.0</ele><time>2026-05-03T12:33:17.768Z</time></trkpt><trkpt lat="39.3063326" lon="16.4519919"><ele>1566.0</ele><time>2026-05-03T12:33:18.768Z</time></trkpt><trkpt lat="39.3064226" lon="16.4520858"><ele>1566.0</ele><time>2026-05-03T12:33:19.768Z</time></trkpt><trkpt lat="39.3064956" lon="16.4521829"><ele>1566.0</ele><time>2026-05-03T12:33:20.769Z</time></trkpt><trkpt lat="39.3065759" lon="16.4522482"><ele>1566.0</ele><time>2026-05-03T12:33:21.782Z</time></trkpt><trkpt lat="39.3066589" lon="16.4523091"><ele>1564.7142857142856</ele><time>2026-05-03T12:33:22.766Z</time></trkpt><trkpt lat="39.3067152" lon="16.4523594"><ele>1563.4285714285716</ele><time>2026-05-03T12:33:23.771Z</time></trkpt><trkpt lat="39.3067835" lon="16.4523363"><ele>1562.142857142857</ele><time>2026-05-03T12:33:43.771Z</time></trkpt><trkpt lat="39.3068618" lon="16.4523688"><ele>1560.8571428571427</ele><time>2026-05-03T12:33:45.774Z</time></trkpt><trkpt lat="39.3069227" lon="16.4523903"><ele>1559.5714285714284</ele><time>2026-05-03T12:33:46.774Z</time></trkpt><trkpt lat="39.3069869" lon="16.4524214"><ele>1558.2857142857142</ele><time>2026-05-03T12:33:47.782Z</time></trkpt><trkpt lat="39.3070469" lon="16.452456"><ele>1557.0</ele><time>2026-05-03T12:33:48.771Z</time></trkpt><trkpt lat="39.3071043" lon="16.4525046"><ele>1557.0</ele><time>2026-05-03T12:33:49.771Z</time></trkpt><trkpt lat="39.3071547" lon="16.4525616"><ele>1557.0</ele><time>2026-05-03T12:33:50.768Z</time></trkpt><trkpt lat="39.3072501" lon="16.4526832"><ele>1557.0</ele><time>2026-05-03T12:33:52.771Z</time></trkpt><trkpt lat="39.3073018" lon="16.4527546"><ele>1557.0</ele><time>2026-05-03T12:33:53.77Z</time></trkpt><trkpt lat="39.3073526" lon="16.4528244"><ele>1557.0</ele><time>2026-05-03T12:33:54.773Z</time></trkpt><trkpt lat="39.3074282" lon="16.4529124"><ele>1559.8333333333333</ele><time>2026-05-03T12:33:56.764Z</time></trkpt><trkpt lat="39.3075343" lon="16.4529004"><ele>1562.6666666666665</ele><time>2026-05-03T12:33:58.78Z</time></trkpt><trkpt lat="39.3076165" lon="16.4528658"><ele>1565.5</ele><time>2026-05-03T12:33:59.77Z</time></trkpt><trkpt lat="39.3076874" lon="16.4528204"><ele>1568.3333333333333</ele><time>2026-05-03T12:34:00.779Z</time></trkpt><trkpt lat="39.3077591" lon="16.4527804"><ele>1571.1666666666665</ele><time>2026-05-03T12:34:01.767Z</time></trkpt><trkpt lat="39.3078251" lon="16.4527507"><ele>1574.0</ele><time>2026-05-03T12:34:02.772Z</time></trkpt><trkpt lat="39.3079489" lon="16.4527946"><ele>1573.9999999999998</ele><time>2026-05-03T12:34:04.764Z</time></trkpt><trkpt lat="39.3079988" lon="16.4528494"><ele>1574.0</ele><time>2026-05-03T12:34:05.764Z</time></trkpt><trkpt lat="39.3080459" lon="16.4529131"><ele>1574.0</ele><time>2026-05-03T12:34:06.763Z</time></trkpt><trkpt lat="39.3080945" lon="16.4529885"><ele>1574.0</ele><time>2026-05-03T12:34:07.771Z</time></trkpt><trkpt lat="39.3081524" lon="16.4530646"><ele>1573.9999999999998</ele><time>2026-05-03T12:34:08.77Z</time></trkpt><trkpt lat="39.3082093" lon="16.4531438"><ele>1574.0</ele><time>2026-05-03T12:34:09.775Z</time></trkpt><trkpt lat="39.3082725" lon="16.4532453"><ele>1573.4285714285713</ele><time>2026-05-03T12:34:10.767Z</time></trkpt><trkpt lat="39.3083208" lon="16.4533299"><ele>1572.8571428571427</ele><time>2026-05-03T12:34:11.768Z</time></trkpt><trkpt lat="39.3083652" lon="16.4534036"><ele>1572.2857142857142</ele><time>2026-05-03T12:34:12.763Z</time></trkpt><trkpt lat="39.3084151" lon="16.4534729"><ele>1571.7142857142858</ele><time>2026-05-03T12:34:13.767Z</time></trkpt><trkpt lat="39.3084695" lon="16.4535291"><ele>1571.142857142857</ele><time>2026-05-03T12:34:14.768Z</time></trkpt><trkpt lat="39.3085201" lon="16.4535827"><ele>1570.5714285714287</ele><time>2026-05-03T12:34:15.768Z</time></trkpt><trkpt lat="39.3085739" lon="16.4536384"><ele>1570.0</ele><time>2026-05-03T12:34:16.786Z</time></trkpt><trkpt lat="39.3086384" lon="16.4537003"><ele>1570.0000000000002</ele><time>2026-05-03T12:34:17.769Z</time></trkpt><trkpt lat="39.3087059" lon="16.4537577"><ele>1570.0</ele><time>2026-05-03T12:34:18.77Z</time></trkpt><trkpt lat="39.3087744" lon="16.4538145"><ele>1570.0</ele><time>2026-05-03T12:34:19.766Z</time></trkpt><trkpt lat="39.308829" lon="16.4538947"><ele>1570.0</ele><time>2026-05-03T12:34:20.769Z</time></trkpt><trkpt lat="39.3088661" lon="16.4539626"><ele>1570.0000000000002</ele><time>2026-05-03T12:34:21.764Z</time></trkpt><trkpt lat="39.3089278" lon="16.454042"><ele>1570.0</ele><time>2026-05-03T12:34:22.777Z</time></trkpt><trkpt lat="39.3089919" lon="16.4540711"><ele>1567.857142857143</ele><time>2026-05-03T12:34:23.772Z</time></trkpt><trkpt lat="39.3090616" lon="16.4540981"><ele>1565.7142857142856</ele><time>2026-05-03T12:34:24.768Z</time></trkpt><trkpt lat="39.3091298" lon="16.4541133"><ele>1563.5714285714284</ele><time>2026-05-03T12:34:25.769Z</time></trkpt><trkpt lat="39.3091955" lon="16.4541367"><ele>1561.4285714285716</ele><time>2026-05-03T12:34:26.773Z</time></trkpt><trkpt lat="39.3092617" lon="16.4541276"><ele>1559.2857142857142</ele><time>2026-05-03T12:34:27.773Z</time></trkpt><trkpt lat="39.3093374" lon="16.4541188"><ele>1557.142857142857</ele><time>2026-05-03T12:34:28.772Z</time></trkpt><trkpt lat="39.3094175" lon="16.4541101"><ele>1555.0</ele><time>2026-05-03T12:34:29.774Z</time></trkpt><trkpt lat="39.3094975" lon="16.4541153"><ele>1555.0000000000002</ele><time>2026-05-03T12:34:30.782Z</time></trkpt><trkpt lat="39.3095785" lon="16.4541286"><ele>1555.0</ele><time>2026-05-03T12:34:31.778Z</time></trkpt><trkpt lat="39.3096564" lon="16.4541338"><ele>1555.0</ele><time>2026-05-03T12:34:32.769Z</time></trkpt><trkpt lat="39.3097293" lon="16.4541329"><ele>1555.0</ele><time>2026-05-03T12:34:33.773Z</time></trkpt><trkpt lat="39.3097939" lon="16.4541216"><ele>1555.0000000000002</ele><time>2026-05-03T12:34:34.776Z</time></trkpt><trkpt lat="39.3098752" lon="16.4541298"><ele>1555.0</ele><time>2026-05-03T12:34:35.773Z</time></trkpt><trkpt lat="39.309948" lon="16.4541405"><ele>1553.8</ele><time>2026-05-03T12:34:36.77Z</time></trkpt><trkpt lat="39.3100143" lon="16.454148"><ele>1552.6</ele><time>2026-05-03T12:34:37.772Z</time></trkpt><trkpt lat="39.3101237" lon="16.4541297"><ele>1551.4</ele><time>2026-05-03T12:34:39.78Z</time></trkpt><trkpt lat="39.31025" lon="16.4541012"><ele>1550.2</ele><time>2026-05-03T12:34:41.773Z</time></trkpt><trkpt lat="39.3103281" lon="16.4540961"><ele>1549.0</ele><time>2026-05-03T12:34:42.768Z</time></trkpt><trkpt lat="39.3104085" lon="16.4540978"><ele>1549.0</ele><time>2026-05-03T12:34:43.768Z</time></trkpt><trkpt lat="39.310487" lon="16.454101"><ele>1549.0</ele><time>2026-05-03T12:34:44.771Z</time></trkpt><trkpt lat="39.3105575" lon="16.4541117"><ele>1549.0</ele><time>2026-05-03T12:34:45.773Z</time></trkpt><trkpt lat="39.31067" lon="16.4541023"><ele>1549.0</ele><time>2026-05-03T12:34:47.775Z</time></trkpt><trkpt lat="39.3107315" lon="16.4540206"><ele>1549.0</ele><time>2026-05-03T12:34:49.772Z</time></trkpt><trkpt lat="39.3107842" lon="16.4539071"><ele>1550.25</ele><time>2026-05-03T12:34:51.776Z</time></trkpt><trkpt lat="39.310859" lon="16.4538314"><ele>1551.5</ele><time>2026-05-03T12:34:53.777Z</time></trkpt><trkpt lat="39.3110034" lon="16.4537609"><ele>1552.75</ele><time>2026-05-03T12:34:55.771Z</time></trkpt><trkpt lat="39.3111203" lon="16.453715"><ele>1554.0</ele><time>2026-05-03T12:34:57.773Z</time></trkpt><trkpt lat="39.311217" lon="16.4536745"><ele>1554.0</ele><time>2026-05-03T12:34:58.767Z</time></trkpt><trkpt lat="39.3113675" lon="16.4536283"><ele>1554.0</ele><time>2026-05-03T12:35:00.768Z</time></trkpt><trkpt lat="39.3114942" lon="16.4536004"><ele>1554.0</ele><time>2026-05-03T12:35:02.766Z</time></trkpt><trkpt lat="39.3115725" lon="16.4535745"><ele>1554.0</ele><time>2026-05-03T12:35:03.768Z</time></trkpt><trkpt lat="39.3116469" lon="16.4535427"><ele>1554.0</ele><time>2026-05-03T12:35:04.776Z</time></trkpt><trkpt lat="39.3117419" lon="16.4535209"><ele>1550.5</ele><time>2026-05-03T12:35:06.775Z</time></trkpt><trkpt lat="39.3118288" lon="16.4535373"><ele>1547.0</ele><time>2026-05-03T12:35:08.768Z</time></trkpt><trkpt lat="39.3118964" lon="16.4535727"><ele>1543.5</ele><time>2026-05-03T12:35:11.771Z</time></trkpt><trkpt lat="39.3119822" lon="16.453629"><ele>1540.0</ele><time>2026-05-03T12:35:13.77Z</time></trkpt><trkpt lat="39.312082" lon="16.4536347"><ele>1536.5</ele><time>2026-05-03T12:35:15.769Z</time></trkpt><trkpt lat="39.3121568" lon="16.4536353"><ele>1533.0</ele><time>2026-05-03T12:35:17.772Z</time></trkpt><trkpt lat="39.3123116" lon="16.4536348"><ele>1529.5</ele><time>2026-05-03T12:35:21.77Z</time></trkpt><trkpt lat="39.3122772" lon="16.4537559"><ele>1526.0</ele><time>2026-05-03T12:35:24.77Z</time></trkpt><trkpt lat="39.3122386" lon="16.4538464"><ele>1522.5</ele><time>2026-05-03T12:35:25.767Z</time></trkpt><trkpt lat="39.3121986" lon="16.4539169"><ele>1519.0</ele><time>2026-05-03T12:35:26.778Z</time></trkpt><trkpt lat="39.3121583" lon="16.4539837"><ele>1515.5</ele><time>2026-05-03T12:35:28.78Z</time></trkpt><trkpt lat="39.3121014" lon="16.454043"><ele>1512.0</ele><time>2026-05-03T12:35:31.772Z</time></trkpt><trkpt lat="39.3120244" lon="16.4540984"><ele>1511.1666666666667</ele><time>2026-05-03T12:35:33.775Z</time></trkpt><trkpt lat="39.3119595" lon="16.4541799"><ele>1510.3333333333333</ele><time>2026-05-03T12:35:36.773Z</time></trkpt><trkpt lat="39.3120378" lon="16.4542298"><ele>1509.5</ele><time>2026-05-03T12:35:39.817Z</time></trkpt><trkpt lat="39.3121129" lon="16.4542441"><ele>1508.6666666666665</ele><time>2026-05-03T12:35:44.777Z</time></trkpt><trkpt lat="39.3122096" lon="16.45427"><ele>1507.8333333333333</ele><time>2026-05-03T12:35:46.769Z</time></trkpt><trkpt lat="39.312288" lon="16.4542796"><ele>1507.0</ele><time>2026-05-03T12:35:47.775Z</time></trkpt><trkpt lat="39.312362" lon="16.4542798"><ele>1504.3999999999999</ele><time>2026-05-03T12:35:48.765Z</time></trkpt><trkpt lat="39.3124313" lon="16.4542765"><ele>1501.8</ele><time>2026-05-03T12:35:49.779Z</time></trkpt><trkpt lat="39.3125535" lon="16.4542823"><ele>1499.2</ele><time>2026-05-03T12:35:51.782Z</time></trkpt><trkpt lat="39.3126598" lon="16.4542914"><ele>1496.6</ele><time>2026-05-03T12:35:53.77Z</time></trkpt><trkpt lat="39.3127751" lon="16.4542862"><ele>1494.0</ele><time>2026-05-03T12:35:55.773Z</time></trkpt><trkpt lat="39.3128705" lon="16.4542578"><ele>1494.0</ele><time>2026-05-03T12:35:57.768Z</time></trkpt><trkpt lat="39.3129528" lon="16.4542167"><ele>1494.0</ele><time>2026-05-03T12:35:59.765Z</time></trkpt><trkpt lat="39.3130279" lon="16.4541672"><ele>1494.0</ele><time>2026-05-03T12:36:01.774Z</time></trkpt><trkpt lat="39.3130951" lon="16.4541194"><ele>1494.0</ele><time>2026-05-03T12:36:03.773Z</time></trkpt><trkpt lat="39.3131589" lon="16.4540686"><ele>1494.0</ele><time>2026-05-03T12:36:05.773Z</time></trkpt><trkpt lat="39.3132893" lon="16.4539617"><ele>1492.8000000000002</ele><time>2026-05-03T12:36:07.765Z</time></trkpt><trkpt lat="39.3133457" lon="16.4538947"><ele>1491.6000000000001</ele><time>2026-05-03T12:36:08.774Z</time></trkpt><trkpt lat="39.3134183" lon="16.4537654"><ele>1490.4</ele><time>2026-05-03T12:36:10.77Z</time></trkpt><trkpt lat="39.3134678" lon="16.4537103"><ele>1489.2</ele><time>2026-05-03T12:36:11.765Z</time></trkpt><trkpt lat="39.3136179" lon="16.4537299"><ele>1488.0</ele><time>2026-05-03T12:36:14.784Z</time></trkpt><trkpt lat="39.3136477" lon="16.4538298"><ele>1486.2857142857144</ele><time>2026-05-03T12:36:15.774Z</time></trkpt><trkpt lat="39.3136745" lon="16.4539242"><ele>1484.5714285714287</ele><time>2026-05-03T12:36:16.774Z</time></trkpt><trkpt lat="39.3137021" lon="16.4540108"><ele>1482.857142857143</ele><time>2026-05-03T12:36:17.769Z</time></trkpt><trkpt lat="39.3137353" lon="16.454097"><ele>1481.1428571428573</ele><time>2026-05-03T12:36:18.762Z</time></trkpt><trkpt lat="39.313749" lon="16.4541909"><ele>1479.4285714285713</ele><time>2026-05-03T12:36:19.777Z</time></trkpt><trkpt lat="39.3137633" lon="16.4542849"><ele>1477.7142857142858</ele><time>2026-05-03T12:36:20.765Z</time></trkpt><trkpt lat="39.3137671" lon="16.454382"><ele>1476.0</ele><time>2026-05-03T12:36:21.764Z</time></trkpt><trkpt lat="39.3137752" lon="16.4544739"><ele>1473.6666666666667</ele><time>2026-05-03T12:36:22.765Z</time></trkpt><trkpt lat="39.3138042" lon="16.4546326"><ele>1471.3333333333333</ele><time>2026-05-03T12:36:24.776Z</time></trkpt><trkpt lat="39.3138173" lon="16.4547129"><ele>1469.0</ele><time>2026-05-03T12:36:25.765Z</time></trkpt><trkpt lat="39.3138744" lon="16.4548208"><ele>1466.6666666666665</ele><time>2026-05-03T12:36:27.773Z</time></trkpt><trkpt lat="39.3139461" lon="16.454862"><ele>1464.3333333333333</ele><time>2026-05-03T12:36:29.784Z</time></trkpt><trkpt lat="39.3140177" lon="16.4548963"><ele>1462.0</ele><time>2026-05-03T12:36:31.77Z</time></trkpt><trkpt lat="39.3140993" lon="16.4549732"><ele>1461.142857142857</ele><time>2026-05-03T12:36:33.767Z</time></trkpt><trkpt lat="39.3141597" lon="16.455021"><ele>1460.2857142857142</ele><time>2026-05-03T12:36:34.773Z</time></trkpt><trkpt lat="39.3142129" lon="16.4550748"><ele>1459.4285714285716</ele><time>2026-05-03T12:36:35.768Z</time></trkpt><trkpt lat="39.3142738" lon="16.4551193"><ele>1458.5714285714284</ele><time>2026-05-03T12:36:36.768Z</time></trkpt><trkpt lat="39.3143476" lon="16.4551719"><ele>1457.7142857142858</ele><time>2026-05-03T12:36:37.769Z</time></trkpt><trkpt lat="39.3144184" lon="16.4552184"><ele>1456.857142857143</ele><time>2026-05-03T12:36:38.769Z</time></trkpt><trkpt lat="39.3144717" lon="16.4552623"><ele>1456.0</ele><time>2026-05-03T12:36:39.774Z</time></trkpt><trkpt lat="39.3145304" lon="16.4553113"><ele>1456.0</ele><time>2026-05-03T12:36:40.768Z</time></trkpt><trkpt lat="39.314587" lon="16.4553767"><ele>1456.0</ele><time>2026-05-03T12:36:41.783Z</time></trkpt><trkpt lat="39.3146249" lon="16.4554562"><ele>1456.0</ele><time>2026-05-03T12:36:42.766Z</time></trkpt><trkpt lat="39.3146683" lon="16.4555375"><ele>1456.0</ele><time>2026-05-03T12:36:43.768Z</time></trkpt><trkpt lat="39.3146862" lon="16.4556327"><ele>1456.0</ele><time>2026-05-03T12:36:44.772Z</time></trkpt><trkpt lat="39.3146931" lon="16.4557275"><ele>1456.0</ele><time>2026-05-03T12:36:45.8Z</time></trkpt><trkpt lat="39.314698" lon="16.4558252"><ele>1455.8333333333333</ele><time>2026-05-03T12:36:46.773Z</time></trkpt><trkpt lat="39.3147094" lon="16.4559217"><ele>1455.6666666666665</ele><time>2026-05-03T12:36:47.78Z</time></trkpt><trkpt lat="39.314724" lon="16.456023"><ele>1455.5</ele><time>2026-05-03T12:36:48.767Z</time></trkpt><trkpt lat="39.3147438" lon="16.456125"><ele>1455.3333333333333</ele><time>2026-05-03T12:36:49.772Z</time></trkpt><trkpt lat="39.3147655" lon="16.4562288"><ele>1455.1666666666667</ele><time>2026-05-03T12:36:50.774Z</time></trkpt><trkpt lat="39.314786" lon="16.4563421"><ele>1455.0</ele><time>2026-05-03T12:36:51.772Z</time></trkpt><trkpt lat="39.3148063" lon="16.4564542"><ele>1453.8</ele><time>2026-05-03T12:36:52.775Z</time></trkpt><trkpt lat="39.3148281" lon="16.4565677"><ele>1452.6</ele><time>2026-05-03T12:36:53.765Z</time></trkpt><trkpt lat="39.3148431" lon="16.4566902"><ele>1451.4</ele><time>2026-05-03T12:36:54.77Z</time></trkpt><trkpt lat="39.3148559" lon="16.4568099"><ele>1450.2</ele><time>2026-05-03T12:36:55.772Z</time></trkpt><trkpt lat="39.3148659" lon="16.4569352"><ele>1449.0</ele><time>2026-05-03T12:36:56.767Z</time></trkpt><trkpt lat="39.3148772" lon="16.4570532"><ele>1448.2</ele><time>2026-05-03T12:36:57.78Z</time></trkpt><trkpt lat="39.3148874" lon="16.4571791"><ele>1447.4</ele><time>2026-05-03T12:36:58.776Z</time></trkpt><trkpt lat="39.3148936" lon="16.4573076"><ele>1446.6</ele><time>2026-05-03T12:36:59.778Z</time></trkpt><trkpt lat="39.314899" lon="16.4574436"><ele>1445.8</ele><time>2026-05-03T12:37:00.776Z</time></trkpt><trkpt lat="39.3149036" lon="16.4575756"><ele>1445.0</ele><time>2026-05-03T12:37:01.774Z</time></trkpt><trkpt lat="39.3149103" lon="16.457717"><ele>1445.0</ele><time>2026-05-03T12:37:02.776Z</time></trkpt><trkpt lat="39.3149162" lon="16.4578563"><ele>1445.0</ele><time>2026-05-03T12:37:03.767Z</time></trkpt><trkpt lat="39.3149169" lon="16.4579925"><ele>1445.0</ele><time>2026-05-03T12:37:04.794Z</time></trkpt><trkpt lat="39.3149185" lon="16.4581339"><ele>1445.0</ele><time>2026-05-03T12:37:05.768Z</time></trkpt><trkpt lat="39.314917" lon="16.458265"><ele>1445.0</ele><time>2026-05-03T12:37:06.767Z</time></trkpt><trkpt lat="39.3149183" lon="16.4584041"><ele>1444.4</ele><time>2026-05-03T12:37:07.768Z</time></trkpt><trkpt lat="39.3149196" lon="16.4585407"><ele>1443.8</ele><time>2026-05-03T12:37:08.774Z</time></trkpt><trkpt lat="39.3149182" lon="16.458673"><ele>1443.1999999999998</ele><time>2026-05-03T12:37:09.768Z</time></trkpt><trkpt lat="39.3149211" lon="16.4588061"><ele>1442.6</ele><time>2026-05-03T12:37:10.77Z</time></trkpt><trkpt lat="39.3149256" lon="16.4589477"><ele>1442.0</ele><time>2026-05-03T12:37:11.797Z</time></trkpt><trkpt lat="39.3149284" lon="16.4590863"><ele>1441.75</ele><time>2026-05-03T12:37:12.772Z</time></trkpt><trkpt lat="39.3149335" lon="16.4592373"><ele>1441.5</ele><time>2026-05-03T12:37:13.772Z</time></trkpt><trkpt lat="39.3149474" lon="16.4593871"><ele>1441.25</ele><time>2026-05-03T12:37:14.771Z</time></trkpt><trkpt lat="39.3149616" lon="16.459541"><ele>1441.0</ele><time>2026-05-03T12:37:15.784Z</time></trkpt><trkpt lat="39.3149879" lon="16.4596973"><ele>1440.0</ele><time>2026-05-03T12:37:16.767Z</time></trkpt><trkpt lat="39.3150217" lon="16.459863"><ele>1439.0</ele><time>2026-05-03T12:37:17.769Z</time></trkpt><trkpt lat="39.3150593" lon="16.4600125"><ele>1438.0</ele><time>2026-05-03T12:37:18.77Z</time></trkpt><trkpt lat="39.3151036" lon="16.4601751"><ele>1437.0</ele><time>2026-05-03T12:37:19.771Z</time></trkpt><trkpt lat="39.3151417" lon="16.4603387"><ele>1435.5</ele><time>2026-05-03T12:37:20.78Z</time></trkpt><trkpt lat="39.3151776" lon="16.4605004"><ele>1434.0</ele><time>2026-05-03T12:37:21.767Z</time></trkpt><trkpt lat="39.3152095" lon="16.4606664"><ele>1432.5</ele><time>2026-05-03T12:37:22.77Z</time></trkpt><trkpt lat="39.3152355" lon="16.4608212"><ele>1431.0</ele><time>2026-05-03T12:37:23.769Z</time></trkpt><trkpt lat="39.3152564" lon="16.460981"><ele>1431.0</ele><time>2026-05-03T12:37:24.771Z</time></trkpt><trkpt lat="39.3152822" lon="16.4611424"><ele>1431.0</ele><time>2026-05-03T12:37:25.774Z</time></trkpt><trkpt lat="39.3153138" lon="16.4612969"><ele>1431.0</ele><time>2026-05-03T12:37:26.77Z</time></trkpt><trkpt lat="39.3153563" lon="16.4614466"><ele>1431.0</ele><time>2026-05-03T12:37:27.767Z</time></trkpt><trkpt lat="39.3154164" lon="16.4615924"><ele>1431.5</ele><time>2026-05-03T12:37:28.768Z</time></trkpt><trkpt lat="39.3154884" lon="16.4617277"><ele>1432.0</ele><time>2026-05-03T12:37:29.771Z</time></trkpt><trkpt lat="39.3155703" lon="16.4618673"><ele>1432.5</ele><time>2026-05-03T12:37:30.791Z</time></trkpt><trkpt lat="39.3156521" lon="16.4620037"><ele>1433.0</ele><time>2026-05-03T12:37:31.771Z</time></trkpt><trkpt lat="39.3157407" lon="16.4621395"><ele>1430.0</ele><time>2026-05-03T12:37:32.789Z</time></trkpt><trkpt lat="39.3158431" lon="16.4622618"><ele>1427.0</ele><time>2026-05-03T12:37:33.786Z</time></trkpt><trkpt lat="39.3159523" lon="16.4623837"><ele>1424.0</ele><time>2026-05-03T12:37:34.775Z</time></trkpt><trkpt lat="39.3160625" lon="16.4625064"><ele>1421.0</ele><time>2026-05-03T12:37:35.772Z</time></trkpt><trkpt lat="39.3161784" lon="16.462642"><ele>1421.0</ele><time>2026-05-03T12:37:36.773Z</time></trkpt><trkpt lat="39.3162978" lon="16.4627798"><ele>1421.0</ele><time>2026-05-03T12:37:37.771Z</time></trkpt><trkpt lat="39.3164189" lon="16.4629135"><ele>1421.0</ele><time>2026-05-03T12:37:38.769Z</time></trkpt><trkpt lat="39.31654" lon="16.4630389"><ele>1421.25</ele><time>2026-05-03T12:37:39.764Z</time></trkpt><trkpt lat="39.3166522" lon="16.4631475"><ele>1421.5</ele><time>2026-05-03T12:37:40.768Z</time></trkpt><trkpt lat="39.3167639" lon="16.4632506"><ele>1421.75</ele><time>2026-05-03T12:37:41.769Z</time></trkpt><trkpt lat="39.3168738" lon="16.4633474"><ele>1422.0</ele><time>2026-05-03T12:37:42.767Z</time></trkpt><trkpt lat="39.3169846" lon="16.4634418"><ele>1422.0</ele><time>2026-05-03T12:37:43.774Z</time></trkpt><trkpt lat="39.3170936" lon="16.4635361"><ele>1422.0</ele><time>2026-05-03T12:37:44.772Z</time></trkpt><trkpt lat="39.3171966" lon="16.4636335"><ele>1422.0</ele><time>2026-05-03T12:37:45.771Z</time></trkpt><trkpt lat="39.3172887" lon="16.4637401"><ele>1422.0</ele><time>2026-05-03T12:37:46.773Z</time></trkpt><trkpt lat="39.3173678" lon="16.4638545"><ele>1421.25</ele><time>2026-05-03T12:37:47.773Z</time></trkpt><trkpt lat="39.3174323" lon="16.4639808"><ele>1420.5</ele><time>2026-05-03T12:37:48.776Z</time></trkpt><trkpt lat="39.3174866" lon="16.4641153"><ele>1419.75</ele><time>2026-05-03T12:37:49.774Z</time></trkpt><trkpt lat="39.3175503" lon="16.4642488"><ele>1419.0</ele><time>2026-05-03T12:37:50.765Z</time></trkpt><trkpt lat="39.3176312" lon="16.4643745"><ele>1419.0</ele><time>2026-05-03T12:37:51.769Z</time></trkpt><trkpt lat="39.3177219" lon="16.4644932"><ele>1419.0</ele><time>2026-05-03T12:37:52.768Z</time></trkpt><trkpt lat="39.3178427" lon="16.4645788"><ele>1419.0</ele><time>2026-05-03T12:37:53.782Z</time></trkpt><trkpt lat="39.317954" lon="16.4646391"><ele>1419.0</ele><time>2026-05-03T12:37:54.766Z</time></trkpt><trkpt lat="39.3180709" lon="16.4647245"><ele>1418.0</ele><time>2026-05-03T12:37:55.769Z</time></trkpt><trkpt lat="39.3181723" lon="16.4648056"><ele>1417.0</ele><time>2026-05-03T12:37:56.771Z</time></trkpt><trkpt lat="39.3182634" lon="16.464884"><ele>1416.0</ele><time>2026-05-03T12:37:57.77Z</time></trkpt><trkpt lat="39.3183514" lon="16.46495"><ele>1415.0</ele><time>2026-05-03T12:37:58.765Z</time></trkpt><trkpt lat="39.3184205" lon="16.4650736"><ele>1414.0</ele><time>2026-05-03T12:37:59.766Z</time></trkpt><trkpt lat="39.3184714" lon="16.4652054"><ele>1414.0</ele><time>2026-05-03T12:38:00.781Z</time></trkpt><trkpt lat="39.3185091" lon="16.4653298"><ele>1414.0</ele><time>2026-05-03T12:38:01.772Z</time></trkpt><trkpt lat="39.3185491" lon="16.4654565"><ele>1414.0</ele><time>2026-05-03T12:38:02.771Z</time></trkpt><trkpt lat="39.3185832" lon="16.4655816"><ele>1414.0</ele><time>2026-05-03T12:38:03.77Z</time></trkpt><trkpt lat="39.3186197" lon="16.4656992"><ele>1414.0</ele><time>2026-05-03T12:38:04.765Z</time></trkpt><trkpt lat="39.3186589" lon="16.4657919"><ele>1413.0</ele><time>2026-05-03T12:38:05.772Z</time></trkpt><trkpt lat="39.3186986" lon="16.4659056"><ele>1412.0</ele><time>2026-05-03T12:38:06.775Z</time></trkpt><trkpt lat="39.318716" lon="16.466054"><ele>1411.0</ele><time>2026-05-03T12:38:07.765Z</time></trkpt><trkpt lat="39.3187436" lon="16.4662076"><ele>1410.0</ele><time>2026-05-03T12:38:08.769Z</time></trkpt><trkpt lat="39.3187959" lon="16.4663723"><ele>1409.5</ele><time>2026-05-03T12:38:09.77Z</time></trkpt><trkpt lat="39.3188262" lon="16.4665445"><ele>1409.0</ele><time>2026-05-03T12:38:10.77Z</time></trkpt><trkpt lat="39.3188785" lon="16.46669"><ele>1408.5</ele><time>2026-05-03T12:38:11.779Z</time></trkpt><trkpt lat="39.3189256" lon="16.4668131"><ele>1408.0</ele><time>2026-05-03T12:38:12.773Z</time></trkpt><trkpt lat="39.3189722" lon="16.4669604"><ele>1407.8000000000002</ele><time>2026-05-03T12:38:13.779Z</time></trkpt><trkpt lat="39.3190209" lon="16.467081"><ele>1407.6</ele><time>2026-05-03T12:38:14.773Z</time></trkpt><trkpt lat="39.319077" lon="16.4671981"><ele>1407.4</ele><time>2026-05-03T12:38:15.768Z</time></trkpt><trkpt lat="39.3191534" lon="16.467297"><ele>1407.1999999999998</ele><time>2026-05-03T12:38:16.775Z</time></trkpt><trkpt lat="39.3192377" lon="16.4674139"><ele>1407.0</ele><time>2026-05-03T12:38:17.77Z</time></trkpt><trkpt lat="39.3193193" lon="16.4675149"><ele>1407.0</ele><time>2026-05-03T12:38:18.789Z</time></trkpt><trkpt lat="39.3194091" lon="16.4676411"><ele>1407.0</ele><time>2026-05-03T12:38:19.772Z</time></trkpt><trkpt lat="39.3194993" lon="16.4677544"><ele>1407.0</ele><time>2026-05-03T12:38:20.775Z</time></trkpt><trkpt lat="39.3195781" lon="16.4679012"><ele>1407.0</ele><time>2026-05-03T12:38:21.771Z</time></trkpt><trkpt lat="39.3196507" lon="16.4680176"><ele>1407.0</ele><time>2026-05-03T12:38:22.776Z</time></trkpt><trkpt lat="39.3197322" lon="16.4681274"><ele>1407.0</ele><time>2026-05-03T12:38:23.769Z</time></trkpt><trkpt lat="39.3198073" lon="16.4682377"><ele>1407.0</ele><time>2026-05-03T12:38:24.769Z</time></trkpt><trkpt lat="39.3198887" lon="16.4683428"><ele>1407.0</ele><time>2026-05-03T12:38:25.765Z</time></trkpt><trkpt lat="39.3199776" lon="16.4684682"><ele>1405.25</ele><time>2026-05-03T12:38:26.771Z</time></trkpt><trkpt lat="39.3200776" lon="16.4686153"><ele>1403.5</ele><time>2026-05-03T12:38:27.772Z</time></trkpt><trkpt lat="39.3201749" lon="16.4687571"><ele>1401.75</ele><time>2026-05-03T12:38:28.76Z</time></trkpt><trkpt lat="39.3202724" lon="16.4688758"><ele>1400.0</ele><time>2026-05-03T12:38:29.77Z</time></trkpt><trkpt lat="39.3203674" lon="16.4689803"><ele>1400.0</ele><time>2026-05-03T12:38:30.77Z</time></trkpt><trkpt lat="39.320449" lon="16.4691031"><ele>1400.0</ele><time>2026-05-03T12:38:31.77Z</time></trkpt><trkpt lat="39.320524" lon="16.469205"><ele>1400.0</ele><time>2026-05-03T12:38:32.767Z</time></trkpt><trkpt lat="39.3205991" lon="16.4692972"><ele>1400.0</ele><time>2026-05-03T12:38:33.773Z</time></trkpt><trkpt lat="39.3206667" lon="16.4694053"><ele>1400.0</ele><time>2026-05-03T12:38:34.769Z</time></trkpt><trkpt lat="39.3207452" lon="16.4695167"><ele>1400.0</ele><time>2026-05-03T12:38:35.771Z</time></trkpt><trkpt lat="39.3208225" lon="16.469633"><ele>1400.0</ele><time>2026-05-03T12:38:36.765Z</time></trkpt><trkpt lat="39.3209195" lon="16.4697689"><ele>1400.0</ele><time>2026-05-03T12:38:37.772Z</time></trkpt><trkpt lat="39.3210403" lon="16.4699328"><ele>1400.0</ele><time>2026-05-03T12:38:38.769Z</time></trkpt><trkpt lat="39.3211539" lon="16.4701185"><ele>1400.0</ele><time>2026-05-03T12:38:39.771Z</time></trkpt><trkpt lat="39.3212591" lon="16.4703229"><ele>1400.0</ele><time>2026-05-03T12:38:40.774Z</time></trkpt><trkpt lat="39.3213738" lon="16.4705376"><ele>1400.0</ele><time>2026-05-03T12:38:41.774Z</time></trkpt><trkpt lat="39.3214938" lon="16.4707541"><ele>1398.0</ele><time>2026-05-03T12:38:42.772Z</time></trkpt><trkpt lat="39.3216162" lon="16.4709817"><ele>1396.0</ele><time>2026-05-03T12:38:43.784Z</time></trkpt><trkpt lat="39.3217488" lon="16.4712125"><ele>1394.0</ele><time>2026-05-03T12:38:44.771Z</time></trkpt><trkpt lat="39.3218782" lon="16.4714523"><ele>1392.5</ele><time>2026-05-03T12:38:45.77Z</time></trkpt><trkpt lat="39.3220015" lon="16.4717036"><ele>1391.0</ele><time>2026-05-03T12:38:46.776Z</time></trkpt><trkpt lat="39.3221339" lon="16.4719569"><ele>1389.0</ele><time>2026-05-03T12:38:47.769Z</time></trkpt><trkpt lat="39.3222719" lon="16.4722095"><ele>1387.0</ele><time>2026-05-03T12:38:48.784Z</time></trkpt><trkpt lat="39.3224138" lon="16.4724639"><ele>1387.0</ele><time>2026-05-03T12:38:49.774Z</time></trkpt><trkpt lat="39.3225571" lon="16.4727224"><ele>1387.0</ele><time>2026-05-03T12:38:50.774Z</time></trkpt><trkpt lat="39.3227033" lon="16.4729804"><ele>1386.0</ele><time>2026-05-03T12:38:51.773Z</time></trkpt><trkpt lat="39.3228498" lon="16.4732424"><ele>1385.0</ele><time>2026-05-03T12:38:52.772Z</time></trkpt><trkpt lat="39.3229956" lon="16.4735057"><ele>1384.5</ele><time>2026-05-03T12:38:53.774Z</time></trkpt><trkpt lat="39.3231404" lon="16.473769"><ele>1384.0</ele><time>2026-05-03T12:38:54.773Z</time></trkpt><trkpt lat="39.3232864" lon="16.4740321"><ele>1381.5</ele><time>2026-05-03T12:38:55.775Z</time></trkpt><trkpt lat="39.323435" lon="16.4742913"><ele>1379.0</ele><time>2026-05-03T12:38:56.767Z</time></trkpt><trkpt lat="39.3235808" lon="16.4745535"><ele>1379.0</ele><time>2026-05-03T12:38:57.771Z</time></trkpt><trkpt lat="39.323729" lon="16.4748148"><ele>1379.0</ele><time>2026-05-03T12:38:58.767Z</time></trkpt><trkpt lat="39.3238729" lon="16.4750739"><ele>1379.0</ele><time>2026-05-03T12:38:59.772Z</time></trkpt><trkpt lat="39.324008" lon="16.4753146"><ele>1379.0</ele><time>2026-05-03T12:39:00.768Z</time></trkpt><trkpt lat="39.3241333" lon="16.4755377"><ele>1379.0</ele><time>2026-05-03T12:39:01.785Z</time></trkpt><trkpt lat="39.3242501" lon="16.4757443"><ele>1379.0</ele><time>2026-05-03T12:39:02.768Z</time></trkpt><trkpt lat="39.3243602" lon="16.4759348"><ele>1379.0</ele><time>2026-05-03T12:39:03.766Z</time></trkpt><trkpt lat="39.3244644" lon="16.4761191"><ele>1379.0</ele><time>2026-05-03T12:39:04.772Z</time></trkpt><trkpt lat="39.3245689" lon="16.4762893"><ele>1378.3333333333335</ele><time>2026-05-03T12:39:05.775Z</time></trkpt><trkpt lat="39.3246807" lon="16.4764859"><ele>1377.6666666666667</ele><time>2026-05-03T12:39:06.774Z</time></trkpt><trkpt lat="39.3247923" lon="16.4766809"><ele>1377.0</ele><time>2026-05-03T12:39:07.786Z</time></trkpt><trkpt lat="39.3249039" lon="16.4768836"><ele>1376.6666666666667</ele><time>2026-05-03T12:39:08.769Z</time></trkpt><trkpt lat="39.3250217" lon="16.4770969"><ele>1376.3333333333335</ele><time>2026-05-03T12:39:09.773Z</time></trkpt><trkpt lat="39.3251372" lon="16.4773046"><ele>1376.0</ele><time>2026-05-03T12:39:10.769Z</time></trkpt><trkpt lat="39.3252454" lon="16.4775062"><ele>1375.6666666666667</ele><time>2026-05-03T12:39:11.774Z</time></trkpt><trkpt lat="39.3253371" lon="16.4776958"><ele>1375.3333333333333</ele><time>2026-05-03T12:39:12.767Z</time></trkpt><trkpt lat="39.3254335" lon="16.4778913"><ele>1375.0</ele><time>2026-05-03T12:39:13.793Z</time></trkpt><trkpt lat="39.3255211" lon="16.478092"><ele>1375.0</ele><time>2026-05-03T12:39:14.776Z</time></trkpt><trkpt lat="39.3256" lon="16.4782856"><ele>1375.0</ele><time>2026-05-03T12:39:15.778Z</time></trkpt><trkpt lat="39.3256665" lon="16.4784784"><ele>1375.0</ele><time>2026-05-03T12:39:16.781Z</time></trkpt><trkpt lat="39.3257287" lon="16.4786657"><ele>1374.5</ele><time>2026-05-03T12:39:17.769Z</time></trkpt><trkpt lat="39.3257916" lon="16.4788467"><ele>1374.0</ele><time>2026-05-03T12:39:18.779Z</time></trkpt><trkpt lat="39.325853" lon="16.4790216"><ele>1373.5</ele><time>2026-05-03T12:39:19.78Z</time></trkpt><trkpt lat="39.3259132" lon="16.4791892"><ele>1373.0</ele><time>2026-05-03T12:39:20.769Z</time></trkpt><trkpt lat="39.3259761" lon="16.479356"><ele>1373.0</ele><time>2026-05-03T12:39:21.784Z</time></trkpt><trkpt lat="39.326042" lon="16.4795211"><ele>1373.0</ele><time>2026-05-03T12:39:22.774Z</time></trkpt><trkpt lat="39.3261103" lon="16.479678"><ele>1373.0</ele><time>2026-05-03T12:39:23.773Z</time></trkpt><trkpt lat="39.3261763" lon="16.479829"><ele>1373.0</ele><time>2026-05-03T12:39:24.775Z</time></trkpt><trkpt lat="39.3262396" lon="16.479976"><ele>1373.0</ele><time>2026-05-03T12:39:25.791Z</time></trkpt><trkpt lat="39.3263" lon="16.480111"><ele>1373.0</ele><time>2026-05-03T12:39:26.771Z</time></trkpt><trkpt lat="39.3263587" lon="16.4802345"><ele>1373.0</ele><time>2026-05-03T12:39:27.771Z</time></trkpt><trkpt lat="39.3264135" lon="16.4803475"><ele>1373.0</ele><time>2026-05-03T12:39:28.776Z</time></trkpt><trkpt lat="39.3264638" lon="16.4804592"><ele>1373.0</ele><time>2026-05-03T12:39:29.772Z</time></trkpt><trkpt lat="39.3265123" lon="16.4805634"><ele>1372.2</ele><time>2026-05-03T12:39:30.78Z</time></trkpt><trkpt lat="39.3265591" lon="16.4806561"><ele>1371.4</ele><time>2026-05-03T12:39:31.772Z</time></trkpt><trkpt lat="39.3265976" lon="16.4807376"><ele>1370.6000000000001</ele><time>2026-05-03T12:39:32.767Z</time></trkpt><trkpt lat="39.3266455" lon="16.4808699"><ele>1369.8000000000002</ele><time>2026-05-03T12:39:34.781Z</time></trkpt><trkpt lat="39.3266856" lon="16.4809599"><ele>1369.0</ele><time>2026-05-03T12:39:36.77Z</time></trkpt><trkpt lat="39.3267567" lon="16.481061"><ele>1369.0</ele><time>2026-05-03T12:39:38.773Z</time></trkpt><trkpt lat="39.3268062" lon="16.4811282"><ele>1369.0</ele><time>2026-05-03T12:39:39.777Z</time></trkpt><trkpt lat="39.3268842" lon="16.4812216"><ele>1369.0</ele><time>2026-05-03T12:39:40.774Z</time></trkpt><trkpt lat="39.3269545" lon="16.4813154"><ele>1369.0</ele><time>2026-05-03T12:39:41.775Z</time></trkpt><trkpt lat="39.3270144" lon="16.4813974"><ele>1369.0</ele><time>2026-05-03T12:39:42.77Z</time></trkpt><trkpt lat="39.3270707" lon="16.4814716"><ele>1369.0</ele><time>2026-05-03T12:39:43.772Z</time></trkpt><trkpt lat="39.3271632" lon="16.4815636"><ele>1369.0</ele><time>2026-05-03T12:39:45.771Z</time></trkpt><trkpt lat="39.3272254" lon="16.4816171"><ele>1369.0</ele><time>2026-05-03T12:39:47.77Z</time></trkpt><trkpt lat="39.3273302" lon="16.4816064"><ele>1369.0</ele><time>2026-05-03T12:39:49.774Z</time></trkpt><trkpt lat="39.327397" lon="16.4815252"><ele>1369.0</ele><time>2026-05-03T12:39:50.77Z</time></trkpt><trkpt lat="39.3274731" lon="16.4814304"><ele>1369.0</ele><time>2026-05-03T12:39:51.769Z</time></trkpt><trkpt lat="39.3275395" lon="16.4813034"><ele>1369.75</ele><time>2026-05-03T12:39:52.768Z</time></trkpt><trkpt lat="39.3276075" lon="16.4811765"><ele>1370.5</ele><time>2026-05-03T12:39:53.771Z</time></trkpt><trkpt lat="39.3276791" lon="16.4810478"><ele>1371.25</ele><time>2026-05-03T12:39:54.777Z</time></trkpt><trkpt lat="39.3277521" lon="16.4809063"><ele>1372.0</ele><time>2026-05-03T12:39:55.769Z</time></trkpt><trkpt lat="39.3278249" lon="16.4807757"><ele>1372.0</ele><time>2026-05-03T12:39:56.772Z</time></trkpt><trkpt lat="39.3279083" lon="16.4806414"><ele>1372.0</ele><time>2026-05-03T12:39:57.765Z</time></trkpt><trkpt lat="39.3279933" lon="16.480526"><ele>1372.0</ele><time>2026-05-03T12:39:58.766Z</time></trkpt><trkpt lat="39.3280846" lon="16.4804127"><ele>1373.0</ele><time>2026-05-03T12:39:59.765Z</time></trkpt></trkseg><trkseg><trkpt lat="39.3378735" lon="16.4432696"><ele>1287.0</ele><time>2026-05-03T13:31:36.318Z</time></trkpt><trkpt lat="39.3377861" lon="16.4433594"><ele>1287.0</ele><time>2026-05-03T13:31:38.334Z</time></trkpt><trkpt lat="39.3377524" lon="16.4434922"><ele>1287.0</ele><time>2026-05-03T13:31:40.317Z</time></trkpt><trkpt lat="39.3377947" lon="16.44362"><ele>1287.0</ele><time>2026-05-03T13:31:42.36Z</time></trkpt><trkpt lat="39.3378301" lon="16.4437482"><ele>1287.0</ele><time>2026-05-03T13:31:44.325Z</time></trkpt><trkpt lat="39.3378633" lon="16.4438554"><ele>1287.6</ele><time>2026-05-03T13:31:46.314Z</time></trkpt><trkpt lat="39.3378962" lon="16.4439478"><ele>1288.1999999999998</ele><time>2026-05-03T13:31:48.32Z</time></trkpt><trkpt lat="39.3379359" lon="16.444055"><ele>1288.8</ele><time>2026-05-03T13:31:50.318Z</time></trkpt><trkpt lat="39.3379846" lon="16.4441831"><ele>1289.4</ele><time>2026-05-03T13:31:52.321Z</time></trkpt><trkpt lat="39.338037" lon="16.4443221"><ele>1290.0</ele><time>2026-05-03T13:31:54.319Z</time></trkpt><trkpt lat="39.3380904" lon="16.4444722"><ele>1287.8</ele><time>2026-05-03T13:31:56.312Z</time></trkpt><trkpt lat="39.3381234" lon="16.4445656"><ele>1285.6</ele><time>2026-05-03T13:31:57.324Z</time></trkpt><trkpt lat="39.3381699" lon="16.4446962"><ele>1283.4</ele><time>2026-05-03T13:31:58.32Z</time></trkpt><trkpt lat="39.3382206" lon="16.4448334"><ele>1281.2</ele><time>2026-05-03T13:31:59.317Z</time></trkpt><trkpt lat="39.3382649" lon="16.4449502"><ele>1279.0</ele><time>2026-05-03T13:32:00.309Z</time></trkpt><trkpt lat="39.3383053" lon="16.445057"><ele>1278.3333333333333</ele><time>2026-05-03T13:32:01.327Z</time></trkpt><trkpt lat="39.338342" lon="16.4451549"><ele>1277.6666666666665</ele><time>2026-05-03T13:32:02.316Z</time></trkpt><trkpt lat="39.3383781" lon="16.4452554"><ele>1277.0</ele><time>2026-05-03T13:32:03.314Z</time></trkpt><trkpt lat="39.3384142" lon="16.4453589"><ele>1276.3333333333333</ele><time>2026-05-03T13:32:04.31Z</time></trkpt><trkpt lat="39.3384521" lon="16.4454639"><ele>1275.6666666666667</ele><time>2026-05-03T13:32:05.312Z</time></trkpt><trkpt lat="39.3384911" lon="16.4455715"><ele>1275.0</ele><time>2026-05-03T13:32:06.31Z</time></trkpt><trkpt lat="39.338532" lon="16.445686"><ele>1275.0</ele><time>2026-05-03T13:32:07.312Z</time></trkpt><trkpt lat="39.3385755" lon="16.4458027"><ele>1275.0</ele><time>2026-05-03T13:32:08.31Z</time></trkpt><trkpt lat="39.338618" lon="16.4459206"><ele>1275.0</ele><time>2026-05-03T13:32:09.313Z</time></trkpt><trkpt lat="39.3386589" lon="16.4460389"><ele>1275.0</ele><time>2026-05-03T13:32:10.316Z</time></trkpt><trkpt lat="39.3386993" lon="16.4461576"><ele>1275.0</ele><time>2026-05-03T13:32:11.317Z</time></trkpt><trkpt lat="39.3387384" lon="16.4462855"><ele>1275.0</ele><time>2026-05-03T13:32:12.317Z</time></trkpt><trkpt lat="39.3387749" lon="16.4464061"><ele>1275.0</ele><time>2026-05-03T13:32:13.312Z</time></trkpt><trkpt lat="39.3388076" lon="16.4465141"><ele>1275.0</ele><time>2026-05-03T13:32:14.313Z</time></trkpt><trkpt lat="39.338836" lon="16.4466082"><ele>1275.0</ele><time>2026-05-03T13:32:15.338Z</time></trkpt><trkpt lat="39.3388838" lon="16.4467497"><ele>1275.0</ele><time>2026-05-03T13:32:17.313Z</time></trkpt><trkpt lat="39.3389346" lon="16.4468391"><ele>1274.142857142857</ele><time>2026-05-03T13:32:19.309Z</time></trkpt><trkpt lat="39.3389923" lon="16.4468828"><ele>1273.2857142857142</ele><time>2026-05-03T13:32:21.313Z</time></trkpt><trkpt lat="39.3390667" lon="16.4468889"><ele>1272.4285714285716</ele><time>2026-05-03T13:32:23.324Z</time></trkpt><trkpt lat="39.339131" lon="16.4468484"><ele>1271.5714285714284</ele><time>2026-05-03T13:32:26.319Z</time></trkpt><trkpt lat="39.3392124" lon="16.4467911"><ele>1270.7142857142856</ele><time>2026-05-03T13:32:29.322Z</time></trkpt><trkpt lat="39.33927" lon="16.4467425"><ele>1269.857142857143</ele><time>2026-05-03T13:32:31.315Z</time></trkpt><trkpt lat="39.3393313" lon="16.4466882"><ele>1269.0</ele><time>2026-05-03T13:32:33.321Z</time></trkpt><trkpt lat="39.3394093" lon="16.4466117"><ele>1269.0</ele><time>2026-05-03T13:32:36.322Z</time></trkpt><trkpt lat="39.3394142" lon="16.4465165"><ele>1269.0</ele><time>2026-05-03T13:32:38.315Z</time></trkpt><trkpt lat="39.3393309" lon="16.4463729"><ele>1269.0</ele><time>2026-05-03T13:32:40.321Z</time></trkpt><trkpt lat="39.3392962" lon="16.4462826"><ele>1269.0</ele><time>2026-05-03T13:32:41.312Z</time></trkpt><trkpt lat="39.3392636" lon="16.4461929"><ele>1269.0</ele><time>2026-05-03T13:32:42.311Z</time></trkpt><trkpt lat="39.3392309" lon="16.4460972"><ele>1269.0</ele><time>2026-05-03T13:32:43.309Z</time></trkpt><trkpt lat="39.339198" lon="16.4459945"><ele>1270.0</ele><time>2026-05-03T13:32:44.31Z</time></trkpt><trkpt lat="39.3391663" lon="16.4458825"><ele>1271.0</ele><time>2026-05-03T13:32:45.311Z</time></trkpt><trkpt lat="39.3391262" lon="16.445751"><ele>1272.0</ele><time>2026-05-03T13:32:46.312Z</time></trkpt><trkpt lat="39.3390829" lon="16.4456035"><ele>1273.0</ele><time>2026-05-03T13:32:47.308Z</time></trkpt><trkpt lat="39.3390418" lon="16.4454733"><ele>1274.0</ele><time>2026-05-03T13:32:48.318Z</time></trkpt><trkpt lat="39.3390036" lon="16.4453514"><ele>1274.25</ele><time>2026-05-03T13:32:49.316Z</time></trkpt><trkpt lat="39.3389655" lon="16.4452284"><ele>1274.5</ele><time>2026-05-03T13:32:50.316Z</time></trkpt><trkpt lat="39.3389143" lon="16.4451043"><ele>1274.75</ele><time>2026-05-03T13:32:51.319Z</time></trkpt><trkpt lat="39.3388631" lon="16.4449683"><ele>1275.0</ele><time>2026-05-03T13:32:52.317Z</time></trkpt><trkpt lat="39.338832" lon="16.4448073"><ele>1275.0</ele><time>2026-05-03T13:32:53.326Z</time></trkpt><trkpt lat="39.3388067" lon="16.4446559"><ele>1275.0</ele><time>2026-05-03T13:32:54.318Z</time></trkpt><trkpt lat="39.3387886" lon="16.4445124"><ele>1275.0</ele><time>2026-05-03T13:32:55.327Z</time></trkpt><trkpt lat="39.3387677" lon="16.4443777"><ele>1275.0</ele><time>2026-05-03T13:32:56.32Z</time></trkpt><trkpt lat="39.3387434" lon="16.4442639"><ele>1275.0</ele><time>2026-05-03T13:32:57.318Z</time></trkpt><trkpt lat="39.3387241" lon="16.444152"><ele>1275.8</ele><time>2026-05-03T13:32:58.319Z</time></trkpt><trkpt lat="39.3387009" lon="16.4440424"><ele>1276.6</ele><time>2026-05-03T13:32:59.314Z</time></trkpt><trkpt lat="39.3386742" lon="16.4439294"><ele>1277.4</ele><time>2026-05-03T13:33:00.327Z</time></trkpt><trkpt lat="39.3386437" lon="16.4437963"><ele>1278.2</ele><time>2026-05-03T13:33:01.315Z</time></trkpt><trkpt lat="39.3386073" lon="16.4436758"><ele>1279.0</ele><time>2026-05-03T13:33:02.314Z</time></trkpt><trkpt lat="39.3385725" lon="16.4435605"><ele>1280.3333333333333</ele><time>2026-05-03T13:33:03.311Z</time></trkpt><trkpt lat="39.338544" lon="16.4434601"><ele>1281.6666666666665</ele><time>2026-05-03T13:33:04.309Z</time></trkpt><trkpt lat="39.3385127" lon="16.4433581"><ele>1283.0</ele><time>2026-05-03T13:33:05.315Z</time></trkpt><trkpt lat="39.3384855" lon="16.4432627"><ele>1284.3333333333333</ele><time>2026-05-03T13:33:06.317Z</time></trkpt><trkpt lat="39.3384598" lon="16.4431854"><ele>1285.6666666666667</ele><time>2026-05-03T13:33:07.316Z</time></trkpt><trkpt lat="39.3384276" lon="16.443085"><ele>1287.0</ele><time>2026-05-03T13:33:10.324Z</time></trkpt><trkpt lat="39.3384062" lon="16.4429805"><ele>1287.6666666666667</ele><time>2026-05-03T13:33:13.323Z</time></trkpt><trkpt lat="39.3383899" lon="16.4428778"><ele>1288.3333333333333</ele><time>2026-05-03T13:33:15.326Z</time></trkpt><trkpt lat="39.3383563" lon="16.4427422"><ele>1289.0</ele><time>2026-05-03T13:33:17.334Z</time></trkpt><trkpt lat="39.3383456" lon="16.4426595"><ele>1289.6666666666665</ele><time>2026-05-03T13:33:18.319Z</time></trkpt><trkpt lat="39.3383092" lon="16.4425645"><ele>1290.3333333333333</ele><time>2026-05-03T13:33:19.321Z</time></trkpt><trkpt lat="39.3382697" lon="16.4424591"><ele>1291.0</ele><time>2026-05-03T13:33:20.32Z</time></trkpt><trkpt lat="39.3382535" lon="16.4423611"><ele>1291.0</ele><time>2026-05-03T13:33:21.327Z</time></trkpt><trkpt lat="39.3382381" lon="16.4422818"><ele>1291.0</ele><time>2026-05-03T13:33:22.321Z</time></trkpt><trkpt lat="39.3382101" lon="16.4421647"><ele>1291.0</ele><time>2026-05-03T13:33:24.32Z</time></trkpt><trkpt lat="39.3381587" lon="16.4420573"><ele>1291.0</ele><time>2026-05-03T13:33:26.328Z</time></trkpt><trkpt lat="39.3381067" lon="16.4419506"><ele>1291.0</ele><time>2026-05-03T13:33:28.321Z</time></trkpt><trkpt lat="39.3380537" lon="16.4418079"><ele>1290.9999999999998</ele><time>2026-05-03T13:33:30.32Z</time></trkpt><trkpt lat="39.3380244" lon="16.4417265"><ele>1291.0</ele><time>2026-05-03T13:33:31.331Z</time></trkpt><trkpt lat="39.3379943" lon="16.4416424"><ele>1291.0</ele><time>2026-05-03T13:33:32.324Z</time></trkpt><trkpt lat="39.3379628" lon="16.4415557"><ele>1291.0</ele><time>2026-05-03T13:33:33.316Z</time></trkpt><trkpt lat="39.337931" lon="16.4414721"><ele>1291.0</ele><time>2026-05-03T13:33:34.318Z</time></trkpt><trkpt lat="39.3379007" lon="16.4413892"><ele>1290.9999999999998</ele><time>2026-05-03T13:33:35.323Z</time></trkpt><trkpt lat="39.3378713" lon="16.4413048"><ele>1291.0</ele><time>2026-05-03T13:33:36.315Z</time></trkpt><trkpt lat="39.3378428" lon="16.4412203"><ele>1291.8</ele><time>2026-05-03T13:33:37.319Z</time></trkpt><trkpt lat="39.3378208" lon="16.4411417"><ele>1292.6</ele><time>2026-05-03T13:33:38.323Z</time></trkpt><trkpt lat="39.3377908" lon="16.4409871"><ele>1293.4</ele><time>2026-05-03T13:33:40.321Z</time></trkpt><trkpt lat="39.337802" lon="16.4408631"><ele>1294.2</ele><time>2026-05-03T13:33:42.317Z</time></trkpt><trkpt lat="39.3378593" lon="16.4407307"><ele>1295.0</ele><time>2026-05-03T13:33:44.313Z</time></trkpt><trkpt lat="39.33791" lon="16.4406775"><ele>1295.0</ele><time>2026-05-03T13:33:45.314Z</time></trkpt><trkpt lat="39.3379989" lon="16.4406098"><ele>1295.0</ele><time>2026-05-03T13:33:47.318Z</time></trkpt><trkpt lat="39.3380593" lon="16.4405704"><ele>1295.0</ele><time>2026-05-03T13:33:49.319Z</time></trkpt><trkpt lat="39.3381174" lon="16.4405366"><ele>1295.0</ele><time>2026-05-03T13:33:51.323Z</time></trkpt><trkpt lat="39.338203" lon="16.440538"><ele>1295.0</ele><time>2026-05-03T13:33:54.317Z</time></trkpt><trkpt lat="39.3382869" lon="16.4405666"><ele>1295.0</ele><time>2026-05-03T13:33:56.325Z</time></trkpt><trkpt lat="39.3383558" lon="16.440611"><ele>1295.8</ele><time>2026-05-03T13:33:58.32Z</time></trkpt><trkpt lat="39.3384295" lon="16.4406813"><ele>1296.6</ele><time>2026-05-03T13:34:00.319Z</time></trkpt><trkpt lat="39.3385015" lon="16.4407835"><ele>1297.4</ele><time>2026-05-03T13:34:02.317Z</time></trkpt><trkpt lat="39.3385702" lon="16.440889"><ele>1298.2</ele><time>2026-05-03T13:34:04.319Z</time></trkpt><trkpt lat="39.3386244" lon="16.440995"><ele>1299.0</ele><time>2026-05-03T13:34:06.315Z</time></trkpt><trkpt lat="39.3386621" lon="16.4411123"><ele>1299.0</ele><time>2026-05-03T13:34:08.321Z</time></trkpt><trkpt lat="39.3387024" lon="16.4412566"><ele>1299.0</ele><time>2026-05-03T13:34:10.336Z</time></trkpt><trkpt lat="39.338722" lon="16.4413391"><ele>1299.0</ele><time>2026-05-03T13:34:11.313Z</time></trkpt><trkpt lat="39.3387411" lon="16.4414207"><ele>1299.0</ele><time>2026-05-03T13:34:12.318Z</time></trkpt><trkpt lat="39.338762" lon="16.4415033"><ele>1299.0</ele><time>2026-05-03T13:34:13.319Z</time></trkpt><trkpt lat="39.3387863" lon="16.4415851"><ele>1299.0</ele><time>2026-05-03T13:34:14.319Z</time></trkpt><trkpt lat="39.3388159" lon="16.4416612"><ele>1298.8333333333333</ele><time>2026-05-03T13:34:15.315Z</time></trkpt><trkpt lat="39.338859" lon="16.4418088"><ele>1298.6666666666667</ele><time>2026-05-03T13:34:17.316Z</time></trkpt><trkpt lat="39.3388765" lon="16.4419006"><ele>1298.5</ele><time>2026-05-03T13:34:18.32Z</time></trkpt><trkpt lat="39.3388979" lon="16.4420003"><ele>1298.3333333333335</ele><time>2026-05-03T13:34:19.32Z</time></trkpt><trkpt lat="39.3389352" lon="16.4420948"><ele>1298.1666666666667</ele><time>2026-05-03T13:34:20.318Z</time></trkpt><trkpt lat="39.3389691" lon="16.4421952"><ele>1298.0</ele><time>2026-05-03T13:34:21.317Z</time></trkpt><trkpt lat="39.3390083" lon="16.4423052"><ele>1297.5</ele><time>2026-05-03T13:34:22.315Z</time></trkpt><trkpt lat="39.3390567" lon="16.4424374"><ele>1297.0</ele><time>2026-05-03T13:34:23.315Z</time></trkpt><trkpt lat="39.3391059" lon="16.4425778"><ele>1296.5</ele><time>2026-05-03T13:34:24.313Z</time></trkpt><trkpt lat="39.3391551" lon="16.4427121"><ele>1296.0</ele><time>2026-05-03T13:34:25.318Z</time></trkpt><trkpt lat="39.3392027" lon="16.4428361"><ele>1296.0</ele><time>2026-05-03T13:34:26.315Z</time></trkpt><trkpt lat="39.3392425" lon="16.4429454"><ele>1296.0</ele><time>2026-05-03T13:34:27.315Z</time></trkpt><trkpt lat="39.3392822" lon="16.443047"><ele>1296.0</ele><time>2026-05-03T13:34:28.316Z</time></trkpt><trkpt lat="39.3393208" lon="16.4431514"><ele>1296.0</ele><time>2026-05-03T13:34:29.312Z</time></trkpt><trkpt lat="39.3393612" lon="16.4432505"><ele>1296.0</ele><time>2026-05-03T13:34:30.316Z</time></trkpt><trkpt lat="39.3393979" lon="16.4433513"><ele>1296.0</ele><time>2026-05-03T13:34:31.319Z</time></trkpt><trkpt lat="39.3394338" lon="16.4434469"><ele>1294.8</ele><time>2026-05-03T13:34:32.323Z</time></trkpt><trkpt lat="39.3394643" lon="16.4435319"><ele>1293.6</ele><time>2026-05-03T13:34:33.318Z</time></trkpt><trkpt lat="39.3394909" lon="16.4436126"><ele>1292.4</ele><time>2026-05-03T13:34:34.315Z</time></trkpt><trkpt lat="39.3395253" lon="16.4437544"><ele>1291.2</ele><time>2026-05-03T13:34:36.315Z</time></trkpt><trkpt lat="39.3396175" lon="16.4438485"><ele>1290.0</ele><time>2026-05-03T13:34:38.312Z</time></trkpt><trkpt lat="39.3397062" lon="16.4439056"><ele>1289.8</ele><time>2026-05-03T13:34:40.32Z</time></trkpt><trkpt lat="39.3397774" lon="16.4439528"><ele>1289.6</ele><time>2026-05-03T13:34:42.323Z</time></trkpt><trkpt lat="39.3398443" lon="16.4440071"><ele>1289.4</ele><time>2026-05-03T13:34:44.315Z</time></trkpt><trkpt lat="39.3399385" lon="16.4440754"><ele>1289.2</ele><time>2026-05-03T13:34:46.323Z</time></trkpt><trkpt lat="39.3400106" lon="16.4441658"><ele>1289.0</ele><time>2026-05-03T13:34:47.316Z</time></trkpt><trkpt lat="39.3400789" lon="16.4443094"><ele>1289.0</ele><time>2026-05-03T13:34:48.314Z</time></trkpt><trkpt lat="39.3401266" lon="16.4444767"><ele>1289.0</ele><time>2026-05-03T13:34:49.318Z</time></trkpt><trkpt lat="39.3401625" lon="16.4446222"><ele>1289.0</ele><time>2026-05-03T13:34:50.315Z</time></trkpt><trkpt lat="39.3402028" lon="16.4447708"><ele>1289.0</ele><time>2026-05-03T13:34:51.313Z</time></trkpt><trkpt lat="39.3402432" lon="16.4449219"><ele>1289.0</ele><time>2026-05-03T13:34:52.313Z</time></trkpt><trkpt lat="39.3402853" lon="16.4450915"><ele>1289.0</ele><time>2026-05-03T13:34:53.318Z</time></trkpt><trkpt lat="39.3403309" lon="16.4452749"><ele>1289.0</ele><time>2026-05-03T13:34:54.314Z</time></trkpt><trkpt lat="39.3403688" lon="16.4454588"><ele>1289.0</ele><time>2026-05-03T13:34:55.324Z</time></trkpt><trkpt lat="39.3403981" lon="16.4456257"><ele>1286.5</ele><time>2026-05-03T13:34:56.309Z</time></trkpt><trkpt lat="39.3404311" lon="16.4457874"><ele>1284.0</ele><time>2026-05-03T13:34:57.315Z</time></trkpt><trkpt lat="39.3404678" lon="16.4459397"><ele>1281.5</ele><time>2026-05-03T13:34:58.319Z</time></trkpt><trkpt lat="39.3405047" lon="16.4460918"><ele>1279.0</ele><time>2026-05-03T13:34:59.319Z</time></trkpt><trkpt lat="39.3405402" lon="16.4462392"><ele>1279.75</ele><time>2026-05-03T13:35:00.331Z</time></trkpt><trkpt lat="39.3405786" lon="16.4463983"><ele>1280.5</ele><time>2026-05-03T13:35:01.318Z</time></trkpt><trkpt lat="39.3406183" lon="16.4465672"><ele>1281.25</ele><time>2026-05-03T13:35:02.323Z</time></trkpt><trkpt lat="39.3406582" lon="16.4467434"><ele>1282.0</ele><time>2026-05-03T13:35:03.321Z</time></trkpt><trkpt lat="39.3407005" lon="16.4469103"><ele>1282.0</ele><time>2026-05-03T13:35:04.32Z</time></trkpt><trkpt lat="39.3407376" lon="16.4470613"><ele>1282.0</ele><time>2026-05-03T13:35:05.32Z</time></trkpt><trkpt lat="39.3407672" lon="16.4471914"><ele>1282.0</ele><time>2026-05-03T13:35:06.316Z</time></trkpt><trkpt lat="39.3407997" lon="16.4473218"><ele>1282.0</ele><time>2026-05-03T13:35:07.319Z</time></trkpt><trkpt lat="39.3408322" lon="16.4474415"><ele>1282.0</ele><time>2026-05-03T13:35:08.312Z</time></trkpt><trkpt lat="39.3408604" lon="16.4475559"><ele>1282.2857142857142</ele><time>2026-05-03T13:35:09.315Z</time></trkpt><trkpt lat="39.3408807" lon="16.4476508"><ele>1282.5714285714284</ele><time>2026-05-03T13:35:10.322Z</time></trkpt><trkpt lat="39.3409058" lon="16.4477405"><ele>1282.8571428571427</ele><time>2026-05-03T13:35:11.316Z</time></trkpt><trkpt lat="39.3409274" lon="16.4478268"><ele>1283.142857142857</ele><time>2026-05-03T13:35:12.315Z</time></trkpt><trkpt lat="39.3409501" lon="16.4479082"><ele>1283.4285714285713</ele><time>2026-05-03T13:35:13.346Z</time></trkpt><trkpt lat="39.3409607" lon="16.4479897"><ele>1283.7142857142856</ele><time>2026-05-03T13:35:14.313Z</time></trkpt><trkpt lat="39.3409799" lon="16.4480745"><ele>1284.0</ele><time>2026-05-03T13:35:15.315Z</time></trkpt><trkpt lat="39.3410046" lon="16.4481654"><ele>1283.4285714285713</ele><time>2026-05-03T13:35:16.319Z</time></trkpt><trkpt lat="39.3410277" lon="16.4482571"><ele>1282.857142857143</ele><time>2026-05-03T13:35:17.322Z</time></trkpt><trkpt lat="39.3410511" lon="16.4483426"><ele>1282.2857142857142</ele><time>2026-05-03T13:35:18.316Z</time></trkpt><trkpt lat="39.3410717" lon="16.4484284"><ele>1281.7142857142858</ele><time>2026-05-03T13:35:19.316Z</time></trkpt><trkpt lat="39.3410912" lon="16.4485102"><ele>1281.142857142857</ele><time>2026-05-03T13:35:20.314Z</time></trkpt><trkpt lat="39.3411119" lon="16.4485921"><ele>1280.5714285714284</ele><time>2026-05-03T13:35:21.317Z</time></trkpt><trkpt lat="39.3411329" lon="16.4486782"><ele>1280.0</ele><time>2026-05-03T13:35:22.32Z</time></trkpt><trkpt lat="39.3411515" lon="16.4487564"><ele>1279.0</ele><time>2026-05-03T13:35:23.312Z</time></trkpt><trkpt lat="39.3411712" lon="16.4488455"><ele>1278.0</ele><time>2026-05-03T13:35:24.317Z</time></trkpt><trkpt lat="39.3411825" lon="16.4489285"><ele>1277.0</ele><time>2026-05-03T13:35:25.315Z</time></trkpt><trkpt lat="39.3412006" lon="16.4490129"><ele>1276.0</ele><time>2026-05-03T13:35:26.324Z</time></trkpt><trkpt lat="39.3412214" lon="16.449108"><ele>1275.0</ele><time>2026-05-03T13:35:27.314Z</time></trkpt><trkpt lat="39.3412283" lon="16.4492104"><ele>1274.0</ele><time>2026-05-03T13:35:28.314Z</time></trkpt><trkpt lat="39.3412206" lon="16.4493024"><ele>1273.0</ele><time>2026-05-03T13:35:29.316Z</time></trkpt><trkpt lat="39.3412065" lon="16.4493965"><ele>1273.0</ele><time>2026-05-03T13:35:30.323Z</time></trkpt><trkpt lat="39.3411953" lon="16.4494902"><ele>1273.0</ele><time>2026-05-03T13:35:31.318Z</time></trkpt><trkpt lat="39.3411866" lon="16.4495945"><ele>1273.0</ele><time>2026-05-03T13:35:32.313Z</time></trkpt><trkpt lat="39.3411803" lon="16.4496934"><ele>1273.0</ele><time>2026-05-03T13:35:33.315Z</time></trkpt><trkpt lat="39.3411684" lon="16.4497929"><ele>1273.0</ele><time>2026-05-03T13:35:34.323Z</time></trkpt><trkpt lat="39.3411568" lon="16.4498907"><ele>1273.0</ele><time>2026-05-03T13:35:35.316Z</time></trkpt><trkpt lat="39.3411458" lon="16.449987"><ele>1272.1666666666665</ele><time>2026-05-03T13:35:36.314Z</time></trkpt><trkpt lat="39.3411352" lon="16.4500847"><ele>1271.3333333333333</ele><time>2026-05-03T13:35:37.312Z</time></trkpt><trkpt lat="39.341155" lon="16.4501821"><ele>1270.5</ele><time>2026-05-03T13:35:38.317Z</time></trkpt><trkpt lat="39.3411756" lon="16.4502777"><ele>1269.6666666666667</ele><time>2026-05-03T13:35:39.317Z</time></trkpt><trkpt lat="39.3412092" lon="16.450367"><ele>1268.8333333333335</ele><time>2026-05-03T13:35:40.322Z</time></trkpt><trkpt lat="39.3412427" lon="16.450459"><ele>1268.0</ele><time>2026-05-03T13:35:41.313Z</time></trkpt><trkpt lat="39.3412763" lon="16.4505567"><ele>1267.0</ele><time>2026-05-03T13:35:42.319Z</time></trkpt><trkpt lat="39.3413148" lon="16.4506566"><ele>1266.0</ele><time>2026-05-03T13:35:43.311Z</time></trkpt><trkpt lat="39.341355" lon="16.4507654"><ele>1265.0</ele><time>2026-05-03T13:35:44.311Z</time></trkpt><trkpt lat="39.3414" lon="16.450895"><ele>1264.0</ele><time>2026-05-03T13:35:45.33Z</time></trkpt><trkpt lat="39.3414556" lon="16.4510532"><ele>1263.0</ele><time>2026-05-03T13:35:46.317Z</time></trkpt><trkpt lat="39.3415216" lon="16.4512444"><ele>1263.75</ele><time>2026-05-03T13:35:47.315Z</time></trkpt><trkpt lat="39.3415803" lon="16.451425"><ele>1264.5</ele><time>2026-05-03T13:35:48.324Z</time></trkpt><trkpt lat="39.3416406" lon="16.4516024"><ele>1265.25</ele><time>2026-05-03T13:35:49.317Z</time></trkpt><trkpt lat="39.3416906" lon="16.4517638"><ele>1266.0</ele><time>2026-05-03T13:35:50.344Z</time></trkpt><trkpt lat="39.3417375" lon="16.4519133"><ele>1266.0</ele><time>2026-05-03T13:35:51.316Z</time></trkpt><trkpt lat="39.3417812" lon="16.4520634"><ele>1266.0</ele><time>2026-05-03T13:35:52.317Z</time></trkpt><trkpt lat="39.3418226" lon="16.4522109"><ele>1266.0</ele><time>2026-05-03T13:35:53.318Z</time></trkpt><trkpt lat="39.341853" lon="16.4523638"><ele>1266.0</ele><time>2026-05-03T13:35:54.316Z</time></trkpt><trkpt lat="39.3418763" lon="16.4525092"><ele>1264.6</ele><time>2026-05-03T13:35:55.316Z</time></trkpt><trkpt lat="39.341883" lon="16.4526527"><ele>1263.1999999999998</ele><time>2026-05-03T13:35:56.32Z</time></trkpt><trkpt lat="39.3418933" lon="16.4527895"><ele>1261.8000000000002</ele><time>2026-05-03T13:35:57.313Z</time></trkpt><trkpt lat="39.3419098" lon="16.452925"><ele>1260.4</ele><time>2026-05-03T13:35:58.316Z</time></trkpt><trkpt lat="39.3419164" lon="16.4530668"><ele>1259.0</ele><time>2026-05-03T13:35:59.323Z</time></trkpt><trkpt lat="39.3419224" lon="16.4532127"><ele>1258.0</ele><time>2026-05-03T13:36:00.319Z</time></trkpt><trkpt lat="39.3419419" lon="16.4533554"><ele>1257.0</ele><time>2026-05-03T13:36:01.314Z</time></trkpt><trkpt lat="39.3419599" lon="16.453502"><ele>1256.0</ele><time>2026-05-03T13:36:02.315Z</time></trkpt><trkpt lat="39.3419953" lon="16.4536467"><ele>1255.0</ele><time>2026-05-03T13:36:03.324Z</time></trkpt><trkpt lat="39.3420328" lon="16.4537706"><ele>1254.0</ele><time>2026-05-03T13:36:04.318Z</time></trkpt><trkpt lat="39.3420701" lon="16.4538931"><ele>1253.6666666666667</ele><time>2026-05-03T13:36:05.314Z</time></trkpt><trkpt lat="39.3421002" lon="16.4539989"><ele>1253.3333333333333</ele><time>2026-05-03T13:36:06.315Z</time></trkpt><trkpt lat="39.3421164" lon="16.4540931"><ele>1253.0</ele><time>2026-05-03T13:36:07.319Z</time></trkpt><trkpt lat="39.3420919" lon="16.4542167"><ele>1252.6666666666665</ele><time>2026-05-03T13:36:09.323Z</time></trkpt><trkpt lat="39.3420773" lon="16.454341"><ele>1252.3333333333333</ele><time>2026-05-03T13:36:11.324Z</time></trkpt><trkpt lat="39.3421064" lon="16.454434"><ele>1252.0</ele><time>2026-05-03T13:36:12.332Z</time></trkpt><trkpt lat="39.3421583" lon="16.454545"><ele>1250.75</ele><time>2026-05-03T13:36:13.314Z</time></trkpt><trkpt lat="39.3422204" lon="16.4546699"><ele>1249.5</ele><time>2026-05-03T13:36:14.319Z</time></trkpt><trkpt lat="39.3422798" lon="16.4547934"><ele>1248.25</ele><time>2026-05-03T13:36:15.319Z</time></trkpt><trkpt lat="39.3423459" lon="16.4549137"><ele>1247.0</ele><time>2026-05-03T13:36:16.319Z</time></trkpt><trkpt lat="39.3424124" lon="16.455038"><ele>1247.0</ele><time>2026-05-03T13:36:17.316Z</time></trkpt><trkpt lat="39.3424763" lon="16.4551683"><ele>1247.0</ele><time>2026-05-03T13:36:18.312Z</time></trkpt><trkpt lat="39.3425404" lon="16.4553"><ele>1247.0</ele><time>2026-05-03T13:36:19.315Z</time></trkpt><trkpt lat="39.3426034" lon="16.455434"><ele>1247.0</ele><time>2026-05-03T13:36:20.318Z</time></trkpt><trkpt lat="39.34267" lon="16.4555685"><ele>1246.0</ele><time>2026-05-03T13:36:21.314Z</time></trkpt><trkpt lat="39.3427361" lon="16.4557099"><ele>1245.0</ele><time>2026-05-03T13:36:22.317Z</time></trkpt><trkpt lat="39.3427975" lon="16.455858"><ele>1244.0</ele><time>2026-05-03T13:36:23.315Z</time></trkpt><trkpt lat="39.3428527" lon="16.4560051"><ele>1243.0</ele><time>2026-05-03T13:36:24.316Z</time></trkpt><trkpt lat="39.3428953" lon="16.4561569"><ele>1242.0</ele><time>2026-05-03T13:36:25.315Z</time></trkpt><trkpt lat="39.3429254" lon="16.4563118"><ele>1241.0</ele><time>2026-05-03T13:36:26.313Z</time></trkpt><trkpt lat="39.3429486" lon="16.4564573"><ele>1240.0</ele><time>2026-05-03T13:36:27.319Z</time></trkpt><trkpt lat="39.3429683" lon="16.4565957"><ele>1239.0</ele><time>2026-05-03T13:36:28.314Z</time></trkpt><trkpt lat="39.3429879" lon="16.4567328"><ele>1239.0</ele><time>2026-05-03T13:36:29.314Z</time></trkpt><trkpt lat="39.3430047" lon="16.4568661"><ele>1239.0</ele><time>2026-05-03T13:36:30.32Z</time></trkpt><trkpt lat="39.3430209" lon="16.4569989"><ele>1239.0</ele><time>2026-05-03T13:36:31.325Z</time></trkpt><trkpt lat="39.3430368" lon="16.4571277"><ele>1239.0</ele><time>2026-05-03T13:36:32.317Z</time></trkpt><trkpt lat="39.3430585" lon="16.4572663"><ele>1239.0</ele><time>2026-05-03T13:36:33.323Z</time></trkpt><trkpt lat="39.343082" lon="16.457403"><ele>1239.4</ele><time>2026-05-03T13:36:34.321Z</time></trkpt><trkpt lat="39.3431082" lon="16.457541"><ele>1239.8000000000002</ele><time>2026-05-03T13:36:35.32Z</time></trkpt><trkpt lat="39.343136" lon="16.4576733"><ele>1240.1999999999998</ele><time>2026-05-03T13:36:36.314Z</time></trkpt><trkpt lat="39.3431743" lon="16.4578"><ele>1240.6</ele><time>2026-05-03T13:36:37.316Z</time></trkpt><trkpt lat="39.3432203" lon="16.4579161"><ele>1241.0</ele><time>2026-05-03T13:36:38.314Z</time></trkpt><trkpt lat="39.3432766" lon="16.4580194"><ele>1241.2</ele><time>2026-05-03T13:36:39.316Z</time></trkpt><trkpt lat="39.3433324" lon="16.4581209"><ele>1241.3999999999999</ele><time>2026-05-03T13:36:40.316Z</time></trkpt><trkpt lat="39.3434145" lon="16.458203"><ele>1241.6</ele><time>2026-05-03T13:36:41.315Z</time></trkpt><trkpt lat="39.3435" lon="16.4582836"><ele>1241.8</ele><time>2026-05-03T13:36:42.322Z</time></trkpt><trkpt lat="39.343602" lon="16.4583434"><ele>1242.0</ele><time>2026-05-03T13:36:43.313Z</time></trkpt><trkpt lat="39.3437127" lon="16.4583978"><ele>1242.0</ele><time>2026-05-03T13:36:44.319Z</time></trkpt><trkpt lat="39.3438213" lon="16.458452"><ele>1242.0</ele><time>2026-05-03T13:36:45.316Z</time></trkpt><trkpt lat="39.343921" lon="16.4585022"><ele>1242.0</ele><time>2026-05-03T13:36:46.321Z</time></trkpt><trkpt lat="39.3440111" lon="16.4585523"><ele>1242.0</ele><time>2026-05-03T13:36:47.316Z</time></trkpt><trkpt lat="39.3440926" lon="16.4585975"><ele>1242.0</ele><time>2026-05-03T13:36:48.317Z</time></trkpt><trkpt lat="39.3441702" lon="16.4586372"><ele>1242.0</ele><time>2026-05-03T13:36:49.322Z</time></trkpt><trkpt lat="39.3442462" lon="16.458674"><ele>1242.0</ele><time>2026-05-03T13:36:50.315Z</time></trkpt><trkpt lat="39.344323" lon="16.4587124"><ele>1242.0</ele><time>2026-05-03T13:36:51.317Z</time></trkpt><trkpt lat="39.3444027" lon="16.4587507"><ele>1242.0</ele><time>2026-05-03T13:36:52.32Z</time></trkpt><trkpt lat="39.344486" lon="16.4587951"><ele>1242.0</ele><time>2026-05-03T13:36:53.324Z</time></trkpt><trkpt lat="39.3445734" lon="16.4588384"><ele>1242.0</ele><time>2026-05-03T13:36:54.318Z</time></trkpt><trkpt lat="39.3446621" lon="16.458893"><ele>1244.0</ele><time>2026-05-03T13:36:55.314Z</time></trkpt><trkpt lat="39.3447506" lon="16.4589381"><ele>1246.0</ele><time>2026-05-03T13:36:56.315Z</time></trkpt><trkpt lat="39.3448306" lon="16.4589857"><ele>1248.0</ele><time>2026-05-03T13:36:57.315Z</time></trkpt><trkpt lat="39.3449111" lon="16.4590359"><ele>1250.0</ele><time>2026-05-03T13:36:58.319Z</time></trkpt><trkpt lat="39.3449918" lon="16.4590959"><ele>1252.0</ele><time>2026-05-03T13:36:59.325Z</time></trkpt><trkpt lat="39.3450754" lon="16.4591649"><ele>1252.0</ele><time>2026-05-03T13:37:00.319Z</time></trkpt><trkpt lat="39.3451579" lon="16.4592383"><ele>1252.0</ele><time>2026-05-03T13:37:01.315Z</time></trkpt><trkpt lat="39.3452397" lon="16.4593263"><ele>1252.0</ele><time>2026-05-03T13:37:02.319Z</time></trkpt><trkpt lat="39.3453183" lon="16.4594225"><ele>1252.0</ele><time>2026-05-03T13:37:03.315Z</time></trkpt><trkpt lat="39.3453951" lon="16.459527"><ele>1252.0</ele><time>2026-05-03T13:37:04.341Z</time></trkpt><trkpt lat="39.3454676" lon="16.4596393"><ele>1252.0</ele><time>2026-05-03T13:37:05.318Z</time></trkpt><trkpt lat="39.3455401" lon="16.4597571"><ele>1252.0</ele><time>2026-05-03T13:37:06.325Z</time></trkpt><trkpt lat="39.3456142" lon="16.4598784"><ele>1252.0</ele><time>2026-05-03T13:37:07.318Z</time></trkpt><trkpt lat="39.3456877" lon="16.4599964"><ele>1252.0</ele><time>2026-05-03T13:37:08.32Z</time></trkpt><trkpt lat="39.3457636" lon="16.4601238"><ele>1249.75</ele><time>2026-05-03T13:37:09.316Z</time></trkpt><trkpt lat="39.3458422" lon="16.4602526"><ele>1247.5</ele><time>2026-05-03T13:37:10.317Z</time></trkpt><trkpt lat="39.3459153" lon="16.4603738"><ele>1245.25</ele><time>2026-05-03T13:37:11.317Z</time></trkpt><trkpt lat="39.3459828" lon="16.4604855"><ele>1243.0</ele><time>2026-05-03T13:37:12.32Z</time></trkpt><trkpt lat="39.3460482" lon="16.4605921"><ele>1243.0</ele><time>2026-05-03T13:37:13.323Z</time></trkpt><trkpt lat="39.3461094" lon="16.4606929"><ele>1243.0</ele><time>2026-05-03T13:37:14.32Z</time></trkpt><trkpt lat="39.346167" lon="16.4607823"><ele>1243.0</ele><time>2026-05-03T13:37:15.323Z</time></trkpt><trkpt lat="39.346216" lon="16.4608581"><ele>1243.0</ele><time>2026-05-03T13:37:16.316Z</time></trkpt><trkpt lat="39.3462927" lon="16.4609629"><ele>1243.0</ele><time>2026-05-03T13:37:18.322Z</time></trkpt><trkpt lat="39.346338" lon="16.4610337"><ele>1243.0</ele><time>2026-05-03T13:37:21.328Z</time></trkpt><trkpt lat="39.3463997" lon="16.4611257"><ele>1242.6</ele><time>2026-05-03T13:37:25.323Z</time></trkpt><trkpt lat="39.3464553" lon="16.4612032"><ele>1242.1999999999998</ele><time>2026-05-03T13:37:26.315Z</time></trkpt><trkpt lat="39.3465229" lon="16.4612807"><ele>1241.8</ele><time>2026-05-03T13:37:27.315Z</time></trkpt><trkpt lat="39.3466144" lon="16.4613588"><ele>1241.3999999999999</ele><time>2026-05-03T13:37:28.314Z</time></trkpt><trkpt lat="39.3467116" lon="16.4614192"><ele>1241.0</ele><time>2026-05-03T13:37:29.317Z</time></trkpt><trkpt lat="39.3468024" lon="16.4614659"><ele>1241.0</ele><time>2026-05-03T13:37:30.318Z</time></trkpt><trkpt lat="39.3468904" lon="16.4615214"><ele>1241.0</ele><time>2026-05-03T13:37:31.327Z</time></trkpt><trkpt lat="39.3469654" lon="16.4615779"><ele>1241.0</ele><time>2026-05-03T13:37:32.317Z</time></trkpt><trkpt lat="39.3470374" lon="16.4616306"><ele>1241.0</ele><time>2026-05-03T13:37:33.318Z</time></trkpt><trkpt lat="39.3471098" lon="16.4616793"><ele>1241.0</ele><time>2026-05-03T13:37:34.325Z</time></trkpt><trkpt lat="39.3471761" lon="16.4617331"><ele>1241.0</ele><time>2026-05-03T13:37:35.314Z</time></trkpt><trkpt lat="39.3472367" lon="16.4617903"><ele>1241.7142857142858</ele><time>2026-05-03T13:37:36.321Z</time></trkpt><trkpt lat="39.3472945" lon="16.4618525"><ele>1242.4285714285713</ele><time>2026-05-03T13:37:37.317Z</time></trkpt><trkpt lat="39.3473542" lon="16.4619174"><ele>1243.142857142857</ele><time>2026-05-03T13:37:38.324Z</time></trkpt><trkpt lat="39.3474198" lon="16.4619759"><ele>1243.857142857143</ele><time>2026-05-03T13:37:39.314Z</time></trkpt><trkpt lat="39.3474822" lon="16.4620318"><ele>1244.5714285714284</ele><time>2026-05-03T13:37:40.317Z</time></trkpt><trkpt lat="39.3475414" lon="16.4620771"><ele>1245.2857142857142</ele><time>2026-05-03T13:37:41.321Z</time></trkpt><trkpt lat="39.3475982" lon="16.4621188"><ele>1246.0</ele><time>2026-05-03T13:37:42.312Z</time></trkpt><trkpt lat="39.3476558" lon="16.4621671"><ele>1246.6666666666665</ele><time>2026-05-03T13:37:43.324Z</time></trkpt><trkpt lat="39.3477105" lon="16.4622238"><ele>1247.3333333333333</ele><time>2026-05-03T13:37:44.319Z</time></trkpt><trkpt lat="39.3477995" lon="16.4623125"><ele>1248.0</ele><time>2026-05-03T13:37:46.327Z</time></trkpt><trkpt lat="39.3478786" lon="16.4623962"><ele>1248.6666666666667</ele><time>2026-05-03T13:37:48.317Z</time></trkpt><trkpt lat="39.3479285" lon="16.4624605"><ele>1249.3333333333335</ele><time>2026-05-03T13:37:49.315Z</time></trkpt><trkpt lat="39.3479714" lon="16.462528"><ele>1250.0</ele><time>2026-05-03T13:37:50.318Z</time></trkpt><trkpt lat="39.3480151" lon="16.4625977"><ele>1251.0000000000002</ele><time>2026-05-03T13:37:51.327Z</time></trkpt><trkpt lat="39.3480559" lon="16.4626636"><ele>1252.0</ele><time>2026-05-03T13:37:52.313Z</time></trkpt><trkpt lat="39.3480974" lon="16.4627337"><ele>1253.0</ele><time>2026-05-03T13:37:53.319Z</time></trkpt><trkpt lat="39.3481366" lon="16.4628013"><ele>1254.0</ele><time>2026-05-03T13:37:54.314Z</time></trkpt><trkpt lat="39.3481792" lon="16.4628764"><ele>1255.0</ele><time>2026-05-03T13:37:55.319Z</time></trkpt><trkpt lat="39.3482215" lon="16.462962"><ele>1256.0000000000002</ele><time>2026-05-03T13:37:56.318Z</time></trkpt><trkpt lat="39.3482607" lon="16.4630465"><ele>1257.0</ele><time>2026-05-03T13:37:57.312Z</time></trkpt><trkpt lat="39.3483015" lon="16.4631379"><ele>1257.6</ele><time>2026-05-03T13:37:58.322Z</time></trkpt><trkpt lat="39.3483416" lon="16.4632361"><ele>1258.2</ele><time>2026-05-03T13:37:59.318Z</time></trkpt><trkpt lat="39.3483816" lon="16.4633455"><ele>1258.8</ele><time>2026-05-03T13:38:00.318Z</time></trkpt><trkpt lat="39.3484266" lon="16.4634689"><ele>1259.4</ele><time>2026-05-03T13:38:01.321Z</time></trkpt><trkpt lat="39.3484695" lon="16.4635886"><ele>1260.0</ele><time>2026-05-03T13:38:02.32Z</time></trkpt><trkpt lat="39.3485073" lon="16.4636969"><ele>1260.0</ele><time>2026-05-03T13:38:03.325Z</time></trkpt><trkpt lat="39.3485444" lon="16.4638042"><ele>1260.0</ele><time>2026-05-03T13:38:04.313Z</time></trkpt><trkpt lat="39.3485837" lon="16.4639159"><ele>1260.0</ele><time>2026-05-03T13:38:05.312Z</time></trkpt><trkpt lat="39.3486262" lon="16.4640293"><ele>1260.0</ele><time>2026-05-03T13:38:06.317Z</time></trkpt><trkpt lat="39.3486687" lon="16.4641425"><ele>1260.0</ele><time>2026-05-03T13:38:07.315Z</time></trkpt><trkpt lat="39.3487126" lon="16.4642546"><ele>1260.0</ele><time>2026-05-03T13:38:08.313Z</time></trkpt><trkpt lat="39.3487566" lon="16.4643661"><ele>1260.0</ele><time>2026-05-03T13:38:09.317Z</time></trkpt><trkpt lat="39.3487965" lon="16.464477"><ele>1260.0</ele><time>2026-05-03T13:38:10.328Z</time></trkpt><trkpt lat="39.3488287" lon="16.4645679"><ele>1260.0</ele><time>2026-05-03T13:38:11.323Z</time></trkpt><trkpt lat="39.3488618" lon="16.4646525"><ele>1260.0</ele><time>2026-05-03T13:38:13.327Z</time></trkpt><trkpt lat="39.3488876" lon="16.4647364"><ele>1260.0</ele><time>2026-05-03T13:38:22.32Z</time></trkpt><trkpt lat="39.3489212" lon="16.4648263"><ele>1260.75</ele><time>2026-05-03T13:38:23.336Z</time></trkpt><trkpt lat="39.3489664" lon="16.4649372"><ele>1261.5</ele><time>2026-05-03T13:38:24.32Z</time></trkpt><trkpt lat="39.3490233" lon="16.4650775"><ele>1262.25</ele><time>2026-05-03T13:38:25.326Z</time></trkpt><trkpt lat="39.3490797" lon="16.4652325"><ele>1263.0</ele><time>2026-05-03T13:38:26.318Z</time></trkpt><trkpt lat="39.3491276" lon="16.4653815"><ele>1264.2</ele><time>2026-05-03T13:38:27.322Z</time></trkpt><trkpt lat="39.3491696" lon="16.4655129"><ele>1265.4</ele><time>2026-05-03T13:38:28.318Z</time></trkpt><trkpt lat="39.3491961" lon="16.4656346"><ele>1266.6000000000001</ele><time>2026-05-03T13:38:29.333Z</time></trkpt><trkpt lat="39.3492184" lon="16.4657567"><ele>1267.8</ele><time>2026-05-03T13:38:30.316Z</time></trkpt><trkpt lat="39.3492357" lon="16.4658909"><ele>1269.0</ele><time>2026-05-03T13:38:31.313Z</time></trkpt><trkpt lat="39.3492372" lon="16.4660395"><ele>1269.0</ele><time>2026-05-03T13:38:32.316Z</time></trkpt><trkpt lat="39.349231" lon="16.4661858"><ele>1269.0</ele><time>2026-05-03T13:38:33.315Z</time></trkpt><trkpt lat="39.3492351" lon="16.4663345"><ele>1269.0</ele><time>2026-05-03T13:38:34.314Z</time></trkpt><trkpt lat="39.3492445" lon="16.4664805"><ele>1269.0</ele><time>2026-05-03T13:38:35.31Z</time></trkpt><trkpt lat="39.3492619" lon="16.4666206"><ele>1269.5</ele><time>2026-05-03T13:38:36.317Z</time></trkpt><trkpt lat="39.3492752" lon="16.4667709"><ele>1270.0</ele><time>2026-05-03T13:38:37.323Z</time></trkpt><trkpt lat="39.3492718" lon="16.4669242"><ele>1270.5</ele><time>2026-05-03T13:38:38.313Z</time></trkpt><trkpt lat="39.3492589" lon="16.4670729"><ele>1271.0</ele><time>2026-05-03T13:38:39.316Z</time></trkpt><trkpt lat="39.3492425" lon="16.4672089"><ele>1271.75</ele><time>2026-05-03T13:38:40.316Z</time></trkpt><trkpt lat="39.3492216" lon="16.4673424"><ele>1272.5</ele><time>2026-05-03T13:38:41.314Z</time></trkpt><trkpt lat="39.349208" lon="16.4674927"><ele>1273.25</ele><time>2026-05-03T13:38:42.321Z</time></trkpt><trkpt lat="39.3492337" lon="16.4676638"><ele>1274.0</ele><time>2026-05-03T13:38:43.317Z</time></trkpt><trkpt lat="39.3492626" lon="16.4678377"><ele>1273.4</ele><time>2026-05-03T13:38:44.315Z</time></trkpt><trkpt lat="39.3492807" lon="16.4679987"><ele>1272.8000000000002</ele><time>2026-05-03T13:38:45.316Z</time></trkpt><trkpt lat="39.3492885" lon="16.4681513"><ele>1272.1999999999998</ele><time>2026-05-03T13:38:46.314Z</time></trkpt><trkpt lat="39.3493027" lon="16.4682723"><ele>1271.6</ele><time>2026-05-03T13:38:47.311Z</time></trkpt><trkpt lat="39.3493299" lon="16.4683687"><ele>1271.0</ele><time>2026-05-03T13:38:48.322Z</time></trkpt><trkpt lat="39.3493656" lon="16.4684684"><ele>1271.0</ele><time>2026-05-03T13:38:49.312Z</time></trkpt><trkpt lat="39.3494141" lon="16.4685821"><ele>1271.0</ele><time>2026-05-03T13:38:50.32Z</time></trkpt><trkpt lat="39.3494666" lon="16.4687003"><ele>1271.0</ele><time>2026-05-03T13:38:51.314Z</time></trkpt><trkpt lat="39.3495269" lon="16.4688334"><ele>1271.0</ele><time>2026-05-03T13:38:52.316Z</time></trkpt><trkpt lat="39.3495817" lon="16.4689529"><ele>1271.0</ele><time>2026-05-03T13:38:53.311Z</time></trkpt><trkpt lat="39.3496187" lon="16.4690779"><ele>1269.0</ele><time>2026-05-03T13:38:54.317Z</time></trkpt><trkpt lat="39.3496492" lon="16.4691995"><ele>1267.0</ele><time>2026-05-03T13:38:55.312Z</time></trkpt><trkpt lat="39.3496831" lon="16.4693123"><ele>1265.0</ele><time>2026-05-03T13:38:56.314Z</time></trkpt><trkpt lat="39.349709" lon="16.4694166"><ele>1263.0</ele><time>2026-05-03T13:38:57.32Z</time></trkpt><trkpt lat="39.3497335" lon="16.4695362"><ele>1261.0</ele><time>2026-05-03T13:38:58.317Z</time></trkpt><trkpt lat="39.3497552" lon="16.4696874"><ele>1255.0</ele><time>2026-05-03T13:38:59.312Z</time></trkpt><trkpt lat="39.3497754" lon="16.4698597"><ele>1249.0</ele><time>2026-05-03T13:39:00.326Z</time></trkpt><trkpt lat="39.349795" lon="16.4700181"><ele>1243.0</ele><time>2026-05-03T13:39:01.319Z</time></trkpt><trkpt lat="39.3498109" lon="16.470159"><ele>1237.0</ele><time>2026-05-03T13:39:02.326Z</time></trkpt><trkpt lat="39.3498257" lon="16.4702962"><ele>1237.0</ele><time>2026-05-03T13:39:03.321Z</time></trkpt><trkpt lat="39.3498393" lon="16.4704232"><ele>1237.0</ele><time>2026-05-03T13:39:04.313Z</time></trkpt><trkpt lat="39.3498541" lon="16.4705432"><ele>1237.0</ele><time>2026-05-03T13:39:05.325Z</time></trkpt><trkpt lat="39.3498678" lon="16.4706548"><ele>1237.0</ele><time>2026-05-03T13:39:06.322Z</time></trkpt><trkpt lat="39.3498831" lon="16.4707667"><ele>1237.0</ele><time>2026-05-03T13:39:07.317Z</time></trkpt><trkpt lat="39.349897" lon="16.4708849"><ele>1237.0</ele><time>2026-05-03T13:39:08.321Z</time></trkpt><trkpt lat="39.3499108" lon="16.4710082"><ele>1237.0</ele><time>2026-05-03T13:39:09.315Z</time></trkpt><trkpt lat="39.3499252" lon="16.4711392"><ele>1237.0</ele><time>2026-05-03T13:39:10.33Z</time></trkpt><trkpt lat="39.3499412" lon="16.4712675"><ele>1237.0</ele><time>2026-05-03T13:39:11.32Z</time></trkpt><trkpt lat="39.3499529" lon="16.4713945"><ele>1237.0</ele><time>2026-05-03T13:39:12.317Z</time></trkpt><trkpt lat="39.3499641" lon="16.4715205"><ele>1236.1666666666665</ele><time>2026-05-03T13:39:13.321Z</time></trkpt><trkpt lat="39.349973" lon="16.4716481"><ele>1235.3333333333333</ele><time>2026-05-03T13:39:14.321Z</time></trkpt><trkpt lat="39.3499792" lon="16.4717595"><ele>1234.5</ele><time>2026-05-03T13:39:15.32Z</time></trkpt><trkpt lat="39.3499856" lon="16.4718599"><ele>1233.6666666666667</ele><time>2026-05-03T13:39:16.324Z</time></trkpt><trkpt lat="39.3499939" lon="16.4719691"><ele>1232.8333333333335</ele><time>2026-05-03T13:39:17.321Z</time></trkpt><trkpt lat="39.3500028" lon="16.4720822"><ele>1232.0</ele><time>2026-05-03T13:39:18.323Z</time></trkpt><trkpt lat="39.350013" lon="16.4721963"><ele>1231.0</ele><time>2026-05-03T13:39:19.321Z</time></trkpt><trkpt lat="39.3500225" lon="16.4723105"><ele>1230.0</ele><time>2026-05-03T13:39:20.315Z</time></trkpt><trkpt lat="39.3500337" lon="16.47243"><ele>1229.0</ele><time>2026-05-03T13:39:21.316Z</time></trkpt><trkpt lat="39.3500474" lon="16.4725453"><ele>1228.0</ele><time>2026-05-03T13:39:22.321Z</time></trkpt><trkpt lat="39.3500602" lon="16.4726482"><ele>1227.0</ele><time>2026-05-03T13:39:23.318Z</time></trkpt><trkpt lat="39.3500711" lon="16.4727437"><ele>1226.0</ele><time>2026-05-03T13:39:24.32Z</time></trkpt><trkpt lat="39.3500795" lon="16.4728415"><ele>1225.1666666666667</ele><time>2026-05-03T13:39:25.316Z</time></trkpt><trkpt lat="39.3500884" lon="16.4729397"><ele>1224.3333333333335</ele><time>2026-05-03T13:39:26.322Z</time></trkpt><trkpt lat="39.3500964" lon="16.4730361"><ele>1223.5</ele><time>2026-05-03T13:39:27.323Z</time></trkpt><trkpt lat="39.3501027" lon="16.4731312"><ele>1222.6666666666667</ele><time>2026-05-03T13:39:28.326Z</time></trkpt><trkpt lat="39.3501064" lon="16.4732296"><ele>1221.8333333333333</ele><time>2026-05-03T13:39:29.323Z</time></trkpt><trkpt lat="39.3501078" lon="16.4733333"><ele>1221.0</ele><time>2026-05-03T13:39:30.318Z</time></trkpt><trkpt lat="39.3500961" lon="16.4734375"><ele>1221.0</ele><time>2026-05-03T13:39:31.315Z</time></trkpt><trkpt lat="39.350081" lon="16.4735457"><ele>1221.0</ele><time>2026-05-03T13:39:32.32Z</time></trkpt><trkpt lat="39.3500638" lon="16.4736594"><ele>1221.0</ele><time>2026-05-03T13:39:33.319Z</time></trkpt><trkpt lat="39.3500434" lon="16.473768"><ele>1221.0</ele><time>2026-05-03T13:39:34.318Z</time></trkpt><trkpt lat="39.3500263" lon="16.47388"><ele>1221.0</ele><time>2026-05-03T13:39:35.323Z</time></trkpt><trkpt lat="39.3500083" lon="16.4739942"><ele>1221.0</ele><time>2026-05-03T13:39:36.32Z</time></trkpt><trkpt lat="39.3499937" lon="16.4741107"><ele>1220.5</ele><time>2026-05-03T13:39:37.315Z</time></trkpt><trkpt lat="39.3499815" lon="16.4742278"><ele>1220.0</ele><time>2026-05-03T13:39:38.318Z</time></trkpt><trkpt lat="39.3499685" lon="16.4743337"><ele>1219.5</ele><time>2026-05-03T13:39:39.322Z</time></trkpt><trkpt lat="39.3499532" lon="16.4744339"><ele>1219.0</ele><time>2026-05-03T13:39:40.339Z</time></trkpt><trkpt lat="39.3499443" lon="16.4745377"><ele>1218.5</ele><time>2026-05-03T13:39:41.323Z</time></trkpt><trkpt lat="39.3499388" lon="16.4746412"><ele>1218.0</ele><time>2026-05-03T13:39:42.325Z</time></trkpt><trkpt lat="39.3499363" lon="16.4747415"><ele>1217.3333333333333</ele><time>2026-05-03T13:39:43.32Z</time></trkpt><trkpt lat="39.3499364" lon="16.4748413"><ele>1216.6666666666667</ele><time>2026-05-03T13:39:44.321Z</time></trkpt><trkpt lat="39.3499353" lon="16.4749365"><ele>1216.0</ele><time>2026-05-03T13:39:45.318Z</time></trkpt><trkpt lat="39.349937" lon="16.4750251"><ele>1215.3333333333335</ele><time>2026-05-03T13:39:46.319Z</time></trkpt><trkpt lat="39.3499259" lon="16.4751718"><ele>1214.6666666666667</ele><time>2026-05-03T13:39:48.319Z</time></trkpt><trkpt lat="39.3498913" lon="16.4753102"><ele>1214.0</ele><time>2026-05-03T13:39:50.321Z</time></trkpt><trkpt lat="39.3498352" lon="16.4754174"><ele>1213.3333333333335</ele><time>2026-05-03T13:39:52.319Z</time></trkpt><trkpt lat="39.3497752" lon="16.4755046"><ele>1212.6666666666667</ele><time>2026-05-03T13:39:54.322Z</time></trkpt><trkpt lat="39.3497487" lon="16.4755851"><ele>1212.0</ele><time>2026-05-03T13:39:57.324Z</time></trkpt><trkpt lat="39.3497486" lon="16.4756807"><ele>1211.3333333333333</ele><time>2026-05-03T13:40:33.33Z</time></trkpt><trkpt lat="39.349765" lon="16.475808"><ele>1210.6666666666665</ele><time>2026-05-03T13:40:35.316Z</time></trkpt><trkpt lat="39.3497746" lon="16.4759032"><ele>1210.0</ele><time>2026-05-03T13:40:36.313Z</time></trkpt><trkpt lat="39.3497662" lon="16.4760222"><ele>1210.0</ele><time>2026-05-03T13:40:37.318Z</time></trkpt><trkpt lat="39.3497518" lon="16.4761565"><ele>1210.0</ele><time>2026-05-03T13:40:38.315Z</time></trkpt><trkpt lat="39.3497403" lon="16.4762991"><ele>1210.0</ele><time>2026-05-03T13:40:39.313Z</time></trkpt><trkpt lat="39.3497225" lon="16.4764339"><ele>1210.0</ele><time>2026-05-03T13:40:40.321Z</time></trkpt><trkpt lat="39.3497016" lon="16.4765726"><ele>1210.0</ele><time>2026-05-03T13:40:41.315Z</time></trkpt><trkpt lat="39.3496866" lon="16.4767195"><ele>1210.25</ele><time>2026-05-03T13:40:42.316Z</time></trkpt><trkpt lat="39.349674" lon="16.4768814"><ele>1210.5</ele><time>2026-05-03T13:40:43.316Z</time></trkpt><trkpt lat="39.3496617" lon="16.4770591"><ele>1210.75</ele><time>2026-05-03T13:40:44.312Z</time></trkpt><trkpt lat="39.3496441" lon="16.4772288"><ele>1211.0</ele><time>2026-05-03T13:40:45.315Z</time></trkpt><trkpt lat="39.3496269" lon="16.4773991"><ele>1210.5</ele><time>2026-05-03T13:40:46.315Z</time></trkpt><trkpt lat="39.3496131" lon="16.4775644"><ele>1210.0</ele><time>2026-05-03T13:40:47.313Z</time></trkpt><trkpt lat="39.3495984" lon="16.4777306"><ele>1209.5</ele><time>2026-05-03T13:40:48.315Z</time></trkpt><trkpt lat="39.3495803" lon="16.4779031"><ele>1209.0</ele><time>2026-05-03T13:40:49.315Z</time></trkpt><trkpt lat="39.3495635" lon="16.4780722"><ele>1209.0</ele><time>2026-05-03T13:40:50.324Z</time></trkpt><trkpt lat="39.3495453" lon="16.4782413"><ele>1209.0</ele><time>2026-05-03T13:40:51.317Z</time></trkpt><trkpt lat="39.3495301" lon="16.4784086"><ele>1209.0</ele><time>2026-05-03T13:40:52.316Z</time></trkpt><trkpt lat="39.3495147" lon="16.4785785"><ele>1209.0</ele><time>2026-05-03T13:40:53.317Z</time></trkpt><trkpt lat="39.3494923" lon="16.4787558"><ele>1208.0</ele><time>2026-05-03T13:40:54.328Z</time></trkpt><trkpt lat="39.3494685" lon="16.4789264"><ele>1207.0</ele><time>2026-05-03T13:40:55.316Z</time></trkpt><trkpt lat="39.3494347" lon="16.4790891"><ele>1206.0</ele><time>2026-05-03T13:40:56.32Z</time></trkpt><trkpt lat="39.3493989" lon="16.479244"><ele>1205.0</ele><time>2026-05-03T13:40:57.318Z</time></trkpt><trkpt lat="39.3493671" lon="16.4793913"><ele>1205.0</ele><time>2026-05-03T13:40:58.318Z</time></trkpt><trkpt lat="39.3493403" lon="16.4795393"><ele>1205.0</ele><time>2026-05-03T13:40:59.319Z</time></trkpt><trkpt lat="39.3493211" lon="16.4796988"><ele>1205.0</ele><time>2026-05-03T13:41:00.323Z</time></trkpt><trkpt lat="39.349309" lon="16.4798661"><ele>1205.0</ele><time>2026-05-03T13:41:01.321Z</time></trkpt><trkpt lat="39.3493012" lon="16.4800322"><ele>1205.25</ele><time>2026-05-03T13:41:02.32Z</time></trkpt><trkpt lat="39.3492921" lon="16.4801977"><ele>1205.5</ele><time>2026-05-03T13:41:03.324Z</time></trkpt><trkpt lat="39.349283" lon="16.4803619"><ele>1205.75</ele><time>2026-05-03T13:41:04.324Z</time></trkpt><trkpt lat="39.3492745" lon="16.4805259"><ele>1206.0</ele><time>2026-05-03T13:41:05.318Z</time></trkpt><trkpt lat="39.3492631" lon="16.4806881"><ele>1205.3999999999999</ele><time>2026-05-03T13:41:06.325Z</time></trkpt><trkpt lat="39.3492527" lon="16.480841"><ele>1204.8</ele><time>2026-05-03T13:41:07.321Z</time></trkpt><trkpt lat="39.3492473" lon="16.4809869"><ele>1204.1999999999998</ele><time>2026-05-03T13:41:08.317Z</time></trkpt><trkpt lat="39.3492666" lon="16.4811243"><ele>1203.6</ele><time>2026-05-03T13:41:09.326Z</time></trkpt><trkpt lat="39.3493159" lon="16.4812431"><ele>1203.0</ele><time>2026-05-03T13:41:10.326Z</time></trkpt><trkpt lat="39.3493922" lon="16.4813372"><ele>1201.8</ele><time>2026-05-03T13:41:11.318Z</time></trkpt><trkpt lat="39.3494801" lon="16.4814218"><ele>1200.6</ele><time>2026-05-03T13:41:12.332Z</time></trkpt><trkpt lat="39.3495563" lon="16.481518"><ele>1199.4</ele><time>2026-05-03T13:41:13.325Z</time></trkpt><trkpt lat="39.349605" lon="16.4816325"><ele>1198.2</ele><time>2026-05-03T13:41:14.32Z</time></trkpt><trkpt lat="39.3496219" lon="16.48176"><ele>1197.0</ele><time>2026-05-03T13:41:15.326Z</time></trkpt><trkpt lat="39.3496009" lon="16.481889"><ele>1197.0</ele><time>2026-05-03T13:41:16.323Z</time></trkpt><trkpt lat="39.349551" lon="16.4820121"><ele>1197.0</ele><time>2026-05-03T13:41:17.32Z</time></trkpt><trkpt lat="39.3494911" lon="16.4821305"><ele>1197.0</ele><time>2026-05-03T13:41:18.321Z</time></trkpt><trkpt lat="39.3494311" lon="16.4822421"><ele>1197.0</ele><time>2026-05-03T13:41:19.328Z</time></trkpt><trkpt lat="39.3493718" lon="16.4823487"><ele>1197.0</ele><time>2026-05-03T13:41:20.323Z</time></trkpt><trkpt lat="39.3493156" lon="16.4824527"><ele>1195.5</ele><time>2026-05-03T13:41:21.318Z</time></trkpt><trkpt lat="39.3492619" lon="16.482552"><ele>1194.0</ele><time>2026-05-03T13:41:22.326Z</time></trkpt><trkpt lat="39.3492106" lon="16.4826493"><ele>1192.5</ele><time>2026-05-03T13:41:23.326Z</time></trkpt><trkpt lat="39.3491631" lon="16.4827406"><ele>1191.0</ele><time>2026-05-03T13:41:24.323Z</time></trkpt><trkpt lat="39.3491243" lon="16.4828268"><ele>1189.5</ele><time>2026-05-03T13:41:25.325Z</time></trkpt><trkpt lat="39.3491107" lon="16.4829237"><ele>1188.0</ele><time>2026-05-03T13:41:26.325Z</time></trkpt><trkpt lat="39.3491312" lon="16.4830346"><ele>1187.5</ele><time>2026-05-03T13:41:27.323Z</time></trkpt><trkpt lat="39.3491876" lon="16.483162"><ele>1187.0</ele><time>2026-05-03T13:41:28.323Z</time></trkpt><trkpt lat="39.3492468" lon="16.4832872"><ele>1186.5</ele><time>2026-05-03T13:41:29.327Z</time></trkpt><trkpt lat="39.3493067" lon="16.483418"><ele>1186.0</ele><time>2026-05-03T13:41:30.327Z</time></trkpt><trkpt lat="39.3493694" lon="16.4835582"><ele>1186.0</ele><time>2026-05-03T13:41:31.323Z</time></trkpt><trkpt lat="39.3494346" lon="16.4837074"><ele>1186.0</ele><time>2026-05-03T13:41:32.325Z</time></trkpt><trkpt lat="39.3495014" lon="16.4838662"><ele>1186.0</ele><time>2026-05-03T13:41:33.323Z</time></trkpt><trkpt lat="39.3495703" lon="16.4840287"><ele>1186.0</ele><time>2026-05-03T13:41:34.316Z</time></trkpt><trkpt lat="39.3496415" lon="16.4841899"><ele>1185.75</ele><time>2026-05-03T13:41:35.323Z</time></trkpt><trkpt lat="39.3497098" lon="16.4843421"><ele>1185.5</ele><time>2026-05-03T13:41:36.325Z</time></trkpt><trkpt lat="39.3497753" lon="16.48449"><ele>1185.25</ele><time>2026-05-03T13:41:37.327Z</time></trkpt><trkpt lat="39.3498417" lon="16.4846377"><ele>1185.0</ele><time>2026-05-03T13:41:38.334Z</time></trkpt><trkpt lat="39.3499144" lon="16.4847815"><ele>1184.25</ele><time>2026-05-03T13:41:39.328Z</time></trkpt><trkpt lat="39.3499945" lon="16.4849206"><ele>1183.5</ele><time>2026-05-03T13:41:40.332Z</time></trkpt><trkpt lat="39.3500811" lon="16.4850612"><ele>1182.75</ele><time>2026-05-03T13:41:41.326Z</time></trkpt><trkpt lat="39.3501713" lon="16.4851946"><ele>1182.0</ele><time>2026-05-03T13:41:42.338Z</time></trkpt><trkpt lat="39.3502628" lon="16.4853188"><ele>1181.75</ele><time>2026-05-03T13:41:43.333Z</time></trkpt><trkpt lat="39.3503572" lon="16.4854389"><ele>1181.5</ele><time>2026-05-03T13:41:44.322Z</time></trkpt><trkpt lat="39.3504512" lon="16.4855541"><ele>1181.25</ele><time>2026-05-03T13:41:45.33Z</time></trkpt><trkpt lat="39.3505394" lon="16.4856694"><ele>1181.0</ele><time>2026-05-03T13:41:46.328Z</time></trkpt><trkpt lat="39.3506306" lon="16.4857851"><ele>1181.0</ele><time>2026-05-03T13:41:47.333Z</time></trkpt><trkpt lat="39.350722" lon="16.4858975"><ele>1181.0</ele><time>2026-05-03T13:41:48.315Z</time></trkpt><trkpt lat="39.350813" lon="16.4860096"><ele>1181.0</ele><time>2026-05-03T13:41:49.325Z</time></trkpt><trkpt lat="39.3509053" lon="16.486132"><ele>1181.0</ele><time>2026-05-03T13:41:50.32Z</time></trkpt><trkpt lat="39.351001" lon="16.4862588"><ele>1180.5</ele><time>2026-05-03T13:41:51.322Z</time></trkpt><trkpt lat="39.3510956" lon="16.4863883"><ele>1180.0</ele><time>2026-05-03T13:41:52.33Z</time></trkpt><trkpt lat="39.3511907" lon="16.486517"><ele>1179.5</ele><time>2026-05-03T13:41:53.324Z</time></trkpt><trkpt lat="39.3512815" lon="16.486649"><ele>1179.0</ele><time>2026-05-03T13:41:54.326Z</time></trkpt><trkpt lat="39.3513653" lon="16.4867875"><ele>1178.5</ele><time>2026-05-03T13:41:55.326Z</time></trkpt><trkpt lat="39.3514431" lon="16.4869324"><ele>1178.0</ele><time>2026-05-03T13:41:56.327Z</time></trkpt><trkpt lat="39.3515164" lon="16.4870803"><ele>1177.5</ele><time>2026-05-03T13:41:57.33Z</time></trkpt><trkpt lat="39.3515848" lon="16.4872292"><ele>1177.0</ele><time>2026-05-03T13:41:58.333Z</time></trkpt><trkpt lat="39.3516512" lon="16.4873827"><ele>1177.0</ele><time>2026-05-03T13:41:59.327Z</time></trkpt><trkpt lat="39.3517155" lon="16.4875413"><ele>1177.0</ele><time>2026-05-03T13:42:00.318Z</time></trkpt><trkpt lat="39.3517774" lon="16.4877045"><ele>1177.0</ele><time>2026-05-03T13:42:01.32Z</time></trkpt><trkpt lat="39.351836" lon="16.4878704"><ele>1177.0</ele><time>2026-05-03T13:42:02.327Z</time></trkpt><trkpt lat="39.3518896" lon="16.4880395"><ele>1177.0</ele><time>2026-05-03T13:42:03.322Z</time></trkpt><trkpt lat="39.3519371" lon="16.4882067"><ele>1177.0</ele><time>2026-05-03T13:42:04.325Z</time></trkpt><trkpt lat="39.3519779" lon="16.4883654"><ele>1177.0</ele><time>2026-05-03T13:42:05.32Z</time></trkpt><trkpt lat="39.3520119" lon="16.4885228"><ele>1177.0</ele><time>2026-05-03T13:42:06.327Z</time></trkpt><trkpt lat="39.3520329" lon="16.4886852"><ele>1177.75</ele><time>2026-05-03T13:42:07.322Z</time></trkpt><trkpt lat="39.3520442" lon="16.4888528"><ele>1178.5</ele><time>2026-05-03T13:42:08.325Z</time></trkpt><trkpt lat="39.3520528" lon="16.4890183"><ele>1179.25</ele><time>2026-05-03T13:42:09.322Z</time></trkpt><trkpt lat="39.3520616" lon="16.4891799"><ele>1180.0</ele><time>2026-05-03T13:42:10.331Z</time></trkpt><trkpt lat="39.3520695" lon="16.4893393"><ele>1180.0</ele><time>2026-05-03T13:42:11.321Z</time></trkpt><trkpt lat="39.3520812" lon="16.4895021"><ele>1180.0</ele><time>2026-05-03T13:42:12.327Z</time></trkpt><trkpt lat="39.3520982" lon="16.4896662"><ele>1180.0</ele><time>2026-05-03T13:42:13.326Z</time></trkpt><trkpt lat="39.3521239" lon="16.4898234"><ele>1180.0</ele><time>2026-05-03T13:42:14.328Z</time></trkpt><trkpt lat="39.3521601" lon="16.4899726"><ele>1178.6</ele><time>2026-05-03T13:42:15.329Z</time></trkpt><trkpt lat="39.3522106" lon="16.4901094"><ele>1177.2</ele><time>2026-05-03T13:42:16.324Z</time></trkpt><trkpt lat="39.3522737" lon="16.490228"><ele>1175.8</ele><time>2026-05-03T13:42:17.329Z</time></trkpt><trkpt lat="39.3523402" lon="16.4903327"><ele>1174.4</ele><time>2026-05-03T13:42:18.32Z</time></trkpt><trkpt lat="39.3524034" lon="16.490434"><ele>1173.0</ele><time>2026-05-03T13:42:19.325Z</time></trkpt><trkpt lat="39.3524673" lon="16.4905377"><ele>1173.0</ele><time>2026-05-03T13:42:20.323Z</time></trkpt><trkpt lat="39.3525338" lon="16.490655"><ele>1173.0</ele><time>2026-05-03T13:42:21.338Z</time></trkpt><trkpt lat="39.3525923" lon="16.4907627"><ele>1173.0</ele><time>2026-05-03T13:42:22.329Z</time></trkpt><trkpt lat="39.352637" lon="16.4908658"><ele>1173.0</ele><time>2026-05-03T13:42:23.324Z</time></trkpt><trkpt lat="39.3526766" lon="16.4909657"><ele>1173.0</ele><time>2026-05-03T13:42:24.326Z</time></trkpt><trkpt lat="39.352716" lon="16.4910654"><ele>1173.0</ele><time>2026-05-03T13:42:25.327Z</time></trkpt><trkpt lat="39.352732" lon="16.4911855"><ele>1173.0</ele><time>2026-05-03T13:42:26.326Z</time></trkpt><trkpt lat="39.3527134" lon="16.4913072"><ele>1173.0</ele><time>2026-05-03T13:42:27.333Z</time></trkpt><trkpt lat="39.3526634" lon="16.4914244"><ele>1173.0</ele><time>2026-05-03T13:42:28.323Z</time></trkpt><trkpt lat="39.3526093" lon="16.4915083"><ele>1173.0</ele><time>2026-05-03T13:42:29.322Z</time></trkpt><trkpt lat="39.3525584" lon="16.4915726"><ele>1173.0</ele><time>2026-05-03T13:42:30.319Z</time></trkpt><trkpt lat="39.3525049" lon="16.491631"><ele>1174.3333333333333</ele><time>2026-05-03T13:42:31.319Z</time></trkpt><trkpt lat="39.3524498" lon="16.4916968"><ele>1175.6666666666667</ele><time>2026-05-03T13:42:32.322Z</time></trkpt><trkpt lat="39.3523892" lon="16.4917619"><ele>1177.0</ele><time>2026-05-03T13:42:33.323Z</time></trkpt><trkpt lat="39.3523247" lon="16.4918284"><ele>1178.3333333333335</ele><time>2026-05-03T13:42:34.328Z</time></trkpt><trkpt lat="39.3522606" lon="16.4918927"><ele>1179.6666666666667</ele><time>2026-05-03T13:42:35.322Z</time></trkpt><trkpt lat="39.3521851" lon="16.4919545"><ele>1181.0</ele><time>2026-05-03T13:42:36.315Z</time></trkpt><trkpt lat="39.3521075" lon="16.4920102"><ele>1181.6</ele><time>2026-05-03T13:42:37.327Z</time></trkpt><trkpt lat="39.3520332" lon="16.4920733"><ele>1182.1999999999998</ele><time>2026-05-03T13:42:38.324Z</time></trkpt><trkpt lat="39.3519714" lon="16.4921502"><ele>1182.8000000000002</ele><time>2026-05-03T13:42:39.316Z</time></trkpt><trkpt lat="39.351926" lon="16.4922539"><ele>1183.4</ele><time>2026-05-03T13:42:40.323Z</time></trkpt><trkpt lat="39.3518879" lon="16.4923689"><ele>1184.0</ele><time>2026-05-03T13:42:41.328Z</time></trkpt><trkpt lat="39.3518512" lon="16.4924803"><ele>1184.3333333333335</ele><time>2026-05-03T13:42:42.319Z</time></trkpt><trkpt lat="39.35181" lon="16.4925937"><ele>1184.6666666666667</ele><time>2026-05-03T13:42:43.319Z</time></trkpt><trkpt lat="39.3517685" lon="16.4927068"><ele>1185.0</ele><time>2026-05-03T13:42:44.322Z</time></trkpt><trkpt lat="39.3517471" lon="16.4928142"><ele>1185.3333333333333</ele><time>2026-05-03T13:42:45.33Z</time></trkpt><trkpt lat="39.3517507" lon="16.4929073"><ele>1185.6666666666665</ele><time>2026-05-03T13:42:46.32Z</time></trkpt><trkpt lat="39.351812" lon="16.4930041"><ele>1186.0</ele><time>2026-05-03T13:42:48.327Z</time></trkpt><trkpt lat="39.351905" lon="16.4929586"><ele>1186.0</ele><time>2026-05-03T13:42:50.324Z</time></trkpt><trkpt lat="39.3519846" lon="16.4929219"><ele>1186.0</ele><time>2026-05-03T13:42:51.324Z</time></trkpt><trkpt lat="39.3520631" lon="16.4929063"><ele>1186.0</ele><time>2026-05-03T13:42:52.325Z</time></trkpt><trkpt lat="39.3521363" lon="16.4929154"><ele>1186.0</ele><time>2026-05-03T13:42:53.329Z</time></trkpt><trkpt lat="39.3522033" lon="16.4929367"><ele>1186.0</ele><time>2026-05-03T13:42:54.336Z</time></trkpt><trkpt lat="39.3522676" lon="16.4929646"><ele>1186.0</ele><time>2026-05-03T13:42:55.322Z</time></trkpt><trkpt lat="39.3523392" lon="16.4929963"><ele>1188.5</ele><time>2026-05-03T13:42:56.322Z</time></trkpt><trkpt lat="39.352412" lon="16.4930117"><ele>1191.0</ele><time>2026-05-03T13:42:57.324Z</time></trkpt><trkpt lat="39.3524843" lon="16.4930425"><ele>1193.5</ele><time>2026-05-03T13:42:58.323Z</time></trkpt><trkpt lat="39.3525518" lon="16.4930767"><ele>1196.0</ele><time>2026-05-03T13:42:59.327Z</time></trkpt><trkpt lat="39.3526178" lon="16.4931352"><ele>1198.5</ele><time>2026-05-03T13:43:00.344Z</time></trkpt><trkpt lat="39.3526521" lon="16.4932365"><ele>1201.0</ele><time>2026-05-03T13:43:01.321Z</time></trkpt><trkpt lat="39.3526446" lon="16.4933444"><ele>1201.0</ele><time>2026-05-03T13:43:02.322Z</time></trkpt><trkpt lat="39.3526122" lon="16.4934602"><ele>1201.0</ele><time>2026-05-03T13:43:03.328Z</time></trkpt><trkpt lat="39.3525923" lon="16.4935948"><ele>1201.0</ele><time>2026-05-03T13:43:04.315Z</time></trkpt><trkpt lat="39.3525877" lon="16.4937219"><ele>1201.0</ele><time>2026-05-03T13:43:05.322Z</time></trkpt><trkpt lat="39.3525882" lon="16.4938429"><ele>1201.0</ele><time>2026-05-03T13:43:06.325Z</time></trkpt><trkpt lat="39.3525936" lon="16.4939564"><ele>1201.8</ele><time>2026-05-03T13:43:07.325Z</time></trkpt><trkpt lat="39.3526134" lon="16.4940664"><ele>1202.6</ele><time>2026-05-03T13:43:08.327Z</time></trkpt><trkpt lat="39.3526415" lon="16.4941775"><ele>1203.4</ele><time>2026-05-03T13:43:09.324Z</time></trkpt><trkpt lat="39.3526765" lon="16.4942924"><ele>1204.2</ele><time>2026-05-03T13:43:10.331Z</time></trkpt><trkpt lat="39.3527143" lon="16.4943988"><ele>1205.0</ele><time>2026-05-03T13:43:11.324Z</time></trkpt><trkpt lat="39.3527552" lon="16.4945021"><ele>1205.4</ele><time>2026-05-03T13:43:12.326Z</time></trkpt><trkpt lat="39.3528016" lon="16.4945999"><ele>1205.8</ele><time>2026-05-03T13:43:13.33Z</time></trkpt><trkpt lat="39.3528517" lon="16.4946969"><ele>1206.2</ele><time>2026-05-03T13:43:14.324Z</time></trkpt><trkpt lat="39.3529007" lon="16.4948038"><ele>1206.6</ele><time>2026-05-03T13:43:15.322Z</time></trkpt><trkpt lat="39.3529534" lon="16.4949086"><ele>1207.0</ele><time>2026-05-03T13:43:16.32Z</time></trkpt><trkpt lat="39.3529873" lon="16.4950281"><ele>1207.0</ele><time>2026-05-03T13:43:17.327Z</time></trkpt><trkpt lat="39.3530236" lon="16.4951461"><ele>1207.0</ele><time>2026-05-03T13:43:18.327Z</time></trkpt><trkpt lat="39.3530572" lon="16.4952676"><ele>1207.0</ele><time>2026-05-03T13:43:19.325Z</time></trkpt><trkpt lat="39.3530907" lon="16.495396"><ele>1207.0</ele><time>2026-05-03T13:43:20.324Z</time></trkpt><trkpt lat="39.3531303" lon="16.4955244"><ele>1207.0</ele><time>2026-05-03T13:43:21.323Z</time></trkpt><trkpt lat="39.3531716" lon="16.4956534"><ele>1209.6</ele><time>2026-05-03T13:43:22.315Z</time></trkpt><trkpt lat="39.353211" lon="16.4957799"><ele>1212.2</ele><time>2026-05-03T13:43:23.33Z</time></trkpt><trkpt lat="39.3532478" lon="16.4959051"><ele>1214.8</ele><time>2026-05-03T13:43:24.327Z</time></trkpt><trkpt lat="39.3532767" lon="16.496035"><ele>1217.4</ele><time>2026-05-03T13:43:25.327Z</time></trkpt><trkpt lat="39.3532962" lon="16.4961695"><ele>1220.0</ele><time>2026-05-03T13:43:26.325Z</time></trkpt><trkpt lat="39.3533181" lon="16.4963008"><ele>1220.0</ele><time>2026-05-03T13:43:27.322Z</time></trkpt><trkpt lat="39.3533412" lon="16.4964295"><ele>1220.0</ele><time>2026-05-03T13:43:28.334Z</time></trkpt><trkpt lat="39.3533592" lon="16.4965584"><ele>1220.0</ele><time>2026-05-03T13:43:29.328Z</time></trkpt><trkpt lat="39.3533642" lon="16.4966835"><ele>1220.0</ele><time>2026-05-03T13:43:30.325Z</time></trkpt><trkpt lat="39.3533594" lon="16.4968172"><ele>1220.0</ele><time>2026-05-03T13:43:31.329Z</time></trkpt><trkpt lat="39.3533455" lon="16.4969448"><ele>1220.0</ele><time>2026-05-03T13:43:32.331Z</time></trkpt><trkpt lat="39.3533235" lon="16.4970663"><ele>1220.0</ele><time>2026-05-03T13:43:33.324Z</time></trkpt><trkpt lat="39.3533009" lon="16.4971831"><ele>1220.0</ele><time>2026-05-03T13:43:34.321Z</time></trkpt><trkpt lat="39.3532801" lon="16.4973027"><ele>1220.0</ele><time>2026-05-03T13:43:35.33Z</time></trkpt><trkpt lat="39.3532642" lon="16.4974226"><ele>1220.0</ele><time>2026-05-03T13:43:36.327Z</time></trkpt><trkpt lat="39.3532539" lon="16.4975479"><ele>1220.6</ele><time>2026-05-03T13:43:37.339Z</time></trkpt><trkpt lat="39.3532486" lon="16.4976745"><ele>1221.2</ele><time>2026-05-03T13:43:38.331Z</time></trkpt><trkpt lat="39.3532554" lon="16.497806"><ele>1221.8</ele><time>2026-05-03T13:43:39.328Z</time></trkpt><trkpt lat="39.3532735" lon="16.4979422"><ele>1222.4</ele><time>2026-05-03T13:43:40.325Z</time></trkpt><trkpt lat="39.3532823" lon="16.4980777"><ele>1223.0</ele><time>2026-05-03T13:43:41.324Z</time></trkpt><trkpt lat="39.3532664" lon="16.4981982"><ele>1223.2</ele><time>2026-05-03T13:43:42.324Z</time></trkpt><trkpt lat="39.3532302" lon="16.4983057"><ele>1223.4</ele><time>2026-05-03T13:43:43.315Z</time></trkpt><trkpt lat="39.3531939" lon="16.4984127"><ele>1223.6000000000001</ele><time>2026-05-03T13:43:44.319Z</time></trkpt><trkpt lat="39.3531659" lon="16.4985243"><ele>1223.8</ele><time>2026-05-03T13:43:45.32Z</time></trkpt><trkpt lat="39.3531456" lon="16.4986428"><ele>1224.0</ele><time>2026-05-03T13:43:46.315Z</time></trkpt><trkpt lat="39.3531341" lon="16.4987623"><ele>1224.5</ele><time>2026-05-03T13:43:47.337Z</time></trkpt><trkpt lat="39.3531276" lon="16.4988814"><ele>1225.0</ele><time>2026-05-03T13:43:48.322Z</time></trkpt><trkpt lat="39.3531194" lon="16.498999"><ele>1225.5</ele><time>2026-05-03T13:43:49.32Z</time></trkpt><trkpt lat="39.3531176" lon="16.4991123"><ele>1226.0</ele><time>2026-05-03T13:43:50.322Z</time></trkpt><trkpt lat="39.3531156" lon="16.4992227"><ele>1226.5</ele><time>2026-05-03T13:43:51.32Z</time></trkpt><trkpt lat="39.3531187" lon="16.4993349"><ele>1227.0</ele><time>2026-05-03T13:43:52.318Z</time></trkpt><trkpt lat="39.3531416" lon="16.4994448"><ele>1227.0</ele><time>2026-05-03T13:43:53.322Z</time></trkpt><trkpt lat="39.3531731" lon="16.4995566"><ele>1227.0</ele><time>2026-05-03T13:43:54.32Z</time></trkpt><trkpt lat="39.353192" lon="16.4996789"><ele>1227.0</ele><time>2026-05-03T13:43:55.318Z</time></trkpt><trkpt lat="39.3531942" lon="16.4997986"><ele>1227.0</ele><time>2026-05-03T13:43:56.325Z</time></trkpt><trkpt lat="39.3531927" lon="16.4999097"><ele>1227.0</ele><time>2026-05-03T13:43:57.319Z</time></trkpt><trkpt lat="39.3531932" lon="16.5000207"><ele>1227.0</ele><time>2026-05-03T13:43:58.32Z</time></trkpt><trkpt lat="39.3531937" lon="16.5001374"><ele>1227.0</ele><time>2026-05-03T13:43:59.325Z</time></trkpt><trkpt lat="39.353194" lon="16.500255"><ele>1227.0</ele><time>2026-05-03T13:44:00.323Z</time></trkpt><trkpt lat="39.3531951" lon="16.5003671"><ele>1227.0</ele><time>2026-05-03T13:44:01.323Z</time></trkpt><trkpt lat="39.3531972" lon="16.5004764"><ele>1227.0</ele><time>2026-05-03T13:44:02.326Z</time></trkpt><trkpt lat="39.353201" lon="16.5005795"><ele>1227.0</ele><time>2026-05-03T13:44:03.319Z</time></trkpt><trkpt lat="39.3532044" lon="16.5006791"><ele>1227.0</ele><time>2026-05-03T13:44:04.313Z</time></trkpt><trkpt lat="39.3532071" lon="16.5007769"><ele>1227.0</ele><time>2026-05-03T13:44:05.326Z</time></trkpt><trkpt lat="39.3532105" lon="16.5008746"><ele>1227.0</ele><time>2026-05-03T13:44:06.323Z</time></trkpt><trkpt lat="39.3532137" lon="16.5009753"><ele>1227.0</ele><time>2026-05-03T13:44:07.317Z</time></trkpt><trkpt lat="39.353216" lon="16.5010724"><ele>1227.0</ele><time>2026-05-03T13:44:08.324Z</time></trkpt><trkpt lat="39.3532187" lon="16.5011692"><ele>1227.0</ele><time>2026-05-03T13:44:09.325Z</time></trkpt><trkpt lat="39.3532228" lon="16.501266"><ele>1227.1666666666667</ele><time>2026-05-03T13:44:10.326Z</time></trkpt><trkpt lat="39.3532259" lon="16.5013641"><ele>1227.3333333333333</ele><time>2026-05-03T13:44:11.324Z</time></trkpt><trkpt lat="39.3532269" lon="16.5014655"><ele>1227.5</ele><time>2026-05-03T13:44:12.319Z</time></trkpt><trkpt lat="39.3532256" lon="16.5015689"><ele>1227.6666666666665</ele><time>2026-05-03T13:44:13.324Z</time></trkpt><trkpt lat="39.3532184" lon="16.5016697"><ele>1227.8333333333333</ele><time>2026-05-03T13:44:14.317Z</time></trkpt><trkpt lat="39.3531975" lon="16.501764"><ele>1228.0</ele><time>2026-05-03T13:44:15.319Z</time></trkpt><trkpt lat="39.3531574" lon="16.5018734"><ele>1228.0</ele><time>2026-05-03T13:44:17.324Z</time></trkpt><trkpt lat="39.3531578" lon="16.5019683"><ele>1228.0</ele><time>2026-05-03T13:44:19.321Z</time></trkpt><trkpt lat="39.3531648" lon="16.5020542"><ele>1228.0</ele><time>2026-05-03T13:44:20.321Z</time></trkpt><trkpt lat="39.3531675" lon="16.5021643"><ele>1228.0</ele><time>2026-05-03T13:44:21.321Z</time></trkpt><trkpt lat="39.3531747" lon="16.5022936"><ele>1228.0</ele><time>2026-05-03T13:44:22.314Z</time></trkpt><trkpt lat="39.3531924" lon="16.5024155"><ele>1228.0</ele><time>2026-05-03T13:44:23.322Z</time></trkpt><trkpt lat="39.3532162" lon="16.5025475"><ele>1228.6</ele><time>2026-05-03T13:44:24.322Z</time></trkpt><trkpt lat="39.3532435" lon="16.5026836"><ele>1229.1999999999998</ele><time>2026-05-03T13:44:25.319Z</time></trkpt><trkpt lat="39.3532764" lon="16.5028203"><ele>1229.8</ele><time>2026-05-03T13:44:26.326Z</time></trkpt><trkpt lat="39.3533118" lon="16.5029598"><ele>1230.3999999999999</ele><time>2026-05-03T13:44:27.324Z</time></trkpt><trkpt lat="39.3533482" lon="16.5030991"><ele>1231.0</ele><time>2026-05-03T13:44:28.323Z</time></trkpt><trkpt lat="39.3533851" lon="16.5032409"><ele>1231.3999999999999</ele><time>2026-05-03T13:44:29.317Z</time></trkpt><trkpt lat="39.3534234" lon="16.5033843"><ele>1231.8</ele><time>2026-05-03T13:44:30.323Z</time></trkpt><trkpt lat="39.3534622" lon="16.5035187"><ele>1232.1999999999998</ele><time>2026-05-03T13:44:31.323Z</time></trkpt><trkpt lat="39.3535002" lon="16.5036395"><ele>1232.6</ele><time>2026-05-03T13:44:32.329Z</time></trkpt><trkpt lat="39.3535344" lon="16.5037414"><ele>1233.0</ele><time>2026-05-03T13:44:33.32Z</time></trkpt><trkpt lat="39.3535595" lon="16.503826"><ele>1233.8</ele><time>2026-05-03T13:44:34.323Z</time></trkpt><trkpt lat="39.3535876" lon="16.5039702"><ele>1234.6</ele><time>2026-05-03T13:44:36.325Z</time></trkpt><trkpt lat="39.3536173" lon="16.5041438"><ele>1235.4</ele><time>2026-05-03T13:44:38.33Z</time></trkpt><trkpt lat="39.3536338" lon="16.5042487"><ele>1236.2</ele><time>2026-05-03T13:44:39.328Z</time></trkpt><trkpt lat="39.3536473" lon="16.5043717"><ele>1237.0</ele><time>2026-05-03T13:44:40.331Z</time></trkpt><trkpt lat="39.3536559" lon="16.5044954"><ele>1238.0</ele><time>2026-05-03T13:44:41.318Z</time></trkpt><trkpt lat="39.3536636" lon="16.5046189"><ele>1239.0</ele><time>2026-05-03T13:44:42.321Z</time></trkpt><trkpt lat="39.3536672" lon="16.5047417"><ele>1240.0</ele><time>2026-05-03T13:44:43.325Z</time></trkpt><trkpt lat="39.3536666" lon="16.5048617"><ele>1241.0</ele><time>2026-05-03T13:44:44.322Z</time></trkpt><trkpt lat="39.3536673" lon="16.5049744"><ele>1242.0</ele><time>2026-05-03T13:44:45.318Z</time></trkpt><trkpt lat="39.353671" lon="16.5050842"><ele>1242.0</ele><time>2026-05-03T13:44:46.321Z</time></trkpt><trkpt lat="39.3536724" lon="16.5051877"><ele>1242.0</ele><time>2026-05-03T13:44:47.316Z</time></trkpt><trkpt lat="39.353681" lon="16.5052862"><ele>1242.0</ele><time>2026-05-03T13:44:48.323Z</time></trkpt><trkpt lat="39.3536801" lon="16.5053864"><ele>1242.0</ele><time>2026-05-03T13:44:49.324Z</time></trkpt><trkpt lat="39.3536748" lon="16.5054865"><ele>1242.0</ele><time>2026-05-03T13:44:50.324Z</time></trkpt><trkpt lat="39.3536866" lon="16.5055888"><ele>1242.0</ele><time>2026-05-03T13:44:51.323Z</time></trkpt><trkpt lat="39.353709" lon="16.5056943"><ele>1242.5</ele><time>2026-05-03T13:44:52.327Z</time></trkpt><trkpt lat="39.3537394" lon="16.5058027"><ele>1243.0</ele><time>2026-05-03T13:44:53.322Z</time></trkpt><trkpt lat="39.3537684" lon="16.5059101"><ele>1243.5</ele><time>2026-05-03T13:44:54.331Z</time></trkpt><trkpt lat="39.3537981" lon="16.5060171"><ele>1244.0</ele><time>2026-05-03T13:44:55.325Z</time></trkpt><trkpt lat="39.3538227" lon="16.5061251"><ele>1244.5</ele><time>2026-05-03T13:44:56.32Z</time></trkpt><trkpt lat="39.3538469" lon="16.5062321"><ele>1245.0</ele><time>2026-05-03T13:44:57.325Z</time></trkpt><trkpt lat="39.3538702" lon="16.5063353"><ele>1245.3333333333333</ele><time>2026-05-03T13:44:58.332Z</time></trkpt><trkpt lat="39.3538955" lon="16.5064392"><ele>1245.6666666666667</ele><time>2026-05-03T13:44:59.324Z</time></trkpt><trkpt lat="39.3539177" lon="16.5065404"><ele>1246.0</ele><time>2026-05-03T13:45:00.321Z</time></trkpt><trkpt lat="39.3539379" lon="16.5066315"><ele>1246.3333333333335</ele><time>2026-05-03T13:45:01.331Z</time></trkpt><trkpt lat="39.3539458" lon="16.5067194"><ele>1246.6666666666667</ele><time>2026-05-03T13:45:03.327Z</time></trkpt><trkpt lat="39.3539255" lon="16.5068143"><ele>1247.0</ele><time>2026-05-03T13:45:24.323Z</time></trkpt><trkpt lat="39.35394" lon="16.5069011"><ele>1247.0</ele><time>2026-05-03T13:45:29.323Z</time></trkpt><trkpt lat="39.3539654" lon="16.5069833"><ele>1247.0</ele><time>2026-05-03T13:45:45.327Z</time></trkpt><trkpt lat="39.3539934" lon="16.5070608"><ele>1247.0</ele><time>2026-05-03T13:45:47.323Z</time></trkpt><trkpt lat="39.3540218" lon="16.5071857"><ele>1247.0</ele><time>2026-05-03T13:45:49.33Z</time></trkpt><trkpt lat="39.3540557" lon="16.5073413"><ele>1247.0</ele><time>2026-05-03T13:45:51.32Z</time></trkpt><trkpt lat="39.354072" lon="16.5074264"><ele>1247.0</ele><time>2026-05-03T13:45:52.327Z</time></trkpt><trkpt lat="39.3540854" lon="16.5075127"><ele>1246.857142857143</ele><time>2026-05-03T13:45:53.327Z</time></trkpt><trkpt lat="39.3540988" lon="16.5075994"><ele>1246.7142857142858</ele><time>2026-05-03T13:45:54.325Z</time></trkpt><trkpt lat="39.354107" lon="16.5076833"><ele>1246.5714285714284</ele><time>2026-05-03T13:45:55.322Z</time></trkpt><trkpt lat="39.3541125" lon="16.5077691"><ele>1246.4285714285716</ele><time>2026-05-03T13:45:56.325Z</time></trkpt><trkpt lat="39.3541153" lon="16.5078588"><ele>1246.2857142857142</ele><time>2026-05-03T13:45:57.326Z</time></trkpt><trkpt lat="39.3541155" lon="16.5079514"><ele>1246.142857142857</ele><time>2026-05-03T13:45:58.327Z</time></trkpt><trkpt lat="39.3541138" lon="16.5080447"><ele>1246.0</ele><time>2026-05-03T13:45:59.342Z</time></trkpt><trkpt lat="39.3541133" lon="16.5081392"><ele>1245.8333333333333</ele><time>2026-05-03T13:46:00.328Z</time></trkpt><trkpt lat="39.354112" lon="16.5082352"><ele>1245.6666666666665</ele><time>2026-05-03T13:46:01.325Z</time></trkpt><trkpt lat="39.3541057" lon="16.5083315"><ele>1245.5</ele><time>2026-05-03T13:46:02.332Z</time></trkpt><trkpt lat="39.354103" lon="16.5084316"><ele>1245.3333333333333</ele><time>2026-05-03T13:46:03.325Z</time></trkpt><trkpt lat="39.354096" lon="16.508533"><ele>1245.1666666666667</ele><time>2026-05-03T13:46:04.345Z</time></trkpt><trkpt lat="39.3540868" lon="16.5086356"><ele>1245.0</ele><time>2026-05-03T13:46:05.323Z</time></trkpt><trkpt lat="39.3540764" lon="16.5087361"><ele>1244.3333333333333</ele><time>2026-05-03T13:46:06.323Z</time></trkpt><trkpt lat="39.354063" lon="16.5088377"><ele>1243.6666666666667</ele><time>2026-05-03T13:46:07.323Z</time></trkpt><trkpt lat="39.354043" lon="16.5089364"><ele>1243.0</ele><time>2026-05-03T13:46:08.321Z</time></trkpt><trkpt lat="39.354019" lon="16.5090328"><ele>1242.3333333333335</ele><time>2026-05-03T13:46:09.326Z</time></trkpt><trkpt lat="39.3539918" lon="16.509127"><ele>1241.6666666666667</ele><time>2026-05-03T13:46:10.327Z</time></trkpt><trkpt lat="39.3539612" lon="16.5092166"><ele>1241.0</ele><time>2026-05-03T13:46:11.346Z</time></trkpt><trkpt lat="39.3539298" lon="16.5093062"><ele>1241.0</ele><time>2026-05-03T13:46:12.326Z</time></trkpt><trkpt lat="39.3538957" lon="16.5093924"><ele>1241.0</ele><time>2026-05-03T13:46:13.325Z</time></trkpt><trkpt lat="39.3538609" lon="16.5094782"><ele>1241.0</ele><time>2026-05-03T13:46:14.319Z</time></trkpt><trkpt lat="39.3538228" lon="16.5095596"><ele>1241.0</ele><time>2026-05-03T13:46:15.322Z</time></trkpt><trkpt lat="39.3537847" lon="16.5096402"><ele>1241.0</ele><time>2026-05-03T13:46:16.324Z</time></trkpt><trkpt lat="39.3537424" lon="16.5097269"><ele>1241.0</ele><time>2026-05-03T13:46:17.325Z</time></trkpt><trkpt lat="39.3537" lon="16.5098168"><ele>1241.0</ele><time>2026-05-03T13:46:18.323Z</time></trkpt><trkpt lat="39.3536576" lon="16.5099106"><ele>1241.0</ele><time>2026-05-03T13:46:19.318Z</time></trkpt><trkpt lat="39.3536162" lon="16.5100115"><ele>1241.0</ele><time>2026-05-03T13:46:20.322Z</time></trkpt><trkpt lat="39.3535833" lon="16.5101214"><ele>1241.0</ele><time>2026-05-03T13:46:21.32Z</time></trkpt><trkpt lat="39.3535509" lon="16.5102326"><ele>1241.0</ele><time>2026-05-03T13:46:22.331Z</time></trkpt><trkpt lat="39.3535243" lon="16.510343"><ele>1241.0</ele><time>2026-05-03T13:46:23.329Z</time></trkpt><trkpt lat="39.3534942" lon="16.5104523"><ele>1241.0</ele><time>2026-05-03T13:46:24.326Z</time></trkpt><trkpt lat="39.3534774" lon="16.5105624"><ele>1241.0</ele><time>2026-05-03T13:46:25.327Z</time></trkpt><trkpt lat="39.3534613" lon="16.5106693"><ele>1241.0</ele><time>2026-05-03T13:46:26.323Z</time></trkpt><trkpt lat="39.3534399" lon="16.5107694"><ele>1241.0</ele><time>2026-05-03T13:46:27.324Z</time></trkpt><trkpt lat="39.3534175" lon="16.5108702"><ele>1241.0</ele><time>2026-05-03T13:46:28.327Z</time></trkpt><trkpt lat="39.3533907" lon="16.5109705"><ele>1241.0</ele><time>2026-05-03T13:46:29.321Z</time></trkpt><trkpt lat="39.3533603" lon="16.5110646"><ele>1241.0</ele><time>2026-05-03T13:46:30.324Z</time></trkpt><trkpt lat="39.3533298" lon="16.5111574"><ele>1241.0</ele><time>2026-05-03T13:46:31.325Z</time></trkpt><trkpt lat="39.3532878" lon="16.5112495"><ele>1241.0</ele><time>2026-05-03T13:46:32.325Z</time></trkpt><trkpt lat="39.3532436" lon="16.511344"><ele>1241.0</ele><time>2026-05-03T13:46:33.322Z</time></trkpt><trkpt lat="39.3532096" lon="16.5114398"><ele>1241.0</ele><time>2026-05-03T13:46:34.325Z</time></trkpt><trkpt lat="39.3531857" lon="16.5115436"><ele>1241.0</ele><time>2026-05-03T13:46:35.322Z</time></trkpt><trkpt lat="39.3531664" lon="16.5116522"><ele>1240.6666666666667</ele><time>2026-05-03T13:46:36.336Z</time></trkpt><trkpt lat="39.3531548" lon="16.5117577"><ele>1240.3333333333335</ele><time>2026-05-03T13:46:37.322Z</time></trkpt><trkpt lat="39.353145" lon="16.5118657"><ele>1240.0</ele><time>2026-05-03T13:46:38.329Z</time></trkpt><trkpt lat="39.3531385" lon="16.5119762"><ele>1239.6666666666667</ele><time>2026-05-03T13:46:39.325Z</time></trkpt><trkpt lat="39.3531386" lon="16.5120878"><ele>1239.3333333333333</ele><time>2026-05-03T13:46:40.326Z</time></trkpt><trkpt lat="39.3531425" lon="16.5121989"><ele>1239.0</ele><time>2026-05-03T13:46:41.321Z</time></trkpt><trkpt lat="39.353149" lon="16.5123187"><ele>1239.0</ele><time>2026-05-03T13:46:42.322Z</time></trkpt><trkpt lat="39.3531571" lon="16.5124372"><ele>1239.0</ele><time>2026-05-03T13:46:43.327Z</time></trkpt><trkpt lat="39.3531701" lon="16.5125516"><ele>1239.0</ele><time>2026-05-03T13:46:44.32Z</time></trkpt><trkpt lat="39.3531751" lon="16.5126592"><ele>1239.0</ele><time>2026-05-03T13:46:45.326Z</time></trkpt><trkpt lat="39.3531861" lon="16.512767"><ele>1239.0</ele><time>2026-05-03T13:46:47.319Z</time></trkpt><trkpt lat="39.353186" lon="16.5128816"><ele>1239.0</ele><time>2026-05-03T13:46:54.324Z</time></trkpt><trkpt lat="39.3531818" lon="16.5129646"><ele>1239.8333333333333</ele><time>2026-05-03T13:46:57.32Z</time></trkpt><trkpt lat="39.3531641" lon="16.5130477"><ele>1240.6666666666667</ele><time>2026-05-03T13:47:14.341Z</time></trkpt><trkpt lat="39.3531451" lon="16.5131483"><ele>1241.5</ele><time>2026-05-03T13:47:16.328Z</time></trkpt><trkpt lat="39.3531742" lon="16.5132422"><ele>1242.3333333333335</ele><time>2026-05-03T13:47:19.323Z</time></trkpt><trkpt lat="39.3531778" lon="16.513336"><ele>1243.1666666666667</ele><time>2026-05-03T13:47:28.329Z</time></trkpt><trkpt lat="39.3531937" lon="16.5134318"><ele>1244.0</ele><time>2026-05-03T13:47:30.327Z</time></trkpt><trkpt lat="39.353213" lon="16.5135518"><ele>1244.0</ele><time>2026-05-03T13:47:32.322Z</time></trkpt><trkpt lat="39.353239" lon="16.5136903"><ele>1244.0</ele><time>2026-05-03T13:47:34.326Z</time></trkpt><trkpt lat="39.3532557" lon="16.5137689"><ele>1244.0</ele><time>2026-05-03T13:47:35.322Z</time></trkpt><trkpt lat="39.3532752" lon="16.5138548"><ele>1244.0</ele><time>2026-05-03T13:47:36.322Z</time></trkpt><trkpt lat="39.3532985" lon="16.5139473"><ele>1244.0</ele><time>2026-05-03T13:47:37.325Z</time></trkpt><trkpt lat="39.3533194" lon="16.5140378"><ele>1244.0</ele><time>2026-05-03T13:47:38.329Z</time></trkpt><trkpt lat="39.3533413" lon="16.5141329"><ele>1244.1666666666667</ele><time>2026-05-03T13:47:39.331Z</time></trkpt><trkpt lat="39.3533616" lon="16.5142344"><ele>1244.3333333333335</ele><time>2026-05-03T13:47:40.321Z</time></trkpt><trkpt lat="39.3533827" lon="16.5143377"><ele>1244.5</ele><time>2026-05-03T13:47:41.316Z</time></trkpt><trkpt lat="39.3533984" lon="16.5144421"><ele>1244.6666666666667</ele><time>2026-05-03T13:47:42.315Z</time></trkpt><trkpt lat="39.3534133" lon="16.5145491"><ele>1244.8333333333333</ele><time>2026-05-03T13:47:43.324Z</time></trkpt><trkpt lat="39.3534324" lon="16.5146535"><ele>1245.0</ele><time>2026-05-03T13:47:44.339Z</time></trkpt><trkpt lat="39.3534519" lon="16.5147572"><ele>1245.3333333333333</ele><time>2026-05-03T13:47:45.329Z</time></trkpt><trkpt lat="39.3534679" lon="16.5148617"><ele>1245.6666666666667</ele><time>2026-05-03T13:47:46.326Z</time></trkpt><trkpt lat="39.3534863" lon="16.51497"><ele>1246.0</ele><time>2026-05-03T13:47:47.338Z</time></trkpt><trkpt lat="39.353505" lon="16.5150801"><ele>1246.3333333333335</ele><time>2026-05-03T13:47:48.337Z</time></trkpt><trkpt lat="39.353524" lon="16.5151884"><ele>1246.6666666666667</ele><time>2026-05-03T13:47:49.326Z</time></trkpt><trkpt lat="39.3535444" lon="16.5152871"><ele>1247.0</ele><time>2026-05-03T13:47:50.317Z</time></trkpt><trkpt lat="39.353557" lon="16.5153672"><ele>1247.3333333333335</ele><time>2026-05-03T13:47:51.333Z</time></trkpt><trkpt lat="39.3535609" lon="16.5154797"><ele>1247.6666666666667</ele><time>2026-05-03T13:47:53.328Z</time></trkpt><trkpt lat="39.3535433" lon="16.5156494"><ele>1248.0</ele><time>2026-05-03T13:47:55.32Z</time></trkpt><trkpt lat="39.3535354" lon="16.5157403"><ele>1248.3333333333333</ele><time>2026-05-03T13:47:56.326Z</time></trkpt><trkpt lat="39.3535282" lon="16.5158308"><ele>1248.6666666666665</ele><time>2026-05-03T13:47:57.332Z</time></trkpt><trkpt lat="39.3535214" lon="16.5159229"><ele>1249.0</ele><time>2026-05-03T13:47:58.328Z</time></trkpt><trkpt lat="39.3535148" lon="16.5160135"><ele>1248.9999999999998</ele><time>2026-05-03T13:47:59.319Z</time></trkpt><trkpt lat="39.353509" lon="16.5161023"><ele>1249.0</ele><time>2026-05-03T13:48:00.322Z</time></trkpt><trkpt lat="39.353503" lon="16.5161891"><ele>1249.0</ele><time>2026-05-03T13:48:01.325Z</time></trkpt><trkpt lat="39.3534967" lon="16.5162737"><ele>1249.0</ele><time>2026-05-03T13:48:02.318Z</time></trkpt><trkpt lat="39.3534911" lon="16.5163575"><ele>1249.0</ele><time>2026-05-03T13:48:03.32Z</time></trkpt><trkpt lat="39.3534841" lon="16.5164397"><ele>1248.9999999999998</ele><time>2026-05-03T13:48:04.316Z</time></trkpt><trkpt lat="39.353473" lon="16.5165207"><ele>1249.0</ele><time>2026-05-03T13:48:05.325Z</time></trkpt><trkpt lat="39.353454" lon="16.5166727"><ele>1248.6000000000001</ele><time>2026-05-03T13:48:07.321Z</time></trkpt><trkpt lat="39.3534432" lon="16.5168186"><ele>1248.2</ele><time>2026-05-03T13:48:09.319Z</time></trkpt><trkpt lat="39.353436" lon="16.5169843"><ele>1247.8000000000002</ele><time>2026-05-03T13:48:11.319Z</time></trkpt><trkpt lat="39.3534317" lon="16.5170748"><ele>1247.4</ele><time>2026-05-03T13:48:12.324Z</time></trkpt><trkpt lat="39.3534289" lon="16.5171588"><ele>1247.0</ele><time>2026-05-03T13:48:13.328Z</time></trkpt><trkpt lat="39.3534231" lon="16.5173052"><ele>1246.5</ele><time>2026-05-03T13:48:15.327Z</time></trkpt><trkpt lat="39.3534256" lon="16.5174477"><ele>1246.0</ele><time>2026-05-03T13:48:17.331Z</time></trkpt><trkpt lat="39.353429" lon="16.5175941"><ele>1245.5</ele><time>2026-05-03T13:48:19.32Z</time></trkpt><trkpt lat="39.3534328" lon="16.5176978"><ele>1245.0</ele><time>2026-05-03T13:48:44.323Z</time></trkpt><trkpt lat="39.3534489" lon="16.5178017"><ele>1244.5</ele><time>2026-05-03T13:48:48.323Z</time></trkpt><trkpt lat="39.3534623" lon="16.5178817"><ele>1244.0</ele><time>2026-05-03T13:49:07.355Z</time></trkpt><trkpt lat="39.3534785" lon="16.5179637"><ele>1243.4285714285713</ele><time>2026-05-03T13:49:10.326Z</time></trkpt><trkpt lat="39.3534985" lon="16.518045"><ele>1242.857142857143</ele><time>2026-05-03T13:49:13.318Z</time></trkpt><trkpt lat="39.3535226" lon="16.5181328"><ele>1242.2857142857142</ele><time>2026-05-03T13:49:16.321Z</time></trkpt><trkpt lat="39.3535562" lon="16.5182228"><ele>1241.7142857142858</ele><time>2026-05-03T13:49:19.322Z</time></trkpt><trkpt lat="39.3535863" lon="16.5183168"><ele>1241.142857142857</ele><time>2026-05-03T13:49:22.327Z</time></trkpt><trkpt lat="39.3536065" lon="16.5183949"><ele>1240.5714285714287</ele><time>2026-05-03T13:49:24.319Z</time></trkpt><trkpt lat="39.3536361" lon="16.5184907"><ele>1240.0</ele><time>2026-05-03T13:49:26.329Z</time></trkpt><trkpt lat="39.3536663" lon="16.5185925"><ele>1240.0</ele><time>2026-05-03T13:49:28.319Z</time></trkpt><trkpt lat="39.3536947" lon="16.5186845"><ele>1240.0</ele><time>2026-05-03T13:49:30.321Z</time></trkpt><trkpt lat="39.3537293" lon="16.5187701"><ele>1240.0</ele><time>2026-05-03T13:49:32.326Z</time></trkpt><trkpt lat="39.3537757" lon="16.5188724"><ele>1240.0</ele><time>2026-05-03T13:49:34.324Z</time></trkpt><trkpt lat="39.3538381" lon="16.5189854"><ele>1240.0</ele><time>2026-05-03T13:49:36.318Z</time></trkpt><trkpt lat="39.3539226" lon="16.5190932"><ele>1238.8</ele><time>2026-05-03T13:49:38.318Z</time></trkpt><trkpt lat="39.3540207" lon="16.5192001"><ele>1237.6</ele><time>2026-05-03T13:49:40.32Z</time></trkpt><trkpt lat="39.3540715" lon="16.5192527"><ele>1236.4</ele><time>2026-05-03T13:49:41.324Z</time></trkpt><trkpt lat="39.3541718" lon="16.5193539"><ele>1235.2</ele><time>2026-05-03T13:49:43.32Z</time></trkpt><trkpt lat="39.3542253" lon="16.5194111"><ele>1234.0</ele><time>2026-05-03T13:49:44.316Z</time></trkpt><trkpt lat="39.3542791" lon="16.5194653"><ele>1234.0</ele><time>2026-05-03T13:49:45.32Z</time></trkpt><trkpt lat="39.3543328" lon="16.5195174"><ele>1234.0</ele><time>2026-05-03T13:49:46.331Z</time></trkpt><trkpt lat="39.3543892" lon="16.519572"><ele>1234.0</ele><time>2026-05-03T13:49:47.33Z</time></trkpt><trkpt lat="39.3544477" lon="16.5196281"><ele>1234.0</ele><time>2026-05-03T13:49:48.318Z</time></trkpt><trkpt lat="39.3545073" lon="16.5196872"><ele>1234.0</ele><time>2026-05-03T13:49:49.322Z</time></trkpt><trkpt lat="39.3545643" lon="16.5197565"><ele>1234.0</ele><time>2026-05-03T13:49:50.323Z</time></trkpt><trkpt lat="39.3546164" lon="16.5198258"><ele>1234.0</ele><time>2026-05-03T13:49:51.32Z</time></trkpt><trkpt lat="39.3546671" lon="16.5198929"><ele>1234.0</ele><time>2026-05-03T13:49:52.329Z</time></trkpt><trkpt lat="39.3547176" lon="16.5199544"><ele>1234.0</ele><time>2026-05-03T13:49:53.327Z</time></trkpt><trkpt lat="39.3547658" lon="16.520012"><ele>1234.0</ele><time>2026-05-03T13:49:54.327Z</time></trkpt><trkpt lat="39.3548132" lon="16.5200684"><ele>1234.0</ele><time>2026-05-03T13:49:55.326Z</time></trkpt><trkpt lat="39.3549062" lon="16.520168"><ele>1234.0</ele><time>2026-05-03T13:49:57.325Z</time></trkpt><trkpt lat="39.3550036" lon="16.5202606"><ele>1234.0</ele><time>2026-05-03T13:49:59.325Z</time></trkpt><trkpt lat="39.3550566" lon="16.5203083"><ele>1232.6666666666665</ele><time>2026-05-03T13:50:00.32Z</time></trkpt><trkpt lat="39.3551594" lon="16.5204009"><ele>1231.3333333333333</ele><time>2026-05-03T13:50:02.324Z</time></trkpt><trkpt lat="39.3552141" lon="16.5204534"><ele>1230.0</ele><time>2026-05-03T13:50:03.325Z</time></trkpt><trkpt lat="39.3552679" lon="16.5205103"><ele>1228.6666666666667</ele><time>2026-05-03T13:50:04.321Z</time></trkpt><trkpt lat="39.3553236" lon="16.5205684"><ele>1227.3333333333335</ele><time>2026-05-03T13:50:05.321Z</time></trkpt><trkpt lat="39.355381" lon="16.520617"><ele>1226.0</ele><time>2026-05-03T13:50:06.323Z</time></trkpt><trkpt lat="39.35547" lon="16.5207025"><ele>1226.0</ele><time>2026-05-03T13:50:08.324Z</time></trkpt><trkpt lat="39.3555343" lon="16.5207555"><ele>1226.0</ele><time>2026-05-03T13:50:54.326Z</time></trkpt><trkpt lat="39.3555982" lon="16.5207802"><ele>1226.0</ele><time>2026-05-03T13:50:57.324Z</time></trkpt><trkpt lat="39.3556474" lon="16.5208317"><ele>1226.0</ele><time>2026-05-03T13:51:32.32Z</time></trkpt><trkpt lat="39.3556998" lon="16.5208966"><ele>1226.0</ele><time>2026-05-03T13:51:35.32Z</time></trkpt><trkpt lat="39.3557645" lon="16.5209623"><ele>1226.0</ele><time>2026-05-03T13:51:38.329Z</time></trkpt><trkpt lat="39.3558286" lon="16.5210425"><ele>1226.4285714285716</ele><time>2026-05-03T13:51:41.32Z</time></trkpt><trkpt lat="39.3558723" lon="16.5211036"><ele>1226.857142857143</ele><time>2026-05-03T13:51:43.316Z</time></trkpt><trkpt lat="39.3559145" lon="16.5211666"><ele>1227.2857142857142</ele><time>2026-05-03T13:51:45.325Z</time></trkpt><trkpt lat="39.355967" lon="16.5212278"><ele>1227.7142857142858</ele><time>2026-05-03T13:51:47.326Z</time></trkpt><trkpt lat="39.3560249" lon="16.5212783"><ele>1228.142857142857</ele><time>2026-05-03T13:51:49.319Z</time></trkpt><trkpt lat="39.3560991" lon="16.5212477"><ele>1228.5714285714287</ele><time>2026-05-03T13:51:51.324Z</time></trkpt><trkpt lat="39.3561446" lon="16.5211602"><ele>1229.0</ele><time>2026-05-03T13:51:53.316Z</time></trkpt><trkpt lat="39.3561966" lon="16.5210472"><ele>1229.0</ele><time>2026-05-03T13:51:55.322Z</time></trkpt><trkpt lat="39.3562709" lon="16.5209553"><ele>1229.0</ele><time>2026-05-03T13:51:57.315Z</time></trkpt><trkpt lat="39.3563307" lon="16.5209003"><ele>1229.0</ele><time>2026-05-03T13:51:59.317Z</time></trkpt><trkpt lat="39.3564038" lon="16.5208605"><ele>1229.0</ele><time>2026-05-03T13:52:01.314Z</time></trkpt><trkpt lat="39.3564964" lon="16.5208312"><ele>1229.0</ele><time>2026-05-03T13:52:03.326Z</time></trkpt><trkpt lat="39.3565641" lon="16.5208076"><ele>1229.0</ele><time>2026-05-03T13:52:05.316Z</time></trkpt><trkpt lat="39.356647" lon="16.5207737"><ele>1228.5</ele><time>2026-05-03T13:52:08.321Z</time></trkpt><trkpt lat="39.356738" lon="16.5207583"><ele>1228.0</ele><time>2026-05-03T13:52:10.322Z</time></trkpt><trkpt lat="39.3568119" lon="16.5207898"><ele>1227.5</ele><time>2026-05-03T13:52:12.323Z</time></trkpt><trkpt lat="39.3568843" lon="16.5208372"><ele>1227.0</ele><time>2026-05-03T13:52:22.322Z</time></trkpt><trkpt lat="39.3569411" lon="16.5208908"><ele>1226.5</ele><time>2026-05-03T13:52:25.323Z</time></trkpt><trkpt lat="39.356972" lon="16.5209983"><ele>1226.0</ele><time>2026-05-03T13:52:28.33Z</time></trkpt><trkpt lat="39.3569844" lon="16.5210787"><ele>1226.0</ele><time>2026-05-03T13:52:30.323Z</time></trkpt><trkpt lat="39.356997" lon="16.5211771"><ele>1226.0</ele><time>2026-05-03T13:52:32.315Z</time></trkpt><trkpt lat="39.3570104" lon="16.5212875"><ele>1226.0</ele><time>2026-05-03T13:52:34.322Z</time></trkpt><trkpt lat="39.3570281" lon="16.5213788"><ele>1226.0</ele><time>2026-05-03T13:52:36.324Z</time></trkpt><trkpt lat="39.3570568" lon="16.5214713"><ele>1226.0</ele><time>2026-05-03T13:52:38.32Z</time></trkpt><trkpt lat="39.3570974" lon="16.5215848"><ele>1226.0</ele><time>2026-05-03T13:52:40.315Z</time></trkpt><trkpt lat="39.3571381" lon="16.5217077"><ele>1225.2</ele><time>2026-05-03T13:52:42.318Z</time></trkpt><trkpt lat="39.3571787" lon="16.5218183"><ele>1224.3999999999999</ele><time>2026-05-03T13:52:44.32Z</time></trkpt><trkpt lat="39.3572212" lon="16.5219228"><ele>1223.6</ele><time>2026-05-03T13:52:46.319Z</time></trkpt><trkpt lat="39.357291" lon="16.5219982"><ele>1222.8</ele><time>2026-05-03T13:52:48.322Z</time></trkpt><trkpt lat="39.3573915" lon="16.5220452"><ele>1222.0</ele><time>2026-05-03T13:52:50.318Z</time></trkpt><trkpt lat="39.3574568" lon="16.5220673"><ele>1220.4285714285716</ele><time>2026-05-03T13:52:51.316Z</time></trkpt><trkpt lat="39.3575279" lon="16.5220954"><ele>1218.857142857143</ele><time>2026-05-03T13:52:52.325Z</time></trkpt><trkpt lat="39.3575976" lon="16.5221333"><ele>1217.2857142857142</ele><time>2026-05-03T13:52:53.327Z</time></trkpt><trkpt lat="39.3576605" lon="16.522184"><ele>1215.7142857142858</ele><time>2026-05-03T13:52:54.328Z</time></trkpt><trkpt lat="39.3577233" lon="16.5222326"><ele>1214.142857142857</ele><time>2026-05-03T13:52:55.322Z</time></trkpt><trkpt lat="39.3577931" lon="16.522262"><ele>1212.5714285714287</ele><time>2026-05-03T13:52:56.319Z</time></trkpt><trkpt lat="39.3578615" lon="16.5222955"><ele>1211.0</ele><time>2026-05-03T13:52:57.328Z</time></trkpt><trkpt lat="39.3579121" lon="16.522356"><ele>1211.0</ele><time>2026-05-03T13:52:58.327Z</time></trkpt><trkpt lat="39.3579393" lon="16.5224332"><ele>1211.0</ele><time>2026-05-03T13:52:59.321Z</time></trkpt><trkpt lat="39.3579787" lon="16.5225878"><ele>1211.0</ele><time>2026-05-03T13:53:01.32Z</time></trkpt><trkpt lat="39.3580017" lon="16.522666"><ele>1211.0</ele><time>2026-05-03T13:53:02.316Z</time></trkpt><trkpt lat="39.3580645" lon="16.5227111"><ele>1211.0</ele><time>2026-05-03T13:53:03.325Z</time></trkpt><trkpt lat="39.3581386" lon="16.5227337"><ele>1211.0</ele><time>2026-05-03T13:53:04.328Z</time></trkpt><trkpt lat="39.3582161" lon="16.5227586"><ele>1210.3333333333335</ele><time>2026-05-03T13:53:05.317Z</time></trkpt><trkpt lat="39.3582918" lon="16.5227916"><ele>1209.6666666666667</ele><time>2026-05-03T13:53:06.313Z</time></trkpt><trkpt lat="39.3583621" lon="16.5228396"><ele>1209.0</ele><time>2026-05-03T13:53:07.322Z</time></trkpt><trkpt lat="39.3584331" lon="16.5228877"><ele>1208.3333333333333</ele><time>2026-05-03T13:53:08.319Z</time></trkpt><trkpt lat="39.3585033" lon="16.5229284"><ele>1207.6666666666665</ele><time>2026-05-03T13:53:09.324Z</time></trkpt><trkpt lat="39.3585719" lon="16.5229573"><ele>1207.0</ele><time>2026-05-03T13:53:10.321Z</time></trkpt><trkpt lat="39.3586429" lon="16.522979"><ele>1207.0</ele><time>2026-05-03T13:53:11.323Z</time></trkpt><trkpt lat="39.3587105" lon="16.5229929"><ele>1207.0</ele><time>2026-05-03T13:53:12.328Z</time></trkpt><trkpt lat="39.3587802" lon="16.5230059"><ele>1207.0</ele><time>2026-05-03T13:53:13.319Z</time></trkpt><trkpt lat="39.3588557" lon="16.5230138"><ele>1207.0</ele><time>2026-05-03T13:53:14.329Z</time></trkpt><trkpt lat="39.3589362" lon="16.5230226"><ele>1207.0</ele><time>2026-05-03T13:53:15.319Z</time></trkpt><trkpt lat="39.3590238" lon="16.5230326"><ele>1207.0</ele><time>2026-05-03T13:53:16.322Z</time></trkpt><trkpt lat="39.3591156" lon="16.5230395"><ele>1206.6</ele><time>2026-05-03T13:53:17.323Z</time></trkpt><trkpt lat="39.3592121" lon="16.52305"><ele>1206.2</ele><time>2026-05-03T13:53:18.325Z</time></trkpt><trkpt lat="39.3593119" lon="16.523067"><ele>1205.8</ele><time>2026-05-03T13:53:19.32Z</time></trkpt><trkpt lat="39.3594145" lon="16.5230847"><ele>1205.4</ele><time>2026-05-03T13:53:20.32Z</time></trkpt><trkpt lat="39.3595121" lon="16.5230988"><ele>1205.0</ele><time>2026-05-03T13:53:21.329Z</time></trkpt><trkpt lat="39.3596017" lon="16.5231117"><ele>1205.0</ele><time>2026-05-03T13:53:22.334Z</time></trkpt><trkpt lat="39.3596818" lon="16.5231221"><ele>1205.0</ele><time>2026-05-03T13:53:23.325Z</time></trkpt><trkpt lat="39.3597524" lon="16.5231266"><ele>1205.0</ele><time>2026-05-03T13:53:24.32Z</time></trkpt><trkpt lat="39.3598281" lon="16.5231241"><ele>1205.0</ele><time>2026-05-03T13:53:25.32Z</time></trkpt><trkpt lat="39.3599084" lon="16.5231099"><ele>1205.0</ele><time>2026-05-03T13:53:26.331Z</time></trkpt><trkpt lat="39.3599915" lon="16.5230827"><ele>1205.0</ele><time>2026-05-03T13:53:27.319Z</time></trkpt><trkpt lat="39.3600799" lon="16.5230539"><ele>1205.2</ele><time>2026-05-03T13:53:28.32Z</time></trkpt><trkpt lat="39.3601738" lon="16.5230118"><ele>1205.4</ele><time>2026-05-03T13:53:29.321Z</time></trkpt><trkpt lat="39.3602644" lon="16.5229703"><ele>1205.6</ele><time>2026-05-03T13:53:30.32Z</time></trkpt><trkpt lat="39.3603499" lon="16.5229262"><ele>1205.8</ele><time>2026-05-03T13:53:31.322Z</time></trkpt><trkpt lat="39.3604364" lon="16.5228858"><ele>1206.0</ele><time>2026-05-03T13:53:32.324Z</time></trkpt><trkpt lat="39.3605257" lon="16.5228462"><ele>1204.2</ele><time>2026-05-03T13:53:33.326Z</time></trkpt><trkpt lat="39.360613" lon="16.5228142"><ele>1202.3999999999999</ele><time>2026-05-03T13:53:34.321Z</time></trkpt><trkpt lat="39.3607004" lon="16.5227806"><ele>1200.6</ele><time>2026-05-03T13:53:35.318Z</time></trkpt><trkpt lat="39.3607874" lon="16.522742"><ele>1198.8</ele><time>2026-05-03T13:53:36.321Z</time></trkpt><trkpt lat="39.3608711" lon="16.5226984"><ele>1197.0</ele><time>2026-05-03T13:53:37.325Z</time></trkpt><trkpt lat="39.3609513" lon="16.5226592"><ele>1197.0</ele><time>2026-05-03T13:53:38.321Z</time></trkpt><trkpt lat="39.3610253" lon="16.5226201"><ele>1197.0</ele><time>2026-05-03T13:53:39.321Z</time></trkpt><trkpt lat="39.3610981" lon="16.5225879"><ele>1197.0</ele><time>2026-05-03T13:53:40.323Z</time></trkpt><trkpt lat="39.3611745" lon="16.5225589"><ele>1197.0</ele><time>2026-05-03T13:53:41.323Z</time></trkpt><trkpt lat="39.3612459" lon="16.5225322"><ele>1197.0</ele><time>2026-05-03T13:53:42.325Z</time></trkpt><trkpt lat="39.3613645" lon="16.5224773"><ele>1197.0</ele><time>2026-05-03T13:53:44.322Z</time></trkpt><trkpt lat="39.3614221" lon="16.5224323"><ele>1197.0</ele><time>2026-05-03T13:53:45.314Z</time></trkpt><trkpt lat="39.3614736" lon="16.5223702"><ele>1197.0</ele><time>2026-05-03T13:53:46.328Z</time></trkpt><trkpt lat="39.3615178" lon="16.5222982"><ele>1197.0</ele><time>2026-05-03T13:53:47.327Z</time></trkpt><trkpt lat="39.3615632" lon="16.522231"><ele>1197.0</ele><time>2026-05-03T13:53:48.317Z</time></trkpt><trkpt lat="39.3616094" lon="16.5221667"><ele>1197.0</ele><time>2026-05-03T13:53:49.33Z</time></trkpt><trkpt lat="39.3616544" lon="16.5221092"><ele>1197.0</ele><time>2026-05-03T13:53:50.315Z</time></trkpt><trkpt lat="39.3617112" lon="16.5220614"><ele>1197.0</ele><time>2026-05-03T13:53:51.324Z</time></trkpt><trkpt lat="39.3618217" lon="16.5219821"><ele>1197.1666666666667</ele><time>2026-05-03T13:53:53.326Z</time></trkpt><trkpt lat="39.3618843" lon="16.5219343"><ele>1197.3333333333333</ele><time>2026-05-03T13:53:54.324Z</time></trkpt><trkpt lat="39.3619562" lon="16.5218787"><ele>1197.5</ele><time>2026-05-03T13:53:55.313Z</time></trkpt><trkpt lat="39.3620267" lon="16.5218359"><ele>1197.6666666666665</ele><time>2026-05-03T13:53:56.329Z</time></trkpt><trkpt lat="39.362101" lon="16.5217892"><ele>1197.8333333333333</ele><time>2026-05-03T13:53:57.328Z</time></trkpt><trkpt lat="39.3621774" lon="16.5217582"><ele>1198.0</ele><time>2026-05-03T13:53:58.327Z</time></trkpt><trkpt lat="39.3622541" lon="16.5217533"><ele>1197.1666666666665</ele><time>2026-05-03T13:53:59.324Z</time></trkpt><trkpt lat="39.3623293" lon="16.521752"><ele>1196.3333333333333</ele><time>2026-05-03T13:54:00.321Z</time></trkpt><trkpt lat="39.3624093" lon="16.521874"><ele>1195.5</ele><time>2026-05-03T13:54:02.316Z</time></trkpt><trkpt lat="39.3624404" lon="16.5219557"><ele>1194.6666666666667</ele><time>2026-05-03T13:54:03.318Z</time></trkpt><trkpt lat="39.3624846" lon="16.5220385"><ele>1193.8333333333335</ele><time>2026-05-03T13:54:04.322Z</time></trkpt><trkpt lat="39.3625354" lon="16.5221127"><ele>1193.0</ele><time>2026-05-03T13:54:05.318Z</time></trkpt><trkpt lat="39.3626" lon="16.5221853"><ele>1191.8333333333335</ele><time>2026-05-03T13:54:06.321Z</time></trkpt><trkpt lat="39.3626751" lon="16.5222313"><ele>1190.6666666666667</ele><time>2026-05-03T13:54:07.324Z</time></trkpt><trkpt lat="39.3627555" lon="16.5222425"><ele>1189.5</ele><time>2026-05-03T13:54:08.327Z</time></trkpt><trkpt lat="39.3628338" lon="16.5222368"><ele>1188.3333333333333</ele><time>2026-05-03T13:54:09.323Z</time></trkpt><trkpt lat="39.362907" lon="16.5222257"><ele>1187.1666666666665</ele><time>2026-05-03T13:54:10.326Z</time></trkpt><trkpt lat="39.3629772" lon="16.5221939"><ele>1186.0</ele><time>2026-05-03T13:54:11.32Z</time></trkpt><trkpt lat="39.3630176" lon="16.5221288"><ele>1186.5</ele><time>2026-05-03T13:54:12.324Z</time></trkpt><trkpt lat="39.3630578" lon="16.5220465"><ele>1187.0</ele><time>2026-05-03T13:54:13.319Z</time></trkpt><trkpt lat="39.363053" lon="16.5219389"><ele>1187.5</ele><time>2026-05-03T13:54:14.328Z</time></trkpt><trkpt lat="39.3630417" lon="16.5218285"><ele>1188.0</ele><time>2026-05-03T13:54:15.324Z</time></trkpt><trkpt lat="39.363045" lon="16.5217267"><ele>1188.5</ele><time>2026-05-03T13:54:16.328Z</time></trkpt><trkpt lat="39.3630573" lon="16.5216371"><ele>1189.0</ele><time>2026-05-03T13:54:17.323Z</time></trkpt><trkpt lat="39.3630674" lon="16.5215482"><ele>1189.0</ele><time>2026-05-03T13:54:18.321Z</time></trkpt><trkpt lat="39.3630789" lon="16.5214552"><ele>1189.0</ele><time>2026-05-03T13:54:19.331Z</time></trkpt><trkpt lat="39.3630905" lon="16.5213645"><ele>1189.0</ele><time>2026-05-03T13:54:20.322Z</time></trkpt><trkpt lat="39.3631204" lon="16.5212822"><ele>1189.0</ele><time>2026-05-03T13:54:21.345Z</time></trkpt><trkpt lat="39.363152" lon="16.5212039"><ele>1189.0</ele><time>2026-05-03T13:54:22.325Z</time></trkpt><trkpt lat="39.3632218" lon="16.5211762"><ele>1189.0</ele><time>2026-05-03T13:54:23.324Z</time></trkpt><trkpt lat="39.3632974" lon="16.5211971"><ele>1189.0</ele><time>2026-05-03T13:54:24.32Z</time></trkpt><trkpt lat="39.3633625" lon="16.5212347"><ele>1189.0</ele><time>2026-05-03T13:54:25.324Z</time></trkpt><trkpt lat="39.3634241" lon="16.5212621"><ele>1189.0</ele><time>2026-05-03T13:54:26.332Z</time></trkpt><trkpt lat="39.3634877" lon="16.5212723"><ele>1189.0</ele><time>2026-05-03T13:54:27.325Z</time></trkpt><trkpt lat="39.3635585" lon="16.5212832"><ele>1189.0</ele><time>2026-05-03T13:54:28.329Z</time></trkpt><trkpt lat="39.3636346" lon="16.5212389"><ele>1189.0</ele><time>2026-05-03T13:54:29.321Z</time></trkpt><trkpt lat="39.3637043" lon="16.5211853"><ele>1189.0</ele><time>2026-05-03T13:54:30.328Z</time></trkpt><trkpt lat="39.3637773" lon="16.5211415"><ele>1189.0</ele><time>2026-05-03T13:54:31.324Z</time></trkpt><trkpt lat="39.3638579" lon="16.521113"><ele>1189.2</ele><time>2026-05-03T13:54:32.328Z</time></trkpt><trkpt lat="39.3639459" lon="16.5210976"><ele>1189.4</ele><time>2026-05-03T13:54:33.327Z</time></trkpt><trkpt lat="39.3640372" lon="16.5210978"><ele>1189.6</ele><time>2026-05-03T13:54:34.327Z</time></trkpt><trkpt lat="39.3641308" lon="16.5211001"><ele>1189.8</ele><time>2026-05-03T13:54:35.327Z</time></trkpt><trkpt lat="39.3642228" lon="16.521101"><ele>1190.0</ele><time>2026-05-03T13:54:36.327Z</time></trkpt><trkpt lat="39.3643128" lon="16.521101"><ele>1190.0</ele><time>2026-05-03T13:54:37.332Z</time></trkpt><trkpt lat="39.3644043" lon="16.5210914"><ele>1190.0</ele><time>2026-05-03T13:54:38.331Z</time></trkpt><trkpt lat="39.3644982" lon="16.5210881"><ele>1190.0</ele><time>2026-05-03T13:54:39.327Z</time></trkpt><trkpt lat="39.3645934" lon="16.5210919"><ele>1190.0</ele><time>2026-05-03T13:54:40.333Z</time></trkpt><trkpt lat="39.3646831" lon="16.5211049"><ele>1190.0</ele><time>2026-05-03T13:54:41.331Z</time></trkpt><trkpt lat="39.3647603" lon="16.5211226"><ele>1189.3333333333335</ele><time>2026-05-03T13:54:42.323Z</time></trkpt><trkpt lat="39.3648277" lon="16.5211416"><ele>1188.6666666666667</ele><time>2026-05-03T13:54:43.324Z</time></trkpt><trkpt lat="39.3649337" lon="16.521173"><ele>1188.0</ele><time>2026-05-03T13:54:45.323Z</time></trkpt><trkpt lat="39.3649984" lon="16.5211855"><ele>1187.3333333333333</ele><time>2026-05-03T13:54:47.327Z</time></trkpt><trkpt lat="39.3650676" lon="16.5212194"><ele>1186.6666666666665</ele><time>2026-05-03T13:54:52.326Z</time></trkpt><trkpt lat="39.3651345" lon="16.5212436"><ele>1186.0</ele><time>2026-05-03T13:54:55.326Z</time></trkpt><trkpt lat="39.3652003" lon="16.5212596"><ele>1186.0</ele><time>2026-05-03T13:54:58.327Z</time></trkpt><trkpt lat="39.3652711" lon="16.5212745"><ele>1186.0</ele><time>2026-05-03T13:55:00.332Z</time></trkpt><trkpt lat="39.3653701" lon="16.5212967"><ele>1186.0</ele><time>2026-05-03T13:55:02.322Z</time></trkpt><trkpt lat="39.3654761" lon="16.5213116"><ele>1186.0</ele><time>2026-05-03T13:55:04.327Z</time></trkpt><trkpt lat="39.3656019" lon="16.5213264"><ele>1186.0</ele><time>2026-05-03T13:55:06.317Z</time></trkpt><trkpt lat="39.3656717" lon="16.5213333"><ele>1185.1666666666665</ele><time>2026-05-03T13:55:07.324Z</time></trkpt><trkpt lat="39.365744" lon="16.5213345"><ele>1184.3333333333333</ele><time>2026-05-03T13:55:08.324Z</time></trkpt><trkpt lat="39.3658194" lon="16.5213397"><ele>1183.5</ele><time>2026-05-03T13:55:09.32Z</time></trkpt><trkpt lat="39.3658962" lon="16.5213484"><ele>1182.6666666666667</ele><time>2026-05-03T13:55:10.326Z</time></trkpt><trkpt lat="39.3659755" lon="16.5213601"><ele>1181.8333333333335</ele><time>2026-05-03T13:55:11.321Z</time></trkpt><trkpt lat="39.3660562" lon="16.5213755"><ele>1181.0</ele><time>2026-05-03T13:55:12.324Z</time></trkpt><trkpt lat="39.3661367" lon="16.5213924"><ele>1181.0</ele><time>2026-05-03T13:55:13.326Z</time></trkpt><trkpt lat="39.3662183" lon="16.5214071"><ele>1181.0</ele><time>2026-05-03T13:55:14.327Z</time></trkpt><trkpt lat="39.3662989" lon="16.5214181"><ele>1181.0</ele><time>2026-05-03T13:55:15.329Z</time></trkpt><trkpt lat="39.3663787" lon="16.521427"><ele>1181.0</ele><time>2026-05-03T13:55:16.326Z</time></trkpt><trkpt lat="39.3664609" lon="16.5214345"><ele>1181.0</ele><time>2026-05-03T13:55:17.332Z</time></trkpt><trkpt lat="39.3665441" lon="16.5214411"><ele>1181.0</ele><time>2026-05-03T13:55:18.329Z</time></trkpt><trkpt lat="39.3666288" lon="16.5214478"><ele>1180.5</ele><time>2026-05-03T13:55:19.322Z</time></trkpt><trkpt lat="39.3667138" lon="16.5214564"><ele>1180.0</ele><time>2026-05-03T13:55:20.329Z</time></trkpt><trkpt lat="39.3668018" lon="16.5214651"><ele>1179.5</ele><time>2026-05-03T13:55:21.323Z</time></trkpt><trkpt lat="39.3668914" lon="16.5214737"><ele>1179.0</ele><time>2026-05-03T13:55:22.319Z</time></trkpt><trkpt lat="39.3669814" lon="16.5214821"><ele>1178.5</ele><time>2026-05-03T13:55:23.328Z</time></trkpt><trkpt lat="39.367071" lon="16.521492"><ele>1178.0</ele><time>2026-05-03T13:55:24.327Z</time></trkpt><trkpt lat="39.3671603" lon="16.5215054"><ele>1177.8333333333335</ele><time>2026-05-03T13:55:25.326Z</time></trkpt><trkpt lat="39.3672438" lon="16.5215192"><ele>1177.6666666666667</ele><time>2026-05-03T13:55:26.344Z</time></trkpt><trkpt lat="39.3673218" lon="16.521523"><ele>1177.5</ele><time>2026-05-03T13:55:27.331Z</time></trkpt><trkpt lat="39.3673905" lon="16.5215138"><ele>1177.3333333333333</ele><time>2026-05-03T13:55:28.322Z</time></trkpt><trkpt lat="39.3674577" lon="16.5215046"><ele>1177.1666666666665</ele><time>2026-05-03T13:55:29.33Z</time></trkpt><trkpt lat="39.3675452" lon="16.5214229"><ele>1177.0</ele><time>2026-05-03T13:55:31.321Z</time></trkpt><trkpt lat="39.3675268" lon="16.5212713"><ele>1176.6666666666665</ele><time>2026-05-03T13:55:33.326Z</time></trkpt><trkpt lat="39.3674824" lon="16.5211774"><ele>1176.3333333333333</ele><time>2026-05-03T13:55:34.332Z</time></trkpt><trkpt lat="39.3674449" lon="16.5210677"><ele>1176.0</ele><time>2026-05-03T13:55:35.318Z</time></trkpt><trkpt lat="39.3674099" lon="16.5209693"><ele>1175.6666666666667</ele><time>2026-05-03T13:55:36.323Z</time></trkpt><trkpt lat="39.3673766" lon="16.5208877"><ele>1175.3333333333335</ele><time>2026-05-03T13:55:37.326Z</time></trkpt><trkpt lat="39.3673501" lon="16.5208134"><ele>1175.0</ele><time>2026-05-03T13:55:38.33Z</time></trkpt><trkpt lat="39.3673158" lon="16.5207122"><ele>1175.0</ele><time>2026-05-03T13:55:40.321Z</time></trkpt><trkpt lat="39.367296" lon="16.5206345"><ele>1175.0</ele><time>2026-05-03T13:55:42.333Z</time></trkpt><trkpt lat="39.3672808" lon="16.52055"><ele>1175.0</ele><time>2026-05-03T13:55:45.329Z</time></trkpt><trkpt lat="39.3672392" lon="16.5204748"><ele>1175.0</ele><time>2026-05-03T13:55:50.328Z</time></trkpt><trkpt lat="39.3671756" lon="16.5204908"><ele>1175.0</ele><time>2026-05-03T13:55:53.325Z</time></trkpt><trkpt lat="39.3672182" lon="16.5205765"><ele>1175.0</ele><time>2026-05-03T13:55:56.331Z</time></trkpt><trkpt lat="39.367287" lon="16.5206735"><ele>1175.0</ele><time>2026-05-03T13:55:58.325Z</time></trkpt><trkpt lat="39.3673308" lon="16.5207943"><ele>1175.0</ele><time>2026-05-03T13:56:00.333Z</time></trkpt><trkpt lat="39.3673553" lon="16.5208799"><ele>1175.0</ele><time>2026-05-03T13:56:07.321Z</time></trkpt></trkseg><trkseg><trkpt lat="39.3675275" lon="16.5209225"><ele>1175.0</ele><time>2026-05-03T14:20:07.205Z</time></trkpt><trkpt lat="39.3675037" lon="16.52103"><ele>1175.0</ele><time>2026-05-03T14:20:11.264Z</time></trkpt><trkpt lat="39.3675709" lon="16.5211943"><ele>1175.0</ele><time>2026-05-03T14:20:14.267Z</time></trkpt><trkpt lat="39.3675836" lon="16.5212815"><ele>1175.0</ele><time>2026-05-03T14:20:15.271Z</time></trkpt><trkpt lat="39.3675667" lon="16.5214425"><ele>1175.0</ele><time>2026-05-03T14:20:17.265Z</time></trkpt><trkpt lat="39.3675069" lon="16.5215059"><ele>1175.4</ele><time>2026-05-03T14:20:18.273Z</time></trkpt><trkpt lat="39.3674467" lon="16.5215354"><ele>1175.8</ele><time>2026-05-03T14:20:19.264Z</time></trkpt><trkpt lat="39.3673786" lon="16.521581"><ele>1176.2</ele><time>2026-05-03T14:20:20.291Z</time></trkpt><trkpt lat="39.3673046" lon="16.5216667"><ele>1176.6</ele><time>2026-05-03T14:20:21.27Z</time></trkpt><trkpt lat="39.3672172" lon="16.5217873"><ele>1177.0</ele><time>2026-05-03T14:20:22.269Z</time></trkpt><trkpt lat="39.367121" lon="16.5219185"><ele>1177.6666666666665</ele><time>2026-05-03T14:20:23.266Z</time></trkpt><trkpt lat="39.3670382" lon="16.522087"><ele>1178.3333333333333</ele><time>2026-05-03T14:20:24.272Z</time></trkpt><trkpt lat="39.3669523" lon="16.5222702"><ele>1179.0</ele><time>2026-05-03T14:20:25.27Z</time></trkpt><trkpt lat="39.3668735" lon="16.5224884"><ele>1179.0</ele><time>2026-05-03T14:20:26.262Z</time></trkpt><trkpt lat="39.3668044" lon="16.5227143"><ele>1179.0</ele><time>2026-05-03T14:20:27.264Z</time></trkpt><trkpt lat="39.3667321" lon="16.5229266"><ele>1179.0</ele><time>2026-05-03T14:20:28.27Z</time></trkpt><trkpt lat="39.3666647" lon="16.5231179"><ele>1178.0</ele><time>2026-05-03T14:20:29.268Z</time></trkpt><trkpt lat="39.3666052" lon="16.5232914"><ele>1177.0</ele><time>2026-05-03T14:20:30.289Z</time></trkpt><trkpt lat="39.3665542" lon="16.5234457"><ele>1176.0</ele><time>2026-05-03T14:20:31.271Z</time></trkpt><trkpt lat="39.3665138" lon="16.5235852"><ele>1175.0</ele><time>2026-05-03T14:20:32.264Z</time></trkpt><trkpt lat="39.3664418" lon="16.523686"><ele>1174.0</ele><time>2026-05-03T14:20:33.266Z</time></trkpt><trkpt lat="39.3663704" lon="16.5237592"><ele>1173.0</ele><time>2026-05-03T14:20:34.266Z</time></trkpt><trkpt lat="39.3662995" lon="16.5238144"><ele>1172.0</ele><time>2026-05-03T14:20:35.267Z</time></trkpt><trkpt lat="39.3662292" lon="16.5238485"><ele>1171.0</ele><time>2026-05-03T14:20:36.264Z</time></trkpt><trkpt lat="39.3661575" lon="16.5238804"><ele>1170.0</ele><time>2026-05-03T14:20:37.286Z</time></trkpt><trkpt lat="39.3660812" lon="16.5239144"><ele>1169.0</ele><time>2026-05-03T14:20:38.265Z</time></trkpt><trkpt lat="39.3659966" lon="16.5239483"><ele>1169.0</ele><time>2026-05-03T14:20:39.268Z</time></trkpt><trkpt lat="39.3659066" lon="16.5239833"><ele>1169.0</ele><time>2026-05-03T14:20:40.264Z</time></trkpt><trkpt lat="39.3658132" lon="16.5240211"><ele>1169.0</ele><time>2026-05-03T14:20:41.268Z</time></trkpt><trkpt lat="39.3657293" lon="16.524056"><ele>1169.0</ele><time>2026-05-03T14:20:42.268Z</time></trkpt><trkpt lat="39.3656571" lon="16.5240906"><ele>1169.0</ele><time>2026-05-03T14:20:43.269Z</time></trkpt><trkpt lat="39.3655879" lon="16.524139"><ele>1169.0</ele><time>2026-05-03T14:20:44.264Z</time></trkpt><trkpt lat="39.3655235" lon="16.5242096"><ele>1169.6666666666667</ele><time>2026-05-03T14:20:45.293Z</time></trkpt><trkpt lat="39.3654682" lon="16.5242853"><ele>1170.3333333333335</ele><time>2026-05-03T14:20:46.266Z</time></trkpt><trkpt lat="39.3654212" lon="16.5243538"><ele>1171.0</ele><time>2026-05-03T14:20:47.265Z</time></trkpt><trkpt lat="39.3653666" lon="16.5244219"><ele>1171.6666666666667</ele><time>2026-05-03T14:20:48.263Z</time></trkpt><trkpt lat="39.3653024" lon="16.5244894"><ele>1172.3333333333333</ele><time>2026-05-03T14:20:49.265Z</time></trkpt><trkpt lat="39.3652262" lon="16.5245486"><ele>1173.0</ele><time>2026-05-03T14:20:50.265Z</time></trkpt><trkpt lat="39.3651403" lon="16.5245895"><ele>1171.6</ele><time>2026-05-03T14:20:51.263Z</time></trkpt><trkpt lat="39.3650458" lon="16.5246138"><ele>1170.1999999999998</ele><time>2026-05-03T14:20:52.29Z</time></trkpt><trkpt lat="39.364942" lon="16.5246298"><ele>1168.8</ele><time>2026-05-03T14:20:53.268Z</time></trkpt><trkpt lat="39.3648308" lon="16.5246418"><ele>1167.3999999999999</ele><time>2026-05-03T14:20:54.263Z</time></trkpt><trkpt lat="39.3647222" lon="16.5246519"><ele>1166.0</ele><time>2026-05-03T14:20:55.269Z</time></trkpt><trkpt lat="39.3646131" lon="16.5246934"><ele>1166.0</ele><time>2026-05-03T14:20:56.27Z</time></trkpt><trkpt lat="39.3645248" lon="16.5247338"><ele>1166.0</ele><time>2026-05-03T14:20:57.277Z</time></trkpt><trkpt lat="39.3644686" lon="16.5247926"><ele>1166.0</ele><time>2026-05-03T14:20:58.268Z</time></trkpt><trkpt lat="39.3644365" lon="16.52494"><ele>1166.0</ele><time>2026-05-03T14:21:00.263Z</time></trkpt><trkpt lat="39.364424" lon="16.5250427"><ele>1166.0</ele><time>2026-05-03T14:21:01.268Z</time></trkpt><trkpt lat="39.3644475" lon="16.5251273"><ele>1166.0</ele><time>2026-05-03T14:21:02.261Z</time></trkpt><trkpt lat="39.3645183" lon="16.5252333"><ele>1166.0</ele><time>2026-05-03T14:21:04.263Z</time></trkpt><trkpt lat="39.3646394" lon="16.5252034"><ele>1166.0</ele><time>2026-05-03T14:21:06.264Z</time></trkpt><trkpt lat="39.3647101" lon="16.5252419"><ele>1166.0</ele><time>2026-05-03T14:21:07.262Z</time></trkpt><trkpt lat="39.3647714" lon="16.5252966"><ele>1166.0</ele><time>2026-05-03T14:21:08.259Z</time></trkpt><trkpt lat="39.364798" lon="16.5254458"><ele>1166.0</ele><time>2026-05-03T14:21:10.258Z</time></trkpt><trkpt lat="39.3648599" lon="16.5255727"><ele>1166.6</ele><time>2026-05-03T14:21:11.267Z</time></trkpt><trkpt lat="39.3648955" lon="16.5256816"><ele>1167.1999999999998</ele><time>2026-05-03T14:21:12.265Z</time></trkpt><trkpt lat="39.3648788" lon="16.525773"><ele>1167.8000000000002</ele><time>2026-05-03T14:21:14.288Z</time></trkpt><trkpt lat="39.3648365" lon="16.5258519"><ele>1168.4</ele><time>2026-05-03T14:21:19.268Z</time></trkpt><trkpt lat="39.3647606" lon="16.5259421"><ele>1169.0</ele><time>2026-05-03T14:21:21.263Z</time></trkpt><trkpt lat="39.3646767" lon="16.5260438"><ele>1169.4</ele><time>2026-05-03T14:21:23.29Z</time></trkpt><trkpt lat="39.3646442" lon="16.5261214"><ele>1169.8000000000002</ele><time>2026-05-03T14:21:24.258Z</time></trkpt><trkpt lat="39.3646529" lon="16.5262525"><ele>1170.1999999999998</ele><time>2026-05-03T14:21:25.266Z</time></trkpt><trkpt lat="39.3646938" lon="16.5263906"><ele>1170.6</ele><time>2026-05-03T14:21:26.262Z</time></trkpt><trkpt lat="39.3647702" lon="16.5264756"><ele>1171.0</ele><time>2026-05-03T14:21:27.262Z</time></trkpt><trkpt lat="39.3648655" lon="16.5265822"><ele>1172.0</ele><time>2026-05-03T14:21:28.26Z</time></trkpt><trkpt lat="39.3649708" lon="16.5266575"><ele>1173.0</ele><time>2026-05-03T14:21:29.262Z</time></trkpt><trkpt lat="39.3650342" lon="16.5267023"><ele>1174.0</ele><time>2026-05-03T14:21:30.273Z</time></trkpt><trkpt lat="39.3650764" lon="16.5267947"><ele>1175.0</ele><time>2026-05-03T14:21:31.267Z</time></trkpt><trkpt lat="39.3651341" lon="16.5269359"><ele>1176.0</ele><time>2026-05-03T14:21:32.26Z</time></trkpt><trkpt lat="39.3651511" lon="16.5270386"><ele>1176.0</ele><time>2026-05-03T14:21:33.272Z</time></trkpt><trkpt lat="39.365084" lon="16.5271455"><ele>1176.0</ele><time>2026-05-03T14:21:35.266Z</time></trkpt><trkpt lat="39.3650091" lon="16.5271344"><ele>1176.0</ele><time>2026-05-03T14:21:37.263Z</time></trkpt><trkpt lat="39.3649873" lon="16.5270498"><ele>1176.0</ele><time>2026-05-03T14:21:39.272Z</time></trkpt><trkpt lat="39.3649488" lon="16.5269134"><ele>1176.0</ele><time>2026-05-03T14:21:41.265Z</time></trkpt><trkpt lat="39.3648681" lon="16.5268221"><ele>1176.0</ele><time>2026-05-03T14:21:43.263Z</time></trkpt><trkpt lat="39.3647893" lon="16.526797"><ele>1176.0</ele><time>2026-05-03T14:21:44.288Z</time></trkpt><trkpt lat="39.3647143" lon="16.5267838"><ele>1176.0</ele><time>2026-05-03T14:21:45.263Z</time></trkpt><trkpt lat="39.3646461" lon="16.5267751"><ele>1176.0</ele><time>2026-05-03T14:21:46.268Z</time></trkpt><trkpt lat="39.3645794" lon="16.5267497"><ele>1176.0</ele><time>2026-05-03T14:21:47.266Z</time></trkpt><trkpt lat="39.3645108" lon="16.5267096"><ele>1176.0</ele><time>2026-05-03T14:21:48.262Z</time></trkpt><trkpt lat="39.364437" lon="16.5267221"><ele>1176.0</ele><time>2026-05-03T14:21:49.264Z</time></trkpt><trkpt lat="39.3643361" lon="16.5267774"><ele>1177.6666666666667</ele><time>2026-05-03T14:21:50.289Z</time></trkpt><trkpt lat="39.3642499" lon="16.5268227"><ele>1179.3333333333333</ele><time>2026-05-03T14:21:51.268Z</time></trkpt><trkpt lat="39.364189" lon="16.5268958"><ele>1181.0</ele><time>2026-05-03T14:21:52.265Z</time></trkpt><trkpt lat="39.364135" lon="16.526951"><ele>1182.6666666666665</ele><time>2026-05-03T14:21:53.263Z</time></trkpt><trkpt lat="39.3640802" lon="16.5270933"><ele>1184.3333333333333</ele><time>2026-05-03T14:21:55.267Z</time></trkpt><trkpt lat="39.3640947" lon="16.5271765"><ele>1186.0</ele><time>2026-05-03T14:21:56.27Z</time></trkpt><trkpt lat="39.3641167" lon="16.5272569"><ele>1187.6666666666665</ele><time>2026-05-03T14:21:57.264Z</time></trkpt><trkpt lat="39.3641595" lon="16.5273506"><ele>1189.3333333333333</ele><time>2026-05-03T14:21:58.283Z</time></trkpt><trkpt lat="39.3642154" lon="16.5274431"><ele>1191.0</ele><time>2026-05-03T14:21:59.265Z</time></trkpt><trkpt lat="39.3642647" lon="16.5275376"><ele>1192.6666666666667</ele><time>2026-05-03T14:22:00.261Z</time></trkpt><trkpt lat="39.3643148" lon="16.5275972"><ele>1194.3333333333335</ele><time>2026-05-03T14:22:01.26Z</time></trkpt><trkpt lat="39.3643455" lon="16.527688"><ele>1196.0</ele><time>2026-05-03T14:22:02.268Z</time></trkpt><trkpt lat="39.3643018" lon="16.5277869"><ele>1196.0</ele><time>2026-05-03T14:22:03.268Z</time></trkpt><trkpt lat="39.364261" lon="16.5278797"><ele>1196.0</ele><time>2026-05-03T14:22:04.268Z</time></trkpt><trkpt lat="39.3641747" lon="16.5279367"><ele>1196.0</ele><time>2026-05-03T14:22:05.264Z</time></trkpt><trkpt lat="39.364075" lon="16.5279408"><ele>1196.0</ele><time>2026-05-03T14:22:06.28Z</time></trkpt><trkpt lat="39.3639834" lon="16.5279482"><ele>1196.0</ele><time>2026-05-03T14:22:07.271Z</time></trkpt><trkpt lat="39.3638989" lon="16.527945"><ele>1197.8333333333335</ele><time>2026-05-03T14:22:08.264Z</time></trkpt><trkpt lat="39.3638199" lon="16.527913"><ele>1199.6666666666667</ele><time>2026-05-03T14:22:09.268Z</time></trkpt><trkpt lat="39.3637425" lon="16.5278707"><ele>1201.5</ele><time>2026-05-03T14:22:10.264Z</time></trkpt><trkpt lat="39.3636614" lon="16.5278388"><ele>1203.3333333333333</ele><time>2026-05-03T14:22:11.287Z</time></trkpt><trkpt lat="39.3635655" lon="16.5278436"><ele>1205.1666666666665</ele><time>2026-05-03T14:22:12.268Z</time></trkpt><trkpt lat="39.3634963" lon="16.5278976"><ele>1207.0</ele><time>2026-05-03T14:22:13.267Z</time></trkpt><trkpt lat="39.3634231" lon="16.5279675"><ele>1207.0</ele><time>2026-05-03T14:22:14.266Z</time></trkpt><trkpt lat="39.3633584" lon="16.5280553"><ele>1207.0</ele><time>2026-05-03T14:22:15.264Z</time></trkpt><trkpt lat="39.3632966" lon="16.5281084"><ele>1207.0</ele><time>2026-05-03T14:22:16.266Z</time></trkpt><trkpt lat="39.3632221" lon="16.5281354"><ele>1207.0</ele><time>2026-05-03T14:22:17.264Z</time></trkpt><trkpt lat="39.3630764" lon="16.528035"><ele>1207.0</ele><time>2026-05-03T14:22:19.266Z</time></trkpt><trkpt lat="39.3629624" lon="16.5279657"><ele>1207.6</ele><time>2026-05-03T14:22:20.263Z</time></trkpt><trkpt lat="39.3628657" lon="16.5279113"><ele>1208.2</ele><time>2026-05-03T14:22:21.275Z</time></trkpt><trkpt lat="39.3628031" lon="16.5278445"><ele>1208.8</ele><time>2026-05-03T14:22:22.268Z</time></trkpt><trkpt lat="39.3627238" lon="16.5277648"><ele>1209.4</ele><time>2026-05-03T14:22:23.297Z</time></trkpt><trkpt lat="39.3626685" lon="16.5276449"><ele>1210.0</ele><time>2026-05-03T14:22:24.263Z</time></trkpt><trkpt lat="39.3626733" lon="16.527451"><ele>1210.2</ele><time>2026-05-03T14:22:26.265Z</time></trkpt><trkpt lat="39.3627153" lon="16.5273048"><ele>1210.4</ele><time>2026-05-03T14:22:27.267Z</time></trkpt><trkpt lat="39.3627355" lon="16.5271993"><ele>1210.6</ele><time>2026-05-03T14:22:28.268Z</time></trkpt><trkpt lat="39.3627198" lon="16.5270867"><ele>1210.8</ele><time>2026-05-03T14:22:29.265Z</time></trkpt><trkpt lat="39.3626792" lon="16.5270226"><ele>1211.0</ele><time>2026-05-03T14:22:30.262Z</time></trkpt><trkpt lat="39.3625843" lon="16.52695"><ele>1211.0</ele><time>2026-05-03T14:22:32.26Z</time></trkpt><trkpt lat="39.3625135" lon="16.5269882"><ele>1211.0</ele><time>2026-05-03T14:22:33.261Z</time></trkpt><trkpt lat="39.3624538" lon="16.5271001"><ele>1211.0</ele><time>2026-05-03T14:22:34.27Z</time></trkpt><trkpt lat="39.3623819" lon="16.5272403"><ele>1211.0</ele><time>2026-05-03T14:22:35.268Z</time></trkpt><trkpt lat="39.3622991" lon="16.5273657"><ele>1211.0</ele><time>2026-05-03T14:22:36.283Z</time></trkpt><trkpt lat="39.362211" lon="16.5274788"><ele>1212.2</ele><time>2026-05-03T14:22:37.26Z</time></trkpt><trkpt lat="39.3621121" lon="16.5275781"><ele>1213.3999999999999</ele><time>2026-05-03T14:22:38.263Z</time></trkpt><trkpt lat="39.3620093" lon="16.5276457"><ele>1214.6</ele><time>2026-05-03T14:22:39.261Z</time></trkpt><trkpt lat="39.3619135" lon="16.5277056"><ele>1215.8</ele><time>2026-05-03T14:22:40.265Z</time></trkpt><trkpt lat="39.3618394" lon="16.5277436"><ele>1217.0</ele><time>2026-05-03T14:22:41.262Z</time></trkpt><trkpt lat="39.3617793" lon="16.5277709"><ele>1217.0</ele><time>2026-05-03T14:22:42.28Z</time></trkpt><trkpt lat="39.3616371" lon="16.5278011"><ele>1217.0</ele><time>2026-05-03T14:22:44.265Z</time></trkpt><trkpt lat="39.3615733" lon="16.5278489"><ele>1217.0</ele><time>2026-05-03T14:22:45.262Z</time></trkpt><trkpt lat="39.3615143" lon="16.5279027"><ele>1217.0</ele><time>2026-05-03T14:22:46.271Z</time></trkpt><trkpt lat="39.3614472" lon="16.5279672"><ele>1217.0</ele><time>2026-05-03T14:22:47.261Z</time></trkpt><trkpt lat="39.3613696" lon="16.5280393"><ele>1219.5</ele><time>2026-05-03T14:22:48.284Z</time></trkpt><trkpt lat="39.3612937" lon="16.5281092"><ele>1222.0</ele><time>2026-05-03T14:22:49.263Z</time></trkpt><trkpt lat="39.3612215" lon="16.5281803"><ele>1224.5</ele><time>2026-05-03T14:22:50.267Z</time></trkpt><trkpt lat="39.3611596" lon="16.5282425"><ele>1227.0</ele><time>2026-05-03T14:22:51.262Z</time></trkpt><trkpt lat="39.3611201" lon="16.5283234"><ele>1229.5</ele><time>2026-05-03T14:22:52.26Z</time></trkpt><trkpt lat="39.3610742" lon="16.5284056"><ele>1232.0</ele><time>2026-05-03T14:22:53.264Z</time></trkpt><trkpt lat="39.3610286" lon="16.5284878"><ele>1232.0</ele><time>2026-05-03T14:22:54.261Z</time></trkpt><trkpt lat="39.3609952" lon="16.528578"><ele>1232.0</ele><time>2026-05-03T14:22:55.266Z</time></trkpt><trkpt lat="39.3609749" lon="16.5286792"><ele>1232.0</ele><time>2026-05-03T14:22:56.264Z</time></trkpt><trkpt lat="39.3609094" lon="16.5287959"><ele>1232.0</ele><time>2026-05-03T14:22:58.266Z</time></trkpt><trkpt lat="39.3608327" lon="16.5289168"><ele>1232.0</ele><time>2026-05-03T14:23:00.263Z</time></trkpt><trkpt lat="39.3607915" lon="16.5289933"><ele>1233.8</ele><time>2026-05-03T14:23:01.261Z</time></trkpt><trkpt lat="39.3607277" lon="16.5290699"><ele>1235.6</ele><time>2026-05-03T14:23:02.264Z</time></trkpt><trkpt lat="39.3606669" lon="16.5291426"><ele>1237.3999999999999</ele><time>2026-05-03T14:23:03.266Z</time></trkpt><trkpt lat="39.3606181" lon="16.5292253"><ele>1239.2</ele><time>2026-05-03T14:23:04.268Z</time></trkpt><trkpt lat="39.3605656" lon="16.5293371"><ele>1241.0</ele><time>2026-05-03T14:23:05.294Z</time></trkpt><trkpt lat="39.360504" lon="16.5294551"><ele>1242.6</ele><time>2026-05-03T14:23:06.264Z</time></trkpt><trkpt lat="39.36045" lon="16.5295545"><ele>1244.1999999999998</ele><time>2026-05-03T14:23:07.264Z</time></trkpt><trkpt lat="39.3603814" lon="16.5296511"><ele>1245.8000000000002</ele><time>2026-05-03T14:23:08.266Z</time></trkpt><trkpt lat="39.3603137" lon="16.529737"><ele>1247.4</ele><time>2026-05-03T14:23:09.267Z</time></trkpt><trkpt lat="39.3602427" lon="16.5298419"><ele>1249.0</ele><time>2026-05-03T14:23:10.265Z</time></trkpt><trkpt lat="39.360148" lon="16.5299468"><ele>1251.0</ele><time>2026-05-03T14:23:11.284Z</time></trkpt><trkpt lat="39.3600474" lon="16.5300524"><ele>1253.0</ele><time>2026-05-03T14:23:12.262Z</time></trkpt><trkpt lat="39.3599555" lon="16.530151"><ele>1255.0</ele><time>2026-05-03T14:23:13.262Z</time></trkpt><trkpt lat="39.3598645" lon="16.5302496"><ele>1257.0</ele><time>2026-05-03T14:23:14.263Z</time></trkpt><trkpt lat="39.359772" lon="16.5303604"><ele>1258.0</ele><time>2026-05-03T14:23:15.266Z</time></trkpt><trkpt lat="39.3596684" lon="16.5304727"><ele>1259.0</ele><time>2026-05-03T14:23:16.261Z</time></trkpt><trkpt lat="39.3595674" lon="16.5305894"><ele>1260.0</ele><time>2026-05-03T14:23:17.31Z</time></trkpt><trkpt lat="39.3594708" lon="16.530702"><ele>1261.0</ele><time>2026-05-03T14:23:18.268Z</time></trkpt><trkpt lat="39.3593785" lon="16.5308103"><ele>1261.0</ele><time>2026-05-03T14:23:19.26Z</time></trkpt><trkpt lat="39.3593033" lon="16.5309136"><ele>1261.0</ele><time>2026-05-03T14:23:20.262Z</time></trkpt><trkpt lat="39.3592258" lon="16.5310027"><ele>1261.0</ele><time>2026-05-03T14:23:21.259Z</time></trkpt><trkpt lat="39.3591429" lon="16.5310838"><ele>1261.0</ele><time>2026-05-03T14:23:22.281Z</time></trkpt><trkpt lat="39.3590648" lon="16.531167"><ele>1261.0</ele><time>2026-05-03T14:23:23.269Z</time></trkpt><trkpt lat="39.3589927" lon="16.531271"><ele>1261.8333333333333</ele><time>2026-05-03T14:23:24.269Z</time></trkpt><trkpt lat="39.3589422" lon="16.5313727"><ele>1262.6666666666665</ele><time>2026-05-03T14:23:25.265Z</time></trkpt><trkpt lat="39.3589267" lon="16.5314853"><ele>1263.5</ele><time>2026-05-03T14:23:26.26Z</time></trkpt><trkpt lat="39.3589284" lon="16.5315993"><ele>1264.3333333333333</ele><time>2026-05-03T14:23:27.26Z</time></trkpt><trkpt lat="39.3589165" lon="16.531692"><ele>1265.1666666666667</ele><time>2026-05-03T14:23:28.263Z</time></trkpt><trkpt lat="39.3588696" lon="16.5317708"><ele>1266.0</ele><time>2026-05-03T14:23:29.262Z</time></trkpt><trkpt lat="39.3587851" lon="16.5318259"><ele>1266.0</ele><time>2026-05-03T14:23:30.264Z</time></trkpt><trkpt lat="39.3586925" lon="16.5318835"><ele>1266.0</ele><time>2026-05-03T14:23:31.268Z</time></trkpt><trkpt lat="39.3586126" lon="16.531955"><ele>1266.0</ele><time>2026-05-03T14:23:32.264Z</time></trkpt><trkpt lat="39.3585384" lon="16.5320372"><ele>1266.0</ele><time>2026-05-03T14:23:33.265Z</time></trkpt><trkpt lat="39.3584679" lon="16.5321207"><ele>1266.0</ele><time>2026-05-03T14:23:34.29Z</time></trkpt><trkpt lat="39.3583993" lon="16.5322155"><ele>1267.8</ele><time>2026-05-03T14:23:35.266Z</time></trkpt><trkpt lat="39.3583506" lon="16.5323294"><ele>1269.6</ele><time>2026-05-03T14:23:36.267Z</time></trkpt><trkpt lat="39.3583379" lon="16.5324588"><ele>1271.4</ele><time>2026-05-03T14:23:37.265Z</time></trkpt><trkpt lat="39.3583671" lon="16.5325862"><ele>1273.2</ele><time>2026-05-03T14:23:38.263Z</time></trkpt><trkpt lat="39.3584013" lon="16.5327166"><ele>1275.0</ele><time>2026-05-03T14:23:39.281Z</time></trkpt><trkpt lat="39.3584391" lon="16.5328554"><ele>1277.0</ele><time>2026-05-03T14:23:40.266Z</time></trkpt><trkpt lat="39.3584712" lon="16.5330015"><ele>1279.0</ele><time>2026-05-03T14:23:41.264Z</time></trkpt><trkpt lat="39.358495" lon="16.5331491"><ele>1281.0</ele><time>2026-05-03T14:23:42.265Z</time></trkpt><trkpt lat="39.3585188" lon="16.5332823"><ele>1283.0</ele><time>2026-05-03T14:23:43.264Z</time></trkpt><trkpt lat="39.3585429" lon="16.5334029"><ele>1285.0</ele><time>2026-05-03T14:23:44.291Z</time></trkpt><trkpt lat="39.3585489" lon="16.5335286"><ele>1285.0</ele><time>2026-05-03T14:23:45.261Z</time></trkpt><trkpt lat="39.3585305" lon="16.5336514"><ele>1285.0</ele><time>2026-05-03T14:23:46.264Z</time></trkpt><trkpt lat="39.3585107" lon="16.5337736"><ele>1285.0</ele><time>2026-05-03T14:23:47.263Z</time></trkpt><trkpt lat="39.3584847" lon="16.5338925"><ele>1285.0</ele><time>2026-05-03T14:23:48.263Z</time></trkpt><trkpt lat="39.3584488" lon="16.5340163"><ele>1285.0</ele><time>2026-05-03T14:23:49.273Z</time></trkpt><trkpt lat="39.3584174" lon="16.5341447"><ele>1287.2</ele><time>2026-05-03T14:23:50.266Z</time></trkpt><trkpt lat="39.358383" lon="16.5342785"><ele>1289.4</ele><time>2026-05-03T14:23:51.264Z</time></trkpt><trkpt lat="39.3583529" lon="16.5344164"><ele>1291.6</ele><time>2026-05-03T14:23:52.265Z</time></trkpt><trkpt lat="39.3583099" lon="16.5345417"><ele>1293.8</ele><time>2026-05-03T14:23:53.264Z</time></trkpt><trkpt lat="39.3582438" lon="16.5346498"><ele>1296.0</ele><time>2026-05-03T14:23:54.277Z</time></trkpt><trkpt lat="39.3581648" lon="16.5347397"><ele>1295.8</ele><time>2026-05-03T14:23:55.265Z</time></trkpt><trkpt lat="39.3580915" lon="16.5348221"><ele>1295.6</ele><time>2026-05-03T14:23:56.266Z</time></trkpt><trkpt lat="39.3580401" lon="16.5349292"><ele>1295.4</ele><time>2026-05-03T14:23:57.266Z</time></trkpt><trkpt lat="39.3579992" lon="16.5350547"><ele>1295.2</ele><time>2026-05-03T14:23:58.269Z</time></trkpt><trkpt lat="39.3579794" lon="16.5351819"><ele>1295.0</ele><time>2026-05-03T14:23:59.264Z</time></trkpt><trkpt lat="39.3579753" lon="16.5353067"><ele>1295.1666666666667</ele><time>2026-05-03T14:24:00.297Z</time></trkpt><trkpt lat="39.3579779" lon="16.5354212"><ele>1295.3333333333335</ele><time>2026-05-03T14:24:01.256Z</time></trkpt><trkpt lat="39.357987" lon="16.5355295"><ele>1295.5</ele><time>2026-05-03T14:24:02.273Z</time></trkpt><trkpt lat="39.3580225" lon="16.5356265"><ele>1295.6666666666667</ele><time>2026-05-03T14:24:03.26Z</time></trkpt><trkpt lat="39.3580634" lon="16.5357321"><ele>1295.8333333333333</ele><time>2026-05-03T14:24:04.269Z</time></trkpt><trkpt lat="39.3580794" lon="16.5358406"><ele>1296.0</ele><time>2026-05-03T14:24:05.268Z</time></trkpt><trkpt lat="39.358088" lon="16.5359568"><ele>1297.8</ele><time>2026-05-03T14:24:06.264Z</time></trkpt><trkpt lat="39.3581019" lon="16.5360788"><ele>1299.6</ele><time>2026-05-03T14:24:07.261Z</time></trkpt><trkpt lat="39.3581189" lon="16.536198"><ele>1301.4</ele><time>2026-05-03T14:24:08.26Z</time></trkpt><trkpt lat="39.3581289" lon="16.5362987"><ele>1303.2</ele><time>2026-05-03T14:24:09.264Z</time></trkpt><trkpt lat="39.3581401" lon="16.536449"><ele>1305.0</ele><time>2026-05-03T14:24:11.299Z</time></trkpt><trkpt lat="39.3581574" lon="16.5365474"><ele>1305.25</ele><time>2026-05-03T14:24:12.267Z</time></trkpt><trkpt lat="39.3581806" lon="16.536684"><ele>1305.5</ele><time>2026-05-03T14:24:13.264Z</time></trkpt><trkpt lat="39.3581998" lon="16.5368327"><ele>1305.75</ele><time>2026-05-03T14:24:14.27Z</time></trkpt><trkpt lat="39.3581978" lon="16.5370005"><ele>1306.0</ele><time>2026-05-03T14:24:15.267Z</time></trkpt><trkpt lat="39.35818" lon="16.537172"><ele>1306.5</ele><time>2026-05-03T14:24:16.288Z</time></trkpt><trkpt lat="39.3581476" lon="16.5373444"><ele>1307.0</ele><time>2026-05-03T14:24:17.26Z</time></trkpt><trkpt lat="39.3581059" lon="16.5375266"><ele>1307.5</ele><time>2026-05-03T14:24:18.265Z</time></trkpt><trkpt lat="39.3580573" lon="16.5377119"><ele>1308.0</ele><time>2026-05-03T14:24:19.271Z</time></trkpt><trkpt lat="39.3580073" lon="16.5378987"><ele>1308.75</ele><time>2026-05-03T14:24:20.268Z</time></trkpt><trkpt lat="39.3579766" lon="16.5380744"><ele>1309.5</ele><time>2026-05-03T14:24:21.259Z</time></trkpt><trkpt lat="39.3579481" lon="16.5382342"><ele>1310.25</ele><time>2026-05-03T14:24:22.311Z</time></trkpt><trkpt lat="39.3579238" lon="16.5383783"><ele>1311.0</ele><time>2026-05-03T14:24:23.261Z</time></trkpt><trkpt lat="39.3578588" lon="16.5385196"><ele>1311.0</ele><time>2026-05-03T14:24:24.267Z</time></trkpt><trkpt lat="39.35778" lon="16.53864"><ele>1311.0</ele><time>2026-05-03T14:24:25.261Z</time></trkpt><trkpt lat="39.3577188" lon="16.5387567"><ele>1311.0</ele><time>2026-05-03T14:24:26.265Z</time></trkpt><trkpt lat="39.3576703" lon="16.5388889"><ele>1311.0</ele><time>2026-05-03T14:24:27.263Z</time></trkpt><trkpt lat="39.3576364" lon="16.5390514"><ele>1313.0</ele><time>2026-05-03T14:24:28.262Z</time></trkpt><trkpt lat="39.3576133" lon="16.5392202"><ele>1315.0</ele><time>2026-05-03T14:24:29.262Z</time></trkpt><trkpt lat="39.357599" lon="16.539392"><ele>1317.0</ele><time>2026-05-03T14:24:30.265Z</time></trkpt><trkpt lat="39.35759" lon="16.5395552"><ele>1319.0</ele><time>2026-05-03T14:24:31.263Z</time></trkpt><trkpt lat="39.3575761" lon="16.5396991"><ele>1320.5</ele><time>2026-05-03T14:24:32.297Z</time></trkpt><trkpt lat="39.3575596" lon="16.5398415"><ele>1322.0</ele><time>2026-05-03T14:24:33.258Z</time></trkpt><trkpt lat="39.3575342" lon="16.5399883"><ele>1323.5</ele><time>2026-05-03T14:24:34.269Z</time></trkpt><trkpt lat="39.357494" lon="16.5401474"><ele>1325.0</ele><time>2026-05-03T14:24:35.261Z</time></trkpt><trkpt lat="39.3574528" lon="16.5403068"><ele>1326.6</ele><time>2026-05-03T14:24:36.268Z</time></trkpt><trkpt lat="39.3574138" lon="16.5404436"><ele>1328.2</ele><time>2026-05-03T14:24:37.261Z</time></trkpt><trkpt lat="39.3573742" lon="16.540566"><ele>1329.8000000000002</ele><time>2026-05-03T14:24:38.268Z</time></trkpt><trkpt lat="39.3573405" lon="16.5406757"><ele>1331.4</ele><time>2026-05-03T14:24:39.259Z</time></trkpt><trkpt lat="39.3573122" lon="16.540797"><ele>1333.0</ele><time>2026-05-03T14:24:40.268Z</time></trkpt><trkpt lat="39.3573014" lon="16.5409348"><ele>1333.0</ele><time>2026-05-03T14:24:41.27Z</time></trkpt><trkpt lat="39.3573098" lon="16.5410697"><ele>1333.0</ele><time>2026-05-03T14:24:42.261Z</time></trkpt><trkpt lat="39.3573156" lon="16.5411909"><ele>1333.0</ele><time>2026-05-03T14:24:43.259Z</time></trkpt><trkpt lat="39.3573013" lon="16.5413194"><ele>1333.0</ele><time>2026-05-03T14:24:44.286Z</time></trkpt><trkpt lat="39.3572751" lon="16.5414606"><ele>1333.0</ele><time>2026-05-03T14:24:45.266Z</time></trkpt><trkpt lat="39.3572324" lon="16.5416127"><ele>1330.5</ele><time>2026-05-03T14:24:46.262Z</time></trkpt><trkpt lat="39.3571778" lon="16.5417757"><ele>1328.0</ele><time>2026-05-03T14:24:47.273Z</time></trkpt><trkpt lat="39.357115" lon="16.5419153"><ele>1325.5</ele><time>2026-05-03T14:24:48.258Z</time></trkpt><trkpt lat="39.3570314" lon="16.5420307"><ele>1323.0</ele><time>2026-05-03T14:24:49.29Z</time></trkpt><trkpt lat="39.3569307" lon="16.5421243"><ele>1322.75</ele><time>2026-05-03T14:24:50.264Z</time></trkpt><trkpt lat="39.356811" lon="16.5422004"><ele>1322.5</ele><time>2026-05-03T14:24:51.265Z</time></trkpt><trkpt lat="39.3566827" lon="16.5422705"><ele>1322.25</ele><time>2026-05-03T14:24:52.266Z</time></trkpt><trkpt lat="39.3565528" lon="16.5423274"><ele>1322.0</ele><time>2026-05-03T14:24:53.262Z</time></trkpt><trkpt lat="39.3564195" lon="16.5423786"><ele>1323.25</ele><time>2026-05-03T14:24:54.291Z</time></trkpt><trkpt lat="39.3562913" lon="16.5424356"><ele>1324.5</ele><time>2026-05-03T14:24:55.269Z</time></trkpt><trkpt lat="39.3561604" lon="16.5424862"><ele>1325.75</ele><time>2026-05-03T14:24:56.262Z</time></trkpt><trkpt lat="39.3560233" lon="16.5425188"><ele>1327.0</ele><time>2026-05-03T14:24:57.264Z</time></trkpt><trkpt lat="39.3558742" lon="16.5425436"><ele>1327.0</ele><time>2026-05-03T14:24:58.272Z</time></trkpt><trkpt lat="39.3557193" lon="16.542564"><ele>1327.0</ele><time>2026-05-03T14:24:59.269Z</time></trkpt><trkpt lat="39.3555769" lon="16.5425815"><ele>1327.0</ele><time>2026-05-03T14:25:00.264Z</time></trkpt><trkpt lat="39.3554464" lon="16.5425899"><ele>1327.0</ele><time>2026-05-03T14:25:01.278Z</time></trkpt><trkpt lat="39.3553193" lon="16.5425813"><ele>1328.0</ele><time>2026-05-03T14:25:02.265Z</time></trkpt><trkpt lat="39.3552028" lon="16.5425783"><ele>1329.0</ele><time>2026-05-03T14:25:03.267Z</time></trkpt><trkpt lat="39.3550971" lon="16.5425819"><ele>1330.0</ele><time>2026-05-03T14:25:04.266Z</time></trkpt><trkpt lat="39.3550072" lon="16.5426023"><ele>1331.0</ele><time>2026-05-03T14:25:05.275Z</time></trkpt><trkpt lat="39.3549293" lon="16.5426627"><ele>1332.0</ele><time>2026-05-03T14:25:06.263Z</time></trkpt><trkpt lat="39.3548429" lon="16.5427588"><ele>1332.0</ele><time>2026-05-03T14:25:07.281Z</time></trkpt><trkpt lat="39.3547288" lon="16.5428411"><ele>1332.0</ele><time>2026-05-03T14:25:08.263Z</time></trkpt><trkpt lat="39.3546241" lon="16.5429073"><ele>1332.0</ele><time>2026-05-03T14:25:09.266Z</time></trkpt><trkpt lat="39.3545403" lon="16.5429488"><ele>1332.0</ele><time>2026-05-03T14:25:10.259Z</time></trkpt><trkpt lat="39.3544737" lon="16.5429894"><ele>1332.0</ele><time>2026-05-03T14:25:11.267Z</time></trkpt><trkpt lat="39.354419" lon="16.5430712"><ele>1333.1666666666667</ele><time>2026-05-03T14:25:12.265Z</time></trkpt><trkpt lat="39.3543571" lon="16.5431704"><ele>1334.3333333333333</ele><time>2026-05-03T14:25:13.265Z</time></trkpt><trkpt lat="39.3542949" lon="16.5432664"><ele>1335.5</ele><time>2026-05-03T14:25:14.298Z</time></trkpt><trkpt lat="39.3542394" lon="16.5433497"><ele>1336.6666666666665</ele><time>2026-05-03T14:25:15.26Z</time></trkpt><trkpt lat="39.3541871" lon="16.543427"><ele>1337.8333333333333</ele><time>2026-05-03T14:25:16.289Z</time></trkpt><trkpt lat="39.3541431" lon="16.5435253"><ele>1339.0</ele><time>2026-05-03T14:25:17.261Z</time></trkpt><trkpt lat="39.3540984" lon="16.5436585"><ele>1340.8000000000002</ele><time>2026-05-03T14:25:18.27Z</time></trkpt><trkpt lat="39.3540506" lon="16.5437882"><ele>1342.6000000000001</ele><time>2026-05-03T14:25:19.26Z</time></trkpt><trkpt lat="39.3539979" lon="16.5439003"><ele>1344.4</ele><time>2026-05-03T14:25:20.269Z</time></trkpt><trkpt lat="39.3539368" lon="16.5439972"><ele>1346.2</ele><time>2026-05-03T14:25:21.263Z</time></trkpt><trkpt lat="39.3538666" lon="16.5441021"><ele>1348.0</ele><time>2026-05-03T14:25:22.269Z</time></trkpt><trkpt lat="39.353794" lon="16.5442213"><ele>1349.2</ele><time>2026-05-03T14:25:23.265Z</time></trkpt><trkpt lat="39.3537222" lon="16.5443427"><ele>1350.4</ele><time>2026-05-03T14:25:24.294Z</time></trkpt><trkpt lat="39.3536522" lon="16.544452"><ele>1351.6000000000001</ele><time>2026-05-03T14:25:25.265Z</time></trkpt><trkpt lat="39.3535736" lon="16.5445513"><ele>1352.8000000000002</ele><time>2026-05-03T14:25:26.267Z</time></trkpt><trkpt lat="39.3534962" lon="16.5446495"><ele>1354.0</ele><time>2026-05-03T14:25:27.259Z</time></trkpt><trkpt lat="39.3534221" lon="16.544762"><ele>1354.2</ele><time>2026-05-03T14:25:28.266Z</time></trkpt><trkpt lat="39.3533571" lon="16.5448786"><ele>1354.4</ele><time>2026-05-03T14:25:29.268Z</time></trkpt><trkpt lat="39.3533011" lon="16.5450075"><ele>1354.6</ele><time>2026-05-03T14:25:30.263Z</time></trkpt><trkpt lat="39.3532638" lon="16.5451304"><ele>1354.8</ele><time>2026-05-03T14:25:31.284Z</time></trkpt><trkpt lat="39.3532083" lon="16.5452459"><ele>1355.0</ele><time>2026-05-03T14:25:32.266Z</time></trkpt><trkpt lat="39.3531368" lon="16.5453522"><ele>1355.0</ele><time>2026-05-03T14:25:33.266Z</time></trkpt><trkpt lat="39.3530543" lon="16.5454521"><ele>1355.0</ele><time>2026-05-03T14:25:34.275Z</time></trkpt><trkpt lat="39.3529782" lon="16.545561"><ele>1355.0</ele><time>2026-05-03T14:25:35.264Z</time></trkpt><trkpt lat="39.3529162" lon="16.5456952"><ele>1355.0</ele><time>2026-05-03T14:25:36.28Z</time></trkpt><trkpt lat="39.3528761" lon="16.5458392"><ele>1356.75</ele><time>2026-05-03T14:25:37.261Z</time></trkpt><trkpt lat="39.3528392" lon="16.5459905"><ele>1358.5</ele><time>2026-05-03T14:25:38.263Z</time></trkpt><trkpt lat="39.3528056" lon="16.5461392"><ele>1360.25</ele><time>2026-05-03T14:25:39.263Z</time></trkpt><trkpt lat="39.3527643" lon="16.5462679"><ele>1362.0</ele><time>2026-05-03T14:25:40.264Z</time></trkpt><trkpt lat="39.3527137" lon="16.5463944"><ele>1362.25</ele><time>2026-05-03T14:25:41.302Z</time></trkpt><trkpt lat="39.3526435" lon="16.5465093"><ele>1362.5</ele><time>2026-05-03T14:25:42.262Z</time></trkpt><trkpt lat="39.3525618" lon="16.5466257"><ele>1362.75</ele><time>2026-05-03T14:25:43.261Z</time></trkpt><trkpt lat="39.3524787" lon="16.5467441"><ele>1363.0</ele><time>2026-05-03T14:25:44.262Z</time></trkpt><trkpt lat="39.3523973" lon="16.5468697"><ele>1363.0</ele><time>2026-05-03T14:25:45.26Z</time></trkpt><trkpt lat="39.352315" lon="16.5470033"><ele>1363.0</ele><time>2026-05-03T14:25:46.268Z</time></trkpt><trkpt lat="39.352243" lon="16.5471267"><ele>1363.0</ele><time>2026-05-03T14:25:47.267Z</time></trkpt><trkpt lat="39.3521737" lon="16.5472417"><ele>1363.0</ele><time>2026-05-03T14:25:48.28Z</time></trkpt><trkpt lat="39.3521113" lon="16.5473451"><ele>1363.6000000000001</ele><time>2026-05-03T14:25:49.259Z</time></trkpt><trkpt lat="39.3520686" lon="16.5474341"><ele>1364.2</ele><time>2026-05-03T14:25:50.261Z</time></trkpt><trkpt lat="39.3520394" lon="16.5475066"><ele>1364.8</ele><time>2026-05-03T14:25:51.265Z</time></trkpt><trkpt lat="39.352001" lon="16.5476715"><ele>1365.4</ele><time>2026-05-03T14:25:53.257Z</time></trkpt><trkpt lat="39.3519425" lon="16.5477771"><ele>1366.0</ele><time>2026-05-03T14:25:54.283Z</time></trkpt><trkpt lat="39.3518752" lon="16.5479"><ele>1367.0</ele><time>2026-05-03T14:25:55.255Z</time></trkpt><trkpt lat="39.3517993" lon="16.5480278"><ele>1368.0</ele><time>2026-05-03T14:25:56.259Z</time></trkpt><trkpt lat="39.3517196" lon="16.5481696"><ele>1369.0</ele><time>2026-05-03T14:25:57.261Z</time></trkpt><trkpt lat="39.3516316" lon="16.5483114"><ele>1370.0</ele><time>2026-05-03T14:25:58.262Z</time></trkpt><trkpt lat="39.3515348" lon="16.5484482"><ele>1370.0</ele><time>2026-05-03T14:25:59.261Z</time></trkpt><trkpt lat="39.3514371" lon="16.5485724"><ele>1370.0</ele><time>2026-05-03T14:26:00.264Z</time></trkpt><trkpt lat="39.3513578" lon="16.5486814"><ele>1370.0</ele><time>2026-05-03T14:26:01.262Z</time></trkpt><trkpt lat="39.3512827" lon="16.5487904"><ele>1370.0</ele><time>2026-05-03T14:26:02.291Z</time></trkpt><trkpt lat="39.3512187" lon="16.5489073"><ele>1369.4</ele><time>2026-05-03T14:26:03.261Z</time></trkpt><trkpt lat="39.3511587" lon="16.5490258"><ele>1368.8</ele><time>2026-05-03T14:26:04.264Z</time></trkpt><trkpt lat="39.3510965" lon="16.5491219"><ele>1368.1999999999998</ele><time>2026-05-03T14:26:05.259Z</time></trkpt><trkpt lat="39.3510308" lon="16.5492178"><ele>1367.6</ele><time>2026-05-03T14:26:06.262Z</time></trkpt><trkpt lat="39.3509729" lon="16.5493294"><ele>1367.0</ele><time>2026-05-03T14:26:07.288Z</time></trkpt><trkpt lat="39.3509221" lon="16.5494469"><ele>1367.0</ele><time>2026-05-03T14:26:08.258Z</time></trkpt><trkpt lat="39.3508803" lon="16.5495714"><ele>1367.0</ele><time>2026-05-03T14:26:09.26Z</time></trkpt><trkpt lat="39.3508462" lon="16.5496986"><ele>1367.0</ele><time>2026-05-03T14:26:10.27Z</time></trkpt><trkpt lat="39.3507989" lon="16.5498129"><ele>1367.0</ele><time>2026-05-03T14:26:11.269Z</time></trkpt><trkpt lat="39.3507393" lon="16.5499146"><ele>1367.0</ele><time>2026-05-03T14:26:12.28Z</time></trkpt><trkpt lat="39.3506613" lon="16.5499591"><ele>1367.0</ele><time>2026-05-03T14:26:13.267Z</time></trkpt><trkpt lat="39.3505864" lon="16.5499963"><ele>1367.0</ele><time>2026-05-03T14:26:14.265Z</time></trkpt><trkpt lat="39.3505223" lon="16.5500386"><ele>1367.0</ele><time>2026-05-03T14:26:15.263Z</time></trkpt><trkpt lat="39.3504537" lon="16.5500888"><ele>1367.0</ele><time>2026-05-03T14:26:16.261Z</time></trkpt><trkpt lat="39.3503698" lon="16.5501458"><ele>1367.0</ele><time>2026-05-03T14:26:17.265Z</time></trkpt><trkpt lat="39.3502778" lon="16.5502082"><ele>1367.0</ele><time>2026-05-03T14:26:18.259Z</time></trkpt><trkpt lat="39.3501738" lon="16.550297"><ele>1368.0</ele><time>2026-05-03T14:26:19.261Z</time></trkpt><trkpt lat="39.3500721" lon="16.5504088"><ele>1369.0</ele><time>2026-05-03T14:26:20.261Z</time></trkpt><trkpt lat="39.3499768" lon="16.5505274"><ele>1370.0</ele><time>2026-05-03T14:26:21.284Z</time></trkpt><trkpt lat="39.3498838" lon="16.5506492"><ele>1371.0</ele><time>2026-05-03T14:26:22.257Z</time></trkpt><trkpt lat="39.3497947" lon="16.550773"><ele>1371.0</ele><time>2026-05-03T14:26:23.261Z</time></trkpt><trkpt lat="39.3497115" lon="16.5508921"><ele>1371.0</ele><time>2026-05-03T14:26:24.255Z</time></trkpt><trkpt lat="39.3496347" lon="16.5509935"><ele>1371.0</ele><time>2026-05-03T14:26:25.26Z</time></trkpt><trkpt lat="39.3495586" lon="16.551094"><ele>1371.0</ele><time>2026-05-03T14:26:26.272Z</time></trkpt><trkpt lat="39.3494736" lon="16.551192"><ele>1371.8</ele><time>2026-05-03T14:26:27.254Z</time></trkpt><trkpt lat="39.3493851" lon="16.5512815"><ele>1372.6</ele><time>2026-05-03T14:26:28.284Z</time></trkpt><trkpt lat="39.3493014" lon="16.5513603"><ele>1373.4</ele><time>2026-05-03T14:26:29.263Z</time></trkpt><trkpt lat="39.3492165" lon="16.5514375"><ele>1374.2</ele><time>2026-05-03T14:26:30.261Z</time></trkpt><trkpt lat="39.3491227" lon="16.5515105"><ele>1375.0</ele><time>2026-05-03T14:26:31.259Z</time></trkpt><trkpt lat="39.3490221" lon="16.5515687"><ele>1375.0</ele><time>2026-05-03T14:26:32.264Z</time></trkpt><trkpt lat="39.3489208" lon="16.551605"><ele>1375.0</ele><time>2026-05-03T14:26:33.26Z</time></trkpt><trkpt lat="39.3488186" lon="16.551633"><ele>1375.0</ele><time>2026-05-03T14:26:34.26Z</time></trkpt><trkpt lat="39.3487049" lon="16.5516382"><ele>1375.0</ele><time>2026-05-03T14:26:35.262Z</time></trkpt><trkpt lat="39.3485869" lon="16.5516189"><ele>1375.0</ele><time>2026-05-03T14:26:36.264Z</time></trkpt><trkpt lat="39.3484704" lon="16.5515818"><ele>1374.0</ele><time>2026-05-03T14:26:37.261Z</time></trkpt><trkpt lat="39.3483478" lon="16.5515421"><ele>1373.0</ele><time>2026-05-03T14:26:38.264Z</time></trkpt><trkpt lat="39.3482211" lon="16.5515122"><ele>1372.0</ele><time>2026-05-03T14:26:39.261Z</time></trkpt><trkpt lat="39.3480967" lon="16.5514812"><ele>1371.0</ele><time>2026-05-03T14:26:40.274Z</time></trkpt><trkpt lat="39.3479727" lon="16.5514405"><ele>1370.0</ele><time>2026-05-03T14:26:41.263Z</time></trkpt><trkpt lat="39.3478397" lon="16.5514036"><ele>1369.0</ele><time>2026-05-03T14:26:42.263Z</time></trkpt><trkpt lat="39.347706" lon="16.5513815"><ele>1368.0</ele><time>2026-05-03T14:26:43.267Z</time></trkpt><trkpt lat="39.3475687" lon="16.5513584"><ele>1367.0</ele><time>2026-05-03T14:26:44.263Z</time></trkpt><trkpt lat="39.3474345" lon="16.5513328"><ele>1367.0</ele><time>2026-05-03T14:26:45.287Z</time></trkpt><trkpt lat="39.3473212" lon="16.5513011"><ele>1367.0</ele><time>2026-05-03T14:26:46.256Z</time></trkpt><trkpt lat="39.3472176" lon="16.5512408"><ele>1367.0</ele><time>2026-05-03T14:26:47.265Z</time></trkpt><trkpt lat="39.3471139" lon="16.5511496"><ele>1367.0</ele><time>2026-05-03T14:26:48.26Z</time></trkpt><trkpt lat="39.346996" lon="16.5510349"><ele>1366.0</ele><time>2026-05-03T14:26:49.261Z</time></trkpt><trkpt lat="39.346868" lon="16.5509039"><ele>1365.0</ele><time>2026-05-03T14:26:50.261Z</time></trkpt><trkpt lat="39.3467298" lon="16.5507643"><ele>1364.0</ele><time>2026-05-03T14:26:51.271Z</time></trkpt><trkpt lat="39.3466075" lon="16.5506364"><ele>1364.0</ele><time>2026-05-03T14:26:52.256Z</time></trkpt><trkpt lat="39.3465082" lon="16.5505361"><ele>1364.0</ele><time>2026-05-03T14:26:53.282Z</time></trkpt><trkpt lat="39.3464428" lon="16.5504867"><ele>1364.0</ele><time>2026-05-03T14:26:54.26Z</time></trkpt><trkpt lat="39.3463229" lon="16.5505292"><ele>1364.0</ele><time>2026-05-03T14:26:56.263Z</time></trkpt><trkpt lat="39.3462817" lon="16.5506201"><ele>1364.0</ele><time>2026-05-03T14:26:57.267Z</time></trkpt><trkpt lat="39.3462496" lon="16.5507169"><ele>1363.6</ele><time>2026-05-03T14:26:58.26Z</time></trkpt><trkpt lat="39.3462108" lon="16.5508024"><ele>1363.2</ele><time>2026-05-03T14:26:59.276Z</time></trkpt><trkpt lat="39.3461494" lon="16.5508748"><ele>1362.8</ele><time>2026-05-03T14:27:00.263Z</time></trkpt><trkpt lat="39.3460654" lon="16.5509494"><ele>1362.3999999999999</ele><time>2026-05-03T14:27:01.269Z</time></trkpt><trkpt lat="39.3459739" lon="16.5510228"><ele>1362.0</ele><time>2026-05-03T14:27:02.262Z</time></trkpt><trkpt lat="39.3458822" lon="16.5510978"><ele>1362.0</ele><time>2026-05-03T14:27:03.263Z</time></trkpt><trkpt lat="39.3457876" lon="16.5511711"><ele>1362.0</ele><time>2026-05-03T14:27:04.266Z</time></trkpt><trkpt lat="39.3456876" lon="16.5512443"><ele>1362.0</ele><time>2026-05-03T14:27:05.262Z</time></trkpt><trkpt lat="39.3455814" lon="16.551317"><ele>1362.0</ele><time>2026-05-03T14:27:06.261Z</time></trkpt><trkpt lat="39.3454861" lon="16.5513869"><ele>1363.8333333333333</ele><time>2026-05-03T14:27:07.299Z</time></trkpt><trkpt lat="39.345414" lon="16.5514494"><ele>1365.6666666666667</ele><time>2026-05-03T14:27:08.269Z</time></trkpt><trkpt lat="39.3453695" lon="16.5515256"><ele>1367.5</ele><time>2026-05-03T14:27:09.264Z</time></trkpt><trkpt lat="39.345354" lon="16.5516174"><ele>1369.3333333333335</ele><time>2026-05-03T14:27:10.264Z</time></trkpt><trkpt lat="39.3453682" lon="16.5517264"><ele>1371.1666666666667</ele><time>2026-05-03T14:27:11.267Z</time></trkpt><trkpt lat="39.3454067" lon="16.5518409"><ele>1373.0</ele><time>2026-05-03T14:27:12.264Z</time></trkpt><trkpt lat="39.3454707" lon="16.5519564"><ele>1373.5</ele><time>2026-05-03T14:27:13.269Z</time></trkpt><trkpt lat="39.3455397" lon="16.5520776"><ele>1374.0</ele><time>2026-05-03T14:27:14.269Z</time></trkpt><trkpt lat="39.3456159" lon="16.5521985"><ele>1374.5</ele><time>2026-05-03T14:27:15.271Z</time></trkpt><trkpt lat="39.3456957" lon="16.5523181"><ele>1375.0</ele><time>2026-05-03T14:27:16.285Z</time></trkpt><trkpt lat="39.3457664" lon="16.5524451"><ele>1371.75</ele><time>2026-05-03T14:27:17.261Z</time></trkpt><trkpt lat="39.3458275" lon="16.5525787"><ele>1368.5</ele><time>2026-05-03T14:27:18.262Z</time></trkpt><trkpt lat="39.3458652" lon="16.5527451"><ele>1365.25</ele><time>2026-05-03T14:27:19.26Z</time></trkpt><trkpt lat="39.3458968" lon="16.552921"><ele>1362.0</ele><time>2026-05-03T14:27:20.26Z</time></trkpt><trkpt lat="39.3459196" lon="16.5531061"><ele>1361.25</ele><time>2026-05-03T14:27:21.274Z</time></trkpt><trkpt lat="39.3459449" lon="16.5532827"><ele>1360.5</ele><time>2026-05-03T14:27:22.267Z</time></trkpt><trkpt lat="39.345959" lon="16.5534565"><ele>1359.75</ele><time>2026-05-03T14:27:23.261Z</time></trkpt><trkpt lat="39.3459399" lon="16.5536418"><ele>1359.0</ele><time>2026-05-03T14:27:24.262Z</time></trkpt><trkpt lat="39.3459125" lon="16.5538147"><ele>1357.5</ele><time>2026-05-03T14:27:25.26Z</time></trkpt><trkpt lat="39.3458721" lon="16.5539832"><ele>1356.0</ele><time>2026-05-03T14:27:26.264Z</time></trkpt><trkpt lat="39.3458299" lon="16.5541543"><ele>1354.5</ele><time>2026-05-03T14:27:27.264Z</time></trkpt><trkpt lat="39.3457855" lon="16.5543251"><ele>1353.0</ele><time>2026-05-03T14:27:28.264Z</time></trkpt><trkpt lat="39.345734" lon="16.5544895"><ele>1352.25</ele><time>2026-05-03T14:27:29.259Z</time></trkpt><trkpt lat="39.3456771" lon="16.5546436"><ele>1351.5</ele><time>2026-05-03T14:27:30.261Z</time></trkpt><trkpt lat="39.3456169" lon="16.5547864"><ele>1350.75</ele><time>2026-05-03T14:27:31.275Z</time></trkpt><trkpt lat="39.3455441" lon="16.5549187"><ele>1350.0</ele><time>2026-05-03T14:27:32.264Z</time></trkpt><trkpt lat="39.3454562" lon="16.5550366"><ele>1351.4</ele><time>2026-05-03T14:27:33.266Z</time></trkpt><trkpt lat="39.3453669" lon="16.5551307"><ele>1352.8</ele><time>2026-05-03T14:27:34.261Z</time></trkpt><trkpt lat="39.3452814" lon="16.5552064"><ele>1354.1999999999998</ele><time>2026-05-03T14:27:35.266Z</time></trkpt><trkpt lat="39.3452034" lon="16.5552715"><ele>1355.6</ele><time>2026-05-03T14:27:36.269Z</time></trkpt><trkpt lat="39.3451216" lon="16.5553225"><ele>1357.0</ele><time>2026-05-03T14:27:37.263Z</time></trkpt><trkpt lat="39.3450395" lon="16.5553628"><ele>1357.5</ele><time>2026-05-03T14:27:38.286Z</time></trkpt><trkpt lat="39.3449677" lon="16.5553997"><ele>1358.0</ele><time>2026-05-03T14:27:39.265Z</time></trkpt><trkpt lat="39.344904" lon="16.5554445"><ele>1358.5</ele><time>2026-05-03T14:27:40.264Z</time></trkpt><trkpt lat="39.3448495" lon="16.555508"><ele>1359.0</ele><time>2026-05-03T14:27:41.263Z</time></trkpt><trkpt lat="39.3447922" lon="16.5555752"><ele>1359.5</ele><time>2026-05-03T14:27:42.255Z</time></trkpt><trkpt lat="39.3447231" lon="16.5556699"><ele>1360.0</ele><time>2026-05-03T14:27:43.265Z</time></trkpt><trkpt lat="39.3446517" lon="16.5557602"><ele>1360.0</ele><time>2026-05-03T14:27:44.256Z</time></trkpt><trkpt lat="39.3445772" lon="16.5558487"><ele>1360.0</ele><time>2026-05-03T14:27:45.257Z</time></trkpt><trkpt lat="39.3444976" lon="16.5559409"><ele>1360.0</ele><time>2026-05-03T14:27:46.28Z</time></trkpt><trkpt lat="39.3444137" lon="16.5560367"><ele>1360.0</ele><time>2026-05-03T14:27:47.26Z</time></trkpt><trkpt lat="39.3443299" lon="16.5561293"><ele>1360.0</ele><time>2026-05-03T14:27:48.268Z</time></trkpt><trkpt lat="39.3442538" lon="16.5562153"><ele>1358.0</ele><time>2026-05-03T14:27:49.256Z</time></trkpt><trkpt lat="39.344179" lon="16.5563025"><ele>1356.0</ele><time>2026-05-03T14:27:50.257Z</time></trkpt><trkpt lat="39.3441068" lon="16.556394"><ele>1354.0</ele><time>2026-05-03T14:27:51.259Z</time></trkpt><trkpt lat="39.3440354" lon="16.5564883"><ele>1352.0</ele><time>2026-05-03T14:27:52.262Z</time></trkpt><trkpt lat="39.3439599" lon="16.5565862"><ele>1350.0</ele><time>2026-05-03T14:27:53.281Z</time></trkpt><trkpt lat="39.3438869" lon="16.5566805"><ele>1349.2</ele><time>2026-05-03T14:27:54.258Z</time></trkpt><trkpt lat="39.3438125" lon="16.5567781"><ele>1348.4</ele><time>2026-05-03T14:27:55.266Z</time></trkpt><trkpt lat="39.3437438" lon="16.5568816"><ele>1347.6</ele><time>2026-05-03T14:27:56.256Z</time></trkpt><trkpt lat="39.3436848" lon="16.5569939"><ele>1346.8</ele><time>2026-05-03T14:27:57.257Z</time></trkpt><trkpt lat="39.3436196" lon="16.5571038"><ele>1346.0</ele><time>2026-05-03T14:27:58.257Z</time></trkpt><trkpt lat="39.3435461" lon="16.5571902"><ele>1346.0</ele><time>2026-05-03T14:27:59.27Z</time></trkpt><trkpt lat="39.3434777" lon="16.5572424"><ele>1346.0</ele><time>2026-05-03T14:28:00.262Z</time></trkpt><trkpt lat="39.343392" lon="16.5573114"><ele>1346.0</ele><time>2026-05-03T14:28:02.258Z</time></trkpt><trkpt lat="39.343325" lon="16.5574855"><ele>1346.0</ele><time>2026-05-03T14:28:04.264Z</time></trkpt><trkpt lat="39.3432862" lon="16.5576018"><ele>1346.0</ele><time>2026-05-03T14:28:05.264Z</time></trkpt><trkpt lat="39.3432518" lon="16.5577312"><ele>1346.0</ele><time>2026-05-03T14:28:06.283Z</time></trkpt><trkpt lat="39.3432184" lon="16.5578654"><ele>1346.0</ele><time>2026-05-03T14:28:07.272Z</time></trkpt><trkpt lat="39.3431848" lon="16.5579963"><ele>1346.0</ele><time>2026-05-03T14:28:08.267Z</time></trkpt><trkpt lat="39.3431477" lon="16.5581162"><ele>1346.0</ele><time>2026-05-03T14:28:09.261Z</time></trkpt><trkpt lat="39.3431029" lon="16.5582226"><ele>1346.0</ele><time>2026-05-03T14:28:10.264Z</time></trkpt><trkpt lat="39.3430499" lon="16.5583154"><ele>1348.8</ele><time>2026-05-03T14:28:11.256Z</time></trkpt><trkpt lat="39.3429974" lon="16.558407"><ele>1351.6</ele><time>2026-05-03T14:28:12.269Z</time></trkpt><trkpt lat="39.3429532" lon="16.5585031"><ele>1354.4</ele><time>2026-05-03T14:28:13.258Z</time></trkpt><trkpt lat="39.3429268" lon="16.5586209"><ele>1357.2</ele><time>2026-05-03T14:28:14.257Z</time></trkpt><trkpt lat="39.3429215" lon="16.558752"><ele>1360.0</ele><time>2026-05-03T14:28:15.256Z</time></trkpt><trkpt lat="39.3429197" lon="16.5588724"><ele>1360.6666666666665</ele><time>2026-05-03T14:28:16.257Z</time></trkpt><trkpt lat="39.342921" lon="16.5589897"><ele>1361.3333333333333</ele><time>2026-05-03T14:28:17.261Z</time></trkpt><trkpt lat="39.3429318" lon="16.5590941"><ele>1362.0</ele><time>2026-05-03T14:28:18.261Z</time></trkpt><trkpt lat="39.3429468" lon="16.5591865"><ele>1362.6666666666667</ele><time>2026-05-03T14:28:19.273Z</time></trkpt><trkpt lat="39.3429719" lon="16.5592946"><ele>1363.3333333333335</ele><time>2026-05-03T14:28:20.262Z</time></trkpt><trkpt lat="39.3429885" lon="16.5593877"><ele>1364.0</ele><time>2026-05-03T14:28:21.264Z</time></trkpt><trkpt lat="39.3429967" lon="16.5594807"><ele>1363.6666666666667</ele><time>2026-05-03T14:28:22.26Z</time></trkpt><trkpt lat="39.3430024" lon="16.5595702"><ele>1363.3333333333335</ele><time>2026-05-03T14:28:23.269Z</time></trkpt><trkpt lat="39.343027" lon="16.5596831"><ele>1363.0</ele><time>2026-05-03T14:28:25.275Z</time></trkpt><trkpt lat="39.3430645" lon="16.559762"><ele>1362.6666666666667</ele><time>2026-05-03T14:28:27.284Z</time></trkpt><trkpt lat="39.3431571" lon="16.5598433"><ele>1362.3333333333333</ele><time>2026-05-03T14:28:34.266Z</time></trkpt><trkpt lat="39.3431985" lon="16.5599663"><ele>1362.0</ele><time>2026-05-03T14:28:36.306Z</time></trkpt><trkpt lat="39.3432188" lon="16.5600896"><ele>1358.5</ele><time>2026-05-03T14:28:38.285Z</time></trkpt><trkpt lat="39.3432283" lon="16.5601943"><ele>1355.0</ele><time>2026-05-03T14:28:44.262Z</time></trkpt><trkpt lat="39.3431923" lon="16.5602681"><ele>1351.5</ele><time>2026-05-03T14:28:47.259Z</time></trkpt><trkpt lat="39.3432014" lon="16.560367"><ele>1348.0</ele><time>2026-05-03T14:28:54.268Z</time></trkpt><trkpt lat="39.3432019" lon="16.5604813"><ele>1344.5</ele><time>2026-05-03T14:28:57.264Z</time></trkpt><trkpt lat="39.3431911" lon="16.560572"><ele>1341.0</ele><time>2026-05-03T14:29:00.26Z</time></trkpt><trkpt lat="39.3432251" lon="16.5606721"><ele>1340.6666666666667</ele><time>2026-05-03T14:29:04.269Z</time></trkpt><trkpt lat="39.3432724" lon="16.5607643"><ele>1340.3333333333333</ele><time>2026-05-03T14:29:12.261Z</time></trkpt><trkpt lat="39.3432681" lon="16.560882"><ele>1340.0</ele><time>2026-05-03T14:29:15.262Z</time></trkpt><trkpt lat="39.343237" lon="16.5609872"><ele>1339.6666666666665</ele><time>2026-05-03T14:29:18.262Z</time></trkpt><trkpt lat="39.3432081" lon="16.5610836"><ele>1339.3333333333333</ele><time>2026-05-03T14:29:21.267Z</time></trkpt><trkpt lat="39.3432046" lon="16.5611695"><ele>1339.0</ele><time>2026-05-03T14:29:26.268Z</time></trkpt><trkpt lat="39.3431449" lon="16.5613396"><ele>1339.0</ele><time>2026-05-03T14:29:29.273Z</time></trkpt><trkpt lat="39.3431009" lon="16.5614491"><ele>1339.0</ele><time>2026-05-03T14:29:30.264Z</time></trkpt><trkpt lat="39.3430346" lon="16.5615552"><ele>1339.0</ele><time>2026-05-03T14:29:31.279Z</time></trkpt><trkpt lat="39.3429519" lon="16.561644"><ele>1339.0</ele><time>2026-05-03T14:29:32.274Z</time></trkpt><trkpt lat="39.3428783" lon="16.5617151"><ele>1339.0</ele><time>2026-05-03T14:29:33.267Z</time></trkpt><trkpt lat="39.3428182" lon="16.5617804"><ele>1339.0</ele><time>2026-05-03T14:29:34.261Z</time></trkpt><trkpt lat="39.3427606" lon="16.5618348"><ele>1339.0</ele><time>2026-05-03T14:29:35.261Z</time></trkpt><trkpt lat="39.3427029" lon="16.561876"><ele>1339.0</ele><time>2026-05-03T14:29:36.272Z</time></trkpt><trkpt lat="39.3426015" lon="16.5619279"><ele>1339.0</ele><time>2026-05-03T14:29:38.295Z</time></trkpt><trkpt lat="39.3425404" lon="16.5619573"><ele>1339.0</ele><time>2026-05-03T14:29:40.26Z</time></trkpt><trkpt lat="39.342491" lon="16.5620138"><ele>1339.0</ele><time>2026-05-03T14:29:46.263Z</time></trkpt><trkpt lat="39.3424399" lon="16.5620696"><ele>1339.0</ele><time>2026-05-03T14:29:48.279Z</time></trkpt><trkpt lat="39.3423719" lon="16.5621113"><ele>1339.0</ele><time>2026-05-03T14:29:50.26Z</time></trkpt><trkpt lat="39.3423069" lon="16.562139"><ele>1339.0</ele><time>2026-05-03T14:29:52.26Z</time></trkpt><trkpt lat="39.3422448" lon="16.5621534"><ele>1339.0</ele><time>2026-05-03T14:29:55.265Z</time></trkpt><trkpt lat="39.3421723" lon="16.5621035"><ele>1339.0</ele><time>2026-05-03T14:29:58.266Z</time></trkpt><trkpt lat="39.3421202" lon="16.5620416"><ele>1339.0</ele><time>2026-05-03T14:30:05.268Z</time></trkpt><trkpt lat="39.3421486" lon="16.5619615"><ele>1339.0</ele><time>2026-05-03T14:30:13.31Z</time></trkpt><trkpt lat="39.3421302" lon="16.5618752"><ele>1339.0</ele><time>2026-05-03T14:30:16.294Z</time></trkpt><trkpt lat="39.3420526" lon="16.5618671"><ele>1343.8333333333333</ele><time>2026-05-03T14:30:38.263Z</time></trkpt><trkpt lat="39.3420083" lon="16.5617797"><ele>1348.6666666666665</ele><time>2026-05-03T14:30:41.261Z</time></trkpt><trkpt lat="39.3419568" lon="16.5617135"><ele>1353.5</ele><time>2026-05-03T14:30:43.261Z</time></trkpt><trkpt lat="39.3418574" lon="16.5617412"><ele>1358.3333333333333</ele><time>2026-05-03T14:30:45.257Z</time></trkpt><trkpt lat="39.3417968" lon="16.5617657"><ele>1363.1666666666667</ele><time>2026-05-03T14:30:46.262Z</time></trkpt><trkpt lat="39.3416836" lon="16.5618309"><ele>1368.0</ele><time>2026-05-03T14:30:48.262Z</time></trkpt><trkpt lat="39.3415995" lon="16.5618924"><ele>1367.9999999999998</ele><time>2026-05-03T14:30:50.288Z</time></trkpt><trkpt lat="39.341536" lon="16.5619363"><ele>1368.0</ele><time>2026-05-03T14:30:52.272Z</time></trkpt><trkpt lat="39.3414698" lon="16.561978"><ele>1368.0</ele><time>2026-05-03T14:30:54.267Z</time></trkpt><trkpt lat="39.341404" lon="16.5620569"><ele>1368.0</ele><time>2026-05-03T14:30:56.262Z</time></trkpt><trkpt lat="39.3413461" lon="16.562112"><ele>1368.0</ele><time>2026-05-03T14:31:00.264Z</time></trkpt><trkpt lat="39.341281" lon="16.5621103"><ele>1367.9999999999998</ele><time>2026-05-03T14:31:03.349Z</time></trkpt><trkpt lat="39.3412417" lon="16.5620268"><ele>1368.0</ele><time>2026-05-03T14:31:07.269Z</time></trkpt><trkpt lat="39.341229" lon="16.5619423"><ele>1367.8000000000002</ele><time>2026-05-03T14:31:09.264Z</time></trkpt><trkpt lat="39.3411942" lon="16.5618432"><ele>1367.6</ele><time>2026-05-03T14:31:11.27Z</time></trkpt><trkpt lat="39.3411548" lon="16.5616162"><ele>1367.4</ele><time>2026-05-03T14:31:14.267Z</time></trkpt><trkpt lat="39.3411474" lon="16.5614942"><ele>1367.1999999999998</ele><time>2026-05-03T14:31:15.268Z</time></trkpt><trkpt lat="39.3411458" lon="16.5614029"><ele>1367.0</ele><time>2026-05-03T14:31:16.263Z</time></trkpt><trkpt lat="39.3411213" lon="16.5612737"><ele>1368.3333333333335</ele><time>2026-05-03T14:31:18.265Z</time></trkpt><trkpt lat="39.3410979" lon="16.5611654"><ele>1369.6666666666667</ele><time>2026-05-03T14:31:25.287Z</time></trkpt><trkpt lat="39.3410989" lon="16.5610811"><ele>1371.0</ele><time>2026-05-03T14:31:26.27Z</time></trkpt><trkpt lat="39.3411125" lon="16.5609779"><ele>1372.3333333333333</ele><time>2026-05-03T14:31:27.274Z</time></trkpt><trkpt lat="39.3411272" lon="16.5608578"><ele>1373.6666666666665</ele><time>2026-05-03T14:31:28.267Z</time></trkpt><trkpt lat="39.341139" lon="16.5607278"><ele>1375.0</ele><time>2026-05-03T14:31:29.268Z</time></trkpt><trkpt lat="39.3411257" lon="16.5605904"><ele>1375.0</ele><time>2026-05-03T14:31:30.272Z</time></trkpt><trkpt lat="39.3411104" lon="16.560446"><ele>1375.0</ele><time>2026-05-03T14:31:31.274Z</time></trkpt><trkpt lat="39.3411074" lon="16.5603195"><ele>1375.0</ele><time>2026-05-03T14:31:32.275Z</time></trkpt><trkpt lat="39.3411075" lon="16.5602088"><ele>1375.0</ele><time>2026-05-03T14:31:33.267Z</time></trkpt><trkpt lat="39.34111" lon="16.5601025"><ele>1375.0</ele><time>2026-05-03T14:31:34.279Z</time></trkpt><trkpt lat="39.341113" lon="16.5599775"><ele>1376.6</ele><time>2026-05-03T14:31:35.265Z</time></trkpt><trkpt lat="39.3411308" lon="16.5598671"><ele>1378.2</ele><time>2026-05-03T14:31:36.265Z</time></trkpt><trkpt lat="39.3411636" lon="16.5597489"><ele>1379.8000000000002</ele><time>2026-05-03T14:31:38.274Z</time></trkpt><trkpt lat="39.3411489" lon="16.55987"><ele>1381.4</ele><time>2026-05-03T14:31:44.272Z</time></trkpt><trkpt lat="39.3411279" lon="16.5599663"><ele>1383.0</ele><time>2026-05-03T14:31:45.296Z</time></trkpt><trkpt lat="39.3411042" lon="16.5601027"><ele>1383.0</ele><time>2026-05-03T14:31:47.292Z</time></trkpt><trkpt lat="39.3410831" lon="16.5602256"><ele>1383.0</ele><time>2026-05-03T14:31:49.283Z</time></trkpt><trkpt lat="39.3410704" lon="16.5603883"><ele>1383.0</ele><time>2026-05-03T14:31:51.283Z</time></trkpt><trkpt lat="39.3410652" lon="16.560485"><ele>1383.0</ele><time>2026-05-03T14:31:52.27Z</time></trkpt><trkpt lat="39.3410627" lon="16.560599"><ele>1383.0</ele><time>2026-05-03T14:31:53.277Z</time></trkpt><trkpt lat="39.3410697" lon="16.5607148"><ele>1381.857142857143</ele><time>2026-05-03T14:31:54.282Z</time></trkpt><trkpt lat="39.3410607" lon="16.5608107"><ele>1380.7142857142858</ele><time>2026-05-03T14:31:55.274Z</time></trkpt><trkpt lat="39.3410376" lon="16.5608994"><ele>1379.5714285714284</ele><time>2026-05-03T14:31:56.286Z</time></trkpt><trkpt lat="39.3410181" lon="16.5609892"><ele>1378.4285714285716</ele><time>2026-05-03T14:31:57.271Z</time></trkpt><trkpt lat="39.3410085" lon="16.5610757"><ele>1377.2857142857142</ele><time>2026-05-03T14:31:58.275Z</time></trkpt><trkpt lat="39.3410151" lon="16.5611583"><ele>1376.142857142857</ele><time>2026-05-03T14:31:59.273Z</time></trkpt><trkpt lat="39.3410309" lon="16.5612439"><ele>1375.0</ele><time>2026-05-03T14:32:00.27Z</time></trkpt><trkpt lat="39.3410492" lon="16.5613338"><ele>1373.6666666666665</ele><time>2026-05-03T14:32:01.28Z</time></trkpt><trkpt lat="39.3410633" lon="16.5614192"><ele>1372.3333333333333</ele><time>2026-05-03T14:32:02.274Z</time></trkpt><trkpt lat="39.3410721" lon="16.5615089"><ele>1371.0</ele><time>2026-05-03T14:32:03.273Z</time></trkpt><trkpt lat="39.3410756" lon="16.5615992"><ele>1369.6666666666667</ele><time>2026-05-03T14:32:04.282Z</time></trkpt><trkpt lat="39.3410788" lon="16.5616854"><ele>1368.3333333333335</ele><time>2026-05-03T14:32:05.271Z</time></trkpt><trkpt lat="39.3411259" lon="16.5618309"><ele>1367.0</ele><time>2026-05-03T14:32:07.269Z</time></trkpt><trkpt lat="39.3411621" lon="16.5619145"><ele>1367.0</ele><time>2026-05-03T14:32:08.283Z</time></trkpt><trkpt lat="39.3411877" lon="16.562008"><ele>1367.0</ele><time>2026-05-03T14:32:09.264Z</time></trkpt><trkpt lat="39.3412095" lon="16.5621082"><ele>1367.0</ele><time>2026-05-03T14:32:10.273Z</time></trkpt><trkpt lat="39.3412345" lon="16.5622138"><ele>1367.0</ele><time>2026-05-03T14:32:11.269Z</time></trkpt><trkpt lat="39.3412649" lon="16.5622981"><ele>1367.0</ele><time>2026-05-03T14:32:12.279Z</time></trkpt><trkpt lat="39.341312" lon="16.5623695"><ele>1367.0</ele><time>2026-05-03T14:32:17.276Z</time></trkpt><trkpt lat="39.3413735" lon="16.5624426"><ele>1366.6666666666667</ele><time>2026-05-03T14:32:19.272Z</time></trkpt><trkpt lat="39.3414419" lon="16.5625349"><ele>1366.3333333333335</ele><time>2026-05-03T14:32:21.278Z</time></trkpt><trkpt lat="39.3414115" lon="16.5626114"><ele>1366.0</ele><time>2026-05-03T14:33:28.284Z</time></trkpt><trkpt lat="39.3413424" lon="16.5626574"><ele>1365.6666666666667</ele><time>2026-05-03T14:34:15.28Z</time></trkpt><trkpt lat="39.3412804" lon="16.5626857"><ele>1365.3333333333333</ele><time>2026-05-03T14:34:17.27Z</time></trkpt><trkpt lat="39.3412076" lon="16.5627233"><ele>1365.0</ele><time>2026-05-03T14:34:19.269Z</time></trkpt><trkpt lat="39.3411219" lon="16.5627997"><ele>1363.857142857143</ele><time>2026-05-03T14:34:32.284Z</time></trkpt><trkpt lat="39.3410582" lon="16.5628426"><ele>1362.7142857142858</ele><time>2026-05-03T14:34:39.277Z</time></trkpt><trkpt lat="39.3410056" lon="16.5628878"><ele>1361.5714285714284</ele><time>2026-05-03T14:34:43.277Z</time></trkpt><trkpt lat="39.3409373" lon="16.5629386"><ele>1360.4285714285716</ele><time>2026-05-03T14:34:48.28Z</time></trkpt><trkpt lat="39.3408834" lon="16.5629814"><ele>1359.2857142857142</ele><time>2026-05-03T14:34:52.272Z</time></trkpt><trkpt lat="39.3408168" lon="16.563021"><ele>1358.142857142857</ele><time>2026-05-03T14:34:56.268Z</time></trkpt><trkpt lat="39.3407466" lon="16.5630672"><ele>1357.0</ele><time>2026-05-03T14:35:00.275Z</time></trkpt><trkpt lat="39.3406946" lon="16.5631198"><ele>1354.8333333333333</ele><time>2026-05-03T14:35:04.265Z</time></trkpt><trkpt lat="39.3406123" lon="16.5631425"><ele>1352.6666666666665</ele><time>2026-05-03T14:35:07.277Z</time></trkpt><trkpt lat="39.3405346" lon="16.5631829"><ele>1350.5</ele><time>2026-05-03T14:35:10.268Z</time></trkpt><trkpt lat="39.3404673" lon="16.5632758"><ele>1348.3333333333333</ele><time>2026-05-03T14:35:21.283Z</time></trkpt><trkpt lat="39.3404742" lon="16.5633872"><ele>1346.1666666666667</ele><time>2026-05-03T14:35:25.27Z</time></trkpt><trkpt lat="39.3404594" lon="16.5634709"><ele>1344.0</ele><time>2026-05-03T14:35:38.279Z</time></trkpt><trkpt lat="39.3405273" lon="16.5634534"><ele>1344.0</ele><time>2026-05-03T14:35:51.27Z</time></trkpt><trkpt lat="39.3405986" lon="16.5634015"><ele>1344.0</ele><time>2026-05-03T14:35:54.284Z</time></trkpt><trkpt lat="39.3406628" lon="16.5633499"><ele>1344.0</ele><time>2026-05-03T14:35:57.278Z</time></trkpt><trkpt lat="39.3407225" lon="16.5633154"><ele>1344.0</ele><time>2026-05-03T14:35:59.269Z</time></trkpt><trkpt lat="39.3407736" lon="16.5632217"><ele>1344.0</ele><time>2026-05-03T14:36:02.278Z</time></trkpt><trkpt lat="39.3408187" lon="16.5631253"><ele>1344.0</ele><time>2026-05-03T14:36:05.268Z</time></trkpt><trkpt lat="39.3408725" lon="16.5630443"><ele>1344.0</ele><time>2026-05-03T14:36:08.281Z</time></trkpt><trkpt lat="39.3409481" lon="16.562988"><ele>1344.0</ele><time>2026-05-03T14:36:11.316Z</time></trkpt><trkpt lat="39.3410105" lon="16.5629119"><ele>1344.0</ele><time>2026-05-03T14:36:14.274Z</time></trkpt><trkpt lat="39.3410736" lon="16.5628396"><ele>1344.0</ele><time>2026-05-03T14:36:19.334Z</time></trkpt><trkpt lat="39.3410598" lon="16.5627402"><ele>1344.0</ele><time>2026-05-03T14:36:21.287Z</time></trkpt><trkpt lat="39.3410283" lon="16.5626559"><ele>1344.0</ele><time>2026-05-03T14:36:22.268Z</time></trkpt><trkpt lat="39.3409871" lon="16.562538"><ele>1345.857142857143</ele><time>2026-05-03T14:36:23.301Z</time></trkpt><trkpt lat="39.3409538" lon="16.5624516"><ele>1347.7142857142858</ele><time>2026-05-03T14:36:24.281Z</time></trkpt><trkpt lat="39.3409163" lon="16.5623696"><ele>1349.5714285714284</ele><time>2026-05-03T14:36:25.272Z</time></trkpt><trkpt lat="39.340873" lon="16.5623024"><ele>1351.4285714285716</ele><time>2026-05-03T14:36:26.273Z</time></trkpt><trkpt lat="39.3408244" lon="16.5622391"><ele>1353.2857142857142</ele><time>2026-05-03T14:36:27.269Z</time></trkpt><trkpt lat="39.3407714" lon="16.562173"><ele>1355.142857142857</ele><time>2026-05-03T14:36:28.275Z</time></trkpt><trkpt lat="39.340723" lon="16.5621156"><ele>1357.0</ele><time>2026-05-03T14:36:29.271Z</time></trkpt><trkpt lat="39.3406444" lon="16.5620132"><ele>1358.6666666666665</ele><time>2026-05-03T14:36:31.272Z</time></trkpt><trkpt lat="39.3405754" lon="16.5619232"><ele>1360.3333333333333</ele><time>2026-05-03T14:36:33.276Z</time></trkpt><trkpt lat="39.3405233" lon="16.5618267"><ele>1362.0</ele><time>2026-05-03T14:36:35.273Z</time></trkpt><trkpt lat="39.3404731" lon="16.5617283"><ele>1363.6666666666667</ele><time>2026-05-03T14:36:37.292Z</time></trkpt><trkpt lat="39.340421" lon="16.5616255"><ele>1365.3333333333335</ele><time>2026-05-03T14:36:39.272Z</time></trkpt><trkpt lat="39.3403778" lon="16.5615564"><ele>1367.0</ele><time>2026-05-03T14:36:41.269Z</time></trkpt><trkpt lat="39.3403312" lon="16.5614795"><ele>1363.0</ele><time>2026-05-03T14:36:47.279Z</time></trkpt><trkpt lat="39.3402569" lon="16.5612919"><ele>1359.0</ele><time>2026-05-03T14:40:31.261Z</time></trkpt><trkpt lat="39.3402173" lon="16.5612155"><ele>1355.0</ele><time>2026-05-03T14:40:34.258Z</time></trkpt><trkpt lat="39.3401754" lon="16.5611185"><ele>1351.0</ele><time>2026-05-03T14:40:36.264Z</time></trkpt><trkpt lat="39.3401189" lon="16.5610186"><ele>1347.0</ele><time>2026-05-03T14:40:38.26Z</time></trkpt><trkpt lat="39.3400505" lon="16.560928"><ele>1347.0</ele><time>2026-05-03T14:40:40.263Z</time></trkpt><trkpt lat="39.3400037" lon="16.5608277"><ele>1347.0</ele><time>2026-05-03T14:40:42.263Z</time></trkpt><trkpt lat="39.3399561" lon="16.560748"><ele>1347.0</ele><time>2026-05-03T14:40:44.265Z</time></trkpt><trkpt lat="39.3399038" lon="16.5606908"><ele>1347.0</ele><time>2026-05-03T14:40:46.261Z</time></trkpt><trkpt lat="39.3398406" lon="16.5607074"><ele>1347.0</ele><time>2026-05-03T14:40:53.27Z</time></trkpt><trkpt lat="39.3398018" lon="16.5607766"><ele>1347.0</ele><time>2026-05-03T14:40:56.272Z</time></trkpt><trkpt lat="39.3397246" lon="16.5608265"><ele>1343.9999999999998</ele><time>2026-05-03T14:40:58.257Z</time></trkpt><trkpt lat="39.3396634" lon="16.5608758"><ele>1341.0</ele><time>2026-05-03T14:41:00.266Z</time></trkpt><trkpt lat="39.3396268" lon="16.5609536"><ele>1338.0</ele><time>2026-05-03T14:41:03.265Z</time></trkpt><trkpt lat="39.3395589" lon="16.5609957"><ele>1335.0</ele><time>2026-05-03T14:41:06.261Z</time></trkpt><trkpt lat="39.3394901" lon="16.5610243"><ele>1332.0</ele><time>2026-05-03T14:41:08.269Z</time></trkpt><trkpt lat="39.3394149" lon="16.5610652"><ele>1328.9999999999998</ele><time>2026-05-03T14:41:10.278Z</time></trkpt><trkpt lat="39.339349" lon="16.5611013"><ele>1326.0</ele><time>2026-05-03T14:41:13.261Z</time></trkpt><trkpt lat="39.3392828" lon="16.5611405"><ele>1323.8333333333333</ele><time>2026-05-03T14:41:18.258Z</time></trkpt><trkpt lat="39.3392412" lon="16.5612147"><ele>1321.6666666666667</ele><time>2026-05-03T14:41:22.276Z</time></trkpt><trkpt lat="39.3392747" lon="16.5613162"><ele>1319.5</ele><time>2026-05-03T14:41:24.257Z</time></trkpt><trkpt lat="39.3393177" lon="16.5613897"><ele>1317.3333333333335</ele><time>2026-05-03T14:41:25.264Z</time></trkpt><trkpt lat="39.3393755" lon="16.5614784"><ele>1315.1666666666667</ele><time>2026-05-03T14:41:26.263Z</time></trkpt><trkpt lat="39.3394354" lon="16.5615627"><ele>1313.0</ele><time>2026-05-03T14:41:27.268Z</time></trkpt><trkpt lat="39.3394924" lon="16.5616461"><ele>1313.0</ele><time>2026-05-03T14:41:28.263Z</time></trkpt><trkpt lat="39.3395375" lon="16.5617321"><ele>1313.0</ele><time>2026-05-03T14:41:29.264Z</time></trkpt><trkpt lat="39.339568" lon="16.5618676"><ele>1313.0</ele><time>2026-05-03T14:41:31.282Z</time></trkpt><trkpt lat="39.3395631" lon="16.5619891"><ele>1313.0</ele><time>2026-05-03T14:41:33.261Z</time></trkpt><trkpt lat="39.3395694" lon="16.5620873"><ele>1313.0</ele><time>2026-05-03T14:41:35.264Z</time></trkpt><trkpt lat="39.3396011" lon="16.5621791"><ele>1313.0</ele><time>2026-05-03T14:41:38.265Z</time></trkpt><trkpt lat="39.3396534" lon="16.5622758"><ele>1312.6666666666667</ele><time>2026-05-03T14:41:48.266Z</time></trkpt><trkpt lat="39.3397132" lon="16.5623504"><ele>1312.3333333333335</ele><time>2026-05-03T14:41:50.263Z</time></trkpt><trkpt lat="39.3397983" lon="16.5624287"><ele>1312.0</ele><time>2026-05-03T14:41:52.266Z</time></trkpt><trkpt lat="39.3398564" lon="16.5624648"><ele>1311.6666666666667</ele><time>2026-05-03T14:41:53.264Z</time></trkpt><trkpt lat="39.3399107" lon="16.5625075"><ele>1311.3333333333333</ele><time>2026-05-03T14:41:54.255Z</time></trkpt><trkpt lat="39.3399737" lon="16.5625682"><ele>1311.0</ele><time>2026-05-03T14:41:55.26Z</time></trkpt><trkpt lat="39.3400159" lon="16.5626391"><ele>1312.4</ele><time>2026-05-03T14:41:56.26Z</time></trkpt><trkpt lat="39.3400483" lon="16.5627091"><ele>1313.8</ele><time>2026-05-03T14:41:57.266Z</time></trkpt><trkpt lat="39.3401048" lon="16.5628446"><ele>1315.2</ele><time>2026-05-03T14:41:59.261Z</time></trkpt><trkpt lat="39.3401452" lon="16.5629787"><ele>1316.6000000000001</ele><time>2026-05-03T14:42:01.288Z</time></trkpt><trkpt lat="39.3401752" lon="16.5630984"><ele>1318.0</ele><time>2026-05-03T14:42:03.261Z</time></trkpt><trkpt lat="39.3401878" lon="16.5631932"><ele>1318.0</ele><time>2026-05-03T14:42:05.264Z</time></trkpt><trkpt lat="39.340182" lon="16.5633022"><ele>1318.0</ele><time>2026-05-03T14:42:09.267Z</time></trkpt><trkpt lat="39.3401748" lon="16.5633966"><ele>1318.0</ele><time>2026-05-03T14:42:11.284Z</time></trkpt><trkpt lat="39.3401519" lon="16.5635361"><ele>1318.0</ele><time>2026-05-03T14:42:13.26Z</time></trkpt><trkpt lat="39.3401272" lon="16.5636998"><ele>1318.0</ele><time>2026-05-03T14:42:15.266Z</time></trkpt><trkpt lat="39.3401208" lon="16.5637858"><ele>1318.142857142857</ele><time>2026-05-03T14:42:16.291Z</time></trkpt><trkpt lat="39.3401232" lon="16.5638768"><ele>1318.2857142857142</ele><time>2026-05-03T14:42:17.26Z</time></trkpt><trkpt lat="39.3401281" lon="16.5639646"><ele>1318.4285714285713</ele><time>2026-05-03T14:42:18.26Z</time></trkpt><trkpt lat="39.3401308" lon="16.5640496"><ele>1318.5714285714284</ele><time>2026-05-03T14:42:19.264Z</time></trkpt><trkpt lat="39.3401448" lon="16.5641329"><ele>1318.7142857142858</ele><time>2026-05-03T14:42:20.26Z</time></trkpt><trkpt lat="39.3401756" lon="16.5642201"><ele>1318.8571428571427</ele><time>2026-05-03T14:42:21.282Z</time></trkpt><trkpt lat="39.340223" lon="16.564298"><ele>1319.0</ele><time>2026-05-03T14:42:22.267Z</time></trkpt><trkpt lat="39.3402784" lon="16.5643588"><ele>1319.0</ele><time>2026-05-03T14:42:23.283Z</time></trkpt><trkpt lat="39.3403323" lon="16.5644195"><ele>1319.0</ele><time>2026-05-03T14:42:24.261Z</time></trkpt><trkpt lat="39.3404036" lon="16.5644419"><ele>1319.0</ele><time>2026-05-03T14:42:25.262Z</time></trkpt><trkpt lat="39.3404777" lon="16.5644501"><ele>1319.0</ele><time>2026-05-03T14:42:26.265Z</time></trkpt><trkpt lat="39.3405573" lon="16.5644361"><ele>1319.0</ele><time>2026-05-03T14:42:27.263Z</time></trkpt><trkpt lat="39.3406303" lon="16.5644034"><ele>1319.0</ele><time>2026-05-03T14:42:28.259Z</time></trkpt><trkpt lat="39.3407046" lon="16.5643656"><ele>1320.3333333333335</ele><time>2026-05-03T14:42:29.256Z</time></trkpt><trkpt lat="39.3407744" lon="16.5643082"><ele>1321.6666666666667</ele><time>2026-05-03T14:42:30.254Z</time></trkpt><trkpt lat="39.340852" lon="16.5642615"><ele>1323.0</ele><time>2026-05-03T14:42:31.263Z</time></trkpt><trkpt lat="39.3409269" lon="16.5642317"><ele>1324.3333333333333</ele><time>2026-05-03T14:42:32.262Z</time></trkpt><trkpt lat="39.3410066" lon="16.5642138"><ele>1325.6666666666665</ele><time>2026-05-03T14:42:33.278Z</time></trkpt><trkpt lat="39.341095" lon="16.5641955"><ele>1327.0</ele><time>2026-05-03T14:42:34.264Z</time></trkpt><trkpt lat="39.3411775" lon="16.5642098"><ele>1327.0</ele><time>2026-05-03T14:42:35.265Z</time></trkpt><trkpt lat="39.3412534" lon="16.5642376"><ele>1327.0</ele><time>2026-05-03T14:42:36.268Z</time></trkpt><trkpt lat="39.3413177" lon="16.5642603"><ele>1327.0</ele><time>2026-05-03T14:42:37.259Z</time></trkpt><trkpt lat="39.3414149" lon="16.5643035"><ele>1327.0</ele><time>2026-05-03T14:42:39.261Z</time></trkpt><trkpt lat="39.3414911" lon="16.5643815"><ele>1327.0</ele><time>2026-05-03T14:42:41.268Z</time></trkpt><trkpt lat="39.3415441" lon="16.5644967"><ele>1327.0</ele><time>2026-05-03T14:43:20.29Z</time></trkpt><trkpt lat="39.3416048" lon="16.5645524"><ele>1324.5</ele><time>2026-05-03T14:43:26.28Z</time></trkpt><trkpt lat="39.34166" lon="16.5646138"><ele>1322.0</ele><time>2026-05-03T14:44:03.281Z</time></trkpt><trkpt lat="39.3417206" lon="16.5646567"><ele>1319.5</ele><time>2026-05-03T14:44:06.271Z</time></trkpt><trkpt lat="39.3418176" lon="16.5646735"><ele>1317.0</ele><time>2026-05-03T14:44:08.275Z</time></trkpt><trkpt lat="39.3418893" lon="16.5646904"><ele>1314.5</ele><time>2026-05-03T14:44:09.274Z</time></trkpt><trkpt lat="39.3419951" lon="16.5646977"><ele>1312.0</ele><time>2026-05-03T14:44:11.269Z</time></trkpt><trkpt lat="39.342065" lon="16.564728"><ele>1312.0</ele><time>2026-05-03T14:44:13.276Z</time></trkpt><trkpt lat="39.3421013" lon="16.5648587"><ele>1312.0</ele><time>2026-05-03T14:44:15.272Z</time></trkpt><trkpt lat="39.3420603" lon="16.5649219"><ele>1312.0</ele><time>2026-05-03T14:44:16.271Z</time></trkpt><trkpt lat="39.3420152" lon="16.5649819"><ele>1312.0</ele><time>2026-05-03T14:44:17.265Z</time></trkpt><trkpt lat="39.3419707" lon="16.5650539"><ele>1312.0</ele><time>2026-05-03T14:44:18.27Z</time></trkpt><trkpt lat="39.3419442" lon="16.5651374"><ele>1312.0</ele><time>2026-05-03T14:44:19.276Z</time></trkpt><trkpt lat="39.341917" lon="16.565232"><ele>1312.0</ele><time>2026-05-03T14:44:20.265Z</time></trkpt><trkpt lat="39.341885" lon="16.5653193"><ele>1312.0</ele><time>2026-05-03T14:44:21.279Z</time></trkpt><trkpt lat="39.3418689" lon="16.5654183"><ele>1312.0</ele><time>2026-05-03T14:44:22.269Z</time></trkpt><trkpt lat="39.3418511" lon="16.5655221"><ele>1312.0</ele><time>2026-05-03T14:44:23.267Z</time></trkpt><trkpt lat="39.3418349" lon="16.5656179"><ele>1312.0</ele><time>2026-05-03T14:44:24.286Z</time></trkpt><trkpt lat="39.3418172" lon="16.5657137"><ele>1312.0</ele><time>2026-05-03T14:44:25.273Z</time></trkpt><trkpt lat="39.3417931" lon="16.5658084"><ele>1312.0</ele><time>2026-05-03T14:44:26.283Z</time></trkpt><trkpt lat="39.3417671" lon="16.5658954"><ele>1312.0</ele><time>2026-05-03T14:44:27.272Z</time></trkpt><trkpt lat="39.3417414" lon="16.5659834"><ele>1312.0</ele><time>2026-05-03T14:44:28.275Z</time></trkpt><trkpt lat="39.3417178" lon="16.5660812"><ele>1312.0</ele><time>2026-05-03T14:44:29.266Z</time></trkpt><trkpt lat="39.3416947" lon="16.5661813"><ele>1312.0</ele><time>2026-05-03T14:44:30.268Z</time></trkpt><trkpt lat="39.3416862" lon="16.5662834"><ele>1312.0</ele><time>2026-05-03T14:44:31.277Z</time></trkpt><trkpt lat="39.3416785" lon="16.5663808"><ele>1312.0</ele><time>2026-05-03T14:44:32.263Z</time></trkpt><trkpt lat="39.341701" lon="16.566479"><ele>1312.0</ele><time>2026-05-03T14:44:33.273Z</time></trkpt><trkpt lat="39.341723" lon="16.5665827"><ele>1312.0</ele><time>2026-05-03T14:44:34.268Z</time></trkpt><trkpt lat="39.3417608" lon="16.5666717"><ele>1312.0</ele><time>2026-05-03T14:44:35.268Z</time></trkpt><trkpt lat="39.341793" lon="16.5667551"><ele>1312.0</ele><time>2026-05-03T14:44:36.275Z</time></trkpt><trkpt lat="39.3418249" lon="16.5668422"><ele>1312.0</ele><time>2026-05-03T14:44:37.272Z</time></trkpt><trkpt lat="39.3418547" lon="16.5669343"><ele>1312.0</ele><time>2026-05-03T14:44:38.269Z</time></trkpt><trkpt lat="39.3418838" lon="16.5670179"><ele>1312.0</ele><time>2026-05-03T14:44:39.278Z</time></trkpt><trkpt lat="39.3419244" lon="16.567119"><ele>1312.0</ele><time>2026-05-03T14:44:40.27Z</time></trkpt><trkpt lat="39.3419667" lon="16.5672075"><ele>1312.0</ele><time>2026-05-03T14:44:41.278Z</time></trkpt><trkpt lat="39.3420243" lon="16.5673015"><ele>1312.0</ele><time>2026-05-03T14:44:42.272Z</time></trkpt><trkpt lat="39.342101" lon="16.5673884"><ele>1312.0</ele><time>2026-05-03T14:44:43.273Z</time></trkpt><trkpt lat="39.3422066" lon="16.5674567"><ele>1311.1999999999998</ele><time>2026-05-03T14:44:44.266Z</time></trkpt><trkpt lat="39.3423056" lon="16.5675098"><ele>1310.4</ele><time>2026-05-03T14:44:45.273Z</time></trkpt><trkpt lat="39.342396" lon="16.5675738"><ele>1309.6</ele><time>2026-05-03T14:44:46.285Z</time></trkpt><trkpt lat="39.3424734" lon="16.5676378"><ele>1308.8000000000002</ele><time>2026-05-03T14:44:47.278Z</time></trkpt><trkpt lat="39.3425372" lon="16.5677076"><ele>1308.0</ele><time>2026-05-03T14:44:48.281Z</time></trkpt><trkpt lat="39.342597" lon="16.5677533"><ele>1308.0</ele><time>2026-05-03T14:44:49.268Z</time></trkpt><trkpt lat="39.3426603" lon="16.5678281"><ele>1308.0</ele><time>2026-05-03T14:44:51.277Z</time></trkpt><trkpt lat="39.3426371" lon="16.5679223"><ele>1308.0</ele><time>2026-05-03T14:44:53.272Z</time></trkpt><trkpt lat="39.3426092" lon="16.568009"><ele>1308.0</ele><time>2026-05-03T14:44:55.28Z</time></trkpt><trkpt lat="39.3426265" lon="16.5680931"><ele>1308.0</ele><time>2026-05-03T14:45:08.292Z</time></trkpt><trkpt lat="39.3426559" lon="16.5681684"><ele>1308.0</ele><time>2026-05-03T14:45:13.27Z</time></trkpt><trkpt lat="39.3427169" lon="16.5682193"><ele>1308.0</ele><time>2026-05-03T14:45:20.294Z</time></trkpt><trkpt lat="39.342785" lon="16.5682284"><ele>1308.142857142857</ele><time>2026-05-03T14:45:25.247Z</time></trkpt><trkpt lat="39.3428439" lon="16.5681978"><ele>1308.2857142857142</ele><time>2026-05-03T14:45:36.299Z</time></trkpt><trkpt lat="39.342919" lon="16.5681958"><ele>1308.4285714285716</ele><time>2026-05-03T14:45:40.298Z</time></trkpt><trkpt lat="39.342981" lon="16.5682296"><ele>1308.5714285714284</ele><time>2026-05-03T14:45:47.291Z</time></trkpt><trkpt lat="39.3430468" lon="16.5682485"><ele>1308.7142857142858</ele><time>2026-05-03T14:46:01.274Z</time></trkpt><trkpt lat="39.3431024" lon="16.5683003"><ele>1308.857142857143</ele><time>2026-05-03T14:46:10.278Z</time></trkpt><trkpt lat="39.3431327" lon="16.5683785"><ele>1309.0</ele><time>2026-05-03T14:46:16.273Z</time></trkpt><trkpt lat="39.3431542" lon="16.5684747"><ele>1309.0</ele><time>2026-05-03T14:46:19.269Z</time></trkpt><trkpt lat="39.343179" lon="16.5685544"><ele>1309.0</ele><time>2026-05-03T14:46:21.272Z</time></trkpt><trkpt lat="39.3432212" lon="16.568618"><ele>1309.0</ele><time>2026-05-03T14:46:23.275Z</time></trkpt><trkpt lat="39.3432717" lon="16.5686901"><ele>1309.0</ele><time>2026-05-03T14:46:26.277Z</time></trkpt><trkpt lat="39.343293" lon="16.5687766"><ele>1309.0</ele><time>2026-05-03T14:46:29.275Z</time></trkpt><trkpt lat="39.3433291" lon="16.5688657"><ele>1309.0</ele><time>2026-05-03T14:46:32.349Z</time></trkpt><trkpt lat="39.3433924" lon="16.5689379"><ele>1309.0</ele><time>2026-05-03T14:46:34.271Z</time></trkpt><trkpt lat="39.3434639" lon="16.5690143"><ele>1308.6666666666665</ele><time>2026-05-03T14:46:36.349Z</time></trkpt><trkpt lat="39.3435216" lon="16.5690802"><ele>1308.3333333333333</ele><time>2026-05-03T14:46:38.311Z</time></trkpt><trkpt lat="39.3435848" lon="16.5691217"><ele>1308.0</ele><time>2026-05-03T14:46:41.332Z</time></trkpt><trkpt lat="39.3436458" lon="16.569191"><ele>1307.6666666666667</ele><time>2026-05-03T14:46:44.28Z</time></trkpt><trkpt lat="39.3436943" lon="16.5692504"><ele>1307.3333333333335</ele><time>2026-05-03T14:46:45.271Z</time></trkpt><trkpt lat="39.3437564" lon="16.5693551"><ele>1307.0</ele><time>2026-05-03T14:46:47.28Z</time></trkpt><trkpt lat="39.3437872" lon="16.5694412"><ele>1306.8333333333335</ele><time>2026-05-03T14:46:49.282Z</time></trkpt><trkpt lat="39.3438285" lon="16.5695348"><ele>1306.6666666666667</ele><time>2026-05-03T14:46:51.285Z</time></trkpt><trkpt lat="39.3438842" lon="16.5696609"><ele>1306.5</ele><time>2026-05-03T14:46:53.286Z</time></trkpt><trkpt lat="39.3439252" lon="16.5697822"><ele>1306.3333333333333</ele><time>2026-05-03T14:46:55.287Z</time></trkpt><trkpt lat="39.343942" lon="16.5698812"><ele>1306.1666666666665</ele><time>2026-05-03T14:46:58.279Z</time></trkpt><trkpt lat="39.3439307" lon="16.5699617"><ele>1306.0</ele><time>2026-05-03T14:47:01.27Z</time></trkpt><trkpt lat="39.343912" lon="16.5700429"><ele>1306.0</ele><time>2026-05-03T14:47:23.277Z</time></trkpt><trkpt lat="39.3438866" lon="16.5701413"><ele>1306.0</ele><time>2026-05-03T14:47:25.261Z</time></trkpt><trkpt lat="39.3438191" lon="16.5701371"><ele>1306.0</ele><time>2026-05-03T14:47:35.27Z</time></trkpt><trkpt lat="39.3437546" lon="16.5700664"><ele>1306.0</ele><time>2026-05-03T14:47:39.266Z</time></trkpt><trkpt lat="39.3436955" lon="16.5699835"><ele>1306.0</ele><time>2026-05-03T14:47:41.273Z</time></trkpt><trkpt lat="39.3436513" lon="16.5699147"><ele>1306.0</ele><time>2026-05-03T14:47:43.271Z</time></trkpt><trkpt lat="39.3435911" lon="16.5699842"><ele>1307.0</ele><time>2026-05-03T14:47:46.268Z</time></trkpt><trkpt lat="39.3436099" lon="16.5701152"><ele>1308.0</ele><time>2026-05-03T14:47:48.263Z</time></trkpt><trkpt lat="39.343636" lon="16.5701926"><ele>1309.0</ele><time>2026-05-03T14:47:49.267Z</time></trkpt><trkpt lat="39.3436653" lon="16.570277"><ele>1310.0</ele><time>2026-05-03T14:47:50.295Z</time></trkpt><trkpt lat="39.3436977" lon="16.5703671"><ele>1311.0</ele><time>2026-05-03T14:47:51.272Z</time></trkpt><trkpt lat="39.34373" lon="16.5704635"><ele>1312.0</ele><time>2026-05-03T14:47:52.269Z</time></trkpt><trkpt lat="39.3437647" lon="16.5705631"><ele>1311.0</ele><time>2026-05-03T14:47:53.275Z</time></trkpt><trkpt lat="39.3437953" lon="16.5706637"><ele>1310.0</ele><time>2026-05-03T14:47:54.267Z</time></trkpt><trkpt lat="39.3438276" lon="16.57076"><ele>1309.0</ele><time>2026-05-03T14:47:55.289Z</time></trkpt><trkpt lat="39.3438579" lon="16.5708947"><ele>1308.0</ele><time>2026-05-03T14:47:57.283Z</time></trkpt><trkpt lat="39.3438677" lon="16.5709855"><ele>1307.0</ele><time>2026-05-03T14:48:00.297Z</time></trkpt><trkpt lat="39.3438971" lon="16.571095"><ele>1306.0</ele><time>2026-05-03T14:48:16.272Z</time></trkpt><trkpt lat="39.3439292" lon="16.5711954"><ele>1305.3333333333333</ele><time>2026-05-03T14:48:20.282Z</time></trkpt><trkpt lat="39.3439685" lon="16.571288"><ele>1304.6666666666665</ele><time>2026-05-03T14:48:21.269Z</time></trkpt><trkpt lat="39.3440084" lon="16.5713918"><ele>1304.0</ele><time>2026-05-03T14:48:22.277Z</time></trkpt><trkpt lat="39.3440425" lon="16.5714852"><ele>1303.3333333333333</ele><time>2026-05-03T14:48:23.29Z</time></trkpt><trkpt lat="39.3440734" lon="16.5715706"><ele>1302.6666666666667</ele><time>2026-05-03T14:48:24.276Z</time></trkpt><trkpt lat="39.3440995" lon="16.5716597"><ele>1302.0</ele><time>2026-05-03T14:48:25.275Z</time></trkpt><trkpt lat="39.3441189" lon="16.5717494"><ele>1302.0</ele><time>2026-05-03T14:48:26.272Z</time></trkpt><trkpt lat="39.3441315" lon="16.5718338"><ele>1302.0</ele><time>2026-05-03T14:48:27.278Z</time></trkpt><trkpt lat="39.344144" lon="16.5720003"><ele>1302.0</ele><time>2026-05-03T14:48:29.271Z</time></trkpt><trkpt lat="39.34414" lon="16.572089"><ele>1302.0</ele><time>2026-05-03T14:48:30.262Z</time></trkpt><trkpt lat="39.3441331" lon="16.5722206"><ele>1302.0</ele><time>2026-05-03T14:48:32.271Z</time></trkpt><trkpt lat="39.3441309" lon="16.5723114"><ele>1302.0</ele><time>2026-05-03T14:48:35.267Z</time></trkpt><trkpt lat="39.3441632" lon="16.5723857"><ele>1302.0</ele><time>2026-05-03T14:48:43.268Z</time></trkpt><trkpt lat="39.3441348" lon="16.5724598"><ele>1302.0</ele><time>2026-05-03T14:48:47.264Z</time></trkpt><trkpt lat="39.3441102" lon="16.5725404"><ele>1302.0</ele><time>2026-05-03T14:48:51.272Z</time></trkpt><trkpt lat="39.3440809" lon="16.5726292"><ele>1302.0</ele><time>2026-05-03T14:48:59.272Z</time></trkpt><trkpt lat="39.3440564" lon="16.5727325"><ele>1302.0</ele><time>2026-05-03T14:49:39.282Z</time></trkpt><trkpt lat="39.3440319" lon="16.57282"><ele>1302.0</ele><time>2026-05-03T14:49:44.283Z</time></trkpt><trkpt lat="39.3440123" lon="16.572901"><ele>1302.0</ele><time>2026-05-03T14:49:49.27Z</time></trkpt><trkpt lat="39.3440403" lon="16.5729849"><ele>1302.3333333333333</ele><time>2026-05-03T14:49:54.279Z</time></trkpt><trkpt lat="39.3440357" lon="16.5730812"><ele>1302.6666666666667</ele><time>2026-05-03T14:49:58.279Z</time></trkpt><trkpt lat="39.3439766" lon="16.573132"><ele>1303.0</ele><time>2026-05-03T14:50:01.27Z</time></trkpt><trkpt lat="39.3439612" lon="16.573221"><ele>1303.3333333333335</ele><time>2026-05-03T14:50:05.274Z</time></trkpt><trkpt lat="39.3439353" lon="16.5733142"><ele>1303.6666666666667</ele><time>2026-05-03T14:50:24.286Z</time></trkpt><trkpt lat="39.3439824" lon="16.5734077"><ele>1304.0</ele><time>2026-05-03T14:50:27.293Z</time></trkpt><trkpt lat="39.3440351" lon="16.5734697"><ele>1304.0</ele><time>2026-05-03T14:50:29.265Z</time></trkpt><trkpt lat="39.3441152" lon="16.5735262"><ele>1304.0</ele><time>2026-05-03T14:50:31.274Z</time></trkpt><trkpt lat="39.3441964" lon="16.5735912"><ele>1304.0</ele><time>2026-05-03T14:50:33.273Z</time></trkpt><trkpt lat="39.3442628" lon="16.5736549"><ele>1304.0</ele><time>2026-05-03T14:50:35.277Z</time></trkpt><trkpt lat="39.3443194" lon="16.5737151"><ele>1304.0</ele><time>2026-05-03T14:50:40.266Z</time></trkpt><trkpt lat="39.3444016" lon="16.5738152"><ele>1303.1666666666667</ele><time>2026-05-03T14:50:42.266Z</time></trkpt><trkpt lat="39.3444514" lon="16.5738739"><ele>1302.3333333333335</ele><time>2026-05-03T14:50:43.265Z</time></trkpt><trkpt lat="39.34451" lon="16.5739462"><ele>1301.5</ele><time>2026-05-03T14:50:44.271Z</time></trkpt><trkpt lat="39.3445716" lon="16.5740245"><ele>1300.6666666666667</ele><time>2026-05-03T14:50:45.266Z</time></trkpt><trkpt lat="39.3446204" lon="16.5741153"><ele>1299.8333333333333</ele><time>2026-05-03T14:50:46.275Z</time></trkpt><trkpt lat="39.3446649" lon="16.5742249"><ele>1299.0</ele><time>2026-05-03T14:50:47.274Z</time></trkpt><trkpt lat="39.3447131" lon="16.574341"><ele>1299.0</ele><time>2026-05-03T14:50:48.271Z</time></trkpt><trkpt lat="39.3447573" lon="16.5744723"><ele>1299.0</ele><time>2026-05-03T14:50:49.27Z</time></trkpt><trkpt lat="39.3447982" lon="16.5746246"><ele>1299.0</ele><time>2026-05-03T14:50:50.272Z</time></trkpt><trkpt lat="39.3448389" lon="16.5747702"><ele>1299.0</ele><time>2026-05-03T14:50:51.273Z</time></trkpt><trkpt lat="39.3448653" lon="16.5749132"><ele>1299.0</ele><time>2026-05-03T14:50:52.275Z</time></trkpt><trkpt lat="39.3448912" lon="16.5750522"><ele>1299.0</ele><time>2026-05-03T14:50:53.272Z</time></trkpt><trkpt lat="39.3448761" lon="16.5751865"><ele>1299.0</ele><time>2026-05-03T14:50:54.266Z</time></trkpt><trkpt lat="39.34487" lon="16.5753388"><ele>1299.0</ele><time>2026-05-03T14:50:55.281Z</time></trkpt><trkpt lat="39.3448989" lon="16.5754885"><ele>1300.0</ele><time>2026-05-03T14:50:56.273Z</time></trkpt><trkpt lat="39.3449537" lon="16.5756192"><ele>1301.0</ele><time>2026-05-03T14:50:57.286Z</time></trkpt><trkpt lat="39.345008" lon="16.5757646"><ele>1302.0</ele><time>2026-05-03T14:50:58.267Z</time></trkpt><trkpt lat="39.3450465" lon="16.5759145"><ele>1303.0</ele><time>2026-05-03T14:50:59.268Z</time></trkpt><trkpt lat="39.3450919" lon="16.5760528"><ele>1303.0</ele><time>2026-05-03T14:51:00.274Z</time></trkpt><trkpt lat="39.3451522" lon="16.5761723"><ele>1303.0</ele><time>2026-05-03T14:51:01.276Z</time></trkpt><trkpt lat="39.3452107" lon="16.5762866"><ele>1303.0</ele><time>2026-05-03T14:51:02.281Z</time></trkpt><trkpt lat="39.3452483" lon="16.576414"><ele>1303.0</ele><time>2026-05-03T14:51:03.264Z</time></trkpt><trkpt lat="39.3452719" lon="16.5765525"><ele>1303.0</ele><time>2026-05-03T14:51:04.266Z</time></trkpt><trkpt lat="39.3453005" lon="16.5766931"><ele>1303.8000000000002</ele><time>2026-05-03T14:51:05.278Z</time></trkpt><trkpt lat="39.3453261" lon="16.576829"><ele>1304.6</ele><time>2026-05-03T14:51:06.27Z</time></trkpt><trkpt lat="39.345327" lon="16.5769542"><ele>1305.4</ele><time>2026-05-03T14:51:07.283Z</time></trkpt><trkpt lat="39.3453017" lon="16.5770811"><ele>1306.1999999999998</ele><time>2026-05-03T14:51:08.275Z</time></trkpt><trkpt lat="39.3452553" lon="16.5772108"><ele>1307.0</ele><time>2026-05-03T14:51:09.277Z</time></trkpt><trkpt lat="39.3451965" lon="16.5773367"><ele>1307.3999999999999</ele><time>2026-05-03T14:51:10.278Z</time></trkpt><trkpt lat="39.3451407" lon="16.5774584"><ele>1307.8</ele><time>2026-05-03T14:51:11.269Z</time></trkpt><trkpt lat="39.3451161" lon="16.5775794"><ele>1308.2</ele><time>2026-05-03T14:51:12.274Z</time></trkpt><trkpt lat="39.3450947" lon="16.5776982"><ele>1308.6</ele><time>2026-05-03T14:51:13.27Z</time></trkpt><trkpt lat="39.3450746" lon="16.5778216"><ele>1309.0</ele><time>2026-05-03T14:51:14.271Z</time></trkpt><trkpt lat="39.3450594" lon="16.5779342"><ele>1307.8333333333333</ele><time>2026-05-03T14:51:15.269Z</time></trkpt><trkpt lat="39.3450501" lon="16.5780184"><ele>1306.6666666666665</ele><time>2026-05-03T14:51:16.279Z</time></trkpt><trkpt lat="39.3450322" lon="16.578134"><ele>1305.5</ele><time>2026-05-03T14:51:21.277Z</time></trkpt><trkpt lat="39.3450012" lon="16.5782656"><ele>1304.3333333333333</ele><time>2026-05-03T14:51:23.275Z</time></trkpt><trkpt lat="39.3449784" lon="16.5783642"><ele>1303.1666666666667</ele><time>2026-05-03T14:51:24.275Z</time></trkpt><trkpt lat="39.3449542" lon="16.5784668"><ele>1302.0</ele><time>2026-05-03T14:51:25.267Z</time></trkpt><trkpt lat="39.3449181" lon="16.5785598"><ele>1302.0</ele><time>2026-05-03T14:51:26.267Z</time></trkpt><trkpt lat="39.3448803" lon="16.5786323"><ele>1302.0</ele><time>2026-05-03T14:51:27.264Z</time></trkpt><trkpt lat="39.344902" lon="16.5787134"><ele>1302.0</ele><time>2026-05-03T14:51:29.29Z</time></trkpt><trkpt lat="39.3449316" lon="16.5788015"><ele>1302.0</ele><time>2026-05-03T14:51:32.27Z</time></trkpt><trkpt lat="39.3449244" lon="16.5789123"><ele>1302.0</ele><time>2026-05-03T14:51:34.266Z</time></trkpt><trkpt lat="39.3449262" lon="16.5790289"><ele>1302.0</ele><time>2026-05-03T14:51:36.27Z</time></trkpt><trkpt lat="39.3449146" lon="16.5791558"><ele>1301.6</ele><time>2026-05-03T14:51:38.271Z</time></trkpt><trkpt lat="39.3449056" lon="16.5792982"><ele>1301.1999999999998</ele><time>2026-05-03T14:51:40.277Z</time></trkpt><trkpt lat="39.3448954" lon="16.5794169"><ele>1300.8</ele><time>2026-05-03T14:51:42.275Z</time></trkpt><trkpt lat="39.3448719" lon="16.5795384"><ele>1300.4</ele><time>2026-05-03T14:51:44.281Z</time></trkpt><trkpt lat="39.3448327" lon="16.5796385"><ele>1300.0</ele><time>2026-05-03T14:51:46.277Z</time></trkpt><trkpt lat="39.3447994" lon="16.579715"><ele>1300.0</ele><time>2026-05-03T14:51:48.275Z</time></trkpt><trkpt lat="39.3447348" lon="16.5797659"><ele>1300.0</ele><time>2026-05-03T14:51:50.271Z</time></trkpt><trkpt lat="39.3446691" lon="16.5798292"><ele>1300.0</ele><time>2026-05-03T14:51:52.277Z</time></trkpt><trkpt lat="39.3445769" lon="16.5799204"><ele>1300.0</ele><time>2026-05-03T14:51:54.285Z</time></trkpt><trkpt lat="39.3445013" lon="16.5799884"><ele>1300.0</ele><time>2026-05-03T14:51:56.272Z</time></trkpt><trkpt lat="39.3444467" lon="16.5800298"><ele>1300.0</ele><time>2026-05-03T14:51:58.291Z</time></trkpt><trkpt lat="39.3443913" lon="16.5800713"><ele>1299.4</ele><time>2026-05-03T14:52:00.279Z</time></trkpt><trkpt lat="39.3443116" lon="16.5801118"><ele>1298.8</ele><time>2026-05-03T14:52:02.277Z</time></trkpt><trkpt lat="39.3441972" lon="16.5801608"><ele>1298.1999999999998</ele><time>2026-05-03T14:52:04.277Z</time></trkpt><trkpt lat="39.3440807" lon="16.580209"><ele>1297.6</ele><time>2026-05-03T14:52:06.267Z</time></trkpt><trkpt lat="39.3440139" lon="16.5802497"><ele>1297.0</ele><time>2026-05-03T14:52:07.273Z</time></trkpt><trkpt lat="39.3439539" lon="16.5802754"><ele>1296.0</ele><time>2026-05-03T14:52:08.269Z</time></trkpt><trkpt lat="39.3438269" lon="16.5803139"><ele>1295.0</ele><time>2026-05-03T14:52:10.274Z</time></trkpt><trkpt lat="39.3437134" lon="16.5803406"><ele>1294.0</ele><time>2026-05-03T14:52:12.269Z</time></trkpt><trkpt lat="39.3436253" lon="16.5803373"><ele>1293.0</ele><time>2026-05-03T14:52:14.275Z</time></trkpt><trkpt lat="39.3435404" lon="16.5802763"><ele>1292.0</ele><time>2026-05-03T14:52:17.273Z</time></trkpt><trkpt lat="39.3434747" lon="16.5802333"><ele>1292.0</ele><time>2026-05-03T14:52:19.277Z</time></trkpt><trkpt lat="39.3434053" lon="16.5801941"><ele>1292.0</ele><time>2026-05-03T14:52:22.348Z</time></trkpt><trkpt lat="39.3433557" lon="16.5801396"><ele>1292.0</ele><time>2026-05-03T14:52:23.307Z</time></trkpt><trkpt lat="39.3433046" lon="16.5800853"><ele>1292.0</ele><time>2026-05-03T14:52:24.273Z</time></trkpt><trkpt lat="39.3432552" lon="16.580034"><ele>1292.0</ele><time>2026-05-03T14:52:25.271Z</time></trkpt><trkpt lat="39.3431823" lon="16.579957"><ele>1292.0</ele><time>2026-05-03T14:52:27.273Z</time></trkpt><trkpt lat="39.3431124" lon="16.5798776"><ele>1291.5</ele><time>2026-05-03T14:52:30.27Z</time></trkpt><trkpt lat="39.3430448" lon="16.5798156"><ele>1291.0</ele><time>2026-05-03T14:52:32.281Z</time></trkpt><trkpt lat="39.342976" lon="16.5797575"><ele>1290.5</ele><time>2026-05-03T14:52:35.27Z</time></trkpt><trkpt lat="39.3429201" lon="16.5797162"><ele>1290.0</ele><time>2026-05-03T14:52:39.275Z</time></trkpt><trkpt lat="39.3428569" lon="16.5796732"><ele>1289.5</ele><time>2026-05-03T14:52:42.27Z</time></trkpt><trkpt lat="39.3427911" lon="16.5796235"><ele>1289.0</ele><time>2026-05-03T14:52:44.273Z</time></trkpt><trkpt lat="39.3427127" lon="16.5795726"><ele>1290.6666666666667</ele><time>2026-05-03T14:52:46.282Z</time></trkpt><trkpt lat="39.3426252" lon="16.5795148"><ele>1292.3333333333335</ele><time>2026-05-03T14:52:48.281Z</time></trkpt><trkpt lat="39.3425516" lon="16.5794693"><ele>1294.0</ele><time>2026-05-03T14:52:50.268Z</time></trkpt><trkpt lat="39.3424595" lon="16.5794597"><ele>1295.6666666666667</ele><time>2026-05-03T14:52:53.27Z</time></trkpt><trkpt lat="39.3423812" lon="16.5794444"><ele>1297.3333333333333</ele><time>2026-05-03T14:52:55.27Z</time></trkpt><trkpt lat="39.3423109" lon="16.5794268"><ele>1299.0</ele><time>2026-05-03T14:52:57.269Z</time></trkpt><trkpt lat="39.3422336" lon="16.5794209"><ele>1299.0</ele><time>2026-05-03T14:53:01.268Z</time></trkpt><trkpt lat="39.3421641" lon="16.5794301"><ele>1299.0</ele><time>2026-05-03T14:54:26.271Z</time></trkpt><trkpt lat="39.3420941" lon="16.5794255"><ele>1299.0</ele><time>2026-05-03T14:54:30.269Z</time></trkpt><trkpt lat="39.342155" lon="16.5794686"><ele>1299.0</ele><time>2026-05-03T14:54:39.264Z</time></trkpt><trkpt lat="39.3422297" lon="16.5794456"><ele>1299.0</ele><time>2026-05-03T14:54:47.268Z</time></trkpt><trkpt lat="39.3423354" lon="16.5794684"><ele>1299.0</ele><time>2026-05-03T14:56:03.283Z</time></trkpt><trkpt lat="39.3423308" lon="16.5795547"><ele>1297.3333333333333</ele><time>2026-05-03T14:56:17.289Z</time></trkpt><trkpt lat="39.34226" lon="16.5795347"><ele>1295.6666666666667</ele><time>2026-05-03T14:56:21.278Z</time></trkpt><trkpt lat="39.3421931" lon="16.5795149"><ele>1294.0</ele><time>2026-05-03T14:56:25.287Z</time></trkpt><trkpt lat="39.3421116" lon="16.5795283"><ele>1292.3333333333335</ele><time>2026-05-03T14:56:30.307Z</time></trkpt><trkpt lat="39.3420835" lon="16.5796239"><ele>1290.6666666666667</ele><time>2026-05-03T14:56:35.221Z</time></trkpt><trkpt lat="39.3421182" lon="16.5797137"><ele>1289.0</ele><time>2026-05-03T14:56:37.222Z</time></trkpt><trkpt lat="39.3421536" lon="16.5798126"><ele>1291.2</ele><time>2026-05-03T14:56:39.29Z</time></trkpt><trkpt lat="39.342164" lon="16.5799041"><ele>1293.4</ele><time>2026-05-03T14:56:40.271Z</time></trkpt><trkpt lat="39.3421544" lon="16.5800175"><ele>1295.6</ele><time>2026-05-03T14:56:41.273Z</time></trkpt><trkpt lat="39.3421256" lon="16.580144"><ele>1297.8</ele><time>2026-05-03T14:56:42.263Z</time></trkpt><trkpt lat="39.3420944" lon="16.5802719"><ele>1300.0</ele><time>2026-05-03T14:56:43.27Z</time></trkpt><trkpt lat="39.3420642" lon="16.5804031"><ele>1300.0</ele><time>2026-05-03T14:56:44.272Z</time></trkpt><trkpt lat="39.3420303" lon="16.5805277"><ele>1300.0</ele><time>2026-05-03T14:56:45.269Z</time></trkpt><trkpt lat="39.3419826" lon="16.5806285"><ele>1300.0</ele><time>2026-05-03T14:56:46.272Z</time></trkpt><trkpt lat="39.3419187" lon="16.5806882"><ele>1300.0</ele><time>2026-05-03T14:56:47.28Z</time></trkpt><trkpt lat="39.3418646" lon="16.5807321"><ele>1300.0</ele><time>2026-05-03T14:56:48.268Z</time></trkpt><trkpt lat="39.341841" lon="16.5808891"><ele>1300.0</ele><time>2026-05-03T14:56:50.274Z</time></trkpt><trkpt lat="39.3418323" lon="16.5809946"><ele>1300.0</ele><time>2026-05-03T14:56:51.276Z</time></trkpt><trkpt lat="39.341805" lon="16.581087"><ele>1300.0</ele><time>2026-05-03T14:56:52.274Z</time></trkpt><trkpt lat="39.3417745" lon="16.5811627"><ele>1300.0</ele><time>2026-05-03T14:56:53.272Z</time></trkpt><trkpt lat="39.3417261" lon="16.5812613"><ele>1300.0</ele><time>2026-05-03T14:56:55.279Z</time></trkpt><trkpt lat="39.3416809" lon="16.5814089"><ele>1300.0</ele><time>2026-05-03T14:56:57.273Z</time></trkpt><trkpt lat="39.3416634" lon="16.5815127"><ele>1299.1666666666665</ele><time>2026-05-03T14:56:58.272Z</time></trkpt><trkpt lat="39.3416399" lon="16.5816271"><ele>1298.3333333333333</ele><time>2026-05-03T14:56:59.272Z</time></trkpt><trkpt lat="39.3416017" lon="16.5817225"><ele>1297.5</ele><time>2026-05-03T14:57:00.273Z</time></trkpt><trkpt lat="39.3415639" lon="16.5818115"><ele>1296.6666666666667</ele><time>2026-05-03T14:57:01.273Z</time></trkpt><trkpt lat="39.3415327" lon="16.5818907"><ele>1295.8333333333335</ele><time>2026-05-03T14:57:02.273Z</time></trkpt><trkpt lat="39.3415137" lon="16.581978"><ele>1295.0</ele><time>2026-05-03T14:57:03.279Z</time></trkpt><trkpt lat="39.3415019" lon="16.5820818"><ele>1295.0</ele><time>2026-05-03T14:57:04.271Z</time></trkpt><trkpt lat="39.3414954" lon="16.5821764"><ele>1295.0</ele><time>2026-05-03T14:57:05.271Z</time></trkpt><trkpt lat="39.3414841" lon="16.5822919"><ele>1295.0</ele><time>2026-05-03T14:57:07.268Z</time></trkpt><trkpt lat="39.3414834" lon="16.5824024"><ele>1295.0</ele><time>2026-05-03T14:57:10.275Z</time></trkpt><trkpt lat="39.3414859" lon="16.5824967"><ele>1295.0</ele><time>2026-05-03T14:57:12.267Z</time></trkpt><trkpt lat="39.3414913" lon="16.5826213"><ele>1295.0</ele><time>2026-05-03T14:57:14.274Z</time></trkpt><trkpt lat="39.3414973" lon="16.5827783"><ele>1295.0</ele><time>2026-05-03T14:57:16.274Z</time></trkpt><trkpt lat="39.3414943" lon="16.5829369"><ele>1295.0</ele><time>2026-05-03T14:57:18.276Z</time></trkpt><trkpt lat="39.3414725" lon="16.5830858"><ele>1295.0</ele><time>2026-05-03T14:57:20.271Z</time></trkpt><trkpt lat="39.3414559" lon="16.5831965"><ele>1295.0</ele><time>2026-05-03T14:57:22.267Z</time></trkpt><trkpt lat="39.341481" lon="16.5832776"><ele>1295.0</ele><time>2026-05-03T14:57:25.272Z</time></trkpt><trkpt lat="39.341534" lon="16.5833601"><ele>1295.0</ele><time>2026-05-03T14:57:28.282Z</time></trkpt><trkpt lat="39.3415444" lon="16.5834443"><ele>1295.0</ele><time>2026-05-03T14:57:30.284Z</time></trkpt><trkpt lat="39.3415836" lon="16.5835256"><ele>1295.0</ele><time>2026-05-03T14:57:32.271Z</time></trkpt><trkpt lat="39.3416327" lon="16.5836037"><ele>1295.0</ele><time>2026-05-03T14:57:34.272Z</time></trkpt><trkpt lat="39.3416365" lon="16.5837099"><ele>1295.0</ele><time>2026-05-03T14:57:37.278Z</time></trkpt><trkpt lat="39.3415955" lon="16.5837825"><ele>1295.0</ele><time>2026-05-03T14:57:39.276Z</time></trkpt><trkpt lat="39.3415712" lon="16.5838617"><ele>1295.0</ele><time>2026-05-03T14:57:43.274Z</time></trkpt><trkpt lat="39.3414995" lon="16.5839713"><ele>1295.4</ele><time>2026-05-03T14:57:46.276Z</time></trkpt><trkpt lat="39.3414558" lon="16.5840318"><ele>1295.8</ele><time>2026-05-03T14:57:47.275Z</time></trkpt><trkpt lat="39.3413904" lon="16.584131"><ele>1296.1999999999998</ele><time>2026-05-03T14:57:49.267Z</time></trkpt><trkpt lat="39.3413431" lon="16.5842483"><ele>1296.6</ele><time>2026-05-03T14:57:52.278Z</time></trkpt><trkpt lat="39.3412877" lon="16.5843483"><ele>1297.0</ele><time>2026-05-03T14:57:54.265Z</time></trkpt><trkpt lat="39.3412318" lon="16.5844409"><ele>1297.3999999999999</ele><time>2026-05-03T14:57:56.279Z</time></trkpt><trkpt lat="39.3411536" lon="16.5845412"><ele>1297.8</ele><time>2026-05-03T14:57:58.278Z</time></trkpt><trkpt lat="39.3410678" lon="16.5846362"><ele>1298.2</ele><time>2026-05-03T14:58:00.274Z</time></trkpt><trkpt lat="39.3409831" lon="16.5847405"><ele>1298.6</ele><time>2026-05-03T14:58:02.271Z</time></trkpt><trkpt lat="39.3409166" lon="16.5848341"><ele>1299.0</ele><time>2026-05-03T14:58:04.266Z</time></trkpt><trkpt lat="39.3408611" lon="16.584915"><ele>1299.0</ele><time>2026-05-03T14:58:06.265Z</time></trkpt><trkpt lat="39.3407975" lon="16.5850227"><ele>1299.0</ele><time>2026-05-03T14:58:08.277Z</time></trkpt><trkpt lat="39.340732" lon="16.5851021"><ele>1299.0</ele><time>2026-05-03T14:58:10.269Z</time></trkpt><trkpt lat="39.3406713" lon="16.5851839"><ele>1299.0</ele><time>2026-05-03T14:58:12.278Z</time></trkpt><trkpt lat="39.3406022" lon="16.5852786"><ele>1299.0</ele><time>2026-05-03T14:58:14.27Z</time></trkpt><trkpt lat="39.340533" lon="16.5853578"><ele>1301.4</ele><time>2026-05-03T14:58:16.273Z</time></trkpt><trkpt lat="39.3404805" lon="16.5854277"><ele>1303.8000000000002</ele><time>2026-05-03T14:58:18.276Z</time></trkpt><trkpt lat="39.3404168" lon="16.5854922"><ele>1306.1999999999998</ele><time>2026-05-03T14:58:20.271Z</time></trkpt><trkpt lat="39.3403457" lon="16.5855903"><ele>1308.6</ele><time>2026-05-03T14:58:22.277Z</time></trkpt><trkpt lat="39.3403376" lon="16.5857281"><ele>1311.0</ele><time>2026-05-03T14:58:24.273Z</time></trkpt><trkpt lat="39.3403747" lon="16.585876"><ele>1311.0</ele><time>2026-05-03T14:58:26.271Z</time></trkpt><trkpt lat="39.3404013" lon="16.5860263"><ele>1311.0</ele><time>2026-05-03T14:58:28.269Z</time></trkpt><trkpt lat="39.3404123" lon="16.5861099"><ele>1311.0</ele><time>2026-05-03T14:58:29.267Z</time></trkpt><trkpt lat="39.3404281" lon="16.5861967"><ele>1311.0</ele><time>2026-05-03T14:58:30.274Z</time></trkpt><trkpt lat="39.3404472" lon="16.5862892"><ele>1311.0</ele><time>2026-05-03T14:58:31.278Z</time></trkpt><trkpt lat="39.3404648" lon="16.5863805"><ele>1311.0</ele><time>2026-05-03T14:58:32.268Z</time></trkpt><trkpt lat="39.3404778" lon="16.5864611"><ele>1311.8333333333333</ele><time>2026-05-03T14:58:33.286Z</time></trkpt><trkpt lat="39.3405055" lon="16.5865989"><ele>1312.6666666666667</ele><time>2026-05-03T14:58:35.267Z</time></trkpt><trkpt lat="39.3405215" lon="16.5866847"><ele>1313.5</ele><time>2026-05-03T14:58:36.269Z</time></trkpt><trkpt lat="39.3405371" lon="16.5867773"><ele>1314.3333333333335</ele><time>2026-05-03T14:58:37.266Z</time></trkpt><trkpt lat="39.3405526" lon="16.5868728"><ele>1315.1666666666667</ele><time>2026-05-03T14:58:38.265Z</time></trkpt><trkpt lat="39.3405638" lon="16.5869719"><ele>1316.0</ele><time>2026-05-03T14:58:39.276Z</time></trkpt><trkpt lat="39.3405412" lon="16.5871261"><ele>1313.1999999999998</ele><time>2026-05-03T14:58:41.267Z</time></trkpt><trkpt lat="39.340583" lon="16.5872298"><ele>1310.3999999999999</ele><time>2026-05-03T14:58:43.274Z</time></trkpt><trkpt lat="39.3406898" lon="16.5873206"><ele>1307.6</ele><time>2026-05-03T14:58:45.284Z</time></trkpt><trkpt lat="39.3407601" lon="16.5873642"><ele>1304.8</ele><time>2026-05-03T14:58:46.269Z</time></trkpt><trkpt lat="39.3408394" lon="16.5874162"><ele>1302.0</ele><time>2026-05-03T14:58:47.267Z</time></trkpt><trkpt lat="39.340918" lon="16.5875028"><ele>1302.0</ele><time>2026-05-03T14:58:48.265Z</time></trkpt><trkpt lat="39.3409947" lon="16.5876161"><ele>1302.0</ele><time>2026-05-03T14:58:49.268Z</time></trkpt><trkpt lat="39.341073" lon="16.5877374"><ele>1302.0</ele><time>2026-05-03T14:58:50.267Z</time></trkpt><trkpt lat="39.3411376" lon="16.5878939"><ele>1302.0</ele><time>2026-05-03T14:58:51.271Z</time></trkpt><trkpt lat="39.3411818" lon="16.5880683"><ele>1302.1999999999998</ele><time>2026-05-03T14:58:52.271Z</time></trkpt><trkpt lat="39.3412058" lon="16.5882416"><ele>1302.4</ele><time>2026-05-03T14:58:53.27Z</time></trkpt><trkpt lat="39.341208" lon="16.5883905"><ele>1302.6</ele><time>2026-05-03T14:58:54.281Z</time></trkpt><trkpt lat="39.3411912" lon="16.5885134"><ele>1302.8000000000002</ele><time>2026-05-03T14:58:55.269Z</time></trkpt><trkpt lat="39.3411643" lon="16.5886299"><ele>1303.0</ele><time>2026-05-03T14:58:56.272Z</time></trkpt><trkpt lat="39.3411162" lon="16.5886978"><ele>1303.1666666666665</ele><time>2026-05-03T14:58:57.27Z</time></trkpt><trkpt lat="39.3410819" lon="16.5887681"><ele>1303.3333333333333</ele><time>2026-05-03T14:58:58.277Z</time></trkpt><trkpt lat="39.3410417" lon="16.5889026"><ele>1303.5</ele><time>2026-05-03T14:59:00.277Z</time></trkpt><trkpt lat="39.3410425" lon="16.5890082"><ele>1303.6666666666667</ele><time>2026-05-03T14:59:02.276Z</time></trkpt><trkpt lat="39.3410428" lon="16.5890919"><ele>1303.8333333333335</ele><time>2026-05-03T14:59:03.275Z</time></trkpt><trkpt lat="39.3410536" lon="16.5891882"><ele>1304.0</ele><time>2026-05-03T14:59:04.278Z</time></trkpt><trkpt lat="39.3410819" lon="16.5892876"><ele>1304.0</ele><time>2026-05-03T14:59:05.277Z</time></trkpt><trkpt lat="39.3411216" lon="16.5893817"><ele>1304.0</ele><time>2026-05-03T14:59:06.271Z</time></trkpt><trkpt lat="39.3411582" lon="16.5894862"><ele>1304.0</ele><time>2026-05-03T14:59:07.273Z</time></trkpt><trkpt lat="39.341178" lon="16.5896018"><ele>1304.0</ele><time>2026-05-03T14:59:08.286Z</time></trkpt><trkpt lat="39.341192" lon="16.5897132"><ele>1304.0</ele><time>2026-05-03T14:59:09.273Z</time></trkpt><trkpt lat="39.3412007" lon="16.5898305"><ele>1304.0</ele><time>2026-05-03T14:59:10.283Z</time></trkpt><trkpt lat="39.3412054" lon="16.5899441"><ele>1304.1666666666667</ele><time>2026-05-03T14:59:11.269Z</time></trkpt><trkpt lat="39.341206" lon="16.5900487"><ele>1304.3333333333335</ele><time>2026-05-03T14:59:12.272Z</time></trkpt><trkpt lat="39.3412015" lon="16.5901436"><ele>1304.5</ele><time>2026-05-03T14:59:13.275Z</time></trkpt><trkpt lat="39.341189" lon="16.5902407"><ele>1304.6666666666667</ele><time>2026-05-03T14:59:14.27Z</time></trkpt><trkpt lat="39.3411755" lon="16.5903388"><ele>1304.8333333333333</ele><time>2026-05-03T14:59:15.28Z</time></trkpt><trkpt lat="39.3411643" lon="16.590432"><ele>1305.0</ele><time>2026-05-03T14:59:16.28Z</time></trkpt><trkpt lat="39.3411528" lon="16.5905328"><ele>1305.1666666666667</ele><time>2026-05-03T14:59:17.272Z</time></trkpt><trkpt lat="39.3411421" lon="16.5906399"><ele>1305.3333333333333</ele><time>2026-05-03T14:59:18.265Z</time></trkpt><trkpt lat="39.3411298" lon="16.5907437"><ele>1305.5</ele><time>2026-05-03T14:59:19.273Z</time></trkpt><trkpt lat="39.3411033" lon="16.5908319"><ele>1305.6666666666665</ele><time>2026-05-03T14:59:20.267Z</time></trkpt><trkpt lat="39.3410942" lon="16.5909168"><ele>1305.8333333333333</ele><time>2026-05-03T14:59:21.269Z</time></trkpt><trkpt lat="39.3411471" lon="16.5910532"><ele>1306.0</ele><time>2026-05-03T14:59:23.274Z</time></trkpt><trkpt lat="39.3411791" lon="16.5911306"><ele>1306.5</ele><time>2026-05-03T14:59:24.277Z</time></trkpt><trkpt lat="39.3411918" lon="16.5912211"><ele>1307.0</ele><time>2026-05-03T14:59:25.272Z</time></trkpt><trkpt lat="39.3411971" lon="16.5913331"><ele>1307.5</ele><time>2026-05-03T14:59:26.272Z</time></trkpt><trkpt lat="39.3411956" lon="16.5914391"><ele>1308.0</ele><time>2026-05-03T14:59:27.268Z</time></trkpt><trkpt lat="39.3411886" lon="16.5915354"><ele>1308.5</ele><time>2026-05-03T14:59:28.266Z</time></trkpt><trkpt lat="39.3411841" lon="16.5916202"><ele>1309.0</ele><time>2026-05-03T14:59:29.267Z</time></trkpt><trkpt lat="39.3411882" lon="16.5917121"><ele>1309.0</ele><time>2026-05-03T14:59:30.274Z</time></trkpt><trkpt lat="39.3411943" lon="16.5918127"><ele>1309.0</ele><time>2026-05-03T14:59:31.27Z</time></trkpt><trkpt lat="39.3412158" lon="16.5919254"><ele>1309.0</ele><time>2026-05-03T14:59:32.264Z</time></trkpt><trkpt lat="39.3412415" lon="16.5920316"><ele>1309.0</ele><time>2026-05-03T14:59:33.272Z</time></trkpt><trkpt lat="39.3412507" lon="16.5921295"><ele>1309.0</ele><time>2026-05-03T14:59:34.274Z</time></trkpt><trkpt lat="39.3412493" lon="16.5922275"><ele>1309.0</ele><time>2026-05-03T14:59:35.275Z</time></trkpt><trkpt lat="39.3412231" lon="16.5923203"><ele>1308.8333333333333</ele><time>2026-05-03T14:59:36.269Z</time></trkpt><trkpt lat="39.3411739" lon="16.592427"><ele>1308.6666666666665</ele><time>2026-05-03T14:59:38.267Z</time></trkpt><trkpt lat="39.3411247" lon="16.5925032"><ele>1308.5</ele><time>2026-05-03T14:59:47.279Z</time></trkpt><trkpt lat="39.3410877" lon="16.5925715"><ele>1308.3333333333333</ele><time>2026-05-03T14:59:50.271Z</time></trkpt><trkpt lat="39.341053" lon="16.5926451"><ele>1308.1666666666667</ele><time>2026-05-03T14:59:52.27Z</time></trkpt><trkpt lat="39.3410017" lon="16.5927827"><ele>1308.0</ele><time>2026-05-03T14:59:54.262Z</time></trkpt><trkpt lat="39.3409808" lon="16.5928627"><ele>1307.5</ele><time>2026-05-03T14:59:55.277Z</time></trkpt><trkpt lat="39.3409618" lon="16.5929452"><ele>1307.0</ele><time>2026-05-03T14:59:56.275Z</time></trkpt><trkpt lat="39.3409436" lon="16.5930235"><ele>1306.5</ele><time>2026-05-03T14:59:57.266Z</time></trkpt><trkpt lat="39.3409278" lon="16.5931138"><ele>1306.0</ele><time>2026-05-03T14:59:58.268Z</time></trkpt><trkpt lat="39.340906" lon="16.5932523"><ele>1305.5</ele><time>2026-05-03T15:00:00.279Z</time></trkpt><trkpt lat="39.3409173" lon="16.5933774"><ele>1305.0</ele><time>2026-05-03T15:00:02.268Z</time></trkpt><trkpt lat="39.3409301" lon="16.5934742"><ele>1305.0</ele><time>2026-05-03T15:00:04.282Z</time></trkpt><trkpt lat="39.3409469" lon="16.593588"><ele>1305.0</ele><time>2026-05-03T15:00:06.265Z</time></trkpt><trkpt lat="39.3409781" lon="16.593707"><ele>1305.0</ele><time>2026-05-03T15:00:08.263Z</time></trkpt><trkpt lat="39.3409949" lon="16.5938048"><ele>1305.0</ele><time>2026-05-03T15:00:10.274Z</time></trkpt><trkpt lat="39.3410213" lon="16.5939061"><ele>1305.0</ele><time>2026-05-03T15:00:12.267Z</time></trkpt><trkpt lat="39.3410544" lon="16.5940141"><ele>1305.0</ele><time>2026-05-03T15:00:15.283Z</time></trkpt><trkpt lat="39.3410964" lon="16.594111"><ele>1304.3333333333333</ele><time>2026-05-03T15:00:17.275Z</time></trkpt><trkpt lat="39.3411581" lon="16.594181"><ele>1303.6666666666667</ele><time>2026-05-03T15:00:19.287Z</time></trkpt><trkpt lat="39.3412315" lon="16.5942659"><ele>1303.0</ele><time>2026-05-03T15:00:21.275Z</time></trkpt><trkpt lat="39.3412856" lon="16.594315"><ele>1302.3333333333335</ele><time>2026-05-03T15:00:22.277Z</time></trkpt><trkpt lat="39.3413449" lon="16.5943722"><ele>1301.6666666666667</ele><time>2026-05-03T15:00:23.272Z</time></trkpt><trkpt lat="39.341434" lon="16.5944473"><ele>1301.0</ele><time>2026-05-03T15:00:25.272Z</time></trkpt><trkpt lat="39.3414936" lon="16.5945264"><ele>1301.0</ele><time>2026-05-03T15:00:27.284Z</time></trkpt><trkpt lat="39.3415481" lon="16.5946145"><ele>1301.0</ele><time>2026-05-03T15:00:29.274Z</time></trkpt><trkpt lat="39.3415895" lon="16.5946877"><ele>1301.0</ele><time>2026-05-03T15:00:31.278Z</time></trkpt><trkpt lat="39.3416749" lon="16.5947633"><ele>1301.0</ele><time>2026-05-03T15:00:33.28Z</time></trkpt><trkpt lat="39.3417433" lon="16.5948174"><ele>1301.0</ele><time>2026-05-03T15:00:34.271Z</time></trkpt><trkpt lat="39.3418272" lon="16.5948896"><ele>1301.0</ele><time>2026-05-03T15:00:36.272Z</time></trkpt><trkpt lat="39.3418933" lon="16.5949334"><ele>1301.0</ele><time>2026-05-03T15:00:48.276Z</time></trkpt><trkpt lat="39.3418702" lon="16.5950342"><ele>1301.0</ele><time>2026-05-03T15:00:51.298Z</time></trkpt><trkpt lat="39.3418567" lon="16.59513"><ele>1301.0</ele><time>2026-05-03T15:00:53.273Z</time></trkpt><trkpt lat="39.3418918" lon="16.5952037"><ele>1301.0</ele><time>2026-05-03T15:01:25.276Z</time></trkpt><trkpt lat="39.3418653" lon="16.5952893"><ele>1301.0</ele><time>2026-05-03T15:01:33.279Z</time></trkpt><trkpt lat="39.3418363" lon="16.5953768"><ele>1301.0</ele><time>2026-05-03T15:01:36.269Z</time></trkpt><trkpt lat="39.3418872" lon="16.5954453"><ele>1301.0</ele><time>2026-05-03T15:02:09.295Z</time></trkpt><trkpt lat="39.3418655" lon="16.5955373"><ele>1304.2857142857142</ele><time>2026-05-03T15:02:11.259Z</time></trkpt><trkpt lat="39.3418663" lon="16.5956222"><ele>1307.5714285714287</ele><time>2026-05-03T15:02:13.268Z</time></trkpt><trkpt lat="39.3418107" lon="16.5957097"><ele>1310.857142857143</ele><time>2026-05-03T15:02:17.293Z</time></trkpt><trkpt lat="39.3417823" lon="16.5957935"><ele>1314.142857142857</ele><time>2026-05-03T15:02:19.286Z</time></trkpt><trkpt lat="39.3418068" lon="16.5958904"><ele>1317.4285714285713</ele><time>2026-05-03T15:02:21.284Z</time></trkpt><trkpt lat="39.341799" lon="16.5959909"><ele>1320.7142857142858</ele><time>2026-05-03T15:02:23.275Z</time></trkpt><trkpt lat="39.3417981" lon="16.5960756"><ele>1324.0</ele><time>2026-05-03T15:02:25.272Z</time></trkpt><trkpt lat="39.3417858" lon="16.5961628"><ele>1325.7142857142858</ele><time>2026-05-03T15:02:27.285Z</time></trkpt><trkpt lat="39.3417597" lon="16.5962606"><ele>1327.4285714285713</ele><time>2026-05-03T15:02:30.288Z</time></trkpt><trkpt lat="39.3417299" lon="16.5963462"><ele>1329.142857142857</ele><time>2026-05-03T15:02:33.278Z</time></trkpt><trkpt lat="39.3416982" lon="16.5964255"><ele>1330.857142857143</ele><time>2026-05-03T15:02:37.28Z</time></trkpt><trkpt lat="39.3416993" lon="16.5965308"><ele>1332.5714285714287</ele><time>2026-05-03T15:02:41.279Z</time></trkpt><trkpt lat="39.3416824" lon="16.5966213"><ele>1334.2857142857142</ele><time>2026-05-03T15:02:45.278Z</time></trkpt><trkpt lat="39.3416802" lon="16.5967125"><ele>1336.0</ele><time>2026-05-03T15:02:50.273Z</time></trkpt><trkpt lat="39.3416733" lon="16.5968064"><ele>1336.0</ele><time>2026-05-03T15:03:04.284Z</time></trkpt><trkpt lat="39.3416238" lon="16.5968607"><ele>1336.0</ele><time>2026-05-03T15:03:07.281Z</time></trkpt><trkpt lat="39.3416112" lon="16.5969613"><ele>1336.0</ele><time>2026-05-03T15:03:10.281Z</time></trkpt><trkpt lat="39.3415659" lon="16.5970481"><ele>1336.0</ele><time>2026-05-03T15:03:13.273Z</time></trkpt><trkpt lat="39.3415088" lon="16.5971499"><ele>1336.0</ele><time>2026-05-03T15:03:16.274Z</time></trkpt><trkpt lat="39.3415168" lon="16.5972714"><ele>1336.0</ele><time>2026-05-03T15:03:20.325Z</time></trkpt><trkpt lat="39.3415443" lon="16.5973572"><ele>1336.5714285714284</ele><time>2026-05-03T15:03:23.286Z</time></trkpt><trkpt lat="39.3415305" lon="16.5974384"><ele>1337.142857142857</ele><time>2026-05-03T15:03:39.269Z</time></trkpt><trkpt lat="39.3415796" lon="16.5975068"><ele>1337.7142857142858</ele><time>2026-05-03T15:03:44.268Z</time></trkpt><trkpt lat="39.3416265" lon="16.5975807"><ele>1338.2857142857142</ele><time>2026-05-03T15:03:48.284Z</time></trkpt><trkpt lat="39.3416991" lon="16.5976017"><ele>1338.857142857143</ele><time>2026-05-03T15:03:53.272Z</time></trkpt><trkpt lat="39.3417789" lon="16.5976561"><ele>1339.4285714285713</ele><time>2026-05-03T15:03:58.277Z</time></trkpt><trkpt lat="39.3418275" lon="16.5977093"><ele>1340.0</ele><time>2026-05-03T15:04:02.278Z</time></trkpt><trkpt lat="39.3418862" lon="16.5977482"><ele>1339.9999999999998</ele><time>2026-05-03T15:04:06.277Z</time></trkpt><trkpt lat="39.3419599" lon="16.5977807"><ele>1340.0</ele><time>2026-05-03T15:04:09.271Z</time></trkpt><trkpt lat="39.342021" lon="16.5978046"><ele>1340.0</ele><time>2026-05-03T15:04:12.272Z</time></trkpt><trkpt lat="39.3420857" lon="16.5978196"><ele>1340.0</ele><time>2026-05-03T15:04:16.277Z</time></trkpt><trkpt lat="39.342164" lon="16.5978725"><ele>1340.0</ele><time>2026-05-03T15:04:30.276Z</time></trkpt><trkpt lat="39.3421187" lon="16.5978094"><ele>1339.9999999999998</ele><time>2026-05-03T15:04:44.273Z</time></trkpt><trkpt lat="39.3420553" lon="16.5978027"><ele>1340.0</ele><time>2026-05-03T15:04:48.275Z</time></trkpt><trkpt lat="39.3419502" lon="16.5977572"><ele>1340.0</ele><time>2026-05-03T15:04:51.277Z</time></trkpt><trkpt lat="39.3418765" lon="16.5977125"><ele>1340.0</ele><time>2026-05-03T15:04:53.272Z</time></trkpt><trkpt lat="39.3418176" lon="16.5976428"><ele>1340.0</ele><time>2026-05-03T15:04:55.27Z</time></trkpt><trkpt lat="39.3417523" lon="16.5976098"><ele>1340.0</ele><time>2026-05-03T15:04:57.274Z</time></trkpt><trkpt lat="39.3416794" lon="16.5976274"><ele>1340.0</ele><time>2026-05-03T15:04:59.267Z</time></trkpt><trkpt lat="39.3416021" lon="16.597663"><ele>1340.0</ele><time>2026-05-03T15:05:02.278Z</time></trkpt><trkpt lat="39.3415429" lon="16.5977052"><ele>1340.0</ele><time>2026-05-03T15:05:09.279Z</time></trkpt><trkpt lat="39.3415651" lon="16.5976218"><ele>1340.0</ele><time>2026-05-03T15:05:27.269Z</time></trkpt><trkpt lat="39.3416459" lon="16.5976168"><ele>1340.0</ele><time>2026-05-03T15:06:38.27Z</time></trkpt><trkpt lat="39.3415823" lon="16.597528"><ele>1340.0</ele><time>2026-05-03T15:06:45.275Z</time></trkpt><trkpt lat="39.3415173" lon="16.5974269"><ele>1340.0</ele><time>2026-05-03T15:06:47.279Z</time></trkpt><trkpt lat="39.341492" lon="16.5973438"><ele>1340.0</ele><time>2026-05-03T15:06:48.276Z</time></trkpt><trkpt lat="39.3414568" lon="16.5972355"><ele>1340.0</ele><time>2026-05-03T15:06:50.276Z</time></trkpt><trkpt lat="39.3414233" lon="16.5971389"><ele>1340.0</ele><time>2026-05-03T15:06:52.271Z</time></trkpt><trkpt lat="39.3414071" lon="16.5970546"><ele>1340.0</ele><time>2026-05-03T15:07:00.271Z</time></trkpt><trkpt lat="39.3414435" lon="16.5971467"><ele>1340.0</ele><time>2026-05-03T15:07:08.272Z</time></trkpt><trkpt lat="39.3414968" lon="16.5972158"><ele>1340.0</ele><time>2026-05-03T15:07:12.291Z</time></trkpt><trkpt lat="39.3415473" lon="16.5971523"><ele>1340.0</ele><time>2026-05-03T15:07:20.278Z</time></trkpt><trkpt lat="39.341604" lon="16.5970762"><ele>1339.9999999999998</ele><time>2026-05-03T15:07:23.271Z</time></trkpt><trkpt lat="39.3416618" lon="16.597013"><ele>1340.0</ele><time>2026-05-03T15:07:25.265Z</time></trkpt><trkpt lat="39.3417069" lon="16.5969542"><ele>1340.0</ele><time>2026-05-03T15:07:27.277Z</time></trkpt><trkpt lat="39.341746" lon="16.596877"><ele>1340.0</ele><time>2026-05-03T15:07:32.275Z</time></trkpt><trkpt lat="39.3417588" lon="16.5967949"><ele>1340.0</ele><time>2026-05-03T15:07:44.269Z</time></trkpt><trkpt lat="39.3417324" lon="16.5967157"><ele>1339.9999999999998</ele><time>2026-05-03T15:07:49.265Z</time></trkpt><trkpt lat="39.3417442" lon="16.5966313"><ele>1340.0</ele><time>2026-05-03T15:07:53.273Z</time></trkpt><trkpt lat="39.3417316" lon="16.596549"><ele>1339.4285714285713</ele><time>2026-05-03T15:07:57.273Z</time></trkpt><trkpt lat="39.341725" lon="16.5964524"><ele>1338.857142857143</ele><time>2026-05-03T15:08:01.275Z</time></trkpt><trkpt lat="39.3417517" lon="16.596368"><ele>1338.2857142857142</ele><time>2026-05-03T15:08:07.265Z</time></trkpt><trkpt lat="39.3418051" lon="16.5963168"><ele>1337.7142857142858</ele><time>2026-05-03T15:08:11.279Z</time></trkpt><trkpt lat="39.3418577" lon="16.5962383"><ele>1337.142857142857</ele><time>2026-05-03T15:08:18.271Z</time></trkpt><trkpt lat="39.341886" lon="16.5961432"><ele>1336.5714285714284</ele><time>2026-05-03T15:08:21.282Z</time></trkpt><trkpt lat="39.3418717" lon="16.596059"><ele>1336.0</ele><time>2026-05-03T15:08:25.281Z</time></trkpt><trkpt lat="39.3418711" lon="16.5959685"><ele>1334.2857142857142</ele><time>2026-05-03T15:08:30.278Z</time></trkpt><trkpt lat="39.3418597" lon="16.5958879"><ele>1332.5714285714287</ele><time>2026-05-03T15:08:34.271Z</time></trkpt><trkpt lat="39.3418801" lon="16.5957968"><ele>1330.857142857143</ele><time>2026-05-03T15:08:39.265Z</time></trkpt><trkpt lat="39.3419122" lon="16.5957255"><ele>1329.142857142857</ele><time>2026-05-03T15:08:42.273Z</time></trkpt><trkpt lat="39.3419609" lon="16.5956384"><ele>1327.4285714285713</ele><time>2026-05-03T15:08:45.262Z</time></trkpt><trkpt lat="39.3420037" lon="16.5955705"><ele>1325.7142857142858</ele><time>2026-05-03T15:08:48.272Z</time></trkpt><trkpt lat="39.3420242" lon="16.5954719"><ele>1324.0</ele><time>2026-05-03T15:08:52.272Z</time></trkpt><trkpt lat="39.3420259" lon="16.5953803"><ele>1320.7142857142858</ele><time>2026-05-03T15:08:55.269Z</time></trkpt><trkpt lat="39.3419889" lon="16.5953119"><ele>1317.4285714285713</ele><time>2026-05-03T15:09:00.283Z</time></trkpt><trkpt lat="39.3419396" lon="16.5952569"><ele>1314.142857142857</ele><time>2026-05-03T15:09:04.289Z</time></trkpt><trkpt lat="39.3418784" lon="16.5952139"><ele>1310.857142857143</ele><time>2026-05-03T15:09:07.274Z</time></trkpt><trkpt lat="39.3418764" lon="16.5951108"><ele>1307.5714285714287</ele><time>2026-05-03T15:09:10.27Z</time></trkpt><trkpt lat="39.3419219" lon="16.5950171"><ele>1304.2857142857142</ele><time>2026-05-03T15:09:13.281Z</time></trkpt><trkpt lat="39.3420022" lon="16.5949872"><ele>1301.0</ele><time>2026-05-03T15:09:16.266Z</time></trkpt><trkpt lat="39.3420703" lon="16.5949726"><ele>1301.0</ele><time>2026-05-03T15:09:18.272Z</time></trkpt><trkpt lat="39.3421747" lon="16.5949745"><ele>1301.0</ele><time>2026-05-03T15:09:21.268Z</time></trkpt><trkpt lat="39.3422466" lon="16.5949657"><ele>1301.0</ele><time>2026-05-03T15:09:24.279Z</time></trkpt><trkpt lat="39.3423269" lon="16.5949804"><ele>1301.0</ele><time>2026-05-03T15:09:43.294Z</time></trkpt><trkpt lat="39.3424598" lon="16.5950071"><ele>1301.0</ele><time>2026-05-03T15:09:48.267Z</time></trkpt><trkpt lat="39.3425443" lon="16.5950385"><ele>1299.8333333333335</ele><time>2026-05-03T15:09:49.267Z</time></trkpt><trkpt lat="39.342625" lon="16.5950659"><ele>1298.6666666666667</ele><time>2026-05-03T15:09:50.272Z</time></trkpt><trkpt lat="39.3426851" lon="16.5950924"><ele>1297.5</ele><time>2026-05-03T15:09:51.268Z</time></trkpt><trkpt lat="39.342782" lon="16.5951365"><ele>1296.3333333333333</ele><time>2026-05-03T15:09:53.272Z</time></trkpt><trkpt lat="39.342849" lon="16.5951659"><ele>1295.1666666666665</ele><time>2026-05-03T15:10:00.272Z</time></trkpt><trkpt lat="39.3429128" lon="16.5951894"><ele>1294.0</ele><time>2026-05-03T15:10:03.282Z</time></trkpt><trkpt lat="39.3429831" lon="16.5952942"><ele>1295.8333333333333</ele><time>2026-05-03T15:10:05.265Z</time></trkpt><trkpt lat="39.3429928" lon="16.5954039"><ele>1297.6666666666665</ele><time>2026-05-03T15:10:06.278Z</time></trkpt><trkpt lat="39.3429753" lon="16.5955157"><ele>1299.5</ele><time>2026-05-03T15:10:07.262Z</time></trkpt><trkpt lat="39.3429643" lon="16.5956179"><ele>1301.3333333333333</ele><time>2026-05-03T15:10:08.27Z</time></trkpt><trkpt lat="39.3429591" lon="16.5956997"><ele>1303.1666666666667</ele><time>2026-05-03T15:10:09.27Z</time></trkpt><trkpt lat="39.3429488" lon="16.5957832"><ele>1305.0</ele><time>2026-05-03T15:10:11.274Z</time></trkpt><trkpt lat="39.3429401" lon="16.5958707"><ele>1305.0</ele><time>2026-05-03T15:10:14.276Z</time></trkpt><trkpt lat="39.3429243" lon="16.5960119"><ele>1305.0</ele><time>2026-05-03T15:10:16.271Z</time></trkpt><trkpt lat="39.3429082" lon="16.5961149"><ele>1305.0</ele><time>2026-05-03T15:10:17.272Z</time></trkpt><trkpt lat="39.3428941" lon="16.5962123"><ele>1305.0</ele><time>2026-05-03T15:10:18.272Z</time></trkpt><trkpt lat="39.3428774" lon="16.5963212"><ele>1305.0</ele><time>2026-05-03T15:10:19.263Z</time></trkpt><trkpt lat="39.3428623" lon="16.5964353"><ele>1305.0</ele><time>2026-05-03T15:10:20.272Z</time></trkpt><trkpt lat="39.3428454" lon="16.596557"><ele>1306.0</ele><time>2026-05-03T15:10:21.266Z</time></trkpt><trkpt lat="39.3428305" lon="16.5966703"><ele>1307.0</ele><time>2026-05-03T15:10:22.279Z</time></trkpt><trkpt lat="39.3428163" lon="16.5967742"><ele>1308.0</ele><time>2026-05-03T15:10:23.275Z</time></trkpt><trkpt lat="39.342804" lon="16.5968702"><ele>1309.0</ele><time>2026-05-03T15:10:24.273Z</time></trkpt><trkpt lat="39.3427929" lon="16.5970062"><ele>1310.0</ele><time>2026-05-03T15:10:26.273Z</time></trkpt><trkpt lat="39.3427963" lon="16.5971028"><ele>1311.0</ele><time>2026-05-03T15:10:29.274Z</time></trkpt><trkpt lat="39.3428051" lon="16.5971956"><ele>1311.1666666666667</ele><time>2026-05-03T15:13:47.27Z</time></trkpt><trkpt lat="39.3428237" lon="16.597309"><ele>1311.3333333333333</ele><time>2026-05-03T15:13:50.271Z</time></trkpt><trkpt lat="39.3428354" lon="16.5974138"><ele>1311.5</ele><time>2026-05-03T15:13:52.277Z</time></trkpt><trkpt lat="39.3428366" lon="16.5975297"><ele>1311.6666666666665</ele><time>2026-05-03T15:13:54.272Z</time></trkpt><trkpt lat="39.342831" lon="16.597613"><ele>1311.8333333333333</ele><time>2026-05-03T15:13:55.275Z</time></trkpt><trkpt lat="39.3428244" lon="16.5977173"><ele>1312.0</ele><time>2026-05-03T15:13:57.277Z</time></trkpt><trkpt lat="39.3428193" lon="16.59781"><ele>1309.3333333333333</ele><time>2026-05-03T15:14:00.267Z</time></trkpt><trkpt lat="39.3428136" lon="16.5979179"><ele>1306.6666666666665</ele><time>2026-05-03T15:14:05.271Z</time></trkpt><trkpt lat="39.342798" lon="16.5980075"><ele>1304.0</ele><time>2026-05-03T15:14:07.279Z</time></trkpt><trkpt lat="39.3427826" lon="16.598132"><ele>1301.3333333333333</ele><time>2026-05-03T15:14:09.266Z</time></trkpt><trkpt lat="39.3427553" lon="16.5982266"><ele>1298.6666666666667</ele><time>2026-05-03T15:14:11.272Z</time></trkpt><trkpt lat="39.3427146" lon="16.598302"><ele>1296.0</ele><time>2026-05-03T15:14:15.278Z</time></trkpt><trkpt lat="39.3426825" lon="16.598413"><ele>1296.0</ele><time>2026-05-03T15:16:36.285Z</time></trkpt><trkpt lat="39.3426109" lon="16.5984347"><ele>1296.0</ele><time>2026-05-03T15:16:40.272Z</time></trkpt><trkpt lat="39.3425283" lon="16.5984964"><ele>1296.0</ele><time>2026-05-03T15:17:00.274Z</time></trkpt><trkpt lat="39.342633" lon="16.5984487"><ele>1296.0</ele><time>2026-05-03T15:17:34.278Z</time></trkpt><trkpt lat="39.3426937" lon="16.5983416"><ele>1296.0</ele><time>2026-05-03T15:17:52.271Z</time></trkpt><trkpt lat="39.3427506" lon="16.5982431"><ele>1296.0</ele><time>2026-05-03T15:17:55.287Z</time></trkpt><trkpt lat="39.3427858" lon="16.5981644"><ele>1296.0</ele><time>2026-05-03T15:17:58.266Z</time></trkpt><trkpt lat="39.3428028" lon="16.5980267"><ele>1296.0</ele><time>2026-05-03T15:18:01.27Z</time></trkpt><trkpt lat="39.3428125" lon="16.5979046"><ele>1296.0</ele><time>2026-05-03T15:18:03.277Z</time></trkpt><trkpt lat="39.3428167" lon="16.5977126"><ele>1296.0</ele><time>2026-05-03T15:18:05.272Z</time></trkpt><trkpt lat="39.3428196" lon="16.5976134"><ele>1298.5</ele><time>2026-05-03T15:18:06.268Z</time></trkpt><trkpt lat="39.3428187" lon="16.5975109"><ele>1301.0</ele><time>2026-05-03T15:18:07.272Z</time></trkpt><trkpt lat="39.34282" lon="16.5974069"><ele>1303.5</ele><time>2026-05-03T15:18:08.266Z</time></trkpt><trkpt lat="39.3428151" lon="16.5972903"><ele>1306.0</ele><time>2026-05-03T15:18:09.279Z</time></trkpt><trkpt lat="39.3427992" lon="16.59719"><ele>1308.5</ele><time>2026-05-03T15:18:10.267Z</time></trkpt><trkpt lat="39.3427873" lon="16.5970873"><ele>1311.0</ele><time>2026-05-03T15:18:11.266Z</time></trkpt><trkpt lat="39.3427767" lon="16.5969832"><ele>1311.0</ele><time>2026-05-03T15:18:12.274Z</time></trkpt><trkpt lat="39.3427772" lon="16.5968836"><ele>1311.0</ele><time>2026-05-03T15:18:13.275Z</time></trkpt><trkpt lat="39.3427795" lon="16.5967879"><ele>1311.0</ele><time>2026-05-03T15:18:14.277Z</time></trkpt><trkpt lat="39.3428036" lon="16.5967057"><ele>1311.0</ele><time>2026-05-03T15:18:15.274Z</time></trkpt><trkpt lat="39.3428301" lon="16.5966301"><ele>1311.0</ele><time>2026-05-03T15:18:16.269Z</time></trkpt><trkpt lat="39.3428736" lon="16.5964923"><ele>1311.0</ele><time>2026-05-03T15:18:18.271Z</time></trkpt><trkpt lat="39.3429021" lon="16.5963867"><ele>1311.0</ele><time>2026-05-03T15:18:20.272Z</time></trkpt><trkpt lat="39.342912" lon="16.5963048"><ele>1311.0</ele><time>2026-05-03T15:18:23.267Z</time></trkpt><trkpt lat="39.3429053" lon="16.5962079"><ele>1311.0</ele><time>2026-05-03T15:18:35.281Z</time></trkpt><trkpt lat="39.3429274" lon="16.596068"><ele>1311.0</ele><time>2026-05-03T15:18:37.274Z</time></trkpt><trkpt lat="39.3429523" lon="16.595924"><ele>1311.0</ele><time>2026-05-03T15:18:39.263Z</time></trkpt><trkpt lat="39.3429611" lon="16.5958412"><ele>1311.0</ele><time>2026-05-03T15:18:43.276Z</time></trkpt><trkpt lat="39.3429615" lon="16.5957251"><ele>1309.8</ele><time>2026-05-03T15:18:50.282Z</time></trkpt><trkpt lat="39.3429776" lon="16.5955496"><ele>1308.6</ele><time>2026-05-03T15:18:52.279Z</time></trkpt><trkpt lat="39.3429881" lon="16.595451"><ele>1307.4</ele><time>2026-05-03T15:18:53.272Z</time></trkpt><trkpt lat="39.3429916" lon="16.5953567"><ele>1306.2</ele><time>2026-05-03T15:18:54.269Z</time></trkpt><trkpt lat="39.3429878" lon="16.5952695"><ele>1305.0</ele><time>2026-05-03T15:18:55.263Z</time></trkpt><trkpt lat="39.3429367" lon="16.5951555"><ele>1302.8</ele><time>2026-05-03T15:18:57.264Z</time></trkpt><trkpt lat="39.3428582" lon="16.5951158"><ele>1300.6</ele><time>2026-05-03T15:19:02.268Z</time></trkpt><trkpt lat="39.3427581" lon="16.595071"><ele>1298.4</ele><time>2026-05-03T15:19:05.268Z</time></trkpt><trkpt lat="39.3426709" lon="16.5950395"><ele>1296.2</ele><time>2026-05-03T15:19:07.27Z</time></trkpt><trkpt lat="39.3425844" lon="16.5950117"><ele>1294.0</ele><time>2026-05-03T15:19:09.271Z</time></trkpt><trkpt lat="39.3424701" lon="16.5949814"><ele>1294.0</ele><time>2026-05-03T15:19:11.271Z</time></trkpt><trkpt lat="39.3423938" lon="16.5949588"><ele>1294.0</ele><time>2026-05-03T15:19:13.277Z</time></trkpt><trkpt lat="39.342329" lon="16.5949584"><ele>1294.0</ele><time>2026-05-03T15:19:16.309Z</time></trkpt><trkpt lat="39.3422644" lon="16.594948"><ele>1294.0</ele><time>2026-05-03T15:20:56.278Z</time></trkpt><trkpt lat="39.3421996" lon="16.5949651"><ele>1294.0</ele><time>2026-05-03T15:21:01.28Z</time></trkpt><trkpt lat="39.3421308" lon="16.5949804"><ele>1294.0</ele><time>2026-05-03T15:21:26.269Z</time></trkpt><trkpt lat="39.3420514" lon="16.5949704"><ele>1294.0</ele><time>2026-05-03T15:21:38.274Z</time></trkpt><trkpt lat="39.3419804" lon="16.5949798"><ele>1295.1666666666665</ele><time>2026-05-03T15:21:44.275Z</time></trkpt><trkpt lat="39.3419137" lon="16.5949339"><ele>1296.3333333333333</ele><time>2026-05-03T15:21:50.274Z</time></trkpt><trkpt lat="39.3418328" lon="16.5949215"><ele>1297.5</ele><time>2026-05-03T15:21:54.28Z</time></trkpt><trkpt lat="39.3417798" lon="16.5948625"><ele>1298.6666666666667</ele><time>2026-05-03T15:22:27.274Z</time></trkpt><trkpt lat="39.3417048" lon="16.5947996"><ele>1299.8333333333335</ele><time>2026-05-03T15:22:28.295Z</time></trkpt><trkpt lat="39.34163" lon="16.5947392"><ele>1301.0</ele><time>2026-05-03T15:22:29.269Z</time></trkpt><trkpt lat="39.3415688" lon="16.5946941"><ele>1301.0</ele><time>2026-05-03T15:22:30.275Z</time></trkpt><trkpt lat="39.3415174" lon="16.5946264"><ele>1301.0</ele><time>2026-05-03T15:22:31.272Z</time></trkpt><trkpt lat="39.3414742" lon="16.5945422"><ele>1301.0</ele><time>2026-05-03T15:22:32.266Z</time></trkpt><trkpt lat="39.3414326" lon="16.594475"><ele>1301.0</ele><time>2026-05-03T15:22:33.274Z</time></trkpt><trkpt lat="39.3413859" lon="16.5944181"><ele>1301.0</ele><time>2026-05-03T15:22:34.271Z</time></trkpt><trkpt lat="39.3413293" lon="16.5943567"><ele>1301.0</ele><time>2026-05-03T15:22:35.277Z</time></trkpt><trkpt lat="39.3412579" lon="16.5942944"><ele>1301.0</ele><time>2026-05-03T15:22:36.266Z</time></trkpt><trkpt lat="39.3411759" lon="16.5942228"><ele>1302.6666666666667</ele><time>2026-05-03T15:22:37.265Z</time></trkpt><trkpt lat="39.3411096" lon="16.5941536"><ele>1304.3333333333335</ele><time>2026-05-03T15:22:38.269Z</time></trkpt><trkpt lat="39.3410578" lon="16.5940564"><ele>1306.0</ele><time>2026-05-03T15:22:40.277Z</time></trkpt><trkpt lat="39.3410365" lon="16.593978"><ele>1307.6666666666667</ele><time>2026-05-03T15:22:42.268Z</time></trkpt><trkpt lat="39.3410125" lon="16.5938726"><ele>1309.3333333333333</ele><time>2026-05-03T15:22:44.265Z</time></trkpt><trkpt lat="39.3409962" lon="16.593788"><ele>1311.0</ele><time>2026-05-03T15:22:45.275Z</time></trkpt><trkpt lat="39.3409794" lon="16.5936822"><ele>1310.0</ele><time>2026-05-03T15:22:46.275Z</time></trkpt><trkpt lat="39.3409696" lon="16.5935868"><ele>1309.0</ele><time>2026-05-03T15:22:47.262Z</time></trkpt><trkpt lat="39.3409598" lon="16.5935051"><ele>1308.0</ele><time>2026-05-03T15:22:48.274Z</time></trkpt><trkpt lat="39.3409404" lon="16.5933897"><ele>1307.0</ele><time>2026-05-03T15:22:50.273Z</time></trkpt><trkpt lat="39.3409297" lon="16.5932451"><ele>1306.0</ele><time>2026-05-03T15:22:52.272Z</time></trkpt><trkpt lat="39.3409423" lon="16.5931563"><ele>1305.0</ele><time>2026-05-03T15:22:53.275Z</time></trkpt><trkpt lat="39.3409581" lon="16.5930638"><ele>1305.0</ele><time>2026-05-03T15:22:54.269Z</time></trkpt><trkpt lat="39.3409736" lon="16.5929595"><ele>1305.0</ele><time>2026-05-03T15:22:55.272Z</time></trkpt><trkpt lat="39.340989" lon="16.592844"><ele>1305.0</ele><time>2026-05-03T15:22:56.28Z</time></trkpt><trkpt lat="39.3410092" lon="16.5927331"><ele>1305.0</ele><time>2026-05-03T15:22:57.276Z</time></trkpt><trkpt lat="39.341038" lon="16.5926317"><ele>1305.0</ele><time>2026-05-03T15:22:58.27Z</time></trkpt><trkpt lat="39.3410923" lon="16.5925364"><ele>1305.0</ele><time>2026-05-03T15:23:00.272Z</time></trkpt><trkpt lat="39.3411321" lon="16.5924644"><ele>1305.5</ele><time>2026-05-03T15:23:03.272Z</time></trkpt><trkpt lat="39.3411754" lon="16.5923808"><ele>1306.0</ele><time>2026-05-03T15:23:05.263Z</time></trkpt><trkpt lat="39.3412076" lon="16.5922915"><ele>1306.5</ele><time>2026-05-03T15:23:06.274Z</time></trkpt><trkpt lat="39.3412387" lon="16.5921735"><ele>1307.0</ele><time>2026-05-03T15:23:07.267Z</time></trkpt><trkpt lat="39.3412648" lon="16.5920565"><ele>1307.5</ele><time>2026-05-03T15:23:08.273Z</time></trkpt><trkpt lat="39.3412687" lon="16.5919421"><ele>1308.0</ele><time>2026-05-03T15:23:09.262Z</time></trkpt><trkpt lat="39.3412402" lon="16.5918069"><ele>1308.2</ele><time>2026-05-03T15:23:10.269Z</time></trkpt><trkpt lat="39.3412121" lon="16.5916557"><ele>1308.4</ele><time>2026-05-03T15:23:11.268Z</time></trkpt><trkpt lat="39.3411961" lon="16.5915159"><ele>1308.6000000000001</ele><time>2026-05-03T15:23:12.271Z</time></trkpt><trkpt lat="39.3411929" lon="16.5913966"><ele>1308.8000000000002</ele><time>2026-05-03T15:23:13.267Z</time></trkpt><trkpt lat="39.3411901" lon="16.5912937"><ele>1309.0</ele><time>2026-05-03T15:23:14.272Z</time></trkpt><trkpt lat="39.3411816" lon="16.5911861"><ele>1308.5</ele><time>2026-05-03T15:23:15.272Z</time></trkpt><trkpt lat="39.3411663" lon="16.5910756"><ele>1308.0</ele><time>2026-05-03T15:23:16.268Z</time></trkpt><trkpt lat="39.3411404" lon="16.5909786"><ele>1307.5</ele><time>2026-05-03T15:23:17.265Z</time></trkpt><trkpt lat="39.3411031" lon="16.5909083"><ele>1307.0</ele><time>2026-05-03T15:23:18.28Z</time></trkpt><trkpt lat="39.3410665" lon="16.5907848"><ele>1306.5</ele><time>2026-05-03T15:23:20.282Z</time></trkpt><trkpt lat="39.3410797" lon="16.5907036"><ele>1306.0</ele><time>2026-05-03T15:23:21.272Z</time></trkpt><trkpt lat="39.3410953" lon="16.5906048"><ele>1306.0</ele><time>2026-05-03T15:23:22.27Z</time></trkpt><trkpt lat="39.3411107" lon="16.590473"><ele>1306.0</ele><time>2026-05-03T15:23:23.273Z</time></trkpt><trkpt lat="39.341123" lon="16.5903409"><ele>1306.0</ele><time>2026-05-03T15:23:24.271Z</time></trkpt><trkpt lat="39.3411361" lon="16.5902235"><ele>1306.0</ele><time>2026-05-03T15:23:25.27Z</time></trkpt><trkpt lat="39.3411519" lon="16.590113"><ele>1306.0</ele><time>2026-05-03T15:23:26.266Z</time></trkpt><trkpt lat="39.3411708" lon="16.5899986"><ele>1305.8</ele><time>2026-05-03T15:23:27.268Z</time></trkpt><trkpt lat="39.3411847" lon="16.58988"><ele>1305.6</ele><time>2026-05-03T15:23:28.265Z</time></trkpt><trkpt lat="39.3411798" lon="16.5897423"><ele>1305.4</ele><time>2026-05-03T15:23:29.269Z</time></trkpt><trkpt lat="39.3411681" lon="16.5896039"><ele>1305.2</ele><time>2026-05-03T15:23:30.277Z</time></trkpt><trkpt lat="39.3411443" lon="16.5894793"><ele>1305.0</ele><time>2026-05-03T15:23:31.275Z</time></trkpt><trkpt lat="39.3411031" lon="16.5893675"><ele>1304.8333333333333</ele><time>2026-05-03T15:23:32.273Z</time></trkpt><trkpt lat="39.341057" lon="16.5892567"><ele>1304.6666666666667</ele><time>2026-05-03T15:23:33.269Z</time></trkpt><trkpt lat="39.3410141" lon="16.5891424"><ele>1304.5</ele><time>2026-05-03T15:23:34.275Z</time></trkpt><trkpt lat="39.3409911" lon="16.5890361"><ele>1304.3333333333335</ele><time>2026-05-03T15:23:35.272Z</time></trkpt><trkpt lat="39.3409831" lon="16.5889497"><ele>1304.1666666666667</ele><time>2026-05-03T15:23:36.268Z</time></trkpt><trkpt lat="39.3409927" lon="16.5888573"><ele>1304.0</ele><time>2026-05-03T15:23:38.266Z</time></trkpt><trkpt lat="39.34106" lon="16.5887791"><ele>1304.0</ele><time>2026-05-03T15:23:40.265Z</time></trkpt><trkpt lat="39.3411745" lon="16.5887526"><ele>1304.0</ele><time>2026-05-03T15:23:42.265Z</time></trkpt><trkpt lat="39.34123" lon="16.5888418"><ele>1304.0</ele><time>2026-05-03T15:23:44.274Z</time></trkpt><trkpt lat="39.3412534" lon="16.5889344"><ele>1304.0</ele><time>2026-05-03T15:23:45.276Z</time></trkpt><trkpt lat="39.3413033" lon="16.5890251"><ele>1304.0</ele><time>2026-05-03T15:23:46.265Z</time></trkpt><trkpt lat="39.3413808" lon="16.5890753"><ele>1300.4</ele><time>2026-05-03T15:23:47.265Z</time></trkpt><trkpt lat="39.3414751" lon="16.5890713"><ele>1296.8000000000002</ele><time>2026-05-03T15:23:48.276Z</time></trkpt><trkpt lat="39.3415629" lon="16.5890292"><ele>1293.1999999999998</ele><time>2026-05-03T15:23:49.269Z</time></trkpt><trkpt lat="39.341638" lon="16.588942"><ele>1289.6</ele><time>2026-05-03T15:23:50.265Z</time></trkpt><trkpt lat="39.3416879" lon="16.5888189"><ele>1286.0</ele><time>2026-05-03T15:23:51.27Z</time></trkpt><trkpt lat="39.3417259" lon="16.5887334"><ele>1286.0</ele><time>2026-05-03T15:23:52.27Z</time></trkpt><trkpt lat="39.3418134" lon="16.5887067"><ele>1286.0</ele><time>2026-05-03T15:23:54.276Z</time></trkpt><trkpt lat="39.3418742" lon="16.5888255"><ele>1286.0</ele><time>2026-05-03T15:23:56.278Z</time></trkpt><trkpt lat="39.3418862" lon="16.5889453"><ele>1286.0</ele><time>2026-05-03T15:23:58.274Z</time></trkpt><trkpt lat="39.3418688" lon="16.5890967"><ele>1286.0</ele><time>2026-05-03T15:24:00.268Z</time></trkpt><trkpt lat="39.3418456" lon="16.5891969"><ele>1286.0</ele><time>2026-05-03T15:24:01.269Z</time></trkpt><trkpt lat="39.3418072" lon="16.5893059"><ele>1286.0</ele><time>2026-05-03T15:24:02.269Z</time></trkpt><trkpt lat="39.34176" lon="16.5894222"><ele>1286.0</ele><time>2026-05-03T15:24:03.265Z</time></trkpt><trkpt lat="39.3417097" lon="16.589544"><ele>1286.0</ele><time>2026-05-03T15:24:04.28Z</time></trkpt><trkpt lat="39.3416588" lon="16.5896559"><ele>1286.0</ele><time>2026-05-03T15:24:05.27Z</time></trkpt><trkpt lat="39.3416218" lon="16.5897514"><ele>1286.8</ele><time>2026-05-03T15:24:06.269Z</time></trkpt><trkpt lat="39.3416066" lon="16.5898349"><ele>1287.6</ele><time>2026-05-03T15:24:07.277Z</time></trkpt><trkpt lat="39.3415984" lon="16.5899158"><ele>1288.4</ele><time>2026-05-03T15:24:08.274Z</time></trkpt><trkpt lat="39.3415773" lon="16.5900777"><ele>1289.2</ele><time>2026-05-03T15:24:10.279Z</time></trkpt><trkpt lat="39.3415298" lon="16.5902356"><ele>1290.0</ele><time>2026-05-03T15:24:12.287Z</time></trkpt><trkpt lat="39.3415097" lon="16.5903359"><ele>1291.3333333333333</ele><time>2026-05-03T15:24:13.264Z</time></trkpt><trkpt lat="39.3415014" lon="16.5904485"><ele>1292.6666666666667</ele><time>2026-05-03T15:24:14.259Z</time></trkpt><trkpt lat="39.3415044" lon="16.5905632"><ele>1294.0</ele><time>2026-05-03T15:24:15.281Z</time></trkpt><trkpt lat="39.3415136" lon="16.5906685"><ele>1295.3333333333335</ele><time>2026-05-03T15:24:16.263Z</time></trkpt><trkpt lat="39.3415273" lon="16.5907644"><ele>1296.6666666666667</ele><time>2026-05-03T15:24:17.287Z</time></trkpt><trkpt lat="39.3415396" lon="16.590876"><ele>1298.0</ele><time>2026-05-03T15:24:18.271Z</time></trkpt><trkpt lat="39.3415434" lon="16.5910203"><ele>1297.25</ele><time>2026-05-03T15:24:19.265Z</time></trkpt><trkpt lat="39.3415471" lon="16.5911856"><ele>1296.5</ele><time>2026-05-03T15:24:20.268Z</time></trkpt><trkpt lat="39.3415806" lon="16.5913596"><ele>1295.75</ele><time>2026-05-03T15:24:21.274Z</time></trkpt><trkpt lat="39.3416366" lon="16.5915154"><ele>1295.0</ele><time>2026-05-03T15:24:22.272Z</time></trkpt><trkpt lat="39.3416901" lon="16.5916663"><ele>1295.0</ele><time>2026-05-03T15:24:23.27Z</time></trkpt><trkpt lat="39.341739" lon="16.5918377"><ele>1295.0</ele><time>2026-05-03T15:24:24.274Z</time></trkpt><trkpt lat="39.3417694" lon="16.5920296"><ele>1295.0</ele><time>2026-05-03T15:24:25.277Z</time></trkpt><trkpt lat="39.341802" lon="16.5922391"><ele>1294.0</ele><time>2026-05-03T15:24:26.262Z</time></trkpt><trkpt lat="39.3418261" lon="16.5924765"><ele>1293.0</ele><time>2026-05-03T15:24:27.263Z</time></trkpt><trkpt lat="39.34185" lon="16.5927282"><ele>1292.0</ele><time>2026-05-03T15:24:28.269Z</time></trkpt><trkpt lat="39.341874" lon="16.5929859"><ele>1291.3333333333335</ele><time>2026-05-03T15:24:29.264Z</time></trkpt><trkpt lat="39.3419088" lon="16.5932169"><ele>1290.6666666666667</ele><time>2026-05-03T15:24:30.28Z</time></trkpt><trkpt lat="39.3419375" lon="16.593408"><ele>1290.0</ele><time>2026-05-03T15:24:31.267Z</time></trkpt><trkpt lat="39.3419543" lon="16.593575"><ele>1289.0</ele><time>2026-05-03T15:24:32.266Z</time></trkpt><trkpt lat="39.3419756" lon="16.5937259"><ele>1288.0</ele><time>2026-05-03T15:24:33.266Z</time></trkpt><trkpt lat="39.3419909" lon="16.5938699"><ele>1287.0</ele><time>2026-05-03T15:24:34.268Z</time></trkpt><trkpt lat="39.3420514" lon="16.5939776"><ele>1286.0</ele><time>2026-05-03T15:24:35.273Z</time></trkpt><trkpt lat="39.3421564" lon="16.5940612"><ele>1290.0</ele><time>2026-05-03T15:24:36.277Z</time></trkpt><trkpt lat="39.3422972" lon="16.5941354"><ele>1294.0</ele><time>2026-05-03T15:24:37.271Z</time></trkpt><trkpt lat="39.3424548" lon="16.5942199"><ele>1298.0</ele><time>2026-05-03T15:24:38.268Z</time></trkpt><trkpt lat="39.3426214" lon="16.5942982"><ele>1298.0</ele><time>2026-05-03T15:24:39.27Z</time></trkpt><trkpt lat="39.3427808" lon="16.5943858"><ele>1298.0</ele><time>2026-05-03T15:24:40.269Z</time></trkpt><trkpt lat="39.3429272" lon="16.5944835"><ele>1298.0</ele><time>2026-05-03T15:24:41.28Z</time></trkpt><trkpt lat="39.343074" lon="16.5945706"><ele>1299.0</ele><time>2026-05-03T15:24:42.272Z</time></trkpt><trkpt lat="39.3431984" lon="16.5946781"><ele>1300.0</ele><time>2026-05-03T15:24:43.27Z</time></trkpt><trkpt lat="39.3432987" lon="16.594821"><ele>1301.0</ele><time>2026-05-03T15:24:44.277Z</time></trkpt><trkpt lat="39.3433708" lon="16.5949975"><ele>1301.0</ele><time>2026-05-03T15:24:45.267Z</time></trkpt><trkpt lat="39.3434362" lon="16.5951699"><ele>1301.0</ele><time>2026-05-03T15:24:46.27Z</time></trkpt><trkpt lat="39.3434826" lon="16.595372"><ele>1301.0</ele><time>2026-05-03T15:24:47.266Z</time></trkpt><trkpt lat="39.3435134" lon="16.5955552"><ele>1298.0</ele><time>2026-05-03T15:24:48.266Z</time></trkpt><trkpt lat="39.3435436" lon="16.5957257"><ele>1295.0</ele><time>2026-05-03T15:24:49.271Z</time></trkpt><trkpt lat="39.3435604" lon="16.5959278"><ele>1292.0</ele><time>2026-05-03T15:24:50.27Z</time></trkpt><trkpt lat="39.3435703" lon="16.5961341"><ele>1291.6666666666667</ele><time>2026-05-03T15:24:51.27Z</time></trkpt><trkpt lat="39.3435647" lon="16.5963547"><ele>1291.3333333333333</ele><time>2026-05-03T15:24:52.278Z</time></trkpt><trkpt lat="39.3435344" lon="16.5965578"><ele>1291.0</ele><time>2026-05-03T15:24:53.271Z</time></trkpt><trkpt lat="39.3434899" lon="16.5967552"><ele>1291.0</ele><time>2026-05-03T15:24:54.267Z</time></trkpt><trkpt lat="39.3434353" lon="16.5969701"><ele>1291.0</ele><time>2026-05-03T15:24:55.266Z</time></trkpt><trkpt lat="39.3433958" lon="16.5971569"><ele>1291.0</ele><time>2026-05-03T15:24:56.272Z</time></trkpt><trkpt lat="39.3433495" lon="16.5973312"><ele>1291.3333333333333</ele><time>2026-05-03T15:24:57.271Z</time></trkpt><trkpt lat="39.3433186" lon="16.5975346"><ele>1291.6666666666667</ele><time>2026-05-03T15:24:58.272Z</time></trkpt><trkpt lat="39.3433097" lon="16.5977459"><ele>1292.0</ele><time>2026-05-03T15:24:59.262Z</time></trkpt><trkpt lat="39.3433091" lon="16.5979827"><ele>1290.3333333333335</ele><time>2026-05-03T15:25:00.27Z</time></trkpt><trkpt lat="39.34329" lon="16.5982048"><ele>1288.6666666666667</ele><time>2026-05-03T15:25:01.278Z</time></trkpt><trkpt lat="39.3432783" lon="16.5984114"><ele>1287.0</ele><time>2026-05-03T15:25:02.269Z</time></trkpt><trkpt lat="39.343261" lon="16.5985996"><ele>1289.8</ele><time>2026-05-03T15:25:03.281Z</time></trkpt><trkpt lat="39.3432475" lon="16.5987708"><ele>1292.6</ele><time>2026-05-03T15:25:04.262Z</time></trkpt><trkpt lat="39.3432348" lon="16.5989202"><ele>1295.3999999999999</ele><time>2026-05-03T15:25:05.267Z</time></trkpt><trkpt lat="39.343192" lon="16.5990233"><ele>1298.1999999999998</ele><time>2026-05-03T15:25:06.274Z</time></trkpt><trkpt lat="39.3431485" lon="16.5991341"><ele>1301.0</ele><time>2026-05-03T15:25:07.267Z</time></trkpt><trkpt lat="39.3430803" lon="16.599252"><ele>1296.75</ele><time>2026-05-03T15:25:08.271Z</time></trkpt><trkpt lat="39.3429537" lon="16.5993156"><ele>1292.5</ele><time>2026-05-03T15:25:09.273Z</time></trkpt><trkpt lat="39.3428022" lon="16.5993375"><ele>1288.25</ele><time>2026-05-03T15:25:10.263Z</time></trkpt><trkpt lat="39.3426779" lon="16.5993948"><ele>1284.0</ele><time>2026-05-03T15:25:11.266Z</time></trkpt><trkpt lat="39.3425615" lon="16.5994612"><ele>1288.3333333333333</ele><time>2026-05-03T15:25:12.268Z</time></trkpt><trkpt lat="39.3424483" lon="16.599608"><ele>1292.6666666666665</ele><time>2026-05-03T15:25:13.279Z</time></trkpt><trkpt lat="39.3423335" lon="16.5997704"><ele>1297.0</ele><time>2026-05-03T15:25:14.274Z</time></trkpt><trkpt lat="39.34222" lon="16.5999483"><ele>1293.0</ele><time>2026-05-03T15:25:15.267Z</time></trkpt><trkpt lat="39.3421063" lon="16.6001237"><ele>1289.0</ele><time>2026-05-03T15:25:16.281Z</time></trkpt><trkpt lat="39.3420162" lon="16.6003074"><ele>1285.0</ele><time>2026-05-03T15:25:17.271Z</time></trkpt><trkpt lat="39.341931" lon="16.6004895"><ele>1283.25</ele><time>2026-05-03T15:25:18.266Z</time></trkpt><trkpt lat="39.3418541" lon="16.6006706"><ele>1281.5</ele><time>2026-05-03T15:25:19.271Z</time></trkpt><trkpt lat="39.3417774" lon="16.6008298"><ele>1279.75</ele><time>2026-05-03T15:25:20.27Z</time></trkpt><trkpt lat="39.3416855" lon="16.6009438"><ele>1278.0</ele><time>2026-05-03T15:25:21.276Z</time></trkpt><trkpt lat="39.3415828" lon="16.6010054"><ele>1278.0</ele><time>2026-05-03T15:25:22.265Z</time></trkpt><trkpt lat="39.3414928" lon="16.6010482"><ele>1278.0</ele><time>2026-05-03T15:25:23.278Z</time></trkpt><trkpt lat="39.3414108" lon="16.6009926"><ele>1278.0</ele><time>2026-05-03T15:25:24.278Z</time></trkpt><trkpt lat="39.3413655" lon="16.6009039"><ele>1278.0</ele><time>2026-05-03T15:25:25.269Z</time></trkpt><trkpt lat="39.3412644" lon="16.6008069"><ele>1278.0</ele><time>2026-05-03T15:25:26.268Z</time></trkpt><trkpt lat="39.3411827" lon="16.6007332"><ele>1279.0</ele><time>2026-05-03T15:25:27.273Z</time></trkpt><trkpt lat="39.3410806" lon="16.6007151"><ele>1280.0</ele><time>2026-05-03T15:25:28.267Z</time></trkpt><trkpt lat="39.3409549" lon="16.6007771"><ele>1281.0</ele><time>2026-05-03T15:25:29.27Z</time></trkpt><trkpt lat="39.3408196" lon="16.600833"><ele>1282.0</ele><time>2026-05-03T15:25:30.267Z</time></trkpt><trkpt lat="39.3406252" lon="16.6009515"><ele>1279.6666666666665</ele><time>2026-05-03T15:25:31.265Z</time></trkpt><trkpt lat="39.3404728" lon="16.6010572"><ele>1277.3333333333333</ele><time>2026-05-03T15:25:32.272Z</time></trkpt><trkpt lat="39.340298" lon="16.6011592"><ele>1275.0</ele><time>2026-05-03T15:25:33.273Z</time></trkpt><trkpt lat="39.3401374" lon="16.6012485"><ele>1275.0</ele><time>2026-05-03T15:25:34.262Z</time></trkpt><trkpt lat="39.3399864" lon="16.6013499"><ele>1275.0</ele><time>2026-05-03T15:25:35.274Z</time></trkpt><trkpt lat="39.3398368" lon="16.6014715"><ele>1275.0</ele><time>2026-05-03T15:25:36.264Z</time></trkpt><trkpt lat="39.3396885" lon="16.6016147"><ele>1274.3333333333333</ele><time>2026-05-03T15:25:37.271Z</time></trkpt><trkpt lat="39.3395342" lon="16.601764"><ele>1273.6666666666665</ele><time>2026-05-03T15:25:38.274Z</time></trkpt><trkpt lat="39.3393883" lon="16.601925"><ele>1273.0</ele><time>2026-05-03T15:25:39.271Z</time></trkpt><trkpt lat="39.3392491" lon="16.6021002"><ele>1273.0</ele><time>2026-05-03T15:25:40.282Z</time></trkpt><trkpt lat="39.339124" lon="16.6022849"><ele>1273.0</ele><time>2026-05-03T15:25:41.276Z</time></trkpt><trkpt lat="39.3390015" lon="16.602442"><ele>1273.0</ele><time>2026-05-03T15:25:42.276Z</time></trkpt><trkpt lat="39.3388851" lon="16.6025979"><ele>1276.5</ele><time>2026-05-03T15:25:43.272Z</time></trkpt><trkpt lat="39.3387739" lon="16.6027399"><ele>1280.0</ele><time>2026-05-03T15:25:44.271Z</time></trkpt><trkpt lat="39.338674" lon="16.6028612"><ele>1283.5</ele><time>2026-05-03T15:25:45.267Z</time></trkpt><trkpt lat="39.3385933" lon="16.6030048"><ele>1287.0</ele><time>2026-05-03T15:25:46.266Z</time></trkpt><trkpt lat="39.3385192" lon="16.6031509"><ele>1287.0</ele><time>2026-05-03T15:25:47.261Z</time></trkpt><trkpt lat="39.3384851" lon="16.6033271"><ele>1287.0</ele><time>2026-05-03T15:25:48.262Z</time></trkpt><trkpt lat="39.338481" lon="16.6035294"><ele>1287.0</ele><time>2026-05-03T15:25:49.276Z</time></trkpt><trkpt lat="39.3384474" lon="16.6036833"><ele>1287.0</ele><time>2026-05-03T15:25:50.274Z</time></trkpt><trkpt lat="39.3383518" lon="16.6037834"><ele>1285.75</ele><time>2026-05-03T15:25:51.269Z</time></trkpt><trkpt lat="39.3382807" lon="16.6038954"><ele>1284.5</ele><time>2026-05-03T15:25:52.272Z</time></trkpt><trkpt lat="39.338201" lon="16.6040289"><ele>1283.25</ele><time>2026-05-03T15:25:53.266Z</time></trkpt><trkpt lat="39.3381731" lon="16.6042331"><ele>1282.0</ele><time>2026-05-03T15:25:54.273Z</time></trkpt><trkpt lat="39.3381432" lon="16.6044365"><ele>1281.3333333333333</ele><time>2026-05-03T15:25:55.276Z</time></trkpt><trkpt lat="39.3381147" lon="16.6046619"><ele>1280.6666666666667</ele><time>2026-05-03T15:25:56.262Z</time></trkpt><trkpt lat="39.3380795" lon="16.6048772"><ele>1280.0</ele><time>2026-05-03T15:25:57.268Z</time></trkpt><trkpt lat="39.3380477" lon="16.6050855"><ele>1285.5</ele><time>2026-05-03T15:25:58.263Z</time></trkpt><trkpt lat="39.3380273" lon="16.6052764"><ele>1291.0</ele><time>2026-05-03T15:25:59.271Z</time></trkpt><trkpt lat="39.3380084" lon="16.6054606"><ele>1296.5</ele><time>2026-05-03T15:26:00.262Z</time></trkpt><trkpt lat="39.3379733" lon="16.6056503"><ele>1302.0</ele><time>2026-05-03T15:26:01.26Z</time></trkpt><trkpt lat="39.3379564" lon="16.6058333"><ele>1302.0</ele><time>2026-05-03T15:26:02.255Z</time></trkpt><trkpt lat="39.3379513" lon="16.6060251"><ele>1302.0</ele><time>2026-05-03T15:26:03.257Z</time></trkpt><trkpt lat="39.3379082" lon="16.6062018"><ele>1302.0</ele><time>2026-05-03T15:26:04.257Z</time></trkpt><trkpt lat="39.3378409" lon="16.606369"><ele>1302.0</ele><time>2026-05-03T15:26:05.26Z</time></trkpt><trkpt lat="39.3377555" lon="16.6065301"><ele>1295.3333333333333</ele><time>2026-05-03T15:26:06.263Z</time></trkpt><trkpt lat="39.3376372" lon="16.606691"><ele>1288.6666666666665</ele><time>2026-05-03T15:26:07.265Z</time></trkpt><trkpt lat="39.3375233" lon="16.6068538"><ele>1282.0</ele><time>2026-05-03T15:26:08.286Z</time></trkpt><trkpt lat="39.3373948" lon="16.6070057"><ele>1282.6666666666665</ele><time>2026-05-03T15:26:09.263Z</time></trkpt><trkpt lat="39.3372746" lon="16.607162"><ele>1283.3333333333333</ele><time>2026-05-03T15:26:10.259Z</time></trkpt><trkpt lat="39.3371525" lon="16.6073126"><ele>1284.0</ele><time>2026-05-03T15:26:11.258Z</time></trkpt><trkpt lat="39.3370267" lon="16.6074568"><ele>1284.0</ele><time>2026-05-03T15:26:12.257Z</time></trkpt><trkpt lat="39.3369063" lon="16.6075799"><ele>1284.0</ele><time>2026-05-03T15:26:13.269Z</time></trkpt><trkpt lat="39.3367974" lon="16.6077161"><ele>1284.0</ele><time>2026-05-03T15:26:14.265Z</time></trkpt><trkpt lat="39.3366912" lon="16.6078468"><ele>1281.0</ele><time>2026-05-03T15:26:15.261Z</time></trkpt><trkpt lat="39.3366254" lon="16.6080423"><ele>1278.0</ele><time>2026-05-03T15:26:16.256Z</time></trkpt><trkpt lat="39.3365737" lon="16.6082552"><ele>1275.0</ele><time>2026-05-03T15:26:17.269Z</time></trkpt><trkpt lat="39.3365247" lon="16.6084464"><ele>1275.0</ele><time>2026-05-03T15:26:18.263Z</time></trkpt><trkpt lat="39.3364821" lon="16.6086196"><ele>1275.0</ele><time>2026-05-03T15:26:19.254Z</time></trkpt><trkpt lat="39.3364437" lon="16.6088097"><ele>1275.0</ele><time>2026-05-03T15:26:20.26Z</time></trkpt><trkpt lat="39.3364661" lon="16.6090109"><ele>1274.0</ele><time>2026-05-03T15:26:21.266Z</time></trkpt><trkpt lat="39.3365146" lon="16.6092065"><ele>1273.0</ele><time>2026-05-03T15:26:22.256Z</time></trkpt><trkpt lat="39.3365432" lon="16.6094019"><ele>1272.0</ele><time>2026-05-03T15:26:23.267Z</time></trkpt><trkpt lat="39.3365618" lon="16.6095905"><ele>1271.0</ele><time>2026-05-03T15:26:24.259Z</time></trkpt><trkpt lat="39.3365446" lon="16.6097745"><ele>1270.0</ele><time>2026-05-03T15:26:25.258Z</time></trkpt><trkpt lat="39.3365303" lon="16.6099593"><ele>1269.0</ele><time>2026-05-03T15:26:26.267Z</time></trkpt><trkpt lat="39.3365225" lon="16.6101248"><ele>1268.0</ele><time>2026-05-03T15:26:27.262Z</time></trkpt><trkpt lat="39.3365369" lon="16.6103026"><ele>1268.5</ele><time>2026-05-03T15:26:28.273Z</time></trkpt><trkpt lat="39.3366197" lon="16.6104443"><ele>1269.0</ele><time>2026-05-03T15:26:29.262Z</time></trkpt><trkpt lat="39.3367181" lon="16.6105963"><ele>1269.5</ele><time>2026-05-03T15:26:30.258Z</time></trkpt><trkpt lat="39.3367933" lon="16.6107593"><ele>1270.0</ele><time>2026-05-03T15:26:31.257Z</time></trkpt><trkpt lat="39.336817" lon="16.6109299"><ele>1270.0</ele><time>2026-05-03T15:26:32.255Z</time></trkpt><trkpt lat="39.3368241" lon="16.6111022"><ele>1270.0</ele><time>2026-05-03T15:26:33.258Z</time></trkpt><trkpt lat="39.3367676" lon="16.6112647"><ele>1270.0</ele><time>2026-05-03T15:26:34.264Z</time></trkpt><trkpt lat="39.3367129" lon="16.6114536"><ele>1270.0</ele><time>2026-05-03T15:26:35.264Z</time></trkpt><trkpt lat="39.3366406" lon="16.6116184"><ele>1268.5</ele><time>2026-05-03T15:26:36.263Z</time></trkpt><trkpt lat="39.3365634" lon="16.6117693"><ele>1267.0</ele><time>2026-05-03T15:26:37.263Z</time></trkpt><trkpt lat="39.3364696" lon="16.611913"><ele>1265.5</ele><time>2026-05-03T15:26:38.267Z</time></trkpt><trkpt lat="39.3363955" lon="16.6120539"><ele>1264.0</ele><time>2026-05-03T15:26:39.257Z</time></trkpt><trkpt lat="39.3363334" lon="16.6121649"><ele>1263.5</ele><time>2026-05-03T15:26:40.255Z</time></trkpt><trkpt lat="39.336301" lon="16.612349"><ele>1263.0</ele><time>2026-05-03T15:26:41.265Z</time></trkpt><trkpt lat="39.3362716" lon="16.6125189"><ele>1262.5</ele><time>2026-05-03T15:26:42.261Z</time></trkpt><trkpt lat="39.3362863" lon="16.612699"><ele>1262.0</ele><time>2026-05-03T15:26:43.275Z</time></trkpt><trkpt lat="39.3362979" lon="16.6128701"><ele>1260.0</ele><time>2026-05-03T15:26:44.261Z</time></trkpt><trkpt lat="39.3362901" lon="16.6130073"><ele>1258.0</ele><time>2026-05-03T15:26:45.257Z</time></trkpt><trkpt lat="39.3362814" lon="16.613158"><ele>1256.0</ele><time>2026-05-03T15:26:46.264Z</time></trkpt><trkpt lat="39.3362403" lon="16.6133132"><ele>1254.0</ele><time>2026-05-03T15:26:47.261Z</time></trkpt><trkpt lat="39.3361597" lon="16.613471"><ele>1254.0</ele><time>2026-05-03T15:26:48.267Z</time></trkpt><trkpt lat="39.3360775" lon="16.6136209"><ele>1254.0</ele><time>2026-05-03T15:26:49.257Z</time></trkpt><trkpt lat="39.3360091" lon="16.6137655"><ele>1254.0</ele><time>2026-05-03T15:26:50.262Z</time></trkpt><trkpt lat="39.3359359" lon="16.6138922"><ele>1254.0</ele><time>2026-05-03T15:26:51.256Z</time></trkpt><trkpt lat="39.3358692" lon="16.6140323"><ele>1253.5</ele><time>2026-05-03T15:26:52.258Z</time></trkpt><trkpt lat="39.3357845" lon="16.6141641"><ele>1253.0</ele><time>2026-05-03T15:26:53.26Z</time></trkpt><trkpt lat="39.3356979" lon="16.6143039"><ele>1252.5</ele><time>2026-05-03T15:26:54.258Z</time></trkpt><trkpt lat="39.3356284" lon="16.6144593"><ele>1252.0</ele><time>2026-05-03T15:26:55.261Z</time></trkpt><trkpt lat="39.3355544" lon="16.6146132"><ele>1252.5</ele><time>2026-05-03T15:26:56.259Z</time></trkpt><trkpt lat="39.3354905" lon="16.6147596"><ele>1253.0</ele><time>2026-05-03T15:26:57.256Z</time></trkpt><trkpt lat="39.3354218" lon="16.6149223"><ele>1253.5</ele><time>2026-05-03T15:26:58.277Z</time></trkpt><trkpt lat="39.3353496" lon="16.6150763"><ele>1254.0</ele><time>2026-05-03T15:26:59.26Z</time></trkpt><trkpt lat="39.3352629" lon="16.6152175"><ele>1256.75</ele><time>2026-05-03T15:27:00.259Z</time></trkpt><trkpt lat="39.3351621" lon="16.6153435"><ele>1259.5</ele><time>2026-05-03T15:27:01.263Z</time></trkpt><trkpt lat="39.3350449" lon="16.6154483"><ele>1262.25</ele><time>2026-05-03T15:27:02.266Z</time></trkpt><trkpt lat="39.3349122" lon="16.615541"><ele>1265.0</ele><time>2026-05-03T15:27:03.266Z</time></trkpt><trkpt lat="39.3348018" lon="16.6156609"><ele>1261.0</ele><time>2026-05-03T15:27:04.262Z</time></trkpt><trkpt lat="39.3346985" lon="16.6157993"><ele>1257.0</ele><time>2026-05-03T15:27:05.274Z</time></trkpt><trkpt lat="39.3345961" lon="16.6159436"><ele>1253.0</ele><time>2026-05-03T15:27:06.26Z</time></trkpt><trkpt lat="39.3344906" lon="16.6160877"><ele>1252.6666666666667</ele><time>2026-05-03T15:27:07.259Z</time></trkpt><trkpt lat="39.3343936" lon="16.6162548"><ele>1252.3333333333333</ele><time>2026-05-03T15:27:08.264Z</time></trkpt><trkpt lat="39.3343189" lon="16.6164432"><ele>1252.0</ele><time>2026-05-03T15:27:09.262Z</time></trkpt><trkpt lat="39.334253" lon="16.6166434"><ele>1252.0</ele><time>2026-05-03T15:27:10.266Z</time></trkpt><trkpt lat="39.3341903" lon="16.6168349"><ele>1252.0</ele><time>2026-05-03T15:27:11.26Z</time></trkpt><trkpt lat="39.3341376" lon="16.6170371"><ele>1252.0</ele><time>2026-05-03T15:27:12.262Z</time></trkpt><trkpt lat="39.3340867" lon="16.6172421"><ele>1255.3333333333333</ele><time>2026-05-03T15:27:13.265Z</time></trkpt><trkpt lat="39.3340308" lon="16.6174425"><ele>1258.6666666666667</ele><time>2026-05-03T15:27:14.287Z</time></trkpt><trkpt lat="39.3339914" lon="16.6176553"><ele>1262.0</ele><time>2026-05-03T15:27:15.262Z</time></trkpt><trkpt lat="39.3339702" lon="16.6178733"><ele>1263.0</ele><time>2026-05-03T15:27:16.258Z</time></trkpt><trkpt lat="39.3339559" lon="16.6181069"><ele>1264.0</ele><time>2026-05-03T15:27:17.257Z</time></trkpt><trkpt lat="39.3339421" lon="16.6183251"><ele>1265.0</ele><time>2026-05-03T15:27:18.258Z</time></trkpt><trkpt lat="39.3339069" lon="16.6185396"><ele>1259.6666666666667</ele><time>2026-05-03T15:27:19.291Z</time></trkpt><trkpt lat="39.3338631" lon="16.6187412"><ele>1254.3333333333333</ele><time>2026-05-03T15:27:20.26Z</time></trkpt><trkpt lat="39.3338035" lon="16.6189403"><ele>1249.0</ele><time>2026-05-03T15:27:21.262Z</time></trkpt><trkpt lat="39.3337451" lon="16.6191395"><ele>1249.0</ele><time>2026-05-03T15:27:22.259Z</time></trkpt><trkpt lat="39.3337099" lon="16.619346"><ele>1249.0</ele><time>2026-05-03T15:27:23.257Z</time></trkpt><trkpt lat="39.3336732" lon="16.6195887"><ele>1249.0</ele><time>2026-05-03T15:27:24.263Z</time></trkpt><trkpt lat="39.3336571" lon="16.6198185"><ele>1248.3333333333333</ele><time>2026-05-03T15:27:25.26Z</time></trkpt><trkpt lat="39.3336433" lon="16.6200485"><ele>1247.6666666666667</ele><time>2026-05-03T15:27:26.258Z</time></trkpt><trkpt lat="39.3336232" lon="16.620267"><ele>1247.0</ele><time>2026-05-03T15:27:27.264Z</time></trkpt><trkpt lat="39.3336022" lon="16.6204887"><ele>1247.0</ele><time>2026-05-03T15:27:28.263Z</time></trkpt><trkpt lat="39.3335749" lon="16.6207184"><ele>1247.0</ele><time>2026-05-03T15:27:29.255Z</time></trkpt><trkpt lat="39.3335614" lon="16.6209521"><ele>1247.0</ele><time>2026-05-03T15:27:30.259Z</time></trkpt><trkpt lat="39.3335495" lon="16.62115"><ele>1248.6666666666667</ele><time>2026-05-03T15:27:31.265Z</time></trkpt><trkpt lat="39.3335195" lon="16.6213335"><ele>1250.3333333333333</ele><time>2026-05-03T15:27:32.256Z</time></trkpt><trkpt lat="39.3334767" lon="16.6215362"><ele>1252.0</ele><time>2026-05-03T15:27:33.282Z</time></trkpt><trkpt lat="39.3334" lon="16.6217093"><ele>1252.0</ele><time>2026-05-03T15:27:34.257Z</time></trkpt><trkpt lat="39.333302" lon="16.6218914"><ele>1252.0</ele><time>2026-05-03T15:27:35.259Z</time></trkpt><trkpt lat="39.3332067" lon="16.6220798"><ele>1252.0</ele><time>2026-05-03T15:27:36.257Z</time></trkpt><trkpt lat="39.3330918" lon="16.6222512"><ele>1249.3333333333333</ele><time>2026-05-03T15:27:37.259Z</time></trkpt><trkpt lat="39.3329901" lon="16.6224252"><ele>1246.6666666666667</ele><time>2026-05-03T15:27:38.255Z</time></trkpt><trkpt lat="39.3328639" lon="16.6225724"><ele>1244.0</ele><time>2026-05-03T15:27:39.265Z</time></trkpt><trkpt lat="39.3327255" lon="16.6226918"><ele>1244.6666666666667</ele><time>2026-05-03T15:27:40.269Z</time></trkpt><trkpt lat="39.33257" lon="16.6228236"><ele>1245.3333333333333</ele><time>2026-05-03T15:27:41.263Z</time></trkpt><trkpt lat="39.3324425" lon="16.6229449"><ele>1246.0</ele><time>2026-05-03T15:27:42.277Z</time></trkpt><trkpt lat="39.3323458" lon="16.6230822"><ele>1246.0</ele><time>2026-05-03T15:27:43.261Z</time></trkpt><trkpt lat="39.332301" lon="16.6232491"><ele>1246.0</ele><time>2026-05-03T15:27:44.255Z</time></trkpt><trkpt lat="39.3322668" lon="16.6234027"><ele>1246.0</ele><time>2026-05-03T15:27:45.261Z</time></trkpt><trkpt lat="39.3322406" lon="16.6235933"><ele>1246.0</ele><time>2026-05-03T15:27:46.256Z</time></trkpt><trkpt lat="39.3322005" lon="16.6238111"><ele>1247.0</ele><time>2026-05-03T15:27:47.259Z</time></trkpt><trkpt lat="39.3321629" lon="16.6240531"><ele>1248.0</ele><time>2026-05-03T15:27:48.257Z</time></trkpt><trkpt lat="39.3321326" lon="16.6242973"><ele>1249.0</ele><time>2026-05-03T15:27:49.259Z</time></trkpt><trkpt lat="39.3320846" lon="16.6245283"><ele>1249.0</ele><time>2026-05-03T15:27:50.257Z</time></trkpt><trkpt lat="39.3320389" lon="16.6247359"><ele>1249.0</ele><time>2026-05-03T15:27:51.259Z</time></trkpt><trkpt lat="39.3320049" lon="16.6249184"><ele>1249.0</ele><time>2026-05-03T15:27:52.256Z</time></trkpt><trkpt lat="39.331967" lon="16.6251104"><ele>1249.0</ele><time>2026-05-03T15:27:53.28Z</time></trkpt><trkpt lat="39.3319257" lon="16.6252896"><ele>1249.0</ele><time>2026-05-03T15:27:54.256Z</time></trkpt><trkpt lat="39.3319351" lon="16.625468"><ele>1249.0</ele><time>2026-05-03T15:27:55.265Z</time></trkpt><trkpt lat="39.3319705" lon="16.6256545"><ele>1249.0</ele><time>2026-05-03T15:27:56.257Z</time></trkpt><trkpt lat="39.3320274" lon="16.6258387"><ele>1248.0</ele><time>2026-05-03T15:27:57.257Z</time></trkpt><trkpt lat="39.3320814" lon="16.6260354"><ele>1247.0</ele><time>2026-05-03T15:27:58.258Z</time></trkpt><trkpt lat="39.3321213" lon="16.6262671"><ele>1246.0</ele><time>2026-05-03T15:27:59.259Z</time></trkpt><trkpt lat="39.3321353" lon="16.6265181"><ele>1244.0</ele><time>2026-05-03T15:28:00.275Z</time></trkpt><trkpt lat="39.3321158" lon="16.6267562"><ele>1242.0</ele><time>2026-05-03T15:28:01.256Z</time></trkpt><trkpt lat="39.3321057" lon="16.6270043"><ele>1240.0</ele><time>2026-05-03T15:28:02.26Z</time></trkpt><trkpt lat="39.3320947" lon="16.6272541"><ele>1240.0</ele><time>2026-05-03T15:28:03.262Z</time></trkpt><trkpt lat="39.3320889" lon="16.6274775"><ele>1240.0</ele><time>2026-05-03T15:28:04.26Z</time></trkpt><trkpt lat="39.3320381" lon="16.6276957"><ele>1240.0</ele><time>2026-05-03T15:28:05.282Z</time></trkpt><trkpt lat="39.3319844" lon="16.6279017"><ele>1244.0</ele><time>2026-05-03T15:28:06.257Z</time></trkpt><trkpt lat="39.3318906" lon="16.6280813"><ele>1248.0</ele><time>2026-05-03T15:28:07.258Z</time></trkpt><trkpt lat="39.3317657" lon="16.6282345"><ele>1252.0</ele><time>2026-05-03T15:28:08.257Z</time></trkpt><trkpt lat="39.331631" lon="16.6283887"><ele>1252.0</ele><time>2026-05-03T15:28:09.262Z</time></trkpt><trkpt lat="39.3314354" lon="16.6285008"><ele>1252.0</ele><time>2026-05-03T15:28:10.258Z</time></trkpt><trkpt lat="39.3312388" lon="16.6286114"><ele>1252.0</ele><time>2026-05-03T15:28:11.262Z</time></trkpt><trkpt lat="39.3310248" lon="16.6287219"><ele>1250.6666666666665</ele><time>2026-05-03T15:28:12.271Z</time></trkpt><trkpt lat="39.3308167" lon="16.6288286"><ele>1249.3333333333333</ele><time>2026-05-03T15:28:13.261Z</time></trkpt><trkpt lat="39.3306285" lon="16.6289394"><ele>1248.0</ele><time>2026-05-03T15:28:14.264Z</time></trkpt><trkpt lat="39.3304566" lon="16.6290345"><ele>1244.0</ele><time>2026-05-03T15:28:15.261Z</time></trkpt><trkpt lat="39.330301" lon="16.6291491"><ele>1240.0</ele><time>2026-05-03T15:28:16.257Z</time></trkpt><trkpt lat="39.3301658" lon="16.6292908"><ele>1236.0</ele><time>2026-05-03T15:28:17.275Z</time></trkpt><trkpt lat="39.3300296" lon="16.6294498"><ele>1233.0</ele><time>2026-05-03T15:28:18.261Z</time></trkpt><trkpt lat="39.3298999" lon="16.6296311"><ele>1230.0</ele><time>2026-05-03T15:28:19.257Z</time></trkpt><trkpt lat="39.3297648" lon="16.6298213"><ele>1227.0</ele><time>2026-05-03T15:28:20.258Z</time></trkpt><trkpt lat="39.3296274" lon="16.6300263"><ele>1227.0</ele><time>2026-05-03T15:28:21.263Z</time></trkpt><trkpt lat="39.3294847" lon="16.6302359"><ele>1227.0</ele><time>2026-05-03T15:28:22.256Z</time></trkpt><trkpt lat="39.3293372" lon="16.6304505"><ele>1227.0</ele><time>2026-05-03T15:28:23.275Z</time></trkpt><trkpt lat="39.329203" lon="16.6306813"><ele>1231.0</ele><time>2026-05-03T15:28:24.254Z</time></trkpt><trkpt lat="39.329065" lon="16.6309242"><ele>1235.0</ele><time>2026-05-03T15:28:25.262Z</time></trkpt><trkpt lat="39.328919" lon="16.6311714"><ele>1231.0</ele><time>2026-05-03T15:28:26.257Z</time></trkpt><trkpt lat="39.3287753" lon="16.6314256"><ele>1227.0</ele><time>2026-05-03T15:28:27.271Z</time></trkpt><trkpt lat="39.3286405" lon="16.6316782"><ele>1227.0</ele><time>2026-05-03T15:28:28.262Z</time></trkpt><trkpt lat="39.3285102" lon="16.6318952"><ele>1227.0</ele><time>2026-05-03T15:28:29.259Z</time></trkpt><trkpt lat="39.3283946" lon="16.632122"><ele>1227.0</ele><time>2026-05-03T15:28:30.264Z</time></trkpt><trkpt lat="39.3282946" lon="16.632354"><ele>1227.0</ele><time>2026-05-03T15:28:31.262Z</time></trkpt><trkpt lat="39.3281997" lon="16.6325813"><ele>1227.0</ele><time>2026-05-03T15:28:32.264Z</time></trkpt><trkpt lat="39.3281172" lon="16.6327927"><ele>1227.0</ele><time>2026-05-03T15:28:33.264Z</time></trkpt><trkpt lat="39.3280438" lon="16.6329898"><ele>1227.0</ele><time>2026-05-03T15:28:34.281Z</time></trkpt><trkpt lat="39.3279922" lon="16.6331904"><ele>1227.0</ele><time>2026-05-03T15:28:35.257Z</time></trkpt><trkpt lat="39.327978" lon="16.6334084"><ele>1227.0</ele><time>2026-05-03T15:28:36.267Z</time></trkpt><trkpt lat="39.3279918" lon="16.6336284"><ele>1225.75</ele><time>2026-05-03T15:28:37.256Z</time></trkpt><trkpt lat="39.3280041" lon="16.6338172"><ele>1224.5</ele><time>2026-05-03T15:28:38.26Z</time></trkpt><trkpt lat="39.3280078" lon="16.633995"><ele>1223.25</ele><time>2026-05-03T15:28:39.257Z</time></trkpt><trkpt lat="39.3279295" lon="16.6341227"><ele>1222.0</ele><time>2026-05-03T15:28:40.263Z</time></trkpt><trkpt lat="39.3278668" lon="16.6343008"><ele>1223.6666666666665</ele><time>2026-05-03T15:28:41.259Z</time></trkpt><trkpt lat="39.3277843" lon="16.6344775"><ele>1225.3333333333333</ele><time>2026-05-03T15:28:42.262Z</time></trkpt><trkpt lat="39.3276855" lon="16.6346828"><ele>1227.0</ele><time>2026-05-03T15:28:43.259Z</time></trkpt><trkpt lat="39.3275827" lon="16.6349043"><ele>1227.0</ele><time>2026-05-03T15:28:44.262Z</time></trkpt><trkpt lat="39.3274755" lon="16.6351365"><ele>1227.0</ele><time>2026-05-03T15:28:45.279Z</time></trkpt><trkpt lat="39.3273724" lon="16.6353377"><ele>1227.0</ele><time>2026-05-03T15:28:46.257Z</time></trkpt><trkpt lat="39.3272832" lon="16.6355163"><ele>1225.0</ele><time>2026-05-03T15:28:47.267Z</time></trkpt><trkpt lat="39.327196" lon="16.6357018"><ele>1223.0</ele><time>2026-05-03T15:28:48.261Z</time></trkpt><trkpt lat="39.3270943" lon="16.6359004"><ele>1221.0</ele><time>2026-05-03T15:28:49.256Z</time></trkpt><trkpt lat="39.3269884" lon="16.6361036"><ele>1222.3333333333333</ele><time>2026-05-03T15:28:50.255Z</time></trkpt><trkpt lat="39.326884" lon="16.6362874"><ele>1223.6666666666665</ele><time>2026-05-03T15:28:51.255Z</time></trkpt><trkpt lat="39.3267756" lon="16.6364739"><ele>1225.0</ele><time>2026-05-03T15:28:52.255Z</time></trkpt><trkpt lat="39.3266472" lon="16.6366726"><ele>1225.0</ele><time>2026-05-03T15:28:53.263Z</time></trkpt><trkpt lat="39.3265061" lon="16.6368536"><ele>1225.0</ele><time>2026-05-03T15:28:54.263Z</time></trkpt><trkpt lat="39.3263677" lon="16.6370198"><ele>1225.0</ele><time>2026-05-03T15:28:55.268Z</time></trkpt><trkpt lat="39.3262456" lon="16.6371893"><ele>1223.6666666666665</ele><time>2026-05-03T15:28:56.262Z</time></trkpt><trkpt lat="39.326137" lon="16.6373724"><ele>1222.3333333333333</ele><time>2026-05-03T15:28:57.278Z</time></trkpt><trkpt lat="39.3260481" lon="16.6375882"><ele>1221.0</ele><time>2026-05-03T15:28:58.261Z</time></trkpt><trkpt lat="39.3259827" lon="16.6378208"><ele>1221.0</ele><time>2026-05-03T15:28:59.262Z</time></trkpt><trkpt lat="39.3259268" lon="16.6380393"><ele>1221.0</ele><time>2026-05-03T15:29:00.263Z</time></trkpt><trkpt lat="39.3258645" lon="16.6382418"><ele>1221.0</ele><time>2026-05-03T15:29:01.257Z</time></trkpt><trkpt lat="39.3258011" lon="16.638436"><ele>1221.0</ele><time>2026-05-03T15:29:02.281Z</time></trkpt><trkpt lat="39.325711" lon="16.6386121"><ele>1221.0</ele><time>2026-05-03T15:29:03.261Z</time></trkpt><trkpt lat="39.325594" lon="16.6387736"><ele>1221.0</ele><time>2026-05-03T15:29:04.254Z</time></trkpt><trkpt lat="39.3254735" lon="16.6389409"><ele>1221.6666666666667</ele><time>2026-05-03T15:29:05.258Z</time></trkpt><trkpt lat="39.3253621" lon="16.6391196"><ele>1222.3333333333335</ele><time>2026-05-03T15:29:06.258Z</time></trkpt><trkpt lat="39.3252578" lon="16.6393119"><ele>1223.0</ele><time>2026-05-03T15:29:07.287Z</time></trkpt><trkpt lat="39.3251531" lon="16.6395073"><ele>1223.0</ele><time>2026-05-03T15:29:08.262Z</time></trkpt><trkpt lat="39.3250496" lon="16.6397016"><ele>1223.0</ele><time>2026-05-03T15:29:09.26Z</time></trkpt><trkpt lat="39.3249333" lon="16.6398886"><ele>1223.0</ele><time>2026-05-03T15:29:10.26Z</time></trkpt><trkpt lat="39.3248033" lon="16.6400728"><ele>1220.3333333333335</ele><time>2026-05-03T15:29:11.263Z</time></trkpt><trkpt lat="39.3246682" lon="16.6402537"><ele>1217.6666666666667</ele><time>2026-05-03T15:29:12.278Z</time></trkpt><trkpt lat="39.3245319" lon="16.6404311"><ele>1215.0</ele><time>2026-05-03T15:29:13.26Z</time></trkpt><trkpt lat="39.3243954" lon="16.6406127"><ele>1215.0</ele><time>2026-05-03T15:29:14.255Z</time></trkpt><trkpt lat="39.3242576" lon="16.6408002"><ele>1215.0</ele><time>2026-05-03T15:29:15.255Z</time></trkpt><trkpt lat="39.3241154" lon="16.6409951"><ele>1215.0</ele><time>2026-05-03T15:29:16.263Z</time></trkpt><trkpt lat="39.3239771" lon="16.6411899"><ele>1214.0</ele><time>2026-05-03T15:29:17.257Z</time></trkpt><trkpt lat="39.3238476" lon="16.6413898"><ele>1213.0</ele><time>2026-05-03T15:29:18.279Z</time></trkpt><trkpt lat="39.3237246" lon="16.641563"><ele>1212.0</ele><time>2026-05-03T15:29:19.26Z</time></trkpt><trkpt lat="39.3236255" lon="16.641728"><ele>1212.0</ele><time>2026-05-03T15:29:20.257Z</time></trkpt><trkpt lat="39.323524" lon="16.6419004"><ele>1212.0</ele><time>2026-05-03T15:29:21.259Z</time></trkpt><trkpt lat="39.323428" lon="16.6420981"><ele>1212.0</ele><time>2026-05-03T15:29:22.256Z</time></trkpt><trkpt lat="39.3233532" lon="16.6423158"><ele>1214.0</ele><time>2026-05-03T15:29:23.27Z</time></trkpt><trkpt lat="39.3232758" lon="16.6425098"><ele>1216.0</ele><time>2026-05-03T15:29:24.254Z</time></trkpt><trkpt lat="39.3231809" lon="16.6426975"><ele>1218.0</ele><time>2026-05-03T15:29:25.258Z</time></trkpt><trkpt lat="39.3230963" lon="16.6428709"><ele>1215.6666666666667</ele><time>2026-05-03T15:29:26.27Z</time></trkpt><trkpt lat="39.323002" lon="16.6430426"><ele>1213.3333333333335</ele><time>2026-05-03T15:29:27.257Z</time></trkpt><trkpt lat="39.32289" lon="16.6431865"><ele>1211.0</ele><time>2026-05-03T15:29:28.271Z</time></trkpt><trkpt lat="39.3227814" lon="16.6433393"><ele>1211.0</ele><time>2026-05-03T15:29:29.261Z</time></trkpt><trkpt lat="39.3226681" lon="16.6434884"><ele>1211.0</ele><time>2026-05-03T15:29:30.261Z</time></trkpt><trkpt lat="39.3225698" lon="16.6436726"><ele>1211.0</ele><time>2026-05-03T15:29:31.261Z</time></trkpt><trkpt lat="39.3224705" lon="16.6438647"><ele>1211.3333333333335</ele><time>2026-05-03T15:29:32.261Z</time></trkpt><trkpt lat="39.3223873" lon="16.6440819"><ele>1211.6666666666667</ele><time>2026-05-03T15:29:33.258Z</time></trkpt><trkpt lat="39.322307" lon="16.6442959"><ele>1212.0</ele><time>2026-05-03T15:29:34.263Z</time></trkpt><trkpt lat="39.3222189" lon="16.6445054"><ele>1212.0</ele><time>2026-05-03T15:29:35.26Z</time></trkpt><trkpt lat="39.3221282" lon="16.6447123"><ele>1212.0</ele><time>2026-05-03T15:29:36.265Z</time></trkpt><trkpt lat="39.3220261" lon="16.6449165"><ele>1212.0</ele><time>2026-05-03T15:29:37.267Z</time></trkpt><trkpt lat="39.3218972" lon="16.6450916"><ele>1212.0</ele><time>2026-05-03T15:29:38.262Z</time></trkpt><trkpt lat="39.3217434" lon="16.6452366"><ele>1212.0</ele><time>2026-05-03T15:29:39.273Z</time></trkpt><trkpt lat="39.3215888" lon="16.6453729"><ele>1212.0</ele><time>2026-05-03T15:29:40.272Z</time></trkpt><trkpt lat="39.3214503" lon="16.6454851"><ele>1210.6666666666667</ele><time>2026-05-03T15:29:41.26Z</time></trkpt><trkpt lat="39.3213239" lon="16.645595"><ele>1209.3333333333335</ele><time>2026-05-03T15:29:42.274Z</time></trkpt><trkpt lat="39.3212132" lon="16.6457406"><ele>1208.0</ele><time>2026-05-03T15:29:43.262Z</time></trkpt><trkpt lat="39.3211212" lon="16.6459235"><ele>1209.0</ele><time>2026-05-03T15:29:44.261Z</time></trkpt><trkpt lat="39.321035" lon="16.6461339"><ele>1210.0</ele><time>2026-05-03T15:29:45.261Z</time></trkpt><trkpt lat="39.3209463" lon="16.646359"><ele>1211.0</ele><time>2026-05-03T15:29:46.263Z</time></trkpt><trkpt lat="39.3208504" lon="16.6465882"><ele>1211.0</ele><time>2026-05-03T15:29:47.263Z</time></trkpt><trkpt lat="39.3207521" lon="16.6468273"><ele>1211.0</ele><time>2026-05-03T15:29:48.262Z</time></trkpt><trkpt lat="39.320652" lon="16.6470647"><ele>1211.0</ele><time>2026-05-03T15:29:49.269Z</time></trkpt><trkpt lat="39.320548" lon="16.647302"><ele>1210.3333333333335</ele><time>2026-05-03T15:29:50.263Z</time></trkpt><trkpt lat="39.3204448" lon="16.6475441"><ele>1209.6666666666667</ele><time>2026-05-03T15:29:51.28Z</time></trkpt><trkpt lat="39.320337" lon="16.6477932"><ele>1209.0</ele><time>2026-05-03T15:29:52.268Z</time></trkpt><trkpt lat="39.3202334" lon="16.6480234"><ele>1209.0</ele><time>2026-05-03T15:29:53.266Z</time></trkpt><trkpt lat="39.3201249" lon="16.6482332"><ele>1209.0</ele><time>2026-05-03T15:29:54.261Z</time></trkpt><trkpt lat="39.3200033" lon="16.6484264"><ele>1209.0</ele><time>2026-05-03T15:29:55.268Z</time></trkpt><trkpt lat="39.3198715" lon="16.6486035"><ele>1210.0</ele><time>2026-05-03T15:29:56.273Z</time></trkpt><trkpt lat="39.3197407" lon="16.6487687"><ele>1211.0</ele><time>2026-05-03T15:29:57.268Z</time></trkpt><trkpt lat="39.3196127" lon="16.6489219"><ele>1212.0</ele><time>2026-05-03T15:29:58.285Z</time></trkpt><trkpt lat="39.319491" lon="16.6490652"><ele>1212.5</ele><time>2026-05-03T15:29:59.264Z</time></trkpt><trkpt lat="39.319374" lon="16.6491942"><ele>1213.0</ele><time>2026-05-03T15:30:00.266Z</time></trkpt><trkpt lat="39.3192748" lon="16.6493262"><ele>1213.5</ele><time>2026-05-03T15:30:01.268Z</time></trkpt><trkpt lat="39.3191802" lon="16.6494649"><ele>1214.0</ele><time>2026-05-03T15:30:02.265Z</time></trkpt><trkpt lat="39.3191097" lon="16.6496254"><ele>1214.0</ele><time>2026-05-03T15:30:03.262Z</time></trkpt><trkpt lat="39.3190667" lon="16.6497868"><ele>1214.0</ele><time>2026-05-03T15:30:04.275Z</time></trkpt><trkpt lat="39.3190455" lon="16.6499299"><ele>1214.0</ele><time>2026-05-03T15:30:05.258Z</time></trkpt><trkpt lat="39.3190346" lon="16.6500595"><ele>1214.0</ele><time>2026-05-03T15:30:06.267Z</time></trkpt><trkpt lat="39.3190311" lon="16.6501445"><ele>1214.0</ele><time>2026-05-03T15:30:07.266Z</time></trkpt><trkpt lat="39.3190044" lon="16.650238"><ele>1214.0</ele><time>2026-05-03T15:30:08.258Z</time></trkpt><trkpt lat="39.3189165" lon="16.6502905"><ele>1214.0</ele><time>2026-05-03T15:30:09.268Z</time></trkpt><trkpt lat="39.3188265" lon="16.650338"><ele>1214.0</ele><time>2026-05-03T15:30:10.261Z</time></trkpt><trkpt lat="39.3187318" lon="16.6503906"><ele>1214.0</ele><time>2026-05-03T15:30:11.284Z</time></trkpt><trkpt lat="39.3186376" lon="16.6504366"><ele>1214.0</ele><time>2026-05-03T15:30:12.263Z</time></trkpt><trkpt lat="39.3185413" lon="16.6504819"><ele>1214.2</ele><time>2026-05-03T15:30:13.258Z</time></trkpt><trkpt lat="39.3184455" lon="16.6505233"><ele>1214.4</ele><time>2026-05-03T15:30:14.259Z</time></trkpt><trkpt lat="39.3183554" lon="16.6505648"><ele>1214.6</ele><time>2026-05-03T15:30:15.259Z</time></trkpt><trkpt lat="39.3182544" lon="16.6505882"><ele>1214.8</ele><time>2026-05-03T15:30:16.26Z</time></trkpt><trkpt lat="39.318158" lon="16.6506346"><ele>1215.0</ele><time>2026-05-03T15:30:17.261Z</time></trkpt><trkpt lat="39.3180614" lon="16.6507084"><ele>1212.5</ele><time>2026-05-03T15:30:18.264Z</time></trkpt><trkpt lat="39.3179509" lon="16.6507979"><ele>1210.0</ele><time>2026-05-03T15:30:19.276Z</time></trkpt><trkpt lat="39.3178495" lon="16.6508962"><ele>1207.5</ele><time>2026-05-03T15:30:20.273Z</time></trkpt><trkpt lat="39.3177566" lon="16.6510193"><ele>1205.0</ele><time>2026-05-03T15:30:21.271Z</time></trkpt><trkpt lat="39.3176729" lon="16.6511679"><ele>1205.0</ele><time>2026-05-03T15:30:22.261Z</time></trkpt><trkpt lat="39.3176023" lon="16.6513094"><ele>1205.0</ele><time>2026-05-03T15:30:23.267Z</time></trkpt><trkpt lat="39.3175643" lon="16.6514225"><ele>1205.0</ele><time>2026-05-03T15:30:24.263Z</time></trkpt><trkpt lat="39.3175058" lon="16.6515263"><ele>1205.0</ele><time>2026-05-03T15:30:25.26Z</time></trkpt><trkpt lat="39.3174281" lon="16.6516285"><ele>1205.0</ele><time>2026-05-03T15:30:26.258Z</time></trkpt><trkpt lat="39.3173356" lon="16.6516845"><ele>1205.0</ele><time>2026-05-03T15:30:27.258Z</time></trkpt><trkpt lat="39.3172445" lon="16.6517009"><ele>1205.0</ele><time>2026-05-03T15:30:28.258Z</time></trkpt><trkpt lat="39.3171471" lon="16.6516743"><ele>1205.0</ele><time>2026-05-03T15:30:29.275Z</time></trkpt><trkpt lat="39.3170522" lon="16.6516457"><ele>1205.0</ele><time>2026-05-03T15:30:30.261Z</time></trkpt><trkpt lat="39.3169539" lon="16.6515867"><ele>1205.0</ele><time>2026-05-03T15:30:31.262Z</time></trkpt><trkpt lat="39.3168557" lon="16.6515316"><ele>1203.25</ele><time>2026-05-03T15:30:32.262Z</time></trkpt><trkpt lat="39.3167444" lon="16.6514716"><ele>1201.5</ele><time>2026-05-03T15:30:33.257Z</time></trkpt><trkpt lat="39.316632" lon="16.6514108"><ele>1199.75</ele><time>2026-05-03T15:30:34.284Z</time></trkpt><trkpt lat="39.3165222" lon="16.6513463"><ele>1198.0</ele><time>2026-05-03T15:30:35.269Z</time></trkpt><trkpt lat="39.3164155" lon="16.6512821"><ele>1198.0</ele><time>2026-05-03T15:30:36.261Z</time></trkpt><trkpt lat="39.3163171" lon="16.6512037"><ele>1198.0</ele><time>2026-05-03T15:30:37.257Z</time></trkpt><trkpt lat="39.3162183" lon="16.6511218"><ele>1198.0</ele><time>2026-05-03T15:30:38.259Z</time></trkpt><trkpt lat="39.3161234" lon="16.6510456"><ele>1198.0</ele><time>2026-05-03T15:30:39.259Z</time></trkpt><trkpt lat="39.316032" lon="16.6509653"><ele>1198.0</ele><time>2026-05-03T15:30:40.257Z</time></trkpt><trkpt lat="39.3159333" lon="16.6508988"><ele>1198.0</ele><time>2026-05-03T15:30:41.288Z</time></trkpt><trkpt lat="39.3158209" lon="16.6508673"><ele>1198.0</ele><time>2026-05-03T15:30:42.262Z</time></trkpt><trkpt lat="39.3156862" lon="16.6508791"><ele>1198.0</ele><time>2026-05-03T15:30:43.264Z</time></trkpt><trkpt lat="39.3155553" lon="16.6509123"><ele>1198.75</ele><time>2026-05-03T15:30:44.264Z</time></trkpt><trkpt lat="39.3154194" lon="16.6509633"><ele>1199.5</ele><time>2026-05-03T15:30:45.265Z</time></trkpt><trkpt lat="39.315277" lon="16.6510088"><ele>1200.25</ele><time>2026-05-03T15:30:46.277Z</time></trkpt><trkpt lat="39.3151363" lon="16.6510506"><ele>1201.0</ele><time>2026-05-03T15:30:47.261Z</time></trkpt><trkpt lat="39.3149977" lon="16.6510977"><ele>1200.6666666666665</ele><time>2026-05-03T15:30:48.259Z</time></trkpt><trkpt lat="39.3148731" lon="16.6511412"><ele>1200.3333333333333</ele><time>2026-05-03T15:30:49.271Z</time></trkpt><trkpt lat="39.314718" lon="16.6511741"><ele>1200.0</ele><time>2026-05-03T15:30:50.264Z</time></trkpt><trkpt lat="39.3145581" lon="16.6512208"><ele>1200.0</ele><time>2026-05-03T15:30:51.288Z</time></trkpt><trkpt lat="39.3143868" lon="16.6512691"><ele>1200.0</ele><time>2026-05-03T15:30:52.257Z</time></trkpt><trkpt lat="39.3142057" lon="16.651323"><ele>1200.0</ele><time>2026-05-03T15:30:53.263Z</time></trkpt><trkpt lat="39.3140336" lon="16.6513747"><ele>1201.0</ele><time>2026-05-03T15:30:54.265Z</time></trkpt><trkpt lat="39.3138697" lon="16.6514264"><ele>1202.0</ele><time>2026-05-03T15:30:55.262Z</time></trkpt><trkpt lat="39.3137118" lon="16.6514713"><ele>1203.0</ele><time>2026-05-03T15:30:56.283Z</time></trkpt><trkpt lat="39.3135627" lon="16.6515153"><ele>1203.0</ele><time>2026-05-03T15:30:57.266Z</time></trkpt><trkpt lat="39.3134335" lon="16.6515513"><ele>1203.0</ele><time>2026-05-03T15:30:58.267Z</time></trkpt><trkpt lat="39.3133191" lon="16.6515933"><ele>1203.0</ele><time>2026-05-03T15:30:59.261Z</time></trkpt><trkpt lat="39.3132256" lon="16.6516484"><ele>1203.0</ele><time>2026-05-03T15:31:00.267Z</time></trkpt><trkpt lat="39.3131551" lon="16.6517628"><ele>1203.0</ele><time>2026-05-03T15:31:01.266Z</time></trkpt><trkpt lat="39.3131388" lon="16.6519015"><ele>1203.0</ele><time>2026-05-03T15:31:02.269Z</time></trkpt><trkpt lat="39.3131252" lon="16.652056"><ele>1203.0</ele><time>2026-05-03T15:31:03.263Z</time></trkpt><trkpt lat="39.3131265" lon="16.6522131"><ele>1203.0</ele><time>2026-05-03T15:31:04.265Z</time></trkpt><trkpt lat="39.3131201" lon="16.6523462"><ele>1203.2</ele><time>2026-05-03T15:31:05.257Z</time></trkpt><trkpt lat="39.3131026" lon="16.6524514"><ele>1203.4</ele><time>2026-05-03T15:31:06.266Z</time></trkpt><trkpt lat="39.3130681" lon="16.6525732"><ele>1203.6000000000001</ele><time>2026-05-03T15:31:07.263Z</time></trkpt><trkpt lat="39.3130034" lon="16.6526655"><ele>1203.8</ele><time>2026-05-03T15:31:08.268Z</time></trkpt><trkpt lat="39.3129195" lon="16.6527428"><ele>1204.0</ele><time>2026-05-03T15:31:09.27Z</time></trkpt><trkpt lat="39.3128204" lon="16.6527906"><ele>1206.2</ele><time>2026-05-03T15:31:10.268Z</time></trkpt><trkpt lat="39.312735" lon="16.6528345"><ele>1208.4</ele><time>2026-05-03T15:31:11.262Z</time></trkpt><trkpt lat="39.3126341" lon="16.6528057"><ele>1210.6</ele><time>2026-05-03T15:31:12.256Z</time></trkpt><trkpt lat="39.3125388" lon="16.6527503"><ele>1212.8</ele><time>2026-05-03T15:31:13.265Z</time></trkpt><trkpt lat="39.3124313" lon="16.6526708"><ele>1215.0</ele><time>2026-05-03T15:31:14.265Z</time></trkpt><trkpt lat="39.3123463" lon="16.6525456"><ele>1215.4</ele><time>2026-05-03T15:31:15.265Z</time></trkpt><trkpt lat="39.3122645" lon="16.6524179"><ele>1215.8</ele><time>2026-05-03T15:31:16.259Z</time></trkpt><trkpt lat="39.3121918" lon="16.6522943"><ele>1216.2</ele><time>2026-05-03T15:31:17.264Z</time></trkpt><trkpt lat="39.3121318" lon="16.6521941"><ele>1216.6</ele><time>2026-05-03T15:31:18.263Z</time></trkpt><trkpt lat="39.3120722" lon="16.6520981"><ele>1217.0</ele><time>2026-05-03T15:31:19.271Z</time></trkpt><trkpt lat="39.3119843" lon="16.6520328"><ele>1218.25</ele><time>2026-05-03T15:31:20.273Z</time></trkpt><trkpt lat="39.311881" lon="16.6520015"><ele>1219.5</ele><time>2026-05-03T15:31:21.262Z</time></trkpt><trkpt lat="39.3117694" lon="16.6520712"><ele>1220.75</ele><time>2026-05-03T15:31:22.276Z</time></trkpt><trkpt lat="39.3116792" lon="16.6521839"><ele>1222.0</ele><time>2026-05-03T15:31:23.263Z</time></trkpt><trkpt lat="39.3116123" lon="16.652325"><ele>1222.0</ele><time>2026-05-03T15:31:24.261Z</time></trkpt><trkpt lat="39.3115552" lon="16.6524597"><ele>1222.0</ele><time>2026-05-03T15:31:25.263Z</time></trkpt><trkpt lat="39.3115083" lon="16.6525851"><ele>1222.0</ele><time>2026-05-03T15:31:26.264Z</time></trkpt><trkpt lat="39.3114963" lon="16.6527271"><ele>1222.0</ele><time>2026-05-03T15:31:27.269Z</time></trkpt><trkpt lat="39.311522" lon="16.6528934"><ele>1224.0</ele><time>2026-05-03T15:31:28.265Z</time></trkpt><trkpt lat="39.3115729" lon="16.6530729"><ele>1226.0</ele><time>2026-05-03T15:31:29.258Z</time></trkpt><trkpt lat="39.3116162" lon="16.6532567"><ele>1228.0</ele><time>2026-05-03T15:31:30.258Z</time></trkpt><trkpt lat="39.3116671" lon="16.6534548"><ele>1230.3333333333333</ele><time>2026-05-03T15:31:31.27Z</time></trkpt><trkpt lat="39.3117041" lon="16.6536652"><ele>1232.6666666666667</ele><time>2026-05-03T15:31:32.263Z</time></trkpt><trkpt lat="39.3117671" lon="16.6538819"><ele>1235.0</ele><time>2026-05-03T15:31:33.267Z</time></trkpt><trkpt lat="39.3118231" lon="16.6541028"><ele>1235.0</ele><time>2026-05-03T15:31:34.258Z</time></trkpt><trkpt lat="39.3118809" lon="16.6542862"><ele>1235.0</ele><time>2026-05-03T15:31:35.264Z</time></trkpt><trkpt lat="39.3119156" lon="16.654478"><ele>1235.0</ele><time>2026-05-03T15:31:36.258Z</time></trkpt><trkpt lat="39.3119384" lon="16.6546617"><ele>1235.0</ele><time>2026-05-03T15:31:37.26Z</time></trkpt><trkpt lat="39.3119203" lon="16.6548635"><ele>1235.0</ele><time>2026-05-03T15:31:38.26Z</time></trkpt><trkpt lat="39.311875" lon="16.6550134"><ele>1235.0</ele><time>2026-05-03T15:31:39.258Z</time></trkpt><trkpt lat="39.3117955" lon="16.6551296"><ele>1235.0</ele><time>2026-05-03T15:31:40.257Z</time></trkpt><trkpt lat="39.3116708" lon="16.6552143"><ele>1235.0</ele><time>2026-05-03T15:31:41.255Z</time></trkpt><trkpt lat="39.3115392" lon="16.6551917"><ele>1235.0</ele><time>2026-05-03T15:31:42.258Z</time></trkpt><trkpt lat="39.3114274" lon="16.6551279"><ele>1235.0</ele><time>2026-05-03T15:31:43.255Z</time></trkpt><trkpt lat="39.3113208" lon="16.6550544"><ele>1235.0</ele><time>2026-05-03T15:31:44.258Z</time></trkpt><trkpt lat="39.3112279" lon="16.654922"><ele>1234.0</ele><time>2026-05-03T15:31:45.276Z</time></trkpt><trkpt lat="39.3111346" lon="16.6548055"><ele>1233.0</ele><time>2026-05-03T15:31:46.255Z</time></trkpt><trkpt lat="39.3110192" lon="16.6546694"><ele>1232.0</ele><time>2026-05-03T15:31:47.256Z</time></trkpt><trkpt lat="39.3109207" lon="16.6545389"><ele>1231.0</ele><time>2026-05-03T15:31:48.262Z</time></trkpt><trkpt lat="39.3108303" lon="16.6544337"><ele>1233.75</ele><time>2026-05-03T15:31:49.252Z</time></trkpt><trkpt lat="39.3107017" lon="16.6543111"><ele>1236.5</ele><time>2026-05-03T15:31:50.267Z</time></trkpt><trkpt lat="39.3106026" lon="16.6542903"><ele>1239.25</ele><time>2026-05-03T15:31:51.266Z</time></trkpt><trkpt lat="39.3105046" lon="16.6543176"><ele>1242.0</ele><time>2026-05-03T15:31:52.285Z</time></trkpt><trkpt lat="39.3104028" lon="16.6544007"><ele>1241.25</ele><time>2026-05-03T15:31:53.264Z</time></trkpt><trkpt lat="39.3102754" lon="16.6544417"><ele>1240.5</ele><time>2026-05-03T15:31:54.263Z</time></trkpt><trkpt lat="39.3101482" lon="16.6544961"><ele>1239.75</ele><time>2026-05-03T15:31:55.263Z</time></trkpt><trkpt lat="39.3100017" lon="16.6545341"><ele>1239.0</ele><time>2026-05-03T15:31:56.268Z</time></trkpt><trkpt lat="39.3098573" lon="16.6545462"><ele>1243.3333333333333</ele><time>2026-05-03T15:31:57.262Z</time></trkpt><trkpt lat="39.3097006" lon="16.6545629"><ele>1247.6666666666665</ele><time>2026-05-03T15:31:58.262Z</time></trkpt><trkpt lat="39.309533" lon="16.6545961"><ele>1252.0</ele><time>2026-05-03T15:31:59.264Z</time></trkpt><trkpt lat="39.3093762" lon="16.6546446"><ele>1252.0</ele><time>2026-05-03T15:32:00.261Z</time></trkpt><trkpt lat="39.3092493" lon="16.6546918"><ele>1252.0</ele><time>2026-05-03T15:32:01.276Z</time></trkpt><trkpt lat="39.3091275" lon="16.6547401"><ele>1252.0</ele><time>2026-05-03T15:32:02.262Z</time></trkpt><trkpt lat="39.3090113" lon="16.6547928"><ele>1252.0</ele><time>2026-05-03T15:32:03.264Z</time></trkpt><trkpt lat="39.3088895" lon="16.6548488"><ele>1252.5</ele><time>2026-05-03T15:32:04.271Z</time></trkpt><trkpt lat="39.3087646" lon="16.6549148"><ele>1253.0</ele><time>2026-05-03T15:32:05.27Z</time></trkpt><trkpt lat="39.3086482" lon="16.6549974"><ele>1253.5</ele><time>2026-05-03T15:32:06.264Z</time></trkpt><trkpt lat="39.3085413" lon="16.6550867"><ele>1254.0</ele><time>2026-05-03T15:32:07.286Z</time></trkpt><trkpt lat="39.3084341" lon="16.655176"><ele>1254.0</ele><time>2026-05-03T15:32:08.267Z</time></trkpt><trkpt lat="39.3083201" lon="16.6552752"><ele>1254.0</ele><time>2026-05-03T15:32:09.261Z</time></trkpt><trkpt lat="39.3081926" lon="16.6553818"><ele>1254.0</ele><time>2026-05-03T15:32:10.267Z</time></trkpt><trkpt lat="39.3080518" lon="16.6555009"><ele>1251.3333333333333</ele><time>2026-05-03T15:32:11.266Z</time></trkpt><trkpt lat="39.3079064" lon="16.6556146"><ele>1248.6666666666665</ele><time>2026-05-03T15:32:12.29Z</time></trkpt><trkpt lat="39.3077639" lon="16.6557174"><ele>1246.0</ele><time>2026-05-03T15:32:13.267Z</time></trkpt><trkpt lat="39.3076205" lon="16.6558081"><ele>1246.0</ele><time>2026-05-03T15:32:14.262Z</time></trkpt><trkpt lat="39.3074816" lon="16.6558945"><ele>1246.0</ele><time>2026-05-03T15:32:15.267Z</time></trkpt><trkpt lat="39.3073493" lon="16.6559744"><ele>1246.0</ele><time>2026-05-03T15:32:16.268Z</time></trkpt><trkpt lat="39.307226" lon="16.6560554"><ele>1246.0</ele><time>2026-05-03T15:32:17.268Z</time></trkpt><trkpt lat="39.3071003" lon="16.6561375"><ele>1244.0</ele><time>2026-05-03T15:32:18.276Z</time></trkpt><trkpt lat="39.3069833" lon="16.6562132"><ele>1242.0</ele><time>2026-05-03T15:32:19.26Z</time></trkpt><trkpt lat="39.3068514" lon="16.6562932"><ele>1240.0</ele><time>2026-05-03T15:32:20.294Z</time></trkpt><trkpt lat="39.3067182" lon="16.656378"><ele>1238.0</ele><time>2026-05-03T15:32:21.26Z</time></trkpt><trkpt lat="39.306594" lon="16.6564802"><ele>1238.0</ele><time>2026-05-03T15:32:22.271Z</time></trkpt><trkpt lat="39.3064936" lon="16.6566165"><ele>1238.0</ele><time>2026-05-03T15:32:23.263Z</time></trkpt><trkpt lat="39.3064239" lon="16.6567846"><ele>1238.0</ele><time>2026-05-03T15:32:24.268Z</time></trkpt><trkpt lat="39.3063712" lon="16.6569872"><ele>1238.3333333333335</ele><time>2026-05-03T15:32:25.267Z</time></trkpt><trkpt lat="39.3063351" lon="16.6572198"><ele>1238.6666666666667</ele><time>2026-05-03T15:32:26.289Z</time></trkpt><trkpt lat="39.3062982" lon="16.6574681"><ele>1239.0</ele><time>2026-05-03T15:32:27.264Z</time></trkpt><trkpt lat="39.3062651" lon="16.6577092"><ele>1238.6666666666667</ele><time>2026-05-03T15:32:28.266Z</time></trkpt><trkpt lat="39.3062344" lon="16.6579215"><ele>1238.3333333333335</ele><time>2026-05-03T15:32:29.272Z</time></trkpt><trkpt lat="39.306206" lon="16.6581282"><ele>1238.0</ele><time>2026-05-03T15:32:30.267Z</time></trkpt><trkpt lat="39.3061696" lon="16.6583332"><ele>1238.0</ele><time>2026-05-03T15:32:31.283Z</time></trkpt><trkpt lat="39.3061503" lon="16.6585378"><ele>1238.0</ele><time>2026-05-03T15:32:32.269Z</time></trkpt><trkpt lat="39.306097" lon="16.6587243"><ele>1238.0</ele><time>2026-05-03T15:32:33.268Z</time></trkpt><trkpt lat="39.3060122" lon="16.6589099"><ele>1236.3333333333335</ele><time>2026-05-03T15:32:34.263Z</time></trkpt><trkpt lat="39.3059139" lon="16.6590951"><ele>1234.6666666666667</ele><time>2026-05-03T15:32:35.267Z</time></trkpt><trkpt lat="39.3058176" lon="16.6592688"><ele>1233.0</ele><time>2026-05-03T15:32:36.264Z</time></trkpt><trkpt lat="39.3057234" lon="16.6594322"><ele>1232.0</ele><time>2026-05-03T15:32:37.261Z</time></trkpt><trkpt lat="39.3056353" lon="16.6595827"><ele>1231.0</ele><time>2026-05-03T15:32:38.266Z</time></trkpt><trkpt lat="39.3055502" lon="16.659721"><ele>1230.0</ele><time>2026-05-03T15:32:39.266Z</time></trkpt><trkpt lat="39.3054705" lon="16.6598564"><ele>1229.0</ele><time>2026-05-03T15:32:40.27Z</time></trkpt><trkpt lat="39.3054047" lon="16.6599995"><ele>1229.0</ele><time>2026-05-03T15:32:41.277Z</time></trkpt><trkpt lat="39.3053454" lon="16.6601423"><ele>1229.0</ele><time>2026-05-03T15:32:42.266Z</time></trkpt><trkpt lat="39.3052829" lon="16.6602899"><ele>1229.0</ele><time>2026-05-03T15:32:43.26Z</time></trkpt><trkpt lat="39.3052086" lon="16.6604375"><ele>1229.0</ele><time>2026-05-03T15:32:44.261Z</time></trkpt><trkpt lat="39.305125" lon="16.6605795"><ele>1229.0</ele><time>2026-05-03T15:32:45.261Z</time></trkpt><trkpt lat="39.3050454" lon="16.6607066"><ele>1229.0</ele><time>2026-05-03T15:32:46.272Z</time></trkpt><trkpt lat="39.3049687" lon="16.6608239"><ele>1229.0</ele><time>2026-05-03T15:32:47.258Z</time></trkpt><trkpt lat="39.3048912" lon="16.66094"><ele>1229.0</ele><time>2026-05-03T15:32:48.262Z</time></trkpt><trkpt lat="39.304821" lon="16.6610559"><ele>1228.6000000000001</ele><time>2026-05-03T15:32:49.26Z</time></trkpt><trkpt lat="39.3047524" lon="16.6611612"><ele>1228.2</ele><time>2026-05-03T15:32:50.264Z</time></trkpt><trkpt lat="39.3046862" lon="16.6612671"><ele>1227.8000000000002</ele><time>2026-05-03T15:32:51.26Z</time></trkpt><trkpt lat="39.3046188" lon="16.6613756"><ele>1227.4</ele><time>2026-05-03T15:32:52.267Z</time></trkpt><trkpt lat="39.3045473" lon="16.6614881"><ele>1227.0</ele><time>2026-05-03T15:32:53.275Z</time></trkpt><trkpt lat="39.3044688" lon="16.6616094"><ele>1226.25</ele><time>2026-05-03T15:32:54.262Z</time></trkpt><trkpt lat="39.3043876" lon="16.6617374"><ele>1225.5</ele><time>2026-05-03T15:32:55.26Z</time></trkpt><trkpt lat="39.304306" lon="16.6618611"><ele>1224.75</ele><time>2026-05-03T15:32:56.261Z</time></trkpt><trkpt lat="39.3042267" lon="16.6619787"><ele>1224.0</ele><time>2026-05-03T15:32:57.262Z</time></trkpt><trkpt lat="39.3041639" lon="16.6620752"><ele>1223.75</ele><time>2026-05-03T15:32:58.258Z</time></trkpt><trkpt lat="39.3040781" lon="16.6621688"><ele>1223.5</ele><time>2026-05-03T15:33:13.265Z</time></trkpt><trkpt lat="39.303968" lon="16.6623123"><ele>1223.25</ele><time>2026-05-03T15:33:15.263Z</time></trkpt><trkpt lat="39.3038674" lon="16.6624308"><ele>1223.0</ele><time>2026-05-03T15:33:16.264Z</time></trkpt><trkpt lat="39.3037604" lon="16.6625503"><ele>1221.0</ele><time>2026-05-03T15:33:17.275Z</time></trkpt><trkpt lat="39.303627" lon="16.662707"><ele>1219.0</ele><time>2026-05-03T15:33:18.26Z</time></trkpt><trkpt lat="39.3034839" lon="16.6628701"><ele>1217.0</ele><time>2026-05-03T15:33:19.26Z</time></trkpt><trkpt lat="39.3033344" lon="16.6630557"><ele>1217.0</ele><time>2026-05-03T15:33:20.261Z</time></trkpt><trkpt lat="39.3031801" lon="16.6632495"><ele>1217.0</ele><time>2026-05-03T15:33:21.262Z</time></trkpt><trkpt lat="39.3030323" lon="16.6634406"><ele>1217.0</ele><time>2026-05-03T15:33:22.261Z</time></trkpt><trkpt lat="39.3028954" lon="16.6636253"><ele>1214.0</ele><time>2026-05-03T15:33:23.291Z</time></trkpt><trkpt lat="39.3027648" lon="16.6638038"><ele>1211.0</ele><time>2026-05-03T15:33:24.269Z</time></trkpt><trkpt lat="39.3026365" lon="16.6639781"><ele>1208.0</ele><time>2026-05-03T15:33:25.267Z</time></trkpt><trkpt lat="39.3025128" lon="16.6641462"><ele>1208.0</ele><time>2026-05-03T15:33:26.266Z</time></trkpt><trkpt lat="39.3023901" lon="16.664305"><ele>1208.0</ele><time>2026-05-03T15:33:27.269Z</time></trkpt><trkpt lat="39.3022776" lon="16.6644711"><ele>1208.0</ele><time>2026-05-03T15:33:28.267Z</time></trkpt><trkpt lat="39.3021771" lon="16.6646431"><ele>1205.0</ele><time>2026-05-03T15:33:29.283Z</time></trkpt><trkpt lat="39.302082" lon="16.6648093"><ele>1202.0</ele><time>2026-05-03T15:33:30.266Z</time></trkpt><trkpt lat="39.3019921" lon="16.6649773"><ele>1199.0</ele><time>2026-05-03T15:33:31.262Z</time></trkpt><trkpt lat="39.3019032" lon="16.6651459"><ele>1198.6666666666667</ele><time>2026-05-03T15:33:32.26Z</time></trkpt><trkpt lat="39.3018075" lon="16.6653174"><ele>1198.3333333333333</ele><time>2026-05-03T15:33:33.265Z</time></trkpt><trkpt lat="39.3017063" lon="16.6654876"><ele>1198.0</ele><time>2026-05-03T15:33:34.268Z</time></trkpt><trkpt lat="39.3016001" lon="16.6656554"><ele>1198.0</ele><time>2026-05-03T15:33:35.264Z</time></trkpt><trkpt lat="39.3014892" lon="16.6658269"><ele>1198.0</ele><time>2026-05-03T15:33:36.268Z</time></trkpt><trkpt lat="39.3013811" lon="16.6659933"><ele>1198.0</ele><time>2026-05-03T15:33:37.267Z</time></trkpt><trkpt lat="39.3012763" lon="16.6661525"><ele>1195.0</ele><time>2026-05-03T15:33:38.27Z</time></trkpt><trkpt lat="39.3011758" lon="16.6663099"><ele>1192.0</ele><time>2026-05-03T15:33:39.268Z</time></trkpt><trkpt lat="39.3010717" lon="16.6664722"><ele>1189.0</ele><time>2026-05-03T15:33:40.262Z</time></trkpt><trkpt lat="39.3009642" lon="16.6666357"><ele>1189.0</ele><time>2026-05-03T15:33:41.282Z</time></trkpt><trkpt lat="39.300857" lon="16.6667828"><ele>1189.0</ele><time>2026-05-03T15:33:42.269Z</time></trkpt><trkpt lat="39.3007292" lon="16.6668892"><ele>1189.0</ele><time>2026-05-03T15:33:43.264Z</time></trkpt><trkpt lat="39.3005983" lon="16.6669739"><ele>1188.0</ele><time>2026-05-03T15:33:44.266Z</time></trkpt><trkpt lat="39.3004636" lon="16.6670473"><ele>1187.0</ele><time>2026-05-03T15:33:45.266Z</time></trkpt><trkpt lat="39.3003314" lon="16.667129"><ele>1186.0</ele><time>2026-05-03T15:33:46.269Z</time></trkpt><trkpt lat="39.3001984" lon="16.6672132"><ele>1185.0</ele><time>2026-05-03T15:33:47.267Z</time></trkpt><trkpt lat="39.3000631" lon="16.6672996"><ele>1185.0</ele><time>2026-05-03T15:33:48.261Z</time></trkpt><trkpt lat="39.2999227" lon="16.6673874"><ele>1185.0</ele><time>2026-05-03T15:33:49.285Z</time></trkpt><trkpt lat="39.2997864" lon="16.6674751"><ele>1185.0</ele><time>2026-05-03T15:33:50.263Z</time></trkpt><trkpt lat="39.2996514" lon="16.6675708"><ele>1185.6666666666667</ele><time>2026-05-03T15:33:51.26Z</time></trkpt><trkpt lat="39.2995388" lon="16.667714"><ele>1186.3333333333335</ele><time>2026-05-03T15:33:52.264Z</time></trkpt><trkpt lat="39.2994373" lon="16.6678818"><ele>1187.0</ele><time>2026-05-03T15:33:53.262Z</time></trkpt><trkpt lat="39.299332" lon="16.668059"><ele>1187.0</ele><time>2026-05-03T15:33:54.281Z</time></trkpt><trkpt lat="39.2992097" lon="16.6682167"><ele>1187.0</ele><time>2026-05-03T15:33:55.261Z</time></trkpt><trkpt lat="39.2990638" lon="16.6683629"><ele>1187.0</ele><time>2026-05-03T15:33:56.262Z</time></trkpt><trkpt lat="39.2989066" lon="16.6685119"><ele>1187.0</ele><time>2026-05-03T15:33:57.265Z</time></trkpt><trkpt lat="39.2987405" lon="16.6686652"><ele>1187.0</ele><time>2026-05-03T15:33:58.266Z</time></trkpt><trkpt lat="39.298569" lon="16.6688209"><ele>1187.0</ele><time>2026-05-03T15:33:59.257Z</time></trkpt><trkpt lat="39.2983976" lon="16.6689789"><ele>1187.0</ele><time>2026-05-03T15:34:00.295Z</time></trkpt><trkpt lat="39.2982517" lon="16.6691126"><ele>1187.0</ele><time>2026-05-03T15:34:01.26Z</time></trkpt><trkpt lat="39.2981289" lon="16.6692156"><ele>1187.0</ele><time>2026-05-03T15:34:02.262Z</time></trkpt><trkpt lat="39.298022" lon="16.6692914"><ele>1187.0</ele><time>2026-05-03T15:34:03.262Z</time></trkpt><trkpt lat="39.2979097" lon="16.6693525"><ele>1189.75</ele><time>2026-05-03T15:34:04.267Z</time></trkpt><trkpt lat="39.2977907" lon="16.6693925"><ele>1192.5</ele><time>2026-05-03T15:34:05.264Z</time></trkpt><trkpt lat="39.2976709" lon="16.6694219"><ele>1195.25</ele><time>2026-05-03T15:34:06.263Z</time></trkpt><trkpt lat="39.2975586" lon="16.6694627"><ele>1198.0</ele><time>2026-05-03T15:34:07.259Z</time></trkpt><trkpt lat="39.2974606" lon="16.6695322"><ele>1198.0</ele><time>2026-05-03T15:34:08.27Z</time></trkpt><trkpt lat="39.2973816" lon="16.6696267"><ele>1198.0</ele><time>2026-05-03T15:34:09.265Z</time></trkpt><trkpt lat="39.2973659" lon="16.6697646"><ele>1198.0</ele><time>2026-05-03T15:34:10.263Z</time></trkpt><trkpt lat="39.2974014" lon="16.6699017"><ele>1198.0</ele><time>2026-05-03T15:34:11.278Z</time></trkpt><trkpt lat="39.297491" lon="16.6700429"><ele>1198.0</ele><time>2026-05-03T15:34:12.261Z</time></trkpt><trkpt lat="39.2975934" lon="16.670195"><ele>1198.0</ele><time>2026-05-03T15:34:13.259Z</time></trkpt><trkpt lat="39.2977092" lon="16.6703763"><ele>1198.0</ele><time>2026-05-03T15:34:14.258Z</time></trkpt><trkpt lat="39.2978166" lon="16.6705641"><ele>1201.0</ele><time>2026-05-03T15:34:15.26Z</time></trkpt><trkpt lat="39.2979256" lon="16.6707385"><ele>1204.0</ele><time>2026-05-03T15:34:16.253Z</time></trkpt><trkpt lat="39.2980261" lon="16.6709054"><ele>1207.0</ele><time>2026-05-03T15:34:17.26Z</time></trkpt><trkpt lat="39.2981109" lon="16.671077"><ele>1203.75</ele><time>2026-05-03T15:34:18.262Z</time></trkpt><trkpt lat="39.2981723" lon="16.6712661"><ele>1200.5</ele><time>2026-05-03T15:34:19.258Z</time></trkpt><trkpt lat="39.2982303" lon="16.671457"><ele>1197.25</ele><time>2026-05-03T15:34:20.277Z</time></trkpt><trkpt lat="39.2982697" lon="16.6716113"><ele>1194.0</ele><time>2026-05-03T15:34:21.263Z</time></trkpt><trkpt lat="39.2982929" lon="16.6717346"><ele>1194.0</ele><time>2026-05-03T15:34:22.26Z</time></trkpt><trkpt lat="39.2982734" lon="16.6718443"><ele>1194.0</ele><time>2026-05-03T15:34:23.263Z</time></trkpt><trkpt lat="39.2982025" lon="16.6719613"><ele>1194.0</ele><time>2026-05-03T15:34:24.262Z</time></trkpt><trkpt lat="39.2980948" lon="16.6720935"><ele>1194.0</ele><time>2026-05-03T15:34:25.263Z</time></trkpt><trkpt lat="39.2979835" lon="16.6722389"><ele>1197.0</ele><time>2026-05-03T15:34:26.267Z</time></trkpt><trkpt lat="39.2978657" lon="16.6723968"><ele>1200.0</ele><time>2026-05-03T15:34:27.261Z</time></trkpt><trkpt lat="39.2977414" lon="16.6725725"><ele>1203.0</ele><time>2026-05-03T15:34:28.28Z</time></trkpt><trkpt lat="39.2976152" lon="16.6727582"><ele>1199.6666666666667</ele><time>2026-05-03T15:34:29.259Z</time></trkpt><trkpt lat="39.2974883" lon="16.6729491"><ele>1196.3333333333335</ele><time>2026-05-03T15:34:30.3Z</time></trkpt><trkpt lat="39.2973735" lon="16.6731183"><ele>1193.0</ele><time>2026-05-03T15:34:31.266Z</time></trkpt><trkpt lat="39.2972598" lon="16.6732588"><ele>1196.0</ele><time>2026-05-03T15:34:32.266Z</time></trkpt><trkpt lat="39.2971309" lon="16.6733365"><ele>1199.0</ele><time>2026-05-03T15:34:33.259Z</time></trkpt><trkpt lat="39.2970021" lon="16.6733727"><ele>1202.0</ele><time>2026-05-03T15:34:34.261Z</time></trkpt><trkpt lat="39.2968745" lon="16.6733689"><ele>1205.0</ele><time>2026-05-03T15:34:35.28Z</time></trkpt><trkpt lat="39.2967624" lon="16.6733027"><ele>1205.0</ele><time>2026-05-03T15:34:36.259Z</time></trkpt><trkpt lat="39.2966516" lon="16.6731916"><ele>1205.0</ele><time>2026-05-03T15:34:37.257Z</time></trkpt><trkpt lat="39.2965377" lon="16.6730893"><ele>1205.0</ele><time>2026-05-03T15:34:38.259Z</time></trkpt><trkpt lat="39.2964023" lon="16.6730388"><ele>1205.0</ele><time>2026-05-03T15:34:39.261Z</time></trkpt><trkpt lat="39.2962375" lon="16.6730196"><ele>1206.0</ele><time>2026-05-03T15:34:40.256Z</time></trkpt><trkpt lat="39.2960578" lon="16.6730044"><ele>1207.0</ele><time>2026-05-03T15:34:41.262Z</time></trkpt><trkpt lat="39.2958694" lon="16.6729935"><ele>1208.0</ele><time>2026-05-03T15:34:42.257Z</time></trkpt><trkpt lat="39.2956887" lon="16.6729821"><ele>1210.0</ele><time>2026-05-03T15:34:43.266Z</time></trkpt><trkpt lat="39.2955429" lon="16.67299"><ele>1212.0</ele><time>2026-05-03T15:34:44.264Z</time></trkpt><trkpt lat="39.2954389" lon="16.6730533"><ele>1214.0</ele><time>2026-05-03T15:34:45.265Z</time></trkpt><trkpt lat="39.2953336" lon="16.6731977"><ele>1216.0</ele><time>2026-05-03T15:34:46.298Z</time></trkpt><trkpt lat="39.2952614" lon="16.6733811"><ele>1216.0</ele><time>2026-05-03T15:34:47.26Z</time></trkpt><trkpt lat="39.2951922" lon="16.673592"><ele>1216.0</ele><time>2026-05-03T15:34:48.264Z</time></trkpt><trkpt lat="39.2951288" lon="16.6738262"><ele>1216.0</ele><time>2026-05-03T15:34:49.261Z</time></trkpt><trkpt lat="39.295057" lon="16.6740839"><ele>1214.3333333333333</ele><time>2026-05-03T15:34:50.267Z</time></trkpt><trkpt lat="39.2949836" lon="16.6743397"><ele>1212.6666666666667</ele><time>2026-05-03T15:34:51.264Z</time></trkpt><trkpt lat="39.2949059" lon="16.6745598"><ele>1211.0</ele><time>2026-05-03T15:34:52.287Z</time></trkpt><trkpt lat="39.2948326" lon="16.6747398"><ele>1211.25</ele><time>2026-05-03T15:34:53.271Z</time></trkpt><trkpt lat="39.2947587" lon="16.6748925"><ele>1211.5</ele><time>2026-05-03T15:34:54.265Z</time></trkpt><trkpt lat="39.2946865" lon="16.6750218"><ele>1211.75</ele><time>2026-05-03T15:34:55.269Z</time></trkpt><trkpt lat="39.2946009" lon="16.6751349"><ele>1212.0</ele><time>2026-05-03T15:34:56.269Z</time></trkpt><trkpt lat="39.2945051" lon="16.6752139"><ele>1212.0</ele><time>2026-05-03T15:34:57.284Z</time></trkpt><trkpt lat="39.2944124" lon="16.6752576"><ele>1212.0</ele><time>2026-05-03T15:34:58.263Z</time></trkpt><trkpt lat="39.2943217" lon="16.6752642"><ele>1212.0</ele><time>2026-05-03T15:34:59.267Z</time></trkpt><trkpt lat="39.2942437" lon="16.6752518"><ele>1212.0</ele><time>2026-05-03T15:35:00.263Z</time></trkpt><trkpt lat="39.2941789" lon="16.6752307"><ele>1212.0</ele><time>2026-05-03T15:35:01.264Z</time></trkpt><trkpt lat="39.2940717" lon="16.6751686"><ele>1212.0</ele><time>2026-05-03T15:35:03.259Z</time></trkpt><trkpt lat="39.2939842" lon="16.6750578"><ele>1212.0</ele><time>2026-05-03T15:35:05.26Z</time></trkpt><trkpt lat="39.2939443" lon="16.6749686"><ele>1212.0</ele><time>2026-05-03T15:35:06.265Z</time></trkpt><trkpt lat="39.2939111" lon="16.6748401"><ele>1212.0</ele><time>2026-05-03T15:35:07.261Z</time></trkpt><trkpt lat="39.2938765" lon="16.6746697"><ele>1212.0</ele><time>2026-05-03T15:35:08.288Z</time></trkpt><trkpt lat="39.2938475" lon="16.6744832"><ele>1210.0</ele><time>2026-05-03T15:35:09.26Z</time></trkpt><trkpt lat="39.2938241" lon="16.6742883"><ele>1208.0</ele><time>2026-05-03T15:35:10.259Z</time></trkpt><trkpt lat="39.2938014" lon="16.6740967"><ele>1206.0</ele><time>2026-05-03T15:35:11.265Z</time></trkpt><trkpt lat="39.2937929" lon="16.6739248"><ele>1204.0</ele><time>2026-05-03T15:35:12.26Z</time></trkpt><trkpt lat="39.2938119" lon="16.6737586"><ele>1204.25</ele><time>2026-05-03T15:35:13.261Z</time></trkpt><trkpt lat="39.2938713" lon="16.6736041"><ele>1204.5</ele><time>2026-05-03T15:35:14.261Z</time></trkpt><trkpt lat="39.2939409" lon="16.673451"><ele>1204.75</ele><time>2026-05-03T15:35:15.263Z</time></trkpt><trkpt lat="39.294002" lon="16.6732941"><ele>1205.0</ele><time>2026-05-03T15:35:16.259Z</time></trkpt><trkpt lat="39.2940365" lon="16.6731232"><ele>1207.75</ele><time>2026-05-03T15:35:17.301Z</time></trkpt><trkpt lat="39.294058" lon="16.6729549"><ele>1210.5</ele><time>2026-05-03T15:35:18.265Z</time></trkpt><trkpt lat="39.2940381" lon="16.6727606"><ele>1213.25</ele><time>2026-05-03T15:35:19.259Z</time></trkpt><trkpt lat="39.2940074" lon="16.6725844"><ele>1216.0</ele><time>2026-05-03T15:35:20.257Z</time></trkpt><trkpt lat="39.2939468" lon="16.6724294"><ele>1217.5</ele><time>2026-05-03T15:35:21.258Z</time></trkpt><trkpt lat="39.2938713" lon="16.6722864"><ele>1219.0</ele><time>2026-05-03T15:35:22.269Z</time></trkpt><trkpt lat="39.2937543" lon="16.6722237"><ele>1220.5</ele><time>2026-05-03T15:35:23.265Z</time></trkpt><trkpt lat="39.2936342" lon="16.6722254"><ele>1222.0</ele><time>2026-05-03T15:35:24.266Z</time></trkpt><trkpt lat="39.293505" lon="16.6723259"><ele>1222.0</ele><time>2026-05-03T15:35:25.264Z</time></trkpt><trkpt lat="39.2934336" lon="16.6724804"><ele>1222.0</ele><time>2026-05-03T15:35:26.261Z</time></trkpt><trkpt lat="39.3421536" lon="16.5798126"><ele>1237.6</ele><time>2026-05-03T14:56:39.29Z</time></trkpt><trkpt lat="39.342164" lon="16.5799041"><ele>1253.2</ele><time>2026-05-03T14:56:40.271Z</time></trkpt><trkpt lat="39.3421544" lon="16.5800175"><ele>1268.8</ele><time>2026-05-03T14:56:41.273Z</time></trkpt><trkpt lat="39.3421256" lon="16.580144"><ele>1284.4</ele><time>2026-05-03T14:56:42.263Z</time></trkpt><trkpt lat="39.3420944" lon="16.5802719"><ele>1300.0</ele><time>2026-05-03T14:56:43.27Z</time></trkpt><trkpt lat="39.3420642" lon="16.5804031"><ele>1300.0</ele><time>2026-05-03T14:56:44.272Z</time></trkpt><trkpt lat="39.3420303" lon="16.5805277"><ele>1300.0</ele><time>2026-05-03T14:56:45.269Z</time></trkpt><trkpt lat="39.3419826" lon="16.5806285"><ele>1300.0</ele><time>2026-05-03T14:56:46.272Z</time></trkpt><trkpt lat="39.3419187" lon="16.5806882"><ele>1300.0</ele><time>2026-05-03T14:56:47.28Z</time></trkpt><trkpt lat="39.3418646" lon="16.5807321"><ele>1300.0</ele><time>2026-05-03T14:56:48.268Z</time></trkpt><trkpt lat="39.341841" lon="16.5808891"><ele>1300.0</ele><time>2026-05-03T14:56:50.274Z</time></trkpt><trkpt lat="39.3418323" lon="16.5809946"><ele>1300.0</ele><time>2026-05-03T14:56:51.276Z</time></trkpt><trkpt lat="39.341805" lon="16.581087"><ele>1300.0</ele><time>2026-05-03T14:56:52.274Z</time></trkpt><trkpt lat="39.3417745" lon="16.5811627"><ele>1300.0</ele><time>2026-05-03T14:56:53.272Z</time></trkpt><trkpt lat="39.3417261" lon="16.5812613"><ele>1300.0</ele><time>2026-05-03T14:56:55.279Z</time></trkpt><trkpt lat="39.3416809" lon="16.5814089"><ele>1300.0</ele><time>2026-05-03T14:56:57.273Z</time></trkpt><trkpt lat="39.3416634" lon="16.5815127"><ele>1299.1666666666665</ele><time>2026-05-03T14:56:58.272Z</time></trkpt><trkpt lat="39.3416399" lon="16.5816271"><ele>1298.3333333333333</ele><time>2026-05-03T14:56:59.272Z</time></trkpt><trkpt lat="39.3416017" lon="16.5817225"><ele>1297.5</ele><time>2026-05-03T14:57:00.273Z</time></trkpt><trkpt lat="39.3415639" lon="16.5818115"><ele>1296.6666666666667</ele><time>2026-05-03T14:57:01.273Z</time></trkpt><trkpt lat="39.3415327" lon="16.5818907"><ele>1295.8333333333335</ele><time>2026-05-03T14:57:02.273Z</time></trkpt><trkpt lat="39.3415137" lon="16.581978"><ele>1295.0</ele><time>2026-05-03T14:57:03.279Z</time></trkpt><trkpt lat="39.3415019" lon="16.5820818"><ele>1295.0</ele><time>2026-05-03T14:57:04.271Z</time></trkpt><trkpt lat="39.3414954" lon="16.5821764"><ele>1295.0</ele><time>2026-05-03T14:57:05.271Z</time></trkpt><trkpt lat="39.3414841" lon="16.5822919"><ele>1295.0</ele><time>2026-05-03T14:57:07.268Z</time></trkpt><trkpt lat="39.3414834" lon="16.5824024"><ele>1295.0</ele><time>2026-05-03T14:57:10.275Z</time></trkpt><trkpt lat="39.3414859" lon="16.5824967"><ele>1295.0</ele><time>2026-05-03T14:57:12.267Z</time></trkpt><trkpt lat="39.3414913" lon="16.5826213"><ele>1295.0</ele><time>2026-05-03T14:57:14.274Z</time></trkpt><trkpt lat="39.3414973" lon="16.5827783"><ele>1295.0</ele><time>2026-05-03T14:57:16.274Z</time></trkpt><trkpt lat="39.3414943" lon="16.5829369"><ele>1295.0</ele><time>2026-05-03T14:57:18.276Z</time></trkpt><trkpt lat="39.3414725" lon="16.5830858"><ele>1295.0</ele><time>2026-05-03T14:57:20.271Z</time></trkpt><trkpt lat="39.3414559" lon="16.5831965"><ele>1295.0</ele><time>2026-05-03T14:57:22.267Z</time></trkpt><trkpt lat="39.341481" lon="16.5832776"><ele>1295.0</ele><time>2026-05-03T14:57:25.272Z</time></trkpt><trkpt lat="39.341534" lon="16.5833601"><ele>1295.0</ele><time>2026-05-03T14:57:28.282Z</time></trkpt><trkpt lat="39.3415444" lon="16.5834443"><ele>1295.0</ele><time>2026-05-03T14:57:30.284Z</time></trkpt><trkpt lat="39.3415836" lon="16.5835256"><ele>1295.0</ele><time>2026-05-03T14:57:32.271Z</time></trkpt><trkpt lat="39.3416327" lon="16.5836037"><ele>1295.0</ele><time>2026-05-03T14:57:34.272Z</time></trkpt><trkpt lat="39.3416365" lon="16.5837099"><ele>1295.0</ele><time>2026-05-03T14:57:37.278Z</time></trkpt><trkpt lat="39.3415955" lon="16.5837825"><ele>1295.0</ele><time>2026-05-03T14:57:39.276Z</time></trkpt><trkpt lat="39.3415712" lon="16.5838617"><ele>1295.0</ele><time>2026-05-03T14:57:43.274Z</time></trkpt><trkpt lat="39.3414995" lon="16.5839713"><ele>1295.4</ele><time>2026-05-03T14:57:46.276Z</time></trkpt><trkpt lat="39.3414558" lon="16.5840318"><ele>1295.8</ele><time>2026-05-03T14:57:47.275Z</time></trkpt><trkpt lat="39.3413904" lon="16.584131"><ele>1296.1999999999998</ele><time>2026-05-03T14:57:49.267Z</time></trkpt><trkpt lat="39.3413431" lon="16.5842483"><ele>1296.6</ele><time>2026-05-03T14:57:52.278Z</time></trkpt><trkpt lat="39.3412877" lon="16.5843483"><ele>1297.0</ele><time>2026-05-03T14:57:54.265Z</time></trkpt><trkpt lat="39.3412318" lon="16.5844409"><ele>1297.3999999999999</ele><time>2026-05-03T14:57:56.279Z</time></trkpt><trkpt lat="39.3411536" lon="16.5845412"><ele>1297.8</ele><time>2026-05-03T14:57:58.278Z</time></trkpt><trkpt lat="39.3410678" lon="16.5846362"><ele>1298.2</ele><time>2026-05-03T14:58:00.274Z</time></trkpt><trkpt lat="39.3409831" lon="16.5847405"><ele>1298.6</ele><time>2026-05-03T14:58:02.271Z</time></trkpt><trkpt lat="39.3409166" lon="16.5848341"><ele>1299.0</ele><time>2026-05-03T14:58:04.266Z</time></trkpt><trkpt lat="39.3408611" lon="16.584915"><ele>1299.0</ele><time>2026-05-03T14:58:06.265Z</time></trkpt><trkpt lat="39.3407975" lon="16.5850227"><ele>1299.0</ele><time>2026-05-03T14:58:08.277Z</time></trkpt><trkpt lat="39.340732" lon="16.5851021"><ele>1299.0</ele><time>2026-05-03T14:58:10.269Z</time></trkpt><trkpt lat="39.3406713" lon="16.5851839"><ele>1299.0</ele><time>2026-05-03T14:58:12.278Z</time></trkpt><trkpt lat="39.3406022" lon="16.5852786"><ele>1299.0</ele><time>2026-05-03T14:58:14.27Z</time></trkpt><trkpt lat="39.340533" lon="16.5853578"><ele>1301.4</ele><time>2026-05-03T14:58:16.273Z</time></trkpt><trkpt lat="39.3404805" lon="16.5854277"><ele>1303.8000000000002</ele><time>2026-05-03T14:58:18.276Z</time></trkpt><trkpt lat="39.3404168" lon="16.5854922"><ele>1306.1999999999998</ele><time>2026-05-03T14:58:20.271Z</time></trkpt><trkpt lat="39.3403457" lon="16.5855903"><ele>1308.6</ele><time>2026-05-03T14:58:22.277Z</time></trkpt><trkpt lat="39.3403376" lon="16.5857281"><ele>1311.0</ele><time>2026-05-03T14:58:24.273Z</time></trkpt><trkpt lat="39.3403747" lon="16.585876"><ele>1311.0</ele><time>2026-05-03T14:58:26.271Z</time></trkpt><trkpt lat="39.3404013" lon="16.5860263"><ele>1311.0</ele><time>2026-05-03T14:58:28.269Z</time></trkpt><trkpt lat="39.3404123" lon="16.5861099"><ele>1311.0</ele><time>2026-05-03T14:58:29.267Z</time></trkpt><trkpt lat="39.3404281" lon="16.5861967"><ele>1311.0</ele><time>2026-05-03T14:58:30.274Z</time></trkpt><trkpt lat="39.3404472" lon="16.5862892"><ele>1311.0</ele><time>2026-05-03T14:58:31.278Z</time></trkpt><trkpt lat="39.3404648" lon="16.5863805"><ele>1311.0</ele><time>2026-05-03T14:58:32.268Z</time></trkpt><trkpt lat="39.3404778" lon="16.5864611"><ele>1311.8333333333333</ele><time>2026-05-03T14:58:33.286Z</time></trkpt><trkpt lat="39.3405055" lon="16.5865989"><ele>1312.6666666666667</ele><time>2026-05-03T14:58:35.267Z</time></trkpt><trkpt lat="39.3405215" lon="16.5866847"><ele>1313.5</ele><time>2026-05-03T14:58:36.269Z</time></trkpt><trkpt lat="39.3405371" lon="16.5867773"><ele>1314.3333333333335</ele><time>2026-05-03T14:58:37.266Z</time></trkpt><trkpt lat="39.3405526" lon="16.5868728"><ele>1315.1666666666667</ele><time>2026-05-03T14:58:38.265Z</time></trkpt><trkpt lat="39.3405638" lon="16.5869719"><ele>1316.0</ele><time>2026-05-03T14:58:39.276Z</time></trkpt><trkpt lat="39.3405412" lon="16.5871261"><ele>1313.1999999999998</ele><time>2026-05-03T14:58:41.267Z</time></trkpt><trkpt lat="39.340583" lon="16.5872298"><ele>1310.3999999999999</ele><time>2026-05-03T14:58:43.274Z</time></trkpt><trkpt lat="39.3406898" lon="16.5873206"><ele>1307.6</ele><time>2026-05-03T14:58:45.284Z</time></trkpt><trkpt lat="39.3407601" lon="16.5873642"><ele>1304.8</ele><time>2026-05-03T14:58:46.269Z</time></trkpt><trkpt lat="39.3408394" lon="16.5874162"><ele>1302.0</ele><time>2026-05-03T14:58:47.267Z</time></trkpt><trkpt lat="39.340918" lon="16.5875028"><ele>1302.0</ele><time>2026-05-03T14:58:48.265Z</time></trkpt><trkpt lat="39.3409947" lon="16.5876161"><ele>1302.0</ele><time>2026-05-03T14:58:49.268Z</time></trkpt><trkpt lat="39.341073" lon="16.5877374"><ele>1302.0</ele><time>2026-05-03T14:58:50.267Z</time></trkpt><trkpt lat="39.3411376" lon="16.5878939"><ele>1302.0</ele><time>2026-05-03T14:58:51.271Z</time></trkpt><trkpt lat="39.3411818" lon="16.5880683"><ele>1302.1999999999998</ele><time>2026-05-03T14:58:52.271Z</time></trkpt><trkpt lat="39.3412058" lon="16.5882416"><ele>1302.4</ele><time>2026-05-03T14:58:53.27Z</time></trkpt><trkpt lat="39.341208" lon="16.5883905"><ele>1302.6</ele><time>2026-05-03T14:58:54.281Z</time></trkpt><trkpt lat="39.3411912" lon="16.5885134"><ele>1302.8000000000002</ele><time>2026-05-03T14:58:55.269Z</time></trkpt><trkpt lat="39.3411643" lon="16.5886299"><ele>1303.0</ele><time>2026-05-03T14:58:56.272Z</time></trkpt><trkpt lat="39.3411162" lon="16.5886978"><ele>1303.1666666666665</ele><time>2026-05-03T14:58:57.27Z</time></trkpt><trkpt lat="39.3410819" lon="16.5887681"><ele>1303.3333333333333</ele><time>2026-05-03T14:58:58.277Z</time></trkpt><trkpt lat="39.3410417" lon="16.5889026"><ele>1303.5</ele><time>2026-05-03T14:59:00.277Z</time></trkpt><trkpt lat="39.3410425" lon="16.5890082"><ele>1303.6666666666667</ele><time>2026-05-03T14:59:02.276Z</time></trkpt><trkpt lat="39.3410428" lon="16.5890919"><ele>1303.8333333333335</ele><time>2026-05-03T14:59:03.275Z</time></trkpt><trkpt lat="39.3410536" lon="16.5891882"><ele>1304.0</ele><time>2026-05-03T14:59:04.278Z</time></trkpt><trkpt lat="39.3410819" lon="16.5892876"><ele>1304.0</ele><time>2026-05-03T14:59:05.277Z</time></trkpt><trkpt lat="39.3411216" lon="16.5893817"><ele>1304.0</ele><time>2026-05-03T14:59:06.271Z</time></trkpt><trkpt lat="39.3411582" lon="16.5894862"><ele>1304.0</ele><time>2026-05-03T14:59:07.273Z</time></trkpt><trkpt lat="39.341178" lon="16.5896018"><ele>1304.0</ele><time>2026-05-03T14:59:08.286Z</time></trkpt><trkpt lat="39.341192" lon="16.5897132"><ele>1304.0</ele><time>2026-05-03T14:59:09.273Z</time></trkpt><trkpt lat="39.3412007" lon="16.5898305"><ele>1304.0</ele><time>2026-05-03T14:59:10.283Z</time></trkpt><trkpt lat="39.3412054" lon="16.5899441"><ele>1304.1666666666667</ele><time>2026-05-03T14:59:11.269Z</time></trkpt><trkpt lat="39.341206" lon="16.5900487"><ele>1304.3333333333335</ele><time>2026-05-03T14:59:12.272Z</time></trkpt><trkpt lat="39.3412015" lon="16.5901436"><ele>1304.5</ele><time>2026-05-03T14:59:13.275Z</time></trkpt><trkpt lat="39.341189" lon="16.5902407"><ele>1304.6666666666667</ele><time>2026-05-03T14:59:14.27Z</time></trkpt><trkpt lat="39.3411755" lon="16.5903388"><ele>1304.8333333333333</ele><time>2026-05-03T14:59:15.28Z</time></trkpt><trkpt lat="39.3411643" lon="16.590432"><ele>1305.0</ele><time>2026-05-03T14:59:16.28Z</time></trkpt><trkpt lat="39.3411528" lon="16.5905328"><ele>1305.1666666666667</ele><time>2026-05-03T14:59:17.272Z</time></trkpt><trkpt lat="39.3411421" lon="16.5906399"><ele>1305.3333333333333</ele><time>2026-05-03T14:59:18.265Z</time></trkpt><trkpt lat="39.3411298" lon="16.5907437"><ele>1305.5</ele><time>2026-05-03T14:59:19.273Z</time></trkpt><trkpt lat="39.3411033" lon="16.5908319"><ele>1305.6666666666665</ele><time>2026-05-03T14:59:20.267Z</time></trkpt><trkpt lat="39.3410942" lon="16.5909168"><ele>1305.8333333333333</ele><time>2026-05-03T14:59:21.269Z</time></trkpt><trkpt lat="39.3411471" lon="16.5910532"><ele>1306.0</ele><time>2026-05-03T14:59:23.274Z</time></trkpt><trkpt lat="39.3411791" lon="16.5911306"><ele>1306.5</ele><time>2026-05-03T14:59:24.277Z</time></trkpt><trkpt lat="39.3411918" lon="16.5912211"><ele>1307.0</ele><time>2026-05-03T14:59:25.272Z</time></trkpt><trkpt lat="39.3411971" lon="16.5913331"><ele>1307.5</ele><time>2026-05-03T14:59:26.272Z</time></trkpt><trkpt lat="39.3411956" lon="16.5914391"><ele>1308.0</ele><time>2026-05-03T14:59:27.268Z</time></trkpt><trkpt lat="39.3411886" lon="16.5915354"><ele>1308.5</ele><time>2026-05-03T14:59:28.266Z</time></trkpt><trkpt lat="39.3411841" lon="16.5916202"><ele>1309.0</ele><time>2026-05-03T14:59:29.267Z</time></trkpt><trkpt lat="39.3411882" lon="16.5917121"><ele>1309.0</ele><time>2026-05-03T14:59:30.274Z</time></trkpt><trkpt lat="39.3411943" lon="16.5918127"><ele>1309.0</ele><time>2026-05-03T14:59:31.27Z</time></trkpt><trkpt lat="39.3412158" lon="16.5919254"><ele>1309.0</ele><time>2026-05-03T14:59:32.264Z</time></trkpt><trkpt lat="39.3412415" lon="16.5920316"><ele>1309.0</ele><time>2026-05-03T14:59:33.272Z</time></trkpt><trkpt lat="39.3412507" lon="16.5921295"><ele>1309.0</ele><time>2026-05-03T14:59:34.274Z</time></trkpt><trkpt lat="39.3412493" lon="16.5922275"><ele>1309.0</ele><time>2026-05-03T14:59:35.275Z</time></trkpt><trkpt lat="39.3412231" lon="16.5923203"><ele>1308.8333333333333</ele><time>2026-05-03T14:59:36.269Z</time></trkpt><trkpt lat="39.3411739" lon="16.592427"><ele>1308.6666666666665</ele><time>2026-05-03T14:59:38.267Z</time></trkpt><trkpt lat="39.3411247" lon="16.5925032"><ele>1308.5</ele><time>2026-05-03T14:59:47.279Z</time></trkpt><trkpt lat="39.3410877" lon="16.5925715"><ele>1308.3333333333333</ele><time>2026-05-03T14:59:50.271Z</time></trkpt><trkpt lat="39.341053" lon="16.5926451"><ele>1308.1666666666667</ele><time>2026-05-03T14:59:52.27Z</time></trkpt><trkpt lat="39.3410017" lon="16.5927827"><ele>1308.0</ele><time>2026-05-03T14:59:54.262Z</time></trkpt><trkpt lat="39.3409808" lon="16.5928627"><ele>1307.5</ele><time>2026-05-03T14:59:55.277Z</time></trkpt><trkpt lat="39.3409618" lon="16.5929452"><ele>1307.0</ele><time>2026-05-03T14:59:56.275Z</time></trkpt><trkpt lat="39.3409436" lon="16.5930235"><ele>1306.5</ele><time>2026-05-03T14:59:57.266Z</time></trkpt><trkpt lat="39.3409278" lon="16.5931138"><ele>1306.0</ele><time>2026-05-03T14:59:58.268Z</time></trkpt><trkpt lat="39.340906" lon="16.5932523"><ele>1305.5</ele><time>2026-05-03T15:00:00.279Z</time></trkpt><trkpt lat="39.3409173" lon="16.5933774"><ele>1305.0</ele><time>2026-05-03T15:00:02.268Z</time></trkpt><trkpt lat="39.3409301" lon="16.5934742"><ele>1305.0</ele><time>2026-05-03T15:00:04.282Z</time></trkpt><trkpt lat="39.3409469" lon="16.593588"><ele>1305.0</ele><time>2026-05-03T15:00:06.265Z</time></trkpt><trkpt lat="39.3409781" lon="16.593707"><ele>1305.0</ele><time>2026-05-03T15:00:08.263Z</time></trkpt><trkpt lat="39.3409949" lon="16.5938048"><ele>1305.0</ele><time>2026-05-03T15:00:10.274Z</time></trkpt><trkpt lat="39.3410213" lon="16.5939061"><ele>1305.0</ele><time>2026-05-03T15:00:12.267Z</time></trkpt><trkpt lat="39.3410544" lon="16.5940141"><ele>1305.0</ele><time>2026-05-03T15:00:15.283Z</time></trkpt><trkpt lat="39.3410964" lon="16.594111"><ele>1304.3333333333333</ele><time>2026-05-03T15:00:17.275Z</time></trkpt><trkpt lat="39.3411581" lon="16.594181"><ele>1303.6666666666667</ele><time>2026-05-03T15:00:19.287Z</time></trkpt><trkpt lat="39.3412315" lon="16.5942659"><ele>1303.0</ele><time>2026-05-03T15:00:21.275Z</time></trkpt><trkpt lat="39.3412856" lon="16.594315"><ele>1302.3333333333335</ele><time>2026-05-03T15:00:22.277Z</time></trkpt><trkpt lat="39.3413449" lon="16.5943722"><ele>1301.6666666666667</ele><time>2026-05-03T15:00:23.272Z</time></trkpt><trkpt lat="39.341434" lon="16.5944473"><ele>1301.0</ele><time>2026-05-03T15:00:25.272Z</time></trkpt><trkpt lat="39.3414936" lon="16.5945264"><ele>1301.0</ele><time>2026-05-03T15:00:27.284Z</time></trkpt><trkpt lat="39.3415481" lon="16.5946145"><ele>1301.0</ele><time>2026-05-03T15:00:29.274Z</time></trkpt><trkpt lat="39.3415895" lon="16.5946877"><ele>1301.0</ele><time>2026-05-03T15:00:31.278Z</time></trkpt><trkpt lat="39.3416749" lon="16.5947633"><ele>1301.0</ele><time>2026-05-03T15:00:33.28Z</time></trkpt><trkpt lat="39.3417433" lon="16.5948174"><ele>1301.0</ele><time>2026-05-03T15:00:34.271Z</time></trkpt><trkpt lat="39.3418272" lon="16.5948896"><ele>1301.0</ele><time>2026-05-03T15:00:36.272Z</time></trkpt><trkpt lat="39.3418933" lon="16.5949334"><ele>1301.0</ele><time>2026-05-03T15:00:48.276Z</time></trkpt><trkpt lat="39.3418702" lon="16.5950342"><ele>1301.0</ele><time>2026-05-03T15:00:51.298Z</time></trkpt><trkpt lat="39.3418567" lon="16.59513"><ele>1301.0</ele><time>2026-05-03T15:00:53.273Z</time></trkpt><trkpt lat="39.3418918" lon="16.5952037"><ele>1301.0</ele><time>2026-05-03T15:01:25.276Z</time></trkpt><trkpt lat="39.3418653" lon="16.5952893"><ele>1301.0</ele><time>2026-05-03T15:01:33.279Z</time></trkpt><trkpt lat="39.3418363" lon="16.5953768"><ele>1301.0</ele><time>2026-05-03T15:01:36.269Z</time></trkpt><trkpt lat="39.3418872" lon="16.5954453"><ele>1301.0</ele><time>2026-05-03T15:02:09.295Z</time></trkpt><trkpt lat="39.3418655" lon="16.5955373"><ele>1304.2857142857142</ele><time>2026-05-03T15:02:11.259Z</time></trkpt><trkpt lat="39.3418663" lon="16.5956222"><ele>1307.5714285714287</ele><time>2026-05-03T15:02:13.268Z</time></trkpt><trkpt lat="39.3418107" lon="16.5957097"><ele>1310.857142857143</ele><time>2026-05-03T15:02:17.293Z</time></trkpt><trkpt lat="39.3417823" lon="16.5957935"><ele>1314.142857142857</ele><time>2026-05-03T15:02:19.286Z</time></trkpt><trkpt lat="39.3418068" lon="16.5958904"><ele>1317.4285714285713</ele><time>2026-05-03T15:02:21.284Z</time></trkpt><trkpt lat="39.341799" lon="16.5959909"><ele>1320.7142857142858</ele><time>2026-05-03T15:02:23.275Z</time></trkpt><trkpt lat="39.3417981" lon="16.5960756"><ele>1324.0</ele><time>2026-05-03T15:02:25.272Z</time></trkpt><trkpt lat="39.3417858" lon="16.5961628"><ele>1325.7142857142858</ele><time>2026-05-03T15:02:27.285Z</time></trkpt><trkpt lat="39.3417597" lon="16.5962606"><ele>1327.4285714285713</ele><time>2026-05-03T15:02:30.288Z</time></trkpt><trkpt lat="39.3417299" lon="16.5963462"><ele>1329.142857142857</ele><time>2026-05-03T15:02:33.278Z</time></trkpt><trkpt lat="39.3416982" lon="16.5964255"><ele>1330.857142857143</ele><time>2026-05-03T15:02:37.28Z</time></trkpt><trkpt lat="39.3416993" lon="16.5965308"><ele>1332.5714285714287</ele><time>2026-05-03T15:02:41.279Z</time></trkpt><trkpt lat="39.3416824" lon="16.5966213"><ele>1334.2857142857142</ele><time>2026-05-03T15:02:45.278Z</time></trkpt><trkpt lat="39.3416802" lon="16.5967125"><ele>1336.0</ele><time>2026-05-03T15:02:50.273Z</time></trkpt><trkpt lat="39.3416733" lon="16.5968064"><ele>1336.0</ele><time>2026-05-03T15:03:04.284Z</time></trkpt><trkpt lat="39.3416238" lon="16.5968607"><ele>1336.0</ele><time>2026-05-03T15:03:07.281Z</time></trkpt><trkpt lat="39.3416112" lon="16.5969613"><ele>1336.0</ele><time>2026-05-03T15:03:10.281Z</time></trkpt><trkpt lat="39.3415659" lon="16.5970481"><ele>1336.0</ele><time>2026-05-03T15:03:13.273Z</time></trkpt><trkpt lat="39.3415088" lon="16.5971499"><ele>1336.0</ele><time>2026-05-03T15:03:16.274Z</time></trkpt><trkpt lat="39.3415168" lon="16.5972714"><ele>1336.0</ele><time>2026-05-03T15:03:20.325Z</time></trkpt><trkpt lat="39.3415443" lon="16.5973572"><ele>1336.5714285714284</ele><time>2026-05-03T15:03:23.286Z</time></trkpt><trkpt lat="39.3415305" lon="16.5974384"><ele>1337.142857142857</ele><time>2026-05-03T15:03:39.269Z</time></trkpt><trkpt lat="39.3415796" lon="16.5975068"><ele>1337.7142857142858</ele><time>2026-05-03T15:03:44.268Z</time></trkpt><trkpt lat="39.3416265" lon="16.5975807"><ele>1338.2857142857142</ele><time>2026-05-03T15:03:48.284Z</time></trkpt><trkpt lat="39.3416991" lon="16.5976017"><ele>1338.857142857143</ele><time>2026-05-03T15:03:53.272Z</time></trkpt><trkpt lat="39.3417789" lon="16.5976561"><ele>1339.4285714285713</ele><time>2026-05-03T15:03:58.277Z</time></trkpt><trkpt lat="39.3418275" lon="16.5977093"><ele>1340.0</ele><time>2026-05-03T15:04:02.278Z</time></trkpt><trkpt lat="39.3418862" lon="16.5977482"><ele>1339.9999999999998</ele><time>2026-05-03T15:04:06.277Z</time></trkpt><trkpt lat="39.3419599" lon="16.5977807"><ele>1340.0</ele><time>2026-05-03T15:04:09.271Z</time></trkpt><trkpt lat="39.342021" lon="16.5978046"><ele>1340.0</ele><time>2026-05-03T15:04:12.272Z</time></trkpt><trkpt lat="39.3420857" lon="16.5978196"><ele>1340.0</ele><time>2026-05-03T15:04:16.277Z</time></trkpt><trkpt lat="39.342164" lon="16.5978725"><ele>1340.0</ele><time>2026-05-03T15:04:30.276Z</time></trkpt><trkpt lat="39.3421187" lon="16.5978094"><ele>1339.9999999999998</ele><time>2026-05-03T15:04:44.273Z</time></trkpt><trkpt lat="39.3420553" lon="16.5978027"><ele>1340.0</ele><time>2026-05-03T15:04:48.275Z</time></trkpt><trkpt lat="39.3419502" lon="16.5977572"><ele>1340.0</ele><time>2026-05-03T15:04:51.277Z</time></trkpt><trkpt lat="39.3418765" lon="16.5977125"><ele>1340.0</ele><time>2026-05-03T15:04:53.272Z</time></trkpt><trkpt lat="39.3418176" lon="16.5976428"><ele>1340.0</ele><time>2026-05-03T15:04:55.27Z</time></trkpt><trkpt lat="39.3417523" lon="16.5976098"><ele>1340.0</ele><time>2026-05-03T15:04:57.274Z</time></trkpt><trkpt lat="39.3416794" lon="16.5976274"><ele>1340.0</ele><time>2026-05-03T15:04:59.267Z</time></trkpt><trkpt lat="39.3416021" lon="16.597663"><ele>1340.0</ele><time>2026-05-03T15:05:02.278Z</time></trkpt><trkpt lat="39.3415429" lon="16.5977052"><ele>1340.0</ele><time>2026-05-03T15:05:09.279Z</time></trkpt><trkpt lat="39.3415651" lon="16.5976218"><ele>1340.0</ele><time>2026-05-03T15:05:27.269Z</time></trkpt><trkpt lat="39.3416459" lon="16.5976168"><ele>1340.0</ele><time>2026-05-03T15:06:38.27Z</time></trkpt><trkpt lat="39.3415823" lon="16.597528"><ele>1340.0</ele><time>2026-05-03T15:06:45.275Z</time></trkpt><trkpt lat="39.3415173" lon="16.5974269"><ele>1340.0</ele><time>2026-05-03T15:06:47.279Z</time></trkpt><trkpt lat="39.341492" lon="16.5973438"><ele>1340.0</ele><time>2026-05-03T15:06:48.276Z</time></trkpt><trkpt lat="39.3414568" lon="16.5972355"><ele>1340.0</ele><time>2026-05-03T15:06:50.276Z</time></trkpt><trkpt lat="39.3414233" lon="16.5971389"><ele>1340.0</ele><time>2026-05-03T15:06:52.271Z</time></trkpt><trkpt lat="39.3414071" lon="16.5970546"><ele>1340.0</ele><time>2026-05-03T15:07:00.271Z</time></trkpt><trkpt lat="39.3414435" lon="16.5971467"><ele>1340.0</ele><time>2026-05-03T15:07:08.272Z</time></trkpt><trkpt lat="39.3414968" lon="16.5972158"><ele>1340.0</ele><time>2026-05-03T15:07:12.291Z</time></trkpt><trkpt lat="39.3415473" lon="16.5971523"><ele>1340.0</ele><time>2026-05-03T15:07:20.278Z</time></trkpt><trkpt lat="39.341604" lon="16.5970762"><ele>1339.9999999999998</ele><time>2026-05-03T15:07:23.271Z</time></trkpt><trkpt lat="39.3416618" lon="16.597013"><ele>1340.0</ele><time>2026-05-03T15:07:25.265Z</time></trkpt><trkpt lat="39.3417069" lon="16.5969542"><ele>1340.0</ele><time>2026-05-03T15:07:27.277Z</time></trkpt><trkpt lat="39.341746" lon="16.596877"><ele>1340.0</ele><time>2026-05-03T15:07:32.275Z</time></trkpt><trkpt lat="39.3417588" lon="16.5967949"><ele>1340.0</ele><time>2026-05-03T15:07:44.269Z</time></trkpt><trkpt lat="39.3417324" lon="16.5967157"><ele>1339.9999999999998</ele><time>2026-05-03T15:07:49.265Z</time></trkpt><trkpt lat="39.3417442" lon="16.5966313"><ele>1340.0</ele><time>2026-05-03T15:07:53.273Z</time></trkpt><trkpt lat="39.3417316" lon="16.596549"><ele>1339.4285714285713</ele><time>2026-05-03T15:07:57.273Z</time></trkpt><trkpt lat="39.341725" lon="16.5964524"><ele>1338.857142857143</ele><time>2026-05-03T15:08:01.275Z</time></trkpt><trkpt lat="39.3417517" lon="16.596368"><ele>1338.2857142857142</ele><time>2026-05-03T15:08:07.265Z</time></trkpt><trkpt lat="39.3418051" lon="16.5963168"><ele>1337.7142857142858</ele><time>2026-05-03T15:08:11.279Z</time></trkpt><trkpt lat="39.3418577" lon="16.5962383"><ele>1337.142857142857</ele><time>2026-05-03T15:08:18.271Z</time></trkpt><trkpt lat="39.341886" lon="16.5961432"><ele>1336.5714285714284</ele><time>2026-05-03T15:08:21.282Z</time></trkpt><trkpt lat="39.3418717" lon="16.596059"><ele>1336.0</ele><time>2026-05-03T15:08:25.281Z</time></trkpt><trkpt lat="39.3418711" lon="16.5959685"><ele>1334.2857142857142</ele><time>2026-05-03T15:08:30.278Z</time></trkpt><trkpt lat="39.3418597" lon="16.5958879"><ele>1332.5714285714287</ele><time>2026-05-03T15:08:34.271Z</time></trkpt><trkpt lat="39.3418801" lon="16.5957968"><ele>1330.857142857143</ele><time>2026-05-03T15:08:39.265Z</time></trkpt><trkpt lat="39.3419122" lon="16.5957255"><ele>1329.142857142857</ele><time>2026-05-03T15:08:42.273Z</time></trkpt><trkpt lat="39.3419609" lon="16.5956384"><ele>1327.4285714285713</ele><time>2026-05-03T15:08:45.262Z</time></trkpt><trkpt lat="39.3420037" lon="16.5955705"><ele>1325.7142857142858</ele><time>2026-05-03T15:08:48.272Z</time></trkpt><trkpt lat="39.3420242" lon="16.5954719"><ele>1324.0</ele><time>2026-05-03T15:08:52.272Z</time></trkpt><trkpt lat="39.3420259" lon="16.5953803"><ele>1320.7142857142858</ele><time>2026-05-03T15:08:55.269Z</time></trkpt><trkpt lat="39.3419889" lon="16.5953119"><ele>1317.4285714285713</ele><time>2026-05-03T15:09:00.283Z</time></trkpt><trkpt lat="39.3419396" lon="16.5952569"><ele>1314.142857142857</ele><time>2026-05-03T15:09:04.289Z</time></trkpt><trkpt lat="39.3418784" lon="16.5952139"><ele>1310.857142857143</ele><time>2026-05-03T15:09:07.274Z</time></trkpt><trkpt lat="39.3418764" lon="16.5951108"><ele>1307.5714285714287</ele><time>2026-05-03T15:09:10.27Z</time></trkpt><trkpt lat="39.3419219" lon="16.5950171"><ele>1304.2857142857142</ele><time>2026-05-03T15:09:13.281Z</time></trkpt><trkpt lat="39.3420022" lon="16.5949872"><ele>1301.0</ele><time>2026-05-03T15:09:16.266Z</time></trkpt><trkpt lat="39.3420703" lon="16.5949726"><ele>1301.0</ele><time>2026-05-03T15:09:18.272Z</time></trkpt><trkpt lat="39.3421747" lon="16.5949745"><ele>1301.0</ele><time>2026-05-03T15:09:21.268Z</time></trkpt><trkpt lat="39.3422466" lon="16.5949657"><ele>1301.0</ele><time>2026-05-03T15:09:24.279Z</time></trkpt><trkpt lat="39.3423269" lon="16.5949804"><ele>1301.0</ele><time>2026-05-03T15:09:43.294Z</time></trkpt><trkpt lat="39.3424598" lon="16.5950071"><ele>1301.0</ele><time>2026-05-03T15:09:48.267Z</time></trkpt><trkpt lat="39.3425443" lon="16.5950385"><ele>1299.8333333333335</ele><time>2026-05-03T15:09:49.267Z</time></trkpt><trkpt lat="39.342625" lon="16.5950659"><ele>1298.6666666666667</ele><time>2026-05-03T15:09:50.272Z</time></trkpt><trkpt lat="39.3426851" lon="16.5950924"><ele>1297.5</ele><time>2026-05-03T15:09:51.268Z</time></trkpt><trkpt lat="39.342782" lon="16.5951365"><ele>1296.3333333333333</ele><time>2026-05-03T15:09:53.272Z</time></trkpt><trkpt lat="39.342849" lon="16.5951659"><ele>1295.1666666666665</ele><time>2026-05-03T15:10:00.272Z</time></trkpt><trkpt lat="39.3429128" lon="16.5951894"><ele>1294.0</ele><time>2026-05-03T15:10:03.282Z</time></trkpt><trkpt lat="39.3429831" lon="16.5952942"><ele>1295.8333333333333</ele><time>2026-05-03T15:10:05.265Z</time></trkpt><trkpt lat="39.3429928" lon="16.5954039"><ele>1297.6666666666665</ele><time>2026-05-03T15:10:06.278Z</time></trkpt><trkpt lat="39.3429753" lon="16.5955157"><ele>1299.5</ele><time>2026-05-03T15:10:07.262Z</time></trkpt><trkpt lat="39.3429643" lon="16.5956179"><ele>1301.3333333333333</ele><time>2026-05-03T15:10:08.27Z</time></trkpt><trkpt lat="39.3429591" lon="16.5956997"><ele>1303.1666666666667</ele><time>2026-05-03T15:10:09.27Z</time></trkpt><trkpt lat="39.3429488" lon="16.5957832"><ele>1305.0</ele><time>2026-05-03T15:10:11.274Z</time></trkpt><trkpt lat="39.3429401" lon="16.5958707"><ele>1305.0</ele><time>2026-05-03T15:10:14.276Z</time></trkpt><trkpt lat="39.3429243" lon="16.5960119"><ele>1305.0</ele><time>2026-05-03T15:10:16.271Z</time></trkpt><trkpt lat="39.3429082" lon="16.5961149"><ele>1305.0</ele><time>2026-05-03T15:10:17.272Z</time></trkpt><trkpt lat="39.3428941" lon="16.5962123"><ele>1305.0</ele><time>2026-05-03T15:10:18.272Z</time></trkpt><trkpt lat="39.3428774" lon="16.5963212"><ele>1305.0</ele><time>2026-05-03T15:10:19.263Z</time></trkpt><trkpt lat="39.3428623" lon="16.5964353"><ele>1305.0</ele><time>2026-05-03T15:10:20.272Z</time></trkpt><trkpt lat="39.3428454" lon="16.596557"><ele>1306.0</ele><time>2026-05-03T15:10:21.266Z</time></trkpt><trkpt lat="39.3428305" lon="16.5966703"><ele>1307.0</ele><time>2026-05-03T15:10:22.279Z</time></trkpt><trkpt lat="39.3428163" lon="16.5967742"><ele>1308.0</ele><time>2026-05-03T15:10:23.275Z</time></trkpt><trkpt lat="39.342804" lon="16.5968702"><ele>1309.0</ele><time>2026-05-03T15:10:24.273Z</time></trkpt><trkpt lat="39.3427929" lon="16.5970062"><ele>1310.0</ele><time>2026-05-03T15:10:26.273Z</time></trkpt><trkpt lat="39.3427963" lon="16.5971028"><ele>1311.0</ele><time>2026-05-03T15:10:29.274Z</time></trkpt><trkpt lat="39.3428051" lon="16.5971956"><ele>1311.1666666666667</ele><time>2026-05-03T15:13:47.27Z</time></trkpt><trkpt lat="39.3428237" lon="16.597309"><ele>1311.3333333333333</ele><time>2026-05-03T15:13:50.271Z</time></trkpt><trkpt lat="39.3428354" lon="16.5974138"><ele>1311.5</ele><time>2026-05-03T15:13:52.277Z</time></trkpt><trkpt lat="39.3428366" lon="16.5975297"><ele>1311.6666666666665</ele><time>2026-05-03T15:13:54.272Z</time></trkpt><trkpt lat="39.342831" lon="16.597613"><ele>1311.8333333333333</ele><time>2026-05-03T15:13:55.275Z</time></trkpt><trkpt lat="39.3428244" lon="16.5977173"><ele>1312.0</ele><time>2026-05-03T15:13:57.277Z</time></trkpt><trkpt lat="39.3428193" lon="16.59781"><ele>1309.3333333333333</ele><time>2026-05-03T15:14:00.267Z</time></trkpt><trkpt lat="39.3428136" lon="16.5979179"><ele>1306.6666666666665</ele><time>2026-05-03T15:14:05.271Z</time></trkpt><trkpt lat="39.342798" lon="16.5980075"><ele>1304.0</ele><time>2026-05-03T15:14:07.279Z</time></trkpt><trkpt lat="39.3427826" lon="16.598132"><ele>1301.3333333333333</ele><time>2026-05-03T15:14:09.266Z</time></trkpt><trkpt lat="39.3427553" lon="16.5982266"><ele>1298.6666666666667</ele><time>2026-05-03T15:14:11.272Z</time></trkpt><trkpt lat="39.3427146" lon="16.598302"><ele>1296.0</ele><time>2026-05-03T15:14:15.278Z</time></trkpt><trkpt lat="39.3426825" lon="16.598413"><ele>1296.0</ele><time>2026-05-03T15:16:36.285Z</time></trkpt><trkpt lat="39.3426109" lon="16.5984347"><ele>1296.0</ele><time>2026-05-03T15:16:40.272Z</time></trkpt><trkpt lat="39.3425283" lon="16.5984964"><ele>1296.0</ele><time>2026-05-03T15:17:00.274Z</time></trkpt><trkpt lat="39.342633" lon="16.5984487"><ele>1296.0</ele><time>2026-05-03T15:17:34.278Z</time></trkpt><trkpt lat="39.3426937" lon="16.5983416"><ele>1296.0</ele><time>2026-05-03T15:17:52.271Z</time></trkpt><trkpt lat="39.3427506" lon="16.5982431"><ele>1296.0</ele><time>2026-05-03T15:17:55.287Z</time></trkpt><trkpt lat="39.3427858" lon="16.5981644"><ele>1296.0</ele><time>2026-05-03T15:17:58.266Z</time></trkpt><trkpt lat="39.3428028" lon="16.5980267"><ele>1296.0</ele><time>2026-05-03T15:18:01.27Z</time></trkpt><trkpt lat="39.3428125" lon="16.5979046"><ele>1296.0</ele><time>2026-05-03T15:18:03.277Z</time></trkpt><trkpt lat="39.3428167" lon="16.5977126"><ele>1296.0</ele><time>2026-05-03T15:18:05.272Z</time></trkpt><trkpt lat="39.3428196" lon="16.5976134"><ele>1298.5</ele><time>2026-05-03T15:18:06.268Z</time></trkpt><trkpt lat="39.3428187" lon="16.5975109"><ele>1301.0</ele><time>2026-05-03T15:18:07.272Z</time></trkpt><trkpt lat="39.34282" lon="16.5974069"><ele>1303.5</ele><time>2026-05-03T15:18:08.266Z</time></trkpt><trkpt lat="39.3428151" lon="16.5972903"><ele>1306.0</ele><time>2026-05-03T15:18:09.279Z</time></trkpt><trkpt lat="39.3427992" lon="16.59719"><ele>1308.5</ele><time>2026-05-03T15:18:10.267Z</time></trkpt><trkpt lat="39.3427873" lon="16.5970873"><ele>1311.0</ele><time>2026-05-03T15:18:11.266Z</time></trkpt><trkpt lat="39.3427767" lon="16.5969832"><ele>1311.0</ele><time>2026-05-03T15:18:12.274Z</time></trkpt><trkpt lat="39.3427772" lon="16.5968836"><ele>1311.0</ele><time>2026-05-03T15:18:13.275Z</time></trkpt><trkpt lat="39.3427795" lon="16.5967879"><ele>1311.0</ele><time>2026-05-03T15:18:14.277Z</time></trkpt><trkpt lat="39.3428036" lon="16.5967057"><ele>1311.0</ele><time>2026-05-03T15:18:15.274Z</time></trkpt><trkpt lat="39.3428301" lon="16.5966301"><ele>1311.0</ele><time>2026-05-03T15:18:16.269Z</time></trkpt><trkpt lat="39.3428736" lon="16.5964923"><ele>1311.0</ele><time>2026-05-03T15:18:18.271Z</time></trkpt><trkpt lat="39.3429021" lon="16.5963867"><ele>1311.0</ele><time>2026-05-03T15:18:20.272Z</time></trkpt><trkpt lat="39.342912" lon="16.5963048"><ele>1311.0</ele><time>2026-05-03T15:18:23.267Z</time></trkpt><trkpt lat="39.3429053" lon="16.5962079"><ele>1311.0</ele><time>2026-05-03T15:18:35.281Z</time></trkpt><trkpt lat="39.3429274" lon="16.596068"><ele>1311.0</ele><time>2026-05-03T15:18:37.274Z</time></trkpt><trkpt lat="39.3429523" lon="16.595924"><ele>1311.0</ele><time>2026-05-03T15:18:39.263Z</time></trkpt><trkpt lat="39.3429611" lon="16.5958412"><ele>1311.0</ele><time>2026-05-03T15:18:43.276Z</time></trkpt><trkpt lat="39.3429615" lon="16.5957251"><ele>1309.8</ele><time>2026-05-03T15:18:50.282Z</time></trkpt><trkpt lat="39.3429776" lon="16.5955496"><ele>1308.6</ele><time>2026-05-03T15:18:52.279Z</time></trkpt><trkpt lat="39.3429881" lon="16.595451"><ele>1307.4</ele><time>2026-05-03T15:18:53.272Z</time></trkpt><trkpt lat="39.3429916" lon="16.5953567"><ele>1306.2</ele><time>2026-05-03T15:18:54.269Z</time></trkpt><trkpt lat="39.3429878" lon="16.5952695"><ele>1305.0</ele><time>2026-05-03T15:18:55.263Z</time></trkpt><trkpt lat="39.3429367" lon="16.5951555"><ele>1302.8</ele><time>2026-05-03T15:18:57.264Z</time></trkpt><trkpt lat="39.3428582" lon="16.5951158"><ele>1300.6</ele><time>2026-05-03T15:19:02.268Z</time></trkpt><trkpt lat="39.3427581" lon="16.595071"><ele>1298.4</ele><time>2026-05-03T15:19:05.268Z</time></trkpt><trkpt lat="39.3426709" lon="16.5950395"><ele>1296.2</ele><time>2026-05-03T15:19:07.27Z</time></trkpt><trkpt lat="39.3425844" lon="16.5950117"><ele>1294.0</ele><time>2026-05-03T15:19:09.271Z</time></trkpt><trkpt lat="39.3424701" lon="16.5949814"><ele>1294.0</ele><time>2026-05-03T15:19:11.271Z</time></trkpt><trkpt lat="39.3423938" lon="16.5949588"><ele>1294.0</ele><time>2026-05-03T15:19:13.277Z</time></trkpt><trkpt lat="39.342329" lon="16.5949584"><ele>1294.0</ele><time>2026-05-03T15:19:16.309Z</time></trkpt><trkpt lat="39.3422644" lon="16.594948"><ele>1294.0</ele><time>2026-05-03T15:20:56.278Z</time></trkpt><trkpt lat="39.3421996" lon="16.5949651"><ele>1294.0</ele><time>2026-05-03T15:21:01.28Z</time></trkpt><trkpt lat="39.3421308" lon="16.5949804"><ele>1294.0</ele><time>2026-05-03T15:21:26.269Z</time></trkpt><trkpt lat="39.3420514" lon="16.5949704"><ele>1294.0</ele><time>2026-05-03T15:21:38.274Z</time></trkpt><trkpt lat="39.3419804" lon="16.5949798"><ele>1295.1666666666665</ele><time>2026-05-03T15:21:44.275Z</time></trkpt><trkpt lat="39.3419137" lon="16.5949339"><ele>1296.3333333333333</ele><time>2026-05-03T15:21:50.274Z</time></trkpt><trkpt lat="39.3418328" lon="16.5949215"><ele>1297.5</ele><time>2026-05-03T15:21:54.28Z</time></trkpt><trkpt lat="39.3417798" lon="16.5948625"><ele>1298.6666666666667</ele><time>2026-05-03T15:22:27.274Z</time></trkpt><trkpt lat="39.3417048" lon="16.5947996"><ele>1299.8333333333335</ele><time>2026-05-03T15:22:28.295Z</time></trkpt><trkpt lat="39.34163" lon="16.5947392"><ele>1301.0</ele><time>2026-05-03T15:22:29.269Z</time></trkpt><trkpt lat="39.3415688" lon="16.5946941"><ele>1301.0</ele><time>2026-05-03T15:22:30.275Z</time></trkpt><trkpt lat="39.3415174" lon="16.5946264"><ele>1301.0</ele><time>2026-05-03T15:22:31.272Z</time></trkpt><trkpt lat="39.3414742" lon="16.5945422"><ele>1301.0</ele><time>2026-05-03T15:22:32.266Z</time></trkpt><trkpt lat="39.3414326" lon="16.594475"><ele>1301.0</ele><time>2026-05-03T15:22:33.274Z</time></trkpt><trkpt lat="39.3413859" lon="16.5944181"><ele>1301.0</ele><time>2026-05-03T15:22:34.271Z</time></trkpt><trkpt lat="39.3413293" lon="16.5943567"><ele>1301.0</ele><time>2026-05-03T15:22:35.277Z</time></trkpt><trkpt lat="39.3412579" lon="16.5942944"><ele>1301.0</ele><time>2026-05-03T15:22:36.266Z</time></trkpt><trkpt lat="39.3411759" lon="16.5942228"><ele>1302.6666666666667</ele><time>2026-05-03T15:22:37.265Z</time></trkpt><trkpt lat="39.3411096" lon="16.5941536"><ele>1304.3333333333335</ele><time>2026-05-03T15:22:38.269Z</time></trkpt><trkpt lat="39.3410578" lon="16.5940564"><ele>1306.0</ele><time>2026-05-03T15:22:40.277Z</time></trkpt><trkpt lat="39.3410365" lon="16.593978"><ele>1307.6666666666667</ele><time>2026-05-03T15:22:42.268Z</time></trkpt><trkpt lat="39.3410125" lon="16.5938726"><ele>1309.3333333333333</ele><time>2026-05-03T15:22:44.265Z</time></trkpt><trkpt lat="39.3409962" lon="16.593788"><ele>1311.0</ele><time>2026-05-03T15:22:45.275Z</time></trkpt><trkpt lat="39.3409794" lon="16.5936822"><ele>1310.0</ele><time>2026-05-03T15:22:46.275Z</time></trkpt><trkpt lat="39.3409696" lon="16.5935868"><ele>1309.0</ele><time>2026-05-03T15:22:47.262Z</time></trkpt><trkpt lat="39.3409598" lon="16.5935051"><ele>1308.0</ele><time>2026-05-03T15:22:48.274Z</time></trkpt><trkpt lat="39.3409404" lon="16.5933897"><ele>1307.0</ele><time>2026-05-03T15:22:50.273Z</time></trkpt><trkpt lat="39.3409297" lon="16.5932451"><ele>1306.0</ele><time>2026-05-03T15:22:52.272Z</time></trkpt><trkpt lat="39.3409423" lon="16.5931563"><ele>1305.0</ele><time>2026-05-03T15:22:53.275Z</time></trkpt><trkpt lat="39.3409581" lon="16.5930638"><ele>1305.0</ele><time>2026-05-03T15:22:54.269Z</time></trkpt><trkpt lat="39.3409736" lon="16.5929595"><ele>1305.0</ele><time>2026-05-03T15:22:55.272Z</time></trkpt><trkpt lat="39.340989" lon="16.592844"><ele>1305.0</ele><time>2026-05-03T15:22:56.28Z</time></trkpt><trkpt lat="39.3410092" lon="16.5927331"><ele>1305.0</ele><time>2026-05-03T15:22:57.276Z</time></trkpt><trkpt lat="39.341038" lon="16.5926317"><ele>1305.0</ele><time>2026-05-03T15:22:58.27Z</time></trkpt><trkpt lat="39.3410923" lon="16.5925364"><ele>1305.0</ele><time>2026-05-03T15:23:00.272Z</time></trkpt><trkpt lat="39.3411321" lon="16.5924644"><ele>1305.5</ele><time>2026-05-03T15:23:03.272Z</time></trkpt><trkpt lat="39.3411754" lon="16.5923808"><ele>1306.0</ele><time>2026-05-03T15:23:05.263Z</time></trkpt><trkpt lat="39.3412076" lon="16.5922915"><ele>1306.5</ele><time>2026-05-03T15:23:06.274Z</time></trkpt><trkpt lat="39.3412387" lon="16.5921735"><ele>1307.0</ele><time>2026-05-03T15:23:07.267Z</time></trkpt><trkpt lat="39.3412648" lon="16.5920565"><ele>1307.5</ele><time>2026-05-03T15:23:08.273Z</time></trkpt><trkpt lat="39.3412687" lon="16.5919421"><ele>1308.0</ele><time>2026-05-03T15:23:09.262Z</time></trkpt><trkpt lat="39.3412402" lon="16.5918069"><ele>1308.2</ele><time>2026-05-03T15:23:10.269Z</time></trkpt><trkpt lat="39.3412121" lon="16.5916557"><ele>1308.4</ele><time>2026-05-03T15:23:11.268Z</time></trkpt><trkpt lat="39.3411961" lon="16.5915159"><ele>1308.6000000000001</ele><time>2026-05-03T15:23:12.271Z</time></trkpt><trkpt lat="39.3411929" lon="16.5913966"><ele>1308.8000000000002</ele><time>2026-05-03T15:23:13.267Z</time></trkpt><trkpt lat="39.3411901" lon="16.5912937"><ele>1309.0</ele><time>2026-05-03T15:23:14.272Z</time></trkpt><trkpt lat="39.3411816" lon="16.5911861"><ele>1308.5</ele><time>2026-05-03T15:23:15.272Z</time></trkpt><trkpt lat="39.3411663" lon="16.5910756"><ele>1308.0</ele><time>2026-05-03T15:23:16.268Z</time></trkpt><trkpt lat="39.3411404" lon="16.5909786"><ele>1307.5</ele><time>2026-05-03T15:23:17.265Z</time></trkpt><trkpt lat="39.3411031" lon="16.5909083"><ele>1307.0</ele><time>2026-05-03T15:23:18.28Z</time></trkpt><trkpt lat="39.3410665" lon="16.5907848"><ele>1306.5</ele><time>2026-05-03T15:23:20.282Z</time></trkpt><trkpt lat="39.3410797" lon="16.5907036"><ele>1306.0</ele><time>2026-05-03T15:23:21.272Z</time></trkpt><trkpt lat="39.3410953" lon="16.5906048"><ele>1306.0</ele><time>2026-05-03T15:23:22.27Z</time></trkpt><trkpt lat="39.3411107" lon="16.590473"><ele>1306.0</ele><time>2026-05-03T15:23:23.273Z</time></trkpt><trkpt lat="39.341123" lon="16.5903409"><ele>1306.0</ele><time>2026-05-03T15:23:24.271Z</time></trkpt><trkpt lat="39.3411361" lon="16.5902235"><ele>1306.0</ele><time>2026-05-03T15:23:25.27Z</time></trkpt><trkpt lat="39.3411519" lon="16.590113"><ele>1306.0</ele><time>2026-05-03T15:23:26.266Z</time></trkpt><trkpt lat="39.3411708" lon="16.5899986"><ele>1305.8</ele><time>2026-05-03T15:23:27.268Z</time></trkpt><trkpt lat="39.3411847" lon="16.58988"><ele>1305.6</ele><time>2026-05-03T15:23:28.265Z</time></trkpt><trkpt lat="39.3411798" lon="16.5897423"><ele>1305.4</ele><time>2026-05-03T15:23:29.269Z</time></trkpt><trkpt lat="39.3411681" lon="16.5896039"><ele>1305.2</ele><time>2026-05-03T15:23:30.277Z</time></trkpt><trkpt lat="39.3411443" lon="16.5894793"><ele>1305.0</ele><time>2026-05-03T15:23:31.275Z</time></trkpt><trkpt lat="39.3411031" lon="16.5893675"><ele>1304.8333333333333</ele><time>2026-05-03T15:23:32.273Z</time></trkpt><trkpt lat="39.341057" lon="16.5892567"><ele>1304.6666666666667</ele><time>2026-05-03T15:23:33.269Z</time></trkpt><trkpt lat="39.3410141" lon="16.5891424"><ele>1304.5</ele><time>2026-05-03T15:23:34.275Z</time></trkpt><trkpt lat="39.3409911" lon="16.5890361"><ele>1304.3333333333335</ele><time>2026-05-03T15:23:35.272Z</time></trkpt><trkpt lat="39.3409831" lon="16.5889497"><ele>1304.1666666666667</ele><time>2026-05-03T15:23:36.268Z</time></trkpt><trkpt lat="39.3409927" lon="16.5888573"><ele>1304.0</ele><time>2026-05-03T15:23:38.266Z</time></trkpt><trkpt lat="39.34106" lon="16.5887791"><ele>1304.0</ele><time>2026-05-03T15:23:40.265Z</time></trkpt><trkpt lat="39.3411745" lon="16.5887526"><ele>1304.0</ele><time>2026-05-03T15:23:42.265Z</time></trkpt><trkpt lat="39.34123" lon="16.5888418"><ele>1304.0</ele><time>2026-05-03T15:23:44.274Z</time></trkpt><trkpt lat="39.3412534" lon="16.5889344"><ele>1304.0</ele><time>2026-05-03T15:23:45.276Z</time></trkpt><trkpt lat="39.3413033" lon="16.5890251"><ele>1304.0</ele><time>2026-05-03T15:23:46.265Z</time></trkpt><trkpt lat="39.3413808" lon="16.5890753"><ele>1300.4</ele><time>2026-05-03T15:23:47.265Z</time></trkpt><trkpt lat="39.3414751" lon="16.5890713"><ele>1296.8000000000002</ele><time>2026-05-03T15:23:48.276Z</time></trkpt><trkpt lat="39.3415629" lon="16.5890292"><ele>1293.1999999999998</ele><time>2026-05-03T15:23:49.269Z</time></trkpt><trkpt lat="39.341638" lon="16.588942"><ele>1289.6</ele><time>2026-05-03T15:23:50.265Z</time></trkpt><trkpt lat="39.3416879" lon="16.5888189"><ele>1286.0</ele><time>2026-05-03T15:23:51.27Z</time></trkpt><trkpt lat="39.3417259" lon="16.5887334"><ele>1286.0</ele><time>2026-05-03T15:23:52.27Z</time></trkpt><trkpt lat="39.3418134" lon="16.5887067"><ele>1286.0</ele><time>2026-05-03T15:23:54.276Z</time></trkpt><trkpt lat="39.3418742" lon="16.5888255"><ele>1286.0</ele><time>2026-05-03T15:23:56.278Z</time></trkpt><trkpt lat="39.3418862" lon="16.5889453"><ele>1286.0</ele><time>2026-05-03T15:23:58.274Z</time></trkpt><trkpt lat="39.3418688" lon="16.5890967"><ele>1286.0</ele><time>2026-05-03T15:24:00.268Z</time></trkpt><trkpt lat="39.3418456" lon="16.5891969"><ele>1286.0</ele><time>2026-05-03T15:24:01.269Z</time></trkpt><trkpt lat="39.3418072" lon="16.5893059"><ele>1286.0</ele><time>2026-05-03T15:24:02.269Z</time></trkpt><trkpt lat="39.34176" lon="16.5894222"><ele>1286.0</ele><time>2026-05-03T15:24:03.265Z</time></trkpt><trkpt lat="39.3417097" lon="16.589544"><ele>1286.0</ele><time>2026-05-03T15:24:04.28Z</time></trkpt><trkpt lat="39.3416588" lon="16.5896559"><ele>1286.0</ele><time>2026-05-03T15:24:05.27Z</time></trkpt><trkpt lat="39.3416218" lon="16.5897514"><ele>1286.8</ele><time>2026-05-03T15:24:06.269Z</time></trkpt><trkpt lat="39.3416066" lon="16.5898349"><ele>1287.6</ele><time>2026-05-03T15:24:07.277Z</time></trkpt><trkpt lat="39.3415984" lon="16.5899158"><ele>1288.4</ele><time>2026-05-03T15:24:08.274Z</time></trkpt><trkpt lat="39.3415773" lon="16.5900777"><ele>1289.2</ele><time>2026-05-03T15:24:10.279Z</time></trkpt><trkpt lat="39.3415298" lon="16.5902356"><ele>1290.0</ele><time>2026-05-03T15:24:12.287Z</time></trkpt><trkpt lat="39.3415097" lon="16.5903359"><ele>1291.3333333333333</ele><time>2026-05-03T15:24:13.264Z</time></trkpt><trkpt lat="39.3415014" lon="16.5904485"><ele>1292.6666666666667</ele><time>2026-05-03T15:24:14.259Z</time></trkpt><trkpt lat="39.3415044" lon="16.5905632"><ele>1294.0</ele><time>2026-05-03T15:24:15.281Z</time></trkpt><trkpt lat="39.3415136" lon="16.5906685"><ele>1295.3333333333335</ele><time>2026-05-03T15:24:16.263Z</time></trkpt><trkpt lat="39.3415273" lon="16.5907644"><ele>1296.6666666666667</ele><time>2026-05-03T15:24:17.287Z</time></trkpt><trkpt lat="39.3415396" lon="16.590876"><ele>1298.0</ele><time>2026-05-03T15:24:18.271Z</time></trkpt><trkpt lat="39.3415434" lon="16.5910203"><ele>1297.25</ele><time>2026-05-03T15:24:19.265Z</time></trkpt><trkpt lat="39.3415471" lon="16.5911856"><ele>1296.5</ele><time>2026-05-03T15:24:20.268Z</time></trkpt><trkpt lat="39.3415806" lon="16.5913596"><ele>1295.75</ele><time>2026-05-03T15:24:21.274Z</time></trkpt><trkpt lat="39.3416366" lon="16.5915154"><ele>1295.0</ele><time>2026-05-03T15:24:22.272Z</time></trkpt><trkpt lat="39.3416901" lon="16.5916663"><ele>1295.0</ele><time>2026-05-03T15:24:23.27Z</time></trkpt><trkpt lat="39.341739" lon="16.5918377"><ele>1295.0</ele><time>2026-05-03T15:24:24.274Z</time></trkpt><trkpt lat="39.3417694" lon="16.5920296"><ele>1295.0</ele><time>2026-05-03T15:24:25.277Z</time></trkpt><trkpt lat="39.341802" lon="16.5922391"><ele>1294.0</ele><time>2026-05-03T15:24:26.262Z</time></trkpt><trkpt lat="39.3418261" lon="16.5924765"><ele>1293.0</ele><time>2026-05-03T15:24:27.263Z</time></trkpt><trkpt lat="39.34185" lon="16.5927282"><ele>1292.0</ele><time>2026-05-03T15:24:28.269Z</time></trkpt><trkpt lat="39.341874" lon="16.5929859"><ele>1291.3333333333335</ele><time>2026-05-03T15:24:29.264Z</time></trkpt><trkpt lat="39.3419088" lon="16.5932169"><ele>1290.6666666666667</ele><time>2026-05-03T15:24:30.28Z</time></trkpt><trkpt lat="39.3419375" lon="16.593408"><ele>1290.0</ele><time>2026-05-03T15:24:31.267Z</time></trkpt><trkpt lat="39.3419543" lon="16.593575"><ele>1289.0</ele><time>2026-05-03T15:24:32.266Z</time></trkpt><trkpt lat="39.3419756" lon="16.5937259"><ele>1288.0</ele><time>2026-05-03T15:24:33.266Z</time></trkpt><trkpt lat="39.3419909" lon="16.5938699"><ele>1287.0</ele><time>2026-05-03T15:24:34.268Z</time></trkpt><trkpt lat="39.3420514" lon="16.5939776"><ele>1286.0</ele><time>2026-05-03T15:24:35.273Z</time></trkpt><trkpt lat="39.3421564" lon="16.5940612"><ele>1290.0</ele><time>2026-05-03T15:24:36.277Z</time></trkpt><trkpt lat="39.3422972" lon="16.5941354"><ele>1294.0</ele><time>2026-05-03T15:24:37.271Z</time></trkpt><trkpt lat="39.3424548" lon="16.5942199"><ele>1298.0</ele><time>2026-05-03T15:24:38.268Z</time></trkpt><trkpt lat="39.3426214" lon="16.5942982"><ele>1298.0</ele><time>2026-05-03T15:24:39.27Z</time></trkpt><trkpt lat="39.3427808" lon="16.5943858"><ele>1298.0</ele><time>2026-05-03T15:24:40.269Z</time></trkpt><trkpt lat="39.3429272" lon="16.5944835"><ele>1298.0</ele><time>2026-05-03T15:24:41.28Z</time></trkpt><trkpt lat="39.343074" lon="16.5945706"><ele>1299.0</ele><time>2026-05-03T15:24:42.272Z</time></trkpt><trkpt lat="39.3431984" lon="16.5946781"><ele>1300.0</ele><time>2026-05-03T15:24:43.27Z</time></trkpt><trkpt lat="39.3432987" lon="16.594821"><ele>1301.0</ele><time>2026-05-03T15:24:44.277Z</time></trkpt><trkpt lat="39.3433708" lon="16.5949975"><ele>1301.0</ele><time>2026-05-03T15:24:45.267Z</time></trkpt><trkpt lat="39.3434362" lon="16.5951699"><ele>1301.0</ele><time>2026-05-03T15:24:46.27Z</time></trkpt><trkpt lat="39.3434826" lon="16.595372"><ele>1301.0</ele><time>2026-05-03T15:24:47.266Z</time></trkpt><trkpt lat="39.3435134" lon="16.5955552"><ele>1298.0</ele><time>2026-05-03T15:24:48.266Z</time></trkpt><trkpt lat="39.3435436" lon="16.5957257"><ele>1295.0</ele><time>2026-05-03T15:24:49.271Z</time></trkpt><trkpt lat="39.3435604" lon="16.5959278"><ele>1292.0</ele><time>2026-05-03T15:24:50.27Z</time></trkpt><trkpt lat="39.3435703" lon="16.5961341"><ele>1291.6666666666667</ele><time>2026-05-03T15:24:51.27Z</time></trkpt><trkpt lat="39.3435647" lon="16.5963547"><ele>1291.3333333333333</ele><time>2026-05-03T15:24:52.278Z</time></trkpt><trkpt lat="39.3435344" lon="16.5965578"><ele>1291.0</ele><time>2026-05-03T15:24:53.271Z</time></trkpt><trkpt lat="39.3434899" lon="16.5967552"><ele>1291.0</ele><time>2026-05-03T15:24:54.267Z</time></trkpt><trkpt lat="39.3434353" lon="16.5969701"><ele>1291.0</ele><time>2026-05-03T15:24:55.266Z</time></trkpt><trkpt lat="39.3433958" lon="16.5971569"><ele>1291.0</ele><time>2026-05-03T15:24:56.272Z</time></trkpt><trkpt lat="39.3433495" lon="16.5973312"><ele>1291.3333333333333</ele><time>2026-05-03T15:24:57.271Z</time></trkpt><trkpt lat="39.3433186" lon="16.5975346"><ele>1291.6666666666667</ele><time>2026-05-03T15:24:58.272Z</time></trkpt><trkpt lat="39.3433097" lon="16.5977459"><ele>1292.0</ele><time>2026-05-03T15:24:59.262Z</time></trkpt><trkpt lat="39.3433091" lon="16.5979827"><ele>1290.3333333333335</ele><time>2026-05-03T15:25:00.27Z</time></trkpt><trkpt lat="39.34329" lon="16.5982048"><ele>1288.6666666666667</ele><time>2026-05-03T15:25:01.278Z</time></trkpt><trkpt lat="39.3432783" lon="16.5984114"><ele>1287.0</ele><time>2026-05-03T15:25:02.269Z</time></trkpt><trkpt lat="39.343261" lon="16.5985996"><ele>1289.8</ele><time>2026-05-03T15:25:03.281Z</time></trkpt><trkpt lat="39.3432475" lon="16.5987708"><ele>1292.6</ele><time>2026-05-03T15:25:04.262Z</time></trkpt><trkpt lat="39.3432348" lon="16.5989202"><ele>1295.3999999999999</ele><time>2026-05-03T15:25:05.267Z</time></trkpt><trkpt lat="39.343192" lon="16.5990233"><ele>1298.1999999999998</ele><time>2026-05-03T15:25:06.274Z</time></trkpt><trkpt lat="39.3431485" lon="16.5991341"><ele>1301.0</ele><time>2026-05-03T15:25:07.267Z</time></trkpt><trkpt lat="39.3430803" lon="16.599252"><ele>1296.75</ele><time>2026-05-03T15:25:08.271Z</time></trkpt><trkpt lat="39.3429537" lon="16.5993156"><ele>1292.5</ele><time>2026-05-03T15:25:09.273Z</time></trkpt><trkpt lat="39.3428022" lon="16.5993375"><ele>1288.25</ele><time>2026-05-03T15:25:10.263Z</time></trkpt><trkpt lat="39.3426779" lon="16.5993948"><ele>1284.0</ele><time>2026-05-03T15:25:11.266Z</time></trkpt><trkpt lat="39.3425615" lon="16.5994612"><ele>1288.3333333333333</ele><time>2026-05-03T15:25:12.268Z</time></trkpt><trkpt lat="39.3424483" lon="16.599608"><ele>1292.6666666666665</ele><time>2026-05-03T15:25:13.279Z</time></trkpt><trkpt lat="39.3423335" lon="16.5997704"><ele>1297.0</ele><time>2026-05-03T15:25:14.274Z</time></trkpt><trkpt lat="39.34222" lon="16.5999483"><ele>1293.0</ele><time>2026-05-03T15:25:15.267Z</time></trkpt><trkpt lat="39.3421063" lon="16.6001237"><ele>1289.0</ele><time>2026-05-03T15:25:16.281Z</time></trkpt><trkpt lat="39.3420162" lon="16.6003074"><ele>1285.0</ele><time>2026-05-03T15:25:17.271Z</time></trkpt><trkpt lat="39.341931" lon="16.6004895"><ele>1283.25</ele><time>2026-05-03T15:25:18.266Z</time></trkpt><trkpt lat="39.3418541" lon="16.6006706"><ele>1281.5</ele><time>2026-05-03T15:25:19.271Z</time></trkpt><trkpt lat="39.3417774" lon="16.6008298"><ele>1279.75</ele><time>2026-05-03T15:25:20.27Z</time></trkpt><trkpt lat="39.3416855" lon="16.6009438"><ele>1278.0</ele><time>2026-05-03T15:25:21.276Z</time></trkpt><trkpt lat="39.3415828" lon="16.6010054"><ele>1278.0</ele><time>2026-05-03T15:25:22.265Z</time></trkpt><trkpt lat="39.3414928" lon="16.6010482"><ele>1278.0</ele><time>2026-05-03T15:25:23.278Z</time></trkpt><trkpt lat="39.3414108" lon="16.6009926"><ele>1278.0</ele><time>2026-05-03T15:25:24.278Z</time></trkpt><trkpt lat="39.3413655" lon="16.6009039"><ele>1278.0</ele><time>2026-05-03T15:25:25.269Z</time></trkpt><trkpt lat="39.3412644" lon="16.6008069"><ele>1278.0</ele><time>2026-05-03T15:25:26.268Z</time></trkpt><trkpt lat="39.3411827" lon="16.6007332"><ele>1279.0</ele><time>2026-05-03T15:25:27.273Z</time></trkpt><trkpt lat="39.3410806" lon="16.6007151"><ele>1280.0</ele><time>2026-05-03T15:25:28.267Z</time></trkpt><trkpt lat="39.3409549" lon="16.6007771"><ele>1281.0</ele><time>2026-05-03T15:25:29.27Z</time></trkpt><trkpt lat="39.3408196" lon="16.600833"><ele>1282.0</ele><time>2026-05-03T15:25:30.267Z</time></trkpt><trkpt lat="39.3406252" lon="16.6009515"><ele>1279.6666666666665</ele><time>2026-05-03T15:25:31.265Z</time></trkpt><trkpt lat="39.3404728" lon="16.6010572"><ele>1277.3333333333333</ele><time>2026-05-03T15:25:32.272Z</time></trkpt><trkpt lat="39.340298" lon="16.6011592"><ele>1275.0</ele><time>2026-05-03T15:25:33.273Z</time></trkpt><trkpt lat="39.3401374" lon="16.6012485"><ele>1275.0</ele><time>2026-05-03T15:25:34.262Z</time></trkpt><trkpt lat="39.3399864" lon="16.6013499"><ele>1275.0</ele><time>2026-05-03T15:25:35.274Z</time></trkpt><trkpt lat="39.3398368" lon="16.6014715"><ele>1275.0</ele><time>2026-05-03T15:25:36.264Z</time></trkpt><trkpt lat="39.3396885" lon="16.6016147"><ele>1274.3333333333333</ele><time>2026-05-03T15:25:37.271Z</time></trkpt><trkpt lat="39.3395342" lon="16.601764"><ele>1273.6666666666665</ele><time>2026-05-03T15:25:38.274Z</time></trkpt><trkpt lat="39.3393883" lon="16.601925"><ele>1273.0</ele><time>2026-05-03T15:25:39.271Z</time></trkpt><trkpt lat="39.3392491" lon="16.6021002"><ele>1273.0</ele><time>2026-05-03T15:25:40.282Z</time></trkpt><trkpt lat="39.339124" lon="16.6022849"><ele>1273.0</ele><time>2026-05-03T15:25:41.276Z</time></trkpt><trkpt lat="39.3390015" lon="16.602442"><ele>1273.0</ele><time>2026-05-03T15:25:42.276Z</time></trkpt><trkpt lat="39.3388851" lon="16.6025979"><ele>1276.5</ele><time>2026-05-03T15:25:43.272Z</time></trkpt><trkpt lat="39.3387739" lon="16.6027399"><ele>1280.0</ele><time>2026-05-03T15:25:44.271Z</time></trkpt><trkpt lat="39.338674" lon="16.6028612"><ele>1283.5</ele><time>2026-05-03T15:25:45.267Z</time></trkpt><trkpt lat="39.3385933" lon="16.6030048"><ele>1287.0</ele><time>2026-05-03T15:25:46.266Z</time></trkpt><trkpt lat="39.3385192" lon="16.6031509"><ele>1287.0</ele><time>2026-05-03T15:25:47.261Z</time></trkpt><trkpt lat="39.3384851" lon="16.6033271"><ele>1287.0</ele><time>2026-05-03T15:25:48.262Z</time></trkpt><trkpt lat="39.338481" lon="16.6035294"><ele>1287.0</ele><time>2026-05-03T15:25:49.276Z</time></trkpt><trkpt lat="39.3384474" lon="16.6036833"><ele>1287.0</ele><time>2026-05-03T15:25:50.274Z</time></trkpt><trkpt lat="39.3383518" lon="16.6037834"><ele>1285.75</ele><time>2026-05-03T15:25:51.269Z</time></trkpt><trkpt lat="39.3382807" lon="16.6038954"><ele>1284.5</ele><time>2026-05-03T15:25:52.272Z</time></trkpt><trkpt lat="39.338201" lon="16.6040289"><ele>1283.25</ele><time>2026-05-03T15:25:53.266Z</time></trkpt><trkpt lat="39.3381731" lon="16.6042331"><ele>1282.0</ele><time>2026-05-03T15:25:54.273Z</time></trkpt><trkpt lat="39.3381432" lon="16.6044365"><ele>1281.3333333333333</ele><time>2026-05-03T15:25:55.276Z</time></trkpt><trkpt lat="39.3381147" lon="16.6046619"><ele>1280.6666666666667</ele><time>2026-05-03T15:25:56.262Z</time></trkpt><trkpt lat="39.3380795" lon="16.6048772"><ele>1280.0</ele><time>2026-05-03T15:25:57.268Z</time></trkpt><trkpt lat="39.3380477" lon="16.6050855"><ele>1285.5</ele><time>2026-05-03T15:25:58.263Z</time></trkpt><trkpt lat="39.3380273" lon="16.6052764"><ele>1291.0</ele><time>2026-05-03T15:25:59.271Z</time></trkpt><trkpt lat="39.3380084" lon="16.6054606"><ele>1296.5</ele><time>2026-05-03T15:26:00.262Z</time></trkpt><trkpt lat="39.3379733" lon="16.6056503"><ele>1302.0</ele><time>2026-05-03T15:26:01.26Z</time></trkpt><trkpt lat="39.3379564" lon="16.6058333"><ele>1302.0</ele><time>2026-05-03T15:26:02.255Z</time></trkpt><trkpt lat="39.3379513" lon="16.6060251"><ele>1302.0</ele><time>2026-05-03T15:26:03.257Z</time></trkpt><trkpt lat="39.3379082" lon="16.6062018"><ele>1302.0</ele><time>2026-05-03T15:26:04.257Z</time></trkpt><trkpt lat="39.3378409" lon="16.606369"><ele>1302.0</ele><time>2026-05-03T15:26:05.26Z</time></trkpt><trkpt lat="39.3377555" lon="16.6065301"><ele>1295.3333333333333</ele><time>2026-05-03T15:26:06.263Z</time></trkpt><trkpt lat="39.3376372" lon="16.606691"><ele>1288.6666666666665</ele><time>2026-05-03T15:26:07.265Z</time></trkpt><trkpt lat="39.3375233" lon="16.6068538"><ele>1282.0</ele><time>2026-05-03T15:26:08.286Z</time></trkpt><trkpt lat="39.3373948" lon="16.6070057"><ele>1282.6666666666665</ele><time>2026-05-03T15:26:09.263Z</time></trkpt><trkpt lat="39.3372746" lon="16.607162"><ele>1283.3333333333333</ele><time>2026-05-03T15:26:10.259Z</time></trkpt><trkpt lat="39.3371525" lon="16.6073126"><ele>1284.0</ele><time>2026-05-03T15:26:11.258Z</time></trkpt><trkpt lat="39.3370267" lon="16.6074568"><ele>1284.0</ele><time>2026-05-03T15:26:12.257Z</time></trkpt><trkpt lat="39.3369063" lon="16.6075799"><ele>1284.0</ele><time>2026-05-03T15:26:13.269Z</time></trkpt><trkpt lat="39.3367974" lon="16.6077161"><ele>1284.0</ele><time>2026-05-03T15:26:14.265Z</time></trkpt><trkpt lat="39.3366912" lon="16.6078468"><ele>1281.0</ele><time>2026-05-03T15:26:15.261Z</time></trkpt><trkpt lat="39.3366254" lon="16.6080423"><ele>1278.0</ele><time>2026-05-03T15:26:16.256Z</time></trkpt><trkpt lat="39.3365737" lon="16.6082552"><ele>1275.0</ele><time>2026-05-03T15:26:17.269Z</time></trkpt><trkpt lat="39.3365247" lon="16.6084464"><ele>1275.0</ele><time>2026-05-03T15:26:18.263Z</time></trkpt><trkpt lat="39.3364821" lon="16.6086196"><ele>1275.0</ele><time>2026-05-03T15:26:19.254Z</time></trkpt><trkpt lat="39.3364437" lon="16.6088097"><ele>1275.0</ele><time>2026-05-03T15:26:20.26Z</time></trkpt><trkpt lat="39.3364661" lon="16.6090109"><ele>1274.0</ele><time>2026-05-03T15:26:21.266Z</time></trkpt><trkpt lat="39.3365146" lon="16.6092065"><ele>1273.0</ele><time>2026-05-03T15:26:22.256Z</time></trkpt><trkpt lat="39.3365432" lon="16.6094019"><ele>1272.0</ele><time>2026-05-03T15:26:23.267Z</time></trkpt><trkpt lat="39.3365618" lon="16.6095905"><ele>1271.0</ele><time>2026-05-03T15:26:24.259Z</time></trkpt><trkpt lat="39.3365446" lon="16.6097745"><ele>1270.0</ele><time>2026-05-03T15:26:25.258Z</time></trkpt><trkpt lat="39.3365303" lon="16.6099593"><ele>1269.0</ele><time>2026-05-03T15:26:26.267Z</time></trkpt><trkpt lat="39.3365225" lon="16.6101248"><ele>1268.0</ele><time>2026-05-03T15:26:27.262Z</time></trkpt><trkpt lat="39.3365369" lon="16.6103026"><ele>1268.5</ele><time>2026-05-03T15:26:28.273Z</time></trkpt><trkpt lat="39.3366197" lon="16.6104443"><ele>1269.0</ele><time>2026-05-03T15:26:29.262Z</time></trkpt><trkpt lat="39.3367181" lon="16.6105963"><ele>1269.5</ele><time>2026-05-03T15:26:30.258Z</time></trkpt><trkpt lat="39.3367933" lon="16.6107593"><ele>1270.0</ele><time>2026-05-03T15:26:31.257Z</time></trkpt><trkpt lat="39.336817" lon="16.6109299"><ele>1270.0</ele><time>2026-05-03T15:26:32.255Z</time></trkpt><trkpt lat="39.3368241" lon="16.6111022"><ele>1270.0</ele><time>2026-05-03T15:26:33.258Z</time></trkpt><trkpt lat="39.3367676" lon="16.6112647"><ele>1270.0</ele><time>2026-05-03T15:26:34.264Z</time></trkpt><trkpt lat="39.3367129" lon="16.6114536"><ele>1270.0</ele><time>2026-05-03T15:26:35.264Z</time></trkpt><trkpt lat="39.3366406" lon="16.6116184"><ele>1268.5</ele><time>2026-05-03T15:26:36.263Z</time></trkpt><trkpt lat="39.3365634" lon="16.6117693"><ele>1267.0</ele><time>2026-05-03T15:26:37.263Z</time></trkpt><trkpt lat="39.3364696" lon="16.611913"><ele>1265.5</ele><time>2026-05-03T15:26:38.267Z</time></trkpt><trkpt lat="39.3363955" lon="16.6120539"><ele>1264.0</ele><time>2026-05-03T15:26:39.257Z</time></trkpt><trkpt lat="39.3363334" lon="16.6121649"><ele>1263.5</ele><time>2026-05-03T15:26:40.255Z</time></trkpt><trkpt lat="39.336301" lon="16.612349"><ele>1263.0</ele><time>2026-05-03T15:26:41.265Z</time></trkpt><trkpt lat="39.3362716" lon="16.6125189"><ele>1262.5</ele><time>2026-05-03T15:26:42.261Z</time></trkpt><trkpt lat="39.3362863" lon="16.612699"><ele>1262.0</ele><time>2026-05-03T15:26:43.275Z</time></trkpt><trkpt lat="39.3362979" lon="16.6128701"><ele>1260.0</ele><time>2026-05-03T15:26:44.261Z</time></trkpt><trkpt lat="39.3362901" lon="16.6130073"><ele>1258.0</ele><time>2026-05-03T15:26:45.257Z</time></trkpt><trkpt lat="39.3362814" lon="16.613158"><ele>1256.0</ele><time>2026-05-03T15:26:46.264Z</time></trkpt><trkpt lat="39.3362403" lon="16.6133132"><ele>1254.0</ele><time>2026-05-03T15:26:47.261Z</time></trkpt><trkpt lat="39.3361597" lon="16.613471"><ele>1254.0</ele><time>2026-05-03T15:26:48.267Z</time></trkpt><trkpt lat="39.3360775" lon="16.6136209"><ele>1254.0</ele><time>2026-05-03T15:26:49.257Z</time></trkpt><trkpt lat="39.3360091" lon="16.6137655"><ele>1254.0</ele><time>2026-05-03T15:26:50.262Z</time></trkpt><trkpt lat="39.3359359" lon="16.6138922"><ele>1254.0</ele><time>2026-05-03T15:26:51.256Z</time></trkpt><trkpt lat="39.3358692" lon="16.6140323"><ele>1253.5</ele><time>2026-05-03T15:26:52.258Z</time></trkpt><trkpt lat="39.3357845" lon="16.6141641"><ele>1253.0</ele><time>2026-05-03T15:26:53.26Z</time></trkpt><trkpt lat="39.3356979" lon="16.6143039"><ele>1252.5</ele><time>2026-05-03T15:26:54.258Z</time></trkpt><trkpt lat="39.3356284" lon="16.6144593"><ele>1252.0</ele><time>2026-05-03T15:26:55.261Z</time></trkpt><trkpt lat="39.3355544" lon="16.6146132"><ele>1252.5</ele><time>2026-05-03T15:26:56.259Z</time></trkpt><trkpt lat="39.3354905" lon="16.6147596"><ele>1253.0</ele><time>2026-05-03T15:26:57.256Z</time></trkpt><trkpt lat="39.3354218" lon="16.6149223"><ele>1253.5</ele><time>2026-05-03T15:26:58.277Z</time></trkpt><trkpt lat="39.3353496" lon="16.6150763"><ele>1254.0</ele><time>2026-05-03T15:26:59.26Z</time></trkpt><trkpt lat="39.3352629" lon="16.6152175"><ele>1256.75</ele><time>2026-05-03T15:27:00.259Z</time></trkpt><trkpt lat="39.3351621" lon="16.6153435"><ele>1259.5</ele><time>2026-05-03T15:27:01.263Z</time></trkpt><trkpt lat="39.3350449" lon="16.6154483"><ele>1262.25</ele><time>2026-05-03T15:27:02.266Z</time></trkpt><trkpt lat="39.3349122" lon="16.615541"><ele>1265.0</ele><time>2026-05-03T15:27:03.266Z</time></trkpt><trkpt lat="39.3348018" lon="16.6156609"><ele>1261.0</ele><time>2026-05-03T15:27:04.262Z</time></trkpt><trkpt lat="39.3346985" lon="16.6157993"><ele>1257.0</ele><time>2026-05-03T15:27:05.274Z</time></trkpt><trkpt lat="39.3345961" lon="16.6159436"><ele>1253.0</ele><time>2026-05-03T15:27:06.26Z</time></trkpt><trkpt lat="39.3344906" lon="16.6160877"><ele>1252.6666666666667</ele><time>2026-05-03T15:27:07.259Z</time></trkpt><trkpt lat="39.3343936" lon="16.6162548"><ele>1252.3333333333333</ele><time>2026-05-03T15:27:08.264Z</time></trkpt><trkpt lat="39.3343189" lon="16.6164432"><ele>1252.0</ele><time>2026-05-03T15:27:09.262Z</time></trkpt><trkpt lat="39.334253" lon="16.6166434"><ele>1252.0</ele><time>2026-05-03T15:27:10.266Z</time></trkpt><trkpt lat="39.3341903" lon="16.6168349"><ele>1252.0</ele><time>2026-05-03T15:27:11.26Z</time></trkpt><trkpt lat="39.3341376" lon="16.6170371"><ele>1252.0</ele><time>2026-05-03T15:27:12.262Z</time></trkpt><trkpt lat="39.3340867" lon="16.6172421"><ele>1255.3333333333333</ele><time>2026-05-03T15:27:13.265Z</time></trkpt><trkpt lat="39.3340308" lon="16.6174425"><ele>1258.6666666666667</ele><time>2026-05-03T15:27:14.287Z</time></trkpt><trkpt lat="39.3339914" lon="16.6176553"><ele>1262.0</ele><time>2026-05-03T15:27:15.262Z</time></trkpt><trkpt lat="39.3339702" lon="16.6178733"><ele>1263.0</ele><time>2026-05-03T15:27:16.258Z</time></trkpt><trkpt lat="39.3339559" lon="16.6181069"><ele>1264.0</ele><time>2026-05-03T15:27:17.257Z</time></trkpt><trkpt lat="39.3339421" lon="16.6183251"><ele>1265.0</ele><time>2026-05-03T15:27:18.258Z</time></trkpt><trkpt lat="39.3339069" lon="16.6185396"><ele>1259.6666666666667</ele><time>2026-05-03T15:27:19.291Z</time></trkpt><trkpt lat="39.3338631" lon="16.6187412"><ele>1254.3333333333333</ele><time>2026-05-03T15:27:20.26Z</time></trkpt><trkpt lat="39.3338035" lon="16.6189403"><ele>1249.0</ele><time>2026-05-03T15:27:21.262Z</time></trkpt><trkpt lat="39.3337451" lon="16.6191395"><ele>1249.0</ele><time>2026-05-03T15:27:22.259Z</time></trkpt><trkpt lat="39.3337099" lon="16.619346"><ele>1249.0</ele><time>2026-05-03T15:27:23.257Z</time></trkpt><trkpt lat="39.3336732" lon="16.6195887"><ele>1249.0</ele><time>2026-05-03T15:27:24.263Z</time></trkpt><trkpt lat="39.3336571" lon="16.6198185"><ele>1248.3333333333333</ele><time>2026-05-03T15:27:25.26Z</time></trkpt><trkpt lat="39.3336433" lon="16.6200485"><ele>1247.6666666666667</ele><time>2026-05-03T15:27:26.258Z</time></trkpt><trkpt lat="39.3336232" lon="16.620267"><ele>1247.0</ele><time>2026-05-03T15:27:27.264Z</time></trkpt><trkpt lat="39.3336022" lon="16.6204887"><ele>1247.0</ele><time>2026-05-03T15:27:28.263Z</time></trkpt><trkpt lat="39.3335749" lon="16.6207184"><ele>1247.0</ele><time>2026-05-03T15:27:29.255Z</time></trkpt><trkpt lat="39.3335614" lon="16.6209521"><ele>1247.0</ele><time>2026-05-03T15:27:30.259Z</time></trkpt><trkpt lat="39.3335495" lon="16.62115"><ele>1248.6666666666667</ele><time>2026-05-03T15:27:31.265Z</time></trkpt><trkpt lat="39.3335195" lon="16.6213335"><ele>1250.3333333333333</ele><time>2026-05-03T15:27:32.256Z</time></trkpt><trkpt lat="39.3334767" lon="16.6215362"><ele>1252.0</ele><time>2026-05-03T15:27:33.282Z</time></trkpt><trkpt lat="39.3334" lon="16.6217093"><ele>1252.0</ele><time>2026-05-03T15:27:34.257Z</time></trkpt><trkpt lat="39.333302" lon="16.6218914"><ele>1252.0</ele><time>2026-05-03T15:27:35.259Z</time></trkpt><trkpt lat="39.3332067" lon="16.6220798"><ele>1252.0</ele><time>2026-05-03T15:27:36.257Z</time></trkpt><trkpt lat="39.3330918" lon="16.6222512"><ele>1249.3333333333333</ele><time>2026-05-03T15:27:37.259Z</time></trkpt><trkpt lat="39.3329901" lon="16.6224252"><ele>1246.6666666666667</ele><time>2026-05-03T15:27:38.255Z</time></trkpt><trkpt lat="39.3328639" lon="16.6225724"><ele>1244.0</ele><time>2026-05-03T15:27:39.265Z</time></trkpt><trkpt lat="39.3327255" lon="16.6226918"><ele>1244.6666666666667</ele><time>2026-05-03T15:27:40.269Z</time></trkpt><trkpt lat="39.33257" lon="16.6228236"><ele>1245.3333333333333</ele><time>2026-05-03T15:27:41.263Z</time></trkpt><trkpt lat="39.3324425" lon="16.6229449"><ele>1246.0</ele><time>2026-05-03T15:27:42.277Z</time></trkpt><trkpt lat="39.3323458" lon="16.6230822"><ele>1246.0</ele><time>2026-05-03T15:27:43.261Z</time></trkpt><trkpt lat="39.332301" lon="16.6232491"><ele>1246.0</ele><time>2026-05-03T15:27:44.255Z</time></trkpt><trkpt lat="39.3322668" lon="16.6234027"><ele>1246.0</ele><time>2026-05-03T15:27:45.261Z</time></trkpt><trkpt lat="39.3322406" lon="16.6235933"><ele>1246.0</ele><time>2026-05-03T15:27:46.256Z</time></trkpt><trkpt lat="39.3322005" lon="16.6238111"><ele>1247.0</ele><time>2026-05-03T15:27:47.259Z</time></trkpt><trkpt lat="39.3321629" lon="16.6240531"><ele>1248.0</ele><time>2026-05-03T15:27:48.257Z</time></trkpt><trkpt lat="39.3321326" lon="16.6242973"><ele>1249.0</ele><time>2026-05-03T15:27:49.259Z</time></trkpt><trkpt lat="39.3320846" lon="16.6245283"><ele>1249.0</ele><time>2026-05-03T15:27:50.257Z</time></trkpt><trkpt lat="39.3320389" lon="16.6247359"><ele>1249.0</ele><time>2026-05-03T15:27:51.259Z</time></trkpt><trkpt lat="39.3320049" lon="16.6249184"><ele>1249.0</ele><time>2026-05-03T15:27:52.256Z</time></trkpt><trkpt lat="39.331967" lon="16.6251104"><ele>1249.0</ele><time>2026-05-03T15:27:53.28Z</time></trkpt><trkpt lat="39.3319257" lon="16.6252896"><ele>1249.0</ele><time>2026-05-03T15:27:54.256Z</time></trkpt><trkpt lat="39.3319351" lon="16.625468"><ele>1249.0</ele><time>2026-05-03T15:27:55.265Z</time></trkpt><trkpt lat="39.3319705" lon="16.6256545"><ele>1249.0</ele><time>2026-05-03T15:27:56.257Z</time></trkpt><trkpt lat="39.3320274" lon="16.6258387"><ele>1248.0</ele><time>2026-05-03T15:27:57.257Z</time></trkpt><trkpt lat="39.3320814" lon="16.6260354"><ele>1247.0</ele><time>2026-05-03T15:27:58.258Z</time></trkpt><trkpt lat="39.3321213" lon="16.6262671"><ele>1246.0</ele><time>2026-05-03T15:27:59.259Z</time></trkpt><trkpt lat="39.3321353" lon="16.6265181"><ele>1244.0</ele><time>2026-05-03T15:28:00.275Z</time></trkpt><trkpt lat="39.3321158" lon="16.6267562"><ele>1242.0</ele><time>2026-05-03T15:28:01.256Z</time></trkpt><trkpt lat="39.3321057" lon="16.6270043"><ele>1240.0</ele><time>2026-05-03T15:28:02.26Z</time></trkpt><trkpt lat="39.3320947" lon="16.6272541"><ele>1240.0</ele><time>2026-05-03T15:28:03.262Z</time></trkpt><trkpt lat="39.3320889" lon="16.6274775"><ele>1240.0</ele><time>2026-05-03T15:28:04.26Z</time></trkpt><trkpt lat="39.3320381" lon="16.6276957"><ele>1240.0</ele><time>2026-05-03T15:28:05.282Z</time></trkpt><trkpt lat="39.3319844" lon="16.6279017"><ele>1244.0</ele><time>2026-05-03T15:28:06.257Z</time></trkpt><trkpt lat="39.3318906" lon="16.6280813"><ele>1248.0</ele><time>2026-05-03T15:28:07.258Z</time></trkpt><trkpt lat="39.3317657" lon="16.6282345"><ele>1252.0</ele><time>2026-05-03T15:28:08.257Z</time></trkpt><trkpt lat="39.331631" lon="16.6283887"><ele>1252.0</ele><time>2026-05-03T15:28:09.262Z</time></trkpt><trkpt lat="39.3314354" lon="16.6285008"><ele>1252.0</ele><time>2026-05-03T15:28:10.258Z</time></trkpt><trkpt lat="39.3312388" lon="16.6286114"><ele>1252.0</ele><time>2026-05-03T15:28:11.262Z</time></trkpt><trkpt lat="39.3310248" lon="16.6287219"><ele>1250.6666666666665</ele><time>2026-05-03T15:28:12.271Z</time></trkpt><trkpt lat="39.3308167" lon="16.6288286"><ele>1249.3333333333333</ele><time>2026-05-03T15:28:13.261Z</time></trkpt><trkpt lat="39.3306285" lon="16.6289394"><ele>1248.0</ele><time>2026-05-03T15:28:14.264Z</time></trkpt><trkpt lat="39.3304566" lon="16.6290345"><ele>1244.0</ele><time>2026-05-03T15:28:15.261Z</time></trkpt><trkpt lat="39.330301" lon="16.6291491"><ele>1240.0</ele><time>2026-05-03T15:28:16.257Z</time></trkpt><trkpt lat="39.3301658" lon="16.6292908"><ele>1236.0</ele><time>2026-05-03T15:28:17.275Z</time></trkpt><trkpt lat="39.3300296" lon="16.6294498"><ele>1233.0</ele><time>2026-05-03T15:28:18.261Z</time></trkpt><trkpt lat="39.3298999" lon="16.6296311"><ele>1230.0</ele><time>2026-05-03T15:28:19.257Z</time></trkpt><trkpt lat="39.3297648" lon="16.6298213"><ele>1227.0</ele><time>2026-05-03T15:28:20.258Z</time></trkpt><trkpt lat="39.3296274" lon="16.6300263"><ele>1227.0</ele><time>2026-05-03T15:28:21.263Z</time></trkpt><trkpt lat="39.3294847" lon="16.6302359"><ele>1227.0</ele><time>2026-05-03T15:28:22.256Z</time></trkpt><trkpt lat="39.3293372" lon="16.6304505"><ele>1227.0</ele><time>2026-05-03T15:28:23.275Z</time></trkpt><trkpt lat="39.329203" lon="16.6306813"><ele>1231.0</ele><time>2026-05-03T15:28:24.254Z</time></trkpt><trkpt lat="39.329065" lon="16.6309242"><ele>1235.0</ele><time>2026-05-03T15:28:25.262Z</time></trkpt><trkpt lat="39.328919" lon="16.6311714"><ele>1231.0</ele><time>2026-05-03T15:28:26.257Z</time></trkpt><trkpt lat="39.3287753" lon="16.6314256"><ele>1227.0</ele><time>2026-05-03T15:28:27.271Z</time></trkpt><trkpt lat="39.3286405" lon="16.6316782"><ele>1227.0</ele><time>2026-05-03T15:28:28.262Z</time></trkpt><trkpt lat="39.3285102" lon="16.6318952"><ele>1227.0</ele><time>2026-05-03T15:28:29.259Z</time></trkpt><trkpt lat="39.3283946" lon="16.632122"><ele>1227.0</ele><time>2026-05-03T15:28:30.264Z</time></trkpt><trkpt lat="39.3282946" lon="16.632354"><ele>1227.0</ele><time>2026-05-03T15:28:31.262Z</time></trkpt><trkpt lat="39.3281997" lon="16.6325813"><ele>1227.0</ele><time>2026-05-03T15:28:32.264Z</time></trkpt><trkpt lat="39.3281172" lon="16.6327927"><ele>1227.0</ele><time>2026-05-03T15:28:33.264Z</time></trkpt><trkpt lat="39.3280438" lon="16.6329898"><ele>1227.0</ele><time>2026-05-03T15:28:34.281Z</time></trkpt><trkpt lat="39.3279922" lon="16.6331904"><ele>1227.0</ele><time>2026-05-03T15:28:35.257Z</time></trkpt><trkpt lat="39.327978" lon="16.6334084"><ele>1227.0</ele><time>2026-05-03T15:28:36.267Z</time></trkpt><trkpt lat="39.3279918" lon="16.6336284"><ele>1225.75</ele><time>2026-05-03T15:28:37.256Z</time></trkpt><trkpt lat="39.3280041" lon="16.6338172"><ele>1224.5</ele><time>2026-05-03T15:28:38.26Z</time></trkpt><trkpt lat="39.3280078" lon="16.633995"><ele>1223.25</ele><time>2026-05-03T15:28:39.257Z</time></trkpt><trkpt lat="39.3279295" lon="16.6341227"><ele>1222.0</ele><time>2026-05-03T15:28:40.263Z</time></trkpt><trkpt lat="39.3278668" lon="16.6343008"><ele>1223.6666666666665</ele><time>2026-05-03T15:28:41.259Z</time></trkpt><trkpt lat="39.3277843" lon="16.6344775"><ele>1225.3333333333333</ele><time>2026-05-03T15:28:42.262Z</time></trkpt><trkpt lat="39.3276855" lon="16.6346828"><ele>1227.0</ele><time>2026-05-03T15:28:43.259Z</time></trkpt><trkpt lat="39.3275827" lon="16.6349043"><ele>1227.0</ele><time>2026-05-03T15:28:44.262Z</time></trkpt><trkpt lat="39.3274755" lon="16.6351365"><ele>1227.0</ele><time>2026-05-03T15:28:45.279Z</time></trkpt><trkpt lat="39.3273724" lon="16.6353377"><ele>1227.0</ele><time>2026-05-03T15:28:46.257Z</time></trkpt><trkpt lat="39.3272832" lon="16.6355163"><ele>1225.0</ele><time>2026-05-03T15:28:47.267Z</time></trkpt><trkpt lat="39.327196" lon="16.6357018"><ele>1223.0</ele><time>2026-05-03T15:28:48.261Z</time></trkpt><trkpt lat="39.3270943" lon="16.6359004"><ele>1221.0</ele><time>2026-05-03T15:28:49.256Z</time></trkpt><trkpt lat="39.3269884" lon="16.6361036"><ele>1222.3333333333333</ele><time>2026-05-03T15:28:50.255Z</time></trkpt><trkpt lat="39.326884" lon="16.6362874"><ele>1223.6666666666665</ele><time>2026-05-03T15:28:51.255Z</time></trkpt><trkpt lat="39.3267756" lon="16.6364739"><ele>1225.0</ele><time>2026-05-03T15:28:52.255Z</time></trkpt><trkpt lat="39.3266472" lon="16.6366726"><ele>1225.0</ele><time>2026-05-03T15:28:53.263Z</time></trkpt><trkpt lat="39.3265061" lon="16.6368536"><ele>1225.0</ele><time>2026-05-03T15:28:54.263Z</time></trkpt><trkpt lat="39.3263677" lon="16.6370198"><ele>1225.0</ele><time>2026-05-03T15:28:55.268Z</time></trkpt><trkpt lat="39.3262456" lon="16.6371893"><ele>1223.6666666666665</ele><time>2026-05-03T15:28:56.262Z</time></trkpt><trkpt lat="39.326137" lon="16.6373724"><ele>1222.3333333333333</ele><time>2026-05-03T15:28:57.278Z</time></trkpt><trkpt lat="39.3260481" lon="16.6375882"><ele>1221.0</ele><time>2026-05-03T15:28:58.261Z</time></trkpt><trkpt lat="39.3259827" lon="16.6378208"><ele>1221.0</ele><time>2026-05-03T15:28:59.262Z</time></trkpt><trkpt lat="39.3259268" lon="16.6380393"><ele>1221.0</ele><time>2026-05-03T15:29:00.263Z</time></trkpt><trkpt lat="39.3258645" lon="16.6382418"><ele>1221.0</ele><time>2026-05-03T15:29:01.257Z</time></trkpt><trkpt lat="39.3258011" lon="16.638436"><ele>1221.0</ele><time>2026-05-03T15:29:02.281Z</time></trkpt><trkpt lat="39.325711" lon="16.6386121"><ele>1221.0</ele><time>2026-05-03T15:29:03.261Z</time></trkpt><trkpt lat="39.325594" lon="16.6387736"><ele>1221.0</ele><time>2026-05-03T15:29:04.254Z</time></trkpt><trkpt lat="39.3254735" lon="16.6389409"><ele>1221.6666666666667</ele><time>2026-05-03T15:29:05.258Z</time></trkpt><trkpt lat="39.3253621" lon="16.6391196"><ele>1222.3333333333335</ele><time>2026-05-03T15:29:06.258Z</time></trkpt><trkpt lat="39.3252578" lon="16.6393119"><ele>1223.0</ele><time>2026-05-03T15:29:07.287Z</time></trkpt><trkpt lat="39.3251531" lon="16.6395073"><ele>1223.0</ele><time>2026-05-03T15:29:08.262Z</time></trkpt><trkpt lat="39.3250496" lon="16.6397016"><ele>1223.0</ele><time>2026-05-03T15:29:09.26Z</time></trkpt><trkpt lat="39.3249333" lon="16.6398886"><ele>1223.0</ele><time>2026-05-03T15:29:10.26Z</time></trkpt><trkpt lat="39.3248033" lon="16.6400728"><ele>1220.3333333333335</ele><time>2026-05-03T15:29:11.263Z</time></trkpt><trkpt lat="39.3246682" lon="16.6402537"><ele>1217.6666666666667</ele><time>2026-05-03T15:29:12.278Z</time></trkpt><trkpt lat="39.3245319" lon="16.6404311"><ele>1215.0</ele><time>2026-05-03T15:29:13.26Z</time></trkpt><trkpt lat="39.3243954" lon="16.6406127"><ele>1215.0</ele><time>2026-05-03T15:29:14.255Z</time></trkpt><trkpt lat="39.3242576" lon="16.6408002"><ele>1215.0</ele><time>2026-05-03T15:29:15.255Z</time></trkpt><trkpt lat="39.3241154" lon="16.6409951"><ele>1215.0</ele><time>2026-05-03T15:29:16.263Z</time></trkpt><trkpt lat="39.3239771" lon="16.6411899"><ele>1214.0</ele><time>2026-05-03T15:29:17.257Z</time></trkpt><trkpt lat="39.3238476" lon="16.6413898"><ele>1213.0</ele><time>2026-05-03T15:29:18.279Z</time></trkpt><trkpt lat="39.3237246" lon="16.641563"><ele>1212.0</ele><time>2026-05-03T15:29:19.26Z</time></trkpt><trkpt lat="39.3236255" lon="16.641728"><ele>1212.0</ele><time>2026-05-03T15:29:20.257Z</time></trkpt><trkpt lat="39.323524" lon="16.6419004"><ele>1212.0</ele><time>2026-05-03T15:29:21.259Z</time></trkpt><trkpt lat="39.323428" lon="16.6420981"><ele>1212.0</ele><time>2026-05-03T15:29:22.256Z</time></trkpt><trkpt lat="39.3233532" lon="16.6423158"><ele>1214.0</ele><time>2026-05-03T15:29:23.27Z</time></trkpt><trkpt lat="39.3232758" lon="16.6425098"><ele>1216.0</ele><time>2026-05-03T15:29:24.254Z</time></trkpt><trkpt lat="39.3231809" lon="16.6426975"><ele>1218.0</ele><time>2026-05-03T15:29:25.258Z</time></trkpt><trkpt lat="39.3230963" lon="16.6428709"><ele>1215.6666666666667</ele><time>2026-05-03T15:29:26.27Z</time></trkpt><trkpt lat="39.323002" lon="16.6430426"><ele>1213.3333333333335</ele><time>2026-05-03T15:29:27.257Z</time></trkpt><trkpt lat="39.32289" lon="16.6431865"><ele>1211.0</ele><time>2026-05-03T15:29:28.271Z</time></trkpt><trkpt lat="39.3227814" lon="16.6433393"><ele>1211.0</ele><time>2026-05-03T15:29:29.261Z</time></trkpt><trkpt lat="39.3226681" lon="16.6434884"><ele>1211.0</ele><time>2026-05-03T15:29:30.261Z</time></trkpt><trkpt lat="39.3225698" lon="16.6436726"><ele>1211.0</ele><time>2026-05-03T15:29:31.261Z</time></trkpt><trkpt lat="39.3224705" lon="16.6438647"><ele>1211.3333333333335</ele><time>2026-05-03T15:29:32.261Z</time></trkpt><trkpt lat="39.3223873" lon="16.6440819"><ele>1211.6666666666667</ele><time>2026-05-03T15:29:33.258Z</time></trkpt><trkpt lat="39.322307" lon="16.6442959"><ele>1212.0</ele><time>2026-05-03T15:29:34.263Z</time></trkpt><trkpt lat="39.3222189" lon="16.6445054"><ele>1212.0</ele><time>2026-05-03T15:29:35.26Z</time></trkpt><trkpt lat="39.3221282" lon="16.6447123"><ele>1212.0</ele><time>2026-05-03T15:29:36.265Z</time></trkpt><trkpt lat="39.3220261" lon="16.6449165"><ele>1212.0</ele><time>2026-05-03T15:29:37.267Z</time></trkpt><trkpt lat="39.3218972" lon="16.6450916"><ele>1212.0</ele><time>2026-05-03T15:29:38.262Z</time></trkpt><trkpt lat="39.3217434" lon="16.6452366"><ele>1212.0</ele><time>2026-05-03T15:29:39.273Z</time></trkpt><trkpt lat="39.3215888" lon="16.6453729"><ele>1212.0</ele><time>2026-05-03T15:29:40.272Z</time></trkpt><trkpt lat="39.3214503" lon="16.6454851"><ele>1210.6666666666667</ele><time>2026-05-03T15:29:41.26Z</time></trkpt><trkpt lat="39.3213239" lon="16.645595"><ele>1209.3333333333335</ele><time>2026-05-03T15:29:42.274Z</time></trkpt><trkpt lat="39.3212132" lon="16.6457406"><ele>1208.0</ele><time>2026-05-03T15:29:43.262Z</time></trkpt><trkpt lat="39.3211212" lon="16.6459235"><ele>1209.0</ele><time>2026-05-03T15:29:44.261Z</time></trkpt><trkpt lat="39.321035" lon="16.6461339"><ele>1210.0</ele><time>2026-05-03T15:29:45.261Z</time></trkpt><trkpt lat="39.3209463" lon="16.646359"><ele>1211.0</ele><time>2026-05-03T15:29:46.263Z</time></trkpt><trkpt lat="39.3208504" lon="16.6465882"><ele>1211.0</ele><time>2026-05-03T15:29:47.263Z</time></trkpt><trkpt lat="39.3207521" lon="16.6468273"><ele>1211.0</ele><time>2026-05-03T15:29:48.262Z</time></trkpt><trkpt lat="39.320652" lon="16.6470647"><ele>1211.0</ele><time>2026-05-03T15:29:49.269Z</time></trkpt><trkpt lat="39.320548" lon="16.647302"><ele>1210.3333333333335</ele><time>2026-05-03T15:29:50.263Z</time></trkpt><trkpt lat="39.3204448" lon="16.6475441"><ele>1209.6666666666667</ele><time>2026-05-03T15:29:51.28Z</time></trkpt><trkpt lat="39.320337" lon="16.6477932"><ele>1209.0</ele><time>2026-05-03T15:29:52.268Z</time></trkpt><trkpt lat="39.3202334" lon="16.6480234"><ele>1209.0</ele><time>2026-05-03T15:29:53.266Z</time></trkpt><trkpt lat="39.3201249" lon="16.6482332"><ele>1209.0</ele><time>2026-05-03T15:29:54.261Z</time></trkpt><trkpt lat="39.3200033" lon="16.6484264"><ele>1209.0</ele><time>2026-05-03T15:29:55.268Z</time></trkpt><trkpt lat="39.3198715" lon="16.6486035"><ele>1210.0</ele><time>2026-05-03T15:29:56.273Z</time></trkpt><trkpt lat="39.3197407" lon="16.6487687"><ele>1211.0</ele><time>2026-05-03T15:29:57.268Z</time></trkpt><trkpt lat="39.3196127" lon="16.6489219"><ele>1212.0</ele><time>2026-05-03T15:29:58.285Z</time></trkpt><trkpt lat="39.319491" lon="16.6490652"><ele>1212.5</ele><time>2026-05-03T15:29:59.264Z</time></trkpt><trkpt lat="39.319374" lon="16.6491942"><ele>1213.0</ele><time>2026-05-03T15:30:00.266Z</time></trkpt><trkpt lat="39.3192748" lon="16.6493262"><ele>1213.5</ele><time>2026-05-03T15:30:01.268Z</time></trkpt><trkpt lat="39.3191802" lon="16.6494649"><ele>1214.0</ele><time>2026-05-03T15:30:02.265Z</time></trkpt><trkpt lat="39.3191097" lon="16.6496254"><ele>1214.0</ele><time>2026-05-03T15:30:03.262Z</time></trkpt><trkpt lat="39.3190667" lon="16.6497868"><ele>1214.0</ele><time>2026-05-03T15:30:04.275Z</time></trkpt><trkpt lat="39.3190455" lon="16.6499299"><ele>1214.0</ele><time>2026-05-03T15:30:05.258Z</time></trkpt><trkpt lat="39.3190346" lon="16.6500595"><ele>1214.0</ele><time>2026-05-03T15:30:06.267Z</time></trkpt><trkpt lat="39.3190311" lon="16.6501445"><ele>1214.0</ele><time>2026-05-03T15:30:07.266Z</time></trkpt><trkpt lat="39.3190044" lon="16.650238"><ele>1214.0</ele><time>2026-05-03T15:30:08.258Z</time></trkpt><trkpt lat="39.3189165" lon="16.6502905"><ele>1214.0</ele><time>2026-05-03T15:30:09.268Z</time></trkpt><trkpt lat="39.3188265" lon="16.650338"><ele>1214.0</ele><time>2026-05-03T15:30:10.261Z</time></trkpt><trkpt lat="39.3187318" lon="16.6503906"><ele>1214.0</ele><time>2026-05-03T15:30:11.284Z</time></trkpt><trkpt lat="39.3186376" lon="16.6504366"><ele>1214.0</ele><time>2026-05-03T15:30:12.263Z</time></trkpt><trkpt lat="39.3185413" lon="16.6504819"><ele>1214.2</ele><time>2026-05-03T15:30:13.258Z</time></trkpt><trkpt lat="39.3184455" lon="16.6505233"><ele>1214.4</ele><time>2026-05-03T15:30:14.259Z</time></trkpt><trkpt lat="39.3183554" lon="16.6505648"><ele>1214.6</ele><time>2026-05-03T15:30:15.259Z</time></trkpt><trkpt lat="39.3182544" lon="16.6505882"><ele>1214.8</ele><time>2026-05-03T15:30:16.26Z</time></trkpt><trkpt lat="39.318158" lon="16.6506346"><ele>1215.0</ele><time>2026-05-03T15:30:17.261Z</time></trkpt><trkpt lat="39.3180614" lon="16.6507084"><ele>1212.5</ele><time>2026-05-03T15:30:18.264Z</time></trkpt><trkpt lat="39.3179509" lon="16.6507979"><ele>1210.0</ele><time>2026-05-03T15:30:19.276Z</time></trkpt><trkpt lat="39.3178495" lon="16.6508962"><ele>1207.5</ele><time>2026-05-03T15:30:20.273Z</time></trkpt><trkpt lat="39.3177566" lon="16.6510193"><ele>1205.0</ele><time>2026-05-03T15:30:21.271Z</time></trkpt><trkpt lat="39.3176729" lon="16.6511679"><ele>1205.0</ele><time>2026-05-03T15:30:22.261Z</time></trkpt><trkpt lat="39.3176023" lon="16.6513094"><ele>1205.0</ele><time>2026-05-03T15:30:23.267Z</time></trkpt><trkpt lat="39.3175643" lon="16.6514225"><ele>1205.0</ele><time>2026-05-03T15:30:24.263Z</time></trkpt><trkpt lat="39.3175058" lon="16.6515263"><ele>1205.0</ele><time>2026-05-03T15:30:25.26Z</time></trkpt><trkpt lat="39.3174281" lon="16.6516285"><ele>1205.0</ele><time>2026-05-03T15:30:26.258Z</time></trkpt><trkpt lat="39.3173356" lon="16.6516845"><ele>1205.0</ele><time>2026-05-03T15:30:27.258Z</time></trkpt><trkpt lat="39.3172445" lon="16.6517009"><ele>1205.0</ele><time>2026-05-03T15:30:28.258Z</time></trkpt><trkpt lat="39.3171471" lon="16.6516743"><ele>1205.0</ele><time>2026-05-03T15:30:29.275Z</time></trkpt><trkpt lat="39.3170522" lon="16.6516457"><ele>1205.0</ele><time>2026-05-03T15:30:30.261Z</time></trkpt><trkpt lat="39.3169539" lon="16.6515867"><ele>1205.0</ele><time>2026-05-03T15:30:31.262Z</time></trkpt><trkpt lat="39.3168557" lon="16.6515316"><ele>1203.25</ele><time>2026-05-03T15:30:32.262Z</time></trkpt><trkpt lat="39.3167444" lon="16.6514716"><ele>1201.5</ele><time>2026-05-03T15:30:33.257Z</time></trkpt><trkpt lat="39.316632" lon="16.6514108"><ele>1199.75</ele><time>2026-05-03T15:30:34.284Z</time></trkpt><trkpt lat="39.3165222" lon="16.6513463"><ele>1198.0</ele><time>2026-05-03T15:30:35.269Z</time></trkpt><trkpt lat="39.3164155" lon="16.6512821"><ele>1198.0</ele><time>2026-05-03T15:30:36.261Z</time></trkpt><trkpt lat="39.3163171" lon="16.6512037"><ele>1198.0</ele><time>2026-05-03T15:30:37.257Z</time></trkpt><trkpt lat="39.3162183" lon="16.6511218"><ele>1198.0</ele><time>2026-05-03T15:30:38.259Z</time></trkpt><trkpt lat="39.3161234" lon="16.6510456"><ele>1198.0</ele><time>2026-05-03T15:30:39.259Z</time></trkpt><trkpt lat="39.316032" lon="16.6509653"><ele>1198.0</ele><time>2026-05-03T15:30:40.257Z</time></trkpt><trkpt lat="39.3159333" lon="16.6508988"><ele>1198.0</ele><time>2026-05-03T15:30:41.288Z</time></trkpt><trkpt lat="39.3158209" lon="16.6508673"><ele>1198.0</ele><time>2026-05-03T15:30:42.262Z</time></trkpt><trkpt lat="39.3156862" lon="16.6508791"><ele>1198.0</ele><time>2026-05-03T15:30:43.264Z</time></trkpt><trkpt lat="39.3155553" lon="16.6509123"><ele>1198.75</ele><time>2026-05-03T15:30:44.264Z</time></trkpt><trkpt lat="39.3154194" lon="16.6509633"><ele>1199.5</ele><time>2026-05-03T15:30:45.265Z</time></trkpt><trkpt lat="39.315277" lon="16.6510088"><ele>1200.25</ele><time>2026-05-03T15:30:46.277Z</time></trkpt><trkpt lat="39.3151363" lon="16.6510506"><ele>1201.0</ele><time>2026-05-03T15:30:47.261Z</time></trkpt><trkpt lat="39.3149977" lon="16.6510977"><ele>1200.6666666666665</ele><time>2026-05-03T15:30:48.259Z</time></trkpt><trkpt lat="39.3148731" lon="16.6511412"><ele>1200.3333333333333</ele><time>2026-05-03T15:30:49.271Z</time></trkpt><trkpt lat="39.314718" lon="16.6511741"><ele>1200.0</ele><time>2026-05-03T15:30:50.264Z</time></trkpt><trkpt lat="39.3145581" lon="16.6512208"><ele>1200.0</ele><time>2026-05-03T15:30:51.288Z</time></trkpt><trkpt lat="39.3143868" lon="16.6512691"><ele>1200.0</ele><time>2026-05-03T15:30:52.257Z</time></trkpt><trkpt lat="39.3142057" lon="16.651323"><ele>1200.0</ele><time>2026-05-03T15:30:53.263Z</time></trkpt><trkpt lat="39.3140336" lon="16.6513747"><ele>1201.0</ele><time>2026-05-03T15:30:54.265Z</time></trkpt><trkpt lat="39.3138697" lon="16.6514264"><ele>1202.0</ele><time>2026-05-03T15:30:55.262Z</time></trkpt><trkpt lat="39.3137118" lon="16.6514713"><ele>1203.0</ele><time>2026-05-03T15:30:56.283Z</time></trkpt><trkpt lat="39.3135627" lon="16.6515153"><ele>1203.0</ele><time>2026-05-03T15:30:57.266Z</time></trkpt><trkpt lat="39.3134335" lon="16.6515513"><ele>1203.0</ele><time>2026-05-03T15:30:58.267Z</time></trkpt><trkpt lat="39.3133191" lon="16.6515933"><ele>1203.0</ele><time>2026-05-03T15:30:59.261Z</time></trkpt><trkpt lat="39.3132256" lon="16.6516484"><ele>1203.0</ele><time>2026-05-03T15:31:00.267Z</time></trkpt><trkpt lat="39.3131551" lon="16.6517628"><ele>1203.0</ele><time>2026-05-03T15:31:01.266Z</time></trkpt><trkpt lat="39.3131388" lon="16.6519015"><ele>1203.0</ele><time>2026-05-03T15:31:02.269Z</time></trkpt><trkpt lat="39.3131252" lon="16.652056"><ele>1203.0</ele><time>2026-05-03T15:31:03.263Z</time></trkpt><trkpt lat="39.3131265" lon="16.6522131"><ele>1203.0</ele><time>2026-05-03T15:31:04.265Z</time></trkpt><trkpt lat="39.3131201" lon="16.6523462"><ele>1203.2</ele><time>2026-05-03T15:31:05.257Z</time></trkpt><trkpt lat="39.3131026" lon="16.6524514"><ele>1203.4</ele><time>2026-05-03T15:31:06.266Z</time></trkpt><trkpt lat="39.3130681" lon="16.6525732"><ele>1203.6000000000001</ele><time>2026-05-03T15:31:07.263Z</time></trkpt><trkpt lat="39.3130034" lon="16.6526655"><ele>1203.8</ele><time>2026-05-03T15:31:08.268Z</time></trkpt><trkpt lat="39.3129195" lon="16.6527428"><ele>1204.0</ele><time>2026-05-03T15:31:09.27Z</time></trkpt><trkpt lat="39.3128204" lon="16.6527906"><ele>1206.2</ele><time>2026-05-03T15:31:10.268Z</time></trkpt><trkpt lat="39.312735" lon="16.6528345"><ele>1208.4</ele><time>2026-05-03T15:31:11.262Z</time></trkpt><trkpt lat="39.3126341" lon="16.6528057"><ele>1210.6</ele><time>2026-05-03T15:31:12.256Z</time></trkpt><trkpt lat="39.3125388" lon="16.6527503"><ele>1212.8</ele><time>2026-05-03T15:31:13.265Z</time></trkpt><trkpt lat="39.3124313" lon="16.6526708"><ele>1215.0</ele><time>2026-05-03T15:31:14.265Z</time></trkpt><trkpt lat="39.3123463" lon="16.6525456"><ele>1215.4</ele><time>2026-05-03T15:31:15.265Z</time></trkpt><trkpt lat="39.3122645" lon="16.6524179"><ele>1215.8</ele><time>2026-05-03T15:31:16.259Z</time></trkpt><trkpt lat="39.3121918" lon="16.6522943"><ele>1216.2</ele><time>2026-05-03T15:31:17.264Z</time></trkpt><trkpt lat="39.3121318" lon="16.6521941"><ele>1216.6</ele><time>2026-05-03T15:31:18.263Z</time></trkpt><trkpt lat="39.3120722" lon="16.6520981"><ele>1217.0</ele><time>2026-05-03T15:31:19.271Z</time></trkpt><trkpt lat="39.3119843" lon="16.6520328"><ele>1218.25</ele><time>2026-05-03T15:31:20.273Z</time></trkpt><trkpt lat="39.311881" lon="16.6520015"><ele>1219.5</ele><time>2026-05-03T15:31:21.262Z</time></trkpt><trkpt lat="39.3117694" lon="16.6520712"><ele>1220.75</ele><time>2026-05-03T15:31:22.276Z</time></trkpt><trkpt lat="39.3116792" lon="16.6521839"><ele>1222.0</ele><time>2026-05-03T15:31:23.263Z</time></trkpt><trkpt lat="39.3116123" lon="16.652325"><ele>1222.0</ele><time>2026-05-03T15:31:24.261Z</time></trkpt><trkpt lat="39.3115552" lon="16.6524597"><ele>1222.0</ele><time>2026-05-03T15:31:25.263Z</time></trkpt><trkpt lat="39.3115083" lon="16.6525851"><ele>1222.0</ele><time>2026-05-03T15:31:26.264Z</time></trkpt><trkpt lat="39.3114963" lon="16.6527271"><ele>1222.0</ele><time>2026-05-03T15:31:27.269Z</time></trkpt><trkpt lat="39.311522" lon="16.6528934"><ele>1224.0</ele><time>2026-05-03T15:31:28.265Z</time></trkpt><trkpt lat="39.3115729" lon="16.6530729"><ele>1226.0</ele><time>2026-05-03T15:31:29.258Z</time></trkpt><trkpt lat="39.3116162" lon="16.6532567"><ele>1228.0</ele><time>2026-05-03T15:31:30.258Z</time></trkpt><trkpt lat="39.3116671" lon="16.6534548"><ele>1230.3333333333333</ele><time>2026-05-03T15:31:31.27Z</time></trkpt><trkpt lat="39.3117041" lon="16.6536652"><ele>1232.6666666666667</ele><time>2026-05-03T15:31:32.263Z</time></trkpt><trkpt lat="39.3117671" lon="16.6538819"><ele>1235.0</ele><time>2026-05-03T15:31:33.267Z</time></trkpt><trkpt lat="39.3118231" lon="16.6541028"><ele>1235.0</ele><time>2026-05-03T15:31:34.258Z</time></trkpt><trkpt lat="39.3118809" lon="16.6542862"><ele>1235.0</ele><time>2026-05-03T15:31:35.264Z</time></trkpt><trkpt lat="39.3119156" lon="16.654478"><ele>1235.0</ele><time>2026-05-03T15:31:36.258Z</time></trkpt><trkpt lat="39.3119384" lon="16.6546617"><ele>1235.0</ele><time>2026-05-03T15:31:37.26Z</time></trkpt><trkpt lat="39.3119203" lon="16.6548635"><ele>1235.0</ele><time>2026-05-03T15:31:38.26Z</time></trkpt><trkpt lat="39.311875" lon="16.6550134"><ele>1235.0</ele><time>2026-05-03T15:31:39.258Z</time></trkpt><trkpt lat="39.3117955" lon="16.6551296"><ele>1235.0</ele><time>2026-05-03T15:31:40.257Z</time></trkpt><trkpt lat="39.3116708" lon="16.6552143"><ele>1235.0</ele><time>2026-05-03T15:31:41.255Z</time></trkpt><trkpt lat="39.3115392" lon="16.6551917"><ele>1235.0</ele><time>2026-05-03T15:31:42.258Z</time></trkpt><trkpt lat="39.3114274" lon="16.6551279"><ele>1235.0</ele><time>2026-05-03T15:31:43.255Z</time></trkpt><trkpt lat="39.3113208" lon="16.6550544"><ele>1235.0</ele><time>2026-05-03T15:31:44.258Z</time></trkpt><trkpt lat="39.3112279" lon="16.654922"><ele>1234.0</ele><time>2026-05-03T15:31:45.276Z</time></trkpt><trkpt lat="39.3111346" lon="16.6548055"><ele>1233.0</ele><time>2026-05-03T15:31:46.255Z</time></trkpt><trkpt lat="39.3110192" lon="16.6546694"><ele>1232.0</ele><time>2026-05-03T15:31:47.256Z</time></trkpt><trkpt lat="39.3109207" lon="16.6545389"><ele>1231.0</ele><time>2026-05-03T15:31:48.262Z</time></trkpt><trkpt lat="39.3108303" lon="16.6544337"><ele>1233.75</ele><time>2026-05-03T15:31:49.252Z</time></trkpt><trkpt lat="39.3107017" lon="16.6543111"><ele>1236.5</ele><time>2026-05-03T15:31:50.267Z</time></trkpt><trkpt lat="39.3106026" lon="16.6542903"><ele>1239.25</ele><time>2026-05-03T15:31:51.266Z</time></trkpt><trkpt lat="39.3105046" lon="16.6543176"><ele>1242.0</ele><time>2026-05-03T15:31:52.285Z</time></trkpt><trkpt lat="39.3104028" lon="16.6544007"><ele>1241.25</ele><time>2026-05-03T15:31:53.264Z</time></trkpt><trkpt lat="39.3102754" lon="16.6544417"><ele>1240.5</ele><time>2026-05-03T15:31:54.263Z</time></trkpt><trkpt lat="39.3101482" lon="16.6544961"><ele>1239.75</ele><time>2026-05-03T15:31:55.263Z</time></trkpt><trkpt lat="39.3100017" lon="16.6545341"><ele>1239.0</ele><time>2026-05-03T15:31:56.268Z</time></trkpt><trkpt lat="39.3098573" lon="16.6545462"><ele>1243.3333333333333</ele><time>2026-05-03T15:31:57.262Z</time></trkpt><trkpt lat="39.3097006" lon="16.6545629"><ele>1247.6666666666665</ele><time>2026-05-03T15:31:58.262Z</time></trkpt><trkpt lat="39.309533" lon="16.6545961"><ele>1252.0</ele><time>2026-05-03T15:31:59.264Z</time></trkpt><trkpt lat="39.3093762" lon="16.6546446"><ele>1252.0</ele><time>2026-05-03T15:32:00.261Z</time></trkpt><trkpt lat="39.3092493" lon="16.6546918"><ele>1252.0</ele><time>2026-05-03T15:32:01.276Z</time></trkpt><trkpt lat="39.3091275" lon="16.6547401"><ele>1252.0</ele><time>2026-05-03T15:32:02.262Z</time></trkpt><trkpt lat="39.3090113" lon="16.6547928"><ele>1252.0</ele><time>2026-05-03T15:32:03.264Z</time></trkpt><trkpt lat="39.3088895" lon="16.6548488"><ele>1252.5</ele><time>2026-05-03T15:32:04.271Z</time></trkpt><trkpt lat="39.3087646" lon="16.6549148"><ele>1253.0</ele><time>2026-05-03T15:32:05.27Z</time></trkpt><trkpt lat="39.3086482" lon="16.6549974"><ele>1253.5</ele><time>2026-05-03T15:32:06.264Z</time></trkpt><trkpt lat="39.3085413" lon="16.6550867"><ele>1254.0</ele><time>2026-05-03T15:32:07.286Z</time></trkpt><trkpt lat="39.3084341" lon="16.655176"><ele>1254.0</ele><time>2026-05-03T15:32:08.267Z</time></trkpt><trkpt lat="39.3083201" lon="16.6552752"><ele>1254.0</ele><time>2026-05-03T15:32:09.261Z</time></trkpt><trkpt lat="39.3081926" lon="16.6553818"><ele>1254.0</ele><time>2026-05-03T15:32:10.267Z</time></trkpt><trkpt lat="39.3080518" lon="16.6555009"><ele>1251.3333333333333</ele><time>2026-05-03T15:32:11.266Z</time></trkpt><trkpt lat="39.3079064" lon="16.6556146"><ele>1248.6666666666665</ele><time>2026-05-03T15:32:12.29Z</time></trkpt><trkpt lat="39.3077639" lon="16.6557174"><ele>1246.0</ele><time>2026-05-03T15:32:13.267Z</time></trkpt><trkpt lat="39.3076205" lon="16.6558081"><ele>1246.0</ele><time>2026-05-03T15:32:14.262Z</time></trkpt><trkpt lat="39.3074816" lon="16.6558945"><ele>1246.0</ele><time>2026-05-03T15:32:15.267Z</time></trkpt><trkpt lat="39.3073493" lon="16.6559744"><ele>1246.0</ele><time>2026-05-03T15:32:16.268Z</time></trkpt><trkpt lat="39.307226" lon="16.6560554"><ele>1246.0</ele><time>2026-05-03T15:32:17.268Z</time></trkpt><trkpt lat="39.3071003" lon="16.6561375"><ele>1244.0</ele><time>2026-05-03T15:32:18.276Z</time></trkpt><trkpt lat="39.3069833" lon="16.6562132"><ele>1242.0</ele><time>2026-05-03T15:32:19.26Z</time></trkpt><trkpt lat="39.3068514" lon="16.6562932"><ele>1240.0</ele><time>2026-05-03T15:32:20.294Z</time></trkpt><trkpt lat="39.3067182" lon="16.656378"><ele>1238.0</ele><time>2026-05-03T15:32:21.26Z</time></trkpt><trkpt lat="39.306594" lon="16.6564802"><ele>1238.0</ele><time>2026-05-03T15:32:22.271Z</time></trkpt><trkpt lat="39.3064936" lon="16.6566165"><ele>1238.0</ele><time>2026-05-03T15:32:23.263Z</time></trkpt><trkpt lat="39.3064239" lon="16.6567846"><ele>1238.0</ele><time>2026-05-03T15:32:24.268Z</time></trkpt><trkpt lat="39.3063712" lon="16.6569872"><ele>1238.3333333333335</ele><time>2026-05-03T15:32:25.267Z</time></trkpt><trkpt lat="39.3063351" lon="16.6572198"><ele>1238.6666666666667</ele><time>2026-05-03T15:32:26.289Z</time></trkpt><trkpt lat="39.3062982" lon="16.6574681"><ele>1239.0</ele><time>2026-05-03T15:32:27.264Z</time></trkpt><trkpt lat="39.3062651" lon="16.6577092"><ele>1238.6666666666667</ele><time>2026-05-03T15:32:28.266Z</time></trkpt><trkpt lat="39.3062344" lon="16.6579215"><ele>1238.3333333333335</ele><time>2026-05-03T15:32:29.272Z</time></trkpt><trkpt lat="39.306206" lon="16.6581282"><ele>1238.0</ele><time>2026-05-03T15:32:30.267Z</time></trkpt><trkpt lat="39.3061696" lon="16.6583332"><ele>1238.0</ele><time>2026-05-03T15:32:31.283Z</time></trkpt><trkpt lat="39.3061503" lon="16.6585378"><ele>1238.0</ele><time>2026-05-03T15:32:32.269Z</time></trkpt><trkpt lat="39.306097" lon="16.6587243"><ele>1238.0</ele><time>2026-05-03T15:32:33.268Z</time></trkpt><trkpt lat="39.3060122" lon="16.6589099"><ele>1236.3333333333335</ele><time>2026-05-03T15:32:34.263Z</time></trkpt><trkpt lat="39.3059139" lon="16.6590951"><ele>1234.6666666666667</ele><time>2026-05-03T15:32:35.267Z</time></trkpt><trkpt lat="39.3058176" lon="16.6592688"><ele>1233.0</ele><time>2026-05-03T15:32:36.264Z</time></trkpt><trkpt lat="39.3057234" lon="16.6594322"><ele>1232.0</ele><time>2026-05-03T15:32:37.261Z</time></trkpt><trkpt lat="39.3056353" lon="16.6595827"><ele>1231.0</ele><time>2026-05-03T15:32:38.266Z</time></trkpt><trkpt lat="39.3055502" lon="16.659721"><ele>1230.0</ele><time>2026-05-03T15:32:39.266Z</time></trkpt><trkpt lat="39.3054705" lon="16.6598564"><ele>1229.0</ele><time>2026-05-03T15:32:40.27Z</time></trkpt><trkpt lat="39.3054047" lon="16.6599995"><ele>1229.0</ele><time>2026-05-03T15:32:41.277Z</time></trkpt><trkpt lat="39.3053454" lon="16.6601423"><ele>1229.0</ele><time>2026-05-03T15:32:42.266Z</time></trkpt><trkpt lat="39.3052829" lon="16.6602899"><ele>1229.0</ele><time>2026-05-03T15:32:43.26Z</time></trkpt><trkpt lat="39.3052086" lon="16.6604375"><ele>1229.0</ele><time>2026-05-03T15:32:44.261Z</time></trkpt><trkpt lat="39.305125" lon="16.6605795"><ele>1229.0</ele><time>2026-05-03T15:32:45.261Z</time></trkpt><trkpt lat="39.3050454" lon="16.6607066"><ele>1229.0</ele><time>2026-05-03T15:32:46.272Z</time></trkpt><trkpt lat="39.3049687" lon="16.6608239"><ele>1229.0</ele><time>2026-05-03T15:32:47.258Z</time></trkpt><trkpt lat="39.3048912" lon="16.66094"><ele>1229.0</ele><time>2026-05-03T15:32:48.262Z</time></trkpt><trkpt lat="39.304821" lon="16.6610559"><ele>1228.6000000000001</ele><time>2026-05-03T15:32:49.26Z</time></trkpt><trkpt lat="39.3047524" lon="16.6611612"><ele>1228.2</ele><time>2026-05-03T15:32:50.264Z</time></trkpt><trkpt lat="39.3046862" lon="16.6612671"><ele>1227.8000000000002</ele><time>2026-05-03T15:32:51.26Z</time></trkpt><trkpt lat="39.3046188" lon="16.6613756"><ele>1227.4</ele><time>2026-05-03T15:32:52.267Z</time></trkpt><trkpt lat="39.3045473" lon="16.6614881"><ele>1227.0</ele><time>2026-05-03T15:32:53.275Z</time></trkpt><trkpt lat="39.3044688" lon="16.6616094"><ele>1226.25</ele><time>2026-05-03T15:32:54.262Z</time></trkpt><trkpt lat="39.3043876" lon="16.6617374"><ele>1225.5</ele><time>2026-05-03T15:32:55.26Z</time></trkpt><trkpt lat="39.304306" lon="16.6618611"><ele>1224.75</ele><time>2026-05-03T15:32:56.261Z</time></trkpt><trkpt lat="39.3042267" lon="16.6619787"><ele>1224.0</ele><time>2026-05-03T15:32:57.262Z</time></trkpt><trkpt lat="39.3041639" lon="16.6620752"><ele>1223.75</ele><time>2026-05-03T15:32:58.258Z</time></trkpt><trkpt lat="39.3040781" lon="16.6621688"><ele>1223.5</ele><time>2026-05-03T15:33:13.265Z</time></trkpt><trkpt lat="39.303968" lon="16.6623123"><ele>1223.25</ele><time>2026-05-03T15:33:15.263Z</time></trkpt><trkpt lat="39.3038674" lon="16.6624308"><ele>1223.0</ele><time>2026-05-03T15:33:16.264Z</time></trkpt><trkpt lat="39.3037604" lon="16.6625503"><ele>1221.0</ele><time>2026-05-03T15:33:17.275Z</time></trkpt><trkpt lat="39.303627" lon="16.662707"><ele>1219.0</ele><time>2026-05-03T15:33:18.26Z</time></trkpt><trkpt lat="39.3034839" lon="16.6628701"><ele>1217.0</ele><time>2026-05-03T15:33:19.26Z</time></trkpt><trkpt lat="39.3033344" lon="16.6630557"><ele>1217.0</ele><time>2026-05-03T15:33:20.261Z</time></trkpt><trkpt lat="39.3031801" lon="16.6632495"><ele>1217.0</ele><time>2026-05-03T15:33:21.262Z</time></trkpt><trkpt lat="39.3030323" lon="16.6634406"><ele>1217.0</ele><time>2026-05-03T15:33:22.261Z</time></trkpt><trkpt lat="39.3028954" lon="16.6636253"><ele>1214.0</ele><time>2026-05-03T15:33:23.291Z</time></trkpt><trkpt lat="39.3027648" lon="16.6638038"><ele>1211.0</ele><time>2026-05-03T15:33:24.269Z</time></trkpt><trkpt lat="39.3026365" lon="16.6639781"><ele>1208.0</ele><time>2026-05-03T15:33:25.267Z</time></trkpt><trkpt lat="39.3025128" lon="16.6641462"><ele>1208.0</ele><time>2026-05-03T15:33:26.266Z</time></trkpt><trkpt lat="39.3023901" lon="16.664305"><ele>1208.0</ele><time>2026-05-03T15:33:27.269Z</time></trkpt><trkpt lat="39.3022776" lon="16.6644711"><ele>1208.0</ele><time>2026-05-03T15:33:28.267Z</time></trkpt><trkpt lat="39.3021771" lon="16.6646431"><ele>1205.0</ele><time>2026-05-03T15:33:29.283Z</time></trkpt><trkpt lat="39.302082" lon="16.6648093"><ele>1202.0</ele><time>2026-05-03T15:33:30.266Z</time></trkpt><trkpt lat="39.3019921" lon="16.6649773"><ele>1199.0</ele><time>2026-05-03T15:33:31.262Z</time></trkpt><trkpt lat="39.3019032" lon="16.6651459"><ele>1198.6666666666667</ele><time>2026-05-03T15:33:32.26Z</time></trkpt><trkpt lat="39.3018075" lon="16.6653174"><ele>1198.3333333333333</ele><time>2026-05-03T15:33:33.265Z</time></trkpt><trkpt lat="39.3017063" lon="16.6654876"><ele>1198.0</ele><time>2026-05-03T15:33:34.268Z</time></trkpt><trkpt lat="39.3016001" lon="16.6656554"><ele>1198.0</ele><time>2026-05-03T15:33:35.264Z</time></trkpt><trkpt lat="39.3014892" lon="16.6658269"><ele>1198.0</ele><time>2026-05-03T15:33:36.268Z</time></trkpt><trkpt lat="39.3013811" lon="16.6659933"><ele>1198.0</ele><time>2026-05-03T15:33:37.267Z</time></trkpt><trkpt lat="39.3012763" lon="16.6661525"><ele>1195.0</ele><time>2026-05-03T15:33:38.27Z</time></trkpt><trkpt lat="39.3011758" lon="16.6663099"><ele>1192.0</ele><time>2026-05-03T15:33:39.268Z</time></trkpt><trkpt lat="39.3010717" lon="16.6664722"><ele>1189.0</ele><time>2026-05-03T15:33:40.262Z</time></trkpt><trkpt lat="39.3009642" lon="16.6666357"><ele>1189.0</ele><time>2026-05-03T15:33:41.282Z</time></trkpt><trkpt lat="39.300857" lon="16.6667828"><ele>1189.0</ele><time>2026-05-03T15:33:42.269Z</time></trkpt><trkpt lat="39.3007292" lon="16.6668892"><ele>1189.0</ele><time>2026-05-03T15:33:43.264Z</time></trkpt><trkpt lat="39.3005983" lon="16.6669739"><ele>1188.0</ele><time>2026-05-03T15:33:44.266Z</time></trkpt><trkpt lat="39.3004636" lon="16.6670473"><ele>1187.0</ele><time>2026-05-03T15:33:45.266Z</time></trkpt><trkpt lat="39.3003314" lon="16.667129"><ele>1186.0</ele><time>2026-05-03T15:33:46.269Z</time></trkpt><trkpt lat="39.3001984" lon="16.6672132"><ele>1185.0</ele><time>2026-05-03T15:33:47.267Z</time></trkpt><trkpt lat="39.3000631" lon="16.6672996"><ele>1185.0</ele><time>2026-05-03T15:33:48.261Z</time></trkpt><trkpt lat="39.2999227" lon="16.6673874"><ele>1185.0</ele><time>2026-05-03T15:33:49.285Z</time></trkpt><trkpt lat="39.2997864" lon="16.6674751"><ele>1185.0</ele><time>2026-05-03T15:33:50.263Z</time></trkpt><trkpt lat="39.2996514" lon="16.6675708"><ele>1185.6666666666667</ele><time>2026-05-03T15:33:51.26Z</time></trkpt><trkpt lat="39.2995388" lon="16.667714"><ele>1186.3333333333335</ele><time>2026-05-03T15:33:52.264Z</time></trkpt><trkpt lat="39.2994373" lon="16.6678818"><ele>1187.0</ele><time>2026-05-03T15:33:53.262Z</time></trkpt><trkpt lat="39.299332" lon="16.668059"><ele>1187.0</ele><time>2026-05-03T15:33:54.281Z</time></trkpt><trkpt lat="39.2992097" lon="16.6682167"><ele>1187.0</ele><time>2026-05-03T15:33:55.261Z</time></trkpt><trkpt lat="39.2990638" lon="16.6683629"><ele>1187.0</ele><time>2026-05-03T15:33:56.262Z</time></trkpt><trkpt lat="39.2989066" lon="16.6685119"><ele>1187.0</ele><time>2026-05-03T15:33:57.265Z</time></trkpt><trkpt lat="39.2987405" lon="16.6686652"><ele>1187.0</ele><time>2026-05-03T15:33:58.266Z</time></trkpt><trkpt lat="39.298569" lon="16.6688209"><ele>1187.0</ele><time>2026-05-03T15:33:59.257Z</time></trkpt><trkpt lat="39.2983976" lon="16.6689789"><ele>1187.0</ele><time>2026-05-03T15:34:00.295Z</time></trkpt><trkpt lat="39.2982517" lon="16.6691126"><ele>1187.0</ele><time>2026-05-03T15:34:01.26Z</time></trkpt><trkpt lat="39.2981289" lon="16.6692156"><ele>1187.0</ele><time>2026-05-03T15:34:02.262Z</time></trkpt><trkpt lat="39.298022" lon="16.6692914"><ele>1187.0</ele><time>2026-05-03T15:34:03.262Z</time></trkpt><trkpt lat="39.2979097" lon="16.6693525"><ele>1189.75</ele><time>2026-05-03T15:34:04.267Z</time></trkpt><trkpt lat="39.2977907" lon="16.6693925"><ele>1192.5</ele><time>2026-05-03T15:34:05.264Z</time></trkpt><trkpt lat="39.2976709" lon="16.6694219"><ele>1195.25</ele><time>2026-05-03T15:34:06.263Z</time></trkpt><trkpt lat="39.2975586" lon="16.6694627"><ele>1198.0</ele><time>2026-05-03T15:34:07.259Z</time></trkpt><trkpt lat="39.2974606" lon="16.6695322"><ele>1198.0</ele><time>2026-05-03T15:34:08.27Z</time></trkpt><trkpt lat="39.2973816" lon="16.6696267"><ele>1198.0</ele><time>2026-05-03T15:34:09.265Z</time></trkpt><trkpt lat="39.2973659" lon="16.6697646"><ele>1198.0</ele><time>2026-05-03T15:34:10.263Z</time></trkpt><trkpt lat="39.2974014" lon="16.6699017"><ele>1198.0</ele><time>2026-05-03T15:34:11.278Z</time></trkpt><trkpt lat="39.297491" lon="16.6700429"><ele>1198.0</ele><time>2026-05-03T15:34:12.261Z</time></trkpt><trkpt lat="39.2975934" lon="16.670195"><ele>1198.0</ele><time>2026-05-03T15:34:13.259Z</time></trkpt><trkpt lat="39.2977092" lon="16.6703763"><ele>1198.0</ele><time>2026-05-03T15:34:14.258Z</time></trkpt><trkpt lat="39.2978166" lon="16.6705641"><ele>1201.0</ele><time>2026-05-03T15:34:15.26Z</time></trkpt><trkpt lat="39.2979256" lon="16.6707385"><ele>1204.0</ele><time>2026-05-03T15:34:16.253Z</time></trkpt><trkpt lat="39.2980261" lon="16.6709054"><ele>1207.0</ele><time>2026-05-03T15:34:17.26Z</time></trkpt><trkpt lat="39.2981109" lon="16.671077"><ele>1203.75</ele><time>2026-05-03T15:34:18.262Z</time></trkpt><trkpt lat="39.2981723" lon="16.6712661"><ele>1200.5</ele><time>2026-05-03T15:34:19.258Z</time></trkpt><trkpt lat="39.2982303" lon="16.671457"><ele>1197.25</ele><time>2026-05-03T15:34:20.277Z</time></trkpt><trkpt lat="39.2982697" lon="16.6716113"><ele>1194.0</ele><time>2026-05-03T15:34:21.263Z</time></trkpt><trkpt lat="39.2982929" lon="16.6717346"><ele>1194.0</ele><time>2026-05-03T15:34:22.26Z</time></trkpt><trkpt lat="39.2982734" lon="16.6718443"><ele>1194.0</ele><time>2026-05-03T15:34:23.263Z</time></trkpt><trkpt lat="39.2982025" lon="16.6719613"><ele>1194.0</ele><time>2026-05-03T15:34:24.262Z</time></trkpt><trkpt lat="39.2980948" lon="16.6720935"><ele>1194.0</ele><time>2026-05-03T15:34:25.263Z</time></trkpt><trkpt lat="39.2979835" lon="16.6722389"><ele>1197.0</ele><time>2026-05-03T15:34:26.267Z</time></trkpt><trkpt lat="39.2978657" lon="16.6723968"><ele>1200.0</ele><time>2026-05-03T15:34:27.261Z</time></trkpt><trkpt lat="39.2977414" lon="16.6725725"><ele>1203.0</ele><time>2026-05-03T15:34:28.28Z</time></trkpt><trkpt lat="39.2976152" lon="16.6727582"><ele>1199.6666666666667</ele><time>2026-05-03T15:34:29.259Z</time></trkpt><trkpt lat="39.2974883" lon="16.6729491"><ele>1196.3333333333335</ele><time>2026-05-03T15:34:30.3Z</time></trkpt><trkpt lat="39.2973735" lon="16.6731183"><ele>1193.0</ele><time>2026-05-03T15:34:31.266Z</time></trkpt><trkpt lat="39.2972598" lon="16.6732588"><ele>1196.0</ele><time>2026-05-03T15:34:32.266Z</time></trkpt><trkpt lat="39.2971309" lon="16.6733365"><ele>1199.0</ele><time>2026-05-03T15:34:33.259Z</time></trkpt><trkpt lat="39.2970021" lon="16.6733727"><ele>1202.0</ele><time>2026-05-03T15:34:34.261Z</time></trkpt><trkpt lat="39.2968745" lon="16.6733689"><ele>1205.0</ele><time>2026-05-03T15:34:35.28Z</time></trkpt><trkpt lat="39.2967624" lon="16.6733027"><ele>1205.0</ele><time>2026-05-03T15:34:36.259Z</time></trkpt><trkpt lat="39.2966516" lon="16.6731916"><ele>1205.0</ele><time>2026-05-03T15:34:37.257Z</time></trkpt><trkpt lat="39.2965377" lon="16.6730893"><ele>1205.0</ele><time>2026-05-03T15:34:38.259Z</time></trkpt><trkpt lat="39.2964023" lon="16.6730388"><ele>1205.0</ele><time>2026-05-03T15:34:39.261Z</time></trkpt><trkpt lat="39.2962375" lon="16.6730196"><ele>1206.0</ele><time>2026-05-03T15:34:40.256Z</time></trkpt><trkpt lat="39.2960578" lon="16.6730044"><ele>1207.0</ele><time>2026-05-03T15:34:41.262Z</time></trkpt><trkpt lat="39.2958694" lon="16.6729935"><ele>1208.0</ele><time>2026-05-03T15:34:42.257Z</time></trkpt><trkpt lat="39.2956887" lon="16.6729821"><ele>1210.0</ele><time>2026-05-03T15:34:43.266Z</time></trkpt><trkpt lat="39.2955429" lon="16.67299"><ele>1212.0</ele><time>2026-05-03T15:34:44.264Z</time></trkpt><trkpt lat="39.2954389" lon="16.6730533"><ele>1214.0</ele><time>2026-05-03T15:34:45.265Z</time></trkpt><trkpt lat="39.2953336" lon="16.6731977"><ele>1216.0</ele><time>2026-05-03T15:34:46.298Z</time></trkpt><trkpt lat="39.2952614" lon="16.6733811"><ele>1216.0</ele><time>2026-05-03T15:34:47.26Z</time></trkpt><trkpt lat="39.2951922" lon="16.673592"><ele>1216.0</ele><time>2026-05-03T15:34:48.264Z</time></trkpt><trkpt lat="39.2951288" lon="16.6738262"><ele>1216.0</ele><time>2026-05-03T15:34:49.261Z</time></trkpt><trkpt lat="39.295057" lon="16.6740839"><ele>1214.3333333333333</ele><time>2026-05-03T15:34:50.267Z</time></trkpt><trkpt lat="39.2949836" lon="16.6743397"><ele>1212.6666666666667</ele><time>2026-05-03T15:34:51.264Z</time></trkpt><trkpt lat="39.2949059" lon="16.6745598"><ele>1211.0</ele><time>2026-05-03T15:34:52.287Z</time></trkpt><trkpt lat="39.2948326" lon="16.6747398"><ele>1211.25</ele><time>2026-05-03T15:34:53.271Z</time></trkpt><trkpt lat="39.2947587" lon="16.6748925"><ele>1211.5</ele><time>2026-05-03T15:34:54.265Z</time></trkpt><trkpt lat="39.2946865" lon="16.6750218"><ele>1211.75</ele><time>2026-05-03T15:34:55.269Z</time></trkpt><trkpt lat="39.2946009" lon="16.6751349"><ele>1212.0</ele><time>2026-05-03T15:34:56.269Z</time></trkpt><trkpt lat="39.2945051" lon="16.6752139"><ele>1212.0</ele><time>2026-05-03T15:34:57.284Z</time></trkpt><trkpt lat="39.2944124" lon="16.6752576"><ele>1212.0</ele><time>2026-05-03T15:34:58.263Z</time></trkpt><trkpt lat="39.2943217" lon="16.6752642"><ele>1212.0</ele><time>2026-05-03T15:34:59.267Z</time></trkpt><trkpt lat="39.2942437" lon="16.6752518"><ele>1212.0</ele><time>2026-05-03T15:35:00.263Z</time></trkpt><trkpt lat="39.2941789" lon="16.6752307"><ele>1212.0</ele><time>2026-05-03T15:35:01.264Z</time></trkpt><trkpt lat="39.2940717" lon="16.6751686"><ele>1212.0</ele><time>2026-05-03T15:35:03.259Z</time></trkpt><trkpt lat="39.2939842" lon="16.6750578"><ele>1212.0</ele><time>2026-05-03T15:35:05.26Z</time></trkpt><trkpt lat="39.2939443" lon="16.6749686"><ele>1212.0</ele><time>2026-05-03T15:35:06.265Z</time></trkpt><trkpt lat="39.2939111" lon="16.6748401"><ele>1212.0</ele><time>2026-05-03T15:35:07.261Z</time></trkpt><trkpt lat="39.2938765" lon="16.6746697"><ele>1212.0</ele><time>2026-05-03T15:35:08.288Z</time></trkpt><trkpt lat="39.2938475" lon="16.6744832"><ele>1210.0</ele><time>2026-05-03T15:35:09.26Z</time></trkpt><trkpt lat="39.2938241" lon="16.6742883"><ele>1208.0</ele><time>2026-05-03T15:35:10.259Z</time></trkpt><trkpt lat="39.2938014" lon="16.6740967"><ele>1206.0</ele><time>2026-05-03T15:35:11.265Z</time></trkpt><trkpt lat="39.2937929" lon="16.6739248"><ele>1204.0</ele><time>2026-05-03T15:35:12.26Z</time></trkpt><trkpt lat="39.2938119" lon="16.6737586"><ele>1204.25</ele><time>2026-05-03T15:35:13.261Z</time></trkpt><trkpt lat="39.2938713" lon="16.6736041"><ele>1204.5</ele><time>2026-05-03T15:35:14.261Z</time></trkpt><trkpt lat="39.2939409" lon="16.673451"><ele>1204.75</ele><time>2026-05-03T15:35:15.263Z</time></trkpt><trkpt lat="39.294002" lon="16.6732941"><ele>1205.0</ele><time>2026-05-03T15:35:16.259Z</time></trkpt><trkpt lat="39.2940365" lon="16.6731232"><ele>1207.75</ele><time>2026-05-03T15:35:17.301Z</time></trkpt><trkpt lat="39.294058" lon="16.6729549"><ele>1210.5</ele><time>2026-05-03T15:35:18.265Z</time></trkpt><trkpt lat="39.2940381" lon="16.6727606"><ele>1213.25</ele><time>2026-05-03T15:35:19.259Z</time></trkpt><trkpt lat="39.2940074" lon="16.6725844"><ele>1216.0</ele><time>2026-05-03T15:35:20.257Z</time></trkpt><trkpt lat="39.2939468" lon="16.6724294"><ele>1217.5</ele><time>2026-05-03T15:35:21.258Z</time></trkpt><trkpt lat="39.2938713" lon="16.6722864"><ele>1219.0</ele><time>2026-05-03T15:35:22.269Z</time></trkpt><trkpt lat="39.2937543" lon="16.6722237"><ele>1220.5</ele><time>2026-05-03T15:35:23.265Z</time></trkpt><trkpt lat="39.2936342" lon="16.6722254"><ele>1222.0</ele><time>2026-05-03T15:35:24.266Z</time></trkpt><trkpt lat="39.293505" lon="16.6723259"><ele>1222.0</ele><time>2026-05-03T15:35:25.264Z</time></trkpt><trkpt lat="39.2934336" lon="16.6724804"><ele>1222.0</ele><time>2026-05-03T15:35:26.261Z</time></trkpt><trkpt lat="39.2933602" lon="16.6726139"><ele>1222.0</ele><time>2026-05-03T15:35:27.263Z</time></trkpt><trkpt lat="39.29328" lon="16.6727532"><ele>1222.0</ele><time>2026-05-03T15:35:28.261Z</time></trkpt><trkpt lat="39.2931788" lon="16.6728991"><ele>1225.0</ele><time>2026-05-03T15:35:29.28Z</time></trkpt><trkpt lat="39.2930507" lon="16.6730228"><ele>1228.0</ele><time>2026-05-03T15:35:30.269Z</time></trkpt><trkpt lat="39.2929133" lon="16.6731434"><ele>1231.0</ele><time>2026-05-03T15:35:31.271Z</time></trkpt><trkpt lat="39.2927707" lon="16.6732927"><ele>1231.0</ele><time>2026-05-03T15:35:32.262Z</time></trkpt><trkpt lat="39.2926335" lon="16.6734736"><ele>1231.0</ele><time>2026-05-03T15:35:33.264Z</time></trkpt><trkpt lat="39.2924909" lon="16.6736732"><ele>1231.0</ele><time>2026-05-03T15:35:34.27Z</time></trkpt><trkpt lat="39.2923377" lon="16.6738732"><ele>1225.5</ele><time>2026-05-03T15:35:35.268Z</time></trkpt><trkpt lat="39.2921912" lon="16.6741032"><ele>1220.0</ele><time>2026-05-03T15:35:36.278Z</time></trkpt><trkpt lat="39.2920414" lon="16.6743188"><ele>1213.3333333333335</ele><time>2026-05-03T15:35:37.265Z</time></trkpt><trkpt lat="39.2919171" lon="16.6745252"><ele>1206.6666666666667</ele><time>2026-05-03T15:35:38.264Z</time></trkpt><trkpt lat="39.291792" lon="16.6747275"><ele>1200.0</ele><time>2026-05-03T15:35:39.263Z</time></trkpt><trkpt lat="39.2916992" lon="16.6749229"><ele>1200.0</ele><time>2026-05-03T15:35:40.26Z</time></trkpt><trkpt lat="39.2916257" lon="16.6750934"><ele>1200.0</ele><time>2026-05-03T15:35:41.253Z</time></trkpt><trkpt lat="39.2915617" lon="16.6752432"><ele>1200.0</ele><time>2026-05-03T15:35:42.256Z</time></trkpt><trkpt lat="39.2915427" lon="16.6754047"><ele>1200.0</ele><time>2026-05-03T15:35:43.264Z</time></trkpt><trkpt lat="39.2915768" lon="16.6755815"><ele>1201.0</ele><time>2026-05-03T15:35:44.262Z</time></trkpt><trkpt lat="39.2916152" lon="16.6757506"><ele>1202.0</ele><time>2026-05-03T15:35:45.267Z</time></trkpt><trkpt lat="39.2916736" lon="16.6759574"><ele>1203.0</ele><time>2026-05-03T15:35:46.261Z</time></trkpt><trkpt lat="39.2917038" lon="16.6761652"><ele>1203.0</ele><time>2026-05-03T15:35:47.273Z</time></trkpt><trkpt lat="39.2916644" lon="16.676393"><ele>1203.0</ele><time>2026-05-03T15:35:48.26Z</time></trkpt><trkpt lat="39.2916468" lon="16.6766515"><ele>1203.0</ele><time>2026-05-03T15:35:49.266Z</time></trkpt><trkpt lat="39.2916425" lon="16.6769056"><ele>1202.6666666666667</ele><time>2026-05-03T15:35:50.258Z</time></trkpt><trkpt lat="39.2916229" lon="16.6771825"><ele>1202.3333333333335</ele><time>2026-05-03T15:35:51.261Z</time></trkpt><trkpt lat="39.291595" lon="16.6774738"><ele>1202.0</ele><time>2026-05-03T15:35:52.277Z</time></trkpt><trkpt lat="39.2915588" lon="16.6777549"><ele>1203.3333333333335</ele><time>2026-05-03T15:35:53.266Z</time></trkpt><trkpt lat="39.2915365" lon="16.6780407"><ele>1204.6666666666667</ele><time>2026-05-03T15:35:54.259Z</time></trkpt><trkpt lat="39.2915177" lon="16.6783155"><ele>1206.0</ele><time>2026-05-03T15:35:55.26Z</time></trkpt><trkpt lat="39.2914998" lon="16.678553"><ele>1205.25</ele><time>2026-05-03T15:35:56.262Z</time></trkpt><trkpt lat="39.2914739" lon="16.6787891"><ele>1204.5</ele><time>2026-05-03T15:35:57.277Z</time></trkpt><trkpt lat="39.2914564" lon="16.6789536"><ele>1203.75</ele><time>2026-05-03T15:35:58.261Z</time></trkpt><trkpt lat="39.2914124" lon="16.6790829"><ele>1203.0</ele><time>2026-05-03T15:35:59.266Z</time></trkpt><trkpt lat="39.2913395" lon="16.6791968"><ele>1203.0</ele><time>2026-05-03T15:36:00.264Z</time></trkpt><trkpt lat="39.2912371" lon="16.6792438"><ele>1203.0</ele><time>2026-05-03T15:36:01.26Z</time></trkpt><trkpt lat="39.2911348" lon="16.6792384"><ele>1203.0</ele><time>2026-05-03T15:36:02.256Z</time></trkpt><trkpt lat="39.29103" lon="16.6792192"><ele>1203.0</ele><time>2026-05-03T15:36:03.26Z</time></trkpt><trkpt lat="39.2909182" lon="16.6791245"><ele>1203.0</ele><time>2026-05-03T15:36:04.257Z</time></trkpt><trkpt lat="39.2907962" lon="16.6791099"><ele>1203.0</ele><time>2026-05-03T15:36:05.262Z</time></trkpt><trkpt lat="39.2906682" lon="16.6791142"><ele>1203.0</ele><time>2026-05-03T15:36:06.258Z</time></trkpt><trkpt lat="39.2905427" lon="16.6791393"><ele>1203.0</ele><time>2026-05-03T15:36:07.256Z</time></trkpt><trkpt lat="39.2904456" lon="16.6792579"><ele>1202.6666666666667</ele><time>2026-05-03T15:36:08.257Z</time></trkpt><trkpt lat="39.2903356" lon="16.6793895"><ele>1202.3333333333335</ele><time>2026-05-03T15:36:09.257Z</time></trkpt><trkpt lat="39.2902267" lon="16.6795314"><ele>1202.0</ele><time>2026-05-03T15:36:10.256Z</time></trkpt><trkpt lat="39.2901297" lon="16.6797068"><ele>1202.0</ele><time>2026-05-03T15:36:11.279Z</time></trkpt><trkpt lat="39.2900791" lon="16.6799441"><ele>1202.0</ele><time>2026-05-03T15:36:12.26Z</time></trkpt><trkpt lat="39.2900455" lon="16.6801943"><ele>1202.0</ele><time>2026-05-03T15:36:13.261Z</time></trkpt><trkpt lat="39.2900351" lon="16.6804278"><ele>1200.25</ele><time>2026-05-03T15:36:14.259Z</time></trkpt><trkpt lat="39.2900322" lon="16.6806584"><ele>1198.5</ele><time>2026-05-03T15:36:15.256Z</time></trkpt><trkpt lat="39.2900046" lon="16.680826"><ele>1196.75</ele><time>2026-05-03T15:36:16.272Z</time></trkpt><trkpt lat="39.2899422" lon="16.680971"><ele>1195.0</ele><time>2026-05-03T15:36:17.262Z</time></trkpt><trkpt lat="39.2898739" lon="16.6811049"><ele>1192.0</ele><time>2026-05-03T15:36:18.256Z</time></trkpt><trkpt lat="39.2897581" lon="16.6812025"><ele>1189.0</ele><time>2026-05-03T15:36:19.258Z</time></trkpt><trkpt lat="39.2896358" lon="16.6812617"><ele>1186.0</ele><time>2026-05-03T15:36:20.262Z</time></trkpt><trkpt lat="39.2895039" lon="16.6812876"><ele>1183.0</ele><time>2026-05-03T15:36:21.262Z</time></trkpt><trkpt lat="39.2893583" lon="16.6812593"><ele>1183.0</ele><time>2026-05-03T15:36:22.262Z</time></trkpt><trkpt lat="39.2892224" lon="16.6811932"><ele>1183.0</ele><time>2026-05-03T15:36:23.262Z</time></trkpt><trkpt lat="39.2890816" lon="16.6810989"><ele>1183.0</ele><time>2026-05-03T15:36:24.262Z</time></trkpt><trkpt lat="39.2889511" lon="16.6810231"><ele>1183.0</ele><time>2026-05-03T15:36:25.266Z</time></trkpt><trkpt lat="39.2888213" lon="16.6809774"><ele>1187.0</ele><time>2026-05-03T15:36:26.255Z</time></trkpt><trkpt lat="39.2886963" lon="16.6809787"><ele>1191.0</ele><time>2026-05-03T15:36:27.277Z</time></trkpt><trkpt lat="39.2885862" lon="16.6810417"><ele>1195.0</ele><time>2026-05-03T15:36:28.258Z</time></trkpt><trkpt lat="39.288504" lon="16.681152"><ele>1199.0</ele><time>2026-05-03T15:36:29.262Z</time></trkpt><trkpt lat="39.2884531" lon="16.6813076"><ele>1199.0</ele><time>2026-05-03T15:36:30.257Z</time></trkpt><trkpt lat="39.2884223" lon="16.6814998"><ele>1199.0</ele><time>2026-05-03T15:36:31.26Z</time></trkpt><trkpt lat="39.2883962" lon="16.6817157"><ele>1199.0</ele><time>2026-05-03T15:36:32.258Z</time></trkpt><trkpt lat="39.2883595" lon="16.6819546"><ele>1193.6666666666667</ele><time>2026-05-03T15:36:33.263Z</time></trkpt><trkpt lat="39.2883008" lon="16.6822026"><ele>1188.3333333333333</ele><time>2026-05-03T15:36:34.257Z</time></trkpt><trkpt lat="39.2882251" lon="16.6824583"><ele>1183.0</ele><time>2026-05-03T15:36:35.26Z</time></trkpt><trkpt lat="39.2881477" lon="16.6827093"><ele>1186.6666666666665</ele><time>2026-05-03T15:36:36.258Z</time></trkpt><trkpt lat="39.2880677" lon="16.682941"><ele>1190.3333333333333</ele><time>2026-05-03T15:36:37.275Z</time></trkpt><trkpt lat="39.2879747" lon="16.6831515"><ele>1194.0</ele><time>2026-05-03T15:36:38.261Z</time></trkpt><trkpt lat="39.2878639" lon="16.683335"><ele>1194.0</ele><time>2026-05-03T15:36:39.259Z</time></trkpt><trkpt lat="39.287743" lon="16.6834949"><ele>1194.0</ele><time>2026-05-03T15:36:40.266Z</time></trkpt><trkpt lat="39.287613" lon="16.6836271"><ele>1194.0</ele><time>2026-05-03T15:36:41.261Z</time></trkpt><trkpt lat="39.2874641" lon="16.6837071"><ele>1184.3333333333333</ele><time>2026-05-03T15:36:42.273Z</time></trkpt><trkpt lat="39.2872941" lon="16.6837279"><ele>1174.6666666666665</ele><time>2026-05-03T15:36:43.268Z</time></trkpt><trkpt lat="39.2871059" lon="16.6837368"><ele>1165.0</ele><time>2026-05-03T15:36:44.26Z</time></trkpt><trkpt lat="39.2869122" lon="16.6837848"><ele>1165.0</ele><time>2026-05-03T15:36:45.261Z</time></trkpt><trkpt lat="39.2867208" lon="16.6838812"><ele>1165.0</ele><time>2026-05-03T15:36:46.26Z</time></trkpt><trkpt lat="39.2865331" lon="16.6839813"><ele>1165.0</ele><time>2026-05-03T15:36:47.262Z</time></trkpt><trkpt lat="39.2863418" lon="16.6840596"><ele>1167.3333333333333</ele><time>2026-05-03T15:36:48.264Z</time></trkpt><trkpt lat="39.2861522" lon="16.6841206"><ele>1169.6666666666667</ele><time>2026-05-03T15:36:49.276Z</time></trkpt><trkpt lat="39.2859719" lon="16.6841622"><ele>1172.0</ele><time>2026-05-03T15:36:50.258Z</time></trkpt><trkpt lat="39.2858053" lon="16.6841665"><ele>1172.0</ele><time>2026-05-03T15:36:51.26Z</time></trkpt><trkpt lat="39.2856408" lon="16.6841242"><ele>1172.0</ele><time>2026-05-03T15:36:52.257Z</time></trkpt><trkpt lat="39.2854782" lon="16.6840578"><ele>1172.0</ele><time>2026-05-03T15:36:53.261Z</time></trkpt><trkpt lat="39.2853112" lon="16.6839995"><ele>1169.3333333333335</ele><time>2026-05-03T15:36:54.26Z</time></trkpt><trkpt lat="39.2851303" lon="16.6839895"><ele>1166.6666666666667</ele><time>2026-05-03T15:36:55.297Z</time></trkpt><trkpt lat="39.2849469" lon="16.6840293"><ele>1164.0</ele><time>2026-05-03T15:36:56.26Z</time></trkpt><trkpt lat="39.2847732" lon="16.6840923"><ele>1166.3333333333333</ele><time>2026-05-03T15:36:57.262Z</time></trkpt><trkpt lat="39.2846094" lon="16.6841681"><ele>1168.6666666666665</ele><time>2026-05-03T15:36:58.257Z</time></trkpt><trkpt lat="39.2844426" lon="16.6842266"><ele>1171.0</ele><time>2026-05-03T15:36:59.263Z</time></trkpt><trkpt lat="39.2842697" lon="16.6842562"><ele>1171.0</ele><time>2026-05-03T15:37:00.261Z</time></trkpt><trkpt lat="39.2840981" lon="16.6842636"><ele>1171.0</ele><time>2026-05-03T15:37:01.257Z</time></trkpt><trkpt lat="39.2839419" lon="16.6842804"><ele>1171.0</ele><time>2026-05-03T15:37:02.259Z</time></trkpt><trkpt lat="39.2838025" lon="16.6843361"><ele>1170.75</ele><time>2026-05-03T15:37:03.26Z</time></trkpt><trkpt lat="39.2836838" lon="16.6844259"><ele>1170.5</ele><time>2026-05-03T15:37:04.257Z</time></trkpt><trkpt lat="39.283583" lon="16.6845313"><ele>1170.25</ele><time>2026-05-03T15:37:05.278Z</time></trkpt><trkpt lat="39.2834872" lon="16.6846221"><ele>1170.0</ele><time>2026-05-03T15:37:06.261Z</time></trkpt><trkpt lat="39.283399" lon="16.6846924"><ele>1170.0</ele><time>2026-05-03T15:37:07.264Z</time></trkpt><trkpt lat="39.2833127" lon="16.6847533"><ele>1170.0</ele><time>2026-05-03T15:37:08.264Z</time></trkpt><trkpt lat="39.2832345" lon="16.6848198"><ele>1170.0</ele><time>2026-05-03T15:37:09.26Z</time></trkpt><trkpt lat="39.2831696" lon="16.6848976"><ele>1170.0</ele><time>2026-05-03T15:37:10.261Z</time></trkpt><trkpt lat="39.283102" lon="16.6849299"><ele>1170.0</ele><time>2026-05-03T15:37:11.258Z</time></trkpt><trkpt lat="39.2829688" lon="16.6848947"><ele>1167.75</ele><time>2026-05-03T15:37:13.26Z</time></trkpt><trkpt lat="39.282871" lon="16.6849379"><ele>1165.5</ele><time>2026-05-03T15:37:14.293Z</time></trkpt><trkpt lat="39.2827578" lon="16.684992"><ele>1163.25</ele><time>2026-05-03T15:37:15.262Z</time></trkpt><trkpt lat="39.2826465" lon="16.68504"><ele>1161.0</ele><time>2026-05-03T15:37:16.265Z</time></trkpt><trkpt lat="39.2825377" lon="16.6850547"><ele>1161.0</ele><time>2026-05-03T15:37:17.266Z</time></trkpt><trkpt lat="39.2824304" lon="16.6850682"><ele>1161.0</ele><time>2026-05-03T15:37:18.261Z</time></trkpt><trkpt lat="39.2823117" lon="16.685065"><ele>1161.0</ele><time>2026-05-03T15:37:19.284Z</time></trkpt><trkpt lat="39.2821919" lon="16.6850584"><ele>1161.0</ele><time>2026-05-03T15:37:20.258Z</time></trkpt><trkpt lat="39.2820696" lon="16.6850368"><ele>1157.25</ele><time>2026-05-03T15:37:21.257Z</time></trkpt><trkpt lat="39.2819465" lon="16.6850135"><ele>1153.5</ele><time>2026-05-03T15:37:22.264Z</time></trkpt><trkpt lat="39.2818251" lon="16.6849941"><ele>1149.75</ele><time>2026-05-03T15:37:23.268Z</time></trkpt><trkpt lat="39.2817053" lon="16.6849905"><ele>1146.0</ele><time>2026-05-03T15:37:24.265Z</time></trkpt><trkpt lat="39.2815898" lon="16.6850277"><ele>1146.0</ele><time>2026-05-03T15:37:25.268Z</time></trkpt><trkpt lat="39.2814723" lon="16.6850649"><ele>1146.0</ele><time>2026-05-03T15:37:26.269Z</time></trkpt><trkpt lat="39.2813473" lon="16.6850864"><ele>1146.0</ele><time>2026-05-03T15:37:27.27Z</time></trkpt><trkpt lat="39.2812239" lon="16.6850995"><ele>1146.0</ele><time>2026-05-03T15:37:28.269Z</time></trkpt><trkpt lat="39.2811074" lon="16.685144"><ele>1145.2</ele><time>2026-05-03T15:37:29.261Z</time></trkpt><trkpt lat="39.2810002" lon="16.6852074"><ele>1144.3999999999999</ele><time>2026-05-03T15:37:30.264Z</time></trkpt><trkpt lat="39.2808939" lon="16.6852668"><ele>1143.6</ele><time>2026-05-03T15:37:31.26Z</time></trkpt><trkpt lat="39.2807978" lon="16.6852952"><ele>1142.8</ele><time>2026-05-03T15:37:32.262Z</time></trkpt><trkpt lat="39.2807075" lon="16.6852833"><ele>1142.0</ele><time>2026-05-03T15:37:33.265Z</time></trkpt><trkpt lat="39.2806251" lon="16.6852377"><ele>1139.4</ele><time>2026-05-03T15:37:34.269Z</time></trkpt><trkpt lat="39.2805387" lon="16.6851985"><ele>1136.8000000000002</ele><time>2026-05-03T15:37:35.266Z</time></trkpt><trkpt lat="39.2804505" lon="16.6851702"><ele>1134.2</ele><time>2026-05-03T15:37:36.268Z</time></trkpt><trkpt lat="39.2803554" lon="16.6851636"><ele>1131.6000000000001</ele><time>2026-05-03T15:37:37.262Z</time></trkpt><trkpt lat="39.2802465" lon="16.6851741"><ele>1129.0</ele><time>2026-05-03T15:37:38.275Z</time></trkpt><trkpt lat="39.2801272" lon="16.6852027"><ele>1129.0</ele><time>2026-05-03T15:37:39.269Z</time></trkpt><trkpt lat="39.2799989" lon="16.6852455"><ele>1129.0</ele><time>2026-05-03T15:37:40.268Z</time></trkpt><trkpt lat="39.2798759" lon="16.6853026"><ele>1129.0</ele><time>2026-05-03T15:37:41.264Z</time></trkpt><trkpt lat="39.2797605" lon="16.6853879"><ele>1129.0</ele><time>2026-05-03T15:37:42.263Z</time></trkpt><trkpt lat="39.2796503" lon="16.6854866"><ele>1129.5</ele><time>2026-05-03T15:37:43.263Z</time></trkpt><trkpt lat="39.2795433" lon="16.6855762"><ele>1130.0</ele><time>2026-05-03T15:37:44.273Z</time></trkpt><trkpt lat="39.2794347" lon="16.6856581"><ele>1130.5</ele><time>2026-05-03T15:37:45.263Z</time></trkpt><trkpt lat="39.2793273" lon="16.685737"><ele>1131.0</ele><time>2026-05-03T15:37:46.263Z</time></trkpt><trkpt lat="39.2792286" lon="16.6858183"><ele>1131.0</ele><time>2026-05-03T15:37:47.26Z</time></trkpt><trkpt lat="39.279147" lon="16.6859236"><ele>1131.0</ele><time>2026-05-03T15:37:48.265Z</time></trkpt><trkpt lat="39.2790763" lon="16.6860357"><ele>1131.0</ele><time>2026-05-03T15:37:49.269Z</time></trkpt><trkpt lat="39.2790144" lon="16.6861778"><ele>1131.0</ele><time>2026-05-03T15:37:50.268Z</time></trkpt><trkpt lat="39.2789346" lon="16.6862884"><ele>1129.25</ele><time>2026-05-03T15:37:51.28Z</time></trkpt><trkpt lat="39.278831" lon="16.6863758"><ele>1127.5</ele><time>2026-05-03T15:37:52.267Z</time></trkpt><trkpt lat="39.2787302" lon="16.6864661"><ele>1125.75</ele><time>2026-05-03T15:37:53.267Z</time></trkpt><trkpt lat="39.2786275" lon="16.6865685"><ele>1124.0</ele><time>2026-05-03T15:37:54.26Z</time></trkpt><trkpt lat="39.2785174" lon="16.6866758"><ele>1124.0</ele><time>2026-05-03T15:37:55.266Z</time></trkpt><trkpt lat="39.2784028" lon="16.6867658"><ele>1124.0</ele><time>2026-05-03T15:37:56.267Z</time></trkpt><trkpt lat="39.2782804" lon="16.6868316"><ele>1124.0</ele><time>2026-05-03T15:37:57.261Z</time></trkpt><trkpt lat="39.2781536" lon="16.6868854"><ele>1124.0</ele><time>2026-05-03T15:37:58.298Z</time></trkpt><trkpt lat="39.2780386" lon="16.6869257"><ele>1122.2</ele><time>2026-05-03T15:37:59.26Z</time></trkpt><trkpt lat="39.2779504" lon="16.6869522"><ele>1120.4</ele><time>2026-05-03T15:38:00.269Z</time></trkpt><trkpt lat="39.2778582" lon="16.6869542"><ele>1118.6</ele><time>2026-05-03T15:38:01.27Z</time></trkpt><trkpt lat="39.2777642" lon="16.686948"><ele>1116.8</ele><time>2026-05-03T15:38:02.263Z</time></trkpt><trkpt lat="39.2776639" lon="16.6869141"><ele>1115.0</ele><time>2026-05-03T15:38:03.282Z</time></trkpt><trkpt lat="39.2775516" lon="16.686876"><ele>1114.25</ele><time>2026-05-03T15:38:04.261Z</time></trkpt><trkpt lat="39.2774255" lon="16.6868422"><ele>1113.5</ele><time>2026-05-03T15:38:05.263Z</time></trkpt><trkpt lat="39.2772885" lon="16.6868091"><ele>1112.75</ele><time>2026-05-03T15:38:06.262Z</time></trkpt><trkpt lat="39.2771458" lon="16.6867752"><ele>1112.0</ele><time>2026-05-03T15:38:07.269Z</time></trkpt><trkpt lat="39.276996" lon="16.6867442"><ele>1108.25</ele><time>2026-05-03T15:38:08.265Z</time></trkpt><trkpt lat="39.2768467" lon="16.6867147"><ele>1104.5</ele><time>2026-05-03T15:38:09.266Z</time></trkpt><trkpt lat="39.2767022" lon="16.6866869"><ele>1100.75</ele><time>2026-05-03T15:38:10.265Z</time></trkpt><trkpt lat="39.2765588" lon="16.6866581"><ele>1097.0</ele><time>2026-05-03T15:38:11.263Z</time></trkpt><trkpt lat="39.2764201" lon="16.6866356"><ele>1095.4</ele><time>2026-05-03T15:38:12.263Z</time></trkpt><trkpt lat="39.2762878" lon="16.6866127"><ele>1093.8000000000002</ele><time>2026-05-03T15:38:13.284Z</time></trkpt><trkpt lat="39.2761698" lon="16.6865907"><ele>1092.2</ele><time>2026-05-03T15:38:14.258Z</time></trkpt><trkpt lat="39.2760722" lon="16.686567"><ele>1090.6000000000001</ele><time>2026-05-03T15:38:15.26Z</time></trkpt><trkpt lat="39.2760047" lon="16.6865038"><ele>1089.0</ele><time>2026-05-03T15:38:16.262Z</time></trkpt><trkpt lat="39.2759316" lon="16.6864639"><ele>1089.0</ele><time>2026-05-03T15:38:17.289Z</time></trkpt><trkpt lat="39.2758493" lon="16.6864735"><ele>1089.0</ele><time>2026-05-03T15:38:18.26Z</time></trkpt><trkpt lat="39.275752" lon="16.6865153"><ele>1089.0</ele><time>2026-05-03T15:38:19.276Z</time></trkpt><trkpt lat="39.2756642" lon="16.6865516"><ele>1089.0</ele><time>2026-05-03T15:38:20.261Z</time></trkpt><trkpt lat="39.2755633" lon="16.6865502"><ele>1089.0</ele><time>2026-05-03T15:38:21.263Z</time></trkpt><trkpt lat="39.2754861" lon="16.6864814"><ele>1086.8</ele><time>2026-05-03T15:38:22.264Z</time></trkpt><trkpt lat="39.2754092" lon="16.6864055"><ele>1084.6000000000001</ele><time>2026-05-03T15:38:23.262Z</time></trkpt><trkpt lat="39.2753172" lon="16.6863728"><ele>1082.4</ele><time>2026-05-03T15:38:24.265Z</time></trkpt><trkpt lat="39.2752255" lon="16.6863709"><ele>1080.2</ele><time>2026-05-03T15:38:25.258Z</time></trkpt><trkpt lat="39.2751323" lon="16.6864066"><ele>1078.0</ele><time>2026-05-03T15:38:26.279Z</time></trkpt><trkpt lat="39.2750446" lon="16.6864535"><ele>1078.0</ele><time>2026-05-03T15:38:27.258Z</time></trkpt><trkpt lat="39.2749562" lon="16.686503"><ele>1078.0</ele><time>2026-05-03T15:38:28.26Z</time></trkpt><trkpt lat="39.2748629" lon="16.6865347"><ele>1078.0</ele><time>2026-05-03T15:38:29.265Z</time></trkpt><trkpt lat="39.2747679" lon="16.6865424"><ele>1078.0</ele><time>2026-05-03T15:38:30.262Z</time></trkpt><trkpt lat="39.2746721" lon="16.6865207"><ele>1078.0</ele><time>2026-05-03T15:38:31.279Z</time></trkpt><trkpt lat="39.2745824" lon="16.6864777"><ele>1075.8</ele><time>2026-05-03T15:38:32.26Z</time></trkpt><trkpt lat="39.2744921" lon="16.6864309"><ele>1073.6</ele><time>2026-05-03T15:38:33.259Z</time></trkpt><trkpt lat="39.2743848" lon="16.6864021"><ele>1071.4</ele><time>2026-05-03T15:38:34.257Z</time></trkpt><trkpt lat="39.2742711" lon="16.6863628"><ele>1069.2</ele><time>2026-05-03T15:38:35.259Z</time></trkpt><trkpt lat="39.2741595" lon="16.6863012"><ele>1067.0</ele><time>2026-05-03T15:38:36.276Z</time></trkpt><trkpt lat="39.2740614" lon="16.6862505"><ele>1067.0</ele><time>2026-05-03T15:38:37.261Z</time></trkpt><trkpt lat="39.2739653" lon="16.6862109"><ele>1067.0</ele><time>2026-05-03T15:38:38.262Z</time></trkpt><trkpt lat="39.2738744" lon="16.6862005"><ele>1067.0</ele><time>2026-05-03T15:38:39.265Z</time></trkpt><trkpt lat="39.2737792" lon="16.6862233"><ele>1067.0</ele><time>2026-05-03T15:38:40.261Z</time></trkpt><trkpt lat="39.2736729" lon="16.6862606"><ele>1067.0</ele><time>2026-05-03T15:38:41.284Z</time></trkpt><trkpt lat="39.2735607" lon="16.6863116"><ele>1063.5</ele><time>2026-05-03T15:38:42.265Z</time></trkpt><trkpt lat="39.2734385" lon="16.6863572"><ele>1060.0</ele><time>2026-05-03T15:38:43.261Z</time></trkpt><trkpt lat="39.2733102" lon="16.6863857"><ele>1056.5</ele><time>2026-05-03T15:38:44.264Z</time></trkpt><trkpt lat="39.2731758" lon="16.6863991"><ele>1053.0</ele><time>2026-05-03T15:38:45.268Z</time></trkpt><trkpt lat="39.2730457" lon="16.6864253"><ele>1051.0</ele><time>2026-05-03T15:38:46.259Z</time></trkpt><trkpt lat="39.2729179" lon="16.6864706"><ele>1049.0</ele><time>2026-05-03T15:38:47.284Z</time></trkpt><trkpt lat="39.2727938" lon="16.6865329"><ele>1047.0</ele><time>2026-05-03T15:38:48.259Z</time></trkpt><trkpt lat="39.2726737" lon="16.6866044"><ele>1045.0</ele><time>2026-05-03T15:38:49.261Z</time></trkpt><trkpt lat="39.2725619" lon="16.6866854"><ele>1045.0</ele><time>2026-05-03T15:38:50.262Z</time></trkpt><trkpt lat="39.2724545" lon="16.686764"><ele>1045.0</ele><time>2026-05-03T15:38:51.264Z</time></trkpt><trkpt lat="39.2723565" lon="16.6868406"><ele>1045.0</ele><time>2026-05-03T15:38:52.26Z</time></trkpt><trkpt lat="39.2722571" lon="16.6869242"><ele>1045.0</ele><time>2026-05-03T15:38:53.264Z</time></trkpt><trkpt lat="39.2721637" lon="16.6870155"><ele>1044.5</ele><time>2026-05-03T15:38:54.262Z</time></trkpt><trkpt lat="39.2720757" lon="16.6871212"><ele>1044.0</ele><time>2026-05-03T15:38:55.271Z</time></trkpt><trkpt lat="39.271985" lon="16.6872483"><ele>1043.5</ele><time>2026-05-03T15:38:56.261Z</time></trkpt><trkpt lat="39.2718926" lon="16.6873946"><ele>1043.0</ele><time>2026-05-03T15:38:57.277Z</time></trkpt><trkpt lat="39.2717952" lon="16.6875542"><ele>1043.0</ele><time>2026-05-03T15:38:58.264Z</time></trkpt><trkpt lat="39.2717017" lon="16.6877183"><ele>1043.0</ele><time>2026-05-03T15:38:59.268Z</time></trkpt><trkpt lat="39.2716069" lon="16.6878742"><ele>1043.0</ele><time>2026-05-03T15:39:00.264Z</time></trkpt><trkpt lat="39.2715171" lon="16.6880225"><ele>1042.0</ele><time>2026-05-03T15:39:01.261Z</time></trkpt><trkpt lat="39.271444" lon="16.6881648"><ele>1041.0</ele><time>2026-05-03T15:39:02.293Z</time></trkpt><trkpt lat="39.271383" lon="16.6883107"><ele>1040.0</ele><time>2026-05-03T15:39:03.263Z</time></trkpt><trkpt lat="39.2713291" lon="16.6884753"><ele>1039.0</ele><time>2026-05-03T15:39:04.265Z</time></trkpt><trkpt lat="39.2712855" lon="16.6886564"><ele>1037.25</ele><time>2026-05-03T15:39:05.267Z</time></trkpt><trkpt lat="39.2712467" lon="16.6888302"><ele>1035.5</ele><time>2026-05-03T15:39:06.263Z</time></trkpt><trkpt lat="39.2712089" lon="16.6889923"><ele>1033.75</ele><time>2026-05-03T15:39:07.264Z</time></trkpt><trkpt lat="39.2711659" lon="16.6891448"><ele>1032.0</ele><time>2026-05-03T15:39:08.26Z</time></trkpt><trkpt lat="39.2711093" lon="16.6892829"><ele>1032.0</ele><time>2026-05-03T15:39:09.26Z</time></trkpt><trkpt lat="39.271043" lon="16.6894056"><ele>1032.0</ele><time>2026-05-03T15:39:10.263Z</time></trkpt><trkpt lat="39.2709654" lon="16.6895226"><ele>1032.0</ele><time>2026-05-03T15:39:11.264Z</time></trkpt><trkpt lat="39.270879" lon="16.689635"><ele>1032.0</ele><time>2026-05-03T15:39:12.293Z</time></trkpt><trkpt lat="39.2707922" lon="16.6897482"><ele>1031.0</ele><time>2026-05-03T15:39:13.263Z</time></trkpt><trkpt lat="39.2707012" lon="16.6898619"><ele>1030.0</ele><time>2026-05-03T15:39:14.265Z</time></trkpt><trkpt lat="39.2706037" lon="16.6899754"><ele>1029.0</ele><time>2026-05-03T15:39:15.256Z</time></trkpt><trkpt lat="39.2705052" lon="16.6900878"><ele>1028.0</ele><time>2026-05-03T15:39:16.262Z</time></trkpt><trkpt lat="39.2704136" lon="16.6902043"><ele>1024.25</ele><time>2026-05-03T15:39:17.262Z</time></trkpt><trkpt lat="39.2703279" lon="16.690329"><ele>1020.5</ele><time>2026-05-03T15:39:18.263Z</time></trkpt><trkpt lat="39.2702449" lon="16.6904576"><ele>1016.75</ele><time>2026-05-03T15:39:19.268Z</time></trkpt><trkpt lat="39.270165" lon="16.6905896"><ele>1013.0</ele><time>2026-05-03T15:39:20.265Z</time></trkpt><trkpt lat="39.2700804" lon="16.6907161"><ele>1013.0</ele><time>2026-05-03T15:39:21.264Z</time></trkpt><trkpt lat="39.2699887" lon="16.6908345"><ele>1013.0</ele><time>2026-05-03T15:39:22.261Z</time></trkpt><trkpt lat="39.2698918" lon="16.6909439"><ele>1013.0</ele><time>2026-05-03T15:39:23.261Z</time></trkpt><trkpt lat="39.2697932" lon="16.6910525"><ele>1013.0</ele><time>2026-05-03T15:39:24.259Z</time></trkpt><trkpt lat="39.2696939" lon="16.6911597"><ele>1010.0</ele><time>2026-05-03T15:39:25.288Z</time></trkpt><trkpt lat="39.2695883" lon="16.6912561"><ele>1007.0</ele><time>2026-05-03T15:39:26.257Z</time></trkpt><trkpt lat="39.2694808" lon="16.691345"><ele>1004.0</ele><time>2026-05-03T15:39:27.256Z</time></trkpt><trkpt lat="39.2693743" lon="16.6914304"><ele>1001.0</ele><time>2026-05-03T15:39:28.267Z</time></trkpt><trkpt lat="39.2692686" lon="16.6915134"><ele>1001.0</ele><time>2026-05-03T15:39:29.262Z</time></trkpt><trkpt lat="39.2691617" lon="16.6915978"><ele>1000.9999999999999</ele><time>2026-05-03T15:39:30.264Z</time></trkpt><trkpt lat="39.269072" lon="16.6916896"><ele>1000.9999999999999</ele><time>2026-05-03T15:39:31.292Z</time></trkpt><trkpt lat="39.269016" lon="16.6917957"><ele>1001.0</ele><time>2026-05-03T15:39:32.264Z</time></trkpt><trkpt lat="39.2689996" lon="16.6919276"><ele>1001.0</ele><time>2026-05-03T15:39:33.263Z</time></trkpt><trkpt lat="39.2690238" lon="16.6920704"><ele>999.75</ele><time>2026-05-03T15:39:34.262Z</time></trkpt><trkpt lat="39.2690778" lon="16.6922183"><ele>998.5</ele><time>2026-05-03T15:39:35.263Z</time></trkpt><trkpt lat="39.2691344" lon="16.6923902"><ele>997.25</ele><time>2026-05-03T15:39:36.301Z</time></trkpt><trkpt lat="39.2691994" lon="16.6925855"><ele>996.0</ele><time>2026-05-03T15:39:37.259Z</time></trkpt><trkpt lat="39.26927" lon="16.6927983"><ele>995.0</ele><time>2026-05-03T15:39:38.26Z</time></trkpt><trkpt lat="39.2693472" lon="16.6930259"><ele>994.0</ele><time>2026-05-03T15:39:39.261Z</time></trkpt><trkpt lat="39.269423" lon="16.6932576"><ele>993.0</ele><time>2026-05-03T15:39:40.265Z</time></trkpt><trkpt lat="39.2694873" lon="16.6934752"><ele>990.3333333333333</ele><time>2026-05-03T15:39:41.261Z</time></trkpt><trkpt lat="39.2695378" lon="16.6936826"><ele>987.6666666666666</ele><time>2026-05-03T15:39:42.261Z</time></trkpt><trkpt lat="39.2695704" lon="16.6938852"><ele>985.0</ele><time>2026-05-03T15:39:43.282Z</time></trkpt><trkpt lat="39.2695754" lon="16.6940873"><ele>985.0</ele><time>2026-05-03T15:39:44.261Z</time></trkpt><trkpt lat="39.2695479" lon="16.694285"><ele>985.0</ele><time>2026-05-03T15:39:45.259Z</time></trkpt><trkpt lat="39.2694982" lon="16.6944824"><ele>985.0</ele><time>2026-05-03T15:39:46.261Z</time></trkpt><trkpt lat="39.2694278" lon="16.6946862"><ele>985.3333333333333</ele><time>2026-05-03T15:39:47.26Z</time></trkpt><trkpt lat="39.2693441" lon="16.6949025"><ele>985.6666666666667</ele><time>2026-05-03T15:39:48.271Z</time></trkpt><trkpt lat="39.2692603" lon="16.695132"><ele>986.0</ele><time>2026-05-03T15:39:49.264Z</time></trkpt><trkpt lat="39.2691713" lon="16.6953666"><ele>986.3333333333334</ele><time>2026-05-03T15:39:50.263Z</time></trkpt><trkpt lat="39.2690711" lon="16.6956054"><ele>986.6666666666667</ele><time>2026-05-03T15:39:51.258Z</time></trkpt><trkpt lat="39.2689739" lon="16.6958336"><ele>987.0</ele><time>2026-05-03T15:39:52.265Z</time></trkpt><trkpt lat="39.2688796" lon="16.6960561"><ele>987.0</ele><time>2026-05-03T15:39:53.279Z</time></trkpt><trkpt lat="39.2687874" lon="16.6962707"><ele>987.0</ele><time>2026-05-03T15:39:54.261Z</time></trkpt><trkpt lat="39.2686952" lon="16.6964807"><ele>987.0</ele><time>2026-05-03T15:39:55.269Z</time></trkpt><trkpt lat="39.2686039" lon="16.6966802"><ele>987.0</ele><time>2026-05-03T15:39:56.265Z</time></trkpt><trkpt lat="39.2685194" lon="16.6968619"><ele>987.0</ele><time>2026-05-03T15:39:57.261Z</time></trkpt><trkpt lat="39.2684517" lon="16.6970199"><ele>987.0</ele><time>2026-05-03T15:39:58.262Z</time></trkpt><trkpt lat="39.2684354" lon="16.6971843"><ele>987.0</ele><time>2026-05-03T15:39:59.264Z</time></trkpt><trkpt lat="39.2684466" lon="16.6973511"><ele>987.25</ele><time>2026-05-03T15:40:00.279Z</time></trkpt><trkpt lat="39.268462" lon="16.6975211"><ele>987.5</ele><time>2026-05-03T15:40:01.264Z</time></trkpt><trkpt lat="39.2684754" lon="16.6976893"><ele>987.75</ele><time>2026-05-03T15:40:02.259Z</time></trkpt><trkpt lat="39.2684877" lon="16.6978378"><ele>988.0</ele><time>2026-05-03T15:40:03.258Z</time></trkpt><trkpt lat="39.2684566" lon="16.6979725"><ele>988.25</ele><time>2026-05-03T15:40:04.27Z</time></trkpt><trkpt lat="39.2684181" lon="16.69811"><ele>988.5</ele><time>2026-05-03T15:40:05.264Z</time></trkpt><trkpt lat="39.2683233" lon="16.6981986"><ele>988.75</ele><time>2026-05-03T15:40:06.264Z</time></trkpt><trkpt lat="39.268205" lon="16.6982535"><ele>989.0</ele><time>2026-05-03T15:40:07.255Z</time></trkpt><trkpt lat="39.2680996" lon="16.6982863"><ele>990.8000000000001</ele><time>2026-05-03T15:40:08.27Z</time></trkpt><trkpt lat="39.2680047" lon="16.6983225"><ele>992.6000000000001</ele><time>2026-05-03T15:40:09.273Z</time></trkpt><trkpt lat="39.2679165" lon="16.6983786"><ele>994.4</ele><time>2026-05-03T15:40:10.272Z</time></trkpt><trkpt lat="39.2678449" lon="16.6984645"><ele>996.2</ele><time>2026-05-03T15:40:11.284Z</time></trkpt><trkpt lat="39.2677889" lon="16.6985663"><ele>998.0</ele><time>2026-05-03T15:40:12.266Z</time></trkpt><trkpt lat="39.2677436" lon="16.6986628"><ele>998.0</ele><time>2026-05-03T15:40:13.261Z</time></trkpt><trkpt lat="39.2677049" lon="16.6987541"><ele>998.0</ele><time>2026-05-03T15:40:14.267Z</time></trkpt><trkpt lat="39.2676577" lon="16.6988408"><ele>998.0</ele><time>2026-05-03T15:40:15.261Z</time></trkpt><trkpt lat="39.2675805" lon="16.6988924"><ele>998.0</ele><time>2026-05-03T15:40:16.283Z</time></trkpt><trkpt lat="39.2674778" lon="16.6989455"><ele>998.0</ele><time>2026-05-03T15:40:17.269Z</time></trkpt><trkpt lat="39.2673794" lon="16.6990087"><ele>998.0</ele><time>2026-05-03T15:40:18.262Z</time></trkpt><trkpt lat="39.2673027" lon="16.69911"><ele>998.0</ele><time>2026-05-03T15:40:19.263Z</time></trkpt><trkpt lat="39.2672664" lon="16.6992437"><ele>998.0</ele><time>2026-05-03T15:40:20.262Z</time></trkpt><trkpt lat="39.2672518" lon="16.6994075"><ele>998.0</ele><time>2026-05-03T15:40:21.264Z</time></trkpt><trkpt lat="39.2672403" lon="16.6995954"><ele>1000.25</ele><time>2026-05-03T15:40:22.264Z</time></trkpt><trkpt lat="39.2672318" lon="16.6997775"><ele>1002.5</ele><time>2026-05-03T15:40:23.295Z</time></trkpt><trkpt lat="39.2672256" lon="16.6999456"><ele>1004.75</ele><time>2026-05-03T15:40:24.262Z</time></trkpt><trkpt lat="39.2672207" lon="16.7001075"><ele>1007.0</ele><time>2026-05-03T15:40:25.259Z</time></trkpt><trkpt lat="39.2672165" lon="16.7002697"><ele>1007.0</ele><time>2026-05-03T15:40:26.267Z</time></trkpt><trkpt lat="39.2672146" lon="16.7004224"><ele>1007.0</ele><time>2026-05-03T15:40:27.26Z</time></trkpt><trkpt lat="39.2672163" lon="16.7005623"><ele>1007.0</ele><time>2026-05-03T15:40:28.304Z</time></trkpt><trkpt lat="39.2672248" lon="16.7006898"><ele>1007.0</ele><time>2026-05-03T15:40:29.262Z</time></trkpt><trkpt lat="39.2672438" lon="16.7008146"><ele>1007.0</ele><time>2026-05-03T15:40:30.261Z</time></trkpt><trkpt lat="39.2672751" lon="16.7009406"><ele>1003.8</ele><time>2026-05-03T15:40:31.263Z</time></trkpt><trkpt lat="39.2673104" lon="16.7010702"><ele>1000.6</ele><time>2026-05-03T15:40:32.263Z</time></trkpt><trkpt lat="39.2673353" lon="16.7011909"><ele>997.3999999999999</ele><time>2026-05-03T15:40:33.268Z</time></trkpt><trkpt lat="39.267359" lon="16.7013117"><ele>994.1999999999999</ele><time>2026-05-03T15:40:34.269Z</time></trkpt><trkpt lat="39.2673575" lon="16.7014217"><ele>991.0</ele><time>2026-05-03T15:40:35.285Z</time></trkpt><trkpt lat="39.2673534" lon="16.7015208"><ele>990.8333333333333</ele><time>2026-05-03T15:40:36.265Z</time></trkpt><trkpt lat="39.2673531" lon="16.701604"><ele>990.6666666666666</ele><time>2026-05-03T15:40:37.261Z</time></trkpt><trkpt lat="39.2673431" lon="16.701728"><ele>990.5</ele><time>2026-05-03T15:40:39.268Z</time></trkpt><trkpt lat="39.2672963" lon="16.7018341"><ele>990.3333333333333</ele><time>2026-05-03T15:40:46.258Z</time></trkpt><trkpt lat="39.2672255" lon="16.7018372"><ele>990.1666666666666</ele><time>2026-05-03T15:40:49.261Z</time></trkpt><trkpt lat="39.26714" lon="16.701789"><ele>990.0</ele><time>2026-05-03T15:40:51.261Z</time></trkpt><trkpt lat="39.2670415" lon="16.7017232"><ele>991.5</ele><time>2026-05-03T15:40:52.262Z</time></trkpt><trkpt lat="39.2669203" lon="16.7016665"><ele>993.0</ele><time>2026-05-03T15:40:53.278Z</time></trkpt><trkpt lat="39.2667868" lon="16.701606"><ele>994.5</ele><time>2026-05-03T15:40:54.26Z</time></trkpt><trkpt lat="39.2666529" lon="16.7015397"><ele>996.0</ele><time>2026-05-03T15:40:55.265Z</time></trkpt><trkpt lat="39.2665144" lon="16.7014727"><ele>997.25</ele><time>2026-05-03T15:40:56.262Z</time></trkpt><trkpt lat="39.2663924" lon="16.7014153"><ele>998.5</ele><time>2026-05-03T15:40:57.271Z</time></trkpt><trkpt lat="39.2662622" lon="16.7013713"><ele>999.75</ele><time>2026-05-03T15:40:58.262Z</time></trkpt><trkpt lat="39.2661195" lon="16.7013394"><ele>1001.0</ele><time>2026-05-03T15:40:59.265Z</time></trkpt><trkpt lat="39.2659902" lon="16.7013238"><ele>1001.0</ele><time>2026-05-03T15:41:00.261Z</time></trkpt><trkpt lat="39.2658645" lon="16.7013206"><ele>1001.0</ele><time>2026-05-03T15:41:01.268Z</time></trkpt><trkpt lat="39.2657261" lon="16.7013186"><ele>1001.0</ele><time>2026-05-03T15:41:02.265Z</time></trkpt><trkpt lat="39.2655974" lon="16.7013206"><ele>1001.0</ele><time>2026-05-03T15:41:03.277Z</time></trkpt><trkpt lat="39.2654799" lon="16.7013247"><ele>1003.5</ele><time>2026-05-03T15:41:04.271Z</time></trkpt><trkpt lat="39.265345" lon="16.701338"><ele>1006.0</ele><time>2026-05-03T15:41:05.267Z</time></trkpt><trkpt lat="39.2651971" lon="16.7013692"><ele>1008.5</ele><time>2026-05-03T15:41:06.267Z</time></trkpt><trkpt lat="39.265044" lon="16.701433"><ele>1011.0</ele><time>2026-05-03T15:41:07.263Z</time></trkpt><trkpt lat="39.2648985" lon="16.701527"><ele>1016.0</ele><time>2026-05-03T15:41:08.262Z</time></trkpt><trkpt lat="39.2647564" lon="16.7016525"><ele>1021.0</ele><time>2026-05-03T15:41:09.265Z</time></trkpt><trkpt lat="39.2646229" lon="16.7017857"><ele>1026.0</ele><time>2026-05-03T15:41:10.26Z</time></trkpt><trkpt lat="39.2644995" lon="16.7019007"><ele>1021.5</ele><time>2026-05-03T15:41:11.262Z</time></trkpt><trkpt lat="39.2643785" lon="16.7019903"><ele>1017.0</ele><time>2026-05-03T15:41:12.26Z</time></trkpt><trkpt lat="39.2642616" lon="16.7020533"><ele>1012.5</ele><time>2026-05-03T15:41:13.272Z</time></trkpt><trkpt lat="39.2641459" lon="16.7020841"><ele>1008.0</ele><time>2026-05-03T15:41:14.26Z</time></trkpt><trkpt lat="39.2640361" lon="16.7020856"><ele>1010.4</ele><time>2026-05-03T15:41:15.284Z</time></trkpt><trkpt lat="39.2639261" lon="16.7021138"><ele>1012.8</ele><time>2026-05-03T15:41:16.27Z</time></trkpt><trkpt lat="39.2638283" lon="16.7020855"><ele>1015.2</ele><time>2026-05-03T15:41:17.264Z</time></trkpt><trkpt lat="39.2637329" lon="16.7020164"><ele>1017.6</ele><time>2026-05-03T15:41:18.268Z</time></trkpt><trkpt lat="39.2636611" lon="16.7019113"><ele>1020.0</ele><time>2026-05-03T15:41:19.265Z</time></trkpt><trkpt lat="39.2636031" lon="16.7018082"><ele>1020.0</ele><time>2026-05-03T15:41:20.26Z</time></trkpt><trkpt lat="39.2635606" lon="16.7017191"><ele>1020.0</ele><time>2026-05-03T15:41:21.283Z</time></trkpt><trkpt lat="39.2635208" lon="16.7016287"><ele>1020.0</ele><time>2026-05-03T15:41:22.261Z</time></trkpt><trkpt lat="39.2634766" lon="16.701539"><ele>1020.0</ele><time>2026-05-03T15:41:23.263Z</time></trkpt><trkpt lat="39.2634306" lon="16.7014428"><ele>1020.0</ele><time>2026-05-03T15:41:24.263Z</time></trkpt><trkpt lat="39.2633802" lon="16.7013536"><ele>1020.0</ele><time>2026-05-03T15:41:25.264Z</time></trkpt><trkpt lat="39.2633315" lon="16.7012679"><ele>1020.0</ele><time>2026-05-03T15:41:26.262Z</time></trkpt><trkpt lat="39.2632848" lon="16.7011899"><ele>1020.0</ele><time>2026-05-03T15:41:27.266Z</time></trkpt><trkpt lat="39.2632378" lon="16.7011174"><ele>1020.0</ele><time>2026-05-03T15:41:28.26Z</time></trkpt><trkpt lat="39.2631893" lon="16.7010483"><ele>1020.0</ele><time>2026-05-03T15:41:29.261Z</time></trkpt><trkpt lat="39.2631348" lon="16.7009768"><ele>1020.0</ele><time>2026-05-03T15:41:30.257Z</time></trkpt><trkpt lat="39.2630758" lon="16.7009086"><ele>1020.0</ele><time>2026-05-03T15:41:31.261Z</time></trkpt><trkpt lat="39.2630172" lon="16.7008452"><ele>1021.8</ele><time>2026-05-03T15:41:32.266Z</time></trkpt><trkpt lat="39.262962" lon="16.7007884"><ele>1023.6</ele><time>2026-05-03T15:41:33.262Z</time></trkpt><trkpt lat="39.2629102" lon="16.7007316"><ele>1025.4</ele><time>2026-05-03T15:41:34.276Z</time></trkpt><trkpt lat="39.2628154" lon="16.7006361"><ele>1027.2</ele><time>2026-05-03T15:41:36.261Z</time></trkpt><trkpt lat="39.262706" lon="16.7005432"><ele>1029.0</ele><time>2026-05-03T15:41:38.261Z</time></trkpt><trkpt lat="39.2626444" lon="16.7004902"><ele>1029.0</ele><time>2026-05-03T15:41:39.279Z</time></trkpt><trkpt lat="39.2625812" lon="16.7004353"><ele>1029.0</ele><time>2026-05-03T15:41:40.26Z</time></trkpt><trkpt lat="39.2625226" lon="16.7003856"><ele>1029.0</ele><time>2026-05-03T15:41:41.261Z</time></trkpt><trkpt lat="39.2624648" lon="16.7003443"><ele>1029.0</ele><time>2026-05-03T15:41:42.263Z</time></trkpt><trkpt lat="39.2624049" lon="16.7003093"><ele>1029.0</ele><time>2026-05-03T15:41:43.256Z</time></trkpt><trkpt lat="39.2623435" lon="16.7002733"><ele>1029.0</ele><time>2026-05-03T15:41:44.268Z</time></trkpt><trkpt lat="39.2622773" lon="16.7002389"><ele>1029.0</ele><time>2026-05-03T15:41:45.268Z</time></trkpt><trkpt lat="39.2622036" lon="16.7002088"><ele>1031.6666666666667</ele><time>2026-05-03T15:41:46.266Z</time></trkpt><trkpt lat="39.2621256" lon="16.7001834"><ele>1034.3333333333333</ele><time>2026-05-03T15:41:47.298Z</time></trkpt><trkpt lat="39.2620505" lon="16.700165"><ele>1037.0</ele><time>2026-05-03T15:41:48.262Z</time></trkpt><trkpt lat="39.2619793" lon="16.7001521"><ele>1039.6666666666665</ele><time>2026-05-03T15:41:49.269Z</time></trkpt><trkpt lat="39.2619116" lon="16.7001414"><ele>1042.3333333333333</ele><time>2026-05-03T15:41:50.292Z</time></trkpt><trkpt lat="39.2617985" lon="16.7001337"><ele>1045.0</ele><time>2026-05-03T15:41:52.285Z</time></trkpt><trkpt lat="39.2616978" lon="16.7001283"><ele>1045.0</ele><time>2026-05-03T15:41:54.264Z</time></trkpt><trkpt lat="39.2616104" lon="16.7001281"><ele>1045.0</ele><time>2026-05-03T15:41:56.264Z</time></trkpt><trkpt lat="39.2615107" lon="16.7001273"><ele>1045.0</ele><time>2026-05-03T15:41:59.261Z</time></trkpt><trkpt lat="39.2614145" lon="16.7001302"><ele>1045.0</ele><time>2026-05-03T15:42:01.264Z</time></trkpt><trkpt lat="39.2613191" lon="16.7001393"><ele>1045.0</ele><time>2026-05-03T15:42:03.264Z</time></trkpt><trkpt lat="39.2612" lon="16.7001438"><ele>1045.0</ele><time>2026-05-03T15:42:05.265Z</time></trkpt><trkpt lat="39.261097" lon="16.700137"><ele>1045.0</ele><time>2026-05-03T15:42:07.264Z</time></trkpt><trkpt lat="39.2610266" lon="16.7001374"><ele>1045.0</ele><time>2026-05-03T15:42:09.265Z</time></trkpt><trkpt lat="39.2609356" lon="16.7001438"><ele>1045.0</ele><time>2026-05-03T15:42:11.264Z</time></trkpt></trkseg></trk></gpx>